<?xml version='1.0' encoding='UTF-8'?><gpx version="1.1" creator="JPX - https://github.com/jenetics/jpx" xmlns="http://www.topografix.com/GPX/1/1"><trk><trkseg><trkpt lat="43.0301162" lon="13.2963474"><ele>498.0</ele><time>2026-04-11T07:25:17.336Z</time></trkpt><trkpt lat="43.0300745" lon="13.296461"><ele>493.0</ele><time>2026-04-11T07:26:02.367Z</time></trkpt><trkpt lat="43.0296645" lon="13.2963418"><ele>492.75</ele><time>2026-04-11T07:26:07.305Z</time></trkpt><trkpt lat="43.0295596" lon="13.2962544"><ele>492.5</ele><time>2026-04-11T07:26:08.309Z</time></trkpt><trkpt lat="43.0294668" lon="13.2961612"><ele>492.25</ele><time>2026-04-11T07:26:09.388Z</time></trkpt><trkpt lat="43.0293747" lon="13.2960665"><ele>492.0</ele><time>2026-04-11T07:26:10.317Z</time></trkpt><trkpt lat="43.0292682" lon="13.2959529"><ele>492.0</ele><time>2026-04-11T07:26:11.31Z</time></trkpt><trkpt lat="43.0291513" lon="13.2958133"><ele>492.0</ele><time>2026-04-11T07:26:12.334Z</time></trkpt><trkpt lat="43.0290419" lon="13.295658"><ele>492.0</ele><time>2026-04-11T07:26:13.309Z</time></trkpt><trkpt lat="43.0289346" lon="13.2955065"><ele>490.25</ele><time>2026-04-11T07:26:14.318Z</time></trkpt><trkpt lat="43.0288282" lon="13.2953598"><ele>488.5</ele><time>2026-04-11T07:26:15.316Z</time></trkpt><trkpt lat="43.0287229" lon="13.2952162"><ele>486.75</ele><time>2026-04-11T07:26:16.341Z</time></trkpt><trkpt lat="43.0286191" lon="13.2950836"><ele>485.0</ele><time>2026-04-11T07:26:17.335Z</time></trkpt><trkpt lat="43.0285113" lon="13.2949427"><ele>485.0</ele><time>2026-04-11T07:26:18.368Z</time></trkpt><trkpt lat="43.0284076" lon="13.294802"><ele>485.0</ele><time>2026-04-11T07:26:19.331Z</time></trkpt><trkpt lat="43.0283026" lon="13.2946581"><ele>485.0</ele><time>2026-04-11T07:26:20.319Z</time></trkpt><trkpt lat="43.0281925" lon="13.2945099"><ele>485.0</ele><time>2026-04-11T07:26:21.37Z</time></trkpt><trkpt lat="43.0280793" lon="13.2943652"><ele>485.3333333333333</ele><time>2026-04-11T07:26:22.333Z</time></trkpt><trkpt lat="43.0279483" lon="13.2942338"><ele>485.66666666666663</ele><time>2026-04-11T07:26:23.361Z</time></trkpt><trkpt lat="43.0278152" lon="13.2941144"><ele>486.0</ele><time>2026-04-11T07:26:24.364Z</time></trkpt><trkpt lat="43.027698" lon="13.2940107"><ele>487.25</ele><time>2026-04-11T07:26:25.334Z</time></trkpt><trkpt lat="43.027598" lon="13.2939014"><ele>488.5</ele><time>2026-04-11T07:26:26.353Z</time></trkpt><trkpt lat="43.0275125" lon="13.2937763"><ele>489.75</ele><time>2026-04-11T07:26:27.357Z</time></trkpt><trkpt lat="43.0274263" lon="13.2936519"><ele>491.0</ele><time>2026-04-11T07:26:28.364Z</time></trkpt><trkpt lat="43.0273402" lon="13.293529"><ele>488.75</ele><time>2026-04-11T07:26:29.379Z</time></trkpt><trkpt lat="43.0272641" lon="13.2934089"><ele>486.5</ele><time>2026-04-11T07:26:30.326Z</time></trkpt><trkpt lat="43.0271929" lon="13.2932789"><ele>484.25</ele><time>2026-04-11T07:26:31.334Z</time></trkpt><trkpt lat="43.0271185" lon="13.2931446"><ele>482.0</ele><time>2026-04-11T07:26:32.332Z</time></trkpt><trkpt lat="43.0270471" lon="13.293015"><ele>481.99999999999994</ele><time>2026-04-11T07:26:33.329Z</time></trkpt><trkpt lat="43.0269827" lon="13.2928899"><ele>482.0</ele><time>2026-04-11T07:26:34.341Z</time></trkpt><trkpt lat="43.0269316" lon="13.2927833"><ele>482.0</ele><time>2026-04-11T07:26:35.343Z</time></trkpt><trkpt lat="43.0268829" lon="13.292687"><ele>482.0</ele><time>2026-04-11T07:26:36.37Z</time></trkpt><trkpt lat="43.0268354" lon="13.292613"><ele>481.99999999999994</ele><time>2026-04-11T07:26:37.36Z</time></trkpt><trkpt lat="43.0267863" lon="13.29255"><ele>482.0</ele><time>2026-04-11T07:26:38.402Z</time></trkpt><trkpt lat="43.0267064" lon="13.2924414"><ele>482.0</ele><time>2026-04-11T07:26:40.316Z</time></trkpt><trkpt lat="43.0266637" lon="13.292374"><ele>482.00000000000006</ele><time>2026-04-11T07:26:41.363Z</time></trkpt><trkpt lat="43.0266225" lon="13.2922927"><ele>482.0</ele><time>2026-04-11T07:26:42.347Z</time></trkpt><trkpt lat="43.0265778" lon="13.2922133"><ele>482.0</ele><time>2026-04-11T07:26:43.365Z</time></trkpt><trkpt lat="43.0265345" lon="13.2921337"><ele>482.00000000000006</ele><time>2026-04-11T07:26:44.4Z</time></trkpt><trkpt lat="43.026474" lon="13.2920878"><ele>482.0</ele><time>2026-04-11T07:26:45.311Z</time></trkpt><trkpt lat="43.026423" lon="13.2919821"><ele>482.0</ele><time>2026-04-11T07:26:46.356Z</time></trkpt><trkpt lat="43.0263892" lon="13.2918898"><ele>481.40000000000003</ele><time>2026-04-11T07:26:47.343Z</time></trkpt><trkpt lat="43.0263474" lon="13.2917912"><ele>480.80000000000007</ele><time>2026-04-11T07:26:48.351Z</time></trkpt><trkpt lat="43.0262786" lon="13.2917015"><ele>480.2</ele><time>2026-04-11T07:26:49.351Z</time></trkpt><trkpt lat="43.0261899" lon="13.2916665"><ele>479.6</ele><time>2026-04-11T07:26:50.334Z</time></trkpt><trkpt lat="43.0260824" lon="13.2916341"><ele>479.0</ele><time>2026-04-11T07:26:51.357Z</time></trkpt><trkpt lat="43.0259721" lon="13.2915824"><ele>479.0</ele><time>2026-04-11T07:26:52.342Z</time></trkpt><trkpt lat="43.0258278" lon="13.2914636"><ele>479.0</ele><time>2026-04-11T07:26:53.362Z</time></trkpt><trkpt lat="43.0257058" lon="13.2913221"><ele>479.0</ele><time>2026-04-11T07:26:54.332Z</time></trkpt><trkpt lat="43.0256002" lon="13.2911932"><ele>481.25</ele><time>2026-04-11T07:26:55.314Z</time></trkpt><trkpt lat="43.0254878" lon="13.2911133"><ele>483.5</ele><time>2026-04-11T07:26:56.357Z</time></trkpt><trkpt lat="43.0253701" lon="13.2910752"><ele>485.75</ele><time>2026-04-11T07:26:57.343Z</time></trkpt><trkpt lat="43.0252631" lon="13.2910616"><ele>488.0</ele><time>2026-04-11T07:26:58.329Z</time></trkpt><trkpt lat="43.0251441" lon="13.291045"><ele>488.0</ele><time>2026-04-11T07:26:59.349Z</time></trkpt><trkpt lat="43.0250174" lon="13.2909957"><ele>488.0</ele><time>2026-04-11T07:27:00.355Z</time></trkpt><trkpt lat="43.0249037" lon="13.2909144"><ele>488.0</ele><time>2026-04-11T07:27:01.363Z</time></trkpt><trkpt lat="43.024794" lon="13.2908088"><ele>488.0</ele><time>2026-04-11T07:27:02.365Z</time></trkpt><trkpt lat="43.0247037" lon="13.2906741"><ele>490.25</ele><time>2026-04-11T07:27:03.361Z</time></trkpt><trkpt lat="43.0246011" lon="13.2905239"><ele>492.5</ele><time>2026-04-11T07:27:04.342Z</time></trkpt><trkpt lat="43.0244924" lon="13.2903961"><ele>494.75</ele><time>2026-04-11T07:27:05.325Z</time></trkpt><trkpt lat="43.0243662" lon="13.2903253"><ele>497.0</ele><time>2026-04-11T07:27:06.326Z</time></trkpt><trkpt lat="43.0242419" lon="13.2902624"><ele>500.0</ele><time>2026-04-11T07:27:07.323Z</time></trkpt><trkpt lat="43.0241271" lon="13.2902003"><ele>503.0</ele><time>2026-04-11T07:27:08.333Z</time></trkpt><trkpt lat="43.0240123" lon="13.2901109"><ele>506.0</ele><time>2026-04-11T07:27:09.335Z</time></trkpt><trkpt lat="43.0239084" lon="13.2900325"><ele>509.0</ele><time>2026-04-11T07:27:10.327Z</time></trkpt><trkpt lat="43.0238128" lon="13.2899758"><ele>509.0</ele><time>2026-04-11T07:27:11.349Z</time></trkpt><trkpt lat="43.0237112" lon="13.2899551"><ele>509.0</ele><time>2026-04-11T07:27:12.329Z</time></trkpt><trkpt lat="43.0236022" lon="13.28997"><ele>509.0</ele><time>2026-04-11T07:27:13.372Z</time></trkpt><trkpt lat="43.0234884" lon="13.2900163"><ele>509.0</ele><time>2026-04-11T07:27:14.354Z</time></trkpt><trkpt lat="43.0233793" lon="13.2900609"><ele>509.0</ele><time>2026-04-11T07:27:15.349Z</time></trkpt><trkpt lat="43.023275" lon="13.2901105"><ele>509.2</ele><time>2026-04-11T07:27:16.364Z</time></trkpt><trkpt lat="43.023182" lon="13.290143"><ele>509.4</ele><time>2026-04-11T07:27:17.362Z</time></trkpt><trkpt lat="43.0230853" lon="13.2901615"><ele>509.6</ele><time>2026-04-11T07:27:18.321Z</time></trkpt><trkpt lat="43.0229811" lon="13.2901592"><ele>509.8</ele><time>2026-04-11T07:27:19.359Z</time></trkpt><trkpt lat="43.0228629" lon="13.2901313"><ele>510.0</ele><time>2026-04-11T07:27:20.373Z</time></trkpt><trkpt lat="43.022734" lon="13.290096"><ele>510.0</ele><time>2026-04-11T07:27:21.359Z</time></trkpt><trkpt lat="43.022613" lon="13.2900541"><ele>510.0</ele><time>2026-04-11T07:27:22.36Z</time></trkpt><trkpt lat="43.0224898" lon="13.2900099"><ele>510.0</ele><time>2026-04-11T07:27:23.344Z</time></trkpt><trkpt lat="43.022349" lon="13.2899672"><ele>510.0</ele><time>2026-04-11T07:27:24.339Z</time></trkpt><trkpt lat="43.0221898" lon="13.2899088"><ele>509.66666666666663</ele><time>2026-04-11T07:27:25.367Z</time></trkpt><trkpt lat="43.0220459" lon="13.2898247"><ele>509.3333333333333</ele><time>2026-04-11T07:27:26.356Z</time></trkpt><trkpt lat="43.0218943" lon="13.2897357"><ele>509.0</ele><time>2026-04-11T07:27:27.367Z</time></trkpt><trkpt lat="43.0217554" lon="13.2896643"><ele>510.5</ele><time>2026-04-11T07:27:28.399Z</time></trkpt><trkpt lat="43.0216218" lon="13.2896091"><ele>512.0</ele><time>2026-04-11T07:27:29.364Z</time></trkpt><trkpt lat="43.0214807" lon="13.2895591"><ele>513.5</ele><time>2026-04-11T07:27:30.355Z</time></trkpt><trkpt lat="43.0213446" lon="13.2895168"><ele>515.0</ele><time>2026-04-11T07:27:31.313Z</time></trkpt><trkpt lat="43.0212058" lon="13.289482"><ele>515.0</ele><time>2026-04-11T07:27:32.348Z</time></trkpt><trkpt lat="43.0210709" lon="13.2894575"><ele>515.0</ele><time>2026-04-11T07:27:33.322Z</time></trkpt><trkpt lat="43.0209387" lon="13.2894506"><ele>515.0</ele><time>2026-04-11T07:27:34.331Z</time></trkpt><trkpt lat="43.0208095" lon="13.2894396"><ele>515.0</ele><time>2026-04-11T07:27:35.322Z</time></trkpt><trkpt lat="43.0206646" lon="13.289418"><ele>516.25</ele><time>2026-04-11T07:27:36.328Z</time></trkpt><trkpt lat="43.0205187" lon="13.2893778"><ele>517.5</ele><time>2026-04-11T07:27:37.353Z</time></trkpt><trkpt lat="43.0203722" lon="13.2893503"><ele>518.75</ele><time>2026-04-11T07:27:38.329Z</time></trkpt><trkpt lat="43.0202268" lon="13.2893338"><ele>520.0</ele><time>2026-04-11T07:27:39.364Z</time></trkpt><trkpt lat="43.0200766" lon="13.2893452"><ele>519.6666666666667</ele><time>2026-04-11T07:27:40.398Z</time></trkpt><trkpt lat="43.0199247" lon="13.2893917"><ele>519.3333333333334</ele><time>2026-04-11T07:27:41.352Z</time></trkpt><trkpt lat="43.0197646" lon="13.2894422"><ele>519.0</ele><time>2026-04-11T07:27:42.359Z</time></trkpt><trkpt lat="43.0195998" lon="13.2895099"><ele>519.0</ele><time>2026-04-11T07:27:43.361Z</time></trkpt><trkpt lat="43.0194162" lon="13.2895682"><ele>519.0</ele><time>2026-04-11T07:27:44.366Z</time></trkpt><trkpt lat="43.0192205" lon="13.2896117"><ele>519.0</ele><time>2026-04-11T07:27:45.366Z</time></trkpt><trkpt lat="43.0190158" lon="13.289649"><ele>521.0</ele><time>2026-04-11T07:27:46.402Z</time></trkpt><trkpt lat="43.0188223" lon="13.2897013"><ele>523.0</ele><time>2026-04-11T07:27:47.357Z</time></trkpt><trkpt lat="43.0186336" lon="13.2897555"><ele>525.0</ele><time>2026-04-11T07:27:48.34Z</time></trkpt><trkpt lat="43.0184601" lon="13.2898075"><ele>530.0</ele><time>2026-04-11T07:27:49.359Z</time></trkpt><trkpt lat="43.0183014" lon="13.2898556"><ele>535.0</ele><time>2026-04-11T07:27:50.366Z</time></trkpt><trkpt lat="43.0181409" lon="13.2898793"><ele>540.0</ele><time>2026-04-11T07:27:51.353Z</time></trkpt><trkpt lat="43.0179881" lon="13.2899121"><ele>540.0</ele><time>2026-04-11T07:27:52.338Z</time></trkpt><trkpt lat="43.0178524" lon="13.2899528"><ele>540.0</ele><time>2026-04-11T07:27:53.359Z</time></trkpt><trkpt lat="43.0177294" lon="13.2900357"><ele>540.0</ele><time>2026-04-11T07:27:54.352Z</time></trkpt><trkpt lat="43.017613" lon="13.290119"><ele>540.0</ele><time>2026-04-11T07:27:55.364Z</time></trkpt><trkpt lat="43.0175026" lon="13.2901999"><ele>542.75</ele><time>2026-04-11T07:27:56.367Z</time></trkpt><trkpt lat="43.0173856" lon="13.2902075"><ele>545.5</ele><time>2026-04-11T07:27:57.359Z</time></trkpt><trkpt lat="43.0172437" lon="13.2901553"><ele>548.25</ele><time>2026-04-11T07:27:58.361Z</time></trkpt><trkpt lat="43.0170954" lon="13.2901081"><ele>551.0</ele><time>2026-04-11T07:27:59.356Z</time></trkpt><trkpt lat="43.0169215" lon="13.2900411"><ele>551.0</ele><time>2026-04-11T07:28:00.338Z</time></trkpt><trkpt lat="43.0167366" lon="13.2899918"><ele>551.0</ele><time>2026-04-11T07:28:01.369Z</time></trkpt><trkpt lat="43.0165823" lon="13.2899339"><ele>551.0</ele><time>2026-04-11T07:28:02.372Z</time></trkpt><trkpt lat="43.0164471" lon="13.2898893"><ele>551.75</ele><time>2026-04-11T07:28:03.332Z</time></trkpt><trkpt lat="43.0163282" lon="13.2898393"><ele>552.5</ele><time>2026-04-11T07:28:04.363Z</time></trkpt><trkpt lat="43.0162136" lon="13.2897668"><ele>553.25</ele><time>2026-04-11T07:28:05.365Z</time></trkpt><trkpt lat="43.0160946" lon="13.289666"><ele>554.0</ele><time>2026-04-11T07:28:06.334Z</time></trkpt><trkpt lat="43.0159899" lon="13.2895558"><ele>554.0</ele><time>2026-04-11T07:28:07.322Z</time></trkpt><trkpt lat="43.0159008" lon="13.2894461"><ele>554.0</ele><time>2026-04-11T07:28:08.335Z</time></trkpt><trkpt lat="43.0158255" lon="13.2893384"><ele>554.0</ele><time>2026-04-11T07:28:09.322Z</time></trkpt><trkpt lat="43.0157687" lon="13.2892298"><ele>554.0</ele><time>2026-04-11T07:28:10.321Z</time></trkpt><trkpt lat="43.015724" lon="13.2891281"><ele>554.0</ele><time>2026-04-11T07:28:11.319Z</time></trkpt><trkpt lat="43.0157087" lon="13.2889977"><ele>555.3333333333333</ele><time>2026-04-11T07:28:12.342Z</time></trkpt><trkpt lat="43.0157117" lon="13.2888796"><ele>556.6666666666666</ele><time>2026-04-11T07:28:13.369Z</time></trkpt><trkpt lat="43.0157075" lon="13.288785"><ele>558.0</ele><time>2026-04-11T07:28:14.371Z</time></trkpt><trkpt lat="43.0157013" lon="13.2886879"><ele>559.3333333333334</ele><time>2026-04-11T07:28:15.361Z</time></trkpt><trkpt lat="43.0156493" lon="13.2885916"><ele>560.6666666666667</ele><time>2026-04-11T07:28:16.338Z</time></trkpt><trkpt lat="43.0155851" lon="13.2884807"><ele>562.0</ele><time>2026-04-11T07:28:17.352Z</time></trkpt><trkpt lat="43.0155102" lon="13.2883795"><ele>562.0</ele><time>2026-04-11T07:28:18.349Z</time></trkpt><trkpt lat="43.0154368" lon="13.2882846"><ele>562.0</ele><time>2026-04-11T07:28:19.439Z</time></trkpt><trkpt lat="43.0153542" lon="13.2881833"><ele>562.0</ele><time>2026-04-11T07:28:20.353Z</time></trkpt><trkpt lat="43.015269" lon="13.2881036"><ele>562.0</ele><time>2026-04-11T07:28:21.378Z</time></trkpt><trkpt lat="43.015198" lon="13.2880252"><ele>562.0</ele><time>2026-04-11T07:28:22.375Z</time></trkpt><trkpt lat="43.015118" lon="13.2879905"><ele>563.0</ele><time>2026-04-11T07:28:23.367Z</time></trkpt><trkpt lat="43.0150508" lon="13.2879685"><ele>564.0</ele><time>2026-04-11T07:28:24.353Z</time></trkpt><trkpt lat="43.0149666" lon="13.2878802"><ele>565.0</ele><time>2026-04-11T07:28:26.379Z</time></trkpt><trkpt lat="43.0149013" lon="13.287807"><ele>566.0</ele><time>2026-04-11T07:29:42.402Z</time></trkpt><trkpt lat="43.0148069" lon="13.2877179"><ele>567.0</ele><time>2026-04-11T07:29:44.368Z</time></trkpt><trkpt lat="43.0147264" lon="13.2876435"><ele>568.5</ele><time>2026-04-11T07:29:45.368Z</time></trkpt><trkpt lat="43.014637" lon="13.2875438"><ele>570.0</ele><time>2026-04-11T07:29:46.334Z</time></trkpt><trkpt lat="43.0145429" lon="13.2874439"><ele>571.5</ele><time>2026-04-11T07:29:47.363Z</time></trkpt><trkpt lat="43.0144783" lon="13.2873274"><ele>573.0</ele><time>2026-04-11T07:29:48.368Z</time></trkpt><trkpt lat="43.0144089" lon="13.2871664"><ele>573.0</ele><time>2026-04-11T07:29:49.32Z</time></trkpt><trkpt lat="43.0143477" lon="13.2870068"><ele>573.0</ele><time>2026-04-11T07:29:50.366Z</time></trkpt><trkpt lat="43.0142902" lon="13.2868791"><ele>573.0</ele><time>2026-04-11T07:29:51.331Z</time></trkpt><trkpt lat="43.0142387" lon="13.2867833"><ele>573.0</ele><time>2026-04-11T07:29:52.375Z</time></trkpt><trkpt lat="43.0141739" lon="13.2867154"><ele>573.0</ele><time>2026-04-11T07:29:53.312Z</time></trkpt><trkpt lat="43.0140878" lon="13.2866943"><ele>573.1999999999999</ele><time>2026-04-11T07:29:54.372Z</time></trkpt><trkpt lat="43.0140002" lon="13.2867284"><ele>573.4</ele><time>2026-04-11T07:29:55.376Z</time></trkpt><trkpt lat="43.0139152" lon="13.2868003"><ele>573.5999999999999</ele><time>2026-04-11T07:29:56.336Z</time></trkpt><trkpt lat="43.0138396" lon="13.2868834"><ele>573.8</ele><time>2026-04-11T07:29:57.39Z</time></trkpt><trkpt lat="43.0137652" lon="13.2869792"><ele>574.0</ele><time>2026-04-11T07:29:58.369Z</time></trkpt><trkpt lat="43.0136886" lon="13.2871037"><ele>574.0</ele><time>2026-04-11T07:29:59.361Z</time></trkpt><trkpt lat="43.0136054" lon="13.2872583"><ele>574.0</ele><time>2026-04-11T07:30:00.367Z</time></trkpt><trkpt lat="43.0135214" lon="13.2874007"><ele>574.0</ele><time>2026-04-11T07:30:01.35Z</time></trkpt><trkpt lat="43.0134423" lon="13.287534"><ele>574.0</ele><time>2026-04-11T07:30:02.339Z</time></trkpt><trkpt lat="43.0133663" lon="13.2876718"><ele>574.6</ele><time>2026-04-11T07:30:03.368Z</time></trkpt><trkpt lat="43.0133112" lon="13.287803"><ele>575.2</ele><time>2026-04-11T07:30:04.344Z</time></trkpt><trkpt lat="43.0132648" lon="13.2879247"><ele>575.8000000000001</ele><time>2026-04-11T07:30:05.398Z</time></trkpt><trkpt lat="43.0132137" lon="13.2880358"><ele>576.4</ele><time>2026-04-11T07:30:06.323Z</time></trkpt><trkpt lat="43.0131497" lon="13.288138"><ele>577.0</ele><time>2026-04-11T07:30:07.352Z</time></trkpt><trkpt lat="43.013069" lon="13.2882274"><ele>578.8000000000001</ele><time>2026-04-11T07:30:08.375Z</time></trkpt><trkpt lat="43.0129785" lon="13.2882965"><ele>580.6</ele><time>2026-04-11T07:30:09.332Z</time></trkpt><trkpt lat="43.0128839" lon="13.2883593"><ele>582.4000000000001</ele><time>2026-04-11T07:30:10.387Z</time></trkpt><trkpt lat="43.0127877" lon="13.2884145"><ele>584.2</ele><time>2026-04-11T07:30:11.352Z</time></trkpt><trkpt lat="43.0126861" lon="13.2884596"><ele>586.0</ele><time>2026-04-11T07:30:12.332Z</time></trkpt><trkpt lat="43.0125809" lon="13.2884999"><ele>587.6666666666667</ele><time>2026-04-11T07:30:13.364Z</time></trkpt><trkpt lat="43.0124791" lon="13.288537"><ele>589.3333333333334</ele><time>2026-04-11T07:30:14.382Z</time></trkpt><trkpt lat="43.0123863" lon="13.2885687"><ele>591.0</ele><time>2026-04-11T07:30:15.383Z</time></trkpt><trkpt lat="43.0123105" lon="13.288595"><ele>592.6666666666666</ele><time>2026-04-11T07:30:16.376Z</time></trkpt><trkpt lat="43.0122425" lon="13.2886108"><ele>594.3333333333333</ele><time>2026-04-11T07:30:17.368Z</time></trkpt><trkpt lat="43.0121734" lon="13.2886138"><ele>596.0</ele><time>2026-04-11T07:30:18.394Z</time></trkpt><trkpt lat="43.0120993" lon="13.2886154"><ele>596.0</ele><time>2026-04-11T07:30:19.356Z</time></trkpt><trkpt lat="43.0120223" lon="13.2885414"><ele>596.0</ele><time>2026-04-11T07:30:20.38Z</time></trkpt><trkpt lat="43.0119553" lon="13.2884603"><ele>596.0</ele><time>2026-04-11T07:30:21.358Z</time></trkpt><trkpt lat="43.0118954" lon="13.2883944"><ele>596.0</ele><time>2026-04-11T07:30:22.381Z</time></trkpt><trkpt lat="43.0118319" lon="13.2883548"><ele>596.0</ele><time>2026-04-11T07:30:23.372Z</time></trkpt><trkpt lat="43.0117652" lon="13.2883418"><ele>596.0</ele><time>2026-04-11T07:30:24.374Z</time></trkpt><trkpt lat="43.01169" lon="13.2883435"><ele>597.1666666666666</ele><time>2026-04-11T07:30:25.368Z</time></trkpt><trkpt lat="43.0116101" lon="13.2883572"><ele>598.3333333333333</ele><time>2026-04-11T07:30:26.345Z</time></trkpt><trkpt lat="43.0115213" lon="13.2883684"><ele>599.5</ele><time>2026-04-11T07:30:27.352Z</time></trkpt><trkpt lat="43.0114332" lon="13.2883567"><ele>600.6666666666666</ele><time>2026-04-11T07:30:28.363Z</time></trkpt><trkpt lat="43.011337" lon="13.2883289"><ele>601.8333333333334</ele><time>2026-04-11T07:30:29.363Z</time></trkpt><trkpt lat="43.011248" lon="13.2882951"><ele>603.0</ele><time>2026-04-11T07:30:30.359Z</time></trkpt><trkpt lat="43.0111587" lon="13.2882601"><ele>603.0</ele><time>2026-04-11T07:30:31.32Z</time></trkpt><trkpt lat="43.0110691" lon="13.2882248"><ele>603.0</ele><time>2026-04-11T07:30:32.359Z</time></trkpt><trkpt lat="43.0109755" lon="13.2881829"><ele>603.0</ele><time>2026-04-11T07:30:33.351Z</time></trkpt><trkpt lat="43.0108819" lon="13.2881402"><ele>603.0</ele><time>2026-04-11T07:30:34.386Z</time></trkpt><trkpt lat="43.0107859" lon="13.2880898"><ele>603.0</ele><time>2026-04-11T07:30:35.347Z</time></trkpt><trkpt lat="43.0106949" lon="13.2880292"><ele>603.1999999999999</ele><time>2026-04-11T07:30:36.332Z</time></trkpt><trkpt lat="43.0106119" lon="13.2879595"><ele>603.4</ele><time>2026-04-11T07:30:37.315Z</time></trkpt><trkpt lat="43.0105292" lon="13.2878955"><ele>603.5999999999999</ele><time>2026-04-11T07:30:38.331Z</time></trkpt><trkpt lat="43.0104441" lon="13.2878332"><ele>603.8</ele><time>2026-04-11T07:30:39.35Z</time></trkpt><trkpt lat="43.0103608" lon="13.2877609"><ele>604.0</ele><time>2026-04-11T07:30:40.33Z</time></trkpt><trkpt lat="43.0102828" lon="13.2876836"><ele>604.0</ele><time>2026-04-11T07:30:41.379Z</time></trkpt><trkpt lat="43.0102043" lon="13.2875948"><ele>604.0</ele><time>2026-04-11T07:30:42.325Z</time></trkpt><trkpt lat="43.0101226" lon="13.2874704"><ele>604.0</ele><time>2026-04-11T07:30:43.329Z</time></trkpt><trkpt lat="43.0100475" lon="13.2873797"><ele>604.0</ele><time>2026-04-11T07:30:44.317Z</time></trkpt><trkpt lat="43.0099735" lon="13.2873003"><ele>604.0</ele><time>2026-04-11T07:30:45.351Z</time></trkpt><trkpt lat="43.0099061" lon="13.287223"><ele>608.4</ele><time>2026-04-11T07:30:46.347Z</time></trkpt><trkpt lat="43.0098583" lon="13.2871117"><ele>612.8</ele><time>2026-04-11T07:30:47.349Z</time></trkpt><trkpt lat="43.009823" lon="13.2869817"><ele>617.2</ele><time>2026-04-11T07:30:48.35Z</time></trkpt><trkpt lat="43.0097918" lon="13.286849"><ele>621.6</ele><time>2026-04-11T07:30:49.347Z</time></trkpt><trkpt lat="43.0097539" lon="13.2867238"><ele>626.0</ele><time>2026-04-11T07:30:50.344Z</time></trkpt><trkpt lat="43.0097106" lon="13.2866106"><ele>626.0</ele><time>2026-04-11T07:30:51.341Z</time></trkpt><trkpt lat="43.00966" lon="13.2865027"><ele>626.0</ele><time>2026-04-11T07:30:52.385Z</time></trkpt><trkpt lat="43.0096029" lon="13.2864003"><ele>626.0</ele><time>2026-04-11T07:30:53.349Z</time></trkpt><trkpt lat="43.0095409" lon="13.2863101"><ele>626.0</ele><time>2026-04-11T07:30:54.36Z</time></trkpt><trkpt lat="43.0094572" lon="13.2862272"><ele>626.0</ele><time>2026-04-11T07:30:55.351Z</time></trkpt><trkpt lat="43.0093595" lon="13.28616"><ele>623.75</ele><time>2026-04-11T07:30:56.351Z</time></trkpt><trkpt lat="43.0092541" lon="13.2860857"><ele>621.5</ele><time>2026-04-11T07:30:57.348Z</time></trkpt><trkpt lat="43.0091517" lon="13.2859988"><ele>619.25</ele><time>2026-04-11T07:30:58.359Z</time></trkpt><trkpt lat="43.0090606" lon="13.285909"><ele>617.0</ele><time>2026-04-11T07:30:59.36Z</time></trkpt><trkpt lat="43.0089679" lon="13.2858263"><ele>617.0</ele><time>2026-04-11T07:31:00.369Z</time></trkpt><trkpt lat="43.0088777" lon="13.285719"><ele>617.0</ele><time>2026-04-11T07:31:01.36Z</time></trkpt><trkpt lat="43.0088001" lon="13.2856443"><ele>617.0</ele><time>2026-04-11T07:31:02.359Z</time></trkpt><trkpt lat="43.0087109" lon="13.2855792"><ele>617.0</ele><time>2026-04-11T07:31:03.366Z</time></trkpt><trkpt lat="43.0086188" lon="13.2855174"><ele>617.0</ele><time>2026-04-11T07:31:04.36Z</time></trkpt><trkpt lat="43.0085267" lon="13.2854466"><ele>619.0</ele><time>2026-04-11T07:31:05.347Z</time></trkpt><trkpt lat="43.0084366" lon="13.2853347"><ele>621.0</ele><time>2026-04-11T07:31:06.351Z</time></trkpt><trkpt lat="43.0083641" lon="13.2852092"><ele>623.0</ele><time>2026-04-11T07:31:07.328Z</time></trkpt><trkpt lat="43.0083109" lon="13.2850614"><ele>625.0</ele><time>2026-04-11T07:31:08.355Z</time></trkpt><trkpt lat="43.0082704" lon="13.2849202"><ele>625.0</ele><time>2026-04-11T07:31:09.353Z</time></trkpt><trkpt lat="43.0082437" lon="13.2847902"><ele>625.0</ele><time>2026-04-11T07:31:10.349Z</time></trkpt><trkpt lat="43.0082257" lon="13.2846873"><ele>625.0</ele><time>2026-04-11T07:31:11.351Z</time></trkpt><trkpt lat="43.0081908" lon="13.2845874"><ele>625.0</ele><time>2026-04-11T07:31:12.36Z</time></trkpt><trkpt lat="43.0081312" lon="13.2845372"><ele>625.0</ele><time>2026-04-11T07:31:13.365Z</time></trkpt><trkpt lat="43.0080469" lon="13.2845249"><ele>625.0</ele><time>2026-04-11T07:31:14.33Z</time></trkpt><trkpt lat="43.0079528" lon="13.2845113"><ele>625.0</ele><time>2026-04-11T07:31:15.312Z</time></trkpt><trkpt lat="43.0078442" lon="13.2845354"><ele>625.0</ele><time>2026-04-11T07:31:16.314Z</time></trkpt><trkpt lat="43.007742" lon="13.2845901"><ele>625.0</ele><time>2026-04-11T07:31:17.331Z</time></trkpt><trkpt lat="43.0076298" lon="13.2846837"><ele>625.0</ele><time>2026-04-11T07:31:18.345Z</time></trkpt><trkpt lat="43.0075592" lon="13.2847711"><ele>625.0</ele><time>2026-04-11T07:31:19.355Z</time></trkpt><trkpt lat="43.0074925" lon="13.2848373"><ele>624.6666666666667</ele><time>2026-04-11T07:31:20.356Z</time></trkpt><trkpt lat="43.007403" lon="13.2848268"><ele>624.3333333333334</ele><time>2026-04-11T07:31:21.32Z</time></trkpt><trkpt lat="43.0073057" lon="13.2847735"><ele>624.0</ele><time>2026-04-11T07:31:22.353Z</time></trkpt><trkpt lat="43.0072262" lon="13.2847116"><ele>623.6666666666666</ele><time>2026-04-11T07:31:23.342Z</time></trkpt><trkpt lat="43.0071559" lon="13.2846764"><ele>623.3333333333333</ele><time>2026-04-11T07:31:24.348Z</time></trkpt><trkpt lat="43.0070861" lon="13.2846842"><ele>623.0</ele><time>2026-04-11T07:31:25.356Z</time></trkpt><trkpt lat="43.0070127" lon="13.2847483"><ele>623.0</ele><time>2026-04-11T07:31:26.39Z</time></trkpt><trkpt lat="43.0069196" lon="13.2848517"><ele>623.0</ele><time>2026-04-11T07:31:27.336Z</time></trkpt><trkpt lat="43.0068179" lon="13.2849599"><ele>623.0</ele><time>2026-04-11T07:31:28.344Z</time></trkpt><trkpt lat="43.0066979" lon="13.2850719"><ele>623.0</ele><time>2026-04-11T07:31:29.359Z</time></trkpt><trkpt lat="43.0065754" lon="13.2851857"><ele>619.25</ele><time>2026-04-11T07:31:30.36Z</time></trkpt><trkpt lat="43.0064633" lon="13.2852965"><ele>615.5</ele><time>2026-04-11T07:31:31.371Z</time></trkpt><trkpt lat="43.0063537" lon="13.2853922"><ele>611.75</ele><time>2026-04-11T07:31:32.314Z</time></trkpt><trkpt lat="43.0062464" lon="13.285479"><ele>608.0</ele><time>2026-04-11T07:31:33.365Z</time></trkpt><trkpt lat="43.0061444" lon="13.2855492"><ele>608.0</ele><time>2026-04-11T07:31:34.341Z</time></trkpt><trkpt lat="43.0060427" lon="13.2855892"><ele>608.0</ele><time>2026-04-11T07:31:35.33Z</time></trkpt><trkpt lat="43.0059431" lon="13.2856005"><ele>608.0</ele><time>2026-04-11T07:31:36.361Z</time></trkpt><trkpt lat="43.0058594" lon="13.2855957"><ele>608.0</ele><time>2026-04-11T07:31:37.331Z</time></trkpt><trkpt lat="43.0057862" lon="13.2855865"><ele>608.0</ele><time>2026-04-11T07:31:38.375Z</time></trkpt><trkpt lat="43.0056663" lon="13.2856003"><ele>607.6</ele><time>2026-04-11T07:31:40.367Z</time></trkpt><trkpt lat="43.0055611" lon="13.2856869"><ele>607.1999999999999</ele><time>2026-04-11T07:31:42.389Z</time></trkpt><trkpt lat="43.0055287" lon="13.285765"><ele>606.8</ele><time>2026-04-11T07:31:43.349Z</time></trkpt><trkpt lat="43.0055168" lon="13.2858659"><ele>606.4</ele><time>2026-04-11T07:31:44.308Z</time></trkpt><trkpt lat="43.0055255" lon="13.2859878"><ele>606.0</ele><time>2026-04-11T07:31:45.347Z</time></trkpt><trkpt lat="43.0055461" lon="13.2861208"><ele>606.0</ele><time>2026-04-11T07:31:46.441Z</time></trkpt><trkpt lat="43.0055661" lon="13.2862515"><ele>606.0</ele><time>2026-04-11T07:31:47.358Z</time></trkpt><trkpt lat="43.0055862" lon="13.286375"><ele>606.0</ele><time>2026-04-11T07:31:48.341Z</time></trkpt><trkpt lat="43.0055872" lon="13.2865134"><ele>606.0</ele><time>2026-04-11T07:31:49.353Z</time></trkpt><trkpt lat="43.0055775" lon="13.2866476"><ele>606.0</ele><time>2026-04-11T07:31:50.357Z</time></trkpt><trkpt lat="43.0055634" lon="13.2867736"><ele>607.0</ele><time>2026-04-11T07:31:51.326Z</time></trkpt><trkpt lat="43.0055582" lon="13.2868794"><ele>608.0</ele><time>2026-04-11T07:31:52.346Z</time></trkpt><trkpt lat="43.0055617" lon="13.2869738"><ele>609.0</ele><time>2026-04-11T07:31:53.351Z</time></trkpt><trkpt lat="43.0055481" lon="13.287129"><ele>610.0</ele><time>2026-04-11T07:31:55.374Z</time></trkpt><trkpt lat="43.0055125" lon="13.2872249"><ele>611.0</ele><time>2026-04-11T07:31:57.333Z</time></trkpt><trkpt lat="43.0054087" lon="13.2872053"><ele>612.0</ele><time>2026-04-11T07:31:59.332Z</time></trkpt><trkpt lat="43.0053226" lon="13.2871863"><ele>612.0</ele><time>2026-04-11T07:32:00.331Z</time></trkpt><trkpt lat="43.0052259" lon="13.2871682"><ele>612.0</ele><time>2026-04-11T07:32:01.355Z</time></trkpt><trkpt lat="43.0051339" lon="13.2871544"><ele>612.0</ele><time>2026-04-11T07:32:02.32Z</time></trkpt><trkpt lat="43.0050458" lon="13.2871675"><ele>612.0</ele><time>2026-04-11T07:32:03.354Z</time></trkpt><trkpt lat="43.0049611" lon="13.287185"><ele>612.0</ele><time>2026-04-11T07:32:04.351Z</time></trkpt><trkpt lat="43.0048909" lon="13.287258"><ele>612.75</ele><time>2026-04-11T07:32:05.351Z</time></trkpt><trkpt lat="43.0048236" lon="13.2873608"><ele>613.5</ele><time>2026-04-11T07:32:06.421Z</time></trkpt><trkpt lat="43.0047559" lon="13.2874818"><ele>614.25</ele><time>2026-04-11T07:32:07.351Z</time></trkpt><trkpt lat="43.004679" lon="13.2876226"><ele>615.0</ele><time>2026-04-11T07:32:08.351Z</time></trkpt><trkpt lat="43.0045978" lon="13.2877817"><ele>615.0</ele><time>2026-04-11T07:32:09.328Z</time></trkpt><trkpt lat="43.0045489" lon="13.2879636"><ele>615.0</ele><time>2026-04-11T07:32:10.34Z</time></trkpt><trkpt lat="43.004503" lon="13.2881336"><ele>615.0</ele><time>2026-04-11T07:32:11.335Z</time></trkpt><trkpt lat="43.0044547" lon="13.2882586"><ele>615.0</ele><time>2026-04-11T07:32:12.341Z</time></trkpt><trkpt lat="43.0043803" lon="13.2883549"><ele>615.2</ele><time>2026-04-11T07:32:13.351Z</time></trkpt><trkpt lat="43.0043048" lon="13.2884456"><ele>615.4</ele><time>2026-04-11T07:32:14.329Z</time></trkpt><trkpt lat="43.0042288" lon="13.2885177"><ele>615.6</ele><time>2026-04-11T07:32:15.35Z</time></trkpt><trkpt lat="43.0041609" lon="13.288589"><ele>615.8</ele><time>2026-04-11T07:32:16.338Z</time></trkpt><trkpt lat="43.0041044" lon="13.2886755"><ele>616.0</ele><time>2026-04-11T07:32:17.323Z</time></trkpt><trkpt lat="43.0040659" lon="13.2888123"><ele>618.75</ele><time>2026-04-11T07:32:18.331Z</time></trkpt><trkpt lat="43.004009" lon="13.2889688"><ele>621.5</ele><time>2026-04-11T07:32:19.343Z</time></trkpt><trkpt lat="43.0039285" lon="13.289097"><ele>624.25</ele><time>2026-04-11T07:32:20.347Z</time></trkpt><trkpt lat="43.0038529" lon="13.2892193"><ele>627.0</ele><time>2026-04-11T07:32:21.341Z</time></trkpt><trkpt lat="43.0037826" lon="13.2893072"><ele>627.0</ele><time>2026-04-11T07:32:22.332Z</time></trkpt><trkpt lat="43.0036978" lon="13.289372"><ele>627.0</ele><time>2026-04-11T07:32:23.329Z</time></trkpt><trkpt lat="43.0035836" lon="13.2893854"><ele>627.0</ele><time>2026-04-11T07:32:24.332Z</time></trkpt><trkpt lat="43.0034926" lon="13.2893875"><ele>627.0</ele><time>2026-04-11T07:32:25.336Z</time></trkpt><trkpt lat="43.0034156" lon="13.289433"><ele>627.0</ele><time>2026-04-11T07:32:26.342Z</time></trkpt><trkpt lat="43.0033273" lon="13.2894802"><ele>628.75</ele><time>2026-04-11T07:32:27.326Z</time></trkpt><trkpt lat="43.0032504" lon="13.289564"><ele>630.5</ele><time>2026-04-11T07:32:28.351Z</time></trkpt><trkpt lat="43.0031695" lon="13.2896902"><ele>632.25</ele><time>2026-04-11T07:32:29.368Z</time></trkpt><trkpt lat="43.003088" lon="13.2898215"><ele>634.0</ele><time>2026-04-11T07:32:30.317Z</time></trkpt><trkpt lat="43.0030174" lon="13.2899791"><ele>636.2</ele><time>2026-04-11T07:32:31.341Z</time></trkpt><trkpt lat="43.0029468" lon="13.2901301"><ele>638.4</ele><time>2026-04-11T07:32:32.312Z</time></trkpt><trkpt lat="43.0028865" lon="13.2902415"><ele>640.6</ele><time>2026-04-11T07:32:33.342Z</time></trkpt><trkpt lat="43.0028206" lon="13.2903182"><ele>642.8</ele><time>2026-04-11T07:32:34.334Z</time></trkpt><trkpt lat="43.0027561" lon="13.2903405"><ele>645.0</ele><time>2026-04-11T07:32:35.345Z</time></trkpt><trkpt lat="43.0026795" lon="13.2903272"><ele>645.0</ele><time>2026-04-11T07:32:36.337Z</time></trkpt><trkpt lat="43.0026074" lon="13.290284"><ele>645.0</ele><time>2026-04-11T07:32:37.322Z</time></trkpt><trkpt lat="43.0025619" lon="13.2901827"><ele>645.0</ele><time>2026-04-11T07:32:38.349Z</time></trkpt><trkpt lat="43.0025401" lon="13.2900395"><ele>645.0</ele><time>2026-04-11T07:32:39.344Z</time></trkpt><trkpt lat="43.0025413" lon="13.2898719"><ele>645.0</ele><time>2026-04-11T07:32:40.346Z</time></trkpt><trkpt lat="43.0025625" lon="13.289694"><ele>645.0</ele><time>2026-04-11T07:32:41.382Z</time></trkpt><trkpt lat="43.0025899" lon="13.2895642"><ele>645.0</ele><time>2026-04-11T07:32:42.329Z</time></trkpt><trkpt lat="43.0026074" lon="13.2894752"><ele>645.0</ele><time>2026-04-11T07:32:43.334Z</time></trkpt><trkpt lat="43.0025403" lon="13.2893421"><ele>645.0</ele><time>2026-04-11T07:32:45.369Z</time></trkpt><trkpt lat="43.0024429" lon="13.2893212"><ele>645.0</ele><time>2026-04-11T07:32:46.354Z</time></trkpt><trkpt lat="43.0023304" lon="13.2893269"><ele>645.0</ele><time>2026-04-11T07:32:47.335Z</time></trkpt><trkpt lat="43.0022059" lon="13.2893245"><ele>645.0</ele><time>2026-04-11T07:32:48.357Z</time></trkpt><trkpt lat="43.0020582" lon="13.289321"><ele>645.0</ele><time>2026-04-11T07:32:49.353Z</time></trkpt><trkpt lat="43.0019087" lon="13.2892676"><ele>645.0</ele><time>2026-04-11T07:32:50.354Z</time></trkpt><trkpt lat="43.0017757" lon="13.2891995"><ele>645.0</ele><time>2026-04-11T07:32:51.34Z</time></trkpt><trkpt lat="43.0016762" lon="13.2891449"><ele>645.0</ele><time>2026-04-11T07:32:52.321Z</time></trkpt><trkpt lat="43.0015988" lon="13.2891165"><ele>645.0</ele><time>2026-04-11T07:32:53.336Z</time></trkpt><trkpt lat="43.0015325" lon="13.289099"><ele>645.0</ele><time>2026-04-11T07:32:54.323Z</time></trkpt><trkpt lat="43.0014691" lon="13.2891699"><ele>645.0</ele><time>2026-04-11T07:32:56.351Z</time></trkpt><trkpt lat="43.0015505" lon="13.289309"><ele>645.0</ele><time>2026-04-11T07:32:58.362Z</time></trkpt><trkpt lat="43.0016073" lon="13.2893786"><ele>645.0</ele><time>2026-04-11T07:32:59.32Z</time></trkpt><trkpt lat="43.0016985" lon="13.2894576"><ele>645.0</ele><time>2026-04-11T07:33:00.348Z</time></trkpt><trkpt lat="43.001805" lon="13.2895301"><ele>645.0</ele><time>2026-04-11T07:33:01.339Z</time></trkpt><trkpt lat="43.0019148" lon="13.2895875"><ele>645.0</ele><time>2026-04-11T07:33:02.348Z</time></trkpt><trkpt lat="43.0020149" lon="13.2896386"><ele>645.0</ele><time>2026-04-11T07:33:03.374Z</time></trkpt><trkpt lat="43.0020676" lon="13.2897044"><ele>645.0</ele><time>2026-04-11T07:33:04.342Z</time></trkpt><trkpt lat="43.002127" lon="13.2898111"><ele>645.0</ele><time>2026-04-11T07:33:06.362Z</time></trkpt><trkpt lat="43.0020608" lon="13.2898776"><ele>645.0</ele><time>2026-04-11T07:33:08.362Z</time></trkpt><trkpt lat="43.0019864" lon="13.28987"><ele>645.0</ele><time>2026-04-11T07:33:09.347Z</time></trkpt><trkpt lat="43.001905" lon="13.2898154"><ele>645.0</ele><time>2026-04-11T07:33:10.345Z</time></trkpt><trkpt lat="43.0017902" lon="13.2897612"><ele>645.0</ele><time>2026-04-11T07:33:11.344Z</time></trkpt><trkpt lat="43.001673" lon="13.2897297"><ele>645.0</ele><time>2026-04-11T07:33:12.355Z</time></trkpt><trkpt lat="43.0015256" lon="13.2897005"><ele>645.0</ele><time>2026-04-11T07:33:13.359Z</time></trkpt><trkpt lat="43.00137" lon="13.289684"><ele>645.0</ele><time>2026-04-11T07:33:14.344Z</time></trkpt><trkpt lat="43.0012111" lon="13.289672"><ele>648.0</ele><time>2026-04-11T07:33:15.349Z</time></trkpt><trkpt lat="43.0009735" lon="13.2896644"><ele>651.0</ele><time>2026-04-11T07:33:16.338Z</time></trkpt><trkpt lat="43.0007662" lon="13.2896752"><ele>654.0</ele><time>2026-04-11T07:33:17.347Z</time></trkpt><trkpt lat="43.00056" lon="13.2896752"><ele>658.0</ele><time>2026-04-11T07:33:18.349Z</time></trkpt><trkpt lat="43.000363" lon="13.2896725"><ele>662.0</ele><time>2026-04-11T07:33:19.349Z</time></trkpt><trkpt lat="43.0001767" lon="13.2896929"><ele>666.0</ele><time>2026-04-11T07:33:20.348Z</time></trkpt><trkpt lat="43.0000458" lon="13.2897032"><ele>666.0</ele><time>2026-04-11T07:33:21.351Z</time></trkpt><trkpt lat="42.9999483" lon="13.2897079"><ele>666.0</ele><time>2026-04-11T07:33:22.343Z</time></trkpt><trkpt lat="42.9998417" lon="13.289694"><ele>666.0</ele><time>2026-04-11T07:33:23.346Z</time></trkpt><trkpt lat="42.9997157" lon="13.2897361"><ele>666.0</ele><time>2026-04-11T07:33:24.327Z</time></trkpt><trkpt lat="42.9995749" lon="13.2897715"><ele>675.6666666666666</ele><time>2026-04-11T07:33:25.404Z</time></trkpt><trkpt lat="42.9994345" lon="13.289844"><ele>685.3333333333333</ele><time>2026-04-11T07:33:26.33Z</time></trkpt><trkpt lat="42.9992597" lon="13.2899091"><ele>695.0</ele><time>2026-04-11T07:33:27.32Z</time></trkpt><trkpt lat="42.9991143" lon="13.2899383"><ele>695.0</ele><time>2026-04-11T07:33:28.344Z</time></trkpt><trkpt lat="42.9989912" lon="13.2899602"><ele>695.0</ele><time>2026-04-11T07:33:29.356Z</time></trkpt><trkpt lat="42.998872" lon="13.2899748"><ele>695.0</ele><time>2026-04-11T07:33:30.36Z</time></trkpt><trkpt lat="42.9987789" lon="13.2900077"><ele>695.0</ele><time>2026-04-11T07:33:31.312Z</time></trkpt><trkpt lat="42.9986758" lon="13.2900528"><ele>695.0</ele><time>2026-04-11T07:33:32.33Z</time></trkpt><trkpt lat="42.9985686" lon="13.2901111"><ele>695.0</ele><time>2026-04-11T07:33:33.333Z</time></trkpt><trkpt lat="42.998439" lon="13.2902286"><ele>695.0</ele><time>2026-04-11T07:33:34.317Z</time></trkpt><trkpt lat="42.9983306" lon="13.2903144"><ele>695.0</ele><time>2026-04-11T07:33:35.321Z</time></trkpt><trkpt lat="42.9982148" lon="13.2904036"><ele>695.0</ele><time>2026-04-11T07:33:36.325Z</time></trkpt><trkpt lat="42.9981011" lon="13.2904921"><ele>694.5</ele><time>2026-04-11T07:33:37.339Z</time></trkpt><trkpt lat="42.9980078" lon="13.2905683"><ele>694.0</ele><time>2026-04-11T07:33:38.317Z</time></trkpt><trkpt lat="42.9979101" lon="13.2906162"><ele>693.5</ele><time>2026-04-11T07:33:39.309Z</time></trkpt><trkpt lat="42.9977905" lon="13.2906275"><ele>693.0</ele><time>2026-04-11T07:33:40.337Z</time></trkpt><trkpt lat="42.9976429" lon="13.2906581"><ele>700.6666666666666</ele><time>2026-04-11T07:33:41.378Z</time></trkpt><trkpt lat="42.9974792" lon="13.2906901"><ele>708.3333333333333</ele><time>2026-04-11T07:33:42.36Z</time></trkpt><trkpt lat="42.9973286" lon="13.2907213"><ele>716.0</ele><time>2026-04-11T07:33:43.337Z</time></trkpt><trkpt lat="42.9971818" lon="13.2907419"><ele>716.0</ele><time>2026-04-11T07:33:44.355Z</time></trkpt><trkpt lat="42.9970216" lon="13.2907821"><ele>716.0</ele><time>2026-04-11T07:33:45.3Z</time></trkpt><trkpt lat="42.9968463" lon="13.2908289"><ele>716.0</ele><time>2026-04-11T07:33:46.32Z</time></trkpt><trkpt lat="42.996688" lon="13.2908749"><ele>716.6666666666666</ele><time>2026-04-11T07:33:47.304Z</time></trkpt><trkpt lat="42.9965228" lon="13.2909198"><ele>717.3333333333334</ele><time>2026-04-11T07:33:48.311Z</time></trkpt><trkpt lat="42.9963622" lon="13.2909654"><ele>718.0</ele><time>2026-04-11T07:33:49.315Z</time></trkpt><trkpt lat="42.9962073" lon="13.2910216"><ele>718.0</ele><time>2026-04-11T07:33:50.298Z</time></trkpt><trkpt lat="42.9960534" lon="13.2910805"><ele>718.0</ele><time>2026-04-11T07:33:51.295Z</time></trkpt><trkpt lat="42.9959047" lon="13.2911285"><ele>718.0</ele><time>2026-04-11T07:33:52.309Z</time></trkpt><trkpt lat="42.9957491" lon="13.2911648"><ele>720.0</ele><time>2026-04-11T07:33:53.31Z</time></trkpt><trkpt lat="42.9955839" lon="13.2911882"><ele>722.0</ele><time>2026-04-11T07:33:54.314Z</time></trkpt><trkpt lat="42.9954136" lon="13.2911989"><ele>724.0</ele><time>2026-04-11T07:33:55.296Z</time></trkpt><trkpt lat="42.9952529" lon="13.2911894"><ele>724.0</ele><time>2026-04-11T07:33:56.349Z</time></trkpt><trkpt lat="42.9950838" lon="13.2911591"><ele>724.0</ele><time>2026-04-11T07:33:57.324Z</time></trkpt><trkpt lat="42.9949026" lon="13.2911064"><ele>724.0</ele><time>2026-04-11T07:33:58.337Z</time></trkpt><trkpt lat="42.9947192" lon="13.2910505"><ele>725.5</ele><time>2026-04-11T07:33:59.367Z</time></trkpt><trkpt lat="42.994556" lon="13.2910124"><ele>727.0</ele><time>2026-04-11T07:34:00.366Z</time></trkpt><trkpt lat="42.9944369" lon="13.2909512"><ele>728.5</ele><time>2026-04-11T07:34:01.353Z</time></trkpt><trkpt lat="42.9943414" lon="13.2909105"><ele>730.0</ele><time>2026-04-11T07:34:02.352Z</time></trkpt><trkpt lat="42.9942669" lon="13.2908768"><ele>730.0</ele><time>2026-04-11T07:34:03.345Z</time></trkpt><trkpt lat="42.9942043" lon="13.2908585"><ele>730.0</ele><time>2026-04-11T07:34:04.341Z</time></trkpt><trkpt lat="42.9940803" lon="13.2908121"><ele>730.0</ele><time>2026-04-11T07:34:16.363Z</time></trkpt><trkpt lat="42.9939662" lon="13.2907567"><ele>730.0</ele><time>2026-04-11T07:34:18.335Z</time></trkpt><trkpt lat="42.993883" lon="13.290717"><ele>730.0</ele><time>2026-04-11T07:34:19.359Z</time></trkpt><trkpt lat="42.993783" lon="13.2906712"><ele>732.6</ele><time>2026-04-11T07:34:20.333Z</time></trkpt><trkpt lat="42.9936894" lon="13.290633"><ele>735.2</ele><time>2026-04-11T07:34:21.38Z</time></trkpt><trkpt lat="42.9935866" lon="13.2906159"><ele>737.8</ele><time>2026-04-11T07:34:22.339Z</time></trkpt><trkpt lat="42.9934725" lon="13.2906122"><ele>740.4</ele><time>2026-04-11T07:34:23.325Z</time></trkpt><trkpt lat="42.9933614" lon="13.2906083"><ele>743.0</ele><time>2026-04-11T07:34:24.326Z</time></trkpt><trkpt lat="42.9932638" lon="13.2906037"><ele>742.5</ele><time>2026-04-11T07:34:25.309Z</time></trkpt><trkpt lat="42.9931756" lon="13.2905942"><ele>742.0</ele><time>2026-04-11T07:34:26.323Z</time></trkpt><trkpt lat="42.9930859" lon="13.290589"><ele>741.5</ele><time>2026-04-11T07:34:27.359Z</time></trkpt><trkpt lat="42.9929997" lon="13.290576"><ele>741.0</ele><time>2026-04-11T07:34:28.379Z</time></trkpt><trkpt lat="42.9929195" lon="13.290551"><ele>740.5</ele><time>2026-04-11T07:34:29.378Z</time></trkpt><trkpt lat="42.9928465" lon="13.2905243"><ele>740.0</ele><time>2026-04-11T07:34:30.362Z</time></trkpt><trkpt lat="42.992783" lon="13.2904627"><ele>739.9999999999999</ele><time>2026-04-11T07:34:31.353Z</time></trkpt><trkpt lat="42.992715" lon="13.2904195"><ele>740.0</ele><time>2026-04-11T07:34:32.35Z</time></trkpt><trkpt lat="42.9926464" lon="13.2903987"><ele>740.0</ele><time>2026-04-11T07:34:33.33Z</time></trkpt><trkpt lat="42.992572" lon="13.2904022"><ele>740.0</ele><time>2026-04-11T07:34:34.36Z</time></trkpt><trkpt lat="42.9924909" lon="13.2904217"><ele>740.0</ele><time>2026-04-11T07:34:35.361Z</time></trkpt><trkpt lat="42.9924193" lon="13.2904337"><ele>739.9999999999999</ele><time>2026-04-11T07:34:36.365Z</time></trkpt><trkpt lat="42.9923568" lon="13.2904478"><ele>740.0</ele><time>2026-04-11T07:34:37.385Z</time></trkpt><trkpt lat="42.9922916" lon="13.2903724"><ele>741.0</ele><time>2026-04-11T07:34:39.344Z</time></trkpt><trkpt lat="42.992256" lon="13.290282"><ele>742.0</ele><time>2026-04-11T07:34:40.352Z</time></trkpt><trkpt lat="42.9922329" lon="13.2901393"><ele>743.0</ele><time>2026-04-11T07:34:41.352Z</time></trkpt><trkpt lat="42.992178" lon="13.2899961"><ele>744.0</ele><time>2026-04-11T07:34:42.337Z</time></trkpt><trkpt lat="42.9921049" lon="13.2898914"><ele>745.0</ele><time>2026-04-11T07:34:43.307Z</time></trkpt><trkpt lat="42.9920448" lon="13.2898091"><ele>746.3333333333334</ele><time>2026-04-11T07:34:44.369Z</time></trkpt><trkpt lat="42.9920056" lon="13.2897302"><ele>747.6666666666667</ele><time>2026-04-11T07:34:45.351Z</time></trkpt><trkpt lat="42.9919842" lon="13.2896407"><ele>749.0</ele><time>2026-04-11T07:34:46.356Z</time></trkpt><trkpt lat="42.9919945" lon="13.2895394"><ele>750.3333333333334</ele><time>2026-04-11T07:34:47.33Z</time></trkpt><trkpt lat="42.9920511" lon="13.2894367"><ele>751.6666666666666</ele><time>2026-04-11T07:34:48.349Z</time></trkpt><trkpt lat="42.9921239" lon="13.2893482"><ele>753.0</ele><time>2026-04-11T07:34:49.359Z</time></trkpt><trkpt lat="42.9922264" lon="13.2892397"><ele>753.0</ele><time>2026-04-11T07:34:50.323Z</time></trkpt><trkpt lat="42.9923537" lon="13.2891371"><ele>753.0</ele><time>2026-04-11T07:34:51.353Z</time></trkpt><trkpt lat="42.9924282" lon="13.2890246"><ele>753.0</ele><time>2026-04-11T07:34:52.366Z</time></trkpt><trkpt lat="42.9925387" lon="13.2888707"><ele>753.0</ele><time>2026-04-11T07:34:53.324Z</time></trkpt><trkpt lat="42.9926175" lon="13.2887287"><ele>753.25</ele><time>2026-04-11T07:34:54.34Z</time></trkpt><trkpt lat="42.9927036" lon="13.2885828"><ele>753.5</ele><time>2026-04-11T07:34:55.335Z</time></trkpt><trkpt lat="42.9927787" lon="13.288399"><ele>753.75</ele><time>2026-04-11T07:34:56.337Z</time></trkpt><trkpt lat="42.9928324" lon="13.2882261"><ele>754.0</ele><time>2026-04-11T07:34:57.37Z</time></trkpt><trkpt lat="42.9928566" lon="13.2880939"><ele>754.0</ele><time>2026-04-11T07:34:58.323Z</time></trkpt><trkpt lat="42.9928708" lon="13.2879387"><ele>754.0</ele><time>2026-04-11T07:34:59.405Z</time></trkpt><trkpt lat="42.9928612" lon="13.2877677"><ele>754.0</ele><time>2026-04-11T07:35:00.377Z</time></trkpt><trkpt lat="42.9928775" lon="13.2876023"><ele>754.0</ele><time>2026-04-11T07:35:01.376Z</time></trkpt><trkpt lat="42.9929026" lon="13.2874504"><ele>754.0</ele><time>2026-04-11T07:35:02.332Z</time></trkpt><trkpt lat="42.9929372" lon="13.2872902"><ele>754.0</ele><time>2026-04-11T07:35:03.333Z</time></trkpt><trkpt lat="42.9929756" lon="13.2871134"><ele>754.0</ele><time>2026-04-11T07:35:04.363Z</time></trkpt><trkpt lat="42.9930296" lon="13.2869077"><ele>754.0</ele><time>2026-04-11T07:35:05.376Z</time></trkpt><trkpt lat="42.9930806" lon="13.2866964"><ele>755.3333333333334</ele><time>2026-04-11T07:35:06.349Z</time></trkpt><trkpt lat="42.993121" lon="13.2864723"><ele>756.6666666666666</ele><time>2026-04-11T07:35:07.377Z</time></trkpt><trkpt lat="42.9931473" lon="13.286258"><ele>758.0</ele><time>2026-04-11T07:35:08.325Z</time></trkpt><trkpt lat="42.9931736" lon="13.2860577"><ele>759.25</ele><time>2026-04-11T07:35:09.382Z</time></trkpt><trkpt lat="42.9931947" lon="13.28586"><ele>760.5</ele><time>2026-04-11T07:35:10.367Z</time></trkpt><trkpt lat="42.9932083" lon="13.285696"><ele>761.75</ele><time>2026-04-11T07:35:11.357Z</time></trkpt><trkpt lat="42.9932193" lon="13.2855557"><ele>763.0</ele><time>2026-04-11T07:35:12.357Z</time></trkpt><trkpt lat="42.9932364" lon="13.2854344"><ele>762.25</ele><time>2026-04-11T07:35:13.362Z</time></trkpt><trkpt lat="42.9932843" lon="13.2853197"><ele>761.5</ele><time>2026-04-11T07:35:14.363Z</time></trkpt><trkpt lat="42.9933712" lon="13.2851847"><ele>760.75</ele><time>2026-04-11T07:35:15.373Z</time></trkpt><trkpt lat="42.9934469" lon="13.2850439"><ele>760.0</ele><time>2026-04-11T07:35:16.328Z</time></trkpt><trkpt lat="42.9935022" lon="13.2849228"><ele>760.0</ele><time>2026-04-11T07:35:17.363Z</time></trkpt><trkpt lat="42.9935431" lon="13.2848137"><ele>760.0</ele><time>2026-04-11T07:35:18.33Z</time></trkpt><trkpt lat="42.9935725" lon="13.2847215"><ele>760.0</ele><time>2026-04-11T07:35:19.354Z</time></trkpt><trkpt lat="42.99357" lon="13.2846182"><ele>760.0</ele><time>2026-04-11T07:35:21.345Z</time></trkpt><trkpt lat="42.9935302" lon="13.2845097"><ele>760.0</ele><time>2026-04-11T07:35:23.333Z</time></trkpt><trkpt lat="42.9934931" lon="13.2843771"><ele>760.0</ele><time>2026-04-11T07:35:25.361Z</time></trkpt><trkpt lat="42.9934452" lon="13.2842637"><ele>761.4</ele><time>2026-04-11T07:35:27.34Z</time></trkpt><trkpt lat="42.9933622" lon="13.2841586"><ele>762.8</ele><time>2026-04-11T07:35:29.32Z</time></trkpt><trkpt lat="42.9932543" lon="13.2841202"><ele>764.2</ele><time>2026-04-11T07:35:31.332Z</time></trkpt><trkpt lat="42.9931566" lon="13.2840863"><ele>765.6</ele><time>2026-04-11T07:35:33.346Z</time></trkpt><trkpt lat="42.9930963" lon="13.2840494"><ele>767.0</ele><time>2026-04-11T07:35:34.374Z</time></trkpt><trkpt lat="42.9929891" lon="13.2840186"><ele>769.2</ele><time>2026-04-11T07:35:36.357Z</time></trkpt><trkpt lat="42.9928848" lon="13.2840508"><ele>771.4000000000001</ele><time>2026-04-11T07:35:38.362Z</time></trkpt><trkpt lat="42.9927848" lon="13.2840859"><ele>773.5999999999999</ele><time>2026-04-11T07:35:40.36Z</time></trkpt><trkpt lat="42.9926656" lon="13.2841263"><ele>775.8</ele><time>2026-04-11T07:35:42.378Z</time></trkpt><trkpt lat="42.9925737" lon="13.2842195"><ele>778.0</ele><time>2026-04-11T07:35:44.365Z</time></trkpt><trkpt lat="42.9925217" lon="13.284328"><ele>779.8333333333333</ele><time>2026-04-11T07:35:45.372Z</time></trkpt><trkpt lat="42.9924816" lon="13.2844565"><ele>781.6666666666666</ele><time>2026-04-11T07:35:46.363Z</time></trkpt><trkpt lat="42.9924407" lon="13.2845455"><ele>783.5</ele><time>2026-04-11T07:35:47.347Z</time></trkpt><trkpt lat="42.9924297" lon="13.2846638"><ele>785.3333333333333</ele><time>2026-04-11T07:35:48.345Z</time></trkpt><trkpt lat="42.9924131" lon="13.284774"><ele>787.1666666666666</ele><time>2026-04-11T07:35:49.373Z</time></trkpt><trkpt lat="42.9923689" lon="13.2848688"><ele>789.0</ele><time>2026-04-11T07:35:50.375Z</time></trkpt><trkpt lat="42.9923086" lon="13.2849658"><ele>789.0</ele><time>2026-04-11T07:35:52.365Z</time></trkpt><trkpt lat="42.9922372" lon="13.2849493"><ele>789.0</ele><time>2026-04-11T07:35:53.367Z</time></trkpt><trkpt lat="42.9921522" lon="13.2849415"><ele>789.0</ele><time>2026-04-11T07:35:54.364Z</time></trkpt><trkpt lat="42.992059" lon="13.2848844"><ele>789.0</ele><time>2026-04-11T07:35:55.383Z</time></trkpt><trkpt lat="42.9919402" lon="13.2848048"><ele>789.0</ele><time>2026-04-11T07:35:56.36Z</time></trkpt><trkpt lat="42.9918221" lon="13.2847191"><ele>789.2</ele><time>2026-04-11T07:35:57.378Z</time></trkpt><trkpt lat="42.9917151" lon="13.2846419"><ele>789.4000000000001</ele><time>2026-04-11T07:35:58.392Z</time></trkpt><trkpt lat="42.9916382" lon="13.2845773"><ele>789.6</ele><time>2026-04-11T07:35:59.356Z</time></trkpt><trkpt lat="42.9915658" lon="13.2845286"><ele>789.8</ele><time>2026-04-11T07:36:00.374Z</time></trkpt><trkpt lat="42.9915015" lon="13.2844991"><ele>790.0</ele><time>2026-04-11T07:36:01.37Z</time></trkpt><trkpt lat="42.9913737" lon="13.2845113"><ele>792.8333333333333</ele><time>2026-04-11T07:36:03.374Z</time></trkpt><trkpt lat="42.9912812" lon="13.2845939"><ele>795.6666666666666</ele><time>2026-04-11T07:36:05.372Z</time></trkpt><trkpt lat="42.9911943" lon="13.284528"><ele>798.5</ele><time>2026-04-11T07:36:07.338Z</time></trkpt><trkpt lat="42.9911585" lon="13.2844476"><ele>801.3333333333333</ele><time>2026-04-11T07:36:08.374Z</time></trkpt><trkpt lat="42.9911373" lon="13.2843464"><ele>804.1666666666666</ele><time>2026-04-11T07:36:09.366Z</time></trkpt><trkpt lat="42.9911274" lon="13.284224"><ele>807.0</ele><time>2026-04-11T07:36:10.372Z</time></trkpt><trkpt lat="42.9911173" lon="13.2841369"><ele>807.0</ele><time>2026-04-11T07:36:11.352Z</time></trkpt><trkpt lat="42.9910638" lon="13.2840788"><ele>807.0</ele><time>2026-04-11T07:36:12.367Z</time></trkpt><trkpt lat="42.9909925" lon="13.284009"><ele>807.0</ele><time>2026-04-11T07:36:13.371Z</time></trkpt><trkpt lat="42.9909068" lon="13.2839415"><ele>807.0</ele><time>2026-04-11T07:36:14.363Z</time></trkpt><trkpt lat="42.9907946" lon="13.283876"><ele>807.0</ele><time>2026-04-11T07:36:15.377Z</time></trkpt><trkpt lat="42.9906986" lon="13.2838303"><ele>811.2</ele><time>2026-04-11T07:36:16.385Z</time></trkpt><trkpt lat="42.9905912" lon="13.2837636"><ele>815.4000000000001</ele><time>2026-04-11T07:36:17.385Z</time></trkpt><trkpt lat="42.9904794" lon="13.283708"><ele>819.5999999999999</ele><time>2026-04-11T07:36:18.363Z</time></trkpt><trkpt lat="42.990399" lon="13.2836408"><ele>823.8</ele><time>2026-04-11T07:36:19.361Z</time></trkpt><trkpt lat="42.9903335" lon="13.2835801"><ele>828.0</ele><time>2026-04-11T07:36:20.365Z</time></trkpt><trkpt lat="42.9902506" lon="13.2835229"><ele>828.0</ele><time>2026-04-11T07:36:21.372Z</time></trkpt><trkpt lat="42.9901788" lon="13.2834576"><ele>828.0</ele><time>2026-04-11T07:36:22.375Z</time></trkpt><trkpt lat="42.9901114" lon="13.2833622"><ele>828.0</ele><time>2026-04-11T07:36:23.364Z</time></trkpt><trkpt lat="42.9900462" lon="13.2832609"><ele>828.0</ele><time>2026-04-11T07:36:24.32Z</time></trkpt><trkpt lat="42.9899976" lon="13.2831319"><ele>828.0</ele><time>2026-04-11T07:36:25.418Z</time></trkpt><trkpt lat="42.9899501" lon="13.2830352"><ele>831.5</ele><time>2026-04-11T07:36:26.358Z</time></trkpt><trkpt lat="42.9899067" lon="13.282966"><ele>835.0</ele><time>2026-04-11T07:36:27.355Z</time></trkpt><trkpt lat="42.9898546" lon="13.2829092"><ele>838.5</ele><time>2026-04-11T07:36:28.367Z</time></trkpt><trkpt lat="42.9897699" lon="13.2829363"><ele>842.0</ele><time>2026-04-11T07:36:29.37Z</time></trkpt><trkpt lat="42.9896802" lon="13.2829411"><ele>845.5</ele><time>2026-04-11T07:36:30.37Z</time></trkpt><trkpt lat="42.9895716" lon="13.2829597"><ele>849.0</ele><time>2026-04-11T07:36:31.336Z</time></trkpt><trkpt lat="42.9894501" lon="13.2829344"><ele>849.0</ele><time>2026-04-11T07:36:32.387Z</time></trkpt><trkpt lat="42.9893116" lon="13.2829129"><ele>849.0</ele><time>2026-04-11T07:36:33.368Z</time></trkpt><trkpt lat="42.9891833" lon="13.2828896"><ele>849.0</ele><time>2026-04-11T07:36:34.357Z</time></trkpt><trkpt lat="42.9890719" lon="13.2829024"><ele>849.0</ele><time>2026-04-11T07:36:35.358Z</time></trkpt><trkpt lat="42.9889722" lon="13.2829264"><ele>850.6</ele><time>2026-04-11T07:36:36.361Z</time></trkpt><trkpt lat="42.9889017" lon="13.2829799"><ele>852.2</ele><time>2026-04-11T07:36:37.376Z</time></trkpt><trkpt lat="42.9888281" lon="13.2830559"><ele>853.8000000000001</ele><time>2026-04-11T07:36:38.358Z</time></trkpt><trkpt lat="42.9887653" lon="13.2831321"><ele>855.4000000000001</ele><time>2026-04-11T07:36:39.356Z</time></trkpt><trkpt lat="42.9887217" lon="13.2831968"><ele>857.0</ele><time>2026-04-11T07:36:40.379Z</time></trkpt><trkpt lat="42.988683" lon="13.2833833"><ele>857.0</ele><time>2026-04-11T07:36:45.389Z</time></trkpt><trkpt lat="42.9887492" lon="13.2834795"><ele>857.0</ele><time>2026-04-11T07:36:47.345Z</time></trkpt><trkpt lat="42.9888336" lon="13.2835798"><ele>857.0</ele><time>2026-04-11T07:36:49.385Z</time></trkpt><trkpt lat="42.9889201" lon="13.2836888"><ele>857.0</ele><time>2026-04-11T07:36:51.37Z</time></trkpt><trkpt lat="42.9889724" lon="13.28379"><ele>857.0</ele><time>2026-04-11T07:36:53.394Z</time></trkpt><trkpt lat="42.9889296" lon="13.283882"><ele>857.0</ele><time>2026-04-11T07:36:55.381Z</time></trkpt><trkpt lat="42.9888427" lon="13.2839685"><ele>857.0</ele><time>2026-04-11T07:36:57.364Z</time></trkpt><trkpt lat="42.9887615" lon="13.2840039"><ele>857.0</ele><time>2026-04-11T07:36:58.374Z</time></trkpt><trkpt lat="42.9886433" lon="13.2840568"><ele>857.0</ele><time>2026-04-11T07:36:59.374Z</time></trkpt><trkpt lat="42.9885097" lon="13.2841034"><ele>857.0</ele><time>2026-04-11T07:37:00.361Z</time></trkpt><trkpt lat="42.988345" lon="13.2841318"><ele>857.0</ele><time>2026-04-11T07:37:01.399Z</time></trkpt><trkpt lat="42.9881886" lon="13.2841418"><ele>857.0</ele><time>2026-04-11T07:37:02.39Z</time></trkpt><trkpt lat="42.988071" lon="13.2841471"><ele>857.0</ele><time>2026-04-11T07:37:03.362Z</time></trkpt><trkpt lat="42.9879839" lon="13.28415"><ele>858.4000000000001</ele><time>2026-04-11T07:37:04.353Z</time></trkpt><trkpt lat="42.9878882" lon="13.2841335"><ele>859.8000000000001</ele><time>2026-04-11T07:37:05.363Z</time></trkpt><trkpt lat="42.9877967" lon="13.2841506"><ele>861.2</ele><time>2026-04-11T07:37:06.367Z</time></trkpt><trkpt lat="42.9876757" lon="13.2841514"><ele>862.6</ele><time>2026-04-11T07:37:07.329Z</time></trkpt><trkpt lat="42.9875599" lon="13.2841753"><ele>864.0</ele><time>2026-04-11T07:37:08.365Z</time></trkpt><trkpt lat="42.9874776" lon="13.2841805"><ele>866.4000000000001</ele><time>2026-04-11T07:37:09.359Z</time></trkpt><trkpt lat="42.9873571" lon="13.2842003"><ele>868.8000000000001</ele><time>2026-04-11T07:37:11.359Z</time></trkpt><trkpt lat="42.9872724" lon="13.2841995"><ele>871.1999999999999</ele><time>2026-04-11T07:37:13.37Z</time></trkpt><trkpt lat="42.9871938" lon="13.2842408"><ele>873.5999999999999</ele><time>2026-04-11T07:37:15.339Z</time></trkpt><trkpt lat="42.9871165" lon="13.2842429"><ele>876.0</ele><time>2026-04-11T07:37:17.362Z</time></trkpt><trkpt lat="42.9870336" lon="13.2842152"><ele>876.0</ele><time>2026-04-11T07:37:20.349Z</time></trkpt><trkpt lat="42.9869471" lon="13.284165"><ele>875.9999999999999</ele><time>2026-04-11T07:37:26.339Z</time></trkpt><trkpt lat="42.9868703" lon="13.2843137"><ele>875.9999999999999</ele><time>2026-04-11T07:37:30.359Z</time></trkpt><trkpt lat="42.9869274" lon="13.2844224"><ele>876.0</ele><time>2026-04-11T07:37:32.34Z</time></trkpt><trkpt lat="42.986981" lon="13.2844714"><ele>876.0</ele><time>2026-04-11T07:37:33.364Z</time></trkpt><trkpt lat="42.9870585" lon="13.2845497"><ele>876.0</ele><time>2026-04-11T07:37:35.364Z</time></trkpt><trkpt lat="42.9871094" lon="13.2846291"><ele>876.0</ele><time>2026-04-11T07:37:37.357Z</time></trkpt><trkpt lat="42.9871445" lon="13.2847563"><ele>876.0</ele><time>2026-04-11T07:37:39.329Z</time></trkpt><trkpt lat="42.9871645" lon="13.2848451"><ele>876.0</ele><time>2026-04-11T07:37:40.321Z</time></trkpt><trkpt lat="42.9871996" lon="13.2849221"><ele>876.0</ele><time>2026-04-11T07:37:41.368Z</time></trkpt><trkpt lat="42.9872548" lon="13.2850274"><ele>876.0</ele><time>2026-04-11T07:37:43.322Z</time></trkpt><trkpt lat="42.9871736" lon="13.2851238"><ele>876.0</ele><time>2026-04-11T07:37:45.337Z</time></trkpt><trkpt lat="42.9871198" lon="13.2851801"><ele>876.0</ele><time>2026-04-11T07:37:46.321Z</time></trkpt><trkpt lat="42.9870423" lon="13.2852194"><ele>876.0</ele><time>2026-04-11T07:37:47.318Z</time></trkpt><trkpt lat="42.9869529" lon="13.2852576"><ele>876.0</ele><time>2026-04-11T07:37:48.38Z</time></trkpt><trkpt lat="42.9868491" lon="13.2852765"><ele>876.0</ele><time>2026-04-11T07:37:49.357Z</time></trkpt><trkpt lat="42.9867529" lon="13.2852994"><ele>876.0</ele><time>2026-04-11T07:37:50.374Z</time></trkpt><trkpt lat="42.9866798" lon="13.2853123"><ele>880.1999999999999</ele><time>2026-04-11T07:37:51.38Z</time></trkpt><trkpt lat="42.9865742" lon="13.2853344"><ele>884.3999999999999</ele><time>2026-04-11T07:37:53.354Z</time></trkpt><trkpt lat="42.9865133" lon="13.2853864"><ele>888.6</ele><time>2026-04-11T07:37:55.368Z</time></trkpt><trkpt lat="42.9864992" lon="13.2855364"><ele>892.8</ele><time>2026-04-11T07:37:57.353Z</time></trkpt><trkpt lat="42.986489" lon="13.2857021"><ele>897.0</ele><time>2026-04-11T07:37:59.334Z</time></trkpt><trkpt lat="42.9864691" lon="13.2858405"><ele>898.4000000000001</ele><time>2026-04-11T07:38:02.379Z</time></trkpt><trkpt lat="42.9864046" lon="13.2859286"><ele>899.8000000000001</ele><time>2026-04-11T07:38:04.315Z</time></trkpt><trkpt lat="42.9864001" lon="13.2860457"><ele>901.2</ele><time>2026-04-11T07:38:06.357Z</time></trkpt><trkpt lat="42.9864649" lon="13.2861266"><ele>902.6</ele><time>2026-04-11T07:38:08.34Z</time></trkpt><trkpt lat="42.9865056" lon="13.2862007"><ele>904.0</ele><time>2026-04-11T07:38:10.356Z</time></trkpt><trkpt lat="42.9865098" lon="13.2863621"><ele>906.4000000000001</ele><time>2026-04-11T07:38:12.349Z</time></trkpt><trkpt lat="42.9864684" lon="13.286461"><ele>908.8000000000001</ele><time>2026-04-11T07:38:14.38Z</time></trkpt><trkpt lat="42.9863691" lon="13.2865542"><ele>911.1999999999999</ele><time>2026-04-11T07:38:16.382Z</time></trkpt><trkpt lat="42.9862567" lon="13.2865847"><ele>913.5999999999999</ele><time>2026-04-11T07:38:18.324Z</time></trkpt><trkpt lat="42.9861877" lon="13.286597"><ele>916.0</ele><time>2026-04-11T07:38:19.368Z</time></trkpt><trkpt lat="42.9861195" lon="13.2865816"><ele>916.0</ele><time>2026-04-11T07:38:20.389Z</time></trkpt><trkpt lat="42.9860135" lon="13.2865525"><ele>915.9999999999999</ele><time>2026-04-11T07:38:21.348Z</time></trkpt><trkpt lat="42.9858998" lon="13.2865004"><ele>915.9999999999999</ele><time>2026-04-11T07:38:22.41Z</time></trkpt><trkpt lat="42.9857974" lon="13.2864313"><ele>916.0</ele><time>2026-04-11T07:38:23.332Z</time></trkpt><trkpt lat="42.9857212" lon="13.2863608"><ele>916.0</ele><time>2026-04-11T07:38:24.371Z</time></trkpt><trkpt lat="42.9856482" lon="13.2862945"><ele>917.8333333333333</ele><time>2026-04-11T07:38:25.387Z</time></trkpt><trkpt lat="42.9855582" lon="13.2862369"><ele>919.6666666666666</ele><time>2026-04-11T07:38:26.364Z</time></trkpt><trkpt lat="42.9854866" lon="13.2861951"><ele>921.5</ele><time>2026-04-11T07:38:27.364Z</time></trkpt><trkpt lat="42.985426" lon="13.2861686"><ele>923.3333333333333</ele><time>2026-04-11T07:38:28.387Z</time></trkpt><trkpt lat="42.9853647" lon="13.2862067"><ele>925.1666666666666</ele><time>2026-04-11T07:38:29.386Z</time></trkpt><trkpt lat="42.9853088" lon="13.2863271"><ele>927.0</ele><time>2026-04-11T07:38:31.359Z</time></trkpt><trkpt lat="42.9852542" lon="13.2864264"><ele>927.0</ele><time>2026-04-11T07:38:33.348Z</time></trkpt><trkpt lat="42.9851944" lon="13.2865112"><ele>927.0</ele><time>2026-04-11T07:38:35.355Z</time></trkpt><trkpt lat="42.985047" lon="13.2865139"><ele>927.0</ele><time>2026-04-11T07:38:41.368Z</time></trkpt><trkpt lat="42.9849875" lon="13.2864669"><ele>927.0</ele><time>2026-04-11T07:38:43.339Z</time></trkpt><trkpt lat="42.9848994" lon="13.2864091"><ele>927.0</ele><time>2026-04-11T07:38:45.408Z</time></trkpt><trkpt lat="42.9848198" lon="13.286376"><ele>931.0</ele><time>2026-04-11T07:38:47.357Z</time></trkpt><trkpt lat="42.9847086" lon="13.2863031"><ele>935.0</ele><time>2026-04-11T07:38:49.363Z</time></trkpt><trkpt lat="42.9846123" lon="13.2862384"><ele>939.0</ele><time>2026-04-11T07:38:51.4Z</time></trkpt><trkpt lat="42.9845248" lon="13.286199"><ele>943.0</ele><time>2026-04-11T07:38:53.341Z</time></trkpt><trkpt lat="42.9844595" lon="13.2861255"><ele>947.0</ele><time>2026-04-11T07:38:55.393Z</time></trkpt><trkpt lat="42.9843501" lon="13.2860104"><ele>947.0</ele><time>2026-04-11T07:38:57.332Z</time></trkpt><trkpt lat="42.9842971" lon="13.2859241"><ele>947.0</ele><time>2026-04-11T07:38:58.327Z</time></trkpt><trkpt lat="42.9842427" lon="13.2858528"><ele>947.0</ele><time>2026-04-11T07:38:59.364Z</time></trkpt><trkpt lat="42.9841813" lon="13.2857393"><ele>947.0</ele><time>2026-04-11T07:39:01.377Z</time></trkpt><trkpt lat="42.9840894" lon="13.2856029"><ele>947.0</ele><time>2026-04-11T07:39:03.372Z</time></trkpt><trkpt lat="42.9840265" lon="13.2854861"><ele>949.8</ele><time>2026-04-11T07:39:04.359Z</time></trkpt><trkpt lat="42.9839777" lon="13.2853679"><ele>952.6</ele><time>2026-04-11T07:39:05.334Z</time></trkpt><trkpt lat="42.9839281" lon="13.285255"><ele>955.3999999999999</ele><time>2026-04-11T07:39:06.347Z</time></trkpt><trkpt lat="42.9838625" lon="13.2851398"><ele>958.1999999999999</ele><time>2026-04-11T07:39:07.359Z</time></trkpt><trkpt lat="42.983782" lon="13.2850224"><ele>961.0</ele><time>2026-04-11T07:39:08.331Z</time></trkpt><trkpt lat="42.9836849" lon="13.2849097"><ele>961.0</ele><time>2026-04-11T07:39:09.348Z</time></trkpt><trkpt lat="42.9835931" lon="13.2848145"><ele>960.9999999999999</ele><time>2026-04-11T07:39:10.322Z</time></trkpt><trkpt lat="42.9835156" lon="13.2847226"><ele>960.9999999999999</ele><time>2026-04-11T07:39:11.347Z</time></trkpt><trkpt lat="42.9834446" lon="13.2846267"><ele>961.0</ele><time>2026-04-11T07:39:12.37Z</time></trkpt><trkpt lat="42.9833906" lon="13.2845236"><ele>961.0</ele><time>2026-04-11T07:39:13.347Z</time></trkpt><trkpt lat="42.9833597" lon="13.2844399"><ele>960.1666666666666</ele><time>2026-04-11T07:39:14.397Z</time></trkpt><trkpt lat="42.9833223" lon="13.2843668"><ele>959.3333333333333</ele><time>2026-04-11T07:39:15.377Z</time></trkpt><trkpt lat="42.9832719" lon="13.2843046"><ele>958.5</ele><time>2026-04-11T07:39:16.337Z</time></trkpt><trkpt lat="42.9832251" lon="13.2842466"><ele>957.6666666666667</ele><time>2026-04-11T07:39:17.357Z</time></trkpt><trkpt lat="42.9831451" lon="13.2841413"><ele>956.8333333333334</ele><time>2026-04-11T07:39:19.384Z</time></trkpt><trkpt lat="42.9831168" lon="13.2840006"><ele>956.0</ele><time>2026-04-11T07:39:21.379Z</time></trkpt><trkpt lat="42.9830885" lon="13.28385"><ele>956.0</ele><time>2026-04-11T07:39:23.408Z</time></trkpt><trkpt lat="42.9830285" lon="13.2837184"><ele>955.9999999999999</ele><time>2026-04-11T07:39:25.323Z</time></trkpt><trkpt lat="42.9829542" lon="13.2836138"><ele>955.9999999999999</ele><time>2026-04-11T07:39:27.354Z</time></trkpt><trkpt lat="42.9829178" lon="13.2835296"><ele>956.0</ele><time>2026-04-11T07:39:28.374Z</time></trkpt><trkpt lat="42.9828473" lon="13.283381"><ele>956.0</ele><time>2026-04-11T07:39:30.365Z</time></trkpt><trkpt lat="42.9827865" lon="13.2833241"><ele>956.0000000000001</ele><time>2026-04-11T07:39:31.385Z</time></trkpt><trkpt lat="42.982717" lon="13.2832838"><ele>956.0</ele><time>2026-04-11T07:39:32.363Z</time></trkpt><trkpt lat="42.982654" lon="13.2832409"><ele>956.0000000000001</ele><time>2026-04-11T07:39:33.337Z</time></trkpt><trkpt lat="42.9826006" lon="13.2831891"><ele>956.0000000000001</ele><time>2026-04-11T07:39:34.346Z</time></trkpt><trkpt lat="42.98255" lon="13.2831239"><ele>956.0</ele><time>2026-04-11T07:39:35.358Z</time></trkpt><trkpt lat="42.9825239" lon="13.2830344"><ele>956.0000000000001</ele><time>2026-04-11T07:39:36.349Z</time></trkpt><trkpt lat="42.9825094" lon="13.2829143"><ele>956.0000000000001</ele><time>2026-04-11T07:39:37.355Z</time></trkpt><trkpt lat="42.9825216" lon="13.2827852"><ele>957.0</ele><time>2026-04-11T07:39:38.344Z</time></trkpt><trkpt lat="42.9825286" lon="13.2826884"><ele>957.9999999999999</ele><time>2026-04-11T07:39:39.361Z</time></trkpt><trkpt lat="42.9825265" lon="13.2825903"><ele>958.9999999999999</ele><time>2026-04-11T07:39:40.354Z</time></trkpt><trkpt lat="42.9825448" lon="13.2824953"><ele>960.0</ele><time>2026-04-11T07:39:41.354Z</time></trkpt><trkpt lat="42.9825787" lon="13.2823367"><ele>961.0</ele><time>2026-04-11T07:39:43.334Z</time></trkpt><trkpt lat="42.9825419" lon="13.2821712"><ele>970.75</ele><time>2026-04-11T07:39:45.321Z</time></trkpt><trkpt lat="42.9825098" lon="13.2820208"><ele>980.5</ele><time>2026-04-11T07:39:47.351Z</time></trkpt><trkpt lat="42.9824258" lon="13.2819136"><ele>990.25</ele><time>2026-04-11T07:39:49.347Z</time></trkpt><trkpt lat="42.9823549" lon="13.2817966"><ele>1000.0</ele><time>2026-04-11T07:39:51.346Z</time></trkpt><trkpt lat="42.9822663" lon="13.2817059"><ele>1000.0</ele><time>2026-04-11T07:39:53.342Z</time></trkpt><trkpt lat="42.98217" lon="13.2816106"><ele>1000.0</ele><time>2026-04-11T07:39:55.322Z</time></trkpt><trkpt lat="42.982114" lon="13.2815181"><ele>1000.0</ele><time>2026-04-11T07:39:57.362Z</time></trkpt><trkpt lat="42.9820741" lon="13.2814331"><ele>1000.0</ele><time>2026-04-11T07:39:59.351Z</time></trkpt><trkpt lat="42.9820475" lon="13.2813121"><ele>1000.0</ele><time>2026-04-11T07:40:01.346Z</time></trkpt><trkpt lat="42.9820732" lon="13.2811529"><ele>1002.6</ele><time>2026-04-11T07:40:03.355Z</time></trkpt><trkpt lat="42.9820645" lon="13.2810596"><ele>1005.2</ele><time>2026-04-11T07:40:04.332Z</time></trkpt><trkpt lat="42.9820615" lon="13.2809596"><ele>1007.8</ele><time>2026-04-11T07:40:05.316Z</time></trkpt><trkpt lat="42.9820466" lon="13.2808185"><ele>1010.4</ele><time>2026-04-11T07:40:07.36Z</time></trkpt><trkpt lat="42.9820305" lon="13.2806892"><ele>1013.0</ele><time>2026-04-11T07:40:09.391Z</time></trkpt><trkpt lat="42.9820145" lon="13.2805334"><ele>1015.8</ele><time>2026-04-11T07:40:11.376Z</time></trkpt><trkpt lat="42.9820382" lon="13.2803896"><ele>1018.5999999999999</ele><time>2026-04-11T07:40:13.323Z</time></trkpt><trkpt lat="42.982087" lon="13.2802898"><ele>1021.4000000000001</ele><time>2026-04-11T07:40:15.352Z</time></trkpt><trkpt lat="42.9821482" lon="13.2802115"><ele>1024.2</ele><time>2026-04-11T07:40:17.358Z</time></trkpt><trkpt lat="42.9822036" lon="13.2801193"><ele>1027.0</ele><time>2026-04-11T07:40:19.336Z</time></trkpt><trkpt lat="42.9822665" lon="13.2799645"><ele>1027.0</ele><time>2026-04-11T07:40:21.348Z</time></trkpt><trkpt lat="42.9823049" lon="13.2797984"><ele>1027.0</ele><time>2026-04-11T07:40:23.345Z</time></trkpt><trkpt lat="42.9823229" lon="13.2796609"><ele>1027.0</ele><time>2026-04-11T07:40:25.311Z</time></trkpt><trkpt lat="42.9823462" lon="13.2795251"><ele>1027.0</ele><time>2026-04-11T07:40:27.332Z</time></trkpt><trkpt lat="42.9823579" lon="13.279403"><ele>1027.0</ele><time>2026-04-11T07:40:29.369Z</time></trkpt><trkpt lat="42.9823654" lon="13.2792948"><ele>1029.5</ele><time>2026-04-11T07:40:31.339Z</time></trkpt><trkpt lat="42.9823804" lon="13.2791774"><ele>1032.0</ele><time>2026-04-11T07:40:33.344Z</time></trkpt><trkpt lat="42.9824125" lon="13.2790951"><ele>1034.5</ele><time>2026-04-11T07:40:35.351Z</time></trkpt><trkpt lat="42.9824329" lon="13.2790093"><ele>1037.0</ele><time>2026-04-11T07:40:37.309Z</time></trkpt><trkpt lat="42.9824297" lon="13.27889"><ele>1039.5</ele><time>2026-04-11T07:40:39.356Z</time></trkpt><trkpt lat="42.982438" lon="13.2787757"><ele>1042.0</ele><time>2026-04-11T07:40:41.348Z</time></trkpt><trkpt lat="42.9824379" lon="13.2786469"><ele>1044.3333333333333</ele><time>2026-04-11T07:40:44.326Z</time></trkpt><trkpt lat="42.9824095" lon="13.2785689"><ele>1046.6666666666665</ele><time>2026-04-11T07:40:46.356Z</time></trkpt><trkpt lat="42.9823498" lon="13.2784924"><ele>1049.0</ele><time>2026-04-11T07:40:48.376Z</time></trkpt><trkpt lat="42.9822986" lon="13.278437"><ele>1051.3333333333333</ele><time>2026-04-11T07:40:50.316Z</time></trkpt><trkpt lat="42.9822543" lon="13.2783639"><ele>1053.6666666666667</ele><time>2026-04-11T07:40:52.368Z</time></trkpt><trkpt lat="42.9821779" lon="13.278255"><ele>1056.0</ele><time>2026-04-11T07:40:54.302Z</time></trkpt><trkpt lat="42.9820882" lon="13.2781673"><ele>1056.0</ele><time>2026-04-11T07:40:56.364Z</time></trkpt><trkpt lat="42.9820316" lon="13.2781246"><ele>1056.0</ele><time>2026-04-11T07:40:57.364Z</time></trkpt><trkpt lat="42.9819406" lon="13.2780215"><ele>1056.0</ele><time>2026-04-11T07:40:59.355Z</time></trkpt><trkpt lat="42.9818738" lon="13.2779535"><ele>1056.0</ele><time>2026-04-11T07:41:00.326Z</time></trkpt><trkpt lat="42.9818179" lon="13.2778866"><ele>1056.0</ele><time>2026-04-11T07:41:01.34Z</time></trkpt><trkpt lat="42.9817168" lon="13.277761"><ele>1060.8</ele><time>2026-04-11T07:41:03.346Z</time></trkpt><trkpt lat="42.9816662" lon="13.2776835"><ele>1065.6</ele><time>2026-04-11T07:41:04.347Z</time></trkpt><trkpt lat="42.9815958" lon="13.2775535"><ele>1070.4</ele><time>2026-04-11T07:41:06.341Z</time></trkpt><trkpt lat="42.9815657" lon="13.277431"><ele>1075.2</ele><time>2026-04-11T07:41:08.386Z</time></trkpt><trkpt lat="42.9815066" lon="13.2773363"><ele>1080.0</ele><time>2026-04-11T07:41:10.349Z</time></trkpt><trkpt lat="42.981421" lon="13.2773124"><ele>1080.0</ele><time>2026-04-11T07:41:12.349Z</time></trkpt><trkpt lat="42.9812933" lon="13.2773222"><ele>1080.0</ele><time>2026-04-11T07:41:14.414Z</time></trkpt><trkpt lat="42.9811939" lon="13.2773976"><ele>1080.0</ele><time>2026-04-11T07:41:16.358Z</time></trkpt><trkpt lat="42.9811344" lon="13.2774566"><ele>1080.0</ele><time>2026-04-11T07:41:17.365Z</time></trkpt><trkpt lat="42.9810639" lon="13.2775298"><ele>1080.0</ele><time>2026-04-11T07:41:18.309Z</time></trkpt><trkpt lat="42.9809995" lon="13.2776014"><ele>1080.0</ele><time>2026-04-11T07:41:19.336Z</time></trkpt><trkpt lat="42.9809306" lon="13.2776729"><ele>1080.0</ele><time>2026-04-11T07:41:20.357Z</time></trkpt><trkpt lat="42.9808623" lon="13.2777791"><ele>1080.0</ele><time>2026-04-11T07:41:21.34Z</time></trkpt><trkpt lat="42.9808208" lon="13.2778879"><ele>1080.0</ele><time>2026-04-11T07:41:22.375Z</time></trkpt><trkpt lat="42.9807829" lon="13.2779844"><ele>1080.0</ele><time>2026-04-11T07:41:23.335Z</time></trkpt><trkpt lat="42.9807342" lon="13.2780626"><ele>1080.0</ele><time>2026-04-11T07:41:24.331Z</time></trkpt><trkpt lat="42.9806754" lon="13.2781502"><ele>1080.8333333333333</ele><time>2026-04-11T07:41:25.354Z</time></trkpt><trkpt lat="42.9806202" lon="13.2782125"><ele>1081.6666666666667</ele><time>2026-04-11T07:41:26.343Z</time></trkpt><trkpt lat="42.980548" lon="13.2782562"><ele>1082.5</ele><time>2026-04-11T07:41:27.355Z</time></trkpt><trkpt lat="42.980443" lon="13.278266"><ele>1083.3333333333335</ele><time>2026-04-11T07:41:29.355Z</time></trkpt><trkpt lat="42.9803376" lon="13.2782665"><ele>1084.1666666666667</ele><time>2026-04-11T07:42:22.47Z</time></trkpt><trkpt lat="42.9802737" lon="13.2782599"><ele>1085.0</ele><time>2026-04-11T07:42:32.43Z</time></trkpt><trkpt lat="42.9802091" lon="13.2782905"><ele>1085.0</ele><time>2026-04-11T07:44:54.436Z</time></trkpt><trkpt lat="42.9801493" lon="13.278367"><ele>1085.0</ele><time>2026-04-11T07:44:58.394Z</time></trkpt><trkpt lat="42.9800417" lon="13.2784797"><ele>1085.0</ele><time>2026-04-11T07:44:59.324Z</time></trkpt><trkpt lat="42.9799802" lon="13.2785544"><ele>1085.0</ele><time>2026-04-11T07:45:01.306Z</time></trkpt><trkpt lat="42.9799227" lon="13.2786619"><ele>1085.0</ele><time>2026-04-11T07:45:03.283Z</time></trkpt><trkpt lat="42.979847" lon="13.2787962"><ele>1085.6</ele><time>2026-04-11T07:45:05.306Z</time></trkpt><trkpt lat="42.9798052" lon="13.2788919"><ele>1086.2</ele><time>2026-04-11T07:45:06.326Z</time></trkpt><trkpt lat="42.9797733" lon="13.2789869"><ele>1086.8</ele><time>2026-04-11T07:45:07.336Z</time></trkpt><trkpt lat="42.9797416" lon="13.2791607"><ele>1087.4</ele><time>2026-04-11T07:45:09.343Z</time></trkpt><trkpt lat="42.9797478" lon="13.2792758"><ele>1088.0</ele><time>2026-04-11T07:45:10.35Z</time></trkpt><trkpt lat="42.9797739" lon="13.2793784"><ele>1088.0</ele><time>2026-04-11T07:45:11.32Z</time></trkpt><trkpt lat="42.9797933" lon="13.2794709"><ele>1088.0</ele><time>2026-04-11T07:45:12.345Z</time></trkpt><trkpt lat="42.9798216" lon="13.2795549"><ele>1088.0</ele><time>2026-04-11T07:45:14.342Z</time></trkpt><trkpt lat="42.9798398" lon="13.2796411"><ele>1088.0</ele><time>2026-04-11T07:45:17.365Z</time></trkpt><trkpt lat="42.9798203" lon="13.279752"><ele>1088.0</ele><time>2026-04-11T07:45:22.365Z</time></trkpt><trkpt lat="42.9797483" lon="13.2798134"><ele>1088.0</ele><time>2026-04-11T07:45:25.346Z</time></trkpt><trkpt lat="42.9796553" lon="13.2798247"><ele>1087.6666666666667</ele><time>2026-04-11T07:45:27.331Z</time></trkpt><trkpt lat="42.9795616" lon="13.2798777"><ele>1087.3333333333335</ele><time>2026-04-11T07:45:29.353Z</time></trkpt><trkpt lat="42.9795086" lon="13.2799418"><ele>1087.0</ele><time>2026-04-11T07:45:30.328Z</time></trkpt><trkpt lat="42.9794584" lon="13.2800091"><ele>1086.6666666666667</ele><time>2026-04-11T07:45:31.347Z</time></trkpt><trkpt lat="42.9793856" lon="13.2800863"><ele>1086.3333333333333</ele><time>2026-04-11T07:45:33.344Z</time></trkpt><trkpt lat="42.9793023" lon="13.28015"><ele>1086.0</ele><time>2026-04-11T07:45:35.337Z</time></trkpt><trkpt lat="42.9792543" lon="13.2802224"><ele>1086.0</ele><time>2026-04-11T07:45:36.3Z</time></trkpt><trkpt lat="42.9792189" lon="13.2802997"><ele>1086.0</ele><time>2026-04-11T07:45:37.345Z</time></trkpt><trkpt lat="42.9791781" lon="13.2803835"><ele>1086.0</ele><time>2026-04-11T07:45:38.335Z</time></trkpt><trkpt lat="42.9791242" lon="13.2804785"><ele>1086.0</ele><time>2026-04-11T07:45:39.335Z</time></trkpt><trkpt lat="42.9790486" lon="13.2806065"><ele>1086.0</ele><time>2026-04-11T07:45:40.35Z</time></trkpt><trkpt lat="42.9789622" lon="13.2807472"><ele>1087.5</ele><time>2026-04-11T07:45:41.385Z</time></trkpt><trkpt lat="42.9788685" lon="13.280901"><ele>1089.0</ele><time>2026-04-11T07:45:42.365Z</time></trkpt><trkpt lat="42.9787839" lon="13.2810516"><ele>1090.5</ele><time>2026-04-11T07:45:43.384Z</time></trkpt><trkpt lat="42.9787031" lon="13.2811977"><ele>1092.0</ele><time>2026-04-11T07:45:44.352Z</time></trkpt><trkpt lat="42.9786318" lon="13.2813367"><ele>1092.75</ele><time>2026-04-11T07:45:45.342Z</time></trkpt><trkpt lat="42.9785686" lon="13.2814769"><ele>1093.5</ele><time>2026-04-11T07:45:46.347Z</time></trkpt><trkpt lat="42.9785164" lon="13.2816146"><ele>1094.25</ele><time>2026-04-11T07:45:47.341Z</time></trkpt><trkpt lat="42.9784647" lon="13.2817523"><ele>1095.0</ele><time>2026-04-11T07:45:48.359Z</time></trkpt><trkpt lat="42.9784138" lon="13.2818743"><ele>1095.0</ele><time>2026-04-11T07:45:49.333Z</time></trkpt><trkpt lat="42.978352" lon="13.2820209"><ele>1095.0</ele><time>2026-04-11T07:45:50.355Z</time></trkpt><trkpt lat="42.9782987" lon="13.2821595"><ele>1095.0</ele><time>2026-04-11T07:45:51.361Z</time></trkpt><trkpt lat="42.9782333" lon="13.2822777"><ele>1095.0</ele><time>2026-04-11T07:45:52.328Z</time></trkpt><trkpt lat="42.9781583" lon="13.2823379"><ele>1095.0</ele><time>2026-04-11T07:45:53.329Z</time></trkpt><trkpt lat="42.9780935" lon="13.2824262"><ele>1097.4</ele><time>2026-04-11T07:45:54.356Z</time></trkpt><trkpt lat="42.9780322" lon="13.2825252"><ele>1099.8</ele><time>2026-04-11T07:45:55.334Z</time></trkpt><trkpt lat="42.9779753" lon="13.2826436"><ele>1102.2</ele><time>2026-04-11T07:45:56.318Z</time></trkpt><trkpt lat="42.9779036" lon="13.2827788"><ele>1104.6</ele><time>2026-04-11T07:45:57.35Z</time></trkpt><trkpt lat="42.9778413" lon="13.2828659"><ele>1107.0</ele><time>2026-04-11T07:45:58.333Z</time></trkpt><trkpt lat="42.9777838" lon="13.2829446"><ele>1107.0</ele><time>2026-04-11T07:45:59.344Z</time></trkpt><trkpt lat="42.9777329" lon="13.2830226"><ele>1107.0</ele><time>2026-04-11T07:46:00.304Z</time></trkpt><trkpt lat="42.9776789" lon="13.2831569"><ele>1107.0</ele><time>2026-04-11T07:46:02.325Z</time></trkpt><trkpt lat="42.9776665" lon="13.2833522"><ele>1107.0</ele><time>2026-04-11T07:46:04.333Z</time></trkpt><trkpt lat="42.9776364" lon="13.2834668"><ele>1107.0</ele><time>2026-04-11T07:46:05.328Z</time></trkpt><trkpt lat="42.9775994" lon="13.2835874"><ele>1106.5</ele><time>2026-04-11T07:46:06.336Z</time></trkpt><trkpt lat="42.9775613" lon="13.2836656"><ele>1106.0</ele><time>2026-04-11T07:46:07.332Z</time></trkpt><trkpt lat="42.9775243" lon="13.2837494"><ele>1105.5</ele><time>2026-04-11T07:46:08.33Z</time></trkpt><trkpt lat="42.9774744" lon="13.2838271"><ele>1105.0</ele><time>2026-04-11T07:46:09.334Z</time></trkpt><trkpt lat="42.9774155" lon="13.2839035"><ele>1104.5</ele><time>2026-04-11T07:46:10.361Z</time></trkpt><trkpt lat="42.9773623" lon="13.2839578"><ele>1104.0</ele><time>2026-04-11T07:46:11.373Z</time></trkpt><trkpt lat="42.977287" lon="13.2840438"><ele>1104.0</ele><time>2026-04-11T07:46:13.348Z</time></trkpt><trkpt lat="42.9772515" lon="13.2841606"><ele>1104.0</ele><time>2026-04-11T07:46:15.334Z</time></trkpt><trkpt lat="42.9772061" lon="13.2842467"><ele>1104.0</ele><time>2026-04-11T07:46:17.318Z</time></trkpt><trkpt lat="42.9771306" lon="13.2843098"><ele>1104.0</ele><time>2026-04-11T07:46:19.331Z</time></trkpt><trkpt lat="42.9770249" lon="13.2843517"><ele>1104.0</ele><time>2026-04-11T07:46:21.316Z</time></trkpt><trkpt lat="42.9769123" lon="13.2843927"><ele>1104.0</ele><time>2026-04-11T07:46:23.345Z</time></trkpt><trkpt lat="42.9768032" lon="13.2843959"><ele>1104.0</ele><time>2026-04-11T07:46:25.344Z</time></trkpt><trkpt lat="42.9767042" lon="13.2844165"><ele>1104.0</ele><time>2026-04-11T07:46:27.307Z</time></trkpt><trkpt lat="42.9765886" lon="13.2843703"><ele>1104.0</ele><time>2026-04-11T07:46:29.315Z</time></trkpt><trkpt lat="42.9764877" lon="13.2843101"><ele>1104.0</ele><time>2026-04-11T07:46:31.333Z</time></trkpt><trkpt lat="42.9764177" lon="13.2842105"><ele>1106.1666666666667</ele><time>2026-04-11T07:46:33.337Z</time></trkpt><trkpt lat="42.9763564" lon="13.2840873"><ele>1108.3333333333333</ele><time>2026-04-11T07:46:35.367Z</time></trkpt><trkpt lat="42.9763018" lon="13.2840273"><ele>1110.5</ele><time>2026-04-11T07:46:36.343Z</time></trkpt><trkpt lat="42.976242" lon="13.2839823"><ele>1112.6666666666665</ele><time>2026-04-11T07:46:37.313Z</time></trkpt><trkpt lat="42.9761721" lon="13.2839721"><ele>1114.8333333333333</ele><time>2026-04-11T07:46:38.354Z</time></trkpt><trkpt lat="42.9760665" lon="13.2840006"><ele>1117.0</ele><time>2026-04-11T07:46:39.346Z</time></trkpt><trkpt lat="42.9759582" lon="13.2840203"><ele>1117.0000000000002</ele><time>2026-04-11T07:46:40.331Z</time></trkpt><trkpt lat="42.9758764" lon="13.2840243"><ele>1117.0</ele><time>2026-04-11T07:46:41.322Z</time></trkpt><trkpt lat="42.9757923" lon="13.2840178"><ele>1117.0</ele><time>2026-04-11T07:46:42.343Z</time></trkpt><trkpt lat="42.9757145" lon="13.2840029"><ele>1117.0</ele><time>2026-04-11T07:46:43.343Z</time></trkpt><trkpt lat="42.9756507" lon="13.283973"><ele>1117.0</ele><time>2026-04-11T07:46:44.337Z</time></trkpt><trkpt lat="42.9755934" lon="13.2839267"><ele>1117.0000000000002</ele><time>2026-04-11T07:46:45.352Z</time></trkpt><trkpt lat="42.9755357" lon="13.2838839"><ele>1117.0</ele><time>2026-04-11T07:46:46.342Z</time></trkpt><trkpt lat="42.9754844" lon="13.2838299"><ele>1120.4</ele><time>2026-04-11T07:46:47.308Z</time></trkpt><trkpt lat="42.9753982" lon="13.2837168"><ele>1123.8000000000002</ele><time>2026-04-11T07:46:49.376Z</time></trkpt><trkpt lat="42.9753241" lon="13.2836093"><ele>1127.2</ele><time>2026-04-11T07:46:51.343Z</time></trkpt><trkpt lat="42.9752166" lon="13.2834809"><ele>1130.6000000000001</ele><time>2026-04-11T07:46:53.323Z</time></trkpt><trkpt lat="42.9751503" lon="13.2834258"><ele>1134.0</ele><time>2026-04-11T07:46:54.336Z</time></trkpt><trkpt lat="42.9750823" lon="13.283403"><ele>1135.2</ele><time>2026-04-11T07:46:55.397Z</time></trkpt><trkpt lat="42.974965" lon="13.2833624"><ele>1136.4</ele><time>2026-04-11T07:46:57.309Z</time></trkpt><trkpt lat="42.9748376" lon="13.2833382"><ele>1137.6</ele><time>2026-04-11T07:46:59.314Z</time></trkpt><trkpt lat="42.9747362" lon="13.2832843"><ele>1138.8</ele><time>2026-04-11T07:47:01.325Z</time></trkpt><trkpt lat="42.9746707" lon="13.2832586"><ele>1140.0</ele><time>2026-04-11T07:47:02.331Z</time></trkpt><trkpt lat="42.9745893" lon="13.2832667"><ele>1140.0</ele><time>2026-04-11T07:47:03.332Z</time></trkpt><trkpt lat="42.9745106" lon="13.2832751"><ele>1140.0</ele><time>2026-04-11T07:47:04.336Z</time></trkpt><trkpt lat="42.974418" lon="13.2833082"><ele>1140.0</ele><time>2026-04-11T07:47:06.339Z</time></trkpt><trkpt lat="42.9743138" lon="13.2833709"><ele>1140.0</ele><time>2026-04-11T07:47:08.325Z</time></trkpt><trkpt lat="42.9742169" lon="13.2833901"><ele>1140.0</ele><time>2026-04-11T07:47:10.328Z</time></trkpt><trkpt lat="42.974177" lon="13.283457"><ele>1142.0</ele><time>2026-04-11T07:47:11.353Z</time></trkpt><trkpt lat="42.9741317" lon="13.2835389"><ele>1144.0</ele><time>2026-04-11T07:47:12.308Z</time></trkpt><trkpt lat="42.9740829" lon="13.2836159"><ele>1146.0</ele><time>2026-04-11T07:47:13.35Z</time></trkpt><trkpt lat="42.9740274" lon="13.2836886"><ele>1148.0</ele><time>2026-04-11T07:47:14.345Z</time></trkpt><trkpt lat="42.9739618" lon="13.2837671"><ele>1150.0</ele><time>2026-04-11T07:47:15.347Z</time></trkpt><trkpt lat="42.9738817" lon="13.283848"><ele>1152.0</ele><time>2026-04-11T07:47:16.364Z</time></trkpt><trkpt lat="42.973799" lon="13.2839075"><ele>1149.5</ele><time>2026-04-11T07:47:17.337Z</time></trkpt><trkpt lat="42.9737174" lon="13.2839672"><ele>1147.0</ele><time>2026-04-11T07:47:18.362Z</time></trkpt><trkpt lat="42.9736515" lon="13.284016"><ele>1144.5</ele><time>2026-04-11T07:47:19.354Z</time></trkpt><trkpt lat="42.9735887" lon="13.2840834"><ele>1142.0</ele><time>2026-04-11T07:47:20.333Z</time></trkpt><trkpt lat="42.973528" lon="13.2841588"><ele>1139.5</ele><time>2026-04-11T07:47:21.322Z</time></trkpt><trkpt lat="42.9734579" lon="13.2842244"><ele>1137.0</ele><time>2026-04-11T07:47:22.322Z</time></trkpt><trkpt lat="42.9733866" lon="13.2842679"><ele>1138.3333333333333</ele><time>2026-04-11T07:47:23.344Z</time></trkpt><trkpt lat="42.9733115" lon="13.2842845"><ele>1139.6666666666667</ele><time>2026-04-11T07:47:24.337Z</time></trkpt><trkpt lat="42.9732457" lon="13.2842848"><ele>1141.0</ele><time>2026-04-11T07:47:25.338Z</time></trkpt><trkpt lat="42.9731436" lon="13.2842723"><ele>1142.3333333333335</ele><time>2026-04-11T07:47:27.307Z</time></trkpt><trkpt lat="42.9730728" lon="13.2843173"><ele>1143.6666666666667</ele><time>2026-04-11T07:47:28.378Z</time></trkpt><trkpt lat="42.9730052" lon="13.284368"><ele>1145.0</ele><time>2026-04-11T07:47:29.318Z</time></trkpt><trkpt lat="42.9729278" lon="13.2843812"><ele>1145.0</ele><time>2026-04-11T07:47:31.348Z</time></trkpt><trkpt lat="42.9728065" lon="13.2843428"><ele>1145.0</ele><time>2026-04-11T07:47:33.338Z</time></trkpt><trkpt lat="42.9727306" lon="13.2843007"><ele>1145.0</ele><time>2026-04-11T07:47:34.332Z</time></trkpt><trkpt lat="42.9726487" lon="13.2842666"><ele>1145.0</ele><time>2026-04-11T07:47:35.328Z</time></trkpt><trkpt lat="42.9725732" lon="13.2842489"><ele>1145.0</ele><time>2026-04-11T07:47:36.349Z</time></trkpt><trkpt lat="42.9724989" lon="13.2842414"><ele>1145.0</ele><time>2026-04-11T07:47:37.312Z</time></trkpt><trkpt lat="42.9724219" lon="13.2842574"><ele>1147.4</ele><time>2026-04-11T07:47:38.335Z</time></trkpt><trkpt lat="42.9723428" lon="13.2843177"><ele>1149.8</ele><time>2026-04-11T07:47:39.374Z</time></trkpt><trkpt lat="42.972255" lon="13.2843911"><ele>1152.2</ele><time>2026-04-11T07:47:40.329Z</time></trkpt><trkpt lat="42.9721864" lon="13.2844588"><ele>1154.6</ele><time>2026-04-11T07:47:41.329Z</time></trkpt><trkpt lat="42.9721269" lon="13.2845254"><ele>1157.0</ele><time>2026-04-11T07:47:42.308Z</time></trkpt><trkpt lat="42.9720406" lon="13.2846465"><ele>1157.0</ele><time>2026-04-11T07:47:44.342Z</time></trkpt><trkpt lat="42.9719964" lon="13.2847303"><ele>1157.0</ele><time>2026-04-11T07:47:45.373Z</time></trkpt><trkpt lat="42.9719419" lon="13.2848299"><ele>1157.0</ele><time>2026-04-11T07:47:46.323Z</time></trkpt><trkpt lat="42.9718833" lon="13.2849221"><ele>1157.0</ele><time>2026-04-11T07:47:47.316Z</time></trkpt><trkpt lat="42.9717914" lon="13.2850169"><ele>1157.0</ele><time>2026-04-11T07:47:49.354Z</time></trkpt><trkpt lat="42.9717378" lon="13.2850854"><ele>1157.0</ele><time>2026-04-11T07:47:50.359Z</time></trkpt><trkpt lat="42.9716861" lon="13.2851893"><ele>1157.5</ele><time>2026-04-11T07:47:51.373Z</time></trkpt><trkpt lat="42.9716431" lon="13.2852882"><ele>1158.0</ele><time>2026-04-11T07:47:52.322Z</time></trkpt><trkpt lat="42.9716107" lon="13.2854114"><ele>1158.5</ele><time>2026-04-11T07:47:53.324Z</time></trkpt><trkpt lat="42.971581" lon="13.2855219"><ele>1159.0</ele><time>2026-04-11T07:47:54.307Z</time></trkpt><trkpt lat="42.971555" lon="13.2856345"><ele>1159.5</ele><time>2026-04-11T07:47:55.303Z</time></trkpt><trkpt lat="42.9715292" lon="13.285734"><ele>1160.0</ele><time>2026-04-11T07:47:56.318Z</time></trkpt><trkpt lat="42.971493" lon="13.2858047"><ele>1158.4</ele><time>2026-04-11T07:47:57.302Z</time></trkpt><trkpt lat="42.9714466" lon="13.2858629"><ele>1156.8</ele><time>2026-04-11T07:47:58.301Z</time></trkpt><trkpt lat="42.9713661" lon="13.2859688"><ele>1155.2</ele><time>2026-04-11T07:48:00.342Z</time></trkpt><trkpt lat="42.9712939" lon="13.2861083"><ele>1153.6</ele><time>2026-04-11T07:48:02.337Z</time></trkpt><trkpt lat="42.971226" lon="13.2862219"><ele>1152.0</ele><time>2026-04-11T07:48:04.342Z</time></trkpt><trkpt lat="42.9711257" lon="13.2863765"><ele>1152.75</ele><time>2026-04-11T07:48:06.352Z</time></trkpt><trkpt lat="42.9710541" lon="13.2864786"><ele>1153.5</ele><time>2026-04-11T07:48:07.33Z</time></trkpt><trkpt lat="42.9709688" lon="13.2866389"><ele>1154.25</ele><time>2026-04-11T07:48:08.357Z</time></trkpt><trkpt lat="42.9708967" lon="13.2867865"><ele>1155.0</ele><time>2026-04-11T07:48:09.329Z</time></trkpt><trkpt lat="42.9708238" lon="13.2868992"><ele>1155.0</ele><time>2026-04-11T07:48:10.337Z</time></trkpt><trkpt lat="42.9707649" lon="13.286989"><ele>1155.0</ele><time>2026-04-11T07:48:11.316Z</time></trkpt><trkpt lat="42.9706417" lon="13.2870388"><ele>1155.0</ele><time>2026-04-11T07:48:13.34Z</time></trkpt><trkpt lat="42.9705624" lon="13.2870104"><ele>1155.0</ele><time>2026-04-11T07:48:14.338Z</time></trkpt><trkpt lat="42.9704755" lon="13.2869586"><ele>1155.0</ele><time>2026-04-11T07:48:15.35Z</time></trkpt><trkpt lat="42.970393" lon="13.2869135"><ele>1155.0</ele><time>2026-04-11T07:48:16.349Z</time></trkpt><trkpt lat="42.9703007" lon="13.2868945"><ele>1155.0</ele><time>2026-04-11T07:48:17.332Z</time></trkpt><trkpt lat="42.970193" lon="13.286933"><ele>1155.0</ele><time>2026-04-11T07:48:18.351Z</time></trkpt><trkpt lat="42.9700601" lon="13.2869758"><ele>1155.0</ele><time>2026-04-11T07:48:19.356Z</time></trkpt><trkpt lat="42.9699072" lon="13.2870316"><ele>1160.0</ele><time>2026-04-11T07:48:20.333Z</time></trkpt><trkpt lat="42.9697263" lon="13.2870877"><ele>1165.0</ele><time>2026-04-11T07:48:21.349Z</time></trkpt><trkpt lat="42.9695275" lon="13.2871489"><ele>1170.0</ele><time>2026-04-11T07:48:22.332Z</time></trkpt><trkpt lat="42.9693286" lon="13.2871984"><ele>1167.3333333333333</ele><time>2026-04-11T07:48:23.357Z</time></trkpt><trkpt lat="42.9691333" lon="13.2872538"><ele>1164.6666666666665</ele><time>2026-04-11T07:48:24.35Z</time></trkpt><trkpt lat="42.968926" lon="13.2872966"><ele>1162.0</ele><time>2026-04-11T07:48:25.343Z</time></trkpt><trkpt lat="42.9687579" lon="13.2873497"><ele>1162.0</ele><time>2026-04-11T07:48:26.334Z</time></trkpt><trkpt lat="42.9686099" lon="13.2874164"><ele>1162.0</ele><time>2026-04-11T07:48:27.338Z</time></trkpt><trkpt lat="42.9684989" lon="13.2874896"><ele>1162.0</ele><time>2026-04-11T07:48:28.337Z</time></trkpt><trkpt lat="42.9683999" lon="13.2875112"><ele>1162.0</ele><time>2026-04-11T07:48:29.345Z</time></trkpt><trkpt lat="42.9682767" lon="13.2874995"><ele>1165.0</ele><time>2026-04-11T07:48:30.314Z</time></trkpt><trkpt lat="42.9681414" lon="13.2874812"><ele>1168.0</ele><time>2026-04-11T07:48:31.343Z</time></trkpt><trkpt lat="42.9680064" lon="13.2874609"><ele>1171.0</ele><time>2026-04-11T07:48:32.377Z</time></trkpt><trkpt lat="42.9678588" lon="13.2874421"><ele>1174.0</ele><time>2026-04-11T07:48:33.372Z</time></trkpt><trkpt lat="42.9677221" lon="13.28742"><ele>1174.0</ele><time>2026-04-11T07:48:34.342Z</time></trkpt><trkpt lat="42.9675998" lon="13.2873925"><ele>1174.0</ele><time>2026-04-11T07:48:35.367Z</time></trkpt><trkpt lat="42.9674927" lon="13.2873777"><ele>1174.0</ele><time>2026-04-11T07:48:36.36Z</time></trkpt><trkpt lat="42.9674007" lon="13.28736"><ele>1174.0</ele><time>2026-04-11T07:48:37.371Z</time></trkpt><trkpt lat="42.9673179" lon="13.2873414"><ele>1174.0</ele><time>2026-04-11T07:48:38.352Z</time></trkpt><trkpt lat="42.9672327" lon="13.2873271"><ele>1174.8333333333333</ele><time>2026-04-11T07:48:39.351Z</time></trkpt><trkpt lat="42.9671491" lon="13.287301"><ele>1175.6666666666665</ele><time>2026-04-11T07:48:40.305Z</time></trkpt><trkpt lat="42.9670506" lon="13.2872951"><ele>1176.5</ele><time>2026-04-11T07:48:41.302Z</time></trkpt><trkpt lat="42.9669653" lon="13.2872729"><ele>1177.3333333333333</ele><time>2026-04-11T07:48:42.326Z</time></trkpt><trkpt lat="42.9668826" lon="13.287247"><ele>1178.1666666666667</ele><time>2026-04-11T07:48:43.358Z</time></trkpt><trkpt lat="42.9668095" lon="13.2872295"><ele>1179.0</ele><time>2026-04-11T07:48:44.367Z</time></trkpt><trkpt lat="42.9667437" lon="13.2872187"><ele>1180.2</ele><time>2026-04-11T07:48:45.34Z</time></trkpt><trkpt lat="42.9666273" lon="13.2872095"><ele>1181.4</ele><time>2026-04-11T07:48:47.362Z</time></trkpt><trkpt lat="42.9665352" lon="13.2871875"><ele>1182.6</ele><time>2026-04-11T07:48:49.338Z</time></trkpt><trkpt lat="42.9664527" lon="13.2871663"><ele>1183.8</ele><time>2026-04-11T07:48:51.292Z</time></trkpt><trkpt lat="42.9663558" lon="13.2871809"><ele>1185.0</ele><time>2026-04-11T07:48:53.313Z</time></trkpt><trkpt lat="42.9662863" lon="13.2872452"><ele>1184.2</ele><time>2026-04-11T07:48:55.35Z</time></trkpt><trkpt lat="42.9662582" lon="13.2873632"><ele>1183.4</ele><time>2026-04-11T07:48:57.356Z</time></trkpt><trkpt lat="42.9662732" lon="13.2874947"><ele>1182.6</ele><time>2026-04-11T07:48:59.365Z</time></trkpt><trkpt lat="42.9663209" lon="13.2876744"><ele>1181.8</ele><time>2026-04-11T07:49:01.392Z</time></trkpt><trkpt lat="42.9663679" lon="13.2877938"><ele>1181.0</ele><time>2026-04-11T07:49:02.349Z</time></trkpt><trkpt lat="42.9664016" lon="13.287901"><ele>1181.0</ele><time>2026-04-11T07:49:03.327Z</time></trkpt><trkpt lat="42.9664793" lon="13.2880484"><ele>1181.0</ele><time>2026-04-11T07:49:05.327Z</time></trkpt><trkpt lat="42.9665287" lon="13.2881328"><ele>1181.0</ele><time>2026-04-11T07:49:06.356Z</time></trkpt><trkpt lat="42.966586" lon="13.2882378"><ele>1181.0</ele><time>2026-04-11T07:49:07.389Z</time></trkpt><trkpt lat="42.966608" lon="13.2883599"><ele>1181.0</ele><time>2026-04-11T07:49:08.296Z</time></trkpt><trkpt lat="42.9666672" lon="13.2884533"><ele>1179.1666666666667</ele><time>2026-04-11T07:49:09.346Z</time></trkpt><trkpt lat="42.9667245" lon="13.2885566"><ele>1177.3333333333335</ele><time>2026-04-11T07:49:10.338Z</time></trkpt><trkpt lat="42.9667781" lon="13.2886454"><ele>1175.5</ele><time>2026-04-11T07:49:11.348Z</time></trkpt><trkpt lat="42.9668225" lon="13.2887336"><ele>1173.6666666666667</ele><time>2026-04-11T07:49:12.364Z</time></trkpt><trkpt lat="42.966855" lon="13.2888369"><ele>1171.8333333333333</ele><time>2026-04-11T07:49:13.374Z</time></trkpt><trkpt lat="42.9668883" lon="13.2889386"><ele>1170.0</ele><time>2026-04-11T07:49:14.355Z</time></trkpt><trkpt lat="42.9669264" lon="13.2890333"><ele>1166.8</ele><time>2026-04-11T07:49:15.359Z</time></trkpt><trkpt lat="42.9669581" lon="13.2891095"><ele>1163.6</ele><time>2026-04-11T07:49:16.302Z</time></trkpt><trkpt lat="42.9670162" lon="13.28924"><ele>1160.4</ele><time>2026-04-11T07:49:18.35Z</time></trkpt><trkpt lat="42.9670839" lon="13.2893532"><ele>1157.2</ele><time>2026-04-11T07:49:20.361Z</time></trkpt><trkpt lat="42.9671294" lon="13.2894709"><ele>1154.0</ele><time>2026-04-11T07:49:22.358Z</time></trkpt><trkpt lat="42.9671272" lon="13.2896301"><ele>1154.0</ele><time>2026-04-11T07:49:24.361Z</time></trkpt><trkpt lat="42.9671314" lon="13.2897242"><ele>1154.0</ele><time>2026-04-11T07:49:25.35Z</time></trkpt><trkpt lat="42.9671198" lon="13.2898336"><ele>1154.0</ele><time>2026-04-11T07:49:26.359Z</time></trkpt><trkpt lat="42.9670906" lon="13.2899963"><ele>1154.0</ele><time>2026-04-11T07:49:28.315Z</time></trkpt><trkpt lat="42.967063" lon="13.2901472"><ele>1154.0</ele><time>2026-04-11T07:49:30.368Z</time></trkpt><trkpt lat="42.9670907" lon="13.2902424"><ele>1152.0</ele><time>2026-04-11T07:49:31.3Z</time></trkpt><trkpt lat="42.9671273" lon="13.2903726"><ele>1150.0</ele><time>2026-04-11T07:49:33.305Z</time></trkpt><trkpt lat="42.9671732" lon="13.290445"><ele>1148.0</ele><time>2026-04-11T07:49:35.366Z</time></trkpt><trkpt lat="42.9672534" lon="13.2904833"><ele>1146.0</ele><time>2026-04-11T07:49:37.355Z</time></trkpt><trkpt lat="42.967369" lon="13.2905319"><ele>1144.0</ele><time>2026-04-11T07:49:39.361Z</time></trkpt><trkpt lat="42.9674324" lon="13.2905675"><ele>1142.0</ele><time>2026-04-11T07:49:40.34Z</time></trkpt><trkpt lat="42.9674964" lon="13.2906002"><ele>1138.1666666666667</ele><time>2026-04-11T07:49:41.381Z</time></trkpt><trkpt lat="42.9675599" lon="13.2906375"><ele>1134.3333333333335</ele><time>2026-04-11T07:49:42.344Z</time></trkpt><trkpt lat="42.9676249" lon="13.2906757"><ele>1130.5</ele><time>2026-04-11T07:49:43.3Z</time></trkpt><trkpt lat="42.9676976" lon="13.2907209"><ele>1126.6666666666667</ele><time>2026-04-11T07:49:44.327Z</time></trkpt><trkpt lat="42.967762" lon="13.2907346"><ele>1122.8333333333333</ele><time>2026-04-11T07:49:45.341Z</time></trkpt><trkpt lat="42.9678281" lon="13.2907368"><ele>1119.0</ele><time>2026-04-11T07:49:46.337Z</time></trkpt><trkpt lat="42.9679403" lon="13.2906898"><ele>1119.0</ele><time>2026-04-11T07:49:48.334Z</time></trkpt><trkpt lat="42.9680456" lon="13.2906394"><ele>1119.0</ele><time>2026-04-11T07:49:50.338Z</time></trkpt><trkpt lat="42.9681502" lon="13.2906021"><ele>1119.0</ele><time>2026-04-11T07:49:52.34Z</time></trkpt><trkpt lat="42.9682392" lon="13.290548"><ele>1119.0</ele><time>2026-04-11T07:49:54.36Z</time></trkpt><trkpt lat="42.9683099" lon="13.2904876"><ele>1119.0</ele><time>2026-04-11T07:49:56.339Z</time></trkpt><trkpt lat="42.9683666" lon="13.2903493"><ele>1117.4</ele><time>2026-04-11T07:49:58.328Z</time></trkpt><trkpt lat="42.9684617" lon="13.2902524"><ele>1115.8000000000002</ele><time>2026-04-11T07:50:00.352Z</time></trkpt><trkpt lat="42.9685772" lon="13.2902172"><ele>1114.1999999999998</ele><time>2026-04-11T07:50:02.31Z</time></trkpt><trkpt lat="42.9686495" lon="13.2901897"><ele>1112.6</ele><time>2026-04-11T07:50:03.368Z</time></trkpt><trkpt lat="42.9687299" lon="13.2901463"><ele>1111.0</ele><time>2026-04-11T07:50:04.347Z</time></trkpt><trkpt lat="42.9687997" lon="13.2901163"><ele>1111.0</ele><time>2026-04-11T07:50:05.357Z</time></trkpt><trkpt lat="42.9689016" lon="13.2900698"><ele>1111.0</ele><time>2026-04-11T07:50:07.354Z</time></trkpt><trkpt lat="42.9689604" lon="13.2900308"><ele>1111.0</ele><time>2026-04-11T07:50:08.343Z</time></trkpt><trkpt lat="42.9690206" lon="13.2899798"><ele>1111.0</ele><time>2026-04-11T07:50:09.346Z</time></trkpt><trkpt lat="42.9690987" lon="13.2899221"><ele>1111.0</ele><time>2026-04-11T07:50:10.354Z</time></trkpt><trkpt lat="42.9691566" lon="13.2898854"><ele>1111.0</ele><time>2026-04-11T07:50:11.367Z</time></trkpt><trkpt lat="42.9692104" lon="13.289838"><ele>1110.3333333333333</ele><time>2026-04-11T07:50:12.359Z</time></trkpt><trkpt lat="42.9692823" lon="13.2897895"><ele>1109.6666666666665</ele><time>2026-04-11T07:50:14.363Z</time></trkpt><trkpt lat="42.969394" lon="13.2897396"><ele>1109.0</ele><time>2026-04-11T07:50:16.338Z</time></trkpt><trkpt lat="42.9694671" lon="13.2896961"><ele>1108.3333333333333</ele><time>2026-04-11T07:50:17.304Z</time></trkpt><trkpt lat="42.9695314" lon="13.2896525"><ele>1107.6666666666667</ele><time>2026-04-11T07:50:18.351Z</time></trkpt><trkpt lat="42.9696093" lon="13.289591"><ele>1107.0</ele><time>2026-04-11T07:50:20.324Z</time></trkpt><trkpt lat="42.9696728" lon="13.289543"><ele>1107.0</ele><time>2026-04-11T07:50:22.357Z</time></trkpt><trkpt lat="42.9697619" lon="13.2895267"><ele>1107.0</ele><time>2026-04-11T07:50:24.365Z</time></trkpt><trkpt lat="42.9698918" lon="13.2895465"><ele>1107.0</ele><time>2026-04-11T07:50:26.358Z</time></trkpt><trkpt lat="42.9699658" lon="13.2895753"><ele>1107.0</ele><time>2026-04-11T07:50:27.354Z</time></trkpt><trkpt lat="42.9700332" lon="13.2896154"><ele>1107.0</ele><time>2026-04-11T07:50:28.348Z</time></trkpt><trkpt lat="42.9701064" lon="13.2896458"><ele>1107.0</ele><time>2026-04-11T07:50:29.347Z</time></trkpt><trkpt lat="42.9701874" lon="13.2897137"><ele>1101.8</ele><time>2026-04-11T07:50:31.33Z</time></trkpt><trkpt lat="42.9702146" lon="13.2898034"><ele>1096.6</ele><time>2026-04-11T07:50:33.347Z</time></trkpt><trkpt lat="42.9701791" lon="13.2899258"><ele>1091.3999999999999</ele><time>2026-04-11T07:50:35.316Z</time></trkpt><trkpt lat="42.9701586" lon="13.2900546"><ele>1086.2</ele><time>2026-04-11T07:50:37.346Z</time></trkpt><trkpt lat="42.9701734" lon="13.2901994"><ele>1081.0</ele><time>2026-04-11T07:50:39.357Z</time></trkpt><trkpt lat="42.9701818" lon="13.290378"><ele>1081.0</ele><time>2026-04-11T07:50:41.346Z</time></trkpt><trkpt lat="42.9701541" lon="13.290502"><ele>1081.0</ele><time>2026-04-11T07:50:43.323Z</time></trkpt><trkpt lat="42.9702005" lon="13.2905971"><ele>1081.0</ele><time>2026-04-11T07:50:45.303Z</time></trkpt><trkpt lat="42.9702867" lon="13.2906092"><ele>1081.0</ele><time>2026-04-11T07:50:48.348Z</time></trkpt><trkpt lat="42.970296" lon="13.29074"><ele>1081.0</ele><time>2026-04-11T07:50:49.307Z</time></trkpt><trkpt lat="42.970343" lon="13.2906783"><ele>1081.0</ele><time>2026-04-11T07:50:51.361Z</time></trkpt><trkpt lat="42.9704043" lon="13.2906002"><ele>1081.0</ele><time>2026-04-11T07:50:53.326Z</time></trkpt><trkpt lat="42.970498" lon="13.2905618"><ele>1081.0</ele><time>2026-04-11T07:50:55.35Z</time></trkpt><trkpt lat="42.9705735" lon="13.2905322"><ele>1081.0</ele><time>2026-04-11T07:50:56.327Z</time></trkpt><trkpt lat="42.9706382" lon="13.2905121"><ele>1081.0</ele><time>2026-04-11T07:50:57.334Z</time></trkpt><trkpt lat="42.9707238" lon="13.2904951"><ele>1081.0</ele><time>2026-04-11T07:50:58.369Z</time></trkpt><trkpt lat="42.9708113" lon="13.2904721"><ele>1081.0</ele><time>2026-04-11T07:50:59.298Z</time></trkpt><trkpt lat="42.9709023" lon="13.2904544"><ele>1079.0</ele><time>2026-04-11T07:51:00.348Z</time></trkpt><trkpt lat="42.9709971" lon="13.2904489"><ele>1077.0</ele><time>2026-04-11T07:51:01.337Z</time></trkpt><trkpt lat="42.9710816" lon="13.2904529"><ele>1075.0</ele><time>2026-04-11T07:51:02.362Z</time></trkpt><trkpt lat="42.9711484" lon="13.2904852"><ele>1073.0</ele><time>2026-04-11T07:51:03.362Z</time></trkpt><trkpt lat="42.9712075" lon="13.2905401"><ele>1071.0</ele><time>2026-04-11T07:51:04.322Z</time></trkpt><trkpt lat="42.9712468" lon="13.2906375"><ele>1069.0</ele><time>2026-04-11T07:51:06.339Z</time></trkpt><trkpt lat="42.9712191" lon="13.2907179"><ele>1065.8</ele><time>2026-04-11T07:51:07.336Z</time></trkpt><trkpt lat="42.9711906" lon="13.29081"><ele>1062.6000000000001</ele><time>2026-04-11T07:51:08.333Z</time></trkpt><trkpt lat="42.9711542" lon="13.2909372"><ele>1059.4</ele><time>2026-04-11T07:51:10.326Z</time></trkpt><trkpt lat="42.9711015" lon="13.2910492"><ele>1056.2</ele><time>2026-04-11T07:51:12.318Z</time></trkpt><trkpt lat="42.9710973" lon="13.2912156"><ele>1053.0</ele><time>2026-04-11T07:51:14.346Z</time></trkpt><trkpt lat="42.9711139" lon="13.2913001"><ele>1053.0</ele><time>2026-04-11T07:51:15.335Z</time></trkpt><trkpt lat="42.9711177" lon="13.2914182"><ele>1053.0</ele><time>2026-04-11T07:51:16.355Z</time></trkpt><trkpt lat="42.9711292" lon="13.2915235"><ele>1053.0</ele><time>2026-04-11T07:51:17.317Z</time></trkpt><trkpt lat="42.9711295" lon="13.2916303"><ele>1053.0</ele><time>2026-04-11T07:51:18.33Z</time></trkpt><trkpt lat="42.9711232" lon="13.2917383"><ele>1053.0</ele><time>2026-04-11T07:51:19.336Z</time></trkpt><trkpt lat="42.9711131" lon="13.2918285"><ele>1053.0</ele><time>2026-04-11T07:51:20.334Z</time></trkpt><trkpt lat="42.9711032" lon="13.2919204"><ele>1050.3333333333333</ele><time>2026-04-11T07:51:21.355Z</time></trkpt><trkpt lat="42.9710875" lon="13.292018"><ele>1047.6666666666667</ele><time>2026-04-11T07:51:22.334Z</time></trkpt><trkpt lat="42.9710709" lon="13.2921222"><ele>1045.0</ele><time>2026-04-11T07:51:23.313Z</time></trkpt><trkpt lat="42.9710619" lon="13.292226"><ele>1042.3333333333335</ele><time>2026-04-11T07:51:24.334Z</time></trkpt><trkpt lat="42.9710559" lon="13.2923235"><ele>1039.6666666666667</ele><time>2026-04-11T07:51:25.343Z</time></trkpt><trkpt lat="42.9710498" lon="13.2924178"><ele>1037.0</ele><time>2026-04-11T07:51:26.333Z</time></trkpt><trkpt lat="42.9710739" lon="13.2925792"><ele>1034.6</ele><time>2026-04-11T07:51:28.307Z</time></trkpt><trkpt lat="42.9711108" lon="13.292686"><ele>1032.2</ele><time>2026-04-11T07:51:29.354Z</time></trkpt><trkpt lat="42.9711459" lon="13.292778"><ele>1029.8</ele><time>2026-04-11T07:51:30.301Z</time></trkpt><trkpt lat="42.971178" lon="13.2929286"><ele>1027.4</ele><time>2026-04-11T07:51:32.328Z</time></trkpt><trkpt lat="42.9711849" lon="13.2930154"><ele>1025.0</ele><time>2026-04-11T07:51:33.326Z</time></trkpt><trkpt lat="42.9712075" lon="13.2931667"><ele>1023.6</ele><time>2026-04-11T07:51:35.347Z</time></trkpt><trkpt lat="42.9712396" lon="13.2932745"><ele>1022.2</ele><time>2026-04-11T07:51:37.329Z</time></trkpt><trkpt lat="42.9712542" lon="13.2933717"><ele>1020.8</ele><time>2026-04-11T07:51:39.342Z</time></trkpt><trkpt lat="42.9712475" lon="13.2935446"><ele>1019.4</ele><time>2026-04-11T07:51:41.374Z</time></trkpt><trkpt lat="42.9712514" lon="13.2936682"><ele>1018.0</ele><time>2026-04-11T07:51:43.332Z</time></trkpt><trkpt lat="42.9712864" lon="13.2937989"><ele>1015.3333333333333</ele><time>2026-04-11T07:51:45.361Z</time></trkpt><trkpt lat="42.9712967" lon="13.2939244"><ele>1012.6666666666666</ele><time>2026-04-11T07:51:47.312Z</time></trkpt><trkpt lat="42.9712689" lon="13.2940211"><ele>1010.0</ele><time>2026-04-11T07:51:48.334Z</time></trkpt><trkpt lat="42.9712293" lon="13.294117"><ele>1007.3333333333333</ele><time>2026-04-11T07:51:49.298Z</time></trkpt><trkpt lat="42.9711958" lon="13.2941988"><ele>1004.6666666666666</ele><time>2026-04-11T07:51:50.347Z</time></trkpt><trkpt lat="42.9711353" lon="13.2943582"><ele>1002.0</ele><time>2026-04-11T07:51:52.352Z</time></trkpt><trkpt lat="42.9711003" lon="13.2944394"><ele>1002.0</ele><time>2026-04-11T07:51:53.386Z</time></trkpt><trkpt lat="42.9710302" lon="13.2945607"><ele>1002.0</ele><time>2026-04-11T07:51:55.349Z</time></trkpt><trkpt lat="42.9709771" lon="13.2946152"><ele>1002.0</ele><time>2026-04-11T07:51:56.358Z</time></trkpt><trkpt lat="42.9709112" lon="13.2946804"><ele>1002.0</ele><time>2026-04-11T07:51:57.36Z</time></trkpt><trkpt lat="42.9708418" lon="13.2947812"><ele>1002.0</ele><time>2026-04-11T07:51:58.364Z</time></trkpt><trkpt lat="42.9707798" lon="13.2949062"><ele>1002.2</ele><time>2026-04-11T07:51:59.313Z</time></trkpt><trkpt lat="42.970737" lon="13.2950535"><ele>1002.4000000000001</ele><time>2026-04-11T07:52:00.323Z</time></trkpt><trkpt lat="42.9706961" lon="13.2951959"><ele>1002.5999999999999</ele><time>2026-04-11T07:52:01.355Z</time></trkpt><trkpt lat="42.970657" lon="13.2953184"><ele>1002.8</ele><time>2026-04-11T07:52:02.38Z</time></trkpt><trkpt lat="42.9706273" lon="13.2954208"><ele>1003.0</ele><time>2026-04-11T07:52:03.345Z</time></trkpt><trkpt lat="42.970604" lon="13.2955182"><ele>1000.8333333333333</ele><time>2026-04-11T07:52:04.359Z</time></trkpt><trkpt lat="42.9706027" lon="13.2956352"><ele>998.6666666666666</ele><time>2026-04-11T07:52:05.359Z</time></trkpt><trkpt lat="42.9706013" lon="13.2957296"><ele>996.5</ele><time>2026-04-11T07:52:06.358Z</time></trkpt><trkpt lat="42.9705907" lon="13.2958206"><ele>994.3333333333333</ele><time>2026-04-11T07:52:07.356Z</time></trkpt><trkpt lat="42.9705573" lon="13.2959481"><ele>992.1666666666666</ele><time>2026-04-11T07:52:08.322Z</time></trkpt><trkpt lat="42.9705062" lon="13.2960689"><ele>990.0</ele><time>2026-04-11T07:52:09.355Z</time></trkpt><trkpt lat="42.9704602" lon="13.2961654"><ele>990.0</ele><time>2026-04-11T07:52:10.355Z</time></trkpt><trkpt lat="42.9704216" lon="13.2962493"><ele>990.0</ele><time>2026-04-11T07:52:11.345Z</time></trkpt><trkpt lat="42.9703897" lon="13.2963438"><ele>990.0</ele><time>2026-04-11T07:52:12.34Z</time></trkpt><trkpt lat="42.9703756" lon="13.2964666"><ele>990.0</ele><time>2026-04-11T07:52:13.35Z</time></trkpt><trkpt lat="42.9703583" lon="13.2966159"><ele>990.0</ele><time>2026-04-11T07:52:14.347Z</time></trkpt><trkpt lat="42.970339" lon="13.2967803"><ele>988.8333333333334</ele><time>2026-04-11T07:52:15.311Z</time></trkpt><trkpt lat="42.9703219" lon="13.2969088"><ele>987.6666666666667</ele><time>2026-04-11T07:52:16.338Z</time></trkpt><trkpt lat="42.9703023" lon="13.2970219"><ele>986.5</ele><time>2026-04-11T07:52:17.354Z</time></trkpt><trkpt lat="42.9702815" lon="13.297109"><ele>985.3333333333334</ele><time>2026-04-11T07:52:18.355Z</time></trkpt><trkpt lat="42.9702244" lon="13.2971978"><ele>984.1666666666667</ele><time>2026-04-11T07:52:20.373Z</time></trkpt><trkpt lat="42.9701746" lon="13.2972628"><ele>983.0</ele><time>2026-04-11T07:52:24.329Z</time></trkpt><trkpt lat="42.9702067" lon="13.2974111"><ele>981.0000000000001</ele><time>2026-04-11T07:52:26.362Z</time></trkpt><trkpt lat="42.9702076" lon="13.2975229"><ele>979.0</ele><time>2026-04-11T07:52:27.371Z</time></trkpt><trkpt lat="42.9702041" lon="13.2976305"><ele>977.0</ele><time>2026-04-11T07:52:28.361Z</time></trkpt><trkpt lat="42.9702032" lon="13.2977296"><ele>975.0</ele><time>2026-04-11T07:52:29.372Z</time></trkpt><trkpt lat="42.9702094" lon="13.2978769"><ele>973.0000000000001</ele><time>2026-04-11T07:52:31.347Z</time></trkpt><trkpt lat="42.970229" lon="13.2979628"><ele>971.0</ele><time>2026-04-11T07:52:32.333Z</time></trkpt><trkpt lat="42.9702704" lon="13.298104"><ele>968.8</ele><time>2026-04-11T07:52:34.382Z</time></trkpt><trkpt lat="42.9703052" lon="13.2982277"><ele>966.5999999999999</ele><time>2026-04-11T07:52:36.338Z</time></trkpt><trkpt lat="42.9703669" lon="13.2983428"><ele>964.4</ele><time>2026-04-11T07:52:38.364Z</time></trkpt><trkpt lat="42.9704328" lon="13.298449"><ele>962.2</ele><time>2026-04-11T07:52:40.316Z</time></trkpt><trkpt lat="42.970476" lon="13.2986045"><ele>960.0</ele><time>2026-04-11T07:52:42.321Z</time></trkpt><trkpt lat="42.9704917" lon="13.2986942"><ele>960.0</ele><time>2026-04-11T07:52:43.34Z</time></trkpt><trkpt lat="42.9705257" lon="13.2988455"><ele>960.0</ele><time>2026-04-11T07:52:45.312Z</time></trkpt><trkpt lat="42.9705665" lon="13.2989353"><ele>960.0</ele><time>2026-04-11T07:52:46.358Z</time></trkpt><trkpt lat="42.9706117" lon="13.2990307"><ele>960.0</ele><time>2026-04-11T07:52:47.372Z</time></trkpt><trkpt lat="42.9706689" lon="13.2991039"><ele>960.0</ele><time>2026-04-11T07:52:48.349Z</time></trkpt><trkpt lat="42.9707241" lon="13.2991709"><ele>960.0</ele><time>2026-04-11T07:52:49.387Z</time></trkpt><trkpt lat="42.970779" lon="13.2992344"><ele>957.6666666666666</ele><time>2026-04-11T07:52:50.324Z</time></trkpt><trkpt lat="42.9708323" lon="13.2992989"><ele>955.3333333333333</ele><time>2026-04-11T07:52:51.362Z</time></trkpt><trkpt lat="42.9708833" lon="13.2993728"><ele>953.0</ele><time>2026-04-11T07:52:52.372Z</time></trkpt><trkpt lat="42.9709326" lon="13.2994522"><ele>950.6666666666666</ele><time>2026-04-11T07:52:53.336Z</time></trkpt><trkpt lat="42.9709834" lon="13.2995417"><ele>948.3333333333333</ele><time>2026-04-11T07:52:54.368Z</time></trkpt><trkpt lat="42.9710402" lon="13.2996458"><ele>946.0</ele><time>2026-04-11T07:52:55.359Z</time></trkpt><trkpt lat="42.9710957" lon="13.2997484"><ele>941.4</ele><time>2026-04-11T07:52:56.362Z</time></trkpt><trkpt lat="42.9711507" lon="13.2998511"><ele>936.8</ele><time>2026-04-11T07:52:57.348Z</time></trkpt><trkpt lat="42.9712067" lon="13.2999596"><ele>932.1999999999999</ele><time>2026-04-11T07:52:58.344Z</time></trkpt><trkpt lat="42.9712688" lon="13.3000778"><ele>927.5999999999999</ele><time>2026-04-11T07:52:59.361Z</time></trkpt><trkpt lat="42.971328" lon="13.300188"><ele>923.0</ele><time>2026-04-11T07:53:00.369Z</time></trkpt><trkpt lat="42.9713799" lon="13.300296"><ele>923.0</ele><time>2026-04-11T07:53:01.375Z</time></trkpt><trkpt lat="42.9714289" lon="13.3003995"><ele>923.0</ele><time>2026-04-11T07:53:02.37Z</time></trkpt><trkpt lat="42.9714743" lon="13.3004982"><ele>923.0</ele><time>2026-04-11T07:53:03.379Z</time></trkpt><trkpt lat="42.9715138" lon="13.3005769"><ele>923.0</ele><time>2026-04-11T07:53:04.358Z</time></trkpt><trkpt lat="42.9715614" lon="13.3007022"><ele>923.0</ele><time>2026-04-11T07:53:06.415Z</time></trkpt><trkpt lat="42.9715662" lon="13.3008408"><ele>921.5999999999999</ele><time>2026-04-11T07:53:08.35Z</time></trkpt><trkpt lat="42.9715516" lon="13.3010088"><ele>920.1999999999999</ele><time>2026-04-11T07:53:10.346Z</time></trkpt><trkpt lat="42.9715508" lon="13.3010997"><ele>918.8</ele><time>2026-04-11T07:53:11.363Z</time></trkpt><trkpt lat="42.9715844" lon="13.3012036"><ele>917.4</ele><time>2026-04-11T07:53:12.364Z</time></trkpt><trkpt lat="42.9716237" lon="13.3013221"><ele>916.0</ele><time>2026-04-11T07:53:13.369Z</time></trkpt><trkpt lat="42.9716749" lon="13.3014698"><ele>909.5</ele><time>2026-04-11T07:53:14.376Z</time></trkpt><trkpt lat="42.9717328" lon="13.3016317"><ele>903.0</ele><time>2026-04-11T07:53:15.34Z</time></trkpt><trkpt lat="42.9717926" lon="13.3018075"><ele>896.5</ele><time>2026-04-11T07:53:16.379Z</time></trkpt><trkpt lat="42.971847" lon="13.3019802"><ele>890.0</ele><time>2026-04-11T07:53:17.376Z</time></trkpt><trkpt lat="42.9719014" lon="13.3021485"><ele>890.25</ele><time>2026-04-11T07:53:18.359Z</time></trkpt><trkpt lat="42.9719521" lon="13.3023134"><ele>890.5</ele><time>2026-04-11T07:53:19.369Z</time></trkpt><trkpt lat="42.972006" lon="13.3024863"><ele>890.75</ele><time>2026-04-11T07:53:20.324Z</time></trkpt><trkpt lat="42.9720603" lon="13.3026526"><ele>891.0</ele><time>2026-04-11T07:53:21.363Z</time></trkpt><trkpt lat="42.9721111" lon="13.3028104"><ele>891.0</ele><time>2026-04-11T07:53:22.373Z</time></trkpt><trkpt lat="42.9721589" lon="13.3029593"><ele>890.9999999999999</ele><time>2026-04-11T07:53:23.336Z</time></trkpt><trkpt lat="42.9722044" lon="13.3031011"><ele>890.9999999999999</ele><time>2026-04-11T07:53:24.356Z</time></trkpt><trkpt lat="42.9722431" lon="13.30324"><ele>891.0</ele><time>2026-04-11T07:53:25.4Z</time></trkpt><trkpt lat="42.9722819" lon="13.3033725"><ele>891.0</ele><time>2026-04-11T07:53:26.371Z</time></trkpt><trkpt lat="42.9723191" lon="13.3035003"><ele>889.8333333333334</ele><time>2026-04-11T07:53:27.37Z</time></trkpt><trkpt lat="42.9723537" lon="13.3036133"><ele>888.6666666666667</ele><time>2026-04-11T07:53:28.367Z</time></trkpt><trkpt lat="42.9723883" lon="13.3037153"><ele>887.5</ele><time>2026-04-11T07:53:29.37Z</time></trkpt><trkpt lat="42.9724204" lon="13.3038127"><ele>886.3333333333334</ele><time>2026-04-11T07:53:30.306Z</time></trkpt><trkpt lat="42.972466" lon="13.3039303"><ele>885.1666666666667</ele><time>2026-04-11T07:53:32.354Z</time></trkpt><trkpt lat="42.972552" lon="13.3039047"><ele>884.0</ele><time>2026-04-11T07:53:37.357Z</time></trkpt><trkpt lat="42.9725995" lon="13.3037623"><ele>883.0000000000001</ele><time>2026-04-11T07:53:39.355Z</time></trkpt><trkpt lat="42.9726415" lon="13.3036737"><ele>882.0</ele><time>2026-04-11T07:53:40.346Z</time></trkpt><trkpt lat="42.9726885" lon="13.3035761"><ele>881.0</ele><time>2026-04-11T07:53:41.359Z</time></trkpt><trkpt lat="42.972755" lon="13.3034755"><ele>880.0</ele><time>2026-04-11T07:53:42.346Z</time></trkpt><trkpt lat="42.9728148" lon="13.303391"><ele>879.0000000000001</ele><time>2026-04-11T07:53:43.323Z</time></trkpt><trkpt lat="42.9728597" lon="13.3033244"><ele>878.0</ele><time>2026-04-11T07:53:44.365Z</time></trkpt><trkpt lat="42.972905" lon="13.3032501"><ele>878.0000000000001</ele><time>2026-04-11T07:53:45.332Z</time></trkpt><trkpt lat="42.9729429" lon="13.3031666"><ele>878.0</ele><time>2026-04-11T07:53:46.333Z</time></trkpt><trkpt lat="42.9729748" lon="13.3030801"><ele>878.0</ele><time>2026-04-11T07:53:47.372Z</time></trkpt><trkpt lat="42.9730087" lon="13.3029856"><ele>878.0</ele><time>2026-04-11T07:53:48.365Z</time></trkpt><trkpt lat="42.9730369" lon="13.3028728"><ele>878.0000000000001</ele><time>2026-04-11T07:53:49.37Z</time></trkpt><trkpt lat="42.9730605" lon="13.3027652"><ele>878.0</ele><time>2026-04-11T07:53:50.342Z</time></trkpt><trkpt lat="42.9730726" lon="13.3026653"><ele>877.8333333333334</ele><time>2026-04-11T07:53:51.302Z</time></trkpt><trkpt lat="42.9730625" lon="13.3025677"><ele>877.6666666666667</ele><time>2026-04-11T07:53:52.333Z</time></trkpt><trkpt lat="42.9730427" lon="13.3024586"><ele>877.5</ele><time>2026-04-11T07:53:53.347Z</time></trkpt><trkpt lat="42.9730166" lon="13.3023381"><ele>877.3333333333333</ele><time>2026-04-11T07:53:54.312Z</time></trkpt><trkpt lat="42.9729736" lon="13.3022297"><ele>877.1666666666666</ele><time>2026-04-11T07:53:55.317Z</time></trkpt><trkpt lat="42.9729295" lon="13.3021234"><ele>877.0</ele><time>2026-04-11T07:53:56.353Z</time></trkpt><trkpt lat="42.9728743" lon="13.3020285"><ele>874.2</ele><time>2026-04-11T07:53:57.306Z</time></trkpt><trkpt lat="42.9728288" lon="13.3019423"><ele>871.4000000000001</ele><time>2026-04-11T07:53:58.348Z</time></trkpt><trkpt lat="42.9727698" lon="13.3018115"><ele>868.5999999999999</ele><time>2026-04-11T07:54:00.33Z</time></trkpt><trkpt lat="42.9727159" lon="13.3016729"><ele>865.8</ele><time>2026-04-11T07:54:02.317Z</time></trkpt><trkpt lat="42.9726819" lon="13.3015762"><ele>863.0</ele><time>2026-04-11T07:54:03.349Z</time></trkpt><trkpt lat="42.9726399" lon="13.3014581"><ele>861.2</ele><time>2026-04-11T07:54:04.32Z</time></trkpt><trkpt lat="42.9725938" lon="13.3013443"><ele>859.4</ele><time>2026-04-11T07:54:05.348Z</time></trkpt><trkpt lat="42.9725517" lon="13.3012389"><ele>857.6000000000001</ele><time>2026-04-11T07:54:06.354Z</time></trkpt><trkpt lat="42.9725289" lon="13.3011203"><ele>855.8000000000001</ele><time>2026-04-11T07:54:07.356Z</time></trkpt><trkpt lat="42.9725035" lon="13.3009787"><ele>854.0</ele><time>2026-04-11T07:54:08.309Z</time></trkpt><trkpt lat="42.9724758" lon="13.3008532"><ele>860.0</ele><time>2026-04-11T07:54:09.358Z</time></trkpt><trkpt lat="42.9724484" lon="13.3007214"><ele>866.0000000000001</ele><time>2026-04-11T07:54:10.354Z</time></trkpt><trkpt lat="42.9724272" lon="13.3006247"><ele>872.0000000000001</ele><time>2026-04-11T07:54:11.332Z</time></trkpt><trkpt lat="42.9724026" lon="13.3004521"><ele>878.0</ele><time>2026-04-11T07:54:13.346Z</time></trkpt><trkpt lat="42.9724322" lon="13.3003338"><ele>884.0</ele><time>2026-04-11T07:54:14.329Z</time></trkpt><trkpt lat="42.9724682" lon="13.300223"><ele>883.4000000000001</ele><time>2026-04-11T07:54:15.303Z</time></trkpt><trkpt lat="42.9724974" lon="13.3001133"><ele>882.8000000000001</ele><time>2026-04-11T07:54:16.316Z</time></trkpt><trkpt lat="42.9725142" lon="13.2999987"><ele>882.1999999999999</ele><time>2026-04-11T07:54:17.34Z</time></trkpt><trkpt lat="42.9725118" lon="13.2998634"><ele>881.5999999999999</ele><time>2026-04-11T07:54:18.32Z</time></trkpt><trkpt lat="42.9725206" lon="13.2997298"><ele>881.0</ele><time>2026-04-11T07:54:19.329Z</time></trkpt><trkpt lat="42.9725376" lon="13.2996083"><ele>881.0</ele><time>2026-04-11T07:54:20.331Z</time></trkpt><trkpt lat="42.9725555" lon="13.2994879"><ele>880.9999999999999</ele><time>2026-04-11T07:54:21.329Z</time></trkpt><trkpt lat="42.9725652" lon="13.2993857"><ele>880.9999999999999</ele><time>2026-04-11T07:54:22.366Z</time></trkpt><trkpt lat="42.9725842" lon="13.2992245"><ele>881.0</ele><time>2026-04-11T07:54:24.35Z</time></trkpt><trkpt lat="42.9726875" lon="13.2991294"><ele>881.0</ele><time>2026-04-11T07:54:26.33Z</time></trkpt><trkpt lat="42.972773" lon="13.2990854"><ele>881.0000000000001</ele><time>2026-04-11T07:54:27.317Z</time></trkpt><trkpt lat="42.9728455" lon="13.2990346"><ele>881.0</ele><time>2026-04-11T07:54:28.363Z</time></trkpt><trkpt lat="42.9729117" lon="13.2989827"><ele>881.0</ele><time>2026-04-11T07:54:29.342Z</time></trkpt><trkpt lat="42.9729871" lon="13.2989017"><ele>881.0</ele><time>2026-04-11T07:54:30.351Z</time></trkpt><trkpt lat="42.9730506" lon="13.2988042"><ele>881.0000000000001</ele><time>2026-04-11T07:54:31.325Z</time></trkpt><trkpt lat="42.9731027" lon="13.2987161"><ele>881.0</ele><time>2026-04-11T07:54:32.348Z</time></trkpt><trkpt lat="42.973143" lon="13.2986284"><ele>884.3333333333334</ele><time>2026-04-11T07:54:33.311Z</time></trkpt><trkpt lat="42.9731674" lon="13.2985261"><ele>887.6666666666667</ele><time>2026-04-11T07:54:34.374Z</time></trkpt><trkpt lat="42.9731919" lon="13.298416"><ele>891.0</ele><time>2026-04-11T07:54:35.297Z</time></trkpt><trkpt lat="42.9732361" lon="13.2983166"><ele>894.3333333333333</ele><time>2026-04-11T07:54:36.304Z</time></trkpt><trkpt lat="42.9732936" lon="13.2981862"><ele>897.6666666666666</ele><time>2026-04-11T07:54:38.333Z</time></trkpt><trkpt lat="42.9733175" lon="13.2980953"><ele>901.0</ele><time>2026-04-11T07:54:41.307Z</time></trkpt><trkpt lat="42.9733358" lon="13.2979905"><ele>904.0</ele><time>2026-04-11T07:54:44.347Z</time></trkpt><trkpt lat="42.9733545" lon="13.2978845"><ele>906.9999999999999</ele><time>2026-04-11T07:54:46.303Z</time></trkpt><trkpt lat="42.9733605" lon="13.2977433"><ele>909.9999999999999</ele><time>2026-04-11T07:54:48.302Z</time></trkpt><trkpt lat="42.9733435" lon="13.297588"><ele>913.0</ele><time>2026-04-11T07:54:50.342Z</time></trkpt><trkpt lat="42.9733453" lon="13.2974593"><ele>916.0</ele><time>2026-04-11T07:54:51.307Z</time></trkpt><trkpt lat="42.9733547" lon="13.2972889"><ele>913.1999999999999</ele><time>2026-04-11T07:54:52.329Z</time></trkpt><trkpt lat="42.9733641" lon="13.297114"><ele>910.3999999999999</ele><time>2026-04-11T07:54:53.314Z</time></trkpt><trkpt lat="42.973368" lon="13.2969729"><ele>907.6</ele><time>2026-04-11T07:54:54.343Z</time></trkpt><trkpt lat="42.9733827" lon="13.2968666"><ele>904.8</ele><time>2026-04-11T07:54:55.344Z</time></trkpt><trkpt lat="42.9733996" lon="13.2967598"><ele>902.0</ele><time>2026-04-11T07:54:56.305Z</time></trkpt><trkpt lat="42.9734202" lon="13.2966656"><ele>902.0</ele><time>2026-04-11T07:54:57.307Z</time></trkpt><trkpt lat="42.973447" lon="13.2965593"><ele>902.0</ele><time>2026-04-11T07:54:58.343Z</time></trkpt><trkpt lat="42.9734739" lon="13.2964216"><ele>902.0</ele><time>2026-04-11T07:54:59.323Z</time></trkpt><trkpt lat="42.9735014" lon="13.2962753"><ele>902.0</ele><time>2026-04-11T07:55:00.303Z</time></trkpt><trkpt lat="42.9735278" lon="13.2961423"><ele>902.0</ele><time>2026-04-11T07:55:01.308Z</time></trkpt><trkpt lat="42.9735557" lon="13.2960361"><ele>904.5000000000001</ele><time>2026-04-11T07:55:02.294Z</time></trkpt><trkpt lat="42.9735814" lon="13.2959521"><ele>907.0</ele><time>2026-04-11T07:55:03.39Z</time></trkpt><trkpt lat="42.973616" lon="13.2958188"><ele>909.5</ele><time>2026-04-11T07:55:05.341Z</time></trkpt><trkpt lat="42.9736178" lon="13.2956805"><ele>912.0</ele><time>2026-04-11T07:55:07.304Z</time></trkpt><trkpt lat="42.9736326" lon="13.2955935"><ele>914.5000000000001</ele><time>2026-04-11T07:55:08.309Z</time></trkpt><trkpt lat="42.9736507" lon="13.2955023"><ele>917.0</ele><time>2026-04-11T07:55:09.343Z</time></trkpt><trkpt lat="42.9736697" lon="13.2954043"><ele>919.6666666666667</ele><time>2026-04-11T07:55:10.353Z</time></trkpt><trkpt lat="42.9736894" lon="13.2953017"><ele>922.3333333333334</ele><time>2026-04-11T07:55:11.312Z</time></trkpt><trkpt lat="42.9737053" lon="13.2952183"><ele>925.0</ele><time>2026-04-11T07:55:12.331Z</time></trkpt><trkpt lat="42.9737213" lon="13.2951106"><ele>927.6666666666667</ele><time>2026-04-11T07:55:13.34Z</time></trkpt><trkpt lat="42.973755" lon="13.2949946"><ele>930.3333333333334</ele><time>2026-04-11T07:55:14.33Z</time></trkpt><trkpt lat="42.9738081" lon="13.2948841"><ele>933.0</ele><time>2026-04-11T07:55:15.336Z</time></trkpt><trkpt lat="42.9738704" lon="13.2947732"><ele>933.5</ele><time>2026-04-11T07:55:16.303Z</time></trkpt><trkpt lat="42.9739482" lon="13.294646"><ele>934.0</ele><time>2026-04-11T07:55:17.307Z</time></trkpt><trkpt lat="42.9740377" lon="13.2945022"><ele>934.5</ele><time>2026-04-11T07:55:18.363Z</time></trkpt><trkpt lat="42.9741391" lon="13.2943578"><ele>935.0</ele><time>2026-04-11T07:55:19.347Z</time></trkpt><trkpt lat="42.9742317" lon="13.2942421"><ele>935.0000000000001</ele><time>2026-04-11T07:55:20.334Z</time></trkpt><trkpt lat="42.974306" lon="13.2941597"><ele>935.0</ele><time>2026-04-11T07:55:21.32Z</time></trkpt><trkpt lat="42.9743707" lon="13.2941037"><ele>935.0</ele><time>2026-04-11T07:55:22.344Z</time></trkpt><trkpt lat="42.9744372" lon="13.2940592"><ele>935.0</ele><time>2026-04-11T07:55:23.336Z</time></trkpt><trkpt lat="42.9745144" lon="13.2940026"><ele>935.0000000000001</ele><time>2026-04-11T07:55:24.338Z</time></trkpt><trkpt lat="42.9745808" lon="13.2939195"><ele>935.0</ele><time>2026-04-11T07:55:25.344Z</time></trkpt><trkpt lat="42.9746443" lon="13.2938236"><ele>938.0000000000001</ele><time>2026-04-11T07:55:26.305Z</time></trkpt><trkpt lat="42.9747024" lon="13.2937286"><ele>941.0</ele><time>2026-04-11T07:55:27.302Z</time></trkpt><trkpt lat="42.9747411" lon="13.2936434"><ele>944.0</ele><time>2026-04-11T07:55:28.339Z</time></trkpt><trkpt lat="42.9747748" lon="13.2935645"><ele>947.0</ele><time>2026-04-11T07:55:29.292Z</time></trkpt><trkpt lat="42.9748185" lon="13.2934376"><ele>950.0000000000001</ele><time>2026-04-11T07:55:31.296Z</time></trkpt><trkpt lat="42.9748547" lon="13.2933556"><ele>953.0</ele><time>2026-04-11T07:55:32.301Z</time></trkpt><trkpt lat="42.9749211" lon="13.2932304"><ele>953.0</ele><time>2026-04-11T07:55:33.305Z</time></trkpt><trkpt lat="42.9750147" lon="13.2931935"><ele>953.0</ele><time>2026-04-11T07:55:34.29Z</time></trkpt><trkpt lat="42.9751065" lon="13.2931751"><ele>953.0</ele><time>2026-04-11T07:55:35.3Z</time></trkpt><trkpt lat="42.9751873" lon="13.2931396"><ele>953.0</ele><time>2026-04-11T07:55:36.295Z</time></trkpt><trkpt lat="42.975267" lon="13.2930733"><ele>953.0</ele><time>2026-04-11T07:55:37.289Z</time></trkpt><trkpt lat="42.9753493" lon="13.2930179"><ele>956.0</ele><time>2026-04-11T07:55:38.303Z</time></trkpt><trkpt lat="42.9754113" lon="13.2929852"><ele>959.0</ele><time>2026-04-11T07:55:39.318Z</time></trkpt><trkpt lat="42.9755105" lon="13.2929383"><ele>962.0</ele><time>2026-04-11T07:55:40.299Z</time></trkpt><trkpt lat="42.9756014" lon="13.2928812"><ele>965.0</ele><time>2026-04-11T07:55:41.333Z</time></trkpt><trkpt lat="42.9757064" lon="13.2928185"><ele>968.0</ele><time>2026-04-11T07:55:42.305Z</time></trkpt><trkpt lat="42.9758112" lon="13.2927696"><ele>966.8333333333334</ele><time>2026-04-11T07:55:43.33Z</time></trkpt><trkpt lat="42.9758858" lon="13.2927351"><ele>965.6666666666667</ele><time>2026-04-11T07:55:44.412Z</time></trkpt><trkpt lat="42.9759475" lon="13.2926893"><ele>964.5</ele><time>2026-04-11T07:55:45.315Z</time></trkpt><trkpt lat="42.9760009" lon="13.2926251"><ele>963.3333333333333</ele><time>2026-04-11T07:55:46.316Z</time></trkpt><trkpt lat="42.9760561" lon="13.2925588"><ele>962.1666666666666</ele><time>2026-04-11T07:55:47.312Z</time></trkpt><trkpt lat="42.9761306" lon="13.2924856"><ele>961.0</ele><time>2026-04-11T07:55:48.319Z</time></trkpt><trkpt lat="42.9762121" lon="13.2924217"><ele>960.9999999999999</ele><time>2026-04-11T07:55:49.32Z</time></trkpt><trkpt lat="42.976306" lon="13.2923832"><ele>961.0</ele><time>2026-04-11T07:55:50.318Z</time></trkpt><trkpt lat="42.9763858" lon="13.292377"><ele>961.0</ele><time>2026-04-11T07:55:51.336Z</time></trkpt><trkpt lat="42.9764579" lon="13.2923747"><ele>961.0</ele><time>2026-04-11T07:55:52.354Z</time></trkpt><trkpt lat="42.9765245" lon="13.2923368"><ele>960.9999999999999</ele><time>2026-04-11T07:55:53.328Z</time></trkpt><trkpt lat="42.9765754" lon="13.2922642"><ele>961.0</ele><time>2026-04-11T07:55:54.33Z</time></trkpt><trkpt lat="42.976606" lon="13.2921803"><ele>963.5999999999999</ele><time>2026-04-11T07:55:55.32Z</time></trkpt><trkpt lat="42.9767019" lon="13.2920757"><ele>966.1999999999999</ele><time>2026-04-11T07:55:57.33Z</time></trkpt><trkpt lat="42.976771" lon="13.2920607"><ele>968.8000000000001</ele><time>2026-04-11T07:55:58.301Z</time></trkpt><trkpt lat="42.9768405" lon="13.2920389"><ele>971.4000000000001</ele><time>2026-04-11T07:55:59.357Z</time></trkpt><trkpt lat="42.9769418" lon="13.2919148"><ele>974.0</ele><time>2026-04-11T07:56:01.31Z</time></trkpt><trkpt lat="42.9769991" lon="13.2918356"><ele>974.0</ele><time>2026-04-11T07:56:02.316Z</time></trkpt><trkpt lat="42.9770966" lon="13.2917679"><ele>974.0000000000001</ele><time>2026-04-11T07:56:04.305Z</time></trkpt><trkpt lat="42.9771788" lon="13.2916835"><ele>974.0000000000001</ele><time>2026-04-11T07:56:06.336Z</time></trkpt><trkpt lat="42.9772405" lon="13.2915906"><ele>974.0</ele><time>2026-04-11T07:56:08.356Z</time></trkpt><trkpt lat="42.9772941" lon="13.2915409"><ele>974.0</ele><time>2026-04-11T07:56:10.343Z</time></trkpt><trkpt lat="42.9773866" lon="13.2916096"><ele>974.0000000000001</ele><time>2026-04-11T07:56:13.35Z</time></trkpt><trkpt lat="42.977454" lon="13.2916886"><ele>974.0</ele><time>2026-04-11T07:56:15.324Z</time></trkpt><trkpt lat="42.9775658" lon="13.2916935"><ele>974.0</ele><time>2026-04-11T07:56:17.298Z</time></trkpt><trkpt lat="42.9776489" lon="13.2917243"><ele>974.0</ele><time>2026-04-11T07:56:18.359Z</time></trkpt><trkpt lat="42.977716" lon="13.2917711"><ele>974.0000000000001</ele><time>2026-04-11T07:56:19.34Z</time></trkpt><trkpt lat="42.9777712" lon="13.2918185"><ele>974.0</ele><time>2026-04-11T07:56:20.317Z</time></trkpt><trkpt lat="42.9778263" lon="13.2918681"><ele>975.8000000000001</ele><time>2026-04-11T07:56:21.357Z</time></trkpt><trkpt lat="42.9779263" lon="13.2919898"><ele>977.6000000000001</ele><time>2026-04-11T07:56:23.321Z</time></trkpt><trkpt lat="42.9779761" lon="13.2921122"><ele>979.4</ele><time>2026-04-11T07:56:24.348Z</time></trkpt><trkpt lat="42.9780152" lon="13.2922295"><ele>981.2</ele><time>2026-04-11T07:56:25.375Z</time></trkpt><trkpt lat="42.9780573" lon="13.2923346"><ele>983.0</ele><time>2026-04-11T07:56:26.364Z</time></trkpt><trkpt lat="42.9780986" lon="13.2924465"><ele>983.0</ele><time>2026-04-11T07:56:27.304Z</time></trkpt><trkpt lat="42.9781478" lon="13.2925723"><ele>983.0</ele><time>2026-04-11T07:56:28.343Z</time></trkpt><trkpt lat="42.9781816" lon="13.2926785"><ele>983.0</ele><time>2026-04-11T07:56:29.322Z</time></trkpt><trkpt lat="42.9782297" lon="13.2928022"><ele>983.0</ele><time>2026-04-11T07:56:31.297Z</time></trkpt><trkpt lat="42.9782712" lon="13.292934"><ele>983.0</ele><time>2026-04-11T07:56:33.348Z</time></trkpt><trkpt lat="42.9783154" lon="13.2931075"><ele>983.8333333333334</ele><time>2026-04-11T07:56:35.343Z</time></trkpt><trkpt lat="42.9783433" lon="13.2932031"><ele>984.6666666666667</ele><time>2026-04-11T07:56:36.375Z</time></trkpt><trkpt lat="42.9783625" lon="13.2932866"><ele>985.5</ele><time>2026-04-11T07:56:37.318Z</time></trkpt><trkpt lat="42.9784358" lon="13.2933825"><ele>986.3333333333333</ele><time>2026-04-11T07:56:39.366Z</time></trkpt><trkpt lat="42.9784965" lon="13.2934301"><ele>987.1666666666666</ele><time>2026-04-11T07:56:40.348Z</time></trkpt><trkpt lat="42.9785731" lon="13.2934732"><ele>988.0</ele><time>2026-04-11T07:56:41.344Z</time></trkpt><trkpt lat="42.9786474" lon="13.293521"><ele>988.0</ele><time>2026-04-11T07:56:42.297Z</time></trkpt><trkpt lat="42.9787186" lon="13.2935704"><ele>988.0</ele><time>2026-04-11T07:56:43.333Z</time></trkpt><trkpt lat="42.9787916" lon="13.2936171"><ele>988.0</ele><time>2026-04-11T07:56:44.36Z</time></trkpt><trkpt lat="42.9788545" lon="13.2936586"><ele>988.0</ele><time>2026-04-11T07:56:45.406Z</time></trkpt><trkpt lat="42.9789187" lon="13.293704"><ele>988.0</ele><time>2026-04-11T07:56:46.379Z</time></trkpt><trkpt lat="42.9789789" lon="13.2937488"><ele>988.0</ele><time>2026-04-11T07:56:47.327Z</time></trkpt><trkpt lat="42.9790432" lon="13.293803"><ele>988.0</ele><time>2026-04-11T07:56:48.366Z</time></trkpt><trkpt lat="42.9791123" lon="13.293859"><ele>988.4</ele><time>2026-04-11T07:56:49.328Z</time></trkpt><trkpt lat="42.9791777" lon="13.2939315"><ele>988.8</ele><time>2026-04-11T07:56:50.352Z</time></trkpt><trkpt lat="42.9792426" lon="13.294004"><ele>989.2</ele><time>2026-04-11T07:56:51.341Z</time></trkpt><trkpt lat="42.9793216" lon="13.2940821"><ele>989.6</ele><time>2026-04-11T07:56:52.311Z</time></trkpt><trkpt lat="42.9793999" lon="13.2941682"><ele>990.0</ele><time>2026-04-11T07:56:53.322Z</time></trkpt><trkpt lat="42.9794797" lon="13.2942574"><ele>990.0</ele><time>2026-04-11T07:56:54.342Z</time></trkpt><trkpt lat="42.9795526" lon="13.2943663"><ele>990.0</ele><time>2026-04-11T07:56:55.365Z</time></trkpt><trkpt lat="42.9796132" lon="13.2944882"><ele>990.0</ele><time>2026-04-11T07:56:56.347Z</time></trkpt><trkpt lat="42.9796526" lon="13.2945944"><ele>990.0</ele><time>2026-04-11T07:56:57.311Z</time></trkpt><trkpt lat="42.9796849" lon="13.2946948"><ele>990.0</ele><time>2026-04-11T07:56:58.332Z</time></trkpt><trkpt lat="42.9797109" lon="13.2947848"><ele>985.6</ele><time>2026-04-11T07:56:59.336Z</time></trkpt><trkpt lat="42.9797592" lon="13.294901"><ele>981.2</ele><time>2026-04-11T07:57:00.352Z</time></trkpt><trkpt lat="42.97982" lon="13.2950298"><ele>976.8</ele><time>2026-04-11T07:57:01.344Z</time></trkpt><trkpt lat="42.9798827" lon="13.2951471"><ele>972.4</ele><time>2026-04-11T07:57:02.35Z</time></trkpt><trkpt lat="42.9799399" lon="13.2952351"><ele>968.0</ele><time>2026-04-11T07:57:03.343Z</time></trkpt><trkpt lat="42.9799999" lon="13.2952971"><ele>966.4</ele><time>2026-04-11T07:57:04.346Z</time></trkpt><trkpt lat="42.980076" lon="13.2953563"><ele>964.8</ele><time>2026-04-11T07:57:05.354Z</time></trkpt><trkpt lat="42.9801707" lon="13.295424"><ele>963.2</ele><time>2026-04-11T07:57:06.362Z</time></trkpt><trkpt lat="42.9802616" lon="13.2954965"><ele>961.6</ele><time>2026-04-11T07:57:07.332Z</time></trkpt><trkpt lat="42.980352" lon="13.2955758"><ele>960.0</ele><time>2026-04-11T07:57:08.347Z</time></trkpt><trkpt lat="42.9804337" lon="13.295653"><ele>960.0</ele><time>2026-04-11T07:57:09.376Z</time></trkpt><trkpt lat="42.9805136" lon="13.2957147"><ele>960.0</ele><time>2026-04-11T07:57:10.365Z</time></trkpt><trkpt lat="42.9806058" lon="13.2957656"><ele>960.0</ele><time>2026-04-11T07:57:11.332Z</time></trkpt><trkpt lat="42.9807026" lon="13.295819"><ele>960.0</ele><time>2026-04-11T07:57:12.3Z</time></trkpt><trkpt lat="42.980803" lon="13.2958608"><ele>960.0</ele><time>2026-04-11T07:57:13.41Z</time></trkpt><trkpt lat="42.9808951" lon="13.2958985"><ele>957.8333333333334</ele><time>2026-04-11T07:57:14.359Z</time></trkpt><trkpt lat="42.9809706" lon="13.2959413"><ele>955.6666666666667</ele><time>2026-04-11T07:57:15.335Z</time></trkpt><trkpt lat="42.9810327" lon="13.2959794"><ele>953.5</ele><time>2026-04-11T07:57:16.362Z</time></trkpt><trkpt lat="42.9811321" lon="13.2960195"><ele>951.3333333333334</ele><time>2026-04-11T07:57:18.351Z</time></trkpt><trkpt lat="42.9812131" lon="13.2960125"><ele>949.1666666666667</ele><time>2026-04-11T07:59:33.332Z</time></trkpt><trkpt lat="42.9812824" lon="13.2959835"><ele>947.0</ele><time>2026-04-11T07:59:35.358Z</time></trkpt><trkpt lat="42.9813695" lon="13.2959461"><ele>947.0</ele><time>2026-04-11T07:59:37.312Z</time></trkpt><trkpt lat="42.9814378" lon="13.2959057"><ele>947.0</ele><time>2026-04-11T07:59:39.347Z</time></trkpt><trkpt lat="42.9815193" lon="13.2958716"><ele>947.0</ele><time>2026-04-11T07:59:41.381Z</time></trkpt><trkpt lat="42.9816338" lon="13.295855"><ele>947.0</ele><time>2026-04-11T07:59:43.306Z</time></trkpt><trkpt lat="42.9817625" lon="13.2958523"><ele>947.0</ele><time>2026-04-11T07:59:45.326Z</time></trkpt><trkpt lat="42.981832" lon="13.2958668"><ele>944.5714285714286</ele><time>2026-04-11T07:59:46.365Z</time></trkpt><trkpt lat="42.9818996" lon="13.2958744"><ele>942.1428571428571</ele><time>2026-04-11T07:59:47.379Z</time></trkpt><trkpt lat="42.9819636" lon="13.2958741"><ele>939.7142857142857</ele><time>2026-04-11T07:59:48.308Z</time></trkpt><trkpt lat="42.9820293" lon="13.2958702"><ele>937.2857142857142</ele><time>2026-04-11T07:59:49.334Z</time></trkpt><trkpt lat="42.9821076" lon="13.2958547"><ele>934.8571428571429</ele><time>2026-04-11T07:59:50.38Z</time></trkpt><trkpt lat="42.9821949" lon="13.2958351"><ele>932.4285714285713</ele><time>2026-04-11T07:59:51.364Z</time></trkpt><trkpt lat="42.9822711" lon="13.2958162"><ele>930.0</ele><time>2026-04-11T07:59:52.369Z</time></trkpt><trkpt lat="42.9823482" lon="13.2958"><ele>930.0</ele><time>2026-04-11T07:59:53.317Z</time></trkpt><trkpt lat="42.9824194" lon="13.2957808"><ele>930.0</ele><time>2026-04-11T07:59:54.337Z</time></trkpt><trkpt lat="42.982488" lon="13.2957629"><ele>930.0</ele><time>2026-04-11T07:59:55.345Z</time></trkpt><trkpt lat="42.9826084" lon="13.2957193"><ele>930.0</ele><time>2026-04-11T07:59:57.359Z</time></trkpt><trkpt lat="42.9827202" lon="13.2957072"><ele>930.0</ele><time>2026-04-11T07:59:59.358Z</time></trkpt><trkpt lat="42.982789" lon="13.2956862"><ele>926.8</ele><time>2026-04-11T08:00:00.371Z</time></trkpt><trkpt lat="42.9828777" lon="13.2956558"><ele>923.6</ele><time>2026-04-11T08:00:01.359Z</time></trkpt><trkpt lat="42.9829821" lon="13.2956316"><ele>920.4000000000001</ele><time>2026-04-11T08:00:02.356Z</time></trkpt><trkpt lat="42.9830811" lon="13.2956095"><ele>917.2</ele><time>2026-04-11T08:00:03.344Z</time></trkpt><trkpt lat="42.983166" lon="13.2955882"><ele>914.0</ele><time>2026-04-11T08:00:04.37Z</time></trkpt><trkpt lat="42.9832414" lon="13.2955553"><ele>913.6666666666667</ele><time>2026-04-11T08:00:05.349Z</time></trkpt><trkpt lat="42.9833239" lon="13.2955277"><ele>913.3333333333334</ele><time>2026-04-11T08:00:06.363Z</time></trkpt><trkpt lat="42.9834132" lon="13.2955064"><ele>913.0</ele><time>2026-04-11T08:00:07.372Z</time></trkpt><trkpt lat="42.9834972" lon="13.2954867"><ele>912.6666666666667</ele><time>2026-04-11T08:00:08.319Z</time></trkpt><trkpt lat="42.9835727" lon="13.2954673"><ele>912.3333333333334</ele><time>2026-04-11T08:00:09.316Z</time></trkpt><trkpt lat="42.983643" lon="13.295452"><ele>912.0</ele><time>2026-04-11T08:00:10.387Z</time></trkpt><trkpt lat="42.9837075" lon="13.2954393"><ele>909.0</ele><time>2026-04-11T08:00:11.337Z</time></trkpt><trkpt lat="42.9838109" lon="13.2954133"><ele>906.0</ele><time>2026-04-11T08:00:13.361Z</time></trkpt><trkpt lat="42.9839125" lon="13.295378"><ele>903.0</ele><time>2026-04-11T08:00:15.364Z</time></trkpt><trkpt lat="42.9840102" lon="13.2953234"><ele>900.0</ele><time>2026-04-11T08:00:17.359Z</time></trkpt><trkpt lat="42.984116" lon="13.2952636"><ele>897.0</ele><time>2026-04-11T08:00:19.335Z</time></trkpt><trkpt lat="42.9841792" lon="13.2952317"><ele>894.8333333333334</ele><time>2026-04-11T08:00:20.407Z</time></trkpt><trkpt lat="42.9842561" lon="13.2952122"><ele>892.6666666666667</ele><time>2026-04-11T08:00:21.357Z</time></trkpt><trkpt lat="42.9843396" lon="13.2951815"><ele>890.5</ele><time>2026-04-11T08:00:22.361Z</time></trkpt><trkpt lat="42.9844091" lon="13.2951452"><ele>888.3333333333334</ele><time>2026-04-11T08:00:23.347Z</time></trkpt><trkpt lat="42.9844889" lon="13.2951243"><ele>886.1666666666667</ele><time>2026-04-11T08:00:25.344Z</time></trkpt><trkpt lat="42.9845875" lon="13.2951832"><ele>884.0</ele><time>2026-04-11T08:00:27.359Z</time></trkpt><trkpt lat="42.9846542" lon="13.295168"><ele>884.0</ele><time>2026-04-11T08:00:28.335Z</time></trkpt><trkpt lat="42.9847648" lon="13.2951314"><ele>884.0000000000001</ele><time>2026-04-11T08:00:30.365Z</time></trkpt><trkpt lat="42.9848631" lon="13.2950959"><ele>884.0000000000001</ele><time>2026-04-11T08:00:32.358Z</time></trkpt><trkpt lat="42.9849716" lon="13.2950516"><ele>884.0</ele><time>2026-04-11T08:00:34.301Z</time></trkpt><trkpt lat="42.9850802" lon="13.2949896"><ele>884.0</ele><time>2026-04-11T08:00:36.349Z</time></trkpt><trkpt lat="42.9851667" lon="13.2949327"><ele>882.5000000000001</ele><time>2026-04-11T08:00:38.359Z</time></trkpt><trkpt lat="42.985229" lon="13.294886"><ele>881.0</ele><time>2026-04-11T08:00:40.313Z</time></trkpt><trkpt lat="42.9852663" lon="13.2948104"><ele>879.5</ele><time>2026-04-11T08:00:42.327Z</time></trkpt><trkpt lat="42.985221" lon="13.294714"><ele>878.0</ele><time>2026-04-11T08:00:44.315Z</time></trkpt><trkpt lat="42.9851413" lon="13.2946614"><ele>876.5000000000001</ele><time>2026-04-11T08:00:46.351Z</time></trkpt><trkpt lat="42.9850817" lon="13.2946229"><ele>875.0</ele><time>2026-04-11T08:00:49.312Z</time></trkpt><trkpt lat="42.9851576" lon="13.2945852"><ele>875.0000000000001</ele><time>2026-04-11T08:00:55.364Z</time></trkpt><trkpt lat="42.9852304" lon="13.2946071"><ele>875.0</ele><time>2026-04-11T08:00:56.352Z</time></trkpt><trkpt lat="42.9853027" lon="13.2946404"><ele>875.0</ele><time>2026-04-11T08:00:57.367Z</time></trkpt><trkpt lat="42.9853858" lon="13.2946884"><ele>875.0</ele><time>2026-04-11T08:00:58.357Z</time></trkpt><trkpt lat="42.9854292" lon="13.2947694"><ele>875.0000000000001</ele><time>2026-04-11T08:00:59.34Z</time></trkpt><trkpt lat="42.9854484" lon="13.2948673"><ele>875.0</ele><time>2026-04-11T08:01:00.348Z</time></trkpt><trkpt lat="42.9854501" lon="13.2949875"><ele>873.3333333333334</ele><time>2026-04-11T08:01:01.36Z</time></trkpt><trkpt lat="42.985442" lon="13.2951092"><ele>871.6666666666667</ele><time>2026-04-11T08:01:02.361Z</time></trkpt><trkpt lat="42.9854333" lon="13.2952332"><ele>870.0</ele><time>2026-04-11T08:01:03.353Z</time></trkpt><trkpt lat="42.9854333" lon="13.2953476"><ele>868.3333333333333</ele><time>2026-04-11T08:01:04.338Z</time></trkpt><trkpt lat="42.9854512" lon="13.295464"><ele>866.6666666666666</ele><time>2026-04-11T08:01:05.318Z</time></trkpt><trkpt lat="42.9854903" lon="13.2955822"><ele>865.0</ele><time>2026-04-11T08:01:06.356Z</time></trkpt><trkpt lat="42.9855358" lon="13.2957148"><ele>864.5</ele><time>2026-04-11T08:01:07.369Z</time></trkpt><trkpt lat="42.9856178" lon="13.2958548"><ele>864.0</ele><time>2026-04-11T08:01:08.352Z</time></trkpt><trkpt lat="42.985703" lon="13.2959923"><ele>863.5</ele><time>2026-04-11T08:01:09.333Z</time></trkpt><trkpt lat="42.985779" lon="13.2961248"><ele>863.0</ele><time>2026-04-11T08:01:10.366Z</time></trkpt><trkpt lat="42.9858476" lon="13.2962414"><ele>862.1666666666667</ele><time>2026-04-11T08:01:11.331Z</time></trkpt><trkpt lat="42.9859088" lon="13.2963413"><ele>861.3333333333334</ele><time>2026-04-11T08:01:12.367Z</time></trkpt><trkpt lat="42.9859631" lon="13.296427"><ele>860.5</ele><time>2026-04-11T08:01:13.353Z</time></trkpt><trkpt lat="42.986004" lon="13.2964936"><ele>859.6666666666667</ele><time>2026-04-11T08:01:14.333Z</time></trkpt><trkpt lat="42.9860918" lon="13.2965548"><ele>858.8333333333334</ele><time>2026-04-11T08:01:17.297Z</time></trkpt><trkpt lat="42.9861152" lon="13.2964294"><ele>858.0</ele><time>2026-04-11T08:01:20.329Z</time></trkpt><trkpt lat="42.9860946" lon="13.2963413"><ele>857.0</ele><time>2026-04-11T08:01:21.362Z</time></trkpt><trkpt lat="42.9860737" lon="13.2962307"><ele>856.0</ele><time>2026-04-11T08:01:22.371Z</time></trkpt><trkpt lat="42.986046" lon="13.296124"><ele>855.0</ele><time>2026-04-11T08:01:23.309Z</time></trkpt><trkpt lat="42.9860133" lon="13.2960187"><ele>854.0</ele><time>2026-04-11T08:01:24.366Z</time></trkpt><trkpt lat="42.9859612" lon="13.2958991"><ele>853.0</ele><time>2026-04-11T08:01:25.322Z</time></trkpt><trkpt lat="42.9859104" lon="13.2957755"><ele>853.0</ele><time>2026-04-11T08:01:26.36Z</time></trkpt><trkpt lat="42.9858749" lon="13.2956579"><ele>853.0</ele><time>2026-04-11T08:01:27.311Z</time></trkpt><trkpt lat="42.9858549" lon="13.2955533"><ele>853.0</ele><time>2026-04-11T08:01:28.305Z</time></trkpt><trkpt lat="42.9858868" lon="13.2954245"><ele>853.0</ele><time>2026-04-11T08:01:30.356Z</time></trkpt><trkpt lat="42.9859707" lon="13.295381"><ele>853.0</ele><time>2026-04-11T08:01:32.336Z</time></trkpt><trkpt lat="42.9860522" lon="13.2953222"><ele>853.9999999999999</ele><time>2026-04-11T08:01:34.366Z</time></trkpt><trkpt lat="42.9861203" lon="13.2952346"><ele>855.0</ele><time>2026-04-11T08:01:36.313Z</time></trkpt><trkpt lat="42.9861961" lon="13.295232"><ele>856.0</ele><time>2026-04-11T08:01:38.307Z</time></trkpt><trkpt lat="42.9862873" lon="13.2952817"><ele>857.0</ele><time>2026-04-11T08:01:40.306Z</time></trkpt><trkpt lat="42.9863669" lon="13.2952905"><ele>857.9999999999999</ele><time>2026-04-11T08:01:42.322Z</time></trkpt><trkpt lat="42.9864312" lon="13.2952751"><ele>859.0</ele><time>2026-04-11T08:01:44.315Z</time></trkpt><trkpt lat="42.9864772" lon="13.2952151"><ele>858.9999999999999</ele><time>2026-04-11T08:01:46.332Z</time></trkpt><trkpt lat="42.9865063" lon="13.2950979"><ele>859.0</ele><time>2026-04-11T08:01:48.37Z</time></trkpt><trkpt lat="42.9865255" lon="13.2950083"><ele>859.0</ele><time>2026-04-11T08:01:51.355Z</time></trkpt><trkpt lat="42.9865276" lon="13.2949099"><ele>859.0</ele><time>2026-04-11T08:07:19.353Z</time></trkpt><trkpt lat="42.9865152" lon="13.2950214"><ele>858.9999999999999</ele><time>2026-04-11T08:07:22.377Z</time></trkpt><trkpt lat="42.9865053" lon="13.295137"><ele>859.0</ele><time>2026-04-11T08:07:24.327Z</time></trkpt><trkpt lat="42.9864723" lon="13.2952505"><ele>858.9999999999999</ele><time>2026-04-11T08:07:26.383Z</time></trkpt><trkpt lat="42.9864224" lon="13.2953292"><ele>859.0</ele><time>2026-04-11T08:07:28.351Z</time></trkpt><trkpt lat="42.986319" lon="13.2953072"><ele>859.0</ele><time>2026-04-11T08:07:30.387Z</time></trkpt><trkpt lat="42.9862466" lon="13.2952839"><ele>859.0</ele><time>2026-04-11T08:07:31.361Z</time></trkpt><trkpt lat="42.9861839" lon="13.2952731"><ele>858.9999999999999</ele><time>2026-04-11T08:07:32.355Z</time></trkpt><trkpt lat="42.9861206" lon="13.2952642"><ele>859.0</ele><time>2026-04-11T08:07:33.424Z</time></trkpt><trkpt lat="42.9860588" lon="13.2953215"><ele>858.9999999999999</ele><time>2026-04-11T08:07:35.364Z</time></trkpt><trkpt lat="42.985993" lon="13.2953763"><ele>859.0</ele><time>2026-04-11T08:07:37.38Z</time></trkpt><trkpt lat="42.9859037" lon="13.2953676"><ele>859.0</ele><time>2026-04-11T08:07:39.329Z</time></trkpt><trkpt lat="42.9858667" lon="13.2954942"><ele>859.0</ele><time>2026-04-11T08:07:41.321Z</time></trkpt><trkpt lat="42.9858731" lon="13.2955875"><ele>858.9999999999999</ele><time>2026-04-11T08:07:42.347Z</time></trkpt><trkpt lat="42.9859134" lon="13.2957044"><ele>859.0</ele><time>2026-04-11T08:07:43.389Z</time></trkpt><trkpt lat="42.9859634" lon="13.2958727"><ele>858.8000000000001</ele><time>2026-04-11T08:07:44.358Z</time></trkpt><trkpt lat="42.9860184" lon="13.2960477"><ele>858.6000000000001</ele><time>2026-04-11T08:07:45.357Z</time></trkpt><trkpt lat="42.9860555" lon="13.296193"><ele>858.4</ele><time>2026-04-11T08:07:46.382Z</time></trkpt><trkpt lat="42.9860769" lon="13.296323"><ele>858.2</ele><time>2026-04-11T08:07:47.354Z</time></trkpt><trkpt lat="42.9861" lon="13.2964292"><ele>858.0</ele><time>2026-04-11T08:07:48.374Z</time></trkpt><trkpt lat="42.986114" lon="13.2965557"><ele>858.0</ele><time>2026-04-11T08:07:50.383Z</time></trkpt><trkpt lat="42.9860808" lon="13.2966481"><ele>858.0</ele><time>2026-04-11T08:07:52.379Z</time></trkpt><trkpt lat="42.9859898" lon="13.2967083"><ele>858.0</ele><time>2026-04-11T08:07:54.328Z</time></trkpt><trkpt lat="42.9859229" lon="13.2967336"><ele>858.0</ele><time>2026-04-11T08:07:55.343Z</time></trkpt><trkpt lat="42.9858341" lon="13.2967335"><ele>858.0</ele><time>2026-04-11T08:07:56.364Z</time></trkpt><trkpt lat="42.9857341" lon="13.2967512"><ele>858.0</ele><time>2026-04-11T08:07:57.356Z</time></trkpt><trkpt lat="42.9856266" lon="13.296761"><ele>859.4</ele><time>2026-04-11T08:07:58.361Z</time></trkpt><trkpt lat="42.985521" lon="13.2967501"><ele>860.8</ele><time>2026-04-11T08:07:59.366Z</time></trkpt><trkpt lat="42.985413" lon="13.2967404"><ele>862.2</ele><time>2026-04-11T08:08:00.357Z</time></trkpt><trkpt lat="42.9853047" lon="13.2967285"><ele>863.6</ele><time>2026-04-11T08:08:01.365Z</time></trkpt><trkpt lat="42.9851894" lon="13.2967297"><ele>865.0</ele><time>2026-04-11T08:08:02.37Z</time></trkpt><trkpt lat="42.9850782" lon="13.2967248"><ele>866.25</ele><time>2026-04-11T08:08:03.366Z</time></trkpt><trkpt lat="42.9849609" lon="13.2967673"><ele>867.5</ele><time>2026-04-11T08:08:04.383Z</time></trkpt><trkpt lat="42.9848337" lon="13.2968216"><ele>868.75</ele><time>2026-04-11T08:08:05.354Z</time></trkpt><trkpt lat="42.9846873" lon="13.2968959"><ele>870.0</ele><time>2026-04-11T08:08:06.372Z</time></trkpt><trkpt lat="42.9845681" lon="13.2969647"><ele>870.0</ele><time>2026-04-11T08:08:07.318Z</time></trkpt><trkpt lat="42.984469" lon="13.2970354"><ele>870.0</ele><time>2026-04-11T08:08:08.356Z</time></trkpt><trkpt lat="42.9843752" lon="13.2971258"><ele>870.0</ele><time>2026-04-11T08:08:09.349Z</time></trkpt><trkpt lat="42.9842826" lon="13.2972228"><ele>870.0</ele><time>2026-04-11T08:08:10.336Z</time></trkpt><trkpt lat="42.9842101" lon="13.2973391"><ele>871.4</ele><time>2026-04-11T08:08:11.364Z</time></trkpt><trkpt lat="42.9841327" lon="13.2974461"><ele>872.8</ele><time>2026-04-11T08:08:12.364Z</time></trkpt><trkpt lat="42.9840417" lon="13.2975441"><ele>874.2</ele><time>2026-04-11T08:08:13.362Z</time></trkpt><trkpt lat="42.9839656" lon="13.2976308"><ele>875.6</ele><time>2026-04-11T08:08:14.311Z</time></trkpt><trkpt lat="42.9839053" lon="13.2977217"><ele>877.0</ele><time>2026-04-11T08:08:15.334Z</time></trkpt><trkpt lat="42.9838528" lon="13.297818"><ele>876.9999999999999</ele><time>2026-04-11T08:08:16.328Z</time></trkpt><trkpt lat="42.9838054" lon="13.2979031"><ele>877.0</ele><time>2026-04-11T08:08:17.324Z</time></trkpt><trkpt lat="42.9837607" lon="13.297996"><ele>877.0</ele><time>2026-04-11T08:08:18.329Z</time></trkpt><trkpt lat="42.9837198" lon="13.2980761"><ele>877.0</ele><time>2026-04-11T08:08:19.328Z</time></trkpt><trkpt lat="42.9836816" lon="13.2981565"><ele>876.9999999999999</ele><time>2026-04-11T08:08:20.361Z</time></trkpt><trkpt lat="42.9836585" lon="13.2982484"><ele>877.0</ele><time>2026-04-11T08:08:21.371Z</time></trkpt><trkpt lat="42.9836486" lon="13.2983571"><ele>875.2</ele><time>2026-04-11T08:08:22.324Z</time></trkpt><trkpt lat="42.9836533" lon="13.2984885"><ele>873.4000000000001</ele><time>2026-04-11T08:08:23.379Z</time></trkpt><trkpt lat="42.9836456" lon="13.2986329"><ele>871.5999999999999</ele><time>2026-04-11T08:08:24.325Z</time></trkpt><trkpt lat="42.9836366" lon="13.2987653"><ele>869.8</ele><time>2026-04-11T08:08:25.346Z</time></trkpt><trkpt lat="42.9836247" lon="13.2988943"><ele>868.0</ele><time>2026-04-11T08:08:26.377Z</time></trkpt><trkpt lat="42.9835967" lon="13.2990031"><ele>867.2</ele><time>2026-04-11T08:08:27.316Z</time></trkpt><trkpt lat="42.9835536" lon="13.299104"><ele>866.4</ele><time>2026-04-11T08:08:28.359Z</time></trkpt><trkpt lat="42.983488" lon="13.2992051"><ele>865.6000000000001</ele><time>2026-04-11T08:08:29.364Z</time></trkpt><trkpt lat="42.9833963" lon="13.2993149"><ele>864.8000000000001</ele><time>2026-04-11T08:08:30.346Z</time></trkpt><trkpt lat="42.9832977" lon="13.2994375"><ele>864.0</ele><time>2026-04-11T08:08:31.34Z</time></trkpt><trkpt lat="42.9831917" lon="13.2995677"><ele>864.0</ele><time>2026-04-11T08:08:32.331Z</time></trkpt><trkpt lat="42.9830914" lon="13.2996983"><ele>864.0</ele><time>2026-04-11T08:08:33.347Z</time></trkpt><trkpt lat="42.9830173" lon="13.299834"><ele>864.0</ele><time>2026-04-11T08:08:34.337Z</time></trkpt><trkpt lat="42.9829506" lon="13.2999464"><ele>864.0</ele><time>2026-04-11T08:08:35.365Z</time></trkpt><trkpt lat="42.9828837" lon="13.3000324"><ele>859.75</ele><time>2026-04-11T08:08:36.356Z</time></trkpt><trkpt lat="42.9828025" lon="13.3001197"><ele>855.5</ele><time>2026-04-11T08:08:37.32Z</time></trkpt><trkpt lat="42.9827038" lon="13.300223"><ele>851.25</ele><time>2026-04-11T08:08:38.408Z</time></trkpt><trkpt lat="42.9826046" lon="13.3003401"><ele>847.0</ele><time>2026-04-11T08:08:39.344Z</time></trkpt><trkpt lat="42.9825185" lon="13.3004535"><ele>847.8</ele><time>2026-04-11T08:08:40.368Z</time></trkpt><trkpt lat="42.9824397" lon="13.3005621"><ele>848.6</ele><time>2026-04-11T08:08:41.371Z</time></trkpt><trkpt lat="42.9823722" lon="13.3006544"><ele>849.4</ele><time>2026-04-11T08:08:42.32Z</time></trkpt><trkpt lat="42.9823084" lon="13.3007363"><ele>850.1999999999999</ele><time>2026-04-11T08:08:43.355Z</time></trkpt><trkpt lat="42.9822367" lon="13.3007958"><ele>851.0</ele><time>2026-04-11T08:08:44.326Z</time></trkpt><trkpt lat="42.98214" lon="13.3008435"><ele>851.0</ele><time>2026-04-11T08:08:45.33Z</time></trkpt><trkpt lat="42.9820391" lon="13.3008938"><ele>851.0</ele><time>2026-04-11T08:08:46.376Z</time></trkpt><trkpt lat="42.9819388" lon="13.3009535"><ele>851.0</ele><time>2026-04-11T08:08:47.333Z</time></trkpt><trkpt lat="42.9818511" lon="13.3010037"><ele>851.0</ele><time>2026-04-11T08:08:48.377Z</time></trkpt><trkpt lat="42.981772" lon="13.3010548"><ele>851.0</ele><time>2026-04-11T08:08:49.319Z</time></trkpt><trkpt lat="42.9817021" lon="13.3011208"><ele>851.1666666666667</ele><time>2026-04-11T08:08:50.364Z</time></trkpt><trkpt lat="42.9816524" lon="13.3012092"><ele>851.3333333333334</ele><time>2026-04-11T08:08:51.375Z</time></trkpt><trkpt lat="42.9816181" lon="13.3012834"><ele>851.5</ele><time>2026-04-11T08:08:52.358Z</time></trkpt><trkpt lat="42.9815793" lon="13.3013561"><ele>851.6666666666667</ele><time>2026-04-11T08:08:53.305Z</time></trkpt><trkpt lat="42.9815174" lon="13.3014327"><ele>851.8333333333334</ele><time>2026-04-11T08:08:54.335Z</time></trkpt><trkpt lat="42.981436" lon="13.3015123"><ele>852.0</ele><time>2026-04-11T08:08:55.333Z</time></trkpt><trkpt lat="42.9813636" lon="13.3015855"><ele>852.0</ele><time>2026-04-11T08:08:56.329Z</time></trkpt><trkpt lat="42.9812842" lon="13.3016598"><ele>852.0</ele><time>2026-04-11T08:08:57.323Z</time></trkpt><trkpt lat="42.9812055" lon="13.3017358"><ele>852.0</ele><time>2026-04-11T08:08:58.344Z</time></trkpt><trkpt lat="42.9811288" lon="13.3018046"><ele>852.0</ele><time>2026-04-11T08:08:59.326Z</time></trkpt><trkpt lat="42.981039" lon="13.3018724"><ele>852.0</ele><time>2026-04-11T08:09:00.375Z</time></trkpt><trkpt lat="42.9809324" lon="13.3019397"><ele>850.8</ele><time>2026-04-11T08:09:01.363Z</time></trkpt><trkpt lat="42.9808311" lon="13.3020033"><ele>849.6</ele><time>2026-04-11T08:09:02.325Z</time></trkpt><trkpt lat="42.9807312" lon="13.3020865"><ele>848.4</ele><time>2026-04-11T08:09:03.342Z</time></trkpt><trkpt lat="42.980639" lon="13.3021812"><ele>847.1999999999999</ele><time>2026-04-11T08:09:04.361Z</time></trkpt><trkpt lat="42.9805592" lon="13.3022641"><ele>846.0</ele><time>2026-04-11T08:09:05.326Z</time></trkpt><trkpt lat="42.9804803" lon="13.3023176"><ele>846.0</ele><time>2026-04-11T08:09:06.336Z</time></trkpt><trkpt lat="42.9803998" lon="13.3023636"><ele>846.0</ele><time>2026-04-11T08:09:07.341Z</time></trkpt><trkpt lat="42.9803088" lon="13.302405"><ele>846.0</ele><time>2026-04-11T08:09:08.329Z</time></trkpt><trkpt lat="42.9802072" lon="13.3024392"><ele>846.0</ele><time>2026-04-11T08:09:09.337Z</time></trkpt><trkpt lat="42.9801132" lon="13.3024819"><ele>846.0</ele><time>2026-04-11T08:09:10.34Z</time></trkpt><trkpt lat="42.980024" lon="13.3025321"><ele>846.3333333333334</ele><time>2026-04-11T08:09:11.336Z</time></trkpt><trkpt lat="42.9799429" lon="13.3025828"><ele>846.6666666666667</ele><time>2026-04-11T08:09:12.359Z</time></trkpt><trkpt lat="42.9798601" lon="13.3026068"><ele>847.0</ele><time>2026-04-11T08:09:13.323Z</time></trkpt><trkpt lat="42.9797955" lon="13.3026234"><ele>847.3333333333334</ele><time>2026-04-11T08:09:14.356Z</time></trkpt><trkpt lat="42.9797322" lon="13.3026364"><ele>847.6666666666667</ele><time>2026-04-11T08:09:15.346Z</time></trkpt><trkpt lat="42.9796381" lon="13.3027207"><ele>848.0</ele><time>2026-04-11T08:09:17.373Z</time></trkpt><trkpt lat="42.9796037" lon="13.3028228"><ele>848.0000000000001</ele><time>2026-04-11T08:09:19.373Z</time></trkpt><trkpt lat="42.9795491" lon="13.3028891"><ele>848.0</ele><time>2026-04-11T08:09:32.369Z</time></trkpt><trkpt lat="42.9795618" lon="13.3027583"><ele>848.0</ele><time>2026-04-11T08:09:35.312Z</time></trkpt><trkpt lat="42.9795827" lon="13.3026746"><ele>848.0</ele><time>2026-04-11T08:09:36.313Z</time></trkpt><trkpt lat="42.9796215" lon="13.3025826"><ele>848.0000000000001</ele><time>2026-04-11T08:09:37.36Z</time></trkpt><trkpt lat="42.9796663" lon="13.302478"><ele>848.0</ele><time>2026-04-11T08:09:38.402Z</time></trkpt><trkpt lat="42.9797144" lon="13.3023562"><ele>848.0</ele><time>2026-04-11T08:09:39.365Z</time></trkpt><trkpt lat="42.979762" lon="13.3022509"><ele>848.0</ele><time>2026-04-11T08:09:40.345Z</time></trkpt><trkpt lat="42.9798188" lon="13.3021358"><ele>848.0</ele><time>2026-04-11T08:09:41.322Z</time></trkpt><trkpt lat="42.9798754" lon="13.3020171"><ele>848.0</ele><time>2026-04-11T08:09:42.36Z</time></trkpt><trkpt lat="42.9799236" lon="13.3018958"><ele>848.0</ele><time>2026-04-11T08:09:43.347Z</time></trkpt><trkpt lat="42.9799818" lon="13.3017583"><ele>851.4</ele><time>2026-04-11T08:09:44.317Z</time></trkpt><trkpt lat="42.9800375" lon="13.3016291"><ele>854.8</ele><time>2026-04-11T08:09:45.372Z</time></trkpt><trkpt lat="42.9800835" lon="13.3015074"><ele>858.2</ele><time>2026-04-11T08:09:46.343Z</time></trkpt><trkpt lat="42.9801217" lon="13.3013952"><ele>861.6</ele><time>2026-04-11T08:09:47.351Z</time></trkpt><trkpt lat="42.9801556" lon="13.3012928"><ele>865.0</ele><time>2026-04-11T08:09:48.352Z</time></trkpt><trkpt lat="42.9801845" lon="13.3012062"><ele>864.9999999999999</ele><time>2026-04-11T08:09:49.359Z</time></trkpt><trkpt lat="42.9802155" lon="13.3011161"><ele>865.0</ele><time>2026-04-11T08:09:50.34Z</time></trkpt><trkpt lat="42.9802455" lon="13.3010309"><ele>865.0</ele><time>2026-04-11T08:09:51.399Z</time></trkpt><trkpt lat="42.9802703" lon="13.3009518"><ele>865.0</ele><time>2026-04-11T08:09:52.352Z</time></trkpt><trkpt lat="42.9803065" lon="13.3007991"><ele>864.9999999999999</ele><time>2026-04-11T08:09:54.357Z</time></trkpt><trkpt lat="42.9803307" lon="13.3006486"><ele>865.0</ele><time>2026-04-11T08:09:56.337Z</time></trkpt><trkpt lat="42.9803697" lon="13.3005063"><ele>862.6666666666666</ele><time>2026-04-11T08:09:58.341Z</time></trkpt><trkpt lat="42.9804296" lon="13.3003591"><ele>860.3333333333333</ele><time>2026-04-11T08:10:00.358Z</time></trkpt><trkpt lat="42.9804676" lon="13.3002861"><ele>858.0</ele><time>2026-04-11T08:10:01.351Z</time></trkpt><trkpt lat="42.980511" lon="13.300147"><ele>855.6666666666667</ele><time>2026-04-11T08:10:03.346Z</time></trkpt><trkpt lat="42.9805068" lon="13.3000416"><ele>853.3333333333334</ele><time>2026-04-11T08:10:05.354Z</time></trkpt><trkpt lat="42.9804952" lon="13.2999442"><ele>851.0</ele><time>2026-04-11T08:10:07.351Z</time></trkpt><trkpt lat="42.9805365" lon="13.299793"><ele>850.1666666666667</ele><time>2026-04-11T08:10:09.352Z</time></trkpt><trkpt lat="42.9805614" lon="13.2996976"><ele>849.3333333333334</ele><time>2026-04-11T08:10:10.341Z</time></trkpt><trkpt lat="42.9805867" lon="13.2995954"><ele>848.5</ele><time>2026-04-11T08:10:11.342Z</time></trkpt><trkpt lat="42.9806294" lon="13.2994649"><ele>847.6666666666667</ele><time>2026-04-11T08:10:13.351Z</time></trkpt><trkpt lat="42.9807009" lon="13.2993999"><ele>846.8333333333334</ele><time>2026-04-11T08:10:15.359Z</time></trkpt><trkpt lat="42.9807747" lon="13.2993202"><ele>846.0</ele><time>2026-04-11T08:10:18.342Z</time></trkpt><trkpt lat="42.9807904" lon="13.2992162"><ele>846.0</ele><time>2026-04-11T08:10:20.333Z</time></trkpt><trkpt lat="42.9807615" lon="13.2991303"><ele>846.0</ele><time>2026-04-11T08:10:23.348Z</time></trkpt><trkpt lat="42.9807411" lon="13.2990487"><ele>846.0</ele><time>2026-04-11T08:10:25.344Z</time></trkpt><trkpt lat="42.980763" lon="13.2989602"><ele>846.0</ele><time>2026-04-11T08:10:27.337Z</time></trkpt><trkpt lat="42.9808112" lon="13.2988863"><ele>846.0</ele><time>2026-04-11T08:10:29.329Z</time></trkpt><trkpt lat="42.9807808" lon="13.2988009"><ele>846.0</ele><time>2026-04-11T08:10:31.346Z</time></trkpt><trkpt lat="42.9807164" lon="13.2987845"><ele>846.0</ele><time>2026-04-11T08:10:32.344Z</time></trkpt><trkpt lat="42.9806067" lon="13.2987394"><ele>848.4</ele><time>2026-04-11T08:10:34.34Z</time></trkpt><trkpt lat="42.9804936" lon="13.298708"><ele>850.8</ele><time>2026-04-11T08:10:36.339Z</time></trkpt><trkpt lat="42.9803935" lon="13.2986899"><ele>853.1999999999999</ele><time>2026-04-11T08:10:38.387Z</time></trkpt><trkpt lat="42.9802566" lon="13.298674"><ele>855.5999999999999</ele><time>2026-04-11T08:10:40.326Z</time></trkpt><trkpt lat="42.9801847" lon="13.2986717"><ele>858.0</ele><time>2026-04-11T08:10:41.341Z</time></trkpt><trkpt lat="42.9801195" lon="13.2986858"><ele>858.0</ele><time>2026-04-11T08:10:42.346Z</time></trkpt><trkpt lat="42.9800182" lon="13.2987362"><ele>858.0</ele><time>2026-04-11T08:10:44.361Z</time></trkpt><trkpt lat="42.9799466" lon="13.2988335"><ele>858.0</ele><time>2026-04-11T08:10:46.36Z</time></trkpt><trkpt lat="42.9798622" lon="13.2989587"><ele>858.0</ele><time>2026-04-11T08:10:48.365Z</time></trkpt><trkpt lat="42.9798196" lon="13.2990267"><ele>858.0</ele><time>2026-04-11T08:10:49.398Z</time></trkpt><trkpt lat="42.9797315" lon="13.2991581"><ele>852.7142857142858</ele><time>2026-04-11T08:10:51.36Z</time></trkpt><trkpt lat="42.9796835" lon="13.2992309"><ele>847.4285714285714</ele><time>2026-04-11T08:10:52.371Z</time></trkpt><trkpt lat="42.9796305" lon="13.2993006"><ele>842.1428571428571</ele><time>2026-04-11T08:10:53.321Z</time></trkpt><trkpt lat="42.9795756" lon="13.2993733"><ele>836.8571428571429</ele><time>2026-04-11T08:10:54.335Z</time></trkpt><trkpt lat="42.9795219" lon="13.299446"><ele>831.5714285714286</ele><time>2026-04-11T08:10:55.357Z</time></trkpt><trkpt lat="42.9794679" lon="13.2995182"><ele>826.2857142857143</ele><time>2026-04-11T08:10:56.35Z</time></trkpt><trkpt lat="42.9794162" lon="13.2995936"><ele>821.0</ele><time>2026-04-11T08:10:57.351Z</time></trkpt><trkpt lat="42.9793625" lon="13.2996687"><ele>821.0000000000001</ele><time>2026-04-11T08:10:58.358Z</time></trkpt><trkpt lat="42.9793082" lon="13.2997402"><ele>821.0</ele><time>2026-04-11T08:10:59.345Z</time></trkpt><trkpt lat="42.9792459" lon="13.2998081"><ele>821.0</ele><time>2026-04-11T08:11:00.35Z</time></trkpt><trkpt lat="42.9791844" lon="13.2998751"><ele>821.0</ele><time>2026-04-11T08:11:01.418Z</time></trkpt><trkpt lat="42.9791133" lon="13.299944"><ele>821.0000000000001</ele><time>2026-04-11T08:11:02.351Z</time></trkpt><trkpt lat="42.9790376" lon="13.3000021"><ele>821.0</ele><time>2026-04-11T08:11:03.313Z</time></trkpt><trkpt lat="42.9789654" lon="13.3000507"><ele>816.8333333333334</ele><time>2026-04-11T08:11:04.363Z</time></trkpt><trkpt lat="42.9789029" lon="13.3000876"><ele>812.6666666666667</ele><time>2026-04-11T08:11:05.345Z</time></trkpt><trkpt lat="42.9787972" lon="13.3001244"><ele>808.5</ele><time>2026-04-11T08:11:07.339Z</time></trkpt><trkpt lat="42.9787156" lon="13.3001204"><ele>804.3333333333333</ele><time>2026-04-11T08:11:09.352Z</time></trkpt><trkpt lat="42.9786417" lon="13.3000725"><ele>800.1666666666666</ele><time>2026-04-11T08:11:12.306Z</time></trkpt><trkpt lat="42.9785741" lon="13.2999869"><ele>796.0</ele><time>2026-04-11T08:11:16.336Z</time></trkpt><trkpt lat="42.9785263" lon="13.2998963"><ele>795.9999999999999</ele><time>2026-04-11T08:11:19.356Z</time></trkpt><trkpt lat="42.978498" lon="13.2997917"><ele>796.0</ele><time>2026-04-11T08:11:22.358Z</time></trkpt><trkpt lat="42.9784735" lon="13.2997116"><ele>796.0</ele><time>2026-04-11T08:11:24.334Z</time></trkpt><trkpt lat="42.9784455" lon="13.2996042"><ele>796.0</ele><time>2026-04-11T08:11:27.361Z</time></trkpt><trkpt lat="42.9783903" lon="13.2995159"><ele>795.9999999999999</ele><time>2026-04-11T08:11:31.354Z</time></trkpt><trkpt lat="42.9783281" lon="13.2995307"><ele>796.0</ele><time>2026-04-11T08:11:35.361Z</time></trkpt><trkpt lat="42.9783206" lon="13.2996523"><ele>795.1999999999999</ele><time>2026-04-11T08:11:38.317Z</time></trkpt><trkpt lat="42.9783193" lon="13.2997633"><ele>794.4</ele><time>2026-04-11T08:11:40.349Z</time></trkpt><trkpt lat="42.9782846" lon="13.2998803"><ele>793.6</ele><time>2026-04-11T08:11:42.352Z</time></trkpt><trkpt lat="42.9781934" lon="13.3000035"><ele>792.8</ele><time>2026-04-11T08:11:44.361Z</time></trkpt><trkpt lat="42.9780818" lon="13.3001119"><ele>792.0</ele><time>2026-04-11T08:11:46.352Z</time></trkpt><trkpt lat="42.9779901" lon="13.300161"><ele>792.0</ele><time>2026-04-11T08:11:47.352Z</time></trkpt><trkpt lat="42.9778966" lon="13.300189"><ele>792.0</ele><time>2026-04-11T08:11:48.316Z</time></trkpt><trkpt lat="42.9778194" lon="13.3002003"><ele>792.0</ele><time>2026-04-11T08:11:49.346Z</time></trkpt><trkpt lat="42.9777484" lon="13.300212"><ele>792.0</ele><time>2026-04-11T08:11:50.351Z</time></trkpt><trkpt lat="42.9776808" lon="13.3002276"><ele>792.0</ele><time>2026-04-11T08:11:51.36Z</time></trkpt><trkpt lat="42.9776105" lon="13.3002466"><ele>792.0</ele><time>2026-04-11T08:11:52.364Z</time></trkpt><trkpt lat="42.9775099" lon="13.3002778"><ele>792.3333333333334</ele><time>2026-04-11T08:11:54.331Z</time></trkpt><trkpt lat="42.9774296" lon="13.300313"><ele>792.6666666666667</ele><time>2026-04-11T08:11:56.356Z</time></trkpt><trkpt lat="42.9773614" lon="13.300388"><ele>793.0</ele><time>2026-04-11T08:11:59.341Z</time></trkpt><trkpt lat="42.9772912" lon="13.3004263"><ele>793.3333333333334</ele><time>2026-04-11T08:12:01.357Z</time></trkpt><trkpt lat="42.9772291" lon="13.3004855"><ele>793.6666666666667</ele><time>2026-04-11T08:12:03.319Z</time></trkpt><trkpt lat="42.977181" lon="13.3005777"><ele>794.0</ele><time>2026-04-11T08:12:05.368Z</time></trkpt><trkpt lat="42.977168" lon="13.3006985"><ele>792.6666666666667</ele><time>2026-04-11T08:12:07.341Z</time></trkpt><trkpt lat="42.9771726" lon="13.3008157"><ele>791.3333333333334</ele><time>2026-04-11T08:12:09.349Z</time></trkpt><trkpt lat="42.9771662" lon="13.3009351"><ele>790.0</ele><time>2026-04-11T08:12:11.358Z</time></trkpt><trkpt lat="42.9771175" lon="13.3010666"><ele>788.6666666666667</ele><time>2026-04-11T08:12:13.318Z</time></trkpt><trkpt lat="42.9770658" lon="13.3011567"><ele>787.3333333333334</ele><time>2026-04-11T08:12:14.351Z</time></trkpt><trkpt lat="42.9770155" lon="13.301242"><ele>786.0</ele><time>2026-04-11T08:12:15.345Z</time></trkpt><trkpt lat="42.9769622" lon="13.3013134"><ele>786.0</ele><time>2026-04-11T08:12:16.361Z</time></trkpt><trkpt lat="42.976904" lon="13.3013808"><ele>786.0</ele><time>2026-04-11T08:12:17.362Z</time></trkpt><trkpt lat="42.9768525" lon="13.3014336"><ele>786.0</ele><time>2026-04-11T08:12:18.33Z</time></trkpt><trkpt lat="42.976783" lon="13.3015038"><ele>786.0</ele><time>2026-04-11T08:12:20.348Z</time></trkpt><trkpt lat="42.9767223" lon="13.3015862"><ele>786.0</ele><time>2026-04-11T08:12:24.336Z</time></trkpt><trkpt lat="42.9766564" lon="13.3017319"><ele>786.0</ele><time>2026-04-11T08:12:26.351Z</time></trkpt><trkpt lat="42.9766287" lon="13.3018391"><ele>786.6666666666666</ele><time>2026-04-11T08:12:27.347Z</time></trkpt><trkpt lat="42.9765937" lon="13.3019336"><ele>787.3333333333333</ele><time>2026-04-11T08:12:28.332Z</time></trkpt><trkpt lat="42.9765482" lon="13.3020241"><ele>788.0</ele><time>2026-04-11T08:12:29.341Z</time></trkpt><trkpt lat="42.976503" lon="13.3021175"><ele>788.6666666666666</ele><time>2026-04-11T08:12:30.336Z</time></trkpt><trkpt lat="42.9764637" lon="13.3022283"><ele>789.3333333333333</ele><time>2026-04-11T08:12:31.337Z</time></trkpt><trkpt lat="42.976431" lon="13.3023287"><ele>790.0</ele><time>2026-04-11T08:12:32.344Z</time></trkpt><trkpt lat="42.9763965" lon="13.3024113"><ele>788.5714285714286</ele><time>2026-04-11T08:12:33.346Z</time></trkpt><trkpt lat="42.9763466" lon="13.3025206"><ele>787.1428571428572</ele><time>2026-04-11T08:12:35.353Z</time></trkpt><trkpt lat="42.9762976" lon="13.302599"><ele>785.7142857142858</ele><time>2026-04-11T08:12:38.342Z</time></trkpt><trkpt lat="42.9762559" lon="13.3026714"><ele>784.2857142857142</ele><time>2026-04-11T08:12:41.36Z</time></trkpt><trkpt lat="42.9762351" lon="13.3027638"><ele>782.8571428571429</ele><time>2026-04-11T08:12:45.376Z</time></trkpt><trkpt lat="42.9761986" lon="13.3028391"><ele>781.4285714285714</ele><time>2026-04-11T08:12:54.358Z</time></trkpt><trkpt lat="42.9761311" lon="13.3028008"><ele>780.0</ele><time>2026-04-11T08:12:59.367Z</time></trkpt><trkpt lat="42.9761155" lon="13.3027114"><ele>780.0</ele><time>2026-04-11T08:13:01.368Z</time></trkpt><trkpt lat="42.9760645" lon="13.3025803"><ele>780.0</ele><time>2026-04-11T08:13:03.352Z</time></trkpt><trkpt lat="42.9760102" lon="13.3025144"><ele>780.0</ele><time>2026-04-11T08:13:04.36Z</time></trkpt><trkpt lat="42.975941" lon="13.3024574"><ele>780.0</ele><time>2026-04-11T08:13:05.351Z</time></trkpt><trkpt lat="42.9758659" lon="13.3023976"><ele>780.0</ele><time>2026-04-11T08:13:06.368Z</time></trkpt><trkpt lat="42.9757675" lon="13.3023322"><ele>780.6666666666667</ele><time>2026-04-11T08:13:07.343Z</time></trkpt><trkpt lat="42.9756417" lon="13.3022549"><ele>781.3333333333334</ele><time>2026-04-11T08:13:08.341Z</time></trkpt><trkpt lat="42.9754827" lon="13.3021567"><ele>782.0</ele><time>2026-04-11T08:13:09.349Z</time></trkpt><trkpt lat="42.9753342" lon="13.3020685"><ele>785.0</ele><time>2026-04-11T08:13:10.348Z</time></trkpt><trkpt lat="42.9752082" lon="13.3019998"><ele>788.0</ele><time>2026-04-11T08:13:11.333Z</time></trkpt><trkpt lat="42.9750926" lon="13.3019382"><ele>791.0</ele><time>2026-04-11T08:13:12.344Z</time></trkpt><trkpt lat="42.975014" lon="13.3019069"><ele>794.0</ele><time>2026-04-11T08:13:13.312Z</time></trkpt><trkpt lat="42.9749281" lon="13.3018759"><ele>797.0</ele><time>2026-04-11T08:13:14.334Z</time></trkpt><trkpt lat="42.9748464" lon="13.3018753"><ele>795.75</ele><time>2026-04-11T08:13:15.319Z</time></trkpt><trkpt lat="42.9747791" lon="13.3019397"><ele>794.5</ele><time>2026-04-11T08:13:17.333Z</time></trkpt><trkpt lat="42.9747707" lon="13.302037"><ele>793.25</ele><time>2026-04-11T08:13:18.341Z</time></trkpt><trkpt lat="42.9747563" lon="13.3022179"><ele>792.0</ele><time>2026-04-11T08:13:19.323Z</time></trkpt><trkpt lat="42.9747351" lon="13.3024861"><ele>792.0</ele><time>2026-04-11T08:13:20.331Z</time></trkpt><trkpt lat="42.9747042" lon="13.3027796"><ele>792.0</ele><time>2026-04-11T08:13:21.335Z</time></trkpt><trkpt lat="42.9746837" lon="13.3030954"><ele>792.0</ele><time>2026-04-11T08:13:22.338Z</time></trkpt><trkpt lat="42.9746668" lon="13.3033349"><ele>792.0</ele><time>2026-04-11T08:13:23.337Z</time></trkpt><trkpt lat="42.9746573" lon="13.3035813"><ele>792.0</ele><time>2026-04-11T08:13:24.409Z</time></trkpt><trkpt lat="42.9746477" lon="13.3037849"><ele>792.0</ele><time>2026-04-11T08:13:25.332Z</time></trkpt><trkpt lat="42.9746295" lon="13.3039925"><ele>792.25</ele><time>2026-04-11T08:13:26.339Z</time></trkpt><trkpt lat="42.9745834" lon="13.3042058"><ele>792.5</ele><time>2026-04-11T08:13:27.351Z</time></trkpt><trkpt lat="42.9745364" lon="13.3043824"><ele>792.75</ele><time>2026-04-11T08:13:28.341Z</time></trkpt><trkpt lat="42.9744926" lon="13.3045702"><ele>793.0</ele><time>2026-04-11T08:13:29.346Z</time></trkpt><trkpt lat="42.9744727" lon="13.3047191"><ele>792.4285714285714</ele><time>2026-04-11T08:13:30.352Z</time></trkpt><trkpt lat="42.9744604" lon="13.3048358"><ele>791.8571428571429</ele><time>2026-04-11T08:13:31.352Z</time></trkpt><trkpt lat="42.9744478" lon="13.3049219"><ele>791.2857142857142</ele><time>2026-04-11T08:13:32.351Z</time></trkpt><trkpt lat="42.9744256" lon="13.3050025"><ele>790.7142857142858</ele><time>2026-04-11T08:13:33.362Z</time></trkpt><trkpt lat="42.9743804" lon="13.3050735"><ele>790.1428571428571</ele><time>2026-04-11T08:13:34.314Z</time></trkpt><trkpt lat="42.9743396" lon="13.3051511"><ele>789.5714285714286</ele><time>2026-04-11T08:13:35.33Z</time></trkpt><trkpt lat="42.9743118" lon="13.3052657"><ele>789.0</ele><time>2026-04-11T08:13:36.313Z</time></trkpt><trkpt lat="42.9742819" lon="13.3053987"><ele>789.0</ele><time>2026-04-11T08:13:37.324Z</time></trkpt><trkpt lat="42.974227" lon="13.3055331"><ele>789.0</ele><time>2026-04-11T08:13:38.344Z</time></trkpt><trkpt lat="42.9741539" lon="13.3056703"><ele>789.0</ele><time>2026-04-11T08:13:39.311Z</time></trkpt><trkpt lat="42.9740766" lon="13.3058211"><ele>789.0</ele><time>2026-04-11T08:13:40.359Z</time></trkpt><trkpt lat="42.9740373" lon="13.3060056"><ele>794.6</ele><time>2026-04-11T08:13:41.353Z</time></trkpt><trkpt lat="42.9740148" lon="13.3061805"><ele>800.2</ele><time>2026-04-11T08:13:42.354Z</time></trkpt><trkpt lat="42.9739735" lon="13.3063551"><ele>805.8000000000001</ele><time>2026-04-11T08:13:43.339Z</time></trkpt><trkpt lat="42.973949" lon="13.3064845"><ele>811.4000000000001</ele><time>2026-04-11T08:13:44.309Z</time></trkpt><trkpt lat="42.9739247" lon="13.3065878"><ele>817.0</ele><time>2026-04-11T08:13:45.327Z</time></trkpt><trkpt lat="42.9738919" lon="13.3066773"><ele>817.0</ele><time>2026-04-11T08:13:46.347Z</time></trkpt><trkpt lat="42.9738229" lon="13.30679"><ele>817.0</ele><time>2026-04-11T08:13:47.326Z</time></trkpt><trkpt lat="42.9737466" lon="13.3068756"><ele>817.0</ele><time>2026-04-11T08:13:48.376Z</time></trkpt><trkpt lat="42.9736816" lon="13.3069751"><ele>817.0</ele><time>2026-04-11T08:13:49.321Z</time></trkpt><trkpt lat="42.9736226" lon="13.307069"><ele>817.0</ele><time>2026-04-11T08:13:50.365Z</time></trkpt><trkpt lat="42.9735463" lon="13.3071599"><ele>817.0</ele><time>2026-04-11T08:13:51.363Z</time></trkpt><trkpt lat="42.9734541" lon="13.307234"><ele>817.0</ele><time>2026-04-11T08:13:52.393Z</time></trkpt><trkpt lat="42.9733395" lon="13.3072858"><ele>817.0</ele><time>2026-04-11T08:13:53.334Z</time></trkpt><trkpt lat="42.973231" lon="13.307331"><ele>817.0</ele><time>2026-04-11T08:13:54.319Z</time></trkpt><trkpt lat="42.9731356" lon="13.3073547"><ele>817.0</ele><time>2026-04-11T08:13:55.36Z</time></trkpt><trkpt lat="42.9730271" lon="13.3073845"><ele>819.4000000000001</ele><time>2026-04-11T08:13:56.317Z</time></trkpt><trkpt lat="42.9729012" lon="13.3073949"><ele>821.8000000000001</ele><time>2026-04-11T08:13:57.348Z</time></trkpt><trkpt lat="42.9727845" lon="13.3074076"><ele>824.2</ele><time>2026-04-11T08:13:58.383Z</time></trkpt><trkpt lat="42.9726926" lon="13.307432"><ele>826.6</ele><time>2026-04-11T08:13:59.322Z</time></trkpt><trkpt lat="42.9726089" lon="13.3074562"><ele>829.0</ele><time>2026-04-11T08:14:00.343Z</time></trkpt><trkpt lat="42.972544" lon="13.3074735"><ele>830.4999999999999</ele><time>2026-04-11T08:14:01.346Z</time></trkpt><trkpt lat="42.9724784" lon="13.3074795"><ele>832.0</ele><time>2026-04-11T08:14:02.314Z</time></trkpt><trkpt lat="42.9724039" lon="13.3074634"><ele>833.5</ele><time>2026-04-11T08:14:03.36Z</time></trkpt><trkpt lat="42.9723356" lon="13.3074321"><ele>835.0</ele><time>2026-04-11T08:14:04.328Z</time></trkpt><trkpt lat="42.9722522" lon="13.3073452"><ele>836.4999999999999</ele><time>2026-04-11T08:14:06.345Z</time></trkpt><trkpt lat="42.9722635" lon="13.3071916"><ele>838.0</ele><time>2026-04-11T08:14:08.3Z</time></trkpt><trkpt lat="42.9722902" lon="13.3071068"><ele>839.8333333333333</ele><time>2026-04-11T08:14:09.314Z</time></trkpt><trkpt lat="42.9723248" lon="13.3070154"><ele>841.6666666666666</ele><time>2026-04-11T08:14:10.292Z</time></trkpt><trkpt lat="42.9723693" lon="13.3069156"><ele>843.5</ele><time>2026-04-11T08:14:11.313Z</time></trkpt><trkpt lat="42.9724134" lon="13.3068145"><ele>845.3333333333333</ele><time>2026-04-11T08:14:12.322Z</time></trkpt><trkpt lat="42.9724644" lon="13.3067023"><ele>847.1666666666666</ele><time>2026-04-11T08:14:13.322Z</time></trkpt><trkpt lat="42.9725196" lon="13.3065863"><ele>849.0</ele><time>2026-04-11T08:14:14.314Z</time></trkpt><trkpt lat="42.9725784" lon="13.3064505"><ele>851.6</ele><time>2026-04-11T08:14:15.323Z</time></trkpt><trkpt lat="42.972616" lon="13.3063087"><ele>854.2</ele><time>2026-04-11T08:14:16.319Z</time></trkpt><trkpt lat="42.9726429" lon="13.3061974"><ele>856.8000000000001</ele><time>2026-04-11T08:14:17.321Z</time></trkpt><trkpt lat="42.9726475" lon="13.3060861"><ele>859.4000000000001</ele><time>2026-04-11T08:14:18.314Z</time></trkpt><trkpt lat="42.9726261" lon="13.3059595"><ele>862.0</ele><time>2026-04-11T08:14:19.3Z</time></trkpt><trkpt lat="42.9725949" lon="13.3058163"><ele>862.0</ele><time>2026-04-11T08:14:20.337Z</time></trkpt><trkpt lat="42.9725584" lon="13.3056617"><ele>862.0</ele><time>2026-04-11T08:14:21.364Z</time></trkpt><trkpt lat="42.9725234" lon="13.3055342"><ele>862.0</ele><time>2026-04-11T08:14:22.357Z</time></trkpt><trkpt lat="42.9725043" lon="13.3054278"><ele>862.0</ele><time>2026-04-11T08:14:23.371Z</time></trkpt><trkpt lat="42.9724861" lon="13.3053247"><ele>862.0</ele><time>2026-04-11T08:14:24.361Z</time></trkpt><trkpt lat="42.9724725" lon="13.3052178"><ele>864.2</ele><time>2026-04-11T08:14:25.328Z</time></trkpt><trkpt lat="42.9724662" lon="13.3051051"><ele>866.4000000000001</ele><time>2026-04-11T08:14:26.356Z</time></trkpt><trkpt lat="42.9724614" lon="13.304988"><ele>868.5999999999999</ele><time>2026-04-11T08:14:27.375Z</time></trkpt><trkpt lat="42.9724515" lon="13.30488"><ele>870.8</ele><time>2026-04-11T08:14:28.365Z</time></trkpt><trkpt lat="42.9724191" lon="13.3047187"><ele>873.0</ele><time>2026-04-11T08:14:30.372Z</time></trkpt><trkpt lat="42.9723771" lon="13.3045874"><ele>874.1666666666666</ele><time>2026-04-11T08:14:32.362Z</time></trkpt><trkpt lat="42.9723196" lon="13.3045325"><ele>875.3333333333333</ele><time>2026-04-11T08:14:34.368Z</time></trkpt><trkpt lat="42.9722337" lon="13.3045543"><ele>876.5</ele><time>2026-04-11T08:14:37.351Z</time></trkpt><trkpt lat="42.9721623" lon="13.3046076"><ele>877.6666666666666</ele><time>2026-04-11T08:14:41.345Z</time></trkpt><trkpt lat="42.9721068" lon="13.3045498"><ele>878.8333333333333</ele><time>2026-04-11T08:14:43.34Z</time></trkpt><trkpt lat="42.9720394" lon="13.3044706"><ele>880.0</ele><time>2026-04-11T08:14:45.338Z</time></trkpt><trkpt lat="42.9719866" lon="13.3043953"><ele>880.0</ele><time>2026-04-11T08:14:47.351Z</time></trkpt><trkpt lat="42.971905" lon="13.3043187"><ele>880.0</ele><time>2026-04-11T08:14:49.363Z</time></trkpt><trkpt lat="42.9718414" lon="13.3042128"><ele>880.0</ele><time>2026-04-11T08:14:51.346Z</time></trkpt><trkpt lat="42.971778" lon="13.3041242"><ele>880.0</ele><time>2026-04-11T08:14:53.353Z</time></trkpt><trkpt lat="42.9717069" lon="13.304038"><ele>880.0</ele><time>2026-04-11T08:14:55.338Z</time></trkpt><trkpt lat="42.9716392" lon="13.3039476"><ele>880.0</ele><time>2026-04-11T08:14:57.333Z</time></trkpt><trkpt lat="42.9715542" lon="13.3038454"><ele>880.0</ele><time>2026-04-11T08:14:59.341Z</time></trkpt><trkpt lat="42.9714711" lon="13.3037584"><ele>880.0</ele><time>2026-04-11T08:15:01.346Z</time></trkpt><trkpt lat="42.9713801" lon="13.3036643"><ele>880.0</ele><time>2026-04-11T08:15:03.349Z</time></trkpt><trkpt lat="42.9713187" lon="13.3036119"><ele>880.0</ele><time>2026-04-11T08:15:04.361Z</time></trkpt><trkpt lat="42.9712566" lon="13.3035621"><ele>879.9999999999999</ele><time>2026-04-11T08:15:05.347Z</time></trkpt><trkpt lat="42.971189" lon="13.3035085"><ele>880.0</ele><time>2026-04-11T08:15:06.355Z</time></trkpt><trkpt lat="42.9711196" lon="13.3034629"><ele>880.0</ele><time>2026-04-11T08:15:07.361Z</time></trkpt><trkpt lat="42.9710314" lon="13.3034084"><ele>880.0</ele><time>2026-04-11T08:15:08.35Z</time></trkpt><trkpt lat="42.9709596" lon="13.3033635"><ele>879.9999999999999</ele><time>2026-04-11T08:15:09.35Z</time></trkpt><trkpt lat="42.9708875" lon="13.3033086"><ele>880.0</ele><time>2026-04-11T08:15:10.406Z</time></trkpt><trkpt lat="42.9708175" lon="13.3032505"><ele>881.1666666666666</ele><time>2026-04-11T08:15:11.346Z</time></trkpt><trkpt lat="42.9707491" lon="13.3031893"><ele>882.3333333333333</ele><time>2026-04-11T08:15:12.317Z</time></trkpt><trkpt lat="42.9706927" lon="13.3031318"><ele>883.5</ele><time>2026-04-11T08:15:13.341Z</time></trkpt><trkpt lat="42.9706118" lon="13.3030444"><ele>884.6666666666667</ele><time>2026-04-11T08:15:15.337Z</time></trkpt><trkpt lat="42.9705693" lon="13.3029383"><ele>885.8333333333334</ele><time>2026-04-11T08:15:17.341Z</time></trkpt><trkpt lat="42.970546" lon="13.302851"><ele>887.0</ele><time>2026-04-11T08:15:19.356Z</time></trkpt><trkpt lat="42.9705158" lon="13.3027664"><ele>887.0</ele><time>2026-04-11T08:15:22.334Z</time></trkpt><trkpt lat="42.9704502" lon="13.3028337"><ele>887.0</ele><time>2026-04-11T08:15:27.326Z</time></trkpt><trkpt lat="42.9703982" lon="13.3029431"><ele>887.0</ele><time>2026-04-11T08:15:30.355Z</time></trkpt><trkpt lat="42.9703564" lon="13.303074"><ele>887.0</ele><time>2026-04-11T08:15:32.338Z</time></trkpt><trkpt lat="42.9702936" lon="13.3032136"><ele>887.0</ele><time>2026-04-11T08:15:34.347Z</time></trkpt><trkpt lat="42.9702088" lon="13.3033429"><ele>883.6</ele><time>2026-04-11T08:15:36.363Z</time></trkpt><trkpt lat="42.9701581" lon="13.3034246"><ele>880.2</ele><time>2026-04-11T08:15:37.392Z</time></trkpt><trkpt lat="42.9700882" lon="13.3035432"><ele>876.8</ele><time>2026-04-11T08:15:39.339Z</time></trkpt><trkpt lat="42.9700422" lon="13.3036199"><ele>873.4</ele><time>2026-04-11T08:15:40.356Z</time></trkpt><trkpt lat="42.9699733" lon="13.3037393"><ele>870.0</ele><time>2026-04-11T08:15:41.342Z</time></trkpt><trkpt lat="42.9699182" lon="13.3038439"><ele>867.5</ele><time>2026-04-11T08:15:42.346Z</time></trkpt><trkpt lat="42.9698733" lon="13.3039314"><ele>865.0</ele><time>2026-04-11T08:15:43.337Z</time></trkpt><trkpt lat="42.9698442" lon="13.3040417"><ele>862.5</ele><time>2026-04-11T08:15:44.336Z</time></trkpt><trkpt lat="42.9698213" lon="13.3041542"><ele>860.0</ele><time>2026-04-11T08:15:45.35Z</time></trkpt><trkpt lat="42.9698109" lon="13.3042543"><ele>857.5</ele><time>2026-04-11T08:15:46.355Z</time></trkpt><trkpt lat="42.9698085" lon="13.3043811"><ele>855.0</ele><time>2026-04-11T08:15:48.399Z</time></trkpt><trkpt lat="42.9697787" lon="13.3044737"><ele>855.0</ele><time>2026-04-11T08:15:50.359Z</time></trkpt><trkpt lat="42.9697081" lon="13.3045326"><ele>855.0</ele><time>2026-04-11T08:15:52.332Z</time></trkpt><trkpt lat="42.9695988" lon="13.3045778"><ele>855.0</ele><time>2026-04-11T08:15:54.341Z</time></trkpt><trkpt lat="42.9695294" lon="13.3046118"><ele>855.0</ele><time>2026-04-11T08:15:55.336Z</time></trkpt><trkpt lat="42.9694525" lon="13.3046465"><ele>855.0</ele><time>2026-04-11T08:15:56.346Z</time></trkpt><trkpt lat="42.9693805" lon="13.3046825"><ele>855.0</ele><time>2026-04-11T08:15:57.35Z</time></trkpt><trkpt lat="42.969321" lon="13.3047159"><ele>855.0</ele><time>2026-04-11T08:15:58.35Z</time></trkpt><trkpt lat="42.9692568" lon="13.304734"><ele>855.0</ele><time>2026-04-11T08:16:00.31Z</time></trkpt><trkpt lat="42.9692011" lon="13.304682"><ele>855.0</ele><time>2026-04-11T08:16:02.355Z</time></trkpt><trkpt lat="42.9691859" lon="13.3045982"><ele>855.0</ele><time>2026-04-11T08:16:03.347Z</time></trkpt><trkpt lat="42.9691665" lon="13.3044714"><ele>855.0</ele><time>2026-04-11T08:16:04.351Z</time></trkpt><trkpt lat="42.9691322" lon="13.3043413"><ele>855.0</ele><time>2026-04-11T08:16:05.312Z</time></trkpt><trkpt lat="42.9690989" lon="13.3042424"><ele>857.1666666666666</ele><time>2026-04-11T08:16:06.328Z</time></trkpt><trkpt lat="42.969066" lon="13.304153"><ele>859.3333333333333</ele><time>2026-04-11T08:16:07.328Z</time></trkpt><trkpt lat="42.969031" lon="13.3040613"><ele>861.5</ele><time>2026-04-11T08:16:08.312Z</time></trkpt><trkpt lat="42.968975" lon="13.3039739"><ele>863.6666666666666</ele><time>2026-04-11T08:16:09.327Z</time></trkpt><trkpt lat="42.9689257" lon="13.3038963"><ele>865.8333333333333</ele><time>2026-04-11T08:16:10.306Z</time></trkpt><trkpt lat="42.9688541" lon="13.303755"><ele>868.0</ele><time>2026-04-11T08:16:12.318Z</time></trkpt><trkpt lat="42.9688171" lon="13.303679"><ele>872.0</ele><time>2026-04-11T08:16:13.334Z</time></trkpt><trkpt lat="42.9687352" lon="13.3035723"><ele>876.0</ele><time>2026-04-11T08:16:15.321Z</time></trkpt><trkpt lat="42.9686564" lon="13.3035781"><ele>880.0</ele><time>2026-04-11T08:16:17.344Z</time></trkpt><trkpt lat="42.9685664" lon="13.3037006"><ele>884.0</ele><time>2026-04-11T08:16:19.321Z</time></trkpt><trkpt lat="42.9685138" lon="13.3037931"><ele>888.0</ele><time>2026-04-11T08:16:20.351Z</time></trkpt><trkpt lat="42.9684669" lon="13.3038841"><ele>884.0</ele><time>2026-04-11T08:16:21.345Z</time></trkpt><trkpt lat="42.968421" lon="13.3039783"><ele>880.0</ele><time>2026-04-11T08:16:22.34Z</time></trkpt><trkpt lat="42.9683226" lon="13.3040717"><ele>876.0</ele><time>2026-04-11T08:16:24.334Z</time></trkpt><trkpt lat="42.9682423" lon="13.3041264"><ele>872.0</ele><time>2026-04-11T08:16:25.315Z</time></trkpt><trkpt lat="42.9681712" lon="13.3041864"><ele>868.0</ele><time>2026-04-11T08:16:26.336Z</time></trkpt><trkpt lat="42.9681029" lon="13.304254"><ele>867.4999999999999</ele><time>2026-04-11T08:16:27.334Z</time></trkpt><trkpt lat="42.9680254" lon="13.3043189"><ele>867.0</ele><time>2026-04-11T08:16:28.343Z</time></trkpt><trkpt lat="42.9679535" lon="13.3044039"><ele>866.5</ele><time>2026-04-11T08:16:29.34Z</time></trkpt><trkpt lat="42.9679117" lon="13.3044877"><ele>866.0</ele><time>2026-04-11T08:16:30.321Z</time></trkpt><trkpt lat="42.9678645" lon="13.3045751"><ele>865.4999999999999</ele><time>2026-04-11T08:16:31.332Z</time></trkpt><trkpt lat="42.9678164" lon="13.3046385"><ele>865.0</ele><time>2026-04-11T08:16:32.342Z</time></trkpt><trkpt lat="42.9677255" lon="13.3047339"><ele>862.8333333333333</ele><time>2026-04-11T08:16:34.357Z</time></trkpt><trkpt lat="42.9676465" lon="13.3048261"><ele>860.6666666666666</ele><time>2026-04-11T08:16:36.33Z</time></trkpt><trkpt lat="42.9676149" lon="13.3049058"><ele>858.5</ele><time>2026-04-11T08:16:37.336Z</time></trkpt><trkpt lat="42.9675792" lon="13.3049885"><ele>856.3333333333333</ele><time>2026-04-11T08:16:38.344Z</time></trkpt><trkpt lat="42.9675428" lon="13.3050604"><ele>854.1666666666666</ele><time>2026-04-11T08:16:39.337Z</time></trkpt><trkpt lat="42.9674461" lon="13.3051768"><ele>852.0</ele><time>2026-04-11T08:16:41.365Z</time></trkpt><trkpt lat="42.967396" lon="13.3052584"><ele>852.0</ele><time>2026-04-11T08:16:42.353Z</time></trkpt><trkpt lat="42.9673492" lon="13.3053224"><ele>852.0</ele><time>2026-04-11T08:16:43.355Z</time></trkpt><trkpt lat="42.9672527" lon="13.3054277"><ele>852.0</ele><time>2026-04-11T08:16:45.329Z</time></trkpt><trkpt lat="42.9672009" lon="13.3054787"><ele>852.0</ele><time>2026-04-11T08:16:46.316Z</time></trkpt><trkpt lat="42.9671133" lon="13.3055723"><ele>852.0</ele><time>2026-04-11T08:16:48.351Z</time></trkpt><trkpt lat="42.9670899" lon="13.3056624"><ele>852.0</ele><time>2026-04-11T08:16:50.325Z</time></trkpt><trkpt lat="42.9671523" lon="13.3057199"><ele>846.6</ele><time>2026-04-11T08:16:52.316Z</time></trkpt><trkpt lat="42.9672346" lon="13.3057329"><ele>841.2</ele><time>2026-04-11T08:16:54.31Z</time></trkpt><trkpt lat="42.9673188" lon="13.305776"><ele>835.8</ele><time>2026-04-11T08:16:56.352Z</time></trkpt><trkpt lat="42.967319" lon="13.3059199"><ele>830.4</ele><time>2026-04-11T08:17:00.303Z</time></trkpt><trkpt lat="42.9672685" lon="13.3060562"><ele>825.0</ele><time>2026-04-11T08:17:02.359Z</time></trkpt><trkpt lat="42.9672011" lon="13.30614"><ele>825.0</ele><time>2026-04-11T08:17:04.326Z</time></trkpt><trkpt lat="42.9671196" lon="13.3061505"><ele>825.0</ele><time>2026-04-11T08:17:06.348Z</time></trkpt><trkpt lat="42.9670278" lon="13.306148"><ele>825.0</ele><time>2026-04-11T08:17:08.349Z</time></trkpt><trkpt lat="42.9669397" lon="13.3061242"><ele>825.0</ele><time>2026-04-11T08:17:10.345Z</time></trkpt><trkpt lat="42.9668305" lon="13.3060584"><ele>825.0</ele><time>2026-04-11T08:17:12.318Z</time></trkpt><trkpt lat="42.9667196" lon="13.3060001"><ele>825.0</ele><time>2026-04-11T08:17:14.343Z</time></trkpt><trkpt lat="42.9666306" lon="13.3059358"><ele>825.0</ele><time>2026-04-11T08:17:16.336Z</time></trkpt><trkpt lat="42.9666236" lon="13.3058496"><ele>825.0</ele><time>2026-04-11T08:17:18.331Z</time></trkpt><trkpt lat="42.9665793" lon="13.3057812"><ele>825.0</ele><time>2026-04-11T08:17:29.333Z</time></trkpt><trkpt lat="42.9665282" lon="13.3058326"><ele>825.0</ele><time>2026-04-11T08:17:31.35Z</time></trkpt><trkpt lat="42.9665146" lon="13.3059781"><ele>825.0</ele><time>2026-04-11T08:17:33.349Z</time></trkpt><trkpt lat="42.9665292" lon="13.3061125"><ele>825.0</ele><time>2026-04-11T08:17:35.376Z</time></trkpt><trkpt lat="42.9665366" lon="13.3062029"><ele>825.0</ele><time>2026-04-11T08:17:36.36Z</time></trkpt><trkpt lat="42.9665475" lon="13.306298"><ele>825.0</ele><time>2026-04-11T08:17:37.357Z</time></trkpt><trkpt lat="42.9665348" lon="13.3064646"><ele>825.0</ele><time>2026-04-11T08:17:39.36Z</time></trkpt><trkpt lat="42.9664964" lon="13.3065973"><ele>825.0</ele><time>2026-04-11T08:17:41.359Z</time></trkpt><trkpt lat="42.9664681" lon="13.3066863"><ele>825.0</ele><time>2026-04-11T08:17:43.327Z</time></trkpt><trkpt lat="42.9664467" lon="13.3067797"><ele>822.3333333333334</ele><time>2026-04-11T08:17:45.348Z</time></trkpt><trkpt lat="42.9664329" lon="13.3068782"><ele>819.6666666666667</ele><time>2026-04-11T08:17:47.342Z</time></trkpt><trkpt lat="42.966407" lon="13.3069588"><ele>817.0</ele><time>2026-04-11T08:17:49.337Z</time></trkpt><trkpt lat="42.966375" lon="13.3070382"><ele>814.3333333333334</ele><time>2026-04-11T08:17:57.343Z</time></trkpt><trkpt lat="42.9663317" lon="13.3071795"><ele>811.6666666666667</ele><time>2026-04-11T08:17:59.366Z</time></trkpt><trkpt lat="42.9662833" lon="13.3073344"><ele>809.0</ele><time>2026-04-11T08:18:01.325Z</time></trkpt><trkpt lat="42.9662505" lon="13.3074212"><ele>806.8333333333334</ele><time>2026-04-11T08:18:02.402Z</time></trkpt><trkpt lat="42.9662138" lon="13.3075179"><ele>804.6666666666667</ele><time>2026-04-11T08:18:03.357Z</time></trkpt><trkpt lat="42.9661696" lon="13.3076278"><ele>802.5</ele><time>2026-04-11T08:18:04.37Z</time></trkpt><trkpt lat="42.9661293" lon="13.3077212"><ele>800.3333333333333</ele><time>2026-04-11T08:18:05.328Z</time></trkpt><trkpt lat="42.9660921" lon="13.3078053"><ele>798.1666666666666</ele><time>2026-04-11T08:18:06.324Z</time></trkpt><trkpt lat="42.966031" lon="13.3079311"><ele>796.0</ele><time>2026-04-11T08:18:08.358Z</time></trkpt><trkpt lat="42.9659806" lon="13.3079953"><ele>795.9999999999999</ele><time>2026-04-11T08:18:10.343Z</time></trkpt><trkpt lat="42.9659072" lon="13.3080079"><ele>796.0</ele><time>2026-04-11T08:18:12.388Z</time></trkpt><trkpt lat="42.9658178" lon="13.3080184"><ele>796.0</ele><time>2026-04-11T08:18:14.352Z</time></trkpt><trkpt lat="42.9657353" lon="13.3080731"><ele>796.0</ele><time>2026-04-11T08:18:16.32Z</time></trkpt><trkpt lat="42.9657082" lon="13.3081637"><ele>795.9999999999999</ele><time>2026-04-11T08:18:18.34Z</time></trkpt><trkpt lat="42.9657402" lon="13.3082583"><ele>796.0</ele><time>2026-04-11T08:18:20.346Z</time></trkpt><trkpt lat="42.9657896" lon="13.3083288"><ele>795.3333333333333</ele><time>2026-04-11T08:18:22.36Z</time></trkpt><trkpt lat="42.9658774" lon="13.3084112"><ele>794.6666666666666</ele><time>2026-04-11T08:18:24.316Z</time></trkpt><trkpt lat="42.9659399" lon="13.3084642"><ele>794.0</ele><time>2026-04-11T08:18:25.317Z</time></trkpt><trkpt lat="42.9659979" lon="13.3085324"><ele>793.3333333333333</ele><time>2026-04-11T08:18:26.306Z</time></trkpt><trkpt lat="42.9660347" lon="13.3086248"><ele>792.6666666666666</ele><time>2026-04-11T08:18:27.324Z</time></trkpt><trkpt lat="42.9660676" lon="13.3087164"><ele>792.0</ele><time>2026-04-11T08:18:28.315Z</time></trkpt><trkpt lat="42.9661027" lon="13.3087992"><ele>792.0</ele><time>2026-04-11T08:18:29.375Z</time></trkpt><trkpt lat="42.9661383" lon="13.3088732"><ele>792.0</ele><time>2026-04-11T08:18:30.335Z</time></trkpt><trkpt lat="42.9661902" lon="13.3089324"><ele>792.0</ele><time>2026-04-11T08:18:31.314Z</time></trkpt><trkpt lat="42.9662505" lon="13.3089945"><ele>792.0</ele><time>2026-04-11T08:18:32.353Z</time></trkpt><trkpt lat="42.9663197" lon="13.3090644"><ele>792.0</ele><time>2026-04-11T08:18:33.353Z</time></trkpt><trkpt lat="42.9663917" lon="13.3091669"><ele>792.0</ele><time>2026-04-11T08:18:34.368Z</time></trkpt><trkpt lat="42.9664659" lon="13.309251"><ele>791.6666666666666</ele><time>2026-04-11T08:18:35.363Z</time></trkpt><trkpt lat="42.966536" lon="13.3093345"><ele>791.3333333333333</ele><time>2026-04-11T08:18:36.322Z</time></trkpt><trkpt lat="42.9665997" lon="13.3094291"><ele>791.0</ele><time>2026-04-11T08:18:37.354Z</time></trkpt><trkpt lat="42.966652" lon="13.3095252"><ele>790.6666666666666</ele><time>2026-04-11T08:18:38.37Z</time></trkpt><trkpt lat="42.9666999" lon="13.3096106"><ele>790.3333333333333</ele><time>2026-04-11T08:18:39.338Z</time></trkpt><trkpt lat="42.9667215" lon="13.3097023"><ele>790.0</ele><time>2026-04-11T08:18:40.408Z</time></trkpt><trkpt lat="42.966739" lon="13.309804"><ele>789.9999999999999</ele><time>2026-04-11T08:18:41.308Z</time></trkpt><trkpt lat="42.9667373" lon="13.3099153"><ele>790.0</ele><time>2026-04-11T08:18:42.359Z</time></trkpt><trkpt lat="42.9667383" lon="13.3100289"><ele>790.0</ele><time>2026-04-11T08:18:43.364Z</time></trkpt><trkpt lat="42.9667312" lon="13.3101448"><ele>790.0</ele><time>2026-04-11T08:18:44.371Z</time></trkpt><trkpt lat="42.966723" lon="13.3102479"><ele>789.9999999999999</ele><time>2026-04-11T08:18:45.372Z</time></trkpt><trkpt lat="42.9667123" lon="13.3103335"><ele>790.0</ele><time>2026-04-11T08:18:46.331Z</time></trkpt><trkpt lat="42.9666524" lon="13.3104314"><ele>790.0</ele><time>2026-04-11T08:18:47.368Z</time></trkpt><trkpt lat="42.9665902" lon="13.3105311"><ele>790.0</ele><time>2026-04-11T08:18:48.375Z</time></trkpt><trkpt lat="42.9665206" lon="13.3106229"><ele>790.0</ele><time>2026-04-11T08:18:49.361Z</time></trkpt><trkpt lat="42.9664495" lon="13.3107142"><ele>790.0</ele><time>2026-04-11T08:18:50.344Z</time></trkpt><trkpt lat="42.966385" lon="13.3107924"><ele>790.0</ele><time>2026-04-11T08:18:51.369Z</time></trkpt><trkpt lat="42.9663193" lon="13.3108545"><ele>787.2</ele><time>2026-04-11T08:18:52.34Z</time></trkpt><trkpt lat="42.9662481" lon="13.3109045"><ele>784.4</ele><time>2026-04-11T08:18:53.345Z</time></trkpt><trkpt lat="42.966176" lon="13.3109747"><ele>781.5999999999999</ele><time>2026-04-11T08:18:54.348Z</time></trkpt><trkpt lat="42.9661149" lon="13.3110829"><ele>778.8</ele><time>2026-04-11T08:18:55.329Z</time></trkpt><trkpt lat="42.966063" lon="13.3112447"><ele>776.0</ele><time>2026-04-11T08:18:56.313Z</time></trkpt><trkpt lat="42.9660265" lon="13.3114148"><ele>773.8</ele><time>2026-04-11T08:18:57.322Z</time></trkpt><trkpt lat="42.9660015" lon="13.3115697"><ele>771.5999999999999</ele><time>2026-04-11T08:18:58.365Z</time></trkpt><trkpt lat="42.9659908" lon="13.3117123"><ele>769.4</ele><time>2026-04-11T08:18:59.371Z</time></trkpt><trkpt lat="42.965987" lon="13.3118405"><ele>767.2</ele><time>2026-04-11T08:19:00.343Z</time></trkpt><trkpt lat="42.9660168" lon="13.3119494"><ele>765.0</ele><time>2026-04-11T08:19:01.315Z</time></trkpt><trkpt lat="42.9660834" lon="13.3120643"><ele>765.0</ele><time>2026-04-11T08:19:02.353Z</time></trkpt><trkpt lat="42.9661459" lon="13.3121841"><ele>765.0</ele><time>2026-04-11T08:19:03.356Z</time></trkpt><trkpt lat="42.9661886" lon="13.3122959"><ele>765.0</ele><time>2026-04-11T08:19:04.355Z</time></trkpt><trkpt lat="42.9662146" lon="13.312405"><ele>765.0</ele><time>2026-04-11T08:19:05.369Z</time></trkpt><trkpt lat="42.9662315" lon="13.3125157"><ele>765.0</ele><time>2026-04-11T08:19:06.343Z</time></trkpt><trkpt lat="42.9662409" lon="13.3126281"><ele>765.0</ele><time>2026-04-11T08:19:07.387Z</time></trkpt><trkpt lat="42.9662443" lon="13.3127335"><ele>765.0</ele><time>2026-04-11T08:19:08.377Z</time></trkpt><trkpt lat="42.9662432" lon="13.3128268"><ele>765.0</ele><time>2026-04-11T08:19:09.363Z</time></trkpt><trkpt lat="42.9662039" lon="13.3129909"><ele>765.0</ele><time>2026-04-11T08:19:11.324Z</time></trkpt><trkpt lat="42.9661464" lon="13.3130709"><ele>765.0</ele><time>2026-04-11T08:19:12.317Z</time></trkpt><trkpt lat="42.966101" lon="13.3131635"><ele>765.0</ele><time>2026-04-11T08:19:13.335Z</time></trkpt><trkpt lat="42.9660543" lon="13.3132571"><ele>765.0</ele><time>2026-04-11T08:19:14.355Z</time></trkpt><trkpt lat="42.9660176" lon="13.3133702"><ele>765.0</ele><time>2026-04-11T08:19:15.326Z</time></trkpt><trkpt lat="42.9659787" lon="13.3134777"><ele>765.0</ele><time>2026-04-11T08:19:16.319Z</time></trkpt><trkpt lat="42.965932" lon="13.3135774"><ele>765.0</ele><time>2026-04-11T08:19:17.373Z</time></trkpt><trkpt lat="42.9658842" lon="13.3136669"><ele>765.0</ele><time>2026-04-11T08:19:18.366Z</time></trkpt><trkpt lat="42.9658376" lon="13.3137521"><ele>765.0</ele><time>2026-04-11T08:19:19.393Z</time></trkpt><trkpt lat="42.9657911" lon="13.3138326"><ele>765.0</ele><time>2026-04-11T08:19:20.366Z</time></trkpt><trkpt lat="42.96575" lon="13.3139219"><ele>761.3333333333334</ele><time>2026-04-11T08:19:21.349Z</time></trkpt><trkpt lat="42.9657107" lon="13.3140044"><ele>757.6666666666666</ele><time>2026-04-11T08:19:22.354Z</time></trkpt><trkpt lat="42.9656683" lon="13.3140766"><ele>754.0</ele><time>2026-04-11T08:19:23.39Z</time></trkpt><trkpt lat="42.9656214" lon="13.3141467"><ele>750.3333333333333</ele><time>2026-04-11T08:19:24.326Z</time></trkpt><trkpt lat="42.9655387" lon="13.3142059"><ele>746.6666666666666</ele><time>2026-04-11T08:19:25.308Z</time></trkpt><trkpt lat="42.9654678" lon="13.3142613"><ele>743.0</ele><time>2026-04-11T08:19:26.357Z</time></trkpt><trkpt lat="42.9654129" lon="13.3143176"><ele>743.0</ele><time>2026-04-11T08:19:27.361Z</time></trkpt><trkpt lat="42.9653435" lon="13.3144333"><ele>743.0</ele><time>2026-04-11T08:19:29.36Z</time></trkpt><trkpt lat="42.965363" lon="13.3145286"><ele>743.0</ele><time>2026-04-11T08:19:30.331Z</time></trkpt><trkpt lat="42.9654066" lon="13.3146352"><ele>743.0</ele><time>2026-04-11T08:19:31.411Z</time></trkpt><trkpt lat="42.9654611" lon="13.3147775"><ele>743.0</ele><time>2026-04-11T08:19:32.37Z</time></trkpt><trkpt lat="42.9654905" lon="13.3149488"><ele>741.25</ele><time>2026-04-11T08:19:33.351Z</time></trkpt><trkpt lat="42.9655181" lon="13.3151464"><ele>739.5</ele><time>2026-04-11T08:19:34.343Z</time></trkpt><trkpt lat="42.9655556" lon="13.3153478"><ele>737.75</ele><time>2026-04-11T08:19:35.347Z</time></trkpt><trkpt lat="42.9655933" lon="13.3155175"><ele>736.0</ele><time>2026-04-11T08:19:36.334Z</time></trkpt><trkpt lat="42.9656185" lon="13.3156355"><ele>736.0</ele><time>2026-04-11T08:19:37.348Z</time></trkpt><trkpt lat="42.965631" lon="13.3157474"><ele>736.0</ele><time>2026-04-11T08:19:38.351Z</time></trkpt><trkpt lat="42.9656242" lon="13.3158453"><ele>736.0</ele><time>2026-04-11T08:19:39.339Z</time></trkpt><trkpt lat="42.965611" lon="13.3159543"><ele>736.0</ele><time>2026-04-11T08:19:40.336Z</time></trkpt><trkpt lat="42.9655544" lon="13.3160681"><ele>736.0</ele><time>2026-04-11T08:19:41.333Z</time></trkpt><trkpt lat="42.9654947" lon="13.3161888"><ele>736.0</ele><time>2026-04-11T08:19:42.346Z</time></trkpt><trkpt lat="42.9654438" lon="13.3163396"><ele>736.25</ele><time>2026-04-11T08:19:43.317Z</time></trkpt><trkpt lat="42.9653992" lon="13.3164914"><ele>736.5</ele><time>2026-04-11T08:19:44.342Z</time></trkpt><trkpt lat="42.9653586" lon="13.3166402"><ele>736.75</ele><time>2026-04-11T08:19:45.352Z</time></trkpt><trkpt lat="42.9653182" lon="13.3167915"><ele>737.0</ele><time>2026-04-11T08:19:46.382Z</time></trkpt><trkpt lat="42.9652888" lon="13.316927"><ele>737.0</ele><time>2026-04-11T08:19:47.386Z</time></trkpt><trkpt lat="42.9652684" lon="13.3170416"><ele>737.0</ele><time>2026-04-11T08:19:48.366Z</time></trkpt><trkpt lat="42.9652572" lon="13.3171317"><ele>737.0</ele><time>2026-04-11T08:19:49.368Z</time></trkpt><trkpt lat="42.9652437" lon="13.3172382"><ele>737.0</ele><time>2026-04-11T08:19:51.373Z</time></trkpt><trkpt lat="42.9651732" lon="13.3172495"><ele>737.0</ele><time>2026-04-11T08:19:55.315Z</time></trkpt><trkpt lat="42.9651089" lon="13.317193"><ele>737.0</ele><time>2026-04-11T08:19:57.316Z</time></trkpt><trkpt lat="42.9650253" lon="13.3170948"><ele>735.0</ele><time>2026-04-11T08:19:59.355Z</time></trkpt><trkpt lat="42.9649754" lon="13.3170333"><ele>733.0</ele><time>2026-04-11T08:20:00.351Z</time></trkpt><trkpt lat="42.9649227" lon="13.316974"><ele>731.0</ele><time>2026-04-11T08:20:01.346Z</time></trkpt><trkpt lat="42.9648533" lon="13.3169117"><ele>729.0</ele><time>2026-04-11T08:20:02.315Z</time></trkpt><trkpt lat="42.9647641" lon="13.3168489"><ele>727.0</ele><time>2026-04-11T08:20:03.335Z</time></trkpt><trkpt lat="42.9646637" lon="13.316788"><ele>725.0</ele><time>2026-04-11T08:20:04.34Z</time></trkpt><trkpt lat="42.964576" lon="13.3167356"><ele>725.0</ele><time>2026-04-11T08:20:05.344Z</time></trkpt><trkpt lat="42.9644993" lon="13.3166968"><ele>725.0</ele><time>2026-04-11T08:20:06.3Z</time></trkpt><trkpt lat="42.9644223" lon="13.316686"><ele>725.0</ele><time>2026-04-11T08:20:07.318Z</time></trkpt><trkpt lat="42.9643532" lon="13.3166895"><ele>725.0</ele><time>2026-04-11T08:20:08.34Z</time></trkpt><trkpt lat="42.9642389" lon="13.3167069"><ele>725.0</ele><time>2026-04-11T08:20:10.334Z</time></trkpt><trkpt lat="42.9641277" lon="13.3168389"><ele>724.6</ele><time>2026-04-11T08:20:12.315Z</time></trkpt><trkpt lat="42.9640886" lon="13.316964"><ele>724.2</ele><time>2026-04-11T08:20:13.332Z</time></trkpt><trkpt lat="42.9640582" lon="13.3171154"><ele>723.8</ele><time>2026-04-11T08:20:14.349Z</time></trkpt><trkpt lat="42.9640288" lon="13.3172644"><ele>723.4</ele><time>2026-04-11T08:20:15.346Z</time></trkpt><trkpt lat="42.9640045" lon="13.317378"><ele>723.0</ele><time>2026-04-11T08:20:16.462Z</time></trkpt><trkpt lat="42.9639263" lon="13.3176169"><ele>721.8</ele><time>2026-04-11T08:20:18.351Z</time></trkpt><trkpt lat="42.9638849" lon="13.3177361"><ele>720.5999999999999</ele><time>2026-04-11T08:20:19.368Z</time></trkpt><trkpt lat="42.9638341" lon="13.3178449"><ele>719.4000000000001</ele><time>2026-04-11T08:20:20.36Z</time></trkpt><trkpt lat="42.9637731" lon="13.317937"><ele>718.2</ele><time>2026-04-11T08:20:21.343Z</time></trkpt><trkpt lat="42.9637005" lon="13.3180288"><ele>717.0</ele><time>2026-04-11T08:20:22.334Z</time></trkpt><trkpt lat="42.9636268" lon="13.3181382"><ele>714.6</ele><time>2026-04-11T08:20:23.352Z</time></trkpt><trkpt lat="42.9635624" lon="13.3182356"><ele>712.2</ele><time>2026-04-11T08:20:24.358Z</time></trkpt><trkpt lat="42.9635095" lon="13.3183076"><ele>709.8</ele><time>2026-04-11T08:20:25.351Z</time></trkpt><trkpt lat="42.9634481" lon="13.318377"><ele>707.4</ele><time>2026-04-11T08:20:26.345Z</time></trkpt><trkpt lat="42.9633706" lon="13.318462"><ele>705.0</ele><time>2026-04-11T08:20:27.311Z</time></trkpt><trkpt lat="42.9632914" lon="13.3185496"><ele>710.0</ele><time>2026-04-11T08:20:28.341Z</time></trkpt><trkpt lat="42.963217" lon="13.3186225"><ele>715.0</ele><time>2026-04-11T08:20:29.364Z</time></trkpt><trkpt lat="42.9631462" lon="13.3186898"><ele>720.0</ele><time>2026-04-11T08:20:30.363Z</time></trkpt><trkpt lat="42.9630553" lon="13.3187456"><ele>725.0</ele><time>2026-04-11T08:20:31.333Z</time></trkpt><trkpt lat="42.9629699" lon="13.3187911"><ele>730.0</ele><time>2026-04-11T08:20:32.351Z</time></trkpt><trkpt lat="42.9628883" lon="13.3188195"><ele>730.0</ele><time>2026-04-11T08:20:33.346Z</time></trkpt><trkpt lat="42.9628087" lon="13.3188548"><ele>730.0</ele><time>2026-04-11T08:20:34.314Z</time></trkpt><trkpt lat="42.9627217" lon="13.3188724"><ele>730.0</ele><time>2026-04-11T08:20:35.355Z</time></trkpt><trkpt lat="42.9626379" lon="13.3188734"><ele>730.0</ele><time>2026-04-11T08:20:36.361Z</time></trkpt><trkpt lat="42.962558" lon="13.3188854"><ele>730.0</ele><time>2026-04-11T08:20:37.322Z</time></trkpt><trkpt lat="42.9624716" lon="13.3189324"><ele>730.0</ele><time>2026-04-11T08:20:38.36Z</time></trkpt><trkpt lat="42.9624035" lon="13.3189876"><ele>728.3333333333334</ele><time>2026-04-11T08:20:39.352Z</time></trkpt><trkpt lat="42.9623311" lon="13.3190537"><ele>726.6666666666667</ele><time>2026-04-11T08:20:40.346Z</time></trkpt><trkpt lat="42.9622681" lon="13.3190982"><ele>725.0</ele><time>2026-04-11T08:20:41.359Z</time></trkpt><trkpt lat="42.9621981" lon="13.3191528"><ele>723.3333333333334</ele><time>2026-04-11T08:20:42.317Z</time></trkpt><trkpt lat="42.9621301" lon="13.3191846"><ele>721.6666666666666</ele><time>2026-04-11T08:20:43.316Z</time></trkpt><trkpt lat="42.9620645" lon="13.3192123"><ele>720.0</ele><time>2026-04-11T08:20:44.344Z</time></trkpt><trkpt lat="42.9619871" lon="13.3192415"><ele>720.0</ele><time>2026-04-11T08:20:45.342Z</time></trkpt><trkpt lat="42.9619136" lon="13.3192678"><ele>720.0</ele><time>2026-04-11T08:20:46.358Z</time></trkpt><trkpt lat="42.961826" lon="13.3192801"><ele>720.0</ele><time>2026-04-11T08:20:47.361Z</time></trkpt><trkpt lat="42.9617303" lon="13.3192811"><ele>720.0</ele><time>2026-04-11T08:20:48.316Z</time></trkpt><trkpt lat="42.9616466" lon="13.3192883"><ele>720.0</ele><time>2026-04-11T08:20:49.328Z</time></trkpt><trkpt lat="42.9615766" lon="13.319301"><ele>720.0</ele><time>2026-04-11T08:20:50.36Z</time></trkpt><trkpt lat="42.961446" lon="13.3193352"><ele>719.3333333333334</ele><time>2026-04-11T08:20:52.297Z</time></trkpt><trkpt lat="42.9613774" lon="13.3193641"><ele>718.6666666666666</ele><time>2026-04-11T08:20:53.308Z</time></trkpt><trkpt lat="42.9613156" lon="13.3194046"><ele>718.0</ele><time>2026-04-11T08:20:54.325Z</time></trkpt><trkpt lat="42.9612539" lon="13.3194448"><ele>717.3333333333333</ele><time>2026-04-11T08:20:55.32Z</time></trkpt><trkpt lat="42.9611859" lon="13.3194912"><ele>716.6666666666666</ele><time>2026-04-11T08:20:56.367Z</time></trkpt><trkpt lat="42.9610881" lon="13.3195851"><ele>716.0</ele><time>2026-04-11T08:20:58.341Z</time></trkpt><trkpt lat="42.9610417" lon="13.3197125"><ele>714.1999999999999</ele><time>2026-04-11T08:21:00.364Z</time></trkpt><trkpt lat="42.961036" lon="13.3198576"><ele>712.4</ele><time>2026-04-11T08:21:02.357Z</time></trkpt><trkpt lat="42.9610276" lon="13.3199962"><ele>710.6</ele><time>2026-04-11T08:21:04.309Z</time></trkpt><trkpt lat="42.9610396" lon="13.3201571"><ele>708.8</ele><time>2026-04-11T08:21:06.346Z</time></trkpt><trkpt lat="42.9610508" lon="13.3202469"><ele>707.0</ele><time>2026-04-11T08:21:07.362Z</time></trkpt><trkpt lat="42.9610651" lon="13.3204093"><ele>707.0</ele><time>2026-04-11T08:21:09.326Z</time></trkpt><trkpt lat="42.9610939" lon="13.3205158"><ele>707.0</ele><time>2026-04-11T08:21:11.363Z</time></trkpt><trkpt lat="42.961124" lon="13.320643"><ele>707.0</ele><time>2026-04-11T08:21:13.309Z</time></trkpt><trkpt lat="42.9611855" lon="13.3207801"><ele>707.0</ele><time>2026-04-11T08:21:15.351Z</time></trkpt><trkpt lat="42.9612489" lon="13.3208964"><ele>707.0</ele><time>2026-04-11T08:21:17.33Z</time></trkpt><trkpt lat="42.9612853" lon="13.3210168"><ele>708.3333333333333</ele><time>2026-04-11T08:21:19.351Z</time></trkpt><trkpt lat="42.9613321" lon="13.3210864"><ele>709.6666666666666</ele><time>2026-04-11T08:21:26.378Z</time></trkpt><trkpt lat="42.9613735" lon="13.3211802"><ele>711.0</ele><time>2026-04-11T08:21:29.358Z</time></trkpt><trkpt lat="42.9613711" lon="13.3212975"><ele>712.3333333333334</ele><time>2026-04-11T08:21:32.367Z</time></trkpt><trkpt lat="42.9614286" lon="13.3213759"><ele>713.6666666666667</ele><time>2026-04-11T08:21:34.354Z</time></trkpt><trkpt lat="42.9614943" lon="13.3214996"><ele>715.0</ele><time>2026-04-11T08:21:36.373Z</time></trkpt><trkpt lat="42.9615502" lon="13.32162"><ele>715.4</ele><time>2026-04-11T08:21:38.309Z</time></trkpt><trkpt lat="42.9615939" lon="13.3217524"><ele>715.8</ele><time>2026-04-11T08:21:40.342Z</time></trkpt><trkpt lat="42.9616157" lon="13.3218351"><ele>716.2</ele><time>2026-04-11T08:21:41.318Z</time></trkpt><trkpt lat="42.9616349" lon="13.3219785"><ele>716.6</ele><time>2026-04-11T08:21:43.312Z</time></trkpt><trkpt lat="42.9616296" lon="13.3221135"><ele>717.0</ele><time>2026-04-11T08:21:45.338Z</time></trkpt><trkpt lat="42.9616155" lon="13.3222737"><ele>715.8333333333334</ele><time>2026-04-11T08:21:47.344Z</time></trkpt><trkpt lat="42.9615981" lon="13.3223648"><ele>714.6666666666666</ele><time>2026-04-11T08:21:48.327Z</time></trkpt><trkpt lat="42.961576" lon="13.3224485"><ele>713.5</ele><time>2026-04-11T08:21:49.356Z</time></trkpt><trkpt lat="42.9615539" lon="13.32253"><ele>712.3333333333333</ele><time>2026-04-11T08:21:50.351Z</time></trkpt><trkpt lat="42.9615102" lon="13.3226881"><ele>711.1666666666666</ele><time>2026-04-11T08:21:52.337Z</time></trkpt><trkpt lat="42.9614881" lon="13.3227691"><ele>710.0</ele><time>2026-04-11T08:21:53.328Z</time></trkpt><trkpt lat="42.9614522" lon="13.322914"><ele>710.0</ele><time>2026-04-11T08:21:55.339Z</time></trkpt><trkpt lat="42.9614244" lon="13.3230343"><ele>710.0</ele><time>2026-04-11T08:21:57.329Z</time></trkpt><trkpt lat="42.9614131" lon="13.3231468"><ele>710.0</ele><time>2026-04-11T08:21:59.349Z</time></trkpt><trkpt lat="42.9614159" lon="13.3232786"><ele>710.0</ele><time>2026-04-11T08:22:01.328Z</time></trkpt><trkpt lat="42.9614117" lon="13.3234115"><ele>710.0</ele><time>2026-04-11T08:22:03.371Z</time></trkpt><trkpt lat="42.9613938" lon="13.3235458"><ele>709.0</ele><time>2026-04-11T08:22:05.339Z</time></trkpt><trkpt lat="42.9613557" lon="13.32369"><ele>708.0</ele><time>2026-04-11T08:22:07.318Z</time></trkpt><trkpt lat="42.9613064" lon="13.3238117"><ele>707.0</ele><time>2026-04-11T08:22:09.344Z</time></trkpt><trkpt lat="42.9612367" lon="13.3239213"><ele>706.0</ele><time>2026-04-11T08:22:11.32Z</time></trkpt><trkpt lat="42.9611307" lon="13.3240194"><ele>705.0</ele><time>2026-04-11T08:22:13.345Z</time></trkpt><trkpt lat="42.96107" lon="13.3240675"><ele>701.0</ele><time>2026-04-11T08:22:14.395Z</time></trkpt><trkpt lat="42.9610013" lon="13.3241157"><ele>697.0</ele><time>2026-04-11T08:22:15.353Z</time></trkpt><trkpt lat="42.9609008" lon="13.3242197"><ele>693.0</ele><time>2026-04-11T08:22:17.353Z</time></trkpt><trkpt lat="42.9608563" lon="13.3242878"><ele>689.0</ele><time>2026-04-11T08:22:18.34Z</time></trkpt><trkpt lat="42.9608157" lon="13.3243881"><ele>685.0</ele><time>2026-04-11T08:22:19.346Z</time></trkpt><trkpt lat="42.9607544" lon="13.3245173"><ele>684.8</ele><time>2026-04-11T08:22:20.356Z</time></trkpt><trkpt lat="42.9606968" lon="13.324619"><ele>684.6</ele><time>2026-04-11T08:22:21.353Z</time></trkpt><trkpt lat="42.9606366" lon="13.3247261"><ele>684.4000000000001</ele><time>2026-04-11T08:22:22.342Z</time></trkpt><trkpt lat="42.960568" lon="13.3248538"><ele>684.2</ele><time>2026-04-11T08:22:23.396Z</time></trkpt><trkpt lat="42.9604987" lon="13.3249872"><ele>684.0</ele><time>2026-04-11T08:22:24.352Z</time></trkpt><trkpt lat="42.960434" lon="13.3250851"><ele>684.0</ele><time>2026-04-11T08:22:25.352Z</time></trkpt><trkpt lat="42.960373" lon="13.3251562"><ele>684.0</ele><time>2026-04-11T08:22:26.351Z</time></trkpt><trkpt lat="42.9603184" lon="13.3252199"><ele>684.0</ele><time>2026-04-11T08:22:27.34Z</time></trkpt><trkpt lat="42.9602603" lon="13.3252946"><ele>684.0</ele><time>2026-04-11T08:22:28.391Z</time></trkpt><trkpt lat="42.960185" lon="13.3254204"><ele>684.0</ele><time>2026-04-11T08:22:30.349Z</time></trkpt><trkpt lat="42.9601394" lon="13.3255506"><ele>684.2</ele><time>2026-04-11T08:22:32.336Z</time></trkpt><trkpt lat="42.9601197" lon="13.3256423"><ele>684.4000000000001</ele><time>2026-04-11T08:22:34.383Z</time></trkpt><trkpt lat="42.960132" lon="13.325766"><ele>684.6</ele><time>2026-04-11T08:22:36.342Z</time></trkpt><trkpt lat="42.9601419" lon="13.3259445"><ele>684.8</ele><time>2026-04-11T08:22:38.338Z</time></trkpt><trkpt lat="42.9601096" lon="13.3260727"><ele>685.0</ele><time>2026-04-11T08:22:39.319Z</time></trkpt><trkpt lat="42.9600559" lon="13.3262108"><ele>686.2</ele><time>2026-04-11T08:22:40.329Z</time></trkpt><trkpt lat="42.9600108" lon="13.3262991"><ele>687.4</ele><time>2026-04-11T08:22:41.339Z</time></trkpt><trkpt lat="42.9599418" lon="13.32646"><ele>688.5999999999999</ele><time>2026-04-11T08:22:43.34Z</time></trkpt><trkpt lat="42.9599127" lon="13.3265667"><ele>689.8</ele><time>2026-04-11T08:22:44.327Z</time></trkpt><trkpt lat="42.9598844" lon="13.3266722"><ele>691.0</ele><time>2026-04-11T08:22:45.37Z</time></trkpt><trkpt lat="42.9598622" lon="13.3267636"><ele>691.3333333333334</ele><time>2026-04-11T08:22:46.375Z</time></trkpt><trkpt lat="42.9598402" lon="13.32686"><ele>691.6666666666667</ele><time>2026-04-11T08:22:47.345Z</time></trkpt><trkpt lat="42.9598164" lon="13.3269499"><ele>692.0</ele><time>2026-04-11T08:22:48.351Z</time></trkpt><trkpt lat="42.959799" lon="13.3270386"><ele>692.3333333333334</ele><time>2026-04-11T08:22:49.346Z</time></trkpt><trkpt lat="42.9597824" lon="13.3271586"><ele>692.6666666666666</ele><time>2026-04-11T08:22:51.337Z</time></trkpt><trkpt lat="42.9597583" lon="13.3272744"><ele>693.0</ele><time>2026-04-11T08:22:53.33Z</time></trkpt><trkpt lat="42.9597449" lon="13.3273953"><ele>693.0</ele><time>2026-04-11T08:22:55.363Z</time></trkpt><trkpt lat="42.9597653" lon="13.3275635"><ele>693.0</ele><time>2026-04-11T08:22:57.351Z</time></trkpt><trkpt lat="42.9597853" lon="13.3276695"><ele>693.0</ele><time>2026-04-11T08:22:58.395Z</time></trkpt><trkpt lat="42.9597778" lon="13.3278129"><ele>693.0</ele><time>2026-04-11T08:22:59.352Z</time></trkpt><trkpt lat="42.9597607" lon="13.3279436"><ele>693.0</ele><time>2026-04-11T08:23:00.352Z</time></trkpt><trkpt lat="42.9597251" lon="13.3280876"><ele>691.8</ele><time>2026-04-11T08:23:01.339Z</time></trkpt><trkpt lat="42.9596927" lon="13.328228"><ele>690.5999999999999</ele><time>2026-04-11T08:23:02.353Z</time></trkpt><trkpt lat="42.9596592" lon="13.3283604"><ele>689.4000000000001</ele><time>2026-04-11T08:23:03.329Z</time></trkpt><trkpt lat="42.9596225" lon="13.3284851"><ele>688.2</ele><time>2026-04-11T08:23:04.351Z</time></trkpt><trkpt lat="42.9595643" lon="13.3286004"><ele>687.0</ele><time>2026-04-11T08:23:05.338Z</time></trkpt><trkpt lat="42.9595061" lon="13.3286784"><ele>687.0</ele><time>2026-04-11T08:23:06.363Z</time></trkpt><trkpt lat="42.9594138" lon="13.3287878"><ele>687.0</ele><time>2026-04-11T08:23:07.36Z</time></trkpt><trkpt lat="42.9593106" lon="13.3288654"><ele>687.0</ele><time>2026-04-11T08:23:08.32Z</time></trkpt><trkpt lat="42.9592285" lon="13.3289235"><ele>687.0</ele><time>2026-04-11T08:23:09.348Z</time></trkpt><trkpt lat="42.9591438" lon="13.3289899"><ele>687.0</ele><time>2026-04-11T08:23:10.346Z</time></trkpt><trkpt lat="42.9590577" lon="13.3290947"><ele>686.4000000000001</ele><time>2026-04-11T08:23:11.349Z</time></trkpt><trkpt lat="42.9589836" lon="13.3292072"><ele>685.8000000000001</ele><time>2026-04-11T08:23:12.346Z</time></trkpt><trkpt lat="42.9588978" lon="13.3293439"><ele>685.2</ele><time>2026-04-11T08:23:13.345Z</time></trkpt><trkpt lat="42.9588436" lon="13.3294366"><ele>684.6</ele><time>2026-04-11T08:23:14.351Z</time></trkpt><trkpt lat="42.9587961" lon="13.3295136"><ele>684.0</ele><time>2026-04-11T08:23:15.351Z</time></trkpt><trkpt lat="42.9587333" lon="13.3295509"><ele>684.0</ele><time>2026-04-11T08:23:16.344Z</time></trkpt><trkpt lat="42.9586533" lon="13.3296108"><ele>684.0</ele><time>2026-04-11T08:23:17.367Z</time></trkpt><trkpt lat="42.958552" lon="13.3296829"><ele>684.0</ele><time>2026-04-11T08:23:18.353Z</time></trkpt><trkpt lat="42.9584759" lon="13.3297461"><ele>684.0</ele><time>2026-04-11T08:23:19.35Z</time></trkpt><trkpt lat="42.958406" lon="13.3298057"><ele>684.0</ele><time>2026-04-11T08:23:20.357Z</time></trkpt><trkpt lat="42.9583151" lon="13.3298767"><ele>683.4000000000001</ele><time>2026-04-11T08:23:21.401Z</time></trkpt><trkpt lat="42.9582237" lon="13.3299449"><ele>682.8</ele><time>2026-04-11T08:23:22.368Z</time></trkpt><trkpt lat="42.9581224" lon="13.3299951"><ele>682.2</ele><time>2026-04-11T08:23:23.361Z</time></trkpt><trkpt lat="42.9580314" lon="13.3300529"><ele>681.5999999999999</ele><time>2026-04-11T08:23:24.336Z</time></trkpt><trkpt lat="42.9579501" lon="13.3301082"><ele>681.0</ele><time>2026-04-11T08:23:25.348Z</time></trkpt><trkpt lat="42.9578704" lon="13.330168"><ele>681.0</ele><time>2026-04-11T08:23:26.323Z</time></trkpt><trkpt lat="42.957803" lon="13.3302454"><ele>681.0</ele><time>2026-04-11T08:23:27.351Z</time></trkpt><trkpt lat="42.9577468" lon="13.3303237"><ele>681.0</ele><time>2026-04-11T08:23:28.365Z</time></trkpt><trkpt lat="42.9576802" lon="13.3303883"><ele>681.0</ele><time>2026-04-11T08:23:29.33Z</time></trkpt><trkpt lat="42.9575803" lon="13.3304181"><ele>681.0</ele><time>2026-04-11T08:23:30.355Z</time></trkpt><trkpt lat="42.9574721" lon="13.3304498"><ele>682.0</ele><time>2026-04-11T08:23:31.346Z</time></trkpt><trkpt lat="42.9573655" lon="13.330464"><ele>683.0</ele><time>2026-04-11T08:23:32.375Z</time></trkpt><trkpt lat="42.9572815" lon="13.3304689"><ele>684.0</ele><time>2026-04-11T08:23:33.416Z</time></trkpt><trkpt lat="42.9572016" lon="13.3304904"><ele>685.0</ele><time>2026-04-11T08:23:34.374Z</time></trkpt><trkpt lat="42.9571007" lon="13.3305159"><ele>686.0</ele><time>2026-04-11T08:23:36.342Z</time></trkpt><trkpt lat="42.956997" lon="13.3306078"><ele>686.0</ele><time>2026-04-11T08:23:38.338Z</time></trkpt><trkpt lat="42.9569324" lon="13.3307027"><ele>686.0</ele><time>2026-04-11T08:23:39.332Z</time></trkpt><trkpt lat="42.956861" lon="13.3307829"><ele>686.0</ele><time>2026-04-11T08:23:40.373Z</time></trkpt><trkpt lat="42.9567914" lon="13.3308407"><ele>686.0</ele><time>2026-04-11T08:23:41.362Z</time></trkpt><trkpt lat="42.9567216" lon="13.3308991"><ele>686.0</ele><time>2026-04-11T08:23:42.336Z</time></trkpt><trkpt lat="42.9566307" lon="13.330957"><ele>686.4</ele><time>2026-04-11T08:23:43.347Z</time></trkpt><trkpt lat="42.9565421" lon="13.3310005"><ele>686.8</ele><time>2026-04-11T08:23:44.321Z</time></trkpt><trkpt lat="42.9564549" lon="13.3310438"><ele>687.1999999999999</ele><time>2026-04-11T08:23:45.389Z</time></trkpt><trkpt lat="42.9563667" lon="13.3310909"><ele>687.5999999999999</ele><time>2026-04-11T08:23:46.357Z</time></trkpt><trkpt lat="42.9562756" lon="13.3311343"><ele>688.0</ele><time>2026-04-11T08:23:47.382Z</time></trkpt><trkpt lat="42.9561993" lon="13.3311805"><ele>688.0</ele><time>2026-04-11T08:23:48.366Z</time></trkpt><trkpt lat="42.9561383" lon="13.3312096"><ele>688.0</ele><time>2026-04-11T08:23:49.326Z</time></trkpt><trkpt lat="42.956054" lon="13.331233"><ele>688.0</ele><time>2026-04-11T08:23:51.356Z</time></trkpt><trkpt lat="42.9559542" lon="13.331213"><ele>688.0</ele><time>2026-04-11T08:23:53.373Z</time></trkpt><trkpt lat="42.9558983" lon="13.3311596"><ele>688.0</ele><time>2026-04-11T08:23:54.312Z</time></trkpt><trkpt lat="42.95586" lon="13.3310904"><ele>688.0</ele><time>2026-04-11T08:23:55.382Z</time></trkpt><trkpt lat="42.9558096" lon="13.330955"><ele>691.4</ele><time>2026-04-11T08:23:57.369Z</time></trkpt><trkpt lat="42.9557291" lon="13.3308994"><ele>694.8</ele><time>2026-04-11T08:23:59.312Z</time></trkpt><trkpt lat="42.9555877" lon="13.3308732"><ele>698.2</ele><time>2026-04-11T08:24:01.37Z</time></trkpt><trkpt lat="42.9554962" lon="13.3308571"><ele>701.6</ele><time>2026-04-11T08:24:02.348Z</time></trkpt><trkpt lat="42.9554189" lon="13.3308306"><ele>705.0</ele><time>2026-04-11T08:24:03.365Z</time></trkpt><trkpt lat="42.9553519" lon="13.3308021"><ele>705.0</ele><time>2026-04-11T08:24:04.355Z</time></trkpt><trkpt lat="42.9552819" lon="13.3307784"><ele>705.0</ele><time>2026-04-11T08:24:05.334Z</time></trkpt><trkpt lat="42.9552166" lon="13.330744"><ele>705.0</ele><time>2026-04-11T08:24:06.353Z</time></trkpt><trkpt lat="42.9551549" lon="13.3307074"><ele>705.0</ele><time>2026-04-11T08:24:07.361Z</time></trkpt><trkpt lat="42.9550737" lon="13.3306245"><ele>705.0</ele><time>2026-04-11T08:24:09.354Z</time></trkpt><trkpt lat="42.9549905" lon="13.330492"><ele>705.0</ele><time>2026-04-11T08:24:11.348Z</time></trkpt><trkpt lat="42.9549242" lon="13.330361"><ele>703.6666666666666</ele><time>2026-04-11T08:24:13.324Z</time></trkpt><trkpt lat="42.9549057" lon="13.3301808"><ele>702.3333333333334</ele><time>2026-04-11T08:24:15.367Z</time></trkpt><trkpt lat="42.9548997" lon="13.3300596"><ele>701.0</ele><time>2026-04-11T08:24:16.334Z</time></trkpt><trkpt lat="42.9548783" lon="13.3299606"><ele>699.6666666666667</ele><time>2026-04-11T08:24:17.345Z</time></trkpt><trkpt lat="42.9548551" lon="13.3298732"><ele>698.3333333333334</ele><time>2026-04-11T08:24:18.331Z</time></trkpt><trkpt lat="42.9548349" lon="13.3297856"><ele>697.0</ele><time>2026-04-11T08:24:19.345Z</time></trkpt><trkpt lat="42.9547848" lon="13.3296869"><ele>693.6666666666667</ele><time>2026-04-11T08:24:20.346Z</time></trkpt><trkpt lat="42.9547305" lon="13.329607"><ele>690.3333333333334</ele><time>2026-04-11T08:24:21.365Z</time></trkpt><trkpt lat="42.9546762" lon="13.3295375"><ele>687.0</ele><time>2026-04-11T08:24:22.362Z</time></trkpt><trkpt lat="42.954628" lon="13.3294662"><ele>683.6666666666666</ele><time>2026-04-11T08:24:23.332Z</time></trkpt><trkpt lat="42.9545734" lon="13.3293355"><ele>680.3333333333333</ele><time>2026-04-11T08:24:25.337Z</time></trkpt><trkpt lat="42.9545623" lon="13.3292114"><ele>677.0</ele><time>2026-04-11T08:24:27.33Z</time></trkpt><trkpt lat="42.9544967" lon="13.329121"><ele>677.0</ele><time>2026-04-11T08:24:29.4Z</time></trkpt><trkpt lat="42.9544096" lon="13.3290737"><ele>677.0</ele><time>2026-04-11T08:24:31.318Z</time></trkpt><trkpt lat="42.9543245" lon="13.3290905"><ele>677.0</ele><time>2026-04-11T08:24:33.361Z</time></trkpt><trkpt lat="42.9542729" lon="13.3292473"><ele>677.0</ele><time>2026-04-11T08:24:35.371Z</time></trkpt><trkpt lat="42.9542697" lon="13.3294193"><ele>677.0</ele><time>2026-04-11T08:24:37.364Z</time></trkpt><trkpt lat="42.9542877" lon="13.3295288"><ele>677.0</ele><time>2026-04-11T08:24:38.363Z</time></trkpt><trkpt lat="42.9542984" lon="13.3296299"><ele>677.0</ele><time>2026-04-11T08:24:39.356Z</time></trkpt><trkpt lat="42.9542917" lon="13.3297409"><ele>677.0</ele><time>2026-04-11T08:24:40.363Z</time></trkpt><trkpt lat="42.9542616" lon="13.3298498"><ele>677.0</ele><time>2026-04-11T08:24:41.344Z</time></trkpt><trkpt lat="42.9542144" lon="13.3299732"><ele>677.0</ele><time>2026-04-11T08:24:42.335Z</time></trkpt><trkpt lat="42.9541548" lon="13.3300757"><ele>677.0</ele><time>2026-04-11T08:24:43.332Z</time></trkpt><trkpt lat="42.9540949" lon="13.3301768"><ele>680.8</ele><time>2026-04-11T08:24:44.352Z</time></trkpt><trkpt lat="42.9540121" lon="13.3302519"><ele>684.6</ele><time>2026-04-11T08:24:45.335Z</time></trkpt><trkpt lat="42.953908" lon="13.3302899"><ele>688.4</ele><time>2026-04-11T08:24:46.357Z</time></trkpt><trkpt lat="42.9538102" lon="13.3303162"><ele>692.1999999999999</ele><time>2026-04-11T08:24:47.357Z</time></trkpt><trkpt lat="42.9537249" lon="13.3303249"><ele>696.0</ele><time>2026-04-11T08:24:49.347Z</time></trkpt><trkpt lat="42.9536218" lon="13.3303176"><ele>696.0</ele><time>2026-04-11T08:25:03.345Z</time></trkpt><trkpt lat="42.9535425" lon="13.3302783"><ele>696.0</ele><time>2026-04-11T08:28:25.343Z</time></trkpt><trkpt lat="42.9534802" lon="13.3302412"><ele>696.0</ele><time>2026-04-11T08:28:28.34Z</time></trkpt><trkpt lat="42.9534278" lon="13.3301852"><ele>696.0</ele><time>2026-04-11T08:28:31.337Z</time></trkpt><trkpt lat="42.9533775" lon="13.3301287"><ele>696.0</ele><time>2026-04-11T08:28:33.318Z</time></trkpt><trkpt lat="42.9532921" lon="13.3300699"><ele>696.0</ele><time>2026-04-11T08:28:36.321Z</time></trkpt><trkpt lat="42.9532128" lon="13.330062"><ele>692.5</ele><time>2026-04-11T08:28:39.326Z</time></trkpt><trkpt lat="42.9531485" lon="13.3299953"><ele>689.0</ele><time>2026-04-11T08:28:43.353Z</time></trkpt><trkpt lat="42.9530844" lon="13.3299358"><ele>685.5</ele><time>2026-04-11T08:28:45.314Z</time></trkpt><trkpt lat="42.953003" lon="13.3298953"><ele>682.0</ele><time>2026-04-11T08:28:47.35Z</time></trkpt><trkpt lat="42.9529192" lon="13.329827"><ele>678.5</ele><time>2026-04-11T08:28:49.365Z</time></trkpt><trkpt lat="42.9528771" lon="13.3297596"><ele>675.0</ele><time>2026-04-11T08:28:51.344Z</time></trkpt><trkpt lat="42.9528349" lon="13.3296884"><ele>672.3333333333334</ele><time>2026-04-11T08:29:19.343Z</time></trkpt><trkpt lat="42.9527992" lon="13.3295822"><ele>669.6666666666666</ele><time>2026-04-11T08:29:26.389Z</time></trkpt><trkpt lat="42.9527489" lon="13.3295138"><ele>667.0</ele><time>2026-04-11T08:29:29.349Z</time></trkpt><trkpt lat="42.9526788" lon="13.3294554"><ele>664.3333333333333</ele><time>2026-04-11T08:29:32.353Z</time></trkpt><trkpt lat="42.9526226" lon="13.3294025"><ele>661.6666666666666</ele><time>2026-04-11T08:29:35.325Z</time></trkpt><trkpt lat="42.9525723" lon="13.3293446"><ele>659.0</ele><time>2026-04-11T08:29:38.371Z</time></trkpt><trkpt lat="42.9525174" lon="13.3292698"><ele>659.0</ele><time>2026-04-11T08:29:40.341Z</time></trkpt><trkpt lat="42.9524498" lon="13.3291642"><ele>659.0</ele><time>2026-04-11T08:29:42.351Z</time></trkpt><trkpt lat="42.952406" lon="13.3290865"><ele>659.0</ele><time>2026-04-11T08:29:43.365Z</time></trkpt><trkpt lat="42.9523649" lon="13.3289931"><ele>659.0</ele><time>2026-04-11T08:29:44.352Z</time></trkpt><trkpt lat="42.9523302" lon="13.328895"><ele>659.0</ele><time>2026-04-11T08:29:45.352Z</time></trkpt><trkpt lat="42.9522974" lon="13.3288018"><ele>659.0</ele><time>2026-04-11T08:29:46.32Z</time></trkpt><trkpt lat="42.952259" lon="13.3287017"><ele>656.5</ele><time>2026-04-11T08:29:47.324Z</time></trkpt><trkpt lat="42.9522182" lon="13.3286294"><ele>654.0</ele><time>2026-04-11T08:29:48.357Z</time></trkpt><trkpt lat="42.9521736" lon="13.3285575"><ele>651.5</ele><time>2026-04-11T08:29:49.342Z</time></trkpt><trkpt lat="42.9521329" lon="13.3284875"><ele>649.0</ele><time>2026-04-11T08:29:50.337Z</time></trkpt><trkpt lat="42.9520675" lon="13.3283668"><ele>646.5</ele><time>2026-04-11T08:29:52.33Z</time></trkpt><trkpt lat="42.9520439" lon="13.3282668"><ele>644.0</ele><time>2026-04-11T08:29:54.397Z</time></trkpt><trkpt lat="42.9520477" lon="13.3281731"><ele>644.0</ele><time>2026-04-11T08:29:56.303Z</time></trkpt><trkpt lat="42.9520483" lon="13.3280685"><ele>644.0</ele><time>2026-04-11T08:29:58.334Z</time></trkpt><trkpt lat="42.9520603" lon="13.3279702"><ele>644.0</ele><time>2026-04-11T08:30:00.352Z</time></trkpt><trkpt lat="42.9520986" lon="13.3278832"><ele>644.0</ele><time>2026-04-11T08:30:03.357Z</time></trkpt><trkpt lat="42.9521516" lon="13.327796"><ele>644.0</ele><time>2026-04-11T08:30:06.307Z</time></trkpt><trkpt lat="42.9521825" lon="13.3276915"><ele>644.0</ele><time>2026-04-11T08:30:09.363Z</time></trkpt><trkpt lat="42.9521971" lon="13.3275958"><ele>641.3333333333333</ele><time>2026-04-11T08:30:11.315Z</time></trkpt><trkpt lat="42.9521949" lon="13.3275043"><ele>638.6666666666666</ele><time>2026-04-11T08:30:13.353Z</time></trkpt><trkpt lat="42.9521852" lon="13.3274103"><ele>636.0</ele><time>2026-04-11T08:30:15.354Z</time></trkpt><trkpt lat="42.9521558" lon="13.327313"><ele>633.3333333333334</ele><time>2026-04-11T08:30:18.347Z</time></trkpt><trkpt lat="42.9521429" lon="13.3271953"><ele>630.6666666666667</ele><time>2026-04-11T08:30:21.316Z</time></trkpt><trkpt lat="42.9521574" lon="13.3270874"><ele>628.0</ele><time>2026-04-11T08:30:25.349Z</time></trkpt><trkpt lat="42.9521796" lon="13.3269856"><ele>625.3333333333334</ele><time>2026-04-11T08:30:28.352Z</time></trkpt><trkpt lat="42.9522048" lon="13.3269003"><ele>622.6666666666667</ele><time>2026-04-11T08:30:30.339Z</time></trkpt><trkpt lat="42.9522484" lon="13.3268267"><ele>620.0</ele><time>2026-04-11T08:30:33.341Z</time></trkpt><trkpt lat="42.9523143" lon="13.3267914"><ele>617.3333333333334</ele><time>2026-04-11T08:30:36.327Z</time></trkpt><trkpt lat="42.952378" lon="13.3268519"><ele>614.6666666666666</ele><time>2026-04-11T08:30:39.327Z</time></trkpt><trkpt lat="42.9524265" lon="13.3269279"><ele>612.0</ele><time>2026-04-11T08:30:41.312Z</time></trkpt><trkpt lat="42.9524857" lon="13.3270399"><ele>612.0</ele><time>2026-04-11T08:30:43.341Z</time></trkpt><trkpt lat="42.9525395" lon="13.3271662"><ele>612.0</ele><time>2026-04-11T08:30:45.338Z</time></trkpt><trkpt lat="42.9526028" lon="13.32729"><ele>612.0</ele><time>2026-04-11T08:30:47.34Z</time></trkpt><trkpt lat="42.9526578" lon="13.3273862"><ele>612.0</ele><time>2026-04-11T08:30:49.346Z</time></trkpt><trkpt lat="42.9527013" lon="13.3274709"><ele>612.0</ele><time>2026-04-11T08:30:51.318Z</time></trkpt><trkpt lat="42.9527647" lon="13.32755"><ele>612.0</ele><time>2026-04-11T08:31:00.334Z</time></trkpt><trkpt lat="42.9528157" lon="13.327649"><ele>612.0</ele><time>2026-04-11T08:31:32.336Z</time></trkpt><trkpt lat="42.9528714" lon="13.3275994"><ele>612.0</ele><time>2026-04-11T08:31:54.327Z</time></trkpt><trkpt lat="42.9528853" lon="13.3275089"><ele>612.0</ele><time>2026-04-11T08:31:57.34Z</time></trkpt><trkpt lat="42.9529152" lon="13.3274303"><ele>612.0</ele><time>2026-04-11T08:31:59.351Z</time></trkpt><trkpt lat="42.9529601" lon="13.3273429"><ele>612.0</ele><time>2026-04-11T08:32:01.36Z</time></trkpt><trkpt lat="42.952999" lon="13.3272665"><ele>612.0</ele><time>2026-04-11T08:32:03.37Z</time></trkpt><trkpt lat="42.9530167" lon="13.3271708"><ele>612.0</ele><time>2026-04-11T08:32:05.334Z</time></trkpt><trkpt lat="42.9530155" lon="13.3270614"><ele>612.0</ele><time>2026-04-11T08:32:07.372Z</time></trkpt><trkpt lat="42.9529977" lon="13.3269384"><ele>612.0</ele><time>2026-04-11T08:32:09.338Z</time></trkpt><trkpt lat="42.9529726" lon="13.3267781"><ele>612.0</ele><time>2026-04-11T08:32:11.343Z</time></trkpt><trkpt lat="42.9529533" lon="13.3266956"><ele>612.0</ele><time>2026-04-11T08:32:12.357Z</time></trkpt><trkpt lat="42.9529165" lon="13.3265468"><ele>612.0</ele><time>2026-04-11T08:32:14.351Z</time></trkpt><trkpt lat="42.9528872" lon="13.3264218"><ele>612.0</ele><time>2026-04-11T08:32:16.388Z</time></trkpt><trkpt lat="42.9528703" lon="13.3263077"><ele>612.0</ele><time>2026-04-11T08:32:18.379Z</time></trkpt><trkpt lat="42.9528609" lon="13.3261974"><ele>612.0</ele><time>2026-04-11T08:32:20.362Z</time></trkpt><trkpt lat="42.952861" lon="13.3261051"><ele>612.0</ele><time>2026-04-11T08:32:22.31Z</time></trkpt><trkpt lat="42.9528612" lon="13.3260127"><ele>612.0</ele><time>2026-04-11T08:32:24.347Z</time></trkpt><trkpt lat="42.9528699" lon="13.3259222"><ele>610.0</ele><time>2026-04-11T08:32:26.349Z</time></trkpt><trkpt lat="42.9528539" lon="13.3258027"><ele>608.0</ele><time>2026-04-11T08:32:29.358Z</time></trkpt><trkpt lat="42.9528104" lon="13.3257313"><ele>606.0</ele><time>2026-04-11T08:32:32.344Z</time></trkpt><trkpt lat="42.9527743" lon="13.325651"><ele>604.0</ele><time>2026-04-11T08:32:35.344Z</time></trkpt><trkpt lat="42.9527254" lon="13.3255709"><ele>602.0</ele><time>2026-04-11T08:32:38.352Z</time></trkpt><trkpt lat="42.9526812" lon="13.3254688"><ele>600.0</ele><time>2026-04-11T08:32:41.366Z</time></trkpt><trkpt lat="42.9526698" lon="13.3253691"><ele>599.3333333333334</ele><time>2026-04-11T08:32:43.411Z</time></trkpt><trkpt lat="42.9526625" lon="13.3252665"><ele>598.6666666666666</ele><time>2026-04-11T08:32:45.346Z</time></trkpt><trkpt lat="42.9526651" lon="13.3251769"><ele>598.0</ele><time>2026-04-11T08:32:47.368Z</time></trkpt><trkpt lat="42.9526808" lon="13.325066"><ele>597.3333333333333</ele><time>2026-04-11T08:32:49.348Z</time></trkpt><trkpt lat="42.9526984" lon="13.3249644"><ele>596.6666666666666</ele><time>2026-04-11T08:32:51.348Z</time></trkpt><trkpt lat="42.952707" lon="13.3248549"><ele>596.0</ele><time>2026-04-11T08:32:53.355Z</time></trkpt><trkpt lat="42.9526927" lon="13.324722"><ele>593.4</ele><time>2026-04-11T08:32:55.365Z</time></trkpt><trkpt lat="42.9526572" lon="13.3245908"><ele>590.8</ele><time>2026-04-11T08:32:57.328Z</time></trkpt><trkpt lat="42.9525895" lon="13.3244632"><ele>588.1999999999999</ele><time>2026-04-11T08:32:59.338Z</time></trkpt><trkpt lat="42.9525001" lon="13.3243737"><ele>585.6</ele><time>2026-04-11T08:33:01.332Z</time></trkpt><trkpt lat="42.9524192" lon="13.3243083"><ele>583.0</ele><time>2026-04-11T08:33:03.338Z</time></trkpt><trkpt lat="42.9523485" lon="13.3241871"><ele>583.0</ele><time>2026-04-11T08:33:05.388Z</time></trkpt><trkpt lat="42.9522685" lon="13.3240874"><ele>583.0</ele><time>2026-04-11T08:33:07.327Z</time></trkpt><trkpt lat="42.9521852" lon="13.3240138"><ele>583.0</ele><time>2026-04-11T08:33:09.351Z</time></trkpt><trkpt lat="42.952122" lon="13.3239223"><ele>583.0</ele><time>2026-04-11T08:33:11.355Z</time></trkpt><trkpt lat="42.9520504" lon="13.3238222"><ele>583.0</ele><time>2026-04-11T08:33:13.338Z</time></trkpt><trkpt lat="42.9519891" lon="13.3237472"><ele>582.1666666666667</ele><time>2026-04-11T08:33:15.332Z</time></trkpt><trkpt lat="42.9519759" lon="13.3236347"><ele>581.3333333333334</ele><time>2026-04-11T08:33:18.335Z</time></trkpt><trkpt lat="42.9520456" lon="13.3235609"><ele>580.5</ele><time>2026-04-11T08:33:21.342Z</time></trkpt><trkpt lat="42.9521133" lon="13.3234911"><ele>579.6666666666666</ele><time>2026-04-11T08:33:23.353Z</time></trkpt><trkpt lat="42.952188" lon="13.3233778"><ele>578.8333333333333</ele><time>2026-04-11T08:33:25.317Z</time></trkpt><trkpt lat="42.9522295" lon="13.3233126"><ele>578.0</ele><time>2026-04-11T08:33:26.337Z</time></trkpt><trkpt lat="42.9522747" lon="13.3232453"><ele>578.0</ele><time>2026-04-11T08:33:27.316Z</time></trkpt><trkpt lat="42.952318" lon="13.323181"><ele>578.0</ele><time>2026-04-11T08:33:28.354Z</time></trkpt><trkpt lat="42.9523739" lon="13.3230616"><ele>578.0</ele><time>2026-04-11T08:33:30.337Z</time></trkpt><trkpt lat="42.9523703" lon="13.3228993"><ele>578.0</ele><time>2026-04-11T08:33:32.329Z</time></trkpt><trkpt lat="42.9523859" lon="13.3227362"><ele>578.0</ele><time>2026-04-11T08:33:34.333Z</time></trkpt><trkpt lat="42.9523872" lon="13.3225962"><ele>575.6</ele><time>2026-04-11T08:33:36.338Z</time></trkpt><trkpt lat="42.9523872" lon="13.322489"><ele>573.1999999999999</ele><time>2026-04-11T08:33:38.344Z</time></trkpt><trkpt lat="42.9524105" lon="13.3223781"><ele>570.8</ele><time>2026-04-11T08:33:40.334Z</time></trkpt><trkpt lat="42.9524373" lon="13.3222937"><ele>568.4</ele><time>2026-04-11T08:33:42.318Z</time></trkpt><trkpt lat="42.9524629" lon="13.3221789"><ele>566.0</ele><time>2026-04-11T08:33:51.351Z</time></trkpt><trkpt lat="42.9525189" lon="13.321974"><ele>566.5</ele><time>2026-04-11T08:33:53.349Z</time></trkpt><trkpt lat="42.9525638" lon="13.3218323"><ele>567.0</ele><time>2026-04-11T08:33:54.333Z</time></trkpt><trkpt lat="42.9526226" lon="13.3216447"><ele>567.5</ele><time>2026-04-11T08:33:55.319Z</time></trkpt><trkpt lat="42.9526806" lon="13.3214591"><ele>568.0</ele><time>2026-04-11T08:33:56.332Z</time></trkpt><trkpt lat="42.9527424" lon="13.3212584"><ele>568.0</ele><time>2026-04-11T08:33:57.327Z</time></trkpt><trkpt lat="42.9528054" lon="13.3210313"><ele>568.0</ele><time>2026-04-11T08:33:58.332Z</time></trkpt><trkpt lat="42.9528641" lon="13.3208022"><ele>568.0</ele><time>2026-04-11T08:33:59.338Z</time></trkpt><trkpt lat="42.952923" lon="13.3205707"><ele>568.0</ele><time>2026-04-11T08:34:00.353Z</time></trkpt><trkpt lat="42.9529769" lon="13.3203531"><ele>568.0</ele><time>2026-04-11T08:34:01.367Z</time></trkpt><trkpt lat="42.9530303" lon="13.3201433"><ele>568.0</ele><time>2026-04-11T08:34:02.321Z</time></trkpt><trkpt lat="42.9530782" lon="13.3199266"><ele>568.3333333333334</ele><time>2026-04-11T08:34:03.36Z</time></trkpt><trkpt lat="42.9531068" lon="13.3196875"><ele>568.6666666666666</ele><time>2026-04-11T08:34:04.343Z</time></trkpt><trkpt lat="42.9531179" lon="13.3194682"><ele>569.0</ele><time>2026-04-11T08:34:05.32Z</time></trkpt><trkpt lat="42.9531303" lon="13.3192709"><ele>569.0</ele><time>2026-04-11T08:34:06.356Z</time></trkpt><trkpt lat="42.9531593" lon="13.3190663"><ele>569.0</ele><time>2026-04-11T08:34:07.315Z</time></trkpt><trkpt lat="42.9531932" lon="13.3188486"><ele>569.0</ele><time>2026-04-11T08:34:08.34Z</time></trkpt><trkpt lat="42.9532572" lon="13.3186152"><ele>570.0</ele><time>2026-04-11T08:34:09.334Z</time></trkpt><trkpt lat="42.9533456" lon="13.3183946"><ele>571.0</ele><time>2026-04-11T08:34:10.335Z</time></trkpt><trkpt lat="42.9534247" lon="13.3181938"><ele>572.0</ele><time>2026-04-11T08:34:11.333Z</time></trkpt><trkpt lat="42.9535133" lon="13.3180044"><ele>582.6666666666666</ele><time>2026-04-11T08:34:12.316Z</time></trkpt><trkpt lat="42.953575" lon="13.3178023"><ele>593.3333333333334</ele><time>2026-04-11T08:34:13.338Z</time></trkpt><trkpt lat="42.9536145" lon="13.3175853"><ele>604.0</ele><time>2026-04-11T08:34:14.352Z</time></trkpt><trkpt lat="42.9536554" lon="13.3173728"><ele>606.6666666666667</ele><time>2026-04-11T08:34:15.342Z</time></trkpt><trkpt lat="42.953657" lon="13.3171631"><ele>609.3333333333334</ele><time>2026-04-11T08:34:16.338Z</time></trkpt><trkpt lat="42.9536343" lon="13.3169505"><ele>612.0</ele><time>2026-04-11T08:34:17.315Z</time></trkpt><trkpt lat="42.953601" lon="13.3167281"><ele>612.0</ele><time>2026-04-11T08:34:18.367Z</time></trkpt><trkpt lat="42.9535643" lon="13.316492"><ele>612.0</ele><time>2026-04-11T08:34:19.341Z</time></trkpt><trkpt lat="42.9535294" lon="13.3162746"><ele>612.0</ele><time>2026-04-11T08:34:20.371Z</time></trkpt><trkpt lat="42.9535001" lon="13.3160683"><ele>613.25</ele><time>2026-04-11T08:34:21.354Z</time></trkpt><trkpt lat="42.9534714" lon="13.3158661"><ele>614.5</ele><time>2026-04-11T08:34:22.316Z</time></trkpt><trkpt lat="42.9534387" lon="13.3156644"><ele>615.75</ele><time>2026-04-11T08:34:23.321Z</time></trkpt><trkpt lat="42.95341" lon="13.31547"><ele>617.0</ele><time>2026-04-11T08:34:24.363Z</time></trkpt><trkpt lat="42.953394" lon="13.3152747"><ele>617.0</ele><time>2026-04-11T08:34:25.333Z</time></trkpt><trkpt lat="42.9533957" lon="13.3150779"><ele>617.0</ele><time>2026-04-11T08:34:26.371Z</time></trkpt><trkpt lat="42.9534043" lon="13.3148854"><ele>617.0</ele><time>2026-04-11T08:34:27.34Z</time></trkpt><trkpt lat="42.9534003" lon="13.3146997"><ele>617.0</ele><time>2026-04-11T08:34:28.361Z</time></trkpt><trkpt lat="42.9533744" lon="13.3145084"><ele>609.6666666666666</ele><time>2026-04-11T08:34:29.372Z</time></trkpt><trkpt lat="42.9533431" lon="13.3143032"><ele>602.3333333333334</ele><time>2026-04-11T08:34:30.348Z</time></trkpt><trkpt lat="42.9532824" lon="13.3140904"><ele>595.0</ele><time>2026-04-11T08:34:31.353Z</time></trkpt><trkpt lat="42.9532219" lon="13.313899"><ele>595.0</ele><time>2026-04-11T08:34:32.323Z</time></trkpt><trkpt lat="42.9531622" lon="13.3137342"><ele>595.0</ele><time>2026-04-11T08:34:33.349Z</time></trkpt><trkpt lat="42.953107" lon="13.3135812"><ele>595.0</ele><time>2026-04-11T08:34:34.344Z</time></trkpt><trkpt lat="42.9530513" lon="13.3134565"><ele>595.0</ele><time>2026-04-11T08:34:35.337Z</time></trkpt><trkpt lat="42.9530112" lon="13.3133443"><ele>595.0</ele><time>2026-04-11T08:34:36.344Z</time></trkpt><trkpt lat="42.9529734" lon="13.313241"><ele>595.0</ele><time>2026-04-11T08:34:37.31Z</time></trkpt><trkpt lat="42.9529374" lon="13.3131457"><ele>595.0</ele><time>2026-04-11T08:34:38.371Z</time></trkpt><trkpt lat="42.9529042" lon="13.3130587"><ele>595.0</ele><time>2026-04-11T08:34:39.325Z</time></trkpt><trkpt lat="42.9528703" lon="13.3129782"><ele>595.0</ele><time>2026-04-11T08:34:40.367Z</time></trkpt><trkpt lat="42.952811" lon="13.3128308"><ele>595.0</ele><time>2026-04-11T08:34:42.312Z</time></trkpt><trkpt lat="42.9527787" lon="13.3127443"><ele>596.3333333333334</ele><time>2026-04-11T08:34:43.363Z</time></trkpt><trkpt lat="42.952754" lon="13.3126526"><ele>597.6666666666667</ele><time>2026-04-11T08:34:44.345Z</time></trkpt><trkpt lat="42.952728" lon="13.31256"><ele>599.0</ele><time>2026-04-11T08:34:45.321Z</time></trkpt><trkpt lat="42.9527292" lon="13.3124547"><ele>600.3333333333334</ele><time>2026-04-11T08:34:46.353Z</time></trkpt><trkpt lat="42.9527322" lon="13.3123448"><ele>601.6666666666666</ele><time>2026-04-11T08:34:47.362Z</time></trkpt><trkpt lat="42.9527487" lon="13.3121961"><ele>603.0</ele><time>2026-04-11T08:34:48.351Z</time></trkpt><trkpt lat="42.9527783" lon="13.3120189"><ele>603.4</ele><time>2026-04-11T08:34:49.357Z</time></trkpt><trkpt lat="42.9528055" lon="13.3118979"><ele>603.8</ele><time>2026-04-11T08:34:50.35Z</time></trkpt><trkpt lat="42.9528602" lon="13.3117654"><ele>604.2</ele><time>2026-04-11T08:34:51.357Z</time></trkpt><trkpt lat="42.9529457" lon="13.3116486"><ele>604.6</ele><time>2026-04-11T08:34:52.336Z</time></trkpt><trkpt lat="42.9530227" lon="13.3115411"><ele>605.0</ele><time>2026-04-11T08:34:53.328Z</time></trkpt><trkpt lat="42.9530866" lon="13.3114319"><ele>604.25</ele><time>2026-04-11T08:34:54.35Z</time></trkpt><trkpt lat="42.9531412" lon="13.311287"><ele>603.5</ele><time>2026-04-11T08:34:55.35Z</time></trkpt><trkpt lat="42.9531926" lon="13.3111267"><ele>602.75</ele><time>2026-04-11T08:34:56.311Z</time></trkpt><trkpt lat="42.9532083" lon="13.3109593"><ele>602.0</ele><time>2026-04-11T08:34:57.344Z</time></trkpt><trkpt lat="42.9532129" lon="13.310796"><ele>602.0</ele><time>2026-04-11T08:34:58.356Z</time></trkpt><trkpt lat="42.9531997" lon="13.3106251"><ele>602.0</ele><time>2026-04-11T08:34:59.35Z</time></trkpt><trkpt lat="42.9531633" lon="13.3104589"><ele>602.0</ele><time>2026-04-11T08:35:00.347Z</time></trkpt><trkpt lat="42.9530885" lon="13.3102837"><ele>602.0</ele><time>2026-04-11T08:35:01.34Z</time></trkpt><trkpt lat="42.9530037" lon="13.3100934"><ele>610.0</ele><time>2026-04-11T08:35:02.355Z</time></trkpt><trkpt lat="42.9528785" lon="13.3098989"><ele>618.0</ele><time>2026-04-11T08:35:03.333Z</time></trkpt><trkpt lat="42.9527436" lon="13.3096644"><ele>626.0</ele><time>2026-04-11T08:35:04.335Z</time></trkpt><trkpt lat="42.9526307" lon="13.3094697"><ele>620.6666666666666</ele><time>2026-04-11T08:35:05.344Z</time></trkpt><trkpt lat="42.9525202" lon="13.3092826"><ele>615.3333333333334</ele><time>2026-04-11T08:35:06.394Z</time></trkpt><trkpt lat="42.9524162" lon="13.3091093"><ele>610.0</ele><time>2026-04-11T08:35:07.34Z</time></trkpt><trkpt lat="42.9523429" lon="13.3089322"><ele>617.0</ele><time>2026-04-11T08:35:08.358Z</time></trkpt><trkpt lat="42.9522702" lon="13.3087489"><ele>624.0</ele><time>2026-04-11T08:35:09.347Z</time></trkpt><trkpt lat="42.9522238" lon="13.3085395"><ele>631.0</ele><time>2026-04-11T08:35:10.367Z</time></trkpt><trkpt lat="42.9521663" lon="13.3082969"><ele>632.3333333333334</ele><time>2026-04-11T08:35:11.344Z</time></trkpt><trkpt lat="42.9521522" lon="13.3080026"><ele>633.6666666666666</ele><time>2026-04-11T08:35:12.337Z</time></trkpt><trkpt lat="42.9521391" lon="13.3077315"><ele>635.0</ele><time>2026-04-11T08:35:13.313Z</time></trkpt><trkpt lat="42.9521175" lon="13.3074627"><ele>632.6666666666666</ele><time>2026-04-11T08:35:14.33Z</time></trkpt><trkpt lat="42.9520861" lon="13.3071869"><ele>630.3333333333334</ele><time>2026-04-11T08:35:15.333Z</time></trkpt><trkpt lat="42.9520613" lon="13.30693"><ele>628.0</ele><time>2026-04-11T08:35:16.335Z</time></trkpt><trkpt lat="42.9520247" lon="13.3066904"><ele>628.0</ele><time>2026-04-11T08:35:17.359Z</time></trkpt><trkpt lat="42.9519786" lon="13.3064602"><ele>628.0</ele><time>2026-04-11T08:35:18.377Z</time></trkpt><trkpt lat="42.9519148" lon="13.306232"><ele>628.0</ele><time>2026-04-11T08:35:19.35Z</time></trkpt><trkpt lat="42.9518508" lon="13.306028"><ele>629.5</ele><time>2026-04-11T08:35:20.35Z</time></trkpt><trkpt lat="42.951797" lon="13.3058458"><ele>631.0</ele><time>2026-04-11T08:35:21.351Z</time></trkpt><trkpt lat="42.9517568" lon="13.305658"><ele>632.5</ele><time>2026-04-11T08:35:22.347Z</time></trkpt><trkpt lat="42.951729" lon="13.3054648"><ele>634.0</ele><time>2026-04-11T08:35:23.371Z</time></trkpt><trkpt lat="42.9517167" lon="13.3052555"><ele>642.3333333333334</ele><time>2026-04-11T08:35:24.347Z</time></trkpt><trkpt lat="42.9517231" lon="13.3050244"><ele>650.6666666666666</ele><time>2026-04-11T08:35:25.362Z</time></trkpt><trkpt lat="42.9517382" lon="13.3047754"><ele>659.0</ele><time>2026-04-11T08:35:26.351Z</time></trkpt><trkpt lat="42.9517546" lon="13.3045126"><ele>659.0</ele><time>2026-04-11T08:35:27.355Z</time></trkpt><trkpt lat="42.9517737" lon="13.3042396"><ele>659.0</ele><time>2026-04-11T08:35:28.34Z</time></trkpt><trkpt lat="42.9517853" lon="13.3039802"><ele>659.0</ele><time>2026-04-11T08:35:29.301Z</time></trkpt><trkpt lat="42.9517935" lon="13.3037433"><ele>651.0</ele><time>2026-04-11T08:35:30.337Z</time></trkpt><trkpt lat="42.951776" lon="13.3035156"><ele>643.0</ele><time>2026-04-11T08:35:31.356Z</time></trkpt><trkpt lat="42.9517264" lon="13.3032639"><ele>635.0</ele><time>2026-04-11T08:35:32.346Z</time></trkpt><trkpt lat="42.9516436" lon="13.3030061"><ele>635.0</ele><time>2026-04-11T08:35:33.346Z</time></trkpt><trkpt lat="42.9515868" lon="13.3027636"><ele>635.0</ele><time>2026-04-11T08:35:34.33Z</time></trkpt><trkpt lat="42.9515508" lon="13.302506"><ele>635.0</ele><time>2026-04-11T08:35:35.34Z</time></trkpt><trkpt lat="42.9515094" lon="13.3022322"><ele>639.0</ele><time>2026-04-11T08:35:36.329Z</time></trkpt><trkpt lat="42.9515025" lon="13.3019256"><ele>643.0</ele><time>2026-04-11T08:35:37.344Z</time></trkpt><trkpt lat="42.9515195" lon="13.3015955"><ele>645.5</ele><time>2026-04-11T08:35:38.347Z</time></trkpt><trkpt lat="42.9515601" lon="13.3012519"><ele>648.0</ele><time>2026-04-11T08:35:39.394Z</time></trkpt><trkpt lat="42.9515978" lon="13.3009163"><ele>648.0</ele><time>2026-04-11T08:35:40.351Z</time></trkpt><trkpt lat="42.951616" lon="13.3006347"><ele>648.0</ele><time>2026-04-11T08:35:41.358Z</time></trkpt><trkpt lat="42.9516404" lon="13.3003533"><ele>648.0</ele><time>2026-04-11T08:35:42.36Z</time></trkpt><trkpt lat="42.9516743" lon="13.3000606"><ele>661.5</ele><time>2026-04-11T08:35:43.366Z</time></trkpt><trkpt lat="42.9517288" lon="13.2997509"><ele>675.0</ele><time>2026-04-11T08:35:44.34Z</time></trkpt><trkpt lat="42.9518026" lon="13.2994049"><ele>675.5</ele><time>2026-04-11T08:35:45.339Z</time></trkpt><trkpt lat="42.9518617" lon="13.2990272"><ele>676.0</ele><time>2026-04-11T08:35:46.332Z</time></trkpt><trkpt lat="42.951924" lon="13.2986715"><ele>676.0</ele><time>2026-04-11T08:35:47.32Z</time></trkpt><trkpt lat="42.9519867" lon="13.2983229"><ele>676.0</ele><time>2026-04-11T08:35:48.331Z</time></trkpt><trkpt lat="42.9520382" lon="13.2980156"><ele>672.0</ele><time>2026-04-11T08:35:49.344Z</time></trkpt><trkpt lat="42.9520999" lon="13.2977328"><ele>668.0</ele><time>2026-04-11T08:35:50.322Z</time></trkpt><trkpt lat="42.9521702" lon="13.2974593"><ele>664.0</ele><time>2026-04-11T08:35:51.369Z</time></trkpt><trkpt lat="42.9522567" lon="13.2972009"><ele>660.6666666666667</ele><time>2026-04-11T08:35:52.345Z</time></trkpt><trkpt lat="42.9523394" lon="13.2969536"><ele>657.3333333333334</ele><time>2026-04-11T08:35:53.341Z</time></trkpt><trkpt lat="42.952416" lon="13.2967328"><ele>654.0</ele><time>2026-04-11T08:35:54.351Z</time></trkpt><trkpt lat="42.9524892" lon="13.2965469"><ele>668.6666666666666</ele><time>2026-04-11T08:35:55.339Z</time></trkpt><trkpt lat="42.9525635" lon="13.2963527"><ele>683.3333333333333</ele><time>2026-04-11T08:35:56.34Z</time></trkpt><trkpt lat="42.9526309" lon="13.296137"><ele>698.0</ele><time>2026-04-11T08:35:57.341Z</time></trkpt><trkpt lat="42.9526785" lon="13.2959116"><ele>698.0</ele><time>2026-04-11T08:35:58.347Z</time></trkpt><trkpt lat="42.9527059" lon="13.2956787"><ele>698.0</ele><time>2026-04-11T08:35:59.326Z</time></trkpt><trkpt lat="42.9527101" lon="13.2954252"><ele>698.0</ele><time>2026-04-11T08:36:00.355Z</time></trkpt><trkpt lat="42.9526962" lon="13.2951491"><ele>698.0</ele><time>2026-04-11T08:36:01.354Z</time></trkpt><trkpt lat="42.9526803" lon="13.294869"><ele>698.0</ele><time>2026-04-11T08:36:02.343Z</time></trkpt><trkpt lat="42.9526628" lon="13.2946065"><ele>698.0</ele><time>2026-04-11T08:36:03.343Z</time></trkpt><trkpt lat="42.9526525" lon="13.2943444"><ele>697.3333333333333</ele><time>2026-04-11T08:36:04.349Z</time></trkpt><trkpt lat="42.9526394" lon="13.2940787"><ele>696.6666666666666</ele><time>2026-04-11T08:36:05.355Z</time></trkpt><trkpt lat="42.9526407" lon="13.2937974"><ele>696.0</ele><time>2026-04-11T08:36:06.345Z</time></trkpt><trkpt lat="42.9526747" lon="13.2935161"><ele>698.6666666666666</ele><time>2026-04-11T08:36:07.4Z</time></trkpt><trkpt lat="42.9527022" lon="13.2932647"><ele>701.3333333333333</ele><time>2026-04-11T08:36:08.325Z</time></trkpt><trkpt lat="42.9527149" lon="13.2930342"><ele>704.0</ele><time>2026-04-11T08:36:09.368Z</time></trkpt><trkpt lat="42.9527086" lon="13.2928206"><ele>704.6666666666666</ele><time>2026-04-11T08:36:10.345Z</time></trkpt><trkpt lat="42.9526746" lon="13.2925791"><ele>705.3333333333334</ele><time>2026-04-11T08:36:11.354Z</time></trkpt><trkpt lat="42.9526358" lon="13.2923359"><ele>706.0</ele><time>2026-04-11T08:36:12.335Z</time></trkpt><trkpt lat="42.9525832" lon="13.2920901"><ele>706.0</ele><time>2026-04-11T08:36:13.336Z</time></trkpt><trkpt lat="42.9525446" lon="13.2918373"><ele>706.0</ele><time>2026-04-11T08:36:14.338Z</time></trkpt><trkpt lat="42.9525389" lon="13.2915764"><ele>706.0</ele><time>2026-04-11T08:36:15.33Z</time></trkpt><trkpt lat="42.9525304" lon="13.2913265"><ele>698.3333333333334</ele><time>2026-04-11T08:36:16.336Z</time></trkpt><trkpt lat="42.9525282" lon="13.2910931"><ele>690.6666666666666</ele><time>2026-04-11T08:36:17.338Z</time></trkpt><trkpt lat="42.9525082" lon="13.2908651"><ele>683.0</ele><time>2026-04-11T08:36:18.332Z</time></trkpt><trkpt lat="42.9524924" lon="13.2906622"><ele>686.6666666666666</ele><time>2026-04-11T08:36:19.338Z</time></trkpt><trkpt lat="42.9524437" lon="13.2904586"><ele>690.3333333333334</ele><time>2026-04-11T08:36:20.337Z</time></trkpt><trkpt lat="42.9523747" lon="13.2902604"><ele>694.0</ele><time>2026-04-11T08:36:21.348Z</time></trkpt><trkpt lat="42.9522929" lon="13.2900545"><ele>694.0</ele><time>2026-04-11T08:36:22.356Z</time></trkpt><trkpt lat="42.9522085" lon="13.2898728"><ele>694.0</ele><time>2026-04-11T08:36:23.346Z</time></trkpt><trkpt lat="42.9521343" lon="13.2897125"><ele>694.0</ele><time>2026-04-11T08:36:24.311Z</time></trkpt><trkpt lat="42.9520645" lon="13.2895696"><ele>694.0</ele><time>2026-04-11T08:36:25.348Z</time></trkpt><trkpt lat="42.9520068" lon="13.2894341"><ele>696.6</ele><time>2026-04-11T08:36:26.358Z</time></trkpt><trkpt lat="42.9519669" lon="13.2892997"><ele>699.2</ele><time>2026-04-11T08:36:27.353Z</time></trkpt><trkpt lat="42.9519267" lon="13.2891648"><ele>701.8000000000001</ele><time>2026-04-11T08:36:28.355Z</time></trkpt><trkpt lat="42.9518923" lon="13.2890271"><ele>704.4000000000001</ele><time>2026-04-11T08:36:29.353Z</time></trkpt><trkpt lat="42.951854" lon="13.2889032"><ele>707.0</ele><time>2026-04-11T08:36:30.369Z</time></trkpt><trkpt lat="42.9518259" lon="13.2887891"><ele>711.0</ele><time>2026-04-11T08:36:31.329Z</time></trkpt><trkpt lat="42.9517926" lon="13.2887153"><ele>715.0</ele><time>2026-04-11T08:36:32.333Z</time></trkpt><trkpt lat="42.9517407" lon="13.2885849"><ele>719.0</ele><time>2026-04-11T08:36:34.332Z</time></trkpt><trkpt lat="42.9517514" lon="13.2884411"><ele>723.0</ele><time>2026-04-11T08:36:36.368Z</time></trkpt><trkpt lat="42.9518197" lon="13.288363"><ele>727.0</ele><time>2026-04-11T08:36:38.321Z</time></trkpt><trkpt lat="42.9519168" lon="13.2883099"><ele>727.0</ele><time>2026-04-11T08:36:49.327Z</time></trkpt><trkpt lat="42.9519235" lon="13.2884838"><ele>727.0</ele><time>2026-04-11T08:38:30.421Z</time></trkpt></trkseg><trkseg><trkpt lat="42.9518698" lon="13.288429"><ele>727.0</ele><time>2026-04-11T08:58:15.197Z</time></trkpt><trkpt lat="42.9518277" lon="13.2883584"><ele>727.0</ele><time>2026-04-11T09:00:44.233Z</time></trkpt><trkpt lat="42.9517594" lon="13.2883848"><ele>727.0</ele><time>2026-04-11T09:02:00.222Z</time></trkpt><trkpt lat="42.9517246" lon="13.2886091"><ele>727.0</ele><time>2026-04-11T09:02:03.236Z</time></trkpt><trkpt lat="42.9517347" lon="13.2887374"><ele>727.0</ele><time>2026-04-11T09:02:04.231Z</time></trkpt><trkpt lat="42.9517545" lon="13.2888585"><ele>720.3333333333334</ele><time>2026-04-11T09:02:05.24Z</time></trkpt><trkpt lat="42.9518062" lon="13.289005"><ele>713.6666666666666</ele><time>2026-04-11T09:02:06.241Z</time></trkpt><trkpt lat="42.9518703" lon="13.2891974"><ele>707.0</ele><time>2026-04-11T09:02:07.216Z</time></trkpt><trkpt lat="42.9519635" lon="13.2894379"><ele>707.0</ele><time>2026-04-11T09:02:08.241Z</time></trkpt><trkpt lat="42.9520616" lon="13.289682"><ele>707.0</ele><time>2026-04-11T09:02:09.242Z</time></trkpt><trkpt lat="42.9521814" lon="13.2899407"><ele>707.0</ele><time>2026-04-11T09:02:10.247Z</time></trkpt><trkpt lat="42.9522787" lon="13.290168"><ele>702.6666666666666</ele><time>2026-04-11T09:02:11.237Z</time></trkpt><trkpt lat="42.9523633" lon="13.2903866"><ele>698.3333333333334</ele><time>2026-04-11T09:02:12.211Z</time></trkpt><trkpt lat="42.952439" lon="13.2905827"><ele>694.0</ele><time>2026-04-11T09:02:13.238Z</time></trkpt><trkpt lat="42.9524954" lon="13.2907665"><ele>690.3333333333334</ele><time>2026-04-11T09:02:14.245Z</time></trkpt><trkpt lat="42.9525221" lon="13.2909636"><ele>686.6666666666666</ele><time>2026-04-11T09:02:15.235Z</time></trkpt><trkpt lat="42.9525351" lon="13.2911993"><ele>683.0</ele><time>2026-04-11T09:02:16.234Z</time></trkpt><trkpt lat="42.9525113" lon="13.2914302"><ele>680.0</ele><time>2026-04-11T09:02:17.219Z</time></trkpt><trkpt lat="42.9524951" lon="13.2916559"><ele>677.0</ele><time>2026-04-11T09:02:18.243Z</time></trkpt><trkpt lat="42.9525075" lon="13.2918788"><ele>674.0</ele><time>2026-04-11T09:02:19.237Z</time></trkpt><trkpt lat="42.9525418" lon="13.2921125"><ele>684.6666666666666</ele><time>2026-04-11T09:02:20.245Z</time></trkpt><trkpt lat="42.9525849" lon="13.2923286"><ele>695.3333333333334</ele><time>2026-04-11T09:02:21.235Z</time></trkpt><trkpt lat="42.9526244" lon="13.2925237"><ele>706.0</ele><time>2026-04-11T09:02:22.276Z</time></trkpt><trkpt lat="42.952654" lon="13.2927082"><ele>706.0</ele><time>2026-04-11T09:02:23.241Z</time></trkpt><trkpt lat="42.9526801" lon="13.292905"><ele>706.0</ele><time>2026-04-11T09:02:24.258Z</time></trkpt><trkpt lat="42.9526891" lon="13.2930989"><ele>706.0</ele><time>2026-04-11T09:02:25.253Z</time></trkpt><trkpt lat="42.9526806" lon="13.2932719"><ele>706.0</ele><time>2026-04-11T09:02:26.241Z</time></trkpt><trkpt lat="42.9526646" lon="13.293431"><ele>705.5</ele><time>2026-04-11T09:02:27.231Z</time></trkpt><trkpt lat="42.9526436" lon="13.2935904"><ele>705.0</ele><time>2026-04-11T09:02:28.298Z</time></trkpt><trkpt lat="42.9526216" lon="13.2937804"><ele>704.5</ele><time>2026-04-11T09:02:29.248Z</time></trkpt><trkpt lat="42.9526034" lon="13.293986"><ele>704.0</ele><time>2026-04-11T09:02:30.251Z</time></trkpt><trkpt lat="42.9525966" lon="13.294203"><ele>702.0</ele><time>2026-04-11T09:02:31.261Z</time></trkpt><trkpt lat="42.9525887" lon="13.2944197"><ele>700.0</ele><time>2026-04-11T09:02:32.246Z</time></trkpt><trkpt lat="42.9526054" lon="13.2946358"><ele>698.0</ele><time>2026-04-11T09:02:33.251Z</time></trkpt><trkpt lat="42.9526304" lon="13.2948536"><ele>698.0</ele><time>2026-04-11T09:02:34.249Z</time></trkpt><trkpt lat="42.9526531" lon="13.2950839"><ele>698.0</ele><time>2026-04-11T09:02:35.259Z</time></trkpt><trkpt lat="42.9526666" lon="13.2953133"><ele>698.0</ele><time>2026-04-11T09:02:36.25Z</time></trkpt><trkpt lat="42.952667" lon="13.2955602"><ele>698.0</ele><time>2026-04-11T09:02:37.249Z</time></trkpt><trkpt lat="42.9526476" lon="13.2958055"><ele>698.0</ele><time>2026-04-11T09:02:38.243Z</time></trkpt><trkpt lat="42.9526058" lon="13.2960443"><ele>698.0</ele><time>2026-04-11T09:02:39.217Z</time></trkpt><trkpt lat="42.9525491" lon="13.2962644"><ele>683.3333333333333</ele><time>2026-04-11T09:02:40.252Z</time></trkpt><trkpt lat="42.9524799" lon="13.2964709"><ele>668.6666666666666</ele><time>2026-04-11T09:02:41.223Z</time></trkpt><trkpt lat="42.9524065" lon="13.2966786"><ele>654.0</ele><time>2026-04-11T09:02:42.221Z</time></trkpt><trkpt lat="42.9523273" lon="13.2969056"><ele>654.0</ele><time>2026-04-11T09:02:43.196Z</time></trkpt><trkpt lat="42.9522485" lon="13.2971355"><ele>654.0</ele><time>2026-04-11T09:02:44.208Z</time></trkpt><trkpt lat="42.9521751" lon="13.2973533"><ele>654.0</ele><time>2026-04-11T09:02:45.217Z</time></trkpt><trkpt lat="42.9521071" lon="13.2975665"><ele>657.3333333333334</ele><time>2026-04-11T09:02:46.226Z</time></trkpt><trkpt lat="42.9520447" lon="13.2977899"><ele>660.6666666666667</ele><time>2026-04-11T09:02:47.236Z</time></trkpt><trkpt lat="42.9519857" lon="13.2980174"><ele>664.0</ele><time>2026-04-11T09:02:48.243Z</time></trkpt><trkpt lat="42.9519537" lon="13.2982623"><ele>668.0</ele><time>2026-04-11T09:02:49.243Z</time></trkpt><trkpt lat="42.951929" lon="13.2985037"><ele>672.0</ele><time>2026-04-11T09:02:50.251Z</time></trkpt><trkpt lat="42.9519002" lon="13.2987303"><ele>676.0</ele><time>2026-04-11T09:02:51.245Z</time></trkpt><trkpt lat="42.9518689" lon="13.298951"><ele>676.3333333333334</ele><time>2026-04-11T09:02:52.231Z</time></trkpt><trkpt lat="42.9518342" lon="13.2991738"><ele>676.6666666666666</ele><time>2026-04-11T09:02:53.244Z</time></trkpt><trkpt lat="42.9517953" lon="13.2993981"><ele>677.0</ele><time>2026-04-11T09:02:54.253Z</time></trkpt><trkpt lat="42.9517458" lon="13.2996131"><ele>665.0</ele><time>2026-04-11T09:02:55.252Z</time></trkpt><trkpt lat="42.951696" lon="13.2998225"><ele>653.0</ele><time>2026-04-11T09:02:56.205Z</time></trkpt><trkpt lat="42.9516556" lon="13.3000255"><ele>641.0</ele><time>2026-04-11T09:02:57.216Z</time></trkpt><trkpt lat="42.9516259" lon="13.3002382"><ele>641.0</ele><time>2026-04-11T09:02:58.202Z</time></trkpt><trkpt lat="42.9515995" lon="13.3004737"><ele>641.0</ele><time>2026-04-11T09:02:59.21Z</time></trkpt><trkpt lat="42.9515768" lon="13.3007405"><ele>641.0</ele><time>2026-04-11T09:03:00.207Z</time></trkpt><trkpt lat="42.951557" lon="13.3010277"><ele>641.6666666666666</ele><time>2026-04-11T09:03:01.259Z</time></trkpt><trkpt lat="42.9515399" lon="13.3013123"><ele>642.3333333333334</ele><time>2026-04-11T09:03:02.215Z</time></trkpt><trkpt lat="42.951522" lon="13.3015802"><ele>643.0</ele><time>2026-04-11T09:03:03.241Z</time></trkpt><trkpt lat="42.951504" lon="13.3018268"><ele>643.0</ele><time>2026-04-11T09:03:04.234Z</time></trkpt><trkpt lat="42.9514878" lon="13.3020599"><ele>643.0</ele><time>2026-04-11T09:03:05.227Z</time></trkpt><trkpt lat="42.9514806" lon="13.3022773"><ele>643.0</ele><time>2026-04-11T09:03:06.242Z</time></trkpt><trkpt lat="42.9514879" lon="13.3024863"><ele>640.3333333333334</ele><time>2026-04-11T09:03:07.217Z</time></trkpt><trkpt lat="42.9515171" lon="13.3026929"><ele>637.6666666666666</ele><time>2026-04-11T09:03:08.237Z</time></trkpt><trkpt lat="42.9515638" lon="13.3028942"><ele>635.0</ele><time>2026-04-11T09:03:09.238Z</time></trkpt><trkpt lat="42.951613" lon="13.3030863"><ele>630.6666666666666</ele><time>2026-04-11T09:03:10.244Z</time></trkpt><trkpt lat="42.9516588" lon="13.3032767"><ele>626.3333333333334</ele><time>2026-04-11T09:03:11.231Z</time></trkpt><trkpt lat="42.9517032" lon="13.3034737"><ele>622.0</ele><time>2026-04-11T09:03:12.229Z</time></trkpt><trkpt lat="42.9517393" lon="13.3036829"><ele>622.0</ele><time>2026-04-11T09:03:13.238Z</time></trkpt><trkpt lat="42.9517559" lon="13.3039086"><ele>622.0</ele><time>2026-04-11T09:03:14.225Z</time></trkpt><trkpt lat="42.9517546" lon="13.3041376"><ele>622.0</ele><time>2026-04-11T09:03:15.24Z</time></trkpt><trkpt lat="42.9517414" lon="13.3043743"><ele>621.6666666666667</ele><time>2026-04-11T09:03:16.223Z</time></trkpt><trkpt lat="42.9517272" lon="13.3045991"><ele>621.3333333333334</ele><time>2026-04-11T09:03:17.236Z</time></trkpt><trkpt lat="42.9517134" lon="13.3048157"><ele>621.0</ele><time>2026-04-11T09:03:18.235Z</time></trkpt><trkpt lat="42.9516966" lon="13.3050183"><ele>621.0</ele><time>2026-04-11T09:03:19.217Z</time></trkpt><trkpt lat="42.9516808" lon="13.3052069"><ele>621.0</ele><time>2026-04-11T09:03:20.229Z</time></trkpt><trkpt lat="42.9516709" lon="13.3053943"><ele>621.0</ele><time>2026-04-11T09:03:21.242Z</time></trkpt><trkpt lat="42.9516939" lon="13.3055847"><ele>621.0</ele><time>2026-04-11T09:03:22.231Z</time></trkpt><trkpt lat="42.9517343" lon="13.3057885"><ele>623.3333333333334</ele><time>2026-04-11T09:03:23.243Z</time></trkpt><trkpt lat="42.9517991" lon="13.3060087"><ele>625.6666666666667</ele><time>2026-04-11T09:03:24.244Z</time></trkpt><trkpt lat="42.9518707" lon="13.3062369"><ele>628.0</ele><time>2026-04-11T09:03:25.275Z</time></trkpt><trkpt lat="42.9519419" lon="13.3064754"><ele>628.0</ele><time>2026-04-11T09:03:26.239Z</time></trkpt><trkpt lat="42.9519931" lon="13.3067232"><ele>628.0</ele><time>2026-04-11T09:03:27.217Z</time></trkpt><trkpt lat="42.9520257" lon="13.3069847"><ele>628.0</ele><time>2026-04-11T09:03:28.242Z</time></trkpt><trkpt lat="42.9520535" lon="13.3072616"><ele>630.3333333333334</ele><time>2026-04-11T09:03:29.251Z</time></trkpt><trkpt lat="42.952078" lon="13.307533"><ele>632.6666666666666</ele><time>2026-04-11T09:03:30.247Z</time></trkpt><trkpt lat="42.9521048" lon="13.3077863"><ele>635.0</ele><time>2026-04-11T09:03:31.257Z</time></trkpt><trkpt lat="42.9521276" lon="13.3080293"><ele>633.6666666666666</ele><time>2026-04-11T09:03:32.256Z</time></trkpt><trkpt lat="42.952151" lon="13.3082642"><ele>632.3333333333334</ele><time>2026-04-11T09:03:33.259Z</time></trkpt><trkpt lat="42.952187" lon="13.3084963"><ele>631.0</ele><time>2026-04-11T09:03:34.257Z</time></trkpt><trkpt lat="42.9522387" lon="13.3087098"><ele>624.0</ele><time>2026-04-11T09:03:35.252Z</time></trkpt><trkpt lat="42.9523092" lon="13.3089119"><ele>617.0</ele><time>2026-04-11T09:03:36.261Z</time></trkpt><trkpt lat="42.9523957" lon="13.3091108"><ele>610.0</ele><time>2026-04-11T09:03:37.263Z</time></trkpt><trkpt lat="42.9524902" lon="13.3093018"><ele>614.0</ele><time>2026-04-11T09:03:38.273Z</time></trkpt><trkpt lat="42.9525832" lon="13.3094733"><ele>618.0</ele><time>2026-04-11T09:03:39.241Z</time></trkpt><trkpt lat="42.9526653" lon="13.309633"><ele>622.0</ele><time>2026-04-11T09:03:40.225Z</time></trkpt><trkpt lat="42.9527434" lon="13.3097802"><ele>626.0</ele><time>2026-04-11T09:03:41.232Z</time></trkpt><trkpt lat="42.9528306" lon="13.3099206"><ele>626.0</ele><time>2026-04-11T09:03:42.241Z</time></trkpt><trkpt lat="42.9529172" lon="13.3100617"><ele>626.0</ele><time>2026-04-11T09:03:43.245Z</time></trkpt><trkpt lat="42.9529964" lon="13.3101984"><ele>626.0</ele><time>2026-04-11T09:03:44.198Z</time></trkpt><trkpt lat="42.9530618" lon="13.3103343"><ele>626.0</ele><time>2026-04-11T09:03:45.241Z</time></trkpt><trkpt lat="42.9531115" lon="13.3104684"><ele>620.0</ele><time>2026-04-11T09:03:46.227Z</time></trkpt><trkpt lat="42.9531495" lon="13.3106085"><ele>614.0</ele><time>2026-04-11T09:03:47.272Z</time></trkpt><trkpt lat="42.9531682" lon="13.3107622"><ele>608.0</ele><time>2026-04-11T09:03:48.246Z</time></trkpt><trkpt lat="42.9531689" lon="13.3109268"><ele>602.0</ele><time>2026-04-11T09:03:49.241Z</time></trkpt><trkpt lat="42.9531557" lon="13.3110942"><ele>602.0</ele><time>2026-04-11T09:03:50.243Z</time></trkpt><trkpt lat="42.9531201" lon="13.3112501"><ele>602.0</ele><time>2026-04-11T09:03:51.24Z</time></trkpt><trkpt lat="42.9530701" lon="13.3113854"><ele>602.0</ele><time>2026-04-11T09:03:52.239Z</time></trkpt><trkpt lat="42.9530141" lon="13.3114964"><ele>602.0</ele><time>2026-04-11T09:03:53.246Z</time></trkpt><trkpt lat="42.9529559" lon="13.3115901"><ele>602.0</ele><time>2026-04-11T09:03:54.238Z</time></trkpt><trkpt lat="42.9528956" lon="13.31167"><ele>602.1428571428571</ele><time>2026-04-11T09:03:55.253Z</time></trkpt><trkpt lat="42.9528407" lon="13.3117426"><ele>602.2857142857142</ele><time>2026-04-11T09:03:56.243Z</time></trkpt><trkpt lat="42.9527958" lon="13.3118166"><ele>602.4285714285714</ele><time>2026-04-11T09:03:57.254Z</time></trkpt><trkpt lat="42.9527618" lon="13.3118958"><ele>602.5714285714286</ele><time>2026-04-11T09:03:58.241Z</time></trkpt><trkpt lat="42.952737" lon="13.3119789"><ele>602.7142857142857</ele><time>2026-04-11T09:03:59.238Z</time></trkpt><trkpt lat="42.9527219" lon="13.3120752"><ele>602.8571428571429</ele><time>2026-04-11T09:04:00.234Z</time></trkpt><trkpt lat="42.9527115" lon="13.3121818"><ele>603.0</ele><time>2026-04-11T09:04:01.242Z</time></trkpt><trkpt lat="42.9527003" lon="13.3122997"><ele>603.0</ele><time>2026-04-11T09:04:02.242Z</time></trkpt><trkpt lat="42.9526906" lon="13.3124218"><ele>603.0</ele><time>2026-04-11T09:04:03.237Z</time></trkpt><trkpt lat="42.9526869" lon="13.3125362"><ele>603.0</ele><time>2026-04-11T09:04:04.229Z</time></trkpt><trkpt lat="42.9526942" lon="13.3126373"><ele>603.0</ele><time>2026-04-11T09:04:05.258Z</time></trkpt><trkpt lat="42.9527073" lon="13.3127231"><ele>603.0</ele><time>2026-04-11T09:04:06.255Z</time></trkpt><trkpt lat="42.9527401" lon="13.3128539"><ele>603.0</ele><time>2026-04-11T09:04:08.256Z</time></trkpt><trkpt lat="42.9528162" lon="13.3129433"><ele>603.0</ele><time>2026-04-11T09:04:10.242Z</time></trkpt><trkpt lat="42.9528688" lon="13.313043"><ele>603.0</ele><time>2026-04-11T09:04:12.238Z</time></trkpt><trkpt lat="42.9528901" lon="13.3131244"><ele>603.0</ele><time>2026-04-11T09:04:14.267Z</time></trkpt><trkpt lat="42.9528048" lon="13.3130657"><ele>603.0</ele><time>2026-04-11T09:04:22.254Z</time></trkpt><trkpt lat="42.9527765" lon="13.3129718"><ele>603.0</ele><time>2026-04-11T09:04:24.221Z</time></trkpt><trkpt lat="42.9527279" lon="13.3128924"><ele>603.0</ele><time>2026-04-11T09:04:26.251Z</time></trkpt><trkpt lat="42.952691" lon="13.3128211"><ele>603.0</ele><time>2026-04-11T09:04:28.241Z</time></trkpt><trkpt lat="42.9526561" lon="13.3127425"><ele>603.0</ele><time>2026-04-11T09:04:30.233Z</time></trkpt><trkpt lat="42.9526216" lon="13.312668"><ele>603.0</ele><time>2026-04-11T09:04:38.248Z</time></trkpt><trkpt lat="42.9525845" lon="13.3125927"><ele>603.0</ele><time>2026-04-11T09:04:39.285Z</time></trkpt><trkpt lat="42.9525538" lon="13.3124912"><ele>603.0</ele><time>2026-04-11T09:04:43.251Z</time></trkpt><trkpt lat="42.9525231" lon="13.3123878"><ele>603.0</ele><time>2026-04-11T09:04:46.239Z</time></trkpt><trkpt lat="42.9525019" lon="13.3123036"><ele>603.0</ele><time>2026-04-11T09:04:48.232Z</time></trkpt><trkpt lat="42.9524653" lon="13.3121867"><ele>600.2857142857143</ele><time>2026-04-11T09:04:51.304Z</time></trkpt><trkpt lat="42.9524485" lon="13.3120822"><ele>597.5714285714286</ele><time>2026-04-11T09:04:53.268Z</time></trkpt><trkpt lat="42.9524315" lon="13.3119948"><ele>594.8571428571429</ele><time>2026-04-11T09:04:55.237Z</time></trkpt><trkpt lat="42.9524466" lon="13.3118914"><ele>592.1428571428571</ele><time>2026-04-11T09:04:58.264Z</time></trkpt><trkpt lat="42.9524728" lon="13.3117967"><ele>589.4285714285714</ele><time>2026-04-11T09:05:01.239Z</time></trkpt><trkpt lat="42.9524729" lon="13.3117034"><ele>586.7142857142857</ele><time>2026-04-11T09:05:59.241Z</time></trkpt><trkpt lat="42.9524264" lon="13.3117881"><ele>584.0</ele><time>2026-04-11T09:06:04.242Z</time></trkpt><trkpt lat="42.9523692" lon="13.3118647"><ele>584.0</ele><time>2026-04-11T09:06:07.252Z</time></trkpt><trkpt lat="42.9523042" lon="13.3119456"><ele>584.0</ele><time>2026-04-11T09:06:10.236Z</time></trkpt><trkpt lat="42.9522236" lon="13.31197"><ele>584.0</ele><time>2026-04-11T09:06:13.201Z</time></trkpt><trkpt lat="42.9521495" lon="13.3119292"><ele>584.0</ele><time>2026-04-11T09:06:45.243Z</time></trkpt><trkpt lat="42.9521334" lon="13.3120375"><ele>584.0</ele><time>2026-04-11T09:06:58.246Z</time></trkpt><trkpt lat="42.9521117" lon="13.3121335"><ele>584.0</ele><time>2026-04-11T09:07:03.209Z</time></trkpt><trkpt lat="42.9520892" lon="13.3122483"><ele>584.4</ele><time>2026-04-11T09:07:06.21Z</time></trkpt><trkpt lat="42.9520674" lon="13.3123531"><ele>584.8</ele><time>2026-04-11T09:07:08.209Z</time></trkpt><trkpt lat="42.9520406" lon="13.3125099"><ele>585.2</ele><time>2026-04-11T09:07:10.21Z</time></trkpt><trkpt lat="42.9519954" lon="13.3126422"><ele>585.6</ele><time>2026-04-11T09:07:12.214Z</time></trkpt><trkpt lat="42.9519323" lon="13.3127194"><ele>586.0</ele><time>2026-04-11T09:07:14.208Z</time></trkpt><trkpt lat="42.9519249" lon="13.3128129"><ele>586.0</ele><time>2026-04-11T09:07:17.266Z</time></trkpt><trkpt lat="42.9519398" lon="13.3129196"><ele>586.0</ele><time>2026-04-11T09:07:20.21Z</time></trkpt><trkpt lat="42.9519416" lon="13.3130466"><ele>586.0</ele><time>2026-04-11T09:07:23.203Z</time></trkpt><trkpt lat="42.9519347" lon="13.3131909"><ele>586.0</ele><time>2026-04-11T09:07:25.216Z</time></trkpt><trkpt lat="42.9519194" lon="13.3132907"><ele>586.0</ele><time>2026-04-11T09:07:27.238Z</time></trkpt><trkpt lat="42.9519171" lon="13.3134042"><ele>586.0</ele><time>2026-04-11T09:07:29.23Z</time></trkpt><trkpt lat="42.9519446" lon="13.3135175"><ele>585.2</ele><time>2026-04-11T09:07:31.267Z</time></trkpt><trkpt lat="42.9519696" lon="13.3136131"><ele>584.4000000000001</ele><time>2026-04-11T09:07:33.224Z</time></trkpt><trkpt lat="42.9519831" lon="13.3137147"><ele>583.6</ele><time>2026-04-11T09:07:35.24Z</time></trkpt><trkpt lat="42.9519853" lon="13.3138534"><ele>582.8000000000001</ele><time>2026-04-11T09:07:38.24Z</time></trkpt><trkpt lat="42.9519518" lon="13.3139969"><ele>582.0</ele><time>2026-04-11T09:07:40.29Z</time></trkpt><trkpt lat="42.9519301" lon="13.3141459"><ele>581.0</ele><time>2026-04-11T09:07:42.235Z</time></trkpt><trkpt lat="42.9519029" lon="13.3142778"><ele>580.0</ele><time>2026-04-11T09:07:44.243Z</time></trkpt><trkpt lat="42.9518741" lon="13.3143852"><ele>579.0</ele><time>2026-04-11T09:07:46.233Z</time></trkpt><trkpt lat="42.9518389" lon="13.3144972"><ele>578.0</ele><time>2026-04-11T09:07:48.246Z</time></trkpt><trkpt lat="42.9518129" lon="13.3146124"><ele>577.0</ele><time>2026-04-11T09:07:50.243Z</time></trkpt><trkpt lat="42.9518102" lon="13.3147011"><ele>576.0</ele><time>2026-04-11T09:08:01.247Z</time></trkpt><trkpt lat="42.951804" lon="13.3147938"><ele>576.0</ele><time>2026-04-11T09:08:04.245Z</time></trkpt><trkpt lat="42.9517717" lon="13.3146943"><ele>576.0</ele><time>2026-04-11T09:08:09.248Z</time></trkpt><trkpt lat="42.9517913" lon="13.3145947"><ele>576.0</ele><time>2026-04-11T09:08:11.243Z</time></trkpt><trkpt lat="42.9518039" lon="13.3145099"><ele>576.0</ele><time>2026-04-11T09:08:13.239Z</time></trkpt><trkpt lat="42.9518425" lon="13.3144164"><ele>576.0</ele><time>2026-04-11T09:08:16.25Z</time></trkpt><trkpt lat="42.9518759" lon="13.3143311"><ele>576.0</ele><time>2026-04-11T09:08:18.246Z</time></trkpt><trkpt lat="42.9519111" lon="13.3141574"><ele>576.0</ele><time>2026-04-11T09:08:20.237Z</time></trkpt><trkpt lat="42.9519309" lon="13.3140754"><ele>576.0</ele><time>2026-04-11T09:08:21.238Z</time></trkpt><trkpt lat="42.9519496" lon="13.313926"><ele>576.0</ele><time>2026-04-11T09:08:23.241Z</time></trkpt><trkpt lat="42.9519759" lon="13.3138033"><ele>576.0</ele><time>2026-04-11T09:08:25.242Z</time></trkpt><trkpt lat="42.9519795" lon="13.3136941"><ele>576.0</ele><time>2026-04-11T09:08:28.267Z</time></trkpt><trkpt lat="42.9519659" lon="13.3135835"><ele>576.0</ele><time>2026-04-11T09:08:30.246Z</time></trkpt><trkpt lat="42.9519327" lon="13.3134921"><ele>577.0</ele><time>2026-04-11T09:08:32.255Z</time></trkpt><trkpt lat="42.9518963" lon="13.3134"><ele>578.0</ele><time>2026-04-11T09:08:34.24Z</time></trkpt><trkpt lat="42.9518541" lon="13.3133048"><ele>579.0</ele><time>2026-04-11T09:08:45.228Z</time></trkpt><trkpt lat="42.9518138" lon="13.3133952"><ele>580.0</ele><time>2026-04-11T09:08:49.248Z</time></trkpt><trkpt lat="42.9518311" lon="13.3135165"><ele>581.0</ele><time>2026-04-11T09:08:51.241Z</time></trkpt><trkpt lat="42.9518434" lon="13.3136313"><ele>582.0</ele><time>2026-04-11T09:08:53.252Z</time></trkpt><trkpt lat="42.9518527" lon="13.3137217"><ele>582.0</ele><time>2026-04-11T09:08:55.247Z</time></trkpt><trkpt lat="42.9518472" lon="13.3138165"><ele>582.0</ele><time>2026-04-11T09:08:57.238Z</time></trkpt><trkpt lat="42.9518355" lon="13.3139331"><ele>582.0</ele><time>2026-04-11T09:09:00.229Z</time></trkpt><trkpt lat="42.9518342" lon="13.3140887"><ele>582.0</ele><time>2026-04-11T09:11:53.251Z</time></trkpt><trkpt lat="42.9518322" lon="13.3142116"><ele>582.0</ele><time>2026-04-11T09:12:14.238Z</time></trkpt><trkpt lat="42.9518108" lon="13.3143429"><ele>580.8000000000001</ele><time>2026-04-11T09:12:16.243Z</time></trkpt><trkpt lat="42.9517667" lon="13.3144903"><ele>579.6</ele><time>2026-04-11T09:12:18.241Z</time></trkpt><trkpt lat="42.9517275" lon="13.3146291"><ele>578.4000000000001</ele><time>2026-04-11T09:12:20.229Z</time></trkpt><trkpt lat="42.9516921" lon="13.3147558"><ele>577.2</ele><time>2026-04-11T09:12:22.223Z</time></trkpt><trkpt lat="42.9516606" lon="13.3148505"><ele>576.0</ele><time>2026-04-11T09:12:24.235Z</time></trkpt><trkpt lat="42.9516249" lon="13.3149455"><ele>578.8333333333334</ele><time>2026-04-11T09:12:26.226Z</time></trkpt><trkpt lat="42.9515871" lon="13.3150856"><ele>581.6666666666666</ele><time>2026-04-11T09:12:28.237Z</time></trkpt><trkpt lat="42.9515652" lon="13.3151796"><ele>584.5</ele><time>2026-04-11T09:12:29.221Z</time></trkpt><trkpt lat="42.9515346" lon="13.3152773"><ele>587.3333333333333</ele><time>2026-04-11T09:12:30.236Z</time></trkpt><trkpt lat="42.9515041" lon="13.3153591"><ele>590.1666666666666</ele><time>2026-04-11T09:12:31.24Z</time></trkpt><trkpt lat="42.9514523" lon="13.3154836"><ele>593.0</ele><time>2026-04-11T09:12:33.233Z</time></trkpt><trkpt lat="42.9513962" lon="13.3156104"><ele>593.0</ele><time>2026-04-11T09:12:35.24Z</time></trkpt><trkpt lat="42.9513491" lon="13.3156966"><ele>593.0</ele><time>2026-04-11T09:12:36.236Z</time></trkpt><trkpt lat="42.9513029" lon="13.3157803"><ele>593.0</ele><time>2026-04-11T09:12:37.242Z</time></trkpt><trkpt lat="42.9512681" lon="13.3158537"><ele>593.0</ele><time>2026-04-11T09:12:38.266Z</time></trkpt><trkpt lat="42.9512281" lon="13.3159941"><ele>593.0</ele><time>2026-04-11T09:12:40.242Z</time></trkpt><trkpt lat="42.9511499" lon="13.3161107"><ele>593.0</ele><time>2026-04-11T09:12:42.238Z</time></trkpt><trkpt lat="42.9510644" lon="13.316175"><ele>593.0</ele><time>2026-04-11T09:12:44.225Z</time></trkpt><trkpt lat="42.9509956" lon="13.3162091"><ele>593.0</ele><time>2026-04-11T09:12:46.233Z</time></trkpt><trkpt lat="42.9508916" lon="13.3162197"><ele>593.0</ele><time>2026-04-11T09:12:48.232Z</time></trkpt><trkpt lat="42.9507856" lon="13.3161843"><ele>593.0</ele><time>2026-04-11T09:12:50.23Z</time></trkpt><trkpt lat="42.9506815" lon="13.3161569"><ele>593.0</ele><time>2026-04-11T09:12:52.238Z</time></trkpt><trkpt lat="42.9505866" lon="13.3161286"><ele>600.3333333333333</ele><time>2026-04-11T09:12:54.213Z</time></trkpt><trkpt lat="42.9505153" lon="13.3160745"><ele>607.6666666666666</ele><time>2026-04-11T09:12:56.223Z</time></trkpt><trkpt lat="42.9504447" lon="13.3160034"><ele>615.0</ele><time>2026-04-11T09:12:58.209Z</time></trkpt><trkpt lat="42.9503785" lon="13.3159126"><ele>622.3333333333334</ele><time>2026-04-11T09:13:00.225Z</time></trkpt><trkpt lat="42.9503414" lon="13.3158413"><ele>629.6666666666667</ele><time>2026-04-11T09:13:02.222Z</time></trkpt><trkpt lat="42.9502992" lon="13.3157477"><ele>637.0</ele><time>2026-04-11T09:13:04.241Z</time></trkpt><trkpt lat="42.9502343" lon="13.3156855"><ele>637.0</ele><time>2026-04-11T09:13:23.234Z</time></trkpt><trkpt lat="42.9501408" lon="13.3156612"><ele>637.0</ele><time>2026-04-11T09:13:51.248Z</time></trkpt><trkpt lat="42.9501197" lon="13.3155094"><ele>637.0</ele><time>2026-04-11T09:14:37.253Z</time></trkpt><trkpt lat="42.9500809" lon="13.3155893"><ele>637.0</ele><time>2026-04-11T09:14:55.251Z</time></trkpt><trkpt lat="42.950011" lon="13.3156918"><ele>637.0</ele><time>2026-04-11T09:14:58.248Z</time></trkpt><trkpt lat="42.9499148" lon="13.3157253"><ele>641.4000000000001</ele><time>2026-04-11T09:15:00.228Z</time></trkpt><trkpt lat="42.9498107" lon="13.3157481"><ele>645.8000000000001</ele><time>2026-04-11T09:15:02.252Z</time></trkpt><trkpt lat="42.94971" lon="13.3157981"><ele>650.2</ele><time>2026-04-11T09:15:04.258Z</time></trkpt><trkpt lat="42.9495983" lon="13.3158363"><ele>654.6</ele><time>2026-04-11T09:15:06.247Z</time></trkpt><trkpt lat="42.9495272" lon="13.3158411"><ele>659.0</ele><time>2026-04-11T09:15:07.233Z</time></trkpt><trkpt lat="42.9494396" lon="13.3158415"><ele>659.0</ele><time>2026-04-11T09:15:08.223Z</time></trkpt><trkpt lat="42.9493664" lon="13.3158429"><ele>659.0</ele><time>2026-04-11T09:15:09.223Z</time></trkpt><trkpt lat="42.9492453" lon="13.3158456"><ele>659.0</ele><time>2026-04-11T09:15:11.234Z</time></trkpt><trkpt lat="42.9491805" lon="13.3158439"><ele>659.0</ele><time>2026-04-11T09:15:12.243Z</time></trkpt><trkpt lat="42.9490792" lon="13.3158077"><ele>659.0</ele><time>2026-04-11T09:15:13.229Z</time></trkpt><trkpt lat="42.948989" lon="13.3157956"><ele>662.4000000000001</ele><time>2026-04-11T09:15:14.238Z</time></trkpt><trkpt lat="42.9489219" lon="13.3157952"><ele>665.8</ele><time>2026-04-11T09:15:15.253Z</time></trkpt><trkpt lat="42.9488233" lon="13.3158455"><ele>669.2</ele><time>2026-04-11T09:15:17.254Z</time></trkpt><trkpt lat="42.9487328" lon="13.3159115"><ele>672.5999999999999</ele><time>2026-04-11T09:15:19.224Z</time></trkpt><trkpt lat="42.9486604" lon="13.3159525"><ele>676.0</ele><time>2026-04-11T09:15:21.229Z</time></trkpt><trkpt lat="42.9485652" lon="13.3159262"><ele>676.0</ele><time>2026-04-11T09:15:23.23Z</time></trkpt><trkpt lat="42.9484604" lon="13.3158885"><ele>676.0</ele><time>2026-04-11T09:15:25.248Z</time></trkpt><trkpt lat="42.9483689" lon="13.3158872"><ele>676.0</ele><time>2026-04-11T09:15:27.272Z</time></trkpt><trkpt lat="42.9482594" lon="13.3158493"><ele>676.0</ele><time>2026-04-11T09:15:29.239Z</time></trkpt><trkpt lat="42.9481634" lon="13.3158082"><ele>676.0</ele><time>2026-04-11T09:15:31.276Z</time></trkpt><trkpt lat="42.9481012" lon="13.3157644"><ele>677.6666666666667</ele><time>2026-04-11T09:15:34.26Z</time></trkpt><trkpt lat="42.9480426" lon="13.3156922"><ele>679.3333333333334</ele><time>2026-04-11T09:16:01.255Z</time></trkpt><trkpt lat="42.9479438" lon="13.3156506"><ele>681.0</ele><time>2026-04-11T09:16:03.216Z</time></trkpt><trkpt lat="42.9478686" lon="13.3156067"><ele>682.6666666666666</ele><time>2026-04-11T09:16:04.248Z</time></trkpt><trkpt lat="42.9478037" lon="13.3155699"><ele>684.3333333333333</ele><time>2026-04-11T09:16:05.231Z</time></trkpt><trkpt lat="42.9477405" lon="13.3155323"><ele>686.0</ele><time>2026-04-11T09:16:06.229Z</time></trkpt><trkpt lat="42.9476324" lon="13.3154484"><ele>687.1666666666666</ele><time>2026-04-11T09:16:08.256Z</time></trkpt><trkpt lat="42.9475209" lon="13.3153635"><ele>688.3333333333333</ele><time>2026-04-11T09:16:10.243Z</time></trkpt><trkpt lat="42.9474559" lon="13.3153453"><ele>689.5</ele><time>2026-04-11T09:16:11.207Z</time></trkpt><trkpt lat="42.9473844" lon="13.3153272"><ele>690.6666666666666</ele><time>2026-04-11T09:16:12.251Z</time></trkpt><trkpt lat="42.9473065" lon="13.3153251"><ele>691.8333333333334</ele><time>2026-04-11T09:16:13.199Z</time></trkpt><trkpt lat="42.9472267" lon="13.3153277"><ele>693.0</ele><time>2026-04-11T09:16:14.23Z</time></trkpt><trkpt lat="42.947145" lon="13.3153292"><ele>693.0</ele><time>2026-04-11T09:16:15.227Z</time></trkpt><trkpt lat="42.9470646" lon="13.3153316"><ele>693.0</ele><time>2026-04-11T09:16:16.201Z</time></trkpt><trkpt lat="42.9469808" lon="13.3153258"><ele>693.0</ele><time>2026-04-11T09:16:17.246Z</time></trkpt><trkpt lat="42.9469053" lon="13.315312"><ele>693.0</ele><time>2026-04-11T09:16:18.244Z</time></trkpt><trkpt lat="42.9468351" lon="13.3152912"><ele>693.0</ele><time>2026-04-11T09:16:19.211Z</time></trkpt><trkpt lat="42.9467676" lon="13.3152602"><ele>693.0</ele><time>2026-04-11T09:16:20.228Z</time></trkpt><trkpt lat="42.9467023" lon="13.3152316"><ele>692.0</ele><time>2026-04-11T09:16:21.235Z</time></trkpt><trkpt lat="42.946635" lon="13.3152178"><ele>691.0</ele><time>2026-04-11T09:16:22.22Z</time></trkpt><trkpt lat="42.9465571" lon="13.3152089"><ele>690.0</ele><time>2026-04-11T09:16:23.239Z</time></trkpt><trkpt lat="42.9464801" lon="13.3152072"><ele>689.0</ele><time>2026-04-11T09:16:24.25Z</time></trkpt><trkpt lat="42.9463987" lon="13.3152186"><ele>688.0</ele><time>2026-04-11T09:16:25.242Z</time></trkpt><trkpt lat="42.9463096" lon="13.3152414"><ele>687.0</ele><time>2026-04-11T09:16:26.203Z</time></trkpt><trkpt lat="42.9462152" lon="13.3152686"><ele>687.0</ele><time>2026-04-11T09:16:27.237Z</time></trkpt><trkpt lat="42.9461209" lon="13.3152956"><ele>687.0</ele><time>2026-04-11T09:16:28.247Z</time></trkpt><trkpt lat="42.9460288" lon="13.3153119"><ele>687.0</ele><time>2026-04-11T09:16:29.204Z</time></trkpt><trkpt lat="42.9459425" lon="13.3153265"><ele>687.0</ele><time>2026-04-11T09:16:30.228Z</time></trkpt><trkpt lat="42.9458574" lon="13.3153409"><ele>687.0</ele><time>2026-04-11T09:16:31.236Z</time></trkpt><trkpt lat="42.9457745" lon="13.3153563"><ele>687.0</ele><time>2026-04-11T09:16:32.238Z</time></trkpt><trkpt lat="42.9456912" lon="13.315377"><ele>686.3333333333334</ele><time>2026-04-11T09:16:33.217Z</time></trkpt><trkpt lat="42.9456179" lon="13.3153903"><ele>685.6666666666666</ele><time>2026-04-11T09:16:34.223Z</time></trkpt><trkpt lat="42.9455514" lon="13.3153985"><ele>685.0</ele><time>2026-04-11T09:16:35.202Z</time></trkpt><trkpt lat="42.9454387" lon="13.3153984"><ele>684.3333333333333</ele><time>2026-04-11T09:16:37.206Z</time></trkpt><trkpt lat="42.9453694" lon="13.3153771"><ele>683.6666666666666</ele><time>2026-04-11T09:16:39.221Z</time></trkpt><trkpt lat="42.9453223" lon="13.3153189"><ele>683.0</ele><time>2026-04-11T09:16:55.222Z</time></trkpt><trkpt lat="42.9452898" lon="13.3152193"><ele>683.0</ele><time>2026-04-11T09:16:57.262Z</time></trkpt><trkpt lat="42.9452582" lon="13.3150684"><ele>683.0</ele><time>2026-04-11T09:16:59.23Z</time></trkpt><trkpt lat="42.9452013" lon="13.314907"><ele>683.0</ele><time>2026-04-11T09:17:01.213Z</time></trkpt><trkpt lat="42.9451491" lon="13.3148257"><ele>683.0</ele><time>2026-04-11T09:17:02.236Z</time></trkpt><trkpt lat="42.9450986" lon="13.3147495"><ele>683.0</ele><time>2026-04-11T09:17:03.252Z</time></trkpt><trkpt lat="42.9450491" lon="13.3146818"><ele>683.2</ele><time>2026-04-11T09:17:04.226Z</time></trkpt><trkpt lat="42.9450073" lon="13.3146098"><ele>683.4</ele><time>2026-04-11T09:17:05.25Z</time></trkpt><trkpt lat="42.9449397" lon="13.3144867"><ele>683.6</ele><time>2026-04-11T09:17:07.231Z</time></trkpt><trkpt lat="42.9448782" lon="13.3143934"><ele>683.8000000000001</ele><time>2026-04-11T09:17:09.238Z</time></trkpt><trkpt lat="42.9448239" lon="13.3142855"><ele>684.0</ele><time>2026-04-11T09:17:11.204Z</time></trkpt><trkpt lat="42.9447738" lon="13.3141587"><ele>684.0</ele><time>2026-04-11T09:17:13.308Z</time></trkpt><trkpt lat="42.9447304" lon="13.3140236"><ele>684.0</ele><time>2026-04-11T09:17:15.245Z</time></trkpt><trkpt lat="42.9446548" lon="13.3139087"><ele>684.0</ele><time>2026-04-11T09:17:17.245Z</time></trkpt><trkpt lat="42.9445818" lon="13.3138774"><ele>684.0</ele><time>2026-04-11T09:17:18.265Z</time></trkpt><trkpt lat="42.9444963" lon="13.3138355"><ele>684.0</ele><time>2026-04-11T09:17:19.231Z</time></trkpt><trkpt lat="42.944409" lon="13.3137808"><ele>683.6</ele><time>2026-04-11T09:17:20.238Z</time></trkpt><trkpt lat="42.944326" lon="13.3137117"><ele>683.2</ele><time>2026-04-11T09:17:21.217Z</time></trkpt><trkpt lat="42.9442587" lon="13.3136387"><ele>682.8000000000001</ele><time>2026-04-11T09:17:22.278Z</time></trkpt><trkpt lat="42.9441812" lon="13.3135571"><ele>682.4000000000001</ele><time>2026-04-11T09:17:23.261Z</time></trkpt><trkpt lat="42.94411" lon="13.3134709"><ele>682.0</ele><time>2026-04-11T09:17:24.248Z</time></trkpt><trkpt lat="42.944052" lon="13.3133694"><ele>682.0</ele><time>2026-04-11T09:17:25.243Z</time></trkpt><trkpt lat="42.9439979" lon="13.3132702"><ele>682.0</ele><time>2026-04-11T09:17:26.201Z</time></trkpt><trkpt lat="42.9439574" lon="13.3131763"><ele>682.0</ele><time>2026-04-11T09:17:27.225Z</time></trkpt><trkpt lat="42.9439251" lon="13.3130863"><ele>682.0</ele><time>2026-04-11T09:17:28.232Z</time></trkpt><trkpt lat="42.9438948" lon="13.3130006"><ele>682.0</ele><time>2026-04-11T09:17:29.225Z</time></trkpt><trkpt lat="42.9438008" lon="13.3129163"><ele>682.0</ele><time>2026-04-11T09:17:31.214Z</time></trkpt><trkpt lat="42.9436954" lon="13.3129227"><ele>682.0</ele><time>2026-04-11T09:17:33.221Z</time></trkpt><trkpt lat="42.9436058" lon="13.3130284"><ele>682.0</ele><time>2026-04-11T09:17:35.225Z</time></trkpt><trkpt lat="42.9435565" lon="13.3131863"><ele>682.0</ele><time>2026-04-11T09:17:37.223Z</time></trkpt><trkpt lat="42.9435621" lon="13.3132879"><ele>682.0</ele><time>2026-04-11T09:17:38.209Z</time></trkpt><trkpt lat="42.9435702" lon="13.3133895"><ele>682.0</ele><time>2026-04-11T09:17:39.211Z</time></trkpt><trkpt lat="42.9435365" lon="13.3134973"><ele>682.0</ele><time>2026-04-11T09:17:40.251Z</time></trkpt><trkpt lat="42.9435003" lon="13.3136359"><ele>682.0</ele><time>2026-04-11T09:17:41.234Z</time></trkpt><trkpt lat="42.9434658" lon="13.3137617"><ele>682.0</ele><time>2026-04-11T09:17:42.2Z</time></trkpt><trkpt lat="42.9434491" lon="13.3138818"><ele>682.0</ele><time>2026-04-11T09:17:43.221Z</time></trkpt><trkpt lat="42.9434438" lon="13.3139977"><ele>682.0</ele><time>2026-04-11T09:17:44.239Z</time></trkpt><trkpt lat="42.9434313" lon="13.3140915"><ele>680.6666666666667</ele><time>2026-04-11T09:17:45.248Z</time></trkpt><trkpt lat="42.9434056" lon="13.3142025"><ele>679.3333333333334</ele><time>2026-04-11T09:17:47.248Z</time></trkpt><trkpt lat="42.9433246" lon="13.3142866"><ele>678.0</ele><time>2026-04-11T09:17:49.295Z</time></trkpt><trkpt lat="42.943237" lon="13.3143213"><ele>676.6666666666666</ele><time>2026-04-11T09:17:51.213Z</time></trkpt><trkpt lat="42.9431775" lon="13.3142875"><ele>675.3333333333333</ele><time>2026-04-11T09:17:54.237Z</time></trkpt><trkpt lat="42.9432532" lon="13.3143052"><ele>674.0</ele><time>2026-04-11T09:19:33.252Z</time></trkpt><trkpt lat="42.9433273" lon="13.314303"><ele>674.0</ele><time>2026-04-11T09:19:35.26Z</time></trkpt><trkpt lat="42.9433957" lon="13.314229"><ele>674.0</ele><time>2026-04-11T09:19:38.239Z</time></trkpt><trkpt lat="42.9434597" lon="13.3142529"><ele>674.0</ele><time>2026-04-11T09:19:42.255Z</time></trkpt><trkpt lat="42.9434269" lon="13.3143633"><ele>674.0</ele><time>2026-04-11T09:19:45.248Z</time></trkpt><trkpt lat="42.9433574" lon="13.3144246"><ele>674.0</ele><time>2026-04-11T09:19:48.223Z</time></trkpt><trkpt lat="42.9432725" lon="13.3144791"><ele>674.0</ele><time>2026-04-11T09:19:56.228Z</time></trkpt><trkpt lat="42.9432011" lon="13.3145084"><ele>674.0</ele><time>2026-04-11T09:19:58.252Z</time></trkpt><trkpt lat="42.9431243" lon="13.3144956"><ele>674.0</ele><time>2026-04-11T09:20:01.249Z</time></trkpt><trkpt lat="42.9430299" lon="13.3144605"><ele>674.0</ele><time>2026-04-11T09:20:23.277Z</time></trkpt><trkpt lat="42.9429577" lon="13.3144432"><ele>674.0</ele><time>2026-04-11T09:20:25.217Z</time></trkpt><trkpt lat="42.9428939" lon="13.3144421"><ele>674.0</ele><time>2026-04-11T09:20:27.259Z</time></trkpt><trkpt lat="42.9428303" lon="13.3144938"><ele>674.0</ele><time>2026-04-11T09:20:29.231Z</time></trkpt><trkpt lat="42.9427466" lon="13.3145474"><ele>674.0</ele><time>2026-04-11T09:20:31.219Z</time></trkpt><trkpt lat="42.9426697" lon="13.314597"><ele>674.0</ele><time>2026-04-11T09:20:33.245Z</time></trkpt><trkpt lat="42.9426078" lon="13.3146408"><ele>674.0</ele><time>2026-04-11T09:20:35.233Z</time></trkpt><trkpt lat="42.9425427" lon="13.3146648"><ele>674.0</ele><time>2026-04-11T09:20:37.227Z</time></trkpt><trkpt lat="42.942476" lon="13.3147037"><ele>674.0</ele><time>2026-04-11T09:20:39.238Z</time></trkpt><trkpt lat="42.9424111" lon="13.3147509"><ele>674.0</ele><time>2026-04-11T09:20:41.225Z</time></trkpt><trkpt lat="42.942334" lon="13.3147991"><ele>669.1666666666666</ele><time>2026-04-11T09:20:44.236Z</time></trkpt><trkpt lat="42.9422722" lon="13.3148756"><ele>664.3333333333333</ele><time>2026-04-11T09:20:48.244Z</time></trkpt><trkpt lat="42.942214" lon="13.3149567"><ele>659.5</ele><time>2026-04-11T09:20:51.225Z</time></trkpt><trkpt lat="42.9421374" lon="13.3150262"><ele>654.6666666666666</ele><time>2026-04-11T09:20:54.229Z</time></trkpt><trkpt lat="42.9420812" lon="13.3150871"><ele>649.8333333333334</ele><time>2026-04-11T09:20:56.276Z</time></trkpt><trkpt lat="42.9420165" lon="13.3151505"><ele>645.0</ele><time>2026-04-11T09:20:59.233Z</time></trkpt><trkpt lat="42.9419563" lon="13.3152112"><ele>645.0</ele><time>2026-04-11T09:21:04.253Z</time></trkpt><trkpt lat="42.9418853" lon="13.3152649"><ele>645.0</ele><time>2026-04-11T09:21:19.225Z</time></trkpt><trkpt lat="42.9418219" lon="13.3153394"><ele>645.0</ele><time>2026-04-11T09:21:22.226Z</time></trkpt><trkpt lat="42.9417577" lon="13.3154151"><ele>645.0</ele><time>2026-04-11T09:21:26.25Z</time></trkpt><trkpt lat="42.941684" lon="13.3154664"><ele>645.0</ele><time>2026-04-11T09:21:30.238Z</time></trkpt><trkpt lat="42.9416145" lon="13.3154462"><ele>645.0</ele><time>2026-04-11T09:21:34.26Z</time></trkpt><trkpt lat="42.9415467" lon="13.3153901"><ele>642.1666666666666</ele><time>2026-04-11T09:21:38.259Z</time></trkpt><trkpt lat="42.941478" lon="13.3154228"><ele>639.3333333333334</ele><time>2026-04-11T09:21:41.233Z</time></trkpt><trkpt lat="42.9414414" lon="13.3155098"><ele>636.5</ele><time>2026-04-11T09:21:50.232Z</time></trkpt><trkpt lat="42.9414578" lon="13.315611"><ele>633.6666666666667</ele><time>2026-04-11T09:21:53.232Z</time></trkpt><trkpt lat="42.9414988" lon="13.3157007"><ele>630.8333333333334</ele><time>2026-04-11T09:21:55.283Z</time></trkpt><trkpt lat="42.9415483" lon="13.3158109"><ele>628.0</ele><time>2026-04-11T09:21:57.217Z</time></trkpt><trkpt lat="42.941607" lon="13.3158972"><ele>628.0</ele><time>2026-04-11T09:21:59.265Z</time></trkpt><trkpt lat="42.9416838" lon="13.3159164"><ele>628.0</ele><time>2026-04-11T09:22:01.264Z</time></trkpt><trkpt lat="42.9417852" lon="13.3158721"><ele>628.0</ele><time>2026-04-11T09:22:03.212Z</time></trkpt><trkpt lat="42.9418813" lon="13.3158203"><ele>628.0</ele><time>2026-04-11T09:22:05.233Z</time></trkpt><trkpt lat="42.9418777" lon="13.3159346"><ele>628.0</ele><time>2026-04-11T09:22:25.273Z</time></trkpt><trkpt lat="42.9418357" lon="13.3160035"><ele>628.0</ele><time>2026-04-11T09:22:27.241Z</time></trkpt><trkpt lat="42.9417818" lon="13.3160926"><ele>628.0</ele><time>2026-04-11T09:22:29.23Z</time></trkpt><trkpt lat="42.9417376" lon="13.3162074"><ele>628.0</ele><time>2026-04-11T09:22:32.238Z</time></trkpt><trkpt lat="42.9417061" lon="13.3163202"><ele>628.0</ele><time>2026-04-11T09:22:34.231Z</time></trkpt><trkpt lat="42.9416894" lon="13.3164374"><ele>628.0</ele><time>2026-04-11T09:22:37.215Z</time></trkpt><trkpt lat="42.9416841" lon="13.316536"><ele>628.0</ele><time>2026-04-11T09:22:41.251Z</time></trkpt><trkpt lat="42.941697" lon="13.3166291"><ele>628.0</ele><time>2026-04-11T09:22:44.231Z</time></trkpt><trkpt lat="42.9417009" lon="13.3167343"><ele>625.2857142857142</ele><time>2026-04-11T09:22:47.235Z</time></trkpt><trkpt lat="42.9417146" lon="13.3168188"><ele>622.5714285714286</ele><time>2026-04-11T09:22:50.258Z</time></trkpt><trkpt lat="42.9417236" lon="13.3169116"><ele>619.8571428571429</ele><time>2026-04-11T09:22:53.234Z</time></trkpt><trkpt lat="42.941757" lon="13.3169897"><ele>617.1428571428571</ele><time>2026-04-11T09:23:04.207Z</time></trkpt><trkpt lat="42.9418265" lon="13.3169953"><ele>614.4285714285714</ele><time>2026-04-11T09:23:07.199Z</time></trkpt><trkpt lat="42.9418603" lon="13.3168921"><ele>611.7142857142857</ele><time>2026-04-11T09:23:10.264Z</time></trkpt><trkpt lat="42.9417926" lon="13.3168274"><ele>609.0</ele><time>2026-04-11T09:23:13.244Z</time></trkpt><trkpt lat="42.9417212" lon="13.3167647"><ele>609.0</ele><time>2026-04-11T09:23:28.267Z</time></trkpt><trkpt lat="42.9417212" lon="13.3166573"><ele>609.0</ele><time>2026-04-11T09:23:30.257Z</time></trkpt><trkpt lat="42.9417587" lon="13.3165239"><ele>609.0</ele><time>2026-04-11T09:23:32.236Z</time></trkpt><trkpt lat="42.9417619" lon="13.3164179"><ele>609.0</ele><time>2026-04-11T09:23:34.237Z</time></trkpt><trkpt lat="42.9416987" lon="13.3163809"><ele>609.0</ele><time>2026-04-11T09:23:37.209Z</time></trkpt><trkpt lat="42.9416533" lon="13.3164482"><ele>609.0</ele><time>2026-04-11T09:23:39.194Z</time></trkpt><trkpt lat="42.9415833" lon="13.3165097"><ele>606.6666666666666</ele><time>2026-04-11T09:23:41.241Z</time></trkpt><trkpt lat="42.9414695" lon="13.3165637"><ele>604.3333333333334</ele><time>2026-04-11T09:23:43.262Z</time></trkpt><trkpt lat="42.9413961" lon="13.3165982"><ele>602.0</ele><time>2026-04-11T09:23:45.241Z</time></trkpt><trkpt lat="42.9413346" lon="13.3166925"><ele>599.6666666666667</ele><time>2026-04-11T09:23:48.24Z</time></trkpt><trkpt lat="42.9412945" lon="13.3167776"><ele>597.3333333333334</ele><time>2026-04-11T09:23:50.239Z</time></trkpt><trkpt lat="42.9412533" lon="13.3168522"><ele>595.0</ele><time>2026-04-11T09:23:52.202Z</time></trkpt><trkpt lat="42.9412091" lon="13.3169166"><ele>595.0</ele><time>2026-04-11T09:23:55.192Z</time></trkpt><trkpt lat="42.9412676" lon="13.3169685"><ele>595.0</ele><time>2026-04-11T09:24:00.223Z</time></trkpt><trkpt lat="42.9413406" lon="13.3169973"><ele>595.0</ele><time>2026-04-11T09:24:06.242Z</time></trkpt><trkpt lat="42.9414457" lon="13.3170207"><ele>595.0</ele><time>2026-04-11T09:24:09.266Z</time></trkpt><trkpt lat="42.9415095" lon="13.3170247"><ele>595.0</ele><time>2026-04-11T09:24:11.224Z</time></trkpt><trkpt lat="42.941605" lon="13.3170617"><ele>595.0</ele><time>2026-04-11T09:24:13.278Z</time></trkpt><trkpt lat="42.9416881" lon="13.3170994"><ele>593.6666666666667</ele><time>2026-04-11T09:24:14.236Z</time></trkpt><trkpt lat="42.9417762" lon="13.3171428"><ele>592.3333333333334</ele><time>2026-04-11T09:24:15.213Z</time></trkpt><trkpt lat="42.9418477" lon="13.317181"><ele>591.0</ele><time>2026-04-11T09:24:16.257Z</time></trkpt><trkpt lat="42.9419043" lon="13.317219"><ele>589.6666666666666</ele><time>2026-04-11T09:24:17.273Z</time></trkpt><trkpt lat="42.9419791" lon="13.3173131"><ele>588.3333333333333</ele><time>2026-04-11T09:24:19.231Z</time></trkpt><trkpt lat="42.942055" lon="13.3173989"><ele>587.0</ele><time>2026-04-11T09:24:21.223Z</time></trkpt><trkpt lat="42.9421108" lon="13.3174455"><ele>587.0</ele><time>2026-04-11T09:24:22.244Z</time></trkpt><trkpt lat="42.9421653" lon="13.3174917"><ele>587.0</ele><time>2026-04-11T09:24:23.225Z</time></trkpt><trkpt lat="42.9422697" lon="13.3175353"><ele>587.0</ele><time>2026-04-11T09:24:25.245Z</time></trkpt><trkpt lat="42.9423626" lon="13.3175177"><ele>587.0</ele><time>2026-04-11T09:24:27.24Z</time></trkpt><trkpt lat="42.9424248" lon="13.3175404"><ele>587.0</ele><time>2026-04-11T09:24:28.26Z</time></trkpt><trkpt lat="42.942507" lon="13.3175842"><ele>587.0</ele><time>2026-04-11T09:24:29.231Z</time></trkpt><trkpt lat="42.9425846" lon="13.3176262"><ele>587.6666666666666</ele><time>2026-04-11T09:24:30.225Z</time></trkpt><trkpt lat="42.9426746" lon="13.3176599"><ele>588.3333333333333</ele><time>2026-04-11T09:24:31.219Z</time></trkpt><trkpt lat="42.9427617" lon="13.3176886"><ele>589.0</ele><time>2026-04-11T09:24:32.236Z</time></trkpt><trkpt lat="42.9428459" lon="13.31773"><ele>589.6666666666666</ele><time>2026-04-11T09:24:33.224Z</time></trkpt><trkpt lat="42.9429256" lon="13.31777"><ele>590.3333333333334</ele><time>2026-04-11T09:24:34.233Z</time></trkpt><trkpt lat="42.9429969" lon="13.3178084"><ele>591.0</ele><time>2026-04-11T09:24:35.196Z</time></trkpt><trkpt lat="42.9430675" lon="13.3178232"><ele>591.0</ele><time>2026-04-11T09:24:36.22Z</time></trkpt><trkpt lat="42.9431771" lon="13.3177891"><ele>591.0</ele><time>2026-04-11T09:24:38.244Z</time></trkpt><trkpt lat="42.943253" lon="13.3176805"><ele>591.0</ele><time>2026-04-11T09:24:40.246Z</time></trkpt><trkpt lat="42.9433186" lon="13.3175614"><ele>591.0</ele><time>2026-04-11T09:24:42.233Z</time></trkpt><trkpt lat="42.9433936" lon="13.3175045"><ele>591.0</ele><time>2026-04-11T09:24:44.224Z</time></trkpt><trkpt lat="42.9434724" lon="13.3175345"><ele>590.8333333333334</ele><time>2026-04-11T09:24:46.208Z</time></trkpt><trkpt lat="42.9435118" lon="13.3176057"><ele>590.6666666666666</ele><time>2026-04-11T09:24:47.221Z</time></trkpt><trkpt lat="42.9435525" lon="13.3177031"><ele>590.5</ele><time>2026-04-11T09:24:48.227Z</time></trkpt><trkpt lat="42.9435884" lon="13.3178014"><ele>590.3333333333333</ele><time>2026-04-11T09:24:49.234Z</time></trkpt><trkpt lat="42.9436239" lon="13.3178851"><ele>590.1666666666666</ele><time>2026-04-11T09:24:50.221Z</time></trkpt><trkpt lat="42.9436838" lon="13.3180087"><ele>590.0</ele><time>2026-04-11T09:24:52.221Z</time></trkpt><trkpt lat="42.9436901" lon="13.3181438"><ele>590.0</ele><time>2026-04-11T09:24:54.217Z</time></trkpt><trkpt lat="42.943663" lon="13.3182413"><ele>590.0</ele><time>2026-04-11T09:24:58.22Z</time></trkpt><trkpt lat="42.9435874" lon="13.3182587"><ele>590.0</ele><time>2026-04-11T09:25:04.189Z</time></trkpt><trkpt lat="42.9434996" lon="13.3182864"><ele>590.0</ele><time>2026-04-11T09:25:06.237Z</time></trkpt><trkpt lat="42.9434068" lon="13.3183521"><ele>590.0</ele><time>2026-04-11T09:25:08.187Z</time></trkpt><trkpt lat="42.9433246" lon="13.3184204"><ele>590.0</ele><time>2026-04-11T09:25:10.19Z</time></trkpt><trkpt lat="42.9432561" lon="13.3185096"><ele>588.6666666666666</ele><time>2026-04-11T09:25:13.23Z</time></trkpt><trkpt lat="42.9432232" lon="13.318603"><ele>587.3333333333333</ele><time>2026-04-11T09:25:15.232Z</time></trkpt><trkpt lat="42.9431711" lon="13.3187113"><ele>586.0</ele><time>2026-04-11T09:25:17.216Z</time></trkpt><trkpt lat="42.9431096" lon="13.3188258"><ele>584.6666666666666</ele><time>2026-04-11T09:25:19.234Z</time></trkpt><trkpt lat="42.9430699" lon="13.3189076"><ele>583.3333333333334</ele><time>2026-04-11T09:25:21.228Z</time></trkpt><trkpt lat="42.9430045" lon="13.318966"><ele>582.0</ele><time>2026-04-11T09:25:35.257Z</time></trkpt><trkpt lat="42.9430556" lon="13.3188867"><ele>582.0</ele><time>2026-04-11T09:26:00.195Z</time></trkpt><trkpt lat="42.9431077" lon="13.3188089"><ele>582.0</ele><time>2026-04-11T09:26:02.205Z</time></trkpt><trkpt lat="42.9431662" lon="13.3187029"><ele>582.0</ele><time>2026-04-11T09:26:04.206Z</time></trkpt><trkpt lat="42.9432246" lon="13.318595"><ele>582.0</ele><time>2026-04-11T09:26:06.259Z</time></trkpt><trkpt lat="42.9432652" lon="13.3184848"><ele>582.0</ele><time>2026-04-11T09:26:08.219Z</time></trkpt><trkpt lat="42.9432855" lon="13.3183977"><ele>582.0</ele><time>2026-04-11T09:26:10.255Z</time></trkpt><trkpt lat="42.9433486" lon="13.3183435"><ele>583.3333333333334</ele><time>2026-04-11T09:26:12.228Z</time></trkpt><trkpt lat="42.9434337" lon="13.3182692"><ele>584.6666666666666</ele><time>2026-04-11T09:26:14.24Z</time></trkpt><trkpt lat="42.9435041" lon="13.3182419"><ele>586.0</ele><time>2026-04-11T09:26:16.24Z</time></trkpt><trkpt lat="42.9435826" lon="13.3182282"><ele>587.3333333333333</ele><time>2026-04-11T09:26:18.219Z</time></trkpt><trkpt lat="42.9436584" lon="13.3182422"><ele>588.6666666666666</ele><time>2026-04-11T09:26:21.245Z</time></trkpt><trkpt lat="42.9436018" lon="13.3181778"><ele>590.0</ele><time>2026-04-11T09:26:46.226Z</time></trkpt><trkpt lat="42.9435331" lon="13.318229"><ele>590.0</ele><time>2026-04-11T09:26:48.216Z</time></trkpt><trkpt lat="42.9434427" lon="13.3183139"><ele>590.0</ele><time>2026-04-11T09:26:50.235Z</time></trkpt><trkpt lat="42.943339" lon="13.3183885"><ele>590.0</ele><time>2026-04-11T09:26:52.239Z</time></trkpt><trkpt lat="42.9432382" lon="13.318439"><ele>590.0</ele><time>2026-04-11T09:26:54.239Z</time></trkpt><trkpt lat="42.9431298" lon="13.3184768"><ele>590.0</ele><time>2026-04-11T09:26:56.239Z</time></trkpt><trkpt lat="42.9430246" lon="13.318501"><ele>588.4</ele><time>2026-04-11T09:26:58.239Z</time></trkpt><trkpt lat="42.9429056" lon="13.3185228"><ele>586.8</ele><time>2026-04-11T09:27:00.2Z</time></trkpt><trkpt lat="42.9427879" lon="13.3185414"><ele>585.2</ele><time>2026-04-11T09:27:02.253Z</time></trkpt><trkpt lat="42.9426979" lon="13.3185627"><ele>583.6</ele><time>2026-04-11T09:27:04.211Z</time></trkpt><trkpt lat="42.9426132" lon="13.3185943"><ele>582.0</ele><time>2026-04-11T09:27:07.24Z</time></trkpt><trkpt lat="42.942526" lon="13.3186446"><ele>582.0</ele><time>2026-04-11T09:27:39.193Z</time></trkpt><trkpt lat="42.9424694" lon="13.3186903"><ele>582.0</ele><time>2026-04-11T09:28:55.197Z</time></trkpt><trkpt lat="42.9425425" lon="13.3186823"><ele>582.0</ele><time>2026-04-11T09:29:18.254Z</time></trkpt><trkpt lat="42.9426337" lon="13.3186189"><ele>582.0</ele><time>2026-04-11T09:29:20.226Z</time></trkpt><trkpt lat="42.9427277" lon="13.3185826"><ele>582.0</ele><time>2026-04-11T09:29:22.227Z</time></trkpt><trkpt lat="42.9428599" lon="13.3185536"><ele>582.0</ele><time>2026-04-11T09:29:24.222Z</time></trkpt><trkpt lat="42.9429419" lon="13.3185367"><ele>582.0</ele><time>2026-04-11T09:29:25.218Z</time></trkpt><trkpt lat="42.9430299" lon="13.3185143"><ele>582.0</ele><time>2026-04-11T09:29:26.226Z</time></trkpt><trkpt lat="42.9431078" lon="13.3184945"><ele>582.0</ele><time>2026-04-11T09:29:27.214Z</time></trkpt><trkpt lat="42.9431832" lon="13.318475"><ele>582.0</ele><time>2026-04-11T09:29:28.28Z</time></trkpt><trkpt lat="42.943258" lon="13.3184453"><ele>582.0</ele><time>2026-04-11T09:29:29.246Z</time></trkpt><trkpt lat="42.9433323" lon="13.3184015"><ele>583.3333333333334</ele><time>2026-04-11T09:29:30.239Z</time></trkpt><trkpt lat="42.9434036" lon="13.3183544"><ele>584.6666666666666</ele><time>2026-04-11T09:29:31.227Z</time></trkpt><trkpt lat="42.9434713" lon="13.318308"><ele>586.0</ele><time>2026-04-11T09:29:32.237Z</time></trkpt><trkpt lat="42.9435331" lon="13.3182631"><ele>587.3333333333333</ele><time>2026-04-11T09:29:33.224Z</time></trkpt><trkpt lat="42.9435923" lon="13.3182203"><ele>588.6666666666666</ele><time>2026-04-11T09:29:34.227Z</time></trkpt><trkpt lat="42.9436758" lon="13.3181128"><ele>590.0</ele><time>2026-04-11T09:29:36.22Z</time></trkpt><trkpt lat="42.9436939" lon="13.3179766"><ele>592.8</ele><time>2026-04-11T09:29:38.222Z</time></trkpt><trkpt lat="42.9436652" lon="13.3178119"><ele>595.6</ele><time>2026-04-11T09:29:40.242Z</time></trkpt><trkpt lat="42.9436135" lon="13.3177342"><ele>598.4</ele><time>2026-04-11T09:29:41.217Z</time></trkpt><trkpt lat="42.9435667" lon="13.3176575"><ele>601.2</ele><time>2026-04-11T09:29:42.233Z</time></trkpt><trkpt lat="42.9434948" lon="13.3175397"><ele>604.0</ele><time>2026-04-11T09:29:44.232Z</time></trkpt><trkpt lat="42.9434372" lon="13.3174889"><ele>601.4</ele><time>2026-04-11T09:29:46.233Z</time></trkpt><trkpt lat="42.9433664" lon="13.3175101"><ele>598.8</ele><time>2026-04-11T09:29:48.241Z</time></trkpt><trkpt lat="42.9432951" lon="13.3175764"><ele>596.2</ele><time>2026-04-11T09:29:50.235Z</time></trkpt><trkpt lat="42.9432098" lon="13.3176626"><ele>593.6</ele><time>2026-04-11T09:29:52.228Z</time></trkpt><trkpt lat="42.9431393" lon="13.3177073"><ele>591.0</ele><time>2026-04-11T09:29:53.253Z</time></trkpt><trkpt lat="42.943019" lon="13.3177113"><ele>591.0</ele><time>2026-04-11T09:29:55.249Z</time></trkpt><trkpt lat="42.9429287" lon="13.3176714"><ele>591.0</ele><time>2026-04-11T09:29:56.232Z</time></trkpt><trkpt lat="42.9428066" lon="13.3176357"><ele>591.0</ele><time>2026-04-11T09:29:57.23Z</time></trkpt><trkpt lat="42.9427043" lon="13.3176033"><ele>591.0</ele><time>2026-04-11T09:29:58.233Z</time></trkpt><trkpt lat="42.9425997" lon="13.3175647"><ele>591.0</ele><time>2026-04-11T09:29:59.24Z</time></trkpt><trkpt lat="42.9425113" lon="13.3175356"><ele>590.2</ele><time>2026-04-11T09:30:00.227Z</time></trkpt><trkpt lat="42.9424167" lon="13.317492"><ele>589.4000000000001</ele><time>2026-04-11T09:30:01.224Z</time></trkpt><trkpt lat="42.9423419" lon="13.3174891"><ele>588.6</ele><time>2026-04-11T09:30:02.234Z</time></trkpt><trkpt lat="42.9422718" lon="13.3174779"><ele>587.8000000000001</ele><time>2026-04-11T09:30:03.236Z</time></trkpt><trkpt lat="42.9421595" lon="13.3174717"><ele>587.0</ele><time>2026-04-11T09:30:05.267Z</time></trkpt><trkpt lat="42.9420626" lon="13.3173966"><ele>587.0</ele><time>2026-04-11T09:30:07.23Z</time></trkpt><trkpt lat="42.9419871" lon="13.3173191"><ele>587.0</ele><time>2026-04-11T09:30:09.243Z</time></trkpt><trkpt lat="42.9419214" lon="13.3172428"><ele>587.0</ele><time>2026-04-11T09:30:11.233Z</time></trkpt><trkpt lat="42.9418214" lon="13.3171567"><ele>587.0</ele><time>2026-04-11T09:30:13.226Z</time></trkpt><trkpt lat="42.9417603" lon="13.3171262"><ele>587.0</ele><time>2026-04-11T09:30:14.24Z</time></trkpt><trkpt lat="42.9416914" lon="13.3171003"><ele>587.0</ele><time>2026-04-11T09:30:15.239Z</time></trkpt><trkpt lat="42.941619" lon="13.3170726"><ele>588.3333333333333</ele><time>2026-04-11T09:30:16.256Z</time></trkpt><trkpt lat="42.9415531" lon="13.317045"><ele>589.6666666666666</ele><time>2026-04-11T09:30:17.293Z</time></trkpt><trkpt lat="42.9414484" lon="13.3170117"><ele>591.0</ele><time>2026-04-11T09:30:19.248Z</time></trkpt><trkpt lat="42.9413676" lon="13.3170378"><ele>592.3333333333334</ele><time>2026-04-11T09:30:21.239Z</time></trkpt><trkpt lat="42.9413271" lon="13.317106"><ele>593.6666666666667</ele><time>2026-04-11T09:30:24.251Z</time></trkpt><trkpt lat="42.9412656" lon="13.3171711"><ele>595.0</ele><time>2026-04-11T09:30:32.236Z</time></trkpt><trkpt lat="42.9411966" lon="13.3171924"><ele>595.0</ele><time>2026-04-11T09:30:40.189Z</time></trkpt><trkpt lat="42.9411405" lon="13.3172691"><ele>595.0</ele><time>2026-04-11T09:30:45.221Z</time></trkpt><trkpt lat="42.9410765" lon="13.3172465"><ele>595.0</ele><time>2026-04-11T09:30:47.243Z</time></trkpt><trkpt lat="42.9410381" lon="13.3171625"><ele>595.0</ele><time>2026-04-11T09:30:50.217Z</time></trkpt><trkpt lat="42.9409626" lon="13.3171152"><ele>595.0</ele><time>2026-04-11T09:30:54.264Z</time></trkpt><trkpt lat="42.9408864" lon="13.317111"><ele>595.0</ele><time>2026-04-11T09:34:54.238Z</time></trkpt><trkpt lat="42.9408146" lon="13.3171261"><ele>593.5</ele><time>2026-04-11T09:34:58.244Z</time></trkpt><trkpt lat="42.9407414" lon="13.317148"><ele>592.0</ele><time>2026-04-11T09:35:04.249Z</time></trkpt><trkpt lat="42.9406722" lon="13.3171911"><ele>590.5</ele><time>2026-04-11T09:35:11.218Z</time></trkpt><trkpt lat="42.9405991" lon="13.3172304"><ele>589.0</ele><time>2026-04-11T09:35:14.243Z</time></trkpt><trkpt lat="42.9405186" lon="13.3172474"><ele>587.5</ele><time>2026-04-11T09:35:17.244Z</time></trkpt><trkpt lat="42.9404396" lon="13.3171891"><ele>586.0</ele><time>2026-04-11T09:35:20.247Z</time></trkpt><trkpt lat="42.9403719" lon="13.3171325"><ele>586.0</ele><time>2026-04-11T09:35:22.234Z</time></trkpt><trkpt lat="42.9402966" lon="13.3170668"><ele>586.0</ele><time>2026-04-11T09:35:24.237Z</time></trkpt><trkpt lat="42.9402331" lon="13.3170343"><ele>586.0</ele><time>2026-04-11T09:35:26.218Z</time></trkpt><trkpt lat="42.940161" lon="13.3170103"><ele>586.0</ele><time>2026-04-11T09:35:28.209Z</time></trkpt><trkpt lat="42.9400986" lon="13.3169695"><ele>586.0</ele><time>2026-04-11T09:35:30.247Z</time></trkpt><trkpt lat="42.9400307" lon="13.3168954"><ele>586.0</ele><time>2026-04-11T09:35:33.236Z</time></trkpt><trkpt lat="42.9399935" lon="13.3168065"><ele>583.4285714285713</ele><time>2026-04-11T09:35:36.224Z</time></trkpt><trkpt lat="42.9400096" lon="13.3167115"><ele>580.8571428571429</ele><time>2026-04-11T09:35:38.232Z</time></trkpt><trkpt lat="42.9400199" lon="13.31662"><ele>578.2857142857142</ele><time>2026-04-11T09:35:40.224Z</time></trkpt><trkpt lat="42.9400163" lon="13.3165284"><ele>575.7142857142857</ele><time>2026-04-11T09:35:42.241Z</time></trkpt><trkpt lat="42.9400045" lon="13.316438"><ele>573.1428571428571</ele><time>2026-04-11T09:35:44.219Z</time></trkpt><trkpt lat="42.9399861" lon="13.316344"><ele>570.5714285714286</ele><time>2026-04-11T09:35:46.227Z</time></trkpt><trkpt lat="42.9399474" lon="13.3162266"><ele>568.0</ele><time>2026-04-11T09:35:48.245Z</time></trkpt><trkpt lat="42.9399177" lon="13.316149"><ele>568.0</ele><time>2026-04-11T09:35:50.255Z</time></trkpt><trkpt lat="42.9398882" lon="13.3160284"><ele>568.0</ele><time>2026-04-11T09:35:53.241Z</time></trkpt><trkpt lat="42.9398297" lon="13.3159569"><ele>568.0</ele><time>2026-04-11T09:35:55.226Z</time></trkpt><trkpt lat="42.939759" lon="13.3158358"><ele>568.0</ele><time>2026-04-11T09:35:57.228Z</time></trkpt><trkpt lat="42.939714" lon="13.3157356"><ele>568.0</ele><time>2026-04-11T09:35:59.217Z</time></trkpt><trkpt lat="42.9397194" lon="13.3156271"><ele>569.3333333333334</ele><time>2026-04-11T09:36:02.237Z</time></trkpt><trkpt lat="42.9397911" lon="13.315564"><ele>570.6666666666667</ele><time>2026-04-11T09:36:19.248Z</time></trkpt><trkpt lat="42.9397887" lon="13.3154625"><ele>572.0</ele><time>2026-04-11T09:36:22.216Z</time></trkpt><trkpt lat="42.9397313" lon="13.3154081"><ele>573.3333333333334</ele><time>2026-04-11T09:36:24.245Z</time></trkpt><trkpt lat="42.9396468" lon="13.3153922"><ele>574.6666666666666</ele><time>2026-04-11T09:36:26.191Z</time></trkpt><trkpt lat="42.9395285" lon="13.3153717"><ele>576.0</ele><time>2026-04-11T09:36:37.216Z</time></trkpt><trkpt lat="42.9394668" lon="13.3153001"><ele>576.0</ele><time>2026-04-11T09:36:54.227Z</time></trkpt><trkpt lat="42.9394286" lon="13.3152051"><ele>576.0</ele><time>2026-04-11T09:36:56.231Z</time></trkpt><trkpt lat="42.9394055" lon="13.3151034"><ele>576.0</ele><time>2026-04-11T09:36:59.204Z</time></trkpt><trkpt lat="42.9393963" lon="13.3149409"><ele>576.0</ele><time>2026-04-11T09:37:09.177Z</time></trkpt><trkpt lat="42.9394193" lon="13.3147717"><ele>576.0</ele><time>2026-04-11T09:37:27.222Z</time></trkpt><trkpt lat="42.9394493" lon="13.3146912"><ele>580.5</ele><time>2026-04-11T09:37:56.226Z</time></trkpt><trkpt lat="42.9394527" lon="13.3145402"><ele>585.0</ele><time>2026-04-11T09:38:06.258Z</time></trkpt><trkpt lat="42.9394435" lon="13.3144144"><ele>589.5</ele><time>2026-04-11T09:38:11.24Z</time></trkpt><trkpt lat="42.9394188" lon="13.3143343"><ele>594.0</ele><time>2026-04-11T09:38:13.236Z</time></trkpt><trkpt lat="42.9393473" lon="13.3142095"><ele>598.5</ele><time>2026-04-11T09:39:24.246Z</time></trkpt><trkpt lat="42.9393355" lon="13.3141232"><ele>603.0</ele><time>2026-04-11T09:39:48.245Z</time></trkpt><trkpt lat="42.9392587" lon="13.3141182"><ele>603.0</ele><time>2026-04-11T09:40:37.235Z</time></trkpt><trkpt lat="42.9393262" lon="13.3141868"><ele>603.0</ele><time>2026-04-11T09:41:02.238Z</time></trkpt><trkpt lat="42.939258" lon="13.3141543"><ele>603.0</ele><time>2026-04-11T09:42:23.21Z</time></trkpt><trkpt lat="42.9392146" lon="13.3140915"><ele>603.0</ele><time>2026-04-11T09:52:56.219Z</time></trkpt><trkpt lat="42.9391606" lon="13.3140448"><ele>603.0</ele><time>2026-04-11T09:53:07.219Z</time></trkpt><trkpt lat="42.9391059" lon="13.3139973"><ele>603.0</ele><time>2026-04-11T09:53:42.211Z</time></trkpt><trkpt lat="42.9390462" lon="13.3139413"><ele>603.0</ele><time>2026-04-11T09:54:08.206Z</time></trkpt><trkpt lat="42.9389571" lon="13.3138637"><ele>599.3333333333334</ele><time>2026-04-11T09:54:10.187Z</time></trkpt><trkpt lat="42.9388878" lon="13.3137923"><ele>595.6666666666666</ele><time>2026-04-11T09:54:12.216Z</time></trkpt><trkpt lat="42.9388348" lon="13.3136984"><ele>592.0</ele><time>2026-04-11T09:54:14.217Z</time></trkpt><trkpt lat="42.9387899" lon="13.3136134"><ele>588.3333333333333</ele><time>2026-04-11T09:54:16.175Z</time></trkpt><trkpt lat="42.9387576" lon="13.3135078"><ele>584.6666666666666</ele><time>2026-04-11T09:54:19.185Z</time></trkpt><trkpt lat="42.9387516" lon="13.3133898"><ele>581.0</ele><time>2026-04-11T09:54:22.231Z</time></trkpt><trkpt lat="42.9387626" lon="13.3132894"><ele>581.0</ele><time>2026-04-11T09:54:24.329Z</time></trkpt><trkpt lat="42.9387727" lon="13.3131909"><ele>581.0</ele><time>2026-04-11T09:54:26.242Z</time></trkpt><trkpt lat="42.9387655" lon="13.3131054"><ele>581.0</ele><time>2026-04-11T09:54:28.232Z</time></trkpt><trkpt lat="42.9387554" lon="13.3130191"><ele>581.0</ele><time>2026-04-11T09:54:33.227Z</time></trkpt><trkpt lat="42.9387369" lon="13.3129244"><ele>581.0</ele><time>2026-04-11T09:55:03.214Z</time></trkpt><trkpt lat="42.9387172" lon="13.3128363"><ele>581.0</ele><time>2026-04-11T09:55:05.223Z</time></trkpt><trkpt lat="42.9386942" lon="13.3127257"><ele>581.0</ele><time>2026-04-11T09:55:07.178Z</time></trkpt><trkpt lat="42.9386714" lon="13.3126452"><ele>579.1428571428571</ele><time>2026-04-11T09:55:11.24Z</time></trkpt><trkpt lat="42.9385977" lon="13.3126181"><ele>577.2857142857142</ele><time>2026-04-11T09:55:43.228Z</time></trkpt><trkpt lat="42.9385441" lon="13.312682"><ele>575.4285714285714</ele><time>2026-04-11T09:55:45.23Z</time></trkpt><trkpt lat="42.9385601" lon="13.3127909"><ele>573.5714285714286</ele><time>2026-04-11T09:55:52.225Z</time></trkpt><trkpt lat="42.9385363" lon="13.3128837"><ele>571.7142857142857</ele><time>2026-04-11T09:55:57.281Z</time></trkpt><trkpt lat="42.9384901" lon="13.3129481"><ele>569.8571428571429</ele><time>2026-04-11T09:56:03.231Z</time></trkpt><trkpt lat="42.9384222" lon="13.3130036"><ele>568.0</ele><time>2026-04-11T09:56:17.265Z</time></trkpt><trkpt lat="42.9383742" lon="13.3130619"><ele>567.8333333333334</ele><time>2026-04-11T09:56:19.273Z</time></trkpt><trkpt lat="42.9383239" lon="13.3131483"><ele>567.6666666666667</ele><time>2026-04-11T09:56:22.253Z</time></trkpt><trkpt lat="42.9383189" lon="13.3132423"><ele>567.5</ele><time>2026-04-11T09:56:25.18Z</time></trkpt><trkpt lat="42.9382883" lon="13.3133342"><ele>567.3333333333334</ele><time>2026-04-11T09:56:28.233Z</time></trkpt><trkpt lat="42.9382697" lon="13.3134417"><ele>567.1666666666666</ele><time>2026-04-11T09:56:30.239Z</time></trkpt><trkpt lat="42.9382434" lon="13.3135391"><ele>567.0</ele><time>2026-04-11T09:56:32.249Z</time></trkpt><trkpt lat="42.9382237" lon="13.3136365"><ele>567.0</ele><time>2026-04-11T09:56:35.211Z</time></trkpt><trkpt lat="42.9381319" lon="13.3136835"><ele>567.0</ele><time>2026-04-11T09:56:38.201Z</time></trkpt><trkpt lat="42.9380404" lon="13.3136741"><ele>567.0</ele><time>2026-04-11T09:56:41.226Z</time></trkpt><trkpt lat="42.9379675" lon="13.3136703"><ele>567.0</ele><time>2026-04-11T09:56:44.234Z</time></trkpt><trkpt lat="42.9378951" lon="13.3136829"><ele>567.0</ele><time>2026-04-11T09:56:47.255Z</time></trkpt><trkpt lat="42.9378233" lon="13.3136952"><ele>567.0</ele><time>2026-04-11T09:56:52.239Z</time></trkpt><trkpt lat="42.9377595" lon="13.3136764"><ele>567.0</ele><time>2026-04-11T10:01:25.215Z</time></trkpt><trkpt lat="42.9376922" lon="13.3136943"><ele>567.0</ele><time>2026-04-11T10:02:26.207Z</time></trkpt><trkpt lat="42.937706" lon="13.3136091"><ele>567.0</ele><time>2026-04-11T10:10:52.201Z</time></trkpt><trkpt lat="42.9377521" lon="13.3134591"><ele>567.0</ele><time>2026-04-11T10:14:18.26Z</time></trkpt><trkpt lat="42.9377581" lon="13.3133679"><ele>567.0</ele><time>2026-04-11T10:14:24.259Z</time></trkpt><trkpt lat="42.9378132" lon="13.3133228"><ele>567.0</ele><time>2026-04-11T10:14:40.258Z</time></trkpt><trkpt lat="42.9378633" lon="13.3132574"><ele>567.0</ele><time>2026-04-11T10:14:51.311Z</time></trkpt><trkpt lat="42.9378026" lon="13.3132311"><ele>567.0</ele><time>2026-04-11T10:23:59.224Z</time></trkpt><trkpt lat="42.9377299" lon="13.3132451"><ele>567.0</ele><time>2026-04-11T10:24:01.236Z</time></trkpt><trkpt lat="42.9376327" lon="13.313266"><ele>567.0</ele><time>2026-04-11T10:24:03.22Z</time></trkpt><trkpt lat="42.9375369" lon="13.3132833"><ele>567.0</ele><time>2026-04-11T10:24:05.177Z</time></trkpt><trkpt lat="42.9374677" lon="13.313297"><ele>567.0</ele><time>2026-04-11T10:24:07.189Z</time></trkpt><trkpt lat="42.9374803" lon="13.3132033"><ele>567.1666666666666</ele><time>2026-04-11T10:24:12.229Z</time></trkpt><trkpt lat="42.9375109" lon="13.3131164"><ele>567.3333333333334</ele><time>2026-04-11T10:24:14.216Z</time></trkpt><trkpt lat="42.9375787" lon="13.3130202"><ele>567.5</ele><time>2026-04-11T10:24:16.214Z</time></trkpt><trkpt lat="42.9376302" lon="13.312953"><ele>567.6666666666667</ele><time>2026-04-11T10:24:18.183Z</time></trkpt><trkpt lat="42.9376316" lon="13.3128551"><ele>567.8333333333334</ele><time>2026-04-11T10:27:14.192Z</time></trkpt><trkpt lat="42.9375592" lon="13.3128723"><ele>568.0</ele><time>2026-04-11T10:27:17.218Z</time></trkpt><trkpt lat="42.9374938" lon="13.3128962"><ele>573.7142857142857</ele><time>2026-04-11T10:27:19.214Z</time></trkpt><trkpt lat="42.9374316" lon="13.3129138"><ele>579.4285714285713</ele><time>2026-04-11T10:27:21.246Z</time></trkpt><trkpt lat="42.9373382" lon="13.3129175"><ele>585.1428571428571</ele><time>2026-04-11T10:27:24.278Z</time></trkpt><trkpt lat="42.9372745" lon="13.3129277"><ele>590.8571428571429</ele><time>2026-04-11T10:27:26.214Z</time></trkpt><trkpt lat="42.9372196" lon="13.3128831"><ele>596.5714285714287</ele><time>2026-04-11T10:27:32.263Z</time></trkpt><trkpt lat="42.9371565" lon="13.3129067"><ele>602.2857142857142</ele><time>2026-04-11T10:30:19.224Z</time></trkpt><trkpt lat="42.9371001" lon="13.3129559"><ele>608.0</ele><time>2026-04-11T10:30:31.211Z</time></trkpt><trkpt lat="42.9370318" lon="13.3129689"><ele>608.0</ele><time>2026-04-11T10:30:42.28Z</time></trkpt><trkpt lat="42.9369639" lon="13.3129972"><ele>608.0</ele><time>2026-04-11T10:30:58.282Z</time></trkpt></trkseg><trkseg><trkpt lat="42.9368325" lon="13.3130348"><ele>608.0</ele><time>2026-04-11T10:43:11.988Z</time></trkpt><trkpt lat="42.9367816" lon="13.3129624"><ele>608.0</ele><time>2026-04-11T10:43:13.981Z</time></trkpt><trkpt lat="42.9367206" lon="13.3128955"><ele>608.0</ele><time>2026-04-11T10:43:15.997Z</time></trkpt><trkpt lat="42.9366559" lon="13.3128925"><ele>608.0</ele><time>2026-04-11T10:43:17.979Z</time></trkpt><trkpt lat="42.9365808" lon="13.3128877"><ele>608.0</ele><time>2026-04-11T10:43:19.952Z</time></trkpt><trkpt lat="42.9364919" lon="13.3128417"><ele>608.0</ele><time>2026-04-11T10:43:21.989Z</time></trkpt><trkpt lat="42.9364032" lon="13.3127795"><ele>618.5999999999999</ele><time>2026-04-11T10:43:23.999Z</time></trkpt><trkpt lat="42.9363236" lon="13.3127202"><ele>629.1999999999999</ele><time>2026-04-11T10:43:26.99Z</time></trkpt><trkpt lat="42.936253" lon="13.31264"><ele>639.8</ele><time>2026-04-11T10:43:28.979Z</time></trkpt><trkpt lat="42.9361725" lon="13.3125693"><ele>650.4</ele><time>2026-04-11T10:43:30.982Z</time></trkpt><trkpt lat="42.9360788" lon="13.3125282"><ele>661.0</ele><time>2026-04-11T10:43:32.985Z</time></trkpt><trkpt lat="42.9359778" lon="13.3125089"><ele>664.1999999999999</ele><time>2026-04-11T10:43:34.984Z</time></trkpt><trkpt lat="42.9358705" lon="13.3125068"><ele>667.4</ele><time>2026-04-11T10:43:36.983Z</time></trkpt><trkpt lat="42.9357587" lon="13.3125057"><ele>670.6</ele><time>2026-04-11T10:43:38.996Z</time></trkpt><trkpt lat="42.9356614" lon="13.3125125"><ele>673.8</ele><time>2026-04-11T10:43:40.983Z</time></trkpt><trkpt lat="42.9355687" lon="13.3125038"><ele>677.0</ele><time>2026-04-11T10:43:42.982Z</time></trkpt><trkpt lat="42.9354809" lon="13.3124786"><ele>677.0</ele><time>2026-04-11T10:43:44.984Z</time></trkpt><trkpt lat="42.9353723" lon="13.3124381"><ele>677.0</ele><time>2026-04-11T10:43:46.999Z</time></trkpt><trkpt lat="42.9352721" lon="13.3123993"><ele>677.0</ele><time>2026-04-11T10:43:48.997Z</time></trkpt><trkpt lat="42.9351796" lon="13.3123532"><ele>677.0</ele><time>2026-04-11T10:43:50.985Z</time></trkpt><trkpt lat="42.9350904" lon="13.3122838"><ele>677.0</ele><time>2026-04-11T10:43:52.995Z</time></trkpt><trkpt lat="42.9350332" lon="13.3122388"><ele>678.8</ele><time>2026-04-11T10:43:53.998Z</time></trkpt><trkpt lat="42.9349388" lon="13.3121501"><ele>680.6</ele><time>2026-04-11T10:43:56.04Z</time></trkpt><trkpt lat="42.9348463" lon="13.3120712"><ele>682.4</ele><time>2026-04-11T10:43:57.995Z</time></trkpt><trkpt lat="42.9347314" lon="13.3120248"><ele>684.1999999999999</ele><time>2026-04-11T10:43:59.992Z</time></trkpt><trkpt lat="42.9346326" lon="13.3119842"><ele>686.0</ele><time>2026-04-11T10:44:02.055Z</time></trkpt><trkpt lat="42.9345155" lon="13.311936"><ele>686.0</ele><time>2026-04-11T10:44:03.965Z</time></trkpt><trkpt lat="42.9343979" lon="13.3118835"><ele>686.0</ele><time>2026-04-11T10:44:05.999Z</time></trkpt><trkpt lat="42.9343294" lon="13.3118552"><ele>686.0</ele><time>2026-04-11T10:44:06.993Z</time></trkpt><trkpt lat="42.9342605" lon="13.3118226"><ele>686.0</ele><time>2026-04-11T10:44:08.03Z</time></trkpt><trkpt lat="42.9342024" lon="13.3117868"><ele>686.0</ele><time>2026-04-11T10:44:08.989Z</time></trkpt><trkpt lat="42.934125" lon="13.3117048"><ele>686.0</ele><time>2026-04-11T10:44:11Z</time></trkpt><trkpt lat="42.9340608" lon="13.3115779"><ele>687.0</ele><time>2026-04-11T10:44:12.995Z</time></trkpt><trkpt lat="42.9339997" lon="13.3114574"><ele>688.0</ele><time>2026-04-11T10:44:14.969Z</time></trkpt><trkpt lat="42.9339438" lon="13.3113696"><ele>689.0</ele><time>2026-04-11T10:44:16.986Z</time></trkpt><trkpt lat="42.9338621" lon="13.3113014"><ele>690.0</ele><time>2026-04-11T10:44:18.989Z</time></trkpt><trkpt lat="42.9337781" lon="13.3112335"><ele>691.0</ele><time>2026-04-11T10:44:20.992Z</time></trkpt><trkpt lat="42.9336736" lon="13.3111851"><ele>691.0</ele><time>2026-04-11T10:44:22.987Z</time></trkpt><trkpt lat="42.9335587" lon="13.3111336"><ele>691.0</ele><time>2026-04-11T10:44:25.027Z</time></trkpt><trkpt lat="42.9334474" lon="13.3111086"><ele>691.0</ele><time>2026-04-11T10:44:26.987Z</time></trkpt><trkpt lat="42.9333293" lon="13.3111143"><ele>691.0</ele><time>2026-04-11T10:44:28.979Z</time></trkpt><trkpt lat="42.9332151" lon="13.3111527"><ele>694.8</ele><time>2026-04-11T10:44:31.008Z</time></trkpt><trkpt lat="42.93309" lon="13.3111491"><ele>698.5999999999999</ele><time>2026-04-11T10:44:32.992Z</time></trkpt><trkpt lat="42.933026" lon="13.311141"><ele>702.4</ele><time>2026-04-11T10:44:34.006Z</time></trkpt><trkpt lat="42.9329209" lon="13.3111307"><ele>706.2</ele><time>2026-04-11T10:44:36.055Z</time></trkpt><trkpt lat="42.9328313" lon="13.3111444"><ele>710.0</ele><time>2026-04-11T10:44:38.017Z</time></trkpt><trkpt lat="42.932724" lon="13.3111805"><ele>710.0</ele><time>2026-04-11T10:44:40.003Z</time></trkpt><trkpt lat="42.9326583" lon="13.3112115"><ele>710.0</ele><time>2026-04-11T10:44:40.98Z</time></trkpt><trkpt lat="42.932566" lon="13.3112628"><ele>710.0</ele><time>2026-04-11T10:44:42.985Z</time></trkpt><trkpt lat="42.932487" lon="13.3113233"><ele>710.0</ele><time>2026-04-11T10:44:45.015Z</time></trkpt><trkpt lat="42.9324141" lon="13.3113779"><ele>710.0</ele><time>2026-04-11T10:44:46.967Z</time></trkpt><trkpt lat="42.9323484" lon="13.3114151"><ele>710.0</ele><time>2026-04-11T10:44:48.99Z</time></trkpt><trkpt lat="42.9322618" lon="13.3114288"><ele>714.0</ele><time>2026-04-11T10:44:50.97Z</time></trkpt><trkpt lat="42.9321586" lon="13.3113899"><ele>718.0</ele><time>2026-04-11T10:44:53.031Z</time></trkpt><trkpt lat="42.9320479" lon="13.3113232"><ele>722.0</ele><time>2026-04-11T10:44:54.971Z</time></trkpt><trkpt lat="42.9319387" lon="13.3112585"><ele>726.0</ele><time>2026-04-11T10:44:56.994Z</time></trkpt><trkpt lat="42.9318777" lon="13.3112159"><ele>730.0</ele><time>2026-04-11T10:44:57.989Z</time></trkpt><trkpt lat="42.9318213" lon="13.311174"><ele>730.0</ele><time>2026-04-11T10:44:58.976Z</time></trkpt><trkpt lat="42.9317688" lon="13.3111264"><ele>730.0</ele><time>2026-04-11T10:44:59.954Z</time></trkpt><trkpt lat="42.9317152" lon="13.3110743"><ele>730.0</ele><time>2026-04-11T10:45:01.012Z</time></trkpt><trkpt lat="42.9316645" lon="13.3110117"><ele>730.0</ele><time>2026-04-11T10:45:01.998Z</time></trkpt><trkpt lat="42.9315823" lon="13.310934"><ele>730.0</ele><time>2026-04-11T10:45:04.007Z</time></trkpt><trkpt lat="42.9314894" lon="13.3108786"><ele>730.0</ele><time>2026-04-11T10:45:05.996Z</time></trkpt><trkpt lat="42.9314029" lon="13.3108526"><ele>732.3333333333334</ele><time>2026-04-11T10:45:08.008Z</time></trkpt><trkpt lat="42.9313413" lon="13.3107988"><ele>734.6666666666667</ele><time>2026-04-11T10:45:17.999Z</time></trkpt><trkpt lat="42.9313334" lon="13.3106888"><ele>737.0</ele><time>2026-04-11T10:45:21.99Z</time></trkpt><trkpt lat="42.9313528" lon="13.3105974"><ele>739.3333333333334</ele><time>2026-04-11T10:45:23.986Z</time></trkpt><trkpt lat="42.9313614" lon="13.3104691"><ele>741.6666666666666</ele><time>2026-04-11T10:45:26.012Z</time></trkpt><trkpt lat="42.9313733" lon="13.3103166"><ele>744.0</ele><time>2026-04-11T10:45:28.013Z</time></trkpt><trkpt lat="42.9313781" lon="13.3101738"><ele>745.1666666666666</ele><time>2026-04-11T10:45:29.969Z</time></trkpt><trkpt lat="42.9313284" lon="13.3100247"><ele>746.3333333333334</ele><time>2026-04-11T10:45:31.969Z</time></trkpt><trkpt lat="42.9312727" lon="13.3099439"><ele>747.5</ele><time>2026-04-11T10:45:32.996Z</time></trkpt><trkpt lat="42.9312211" lon="13.3098574"><ele>748.6666666666667</ele><time>2026-04-11T10:45:34.002Z</time></trkpt><trkpt lat="42.9311757" lon="13.3097801"><ele>749.8333333333334</ele><time>2026-04-11T10:45:34.967Z</time></trkpt><trkpt lat="42.9311364" lon="13.3096779"><ele>751.0</ele><time>2026-04-11T10:45:35.983Z</time></trkpt><trkpt lat="42.9311013" lon="13.3095678"><ele>752.0</ele><time>2026-04-11T10:45:37.028Z</time></trkpt><trkpt lat="42.9310669" lon="13.309458"><ele>753.0</ele><time>2026-04-11T10:45:37.998Z</time></trkpt><trkpt lat="42.9310462" lon="13.3093416"><ele>754.0</ele><time>2026-04-11T10:45:39.96Z</time></trkpt><trkpt lat="42.9309519" lon="13.3092689"><ele>755.0</ele><time>2026-04-11T10:45:42.993Z</time></trkpt><trkpt lat="42.9308319" lon="13.3092386"><ele>756.0</ele><time>2026-04-11T10:45:44.964Z</time></trkpt><trkpt lat="42.9307641" lon="13.3092121"><ele>757.6666666666666</ele><time>2026-04-11T10:45:45.959Z</time></trkpt><trkpt lat="42.9306889" lon="13.3091824"><ele>759.3333333333334</ele><time>2026-04-11T10:45:47.019Z</time></trkpt><trkpt lat="42.9306108" lon="13.3091524"><ele>761.0</ele><time>2026-04-11T10:45:48.045Z</time></trkpt><trkpt lat="42.9305301" lon="13.3091238"><ele>762.6666666666667</ele><time>2026-04-11T10:45:49.003Z</time></trkpt><trkpt lat="42.9304411" lon="13.3090957"><ele>764.3333333333334</ele><time>2026-04-11T10:45:49.962Z</time></trkpt><trkpt lat="42.9303305" lon="13.3090576"><ele>766.0</ele><time>2026-04-11T10:45:51Z</time></trkpt><trkpt lat="42.9302107" lon="13.3090086"><ele>766.0</ele><time>2026-04-11T10:45:51.993Z</time></trkpt><trkpt lat="42.9300987" lon="13.3089614"><ele>766.0</ele><time>2026-04-11T10:45:53.005Z</time></trkpt><trkpt lat="42.9300069" lon="13.3088969"><ele>766.0</ele><time>2026-04-11T10:45:54.055Z</time></trkpt><trkpt lat="42.9299234" lon="13.3088369"><ele>766.0</ele><time>2026-04-11T10:45:54.975Z</time></trkpt><trkpt lat="42.9298449" lon="13.3087863"><ele>766.0</ele><time>2026-04-11T10:45:56.001Z</time></trkpt><trkpt lat="42.9297643" lon="13.3087385"><ele>767.8333333333334</ele><time>2026-04-11T10:45:57Z</time></trkpt><trkpt lat="42.9296909" lon="13.3087083"><ele>769.6666666666667</ele><time>2026-04-11T10:45:58.014Z</time></trkpt><trkpt lat="42.9296112" lon="13.3086773"><ele>771.5</ele><time>2026-04-11T10:45:58.989Z</time></trkpt><trkpt lat="42.9295266" lon="13.3086493"><ele>773.3333333333334</ele><time>2026-04-11T10:45:59.986Z</time></trkpt><trkpt lat="42.9294398" lon="13.3086313"><ele>775.1666666666666</ele><time>2026-04-11T10:46:01.041Z</time></trkpt><trkpt lat="42.9293479" lon="13.3086144"><ele>777.0</ele><time>2026-04-11T10:46:01.991Z</time></trkpt><trkpt lat="42.9292567" lon="13.3085985"><ele>779.3333333333334</ele><time>2026-04-11T10:46:02.983Z</time></trkpt><trkpt lat="42.9291608" lon="13.3085806"><ele>781.6666666666667</ele><time>2026-04-11T10:46:03.996Z</time></trkpt><trkpt lat="42.9290756" lon="13.3085658"><ele>784.0</ele><time>2026-04-11T10:46:04.969Z</time></trkpt><trkpt lat="42.9290112" lon="13.3085428"><ele>786.3333333333334</ele><time>2026-04-11T10:46:05.999Z</time></trkpt><trkpt lat="42.9289313" lon="13.3085151"><ele>788.6666666666667</ele><time>2026-04-11T10:46:07.995Z</time></trkpt><trkpt lat="42.9288212" lon="13.3085169"><ele>791.0</ele><time>2026-04-11T10:46:21.005Z</time></trkpt><trkpt lat="42.9287846" lon="13.3086068"><ele>791.0000000000001</ele><time>2026-04-11T10:46:22.012Z</time></trkpt><trkpt lat="42.9287499" lon="13.3086981"><ele>791.0</ele><time>2026-04-11T10:46:22.976Z</time></trkpt><trkpt lat="42.9287333" lon="13.3087901"><ele>791.0</ele><time>2026-04-11T10:46:23.993Z</time></trkpt><trkpt lat="42.9287251" lon="13.3088843"><ele>791.0</ele><time>2026-04-11T10:46:24.965Z</time></trkpt><trkpt lat="42.9287301" lon="13.3089841"><ele>791.0000000000001</ele><time>2026-04-11T10:46:25.99Z</time></trkpt><trkpt lat="42.9287349" lon="13.3090825"><ele>791.0</ele><time>2026-04-11T10:46:26.986Z</time></trkpt><trkpt lat="42.9287352" lon="13.3092502"><ele>791.3333333333334</ele><time>2026-04-11T10:46:28.969Z</time></trkpt><trkpt lat="42.9287452" lon="13.3093493"><ele>791.6666666666667</ele><time>2026-04-11T10:46:31.011Z</time></trkpt><trkpt lat="42.9287413" lon="13.3094442"><ele>792.0</ele><time>2026-04-11T10:47:58.951Z</time></trkpt><trkpt lat="42.9287235" lon="13.3096018"><ele>792.3333333333333</ele><time>2026-04-11T10:48:01.052Z</time></trkpt><trkpt lat="42.9287096" lon="13.3096968"><ele>792.6666666666666</ele><time>2026-04-11T10:48:01.978Z</time></trkpt><trkpt lat="42.928696" lon="13.3097923"><ele>793.0</ele><time>2026-04-11T10:48:03.018Z</time></trkpt><trkpt lat="42.9286889" lon="13.3098986"><ele>792.9999999999999</ele><time>2026-04-11T10:48:04Z</time></trkpt><trkpt lat="42.9286908" lon="13.3100183"><ele>793.0</ele><time>2026-04-11T10:48:04.998Z</time></trkpt><trkpt lat="42.9286956" lon="13.3101431"><ele>793.0</ele><time>2026-04-11T10:48:05.987Z</time></trkpt><trkpt lat="42.9286978" lon="13.3102592"><ele>793.0</ele><time>2026-04-11T10:48:06.987Z</time></trkpt><trkpt lat="42.9286921" lon="13.3103655"><ele>792.9999999999999</ele><time>2026-04-11T10:48:07.989Z</time></trkpt><trkpt lat="42.9286789" lon="13.3104569"><ele>793.0</ele><time>2026-04-11T10:48:09.014Z</time></trkpt><trkpt lat="42.9286591" lon="13.3105432"><ele>793.2857142857143</ele><time>2026-04-11T10:48:09.962Z</time></trkpt><trkpt lat="42.9286388" lon="13.3106378"><ele>793.5714285714286</ele><time>2026-04-11T10:48:10.994Z</time></trkpt><trkpt lat="42.9286223" lon="13.3107387"><ele>793.8571428571429</ele><time>2026-04-11T10:48:11.969Z</time></trkpt><trkpt lat="42.9286207" lon="13.3108386"><ele>794.1428571428571</ele><time>2026-04-11T10:48:13.007Z</time></trkpt><trkpt lat="42.9286336" lon="13.3109399"><ele>794.4285714285714</ele><time>2026-04-11T10:48:13.999Z</time></trkpt><trkpt lat="42.9286651" lon="13.3110234"><ele>794.7142857142858</ele><time>2026-04-11T10:48:14.983Z</time></trkpt><trkpt lat="42.9287113" lon="13.3110984"><ele>795.0</ele><time>2026-04-11T10:48:15.998Z</time></trkpt><trkpt lat="42.9287561" lon="13.3111728"><ele>795.0</ele><time>2026-04-11T10:48:17.023Z</time></trkpt><trkpt lat="42.9287994" lon="13.3112437"><ele>795.0</ele><time>2026-04-11T10:48:18.009Z</time></trkpt><trkpt lat="42.92886" lon="13.3113938"><ele>795.0</ele><time>2026-04-11T10:48:19.994Z</time></trkpt><trkpt lat="42.9289004" lon="13.3114786"><ele>795.0</ele><time>2026-04-11T10:48:20.999Z</time></trkpt><trkpt lat="42.9289332" lon="13.3115675"><ele>795.0</ele><time>2026-04-11T10:48:21.992Z</time></trkpt><trkpt lat="42.9289618" lon="13.3116609"><ele>795.0</ele><time>2026-04-11T10:48:23.02Z</time></trkpt><trkpt lat="42.9289892" lon="13.3117478"><ele>798.4</ele><time>2026-04-11T10:48:23.986Z</time></trkpt><trkpt lat="42.9290096" lon="13.3118339"><ele>801.8</ele><time>2026-04-11T10:48:25.005Z</time></trkpt><trkpt lat="42.9290389" lon="13.3119905"><ele>805.2</ele><time>2026-04-11T10:48:27.006Z</time></trkpt><trkpt lat="42.9290547" lon="13.3121219"><ele>808.6</ele><time>2026-04-11T10:48:29.011Z</time></trkpt><trkpt lat="42.9290829" lon="13.3122601"><ele>812.0</ele><time>2026-04-11T10:48:30.989Z</time></trkpt><trkpt lat="42.9291389" lon="13.3123961"><ele>810.1666666666667</ele><time>2026-04-11T10:48:32.997Z</time></trkpt><trkpt lat="42.9291771" lon="13.3124939"><ele>808.3333333333334</ele><time>2026-04-11T10:48:33.998Z</time></trkpt><trkpt lat="42.9292139" lon="13.3125826"><ele>806.5</ele><time>2026-04-11T10:48:35Z</time></trkpt><trkpt lat="42.9292654" lon="13.3126784"><ele>804.6666666666667</ele><time>2026-04-11T10:48:35.985Z</time></trkpt><trkpt lat="42.9293107" lon="13.3128274"><ele>802.8333333333334</ele><time>2026-04-11T10:48:38.003Z</time></trkpt><trkpt lat="42.9293371" lon="13.3129104"><ele>801.0</ele><time>2026-04-11T10:48:38.972Z</time></trkpt><trkpt lat="42.9294118" lon="13.3130415"><ele>805.0</ele><time>2026-04-11T10:48:40.99Z</time></trkpt><trkpt lat="42.9294963" lon="13.3132401"><ele>809.0</ele><time>2026-04-11T10:48:43.002Z</time></trkpt><trkpt lat="42.9295271" lon="13.3133817"><ele>813.0</ele><time>2026-04-11T10:48:43.999Z</time></trkpt><trkpt lat="42.929538" lon="13.3134677"><ele>817.0</ele><time>2026-04-11T10:48:44.987Z</time></trkpt><trkpt lat="42.9295485" lon="13.31357"><ele>821.0</ele><time>2026-04-11T10:48:45.986Z</time></trkpt><trkpt lat="42.9295687" lon="13.3136934"><ele>821.0</ele><time>2026-04-11T10:48:47.001Z</time></trkpt><trkpt lat="42.9295668" lon="13.3138355"><ele>821.0</ele><time>2026-04-11T10:48:48.987Z</time></trkpt><trkpt lat="42.9295548" lon="13.3139204"><ele>821.0</ele><time>2026-04-11T10:48:49.993Z</time></trkpt><trkpt lat="42.9295393" lon="13.314059"><ele>821.0</ele><time>2026-04-11T10:48:52.007Z</time></trkpt><trkpt lat="42.9294533" lon="13.3140412"><ele>821.0</ele><time>2026-04-11T10:48:55.996Z</time></trkpt><trkpt lat="42.929334" lon="13.3140033"><ele>824.0000000000001</ele><time>2026-04-11T10:48:57.954Z</time></trkpt><trkpt lat="42.9292667" lon="13.3139691"><ele>827.0</ele><time>2026-04-11T10:48:59.039Z</time></trkpt><trkpt lat="42.9292028" lon="13.313925"><ele>830.0</ele><time>2026-04-11T10:49:00.006Z</time></trkpt><trkpt lat="42.9291419" lon="13.3138618"><ele>833.0</ele><time>2026-04-11T10:49:00.969Z</time></trkpt><trkpt lat="42.9290776" lon="13.313769"><ele>836.0000000000001</ele><time>2026-04-11T10:49:02.018Z</time></trkpt><trkpt lat="42.929009" lon="13.313656"><ele>839.0</ele><time>2026-04-11T10:49:02.959Z</time></trkpt><trkpt lat="42.928929" lon="13.3135369"><ele>843.4000000000001</ele><time>2026-04-11T10:49:04.002Z</time></trkpt><trkpt lat="42.9288623" lon="13.3134291"><ele>847.8</ele><time>2026-04-11T10:49:04.999Z</time></trkpt><trkpt lat="42.928804" lon="13.3133316"><ele>852.1999999999999</ele><time>2026-04-11T10:49:05.995Z</time></trkpt><trkpt lat="42.928743" lon="13.3132431"><ele>856.5999999999999</ele><time>2026-04-11T10:49:07.019Z</time></trkpt><trkpt lat="42.9286651" lon="13.3131712"><ele>861.0</ele><time>2026-04-11T10:49:08.016Z</time></trkpt><trkpt lat="42.9285646" lon="13.3130927"><ele>864.0</ele><time>2026-04-11T10:49:09.002Z</time></trkpt><trkpt lat="42.9284419" lon="13.3130083"><ele>867.0</ele><time>2026-04-11T10:49:09.984Z</time></trkpt><trkpt lat="42.9283253" lon="13.3129257"><ele>870.0</ele><time>2026-04-11T10:49:10.994Z</time></trkpt><trkpt lat="42.9282244" lon="13.312859"><ele>873.0</ele><time>2026-04-11T10:49:12.002Z</time></trkpt><trkpt lat="42.9281185" lon="13.3127995"><ele>873.0</ele><time>2026-04-11T10:49:12.986Z</time></trkpt><trkpt lat="42.9280304" lon="13.3127442"><ele>873.0</ele><time>2026-04-11T10:49:13.999Z</time></trkpt><trkpt lat="42.927951" lon="13.3126964"><ele>873.0</ele><time>2026-04-11T10:49:14.998Z</time></trkpt><trkpt lat="42.9278989" lon="13.3126393"><ele>873.0</ele><time>2026-04-11T10:49:15.958Z</time></trkpt><trkpt lat="42.9278653" lon="13.312565"><ele>873.0</ele><time>2026-04-11T10:49:17.007Z</time></trkpt><trkpt lat="42.9277948" lon="13.3124414"><ele>873.0</ele><time>2026-04-11T10:49:18.985Z</time></trkpt><trkpt lat="42.9277428" lon="13.3123786"><ele>873.0</ele><time>2026-04-11T10:49:19.991Z</time></trkpt><trkpt lat="42.9276748" lon="13.3123203"><ele>873.0</ele><time>2026-04-11T10:49:20.949Z</time></trkpt><trkpt lat="42.9275657" lon="13.3122449"><ele>873.0</ele><time>2026-04-11T10:49:22.003Z</time></trkpt><trkpt lat="42.9274695" lon="13.3121806"><ele>873.0</ele><time>2026-04-11T10:49:23.015Z</time></trkpt><trkpt lat="42.9273803" lon="13.3121096"><ele>873.0</ele><time>2026-04-11T10:49:24.012Z</time></trkpt><trkpt lat="42.9272959" lon="13.312042"><ele>877.0</ele><time>2026-04-11T10:49:25.016Z</time></trkpt><trkpt lat="42.9272264" lon="13.3119731"><ele>881.0</ele><time>2026-04-11T10:49:25.981Z</time></trkpt><trkpt lat="42.9271593" lon="13.311894"><ele>885.0</ele><time>2026-04-11T10:49:26.977Z</time></trkpt><trkpt lat="42.9270921" lon="13.3118126"><ele>889.0</ele><time>2026-04-11T10:49:28.012Z</time></trkpt><trkpt lat="42.9269988" lon="13.3117461"><ele>893.0</ele><time>2026-04-11T10:49:29.003Z</time></trkpt><trkpt lat="42.9269047" lon="13.31168"><ele>893.0</ele><time>2026-04-11T10:49:29.988Z</time></trkpt><trkpt lat="42.9268158" lon="13.3116126"><ele>893.0</ele><time>2026-04-11T10:49:30.952Z</time></trkpt><trkpt lat="42.9267318" lon="13.3115512"><ele>893.0</ele><time>2026-04-11T10:49:32.035Z</time></trkpt><trkpt lat="42.9266547" lon="13.3114898"><ele>893.0</ele><time>2026-04-11T10:49:32.989Z</time></trkpt><trkpt lat="42.9265867" lon="13.3114246"><ele>893.0</ele><time>2026-04-11T10:49:34.005Z</time></trkpt><trkpt lat="42.9265151" lon="13.3113567"><ele>897.8</ele><time>2026-04-11T10:49:34.995Z</time></trkpt><trkpt lat="42.9264528" lon="13.3112781"><ele>902.5999999999999</ele><time>2026-04-11T10:49:35.948Z</time></trkpt><trkpt lat="42.9263898" lon="13.3111983"><ele>907.4000000000001</ele><time>2026-04-11T10:49:37.019Z</time></trkpt><trkpt lat="42.926319" lon="13.3111169"><ele>912.2</ele><time>2026-04-11T10:49:37.989Z</time></trkpt><trkpt lat="42.9262377" lon="13.3110211"><ele>917.0</ele><time>2026-04-11T10:49:39Z</time></trkpt><trkpt lat="42.9261552" lon="13.3109322"><ele>917.0000000000001</ele><time>2026-04-11T10:49:40.002Z</time></trkpt><trkpt lat="42.9260976" lon="13.3108622"><ele>917.0</ele><time>2026-04-11T10:49:40.981Z</time></trkpt><trkpt lat="42.9260386" lon="13.3107925"><ele>917.0</ele><time>2026-04-11T10:49:42Z</time></trkpt><trkpt lat="42.9259972" lon="13.310701"><ele>917.0</ele><time>2026-04-11T10:49:43.005Z</time></trkpt><trkpt lat="42.9259588" lon="13.3106053"><ele>917.0000000000001</ele><time>2026-04-11T10:49:44.013Z</time></trkpt><trkpt lat="42.9259084" lon="13.3105109"><ele>917.0</ele><time>2026-04-11T10:49:45.012Z</time></trkpt><trkpt lat="42.925842" lon="13.3104187"><ele>920.0</ele><time>2026-04-11T10:49:45.971Z</time></trkpt><trkpt lat="42.9257563" lon="13.3103293"><ele>923.0</ele><time>2026-04-11T10:49:46.997Z</time></trkpt><trkpt lat="42.9256512" lon="13.3102287"><ele>926.0</ele><time>2026-04-11T10:49:47.988Z</time></trkpt><trkpt lat="42.9255343" lon="13.310108"><ele>929.0</ele><time>2026-04-11T10:49:48.968Z</time></trkpt><trkpt lat="42.9254171" lon="13.3099767"><ele>929.0</ele><time>2026-04-11T10:49:50.005Z</time></trkpt><trkpt lat="42.9253156" lon="13.3098531"><ele>929.0</ele><time>2026-04-11T10:49:50.973Z</time></trkpt><trkpt lat="42.9252272" lon="13.3097417"><ele>929.0</ele><time>2026-04-11T10:49:51.992Z</time></trkpt><trkpt lat="42.9251434" lon="13.3096337"><ele>929.0</ele><time>2026-04-11T10:49:52.985Z</time></trkpt><trkpt lat="42.9250714" lon="13.3095404"><ele>929.2</ele><time>2026-04-11T10:49:53.971Z</time></trkpt><trkpt lat="42.9250165" lon="13.3094657"><ele>929.4000000000001</ele><time>2026-04-11T10:49:55.007Z</time></trkpt><trkpt lat="42.9249344" lon="13.3093525"><ele>929.6</ele><time>2026-04-11T10:49:56.999Z</time></trkpt><trkpt lat="42.9248397" lon="13.3093224"><ele>929.8</ele><time>2026-04-11T10:49:59.047Z</time></trkpt><trkpt lat="42.9247088" lon="13.3093991"><ele>930.0</ele><time>2026-04-11T10:50:00.966Z</time></trkpt><trkpt lat="42.9246284" lon="13.3094647"><ele>930.0</ele><time>2026-04-11T10:50:02Z</time></trkpt><trkpt lat="42.9245312" lon="13.3095397"><ele>930.0</ele><time>2026-04-11T10:50:02.996Z</time></trkpt><trkpt lat="42.9244322" lon="13.3096169"><ele>930.0</ele><time>2026-04-11T10:50:04.004Z</time></trkpt><trkpt lat="42.9243354" lon="13.3096881"><ele>930.0</ele><time>2026-04-11T10:50:04.995Z</time></trkpt><trkpt lat="42.9242663" lon="13.3097414"><ele>930.0</ele><time>2026-04-11T10:50:05.954Z</time></trkpt><trkpt lat="42.9242041" lon="13.3097877"><ele>929.8333333333334</ele><time>2026-04-11T10:50:07.016Z</time></trkpt><trkpt lat="42.9240922" lon="13.3098549"><ele>929.6666666666667</ele><time>2026-04-11T10:50:09Z</time></trkpt><trkpt lat="42.9240226" lon="13.3098725"><ele>929.5</ele><time>2026-04-11T10:50:09.989Z</time></trkpt><trkpt lat="42.9239446" lon="13.3098845"><ele>929.3333333333334</ele><time>2026-04-11T10:50:10.989Z</time></trkpt><trkpt lat="42.9238625" lon="13.3098971"><ele>929.1666666666667</ele><time>2026-04-11T10:50:12.012Z</time></trkpt><trkpt lat="42.9237882" lon="13.3099103"><ele>929.0</ele><time>2026-04-11T10:50:13.018Z</time></trkpt><trkpt lat="42.9237195" lon="13.3099164"><ele>929.0</ele><time>2026-04-11T10:50:14.012Z</time></trkpt><trkpt lat="42.9236543" lon="13.3099093"><ele>929.0000000000001</ele><time>2026-04-11T10:50:15.016Z</time></trkpt><trkpt lat="42.9235888" lon="13.3098936"><ele>929.0</ele><time>2026-04-11T10:50:16.009Z</time></trkpt><trkpt lat="42.923521" lon="13.3098715"><ele>929.0</ele><time>2026-04-11T10:50:16.987Z</time></trkpt><trkpt lat="42.9234509" lon="13.3098442"><ele>929.0000000000001</ele><time>2026-04-11T10:50:17.987Z</time></trkpt><trkpt lat="42.9233792" lon="13.3098227"><ele>929.0</ele><time>2026-04-11T10:50:19.017Z</time></trkpt><trkpt lat="42.9233138" lon="13.3098177"><ele>929.0</ele><time>2026-04-11T10:50:19.995Z</time></trkpt><trkpt lat="42.923246" lon="13.3098241"><ele>929.5000000000001</ele><time>2026-04-11T10:50:21.009Z</time></trkpt><trkpt lat="42.9231697" lon="13.3098343"><ele>930.0</ele><time>2026-04-11T10:50:22.01Z</time></trkpt><trkpt lat="42.9230898" lon="13.3098538"><ele>930.5</ele><time>2026-04-11T10:50:22.943Z</time></trkpt><trkpt lat="42.9230158" lon="13.3098671"><ele>931.0</ele><time>2026-04-11T10:50:24.023Z</time></trkpt><trkpt lat="42.9229509" lon="13.3098831"><ele>931.5000000000001</ele><time>2026-04-11T10:50:25.004Z</time></trkpt><trkpt lat="42.9228773" lon="13.3098906"><ele>932.0</ele><time>2026-04-11T10:50:25.983Z</time></trkpt><trkpt lat="42.9227935" lon="13.3098977"><ele>932.0</ele><time>2026-04-11T10:50:27.013Z</time></trkpt><trkpt lat="42.9227009" lon="13.3098951"><ele>932.0</ele><time>2026-04-11T10:50:27.996Z</time></trkpt><trkpt lat="42.9226075" lon="13.3098886"><ele>932.0</ele><time>2026-04-11T10:50:29.006Z</time></trkpt><trkpt lat="42.9225094" lon="13.3098792"><ele>932.0</ele><time>2026-04-11T10:50:29.998Z</time></trkpt><trkpt lat="42.9224186" lon="13.3098717"><ele>932.0</ele><time>2026-04-11T10:50:30.973Z</time></trkpt><trkpt lat="42.9223331" lon="13.3098654"><ele>932.3333333333334</ele><time>2026-04-11T10:50:32.004Z</time></trkpt><trkpt lat="42.9222559" lon="13.3098637"><ele>932.6666666666667</ele><time>2026-04-11T10:50:32.987Z</time></trkpt><trkpt lat="42.9221759" lon="13.3098665"><ele>933.0</ele><time>2026-04-11T10:50:33.997Z</time></trkpt><trkpt lat="42.9220849" lon="13.3098657"><ele>933.3333333333333</ele><time>2026-04-11T10:50:35.019Z</time></trkpt><trkpt lat="42.921998" lon="13.3098573"><ele>933.6666666666666</ele><time>2026-04-11T10:50:35.981Z</time></trkpt><trkpt lat="42.9219063" lon="13.3098427"><ele>934.0</ele><time>2026-04-11T10:50:36.991Z</time></trkpt><trkpt lat="42.921822" lon="13.3098285"><ele>933.9999999999999</ele><time>2026-04-11T10:50:38.004Z</time></trkpt><trkpt lat="42.9217517" lon="13.3098164"><ele>934.0</ele><time>2026-04-11T10:50:39.032Z</time></trkpt><trkpt lat="42.9216844" lon="13.3098015"><ele>933.9999999999999</ele><time>2026-04-11T10:50:40.012Z</time></trkpt><trkpt lat="42.9216148" lon="13.3097779"><ele>933.9999999999999</ele><time>2026-04-11T10:50:41.01Z</time></trkpt><trkpt lat="42.9215419" lon="13.3097534"><ele>934.0</ele><time>2026-04-11T10:50:42.013Z</time></trkpt><trkpt lat="42.9214683" lon="13.309738"><ele>933.9999999999999</ele><time>2026-04-11T10:50:43.006Z</time></trkpt><trkpt lat="42.921385" lon="13.3097461"><ele>933.9999999999999</ele><time>2026-04-11T10:50:43.99Z</time></trkpt><trkpt lat="42.9213038" lon="13.3097756"><ele>933.4999999999999</ele><time>2026-04-11T10:50:45.011Z</time></trkpt><trkpt lat="42.9212402" lon="13.3098002"><ele>933.0</ele><time>2026-04-11T10:50:45.988Z</time></trkpt><trkpt lat="42.9211752" lon="13.3098115"><ele>932.5</ele><time>2026-04-11T10:50:46.994Z</time></trkpt><trkpt lat="42.9211009" lon="13.3098095"><ele>932.0</ele><time>2026-04-11T10:50:48Z</time></trkpt><trkpt lat="42.9210186" lon="13.3098032"><ele>931.4999999999999</ele><time>2026-04-11T10:50:48.981Z</time></trkpt><trkpt lat="42.9209326" lon="13.3097969"><ele>931.0</ele><time>2026-04-11T10:50:49.993Z</time></trkpt><trkpt lat="42.9208455" lon="13.3097899"><ele>931.0</ele><time>2026-04-11T10:50:50.985Z</time></trkpt><trkpt lat="42.9207565" lon="13.3097839"><ele>930.9999999999999</ele><time>2026-04-11T10:50:52.002Z</time></trkpt><trkpt lat="42.9206611" lon="13.3097816"><ele>930.9999999999999</ele><time>2026-04-11T10:50:52.993Z</time></trkpt><trkpt lat="42.9205657" lon="13.3097757"><ele>931.0</ele><time>2026-04-11T10:50:53.997Z</time></trkpt><trkpt lat="42.9204698" lon="13.3097573"><ele>931.0</ele><time>2026-04-11T10:50:54.993Z</time></trkpt><trkpt lat="42.9203774" lon="13.3097414"><ele>934.8333333333333</ele><time>2026-04-11T10:50:55.993Z</time></trkpt><trkpt lat="42.9202955" lon="13.3097285"><ele>938.6666666666666</ele><time>2026-04-11T10:50:57.006Z</time></trkpt><trkpt lat="42.9202123" lon="13.3097209"><ele>942.5</ele><time>2026-04-11T10:50:57.995Z</time></trkpt><trkpt lat="42.9201282" lon="13.3097114"><ele>946.3333333333333</ele><time>2026-04-11T10:50:58.98Z</time></trkpt><trkpt lat="42.9200504" lon="13.3096954"><ele>950.1666666666666</ele><time>2026-04-11T10:51:00.002Z</time></trkpt><trkpt lat="42.9199744" lon="13.3096809"><ele>954.0</ele><time>2026-04-11T10:51:00.994Z</time></trkpt><trkpt lat="42.919907" lon="13.3096745"><ele>954.0</ele><time>2026-04-11T10:51:02.004Z</time></trkpt><trkpt lat="42.9198054" lon="13.3096852"><ele>954.0000000000001</ele><time>2026-04-11T10:51:03.994Z</time></trkpt><trkpt lat="42.9197313" lon="13.3097044"><ele>954.0000000000001</ele><time>2026-04-11T10:51:06.041Z</time></trkpt><trkpt lat="42.9196677" lon="13.3097435"><ele>954.0</ele><time>2026-04-11T10:51:08.999Z</time></trkpt><trkpt lat="42.9196025" lon="13.3098935"><ele>954.0</ele><time>2026-04-11T10:51:11.001Z</time></trkpt><trkpt lat="42.9195602" lon="13.3100024"><ele>950.2</ele><time>2026-04-11T10:51:11.997Z</time></trkpt><trkpt lat="42.9194947" lon="13.3101127"><ele>946.4000000000001</ele><time>2026-04-11T10:51:13.008Z</time></trkpt><trkpt lat="42.9194255" lon="13.3102265"><ele>942.6</ele><time>2026-04-11T10:51:14.011Z</time></trkpt><trkpt lat="42.9193538" lon="13.3103454"><ele>938.8</ele><time>2026-04-11T10:51:14.999Z</time></trkpt><trkpt lat="42.9193067" lon="13.3104967"><ele>935.0</ele><time>2026-04-11T10:51:16.012Z</time></trkpt><trkpt lat="42.9192677" lon="13.3106247"><ele>936.6666666666667</ele><time>2026-04-11T10:51:16.96Z</time></trkpt><trkpt lat="42.919233" lon="13.3107291"><ele>938.3333333333334</ele><time>2026-04-11T10:51:18.005Z</time></trkpt><trkpt lat="42.9191758" lon="13.3107891"><ele>940.0</ele><time>2026-04-11T10:51:18.968Z</time></trkpt><trkpt lat="42.9191286" lon="13.3108492"><ele>941.6666666666667</ele><time>2026-04-11T10:51:19.989Z</time></trkpt><trkpt lat="42.9190659" lon="13.3109833"><ele>943.3333333333334</ele><time>2026-04-11T10:51:22.002Z</time></trkpt><trkpt lat="42.9190361" lon="13.3110852"><ele>945.0</ele><time>2026-04-11T10:51:22.993Z</time></trkpt><trkpt lat="42.9189987" lon="13.3112262"><ele>945.0</ele><time>2026-04-11T10:51:23.974Z</time></trkpt><trkpt lat="42.9189607" lon="13.3113822"><ele>945.0</ele><time>2026-04-11T10:51:24.964Z</time></trkpt><trkpt lat="42.9189312" lon="13.3115508"><ele>945.0</ele><time>2026-04-11T10:51:26.005Z</time></trkpt><trkpt lat="42.9188972" lon="13.31172"><ele>945.0</ele><time>2026-04-11T10:51:26.946Z</time></trkpt><trkpt lat="42.9188638" lon="13.3118837"><ele>944.75</ele><time>2026-04-11T10:51:28.004Z</time></trkpt><trkpt lat="42.9188227" lon="13.3120328"><ele>944.5</ele><time>2026-04-11T10:51:28.954Z</time></trkpt><trkpt lat="42.9187748" lon="13.312169"><ele>944.25</ele><time>2026-04-11T10:51:29.989Z</time></trkpt><trkpt lat="42.9187139" lon="13.3123175"><ele>944.0</ele><time>2026-04-11T10:51:30.982Z</time></trkpt><trkpt lat="42.9186511" lon="13.3124495"><ele>944.0000000000001</ele><time>2026-04-11T10:51:31.981Z</time></trkpt><trkpt lat="42.9185959" lon="13.3125597"><ele>944.0</ele><time>2026-04-11T10:51:33.012Z</time></trkpt><trkpt lat="42.9185505" lon="13.3126211"><ele>944.0</ele><time>2026-04-11T10:51:34.011Z</time></trkpt><trkpt lat="42.918466" lon="13.3127008"><ele>944.0</ele><time>2026-04-11T10:51:35.996Z</time></trkpt><trkpt lat="42.9184057" lon="13.3127628"><ele>944.0000000000001</ele><time>2026-04-11T10:51:36.966Z</time></trkpt><trkpt lat="42.9183414" lon="13.3128385"><ele>944.0</ele><time>2026-04-11T10:51:37.985Z</time></trkpt><trkpt lat="42.9182756" lon="13.3129143"><ele>946.8000000000001</ele><time>2026-04-11T10:51:38.945Z</time></trkpt><trkpt lat="42.9182084" lon="13.3129939"><ele>949.6000000000001</ele><time>2026-04-11T10:51:39.996Z</time></trkpt><trkpt lat="42.9181399" lon="13.3130692"><ele>952.4</ele><time>2026-04-11T10:51:41.005Z</time></trkpt><trkpt lat="42.9180525" lon="13.3131317"><ele>955.2</ele><time>2026-04-11T10:51:41.993Z</time></trkpt><trkpt lat="42.91796" lon="13.313191"><ele>958.0</ele><time>2026-04-11T10:51:42.999Z</time></trkpt><trkpt lat="42.917872" lon="13.3132476"><ele>957.9999999999999</ele><time>2026-04-11T10:51:43.987Z</time></trkpt><trkpt lat="42.9177964" lon="13.3133029"><ele>958.0</ele><time>2026-04-11T10:51:44.996Z</time></trkpt><trkpt lat="42.9177238" lon="13.3133535"><ele>958.0</ele><time>2026-04-11T10:51:45.989Z</time></trkpt><trkpt lat="42.9176609" lon="13.3133867"><ele>958.0</ele><time>2026-04-11T10:51:47.003Z</time></trkpt><trkpt lat="42.9176023" lon="13.3134266"><ele>957.9999999999999</ele><time>2026-04-11T10:51:48.006Z</time></trkpt><trkpt lat="42.9175405" lon="13.3134697"><ele>958.0</ele><time>2026-04-11T10:51:48.971Z</time></trkpt><trkpt lat="42.9174743" lon="13.3135593"><ele>957.0</ele><time>2026-04-11T10:51:49.958Z</time></trkpt><trkpt lat="42.9173999" lon="13.3136536"><ele>956.0</ele><time>2026-04-11T10:51:50.965Z</time></trkpt><trkpt lat="42.9173349" lon="13.313736"><ele>955.0</ele><time>2026-04-11T10:51:52.007Z</time></trkpt><trkpt lat="42.9172652" lon="13.3138101"><ele>954.0</ele><time>2026-04-11T10:51:52.98Z</time></trkpt><trkpt lat="42.917186" lon="13.3138802"><ele>953.0</ele><time>2026-04-11T10:51:53.984Z</time></trkpt><trkpt lat="42.9171032" lon="13.313938"><ele>953.0000000000001</ele><time>2026-04-11T10:51:54.998Z</time></trkpt><trkpt lat="42.917027" lon="13.313986"><ele>953.0</ele><time>2026-04-11T10:51:56.032Z</time></trkpt><trkpt lat="42.9169611" lon="13.3140256"><ele>953.0</ele><time>2026-04-11T10:51:57.008Z</time></trkpt><trkpt lat="42.9168905" lon="13.3140739"><ele>953.0</ele><time>2026-04-11T10:51:57.999Z</time></trkpt><trkpt lat="42.9168149" lon="13.3141256"><ele>953.0000000000001</ele><time>2026-04-11T10:51:59.002Z</time></trkpt><trkpt lat="42.9167335" lon="13.3141623"><ele>953.0</ele><time>2026-04-11T10:51:59.997Z</time></trkpt><trkpt lat="42.9166578" lon="13.3141937"><ele>953.5999999999999</ele><time>2026-04-11T10:52:00.998Z</time></trkpt><trkpt lat="42.9165772" lon="13.3141998"><ele>954.1999999999999</ele><time>2026-04-11T10:52:01.957Z</time></trkpt><trkpt lat="42.9164832" lon="13.314185"><ele>954.8</ele><time>2026-04-11T10:52:02.982Z</time></trkpt><trkpt lat="42.9163855" lon="13.314163"><ele>955.4</ele><time>2026-04-11T10:52:04Z</time></trkpt><trkpt lat="42.9162908" lon="13.3141381"><ele>956.0</ele><time>2026-04-11T10:52:04.975Z</time></trkpt><trkpt lat="42.9161941" lon="13.3141093"><ele>956.0</ele><time>2026-04-11T10:52:05.973Z</time></trkpt><trkpt lat="42.9160886" lon="13.3140584"><ele>955.9999999999999</ele><time>2026-04-11T10:52:06.955Z</time></trkpt><trkpt lat="42.9159787" lon="13.3140032"><ele>955.9999999999999</ele><time>2026-04-11T10:52:07.999Z</time></trkpt><trkpt lat="42.9158828" lon="13.3139532"><ele>956.0</ele><time>2026-04-11T10:52:08.974Z</time></trkpt><trkpt lat="42.9157906" lon="13.3138928"><ele>956.0</ele><time>2026-04-11T10:52:09.996Z</time></trkpt><trkpt lat="42.9157017" lon="13.3138251"><ele>959.1666666666667</ele><time>2026-04-11T10:52:10.968Z</time></trkpt><trkpt lat="42.9156214" lon="13.3137694"><ele>962.3333333333334</ele><time>2026-04-11T10:52:11.951Z</time></trkpt><trkpt lat="42.9155431" lon="13.313721"><ele>965.5</ele><time>2026-04-11T10:52:13.011Z</time></trkpt><trkpt lat="42.9154778" lon="13.313697"><ele>968.6666666666667</ele><time>2026-04-11T10:52:14.021Z</time></trkpt><trkpt lat="42.9154122" lon="13.3136765"><ele>971.8333333333334</ele><time>2026-04-11T10:52:15.006Z</time></trkpt><trkpt lat="42.9153376" lon="13.3136601"><ele>975.0</ele><time>2026-04-11T10:52:16.008Z</time></trkpt><trkpt lat="42.9152473" lon="13.313642"><ele>975.0</ele><time>2026-04-11T10:52:16.976Z</time></trkpt><trkpt lat="42.9151508" lon="13.3136182"><ele>975.0</ele><time>2026-04-11T10:52:17.985Z</time></trkpt><trkpt lat="42.9150635" lon="13.3135928"><ele>975.0</ele><time>2026-04-11T10:52:18.99Z</time></trkpt><trkpt lat="42.9149792" lon="13.3135613"><ele>975.0</ele><time>2026-04-11T10:52:20.014Z</time></trkpt><trkpt lat="42.9148889" lon="13.3135189"><ele>975.0</ele><time>2026-04-11T10:52:20.956Z</time></trkpt><trkpt lat="42.9147883" lon="13.3134616"><ele>972.25</ele><time>2026-04-11T10:52:21.957Z</time></trkpt><trkpt lat="42.914699" lon="13.3134057"><ele>969.5</ele><time>2026-04-11T10:52:22.969Z</time></trkpt><trkpt lat="42.9146111" lon="13.3133357"><ele>966.75</ele><time>2026-04-11T10:52:24.048Z</time></trkpt><trkpt lat="42.914504" lon="13.31324"><ele>964.0</ele><time>2026-04-11T10:52:24.992Z</time></trkpt><trkpt lat="42.9143787" lon="13.3131242"><ele>965.25</ele><time>2026-04-11T10:52:26.015Z</time></trkpt><trkpt lat="42.9142545" lon="13.3130156"><ele>966.5</ele><time>2026-04-11T10:52:26.985Z</time></trkpt><trkpt lat="42.9141394" lon="13.3129132"><ele>967.75</ele><time>2026-04-11T10:52:27.986Z</time></trkpt><trkpt lat="42.9140413" lon="13.3128313"><ele>969.0</ele><time>2026-04-11T10:52:28.98Z</time></trkpt><trkpt lat="42.9139595" lon="13.312762"><ele>969.0</ele><time>2026-04-11T10:52:29.997Z</time></trkpt><trkpt lat="42.9138877" lon="13.3127015"><ele>969.0</ele><time>2026-04-11T10:52:30.981Z</time></trkpt><trkpt lat="42.9138069" lon="13.312595"><ele>969.0</ele><time>2026-04-11T10:52:33.002Z</time></trkpt><trkpt lat="42.9137577" lon="13.3124878"><ele>969.0</ele><time>2026-04-11T10:52:34.956Z</time></trkpt><trkpt lat="42.9137271" lon="13.3124085"><ele>969.0</ele><time>2026-04-11T10:54:00.984Z</time></trkpt><trkpt lat="42.9136947" lon="13.3123335"><ele>969.0</ele><time>2026-04-11T10:54:21.996Z</time></trkpt><trkpt lat="42.9136609" lon="13.312419"><ele>969.0</ele><time>2026-04-11T10:54:25.966Z</time></trkpt><trkpt lat="42.9136989" lon="13.3125503"><ele>969.0</ele><time>2026-04-11T10:54:27.996Z</time></trkpt><trkpt lat="42.9137361" lon="13.3126773"><ele>969.0</ele><time>2026-04-11T10:54:29.957Z</time></trkpt><trkpt lat="42.9137782" lon="13.3127741"><ele>969.0</ele><time>2026-04-11T10:54:31.993Z</time></trkpt><trkpt lat="42.913824" lon="13.3128552"><ele>969.0</ele><time>2026-04-11T10:54:33.987Z</time></trkpt><trkpt lat="42.9138862" lon="13.3129317"><ele>969.0</ele><time>2026-04-11T10:54:36.957Z</time></trkpt><trkpt lat="42.9139403" lon="13.3130101"><ele>966.5</ele><time>2026-04-11T10:54:40.005Z</time></trkpt><trkpt lat="42.9139813" lon="13.313078"><ele>964.0</ele><time>2026-04-11T10:54:42.977Z</time></trkpt><trkpt lat="42.914032" lon="13.3131384"><ele>961.5</ele><time>2026-04-11T10:54:47.975Z</time></trkpt><trkpt lat="42.9141151" lon="13.313188"><ele>959.0</ele><time>2026-04-11T10:56:07.96Z</time></trkpt><trkpt lat="42.9140739" lon="13.3133141"><ele>956.5</ele><time>2026-04-11T10:58:37.966Z</time></trkpt><trkpt lat="42.9140814" lon="13.3134105"><ele>954.0</ele><time>2026-04-11T10:58:40.022Z</time></trkpt><trkpt lat="42.9140997" lon="13.3135371"><ele>954.0</ele><time>2026-04-11T10:58:41.967Z</time></trkpt><trkpt lat="42.9141122" lon="13.3137136"><ele>954.0000000000001</ele><time>2026-04-11T10:58:43.958Z</time></trkpt><trkpt lat="42.9141181" lon="13.313808"><ele>954.0000000000001</ele><time>2026-04-11T10:58:45.007Z</time></trkpt><trkpt lat="42.9141212" lon="13.3139017"><ele>954.0</ele><time>2026-04-11T10:58:45.986Z</time></trkpt><trkpt lat="42.9141259" lon="13.3139918"><ele>954.0</ele><time>2026-04-11T10:58:46.995Z</time></trkpt><trkpt lat="42.9141306" lon="13.3141582"><ele>951.25</ele><time>2026-04-11T10:58:48.965Z</time></trkpt><trkpt lat="42.9141383" lon="13.3143248"><ele>948.5</ele><time>2026-04-11T10:58:51.001Z</time></trkpt><trkpt lat="42.9141486" lon="13.3144804"><ele>945.75</ele><time>2026-04-11T10:58:52.976Z</time></trkpt><trkpt lat="42.9141743" lon="13.3146366"><ele>943.0</ele><time>2026-04-11T10:58:54.98Z</time></trkpt><trkpt lat="42.9141956" lon="13.3147979"><ele>941.4999999999999</ele><time>2026-04-11T10:58:57.006Z</time></trkpt><trkpt lat="42.9142137" lon="13.3148868"><ele>940.0</ele><time>2026-04-11T10:58:57.983Z</time></trkpt><trkpt lat="42.914238" lon="13.3149718"><ele>938.5</ele><time>2026-04-11T10:58:58.973Z</time></trkpt><trkpt lat="42.914257" lon="13.3150561"><ele>937.0</ele><time>2026-04-11T10:59:00Z</time></trkpt><trkpt lat="42.914291" lon="13.3152049"><ele>935.4999999999999</ele><time>2026-04-11T10:59:02.005Z</time></trkpt><trkpt lat="42.9143424" lon="13.3153526"><ele>934.0</ele><time>2026-04-11T10:59:03.962Z</time></trkpt><trkpt lat="42.9143811" lon="13.3154209"><ele>934.0</ele><time>2026-04-11T10:59:04.995Z</time></trkpt><trkpt lat="42.9144247" lon="13.3154876"><ele>934.0000000000001</ele><time>2026-04-11T10:59:05.994Z</time></trkpt><trkpt lat="42.9144948" lon="13.3156083"><ele>934.0000000000001</ele><time>2026-04-11T10:59:07.991Z</time></trkpt><trkpt lat="42.9145434" lon="13.3157345"><ele>934.0</ele><time>2026-04-11T10:59:09.992Z</time></trkpt><trkpt lat="42.9145687" lon="13.3159026"><ele>934.0</ele><time>2026-04-11T10:59:11.981Z</time></trkpt><trkpt lat="42.9145778" lon="13.3160183"><ele>932.2857142857142</ele><time>2026-04-11T10:59:12.983Z</time></trkpt><trkpt lat="42.9145843" lon="13.3161236"><ele>930.5714285714286</ele><time>2026-04-11T10:59:13.962Z</time></trkpt><trkpt lat="42.914587" lon="13.3162218"><ele>928.8571428571429</ele><time>2026-04-11T10:59:14.991Z</time></trkpt><trkpt lat="42.9145755" lon="13.3163125"><ele>927.1428571428571</ele><time>2026-04-11T10:59:15.993Z</time></trkpt><trkpt lat="42.914558" lon="13.3164016"><ele>925.4285714285716</ele><time>2026-04-11T10:59:16.981Z</time></trkpt><trkpt lat="42.9145397" lon="13.3164912"><ele>923.7142857142858</ele><time>2026-04-11T10:59:17.988Z</time></trkpt><trkpt lat="42.9145225" lon="13.3165838"><ele>922.0</ele><time>2026-04-11T10:59:18.96Z</time></trkpt><trkpt lat="42.9145127" lon="13.3166817"><ele>919.9999999999999</ele><time>2026-04-11T10:59:19.967Z</time></trkpt><trkpt lat="42.9145063" lon="13.3167857"><ele>918.0</ele><time>2026-04-11T10:59:20.989Z</time></trkpt><trkpt lat="42.9145024" lon="13.3168786"><ele>916.0</ele><time>2026-04-11T10:59:21.958Z</time></trkpt><trkpt lat="42.914499" lon="13.3169668"><ele>914.0</ele><time>2026-04-11T10:59:22.966Z</time></trkpt><trkpt lat="42.9144881" lon="13.3171299"><ele>911.9999999999999</ele><time>2026-04-11T10:59:24.989Z</time></trkpt><trkpt lat="42.9144868" lon="13.317273"><ele>910.0</ele><time>2026-04-11T10:59:26.988Z</time></trkpt><trkpt lat="42.9144915" lon="13.317401"><ele>907.4999999999999</ele><time>2026-04-11T10:59:28.976Z</time></trkpt><trkpt lat="42.9144986" lon="13.3175275"><ele>905.0</ele><time>2026-04-11T10:59:31.011Z</time></trkpt><trkpt lat="42.9144996" lon="13.3176444"><ele>902.5</ele><time>2026-04-11T10:59:33.001Z</time></trkpt><trkpt lat="42.9144902" lon="13.3177563"><ele>900.0</ele><time>2026-04-11T10:59:35Z</time></trkpt><trkpt lat="42.914473" lon="13.3178715"><ele>897.4999999999999</ele><time>2026-04-11T10:59:36.987Z</time></trkpt><trkpt lat="42.9144708" lon="13.3179802"><ele>895.0</ele><time>2026-04-11T10:59:38.963Z</time></trkpt><trkpt lat="42.9145091" lon="13.3180664"><ele>892.1666666666666</ele><time>2026-04-11T10:59:41Z</time></trkpt><trkpt lat="42.9145926" lon="13.3181574"><ele>889.3333333333333</ele><time>2026-04-11T10:59:42.945Z</time></trkpt><trkpt lat="42.9146944" lon="13.3182421"><ele>886.5</ele><time>2026-04-11T10:59:45.012Z</time></trkpt><trkpt lat="42.9147579" lon="13.3182943"><ele>883.6666666666667</ele><time>2026-04-11T10:59:47.995Z</time></trkpt><trkpt lat="42.9148228" lon="13.3183095"><ele>880.8333333333334</ele><time>2026-04-11T10:59:51.995Z</time></trkpt><trkpt lat="42.9148794" lon="13.3183548"><ele>878.0</ele><time>2026-04-11T11:00:14.993Z</time></trkpt><trkpt lat="42.9149476" lon="13.31844"><ele>878.0</ele><time>2026-04-11T11:00:24.977Z</time></trkpt><trkpt lat="42.9150334" lon="13.3184754"><ele>878.0</ele><time>2026-04-11T11:00:26.997Z</time></trkpt><trkpt lat="42.9151516" lon="13.3184713"><ele>878.0</ele><time>2026-04-11T11:00:28.999Z</time></trkpt><trkpt lat="42.9152524" lon="13.3184183"><ele>878.0</ele><time>2026-04-11T11:00:31.001Z</time></trkpt><trkpt lat="42.9153153" lon="13.3183681"><ele>878.0</ele><time>2026-04-11T11:00:32.973Z</time></trkpt><trkpt lat="42.9153814" lon="13.3183094"><ele>877.4285714285714</ele><time>2026-04-11T11:00:35.985Z</time></trkpt><trkpt lat="42.9154426" lon="13.3182652"><ele>876.8571428571429</ele><time>2026-04-11T11:00:38.988Z</time></trkpt><trkpt lat="42.9154053" lon="13.3183985"><ele>876.2857142857142</ele><time>2026-04-11T11:00:42.983Z</time></trkpt><trkpt lat="42.9153671" lon="13.3184692"><ele>875.7142857142858</ele><time>2026-04-11T11:00:43.993Z</time></trkpt><trkpt lat="42.9153282" lon="13.3185464"><ele>875.1428571428572</ele><time>2026-04-11T11:00:44.961Z</time></trkpt><trkpt lat="42.9152891" lon="13.3186228"><ele>874.5714285714286</ele><time>2026-04-11T11:00:46.004Z</time></trkpt><trkpt lat="42.9152458" lon="13.3186927"><ele>874.0</ele><time>2026-04-11T11:00:47.002Z</time></trkpt><trkpt lat="42.9152034" lon="13.3187623"><ele>873.9999999999999</ele><time>2026-04-11T11:00:48.007Z</time></trkpt><trkpt lat="42.9151599" lon="13.3188486"><ele>874.0</ele><time>2026-04-11T11:00:48.974Z</time></trkpt><trkpt lat="42.9151158" lon="13.3189317"><ele>874.0</ele><time>2026-04-11T11:00:49.987Z</time></trkpt><trkpt lat="42.915073" lon="13.3190126"><ele>874.0</ele><time>2026-04-11T11:00:50.996Z</time></trkpt><trkpt lat="42.9150076" lon="13.3190605"><ele>873.9999999999999</ele><time>2026-04-11T11:00:51.963Z</time></trkpt><trkpt lat="42.914941" lon="13.3191064"><ele>874.0</ele><time>2026-04-11T11:00:52.983Z</time></trkpt><trkpt lat="42.9148551" lon="13.3191156"><ele>871.5</ele><time>2026-04-11T11:00:53.981Z</time></trkpt><trkpt lat="42.9147525" lon="13.3190948"><ele>869.0</ele><time>2026-04-11T11:00:54.959Z</time></trkpt><trkpt lat="42.9146329" lon="13.3190721"><ele>866.5</ele><time>2026-04-11T11:00:55.986Z</time></trkpt><trkpt lat="42.9145007" lon="13.319049"><ele>864.0</ele><time>2026-04-11T11:00:56.99Z</time></trkpt><trkpt lat="42.9143764" lon="13.3190267"><ele>864.0</ele><time>2026-04-11T11:00:57.993Z</time></trkpt><trkpt lat="42.9142577" lon="13.3190089"><ele>864.0</ele><time>2026-04-11T11:00:58.949Z</time></trkpt><trkpt lat="42.9141283" lon="13.3189908"><ele>864.0</ele><time>2026-04-11T11:00:59.998Z</time></trkpt><trkpt lat="42.9140017" lon="13.3189764"><ele>864.0</ele><time>2026-04-11T11:01:00.973Z</time></trkpt><trkpt lat="42.9138773" lon="13.3189554"><ele>863.75</ele><time>2026-04-11T11:01:01.998Z</time></trkpt><trkpt lat="42.9137392" lon="13.3189291"><ele>863.5</ele><time>2026-04-11T11:01:02.996Z</time></trkpt><trkpt lat="42.9135974" lon="13.3188952"><ele>863.25</ele><time>2026-04-11T11:01:03.958Z</time></trkpt><trkpt lat="42.913462" lon="13.3188544"><ele>863.0</ele><time>2026-04-11T11:01:04.985Z</time></trkpt><trkpt lat="42.9133329" lon="13.3188129"><ele>863.0</ele><time>2026-04-11T11:01:05.998Z</time></trkpt><trkpt lat="42.9132132" lon="13.318766"><ele>863.0</ele><time>2026-04-11T11:01:06.986Z</time></trkpt><trkpt lat="42.9130969" lon="13.3187197"><ele>863.0</ele><time>2026-04-11T11:01:07.953Z</time></trkpt><trkpt lat="42.9129705" lon="13.3186436"><ele>863.0</ele><time>2026-04-11T11:01:08.996Z</time></trkpt><trkpt lat="42.9128409" lon="13.3185642"><ele>863.0</ele><time>2026-04-11T11:01:09.997Z</time></trkpt><trkpt lat="42.9127043" lon="13.318472"><ele>863.0</ele><time>2026-04-11T11:01:10.992Z</time></trkpt><trkpt lat="42.912578" lon="13.3183803"><ele>863.0</ele><time>2026-04-11T11:01:11.987Z</time></trkpt><trkpt lat="42.9124608" lon="13.3182916"><ele>863.0</ele><time>2026-04-11T11:01:13.004Z</time></trkpt><trkpt lat="42.9123505" lon="13.3182013"><ele>865.2</ele><time>2026-04-11T11:01:13.96Z</time></trkpt><trkpt lat="42.9122367" lon="13.3181111"><ele>867.4</ele><time>2026-04-11T11:01:14.982Z</time></trkpt><trkpt lat="42.9121359" lon="13.318037"><ele>869.6000000000001</ele><time>2026-04-11T11:01:15.979Z</time></trkpt><trkpt lat="42.9120472" lon="13.3179765"><ele>871.8000000000001</ele><time>2026-04-11T11:01:16.978Z</time></trkpt><trkpt lat="42.911973" lon="13.3179359"><ele>874.0</ele><time>2026-04-11T11:01:18.017Z</time></trkpt><trkpt lat="42.9119078" lon="13.3179026"><ele>873.9999999999999</ele><time>2026-04-11T11:01:19.001Z</time></trkpt><trkpt lat="42.9118231" lon="13.3179401"><ele>874.0</ele><time>2026-04-11T11:01:20.996Z</time></trkpt><trkpt lat="42.9118233" lon="13.318033"><ele>874.0</ele><time>2026-04-11T11:01:21.981Z</time></trkpt><trkpt lat="42.9118702" lon="13.3181257"><ele>874.0</ele><time>2026-04-11T11:01:22.979Z</time></trkpt><trkpt lat="42.9119113" lon="13.3182126"><ele>873.9999999999999</ele><time>2026-04-11T11:01:23.968Z</time></trkpt><trkpt lat="42.9119072" lon="13.3183459"><ele>874.0</ele><time>2026-04-11T11:01:25.988Z</time></trkpt><trkpt lat="42.9118404" lon="13.318434"><ele>868.4000000000001</ele><time>2026-04-11T11:01:28.008Z</time></trkpt><trkpt lat="42.9117627" lon="13.3184379"><ele>862.8000000000001</ele><time>2026-04-11T11:01:30.017Z</time></trkpt><trkpt lat="42.9116796" lon="13.3184297"><ele>857.2</ele><time>2026-04-11T11:01:31.955Z</time></trkpt><trkpt lat="42.9115301" lon="13.3184175"><ele>851.5999999999999</ele><time>2026-04-11T11:01:33.965Z</time></trkpt><trkpt lat="42.9114235" lon="13.3183999"><ele>846.0</ele><time>2026-04-11T11:01:34.98Z</time></trkpt><trkpt lat="42.9113022" lon="13.3183702"><ele>843.8</ele><time>2026-04-11T11:01:35.947Z</time></trkpt><trkpt lat="42.9111885" lon="13.3183297"><ele>841.5999999999999</ele><time>2026-04-11T11:01:36.955Z</time></trkpt><trkpt lat="42.9110816" lon="13.3182836"><ele>839.4</ele><time>2026-04-11T11:01:37.98Z</time></trkpt><trkpt lat="42.9109846" lon="13.3182367"><ele>837.2</ele><time>2026-04-11T11:01:39.027Z</time></trkpt><trkpt lat="42.910903" lon="13.3182035"><ele>835.0</ele><time>2026-04-11T11:01:39.957Z</time></trkpt><trkpt lat="42.9108234" lon="13.3181694"><ele>832.3333333333333</ele><time>2026-04-11T11:01:40.943Z</time></trkpt><trkpt lat="42.9107504" lon="13.3181427"><ele>829.6666666666666</ele><time>2026-04-11T11:01:41.97Z</time></trkpt><trkpt lat="42.9106876" lon="13.3181191"><ele>827.0</ele><time>2026-04-11T11:01:42.993Z</time></trkpt><trkpt lat="42.9106062" lon="13.318155"><ele>824.3333333333333</ele><time>2026-04-11T11:01:45.019Z</time></trkpt><trkpt lat="42.9106305" lon="13.318314"><ele>821.6666666666666</ele><time>2026-04-11T11:01:46.986Z</time></trkpt><trkpt lat="42.9107156" lon="13.318396"><ele>819.0</ele><time>2026-04-11T11:01:49.022Z</time></trkpt><trkpt lat="42.9107356" lon="13.3184903"><ele>819.0</ele><time>2026-04-11T11:01:51.993Z</time></trkpt><trkpt lat="42.910671" lon="13.3184551"><ele>819.0</ele><time>2026-04-11T11:01:53.994Z</time></trkpt><trkpt lat="42.9106024" lon="13.3183897"><ele>819.0</ele><time>2026-04-11T11:01:54.987Z</time></trkpt><trkpt lat="42.9105256" lon="13.3183206"><ele>819.0</ele><time>2026-04-11T11:01:55.968Z</time></trkpt><trkpt lat="42.9104588" lon="13.3182536"><ele>819.0</ele><time>2026-04-11T11:01:56.959Z</time></trkpt><trkpt lat="42.9104093" lon="13.3181856"><ele>819.0</ele><time>2026-04-11T11:01:57.981Z</time></trkpt><trkpt lat="42.9103695" lon="13.318097"><ele>823.0</ele><time>2026-04-11T11:01:58.996Z</time></trkpt><trkpt lat="42.9103551" lon="13.3179807"><ele>827.0</ele><time>2026-04-11T11:02:00.012Z</time></trkpt><trkpt lat="42.9103507" lon="13.3178521"><ele>831.0</ele><time>2026-04-11T11:02:00.969Z</time></trkpt><trkpt lat="42.9103442" lon="13.3177225"><ele>835.0</ele><time>2026-04-11T11:02:01.988Z</time></trkpt><trkpt lat="42.9103155" lon="13.3176018"><ele>839.0</ele><time>2026-04-11T11:02:02.992Z</time></trkpt><trkpt lat="42.9102532" lon="13.3174817"><ele>839.0</ele><time>2026-04-11T11:02:04.005Z</time></trkpt><trkpt lat="42.9101803" lon="13.317354"><ele>839.0</ele><time>2026-04-11T11:02:04.962Z</time></trkpt><trkpt lat="42.910113" lon="13.3172335"><ele>839.0</ele><time>2026-04-11T11:02:05.957Z</time></trkpt><trkpt lat="42.9100518" lon="13.3171236"><ele>839.0</ele><time>2026-04-11T11:02:06.966Z</time></trkpt><trkpt lat="42.9099947" lon="13.3170228"><ele>839.0</ele><time>2026-04-11T11:02:07.995Z</time></trkpt><trkpt lat="42.9099353" lon="13.3169349"><ele>836.6666666666667</ele><time>2026-04-11T11:02:08.975Z</time></trkpt><trkpt lat="42.9098733" lon="13.3168502"><ele>834.3333333333334</ele><time>2026-04-11T11:02:10.005Z</time></trkpt><trkpt lat="42.9098085" lon="13.3167707"><ele>832.0</ele><time>2026-04-11T11:02:10.954Z</time></trkpt><trkpt lat="42.9097385" lon="13.3167038"><ele>829.6666666666667</ele><time>2026-04-11T11:02:11.945Z</time></trkpt><trkpt lat="42.9096722" lon="13.3166575"><ele>827.3333333333334</ele><time>2026-04-11T11:02:13.002Z</time></trkpt><trkpt lat="42.9096128" lon="13.3166184"><ele>825.0</ele><time>2026-04-11T11:02:14.036Z</time></trkpt><trkpt lat="42.9094969" lon="13.3165849"><ele>825.0</ele><time>2026-04-11T11:02:15.971Z</time></trkpt><trkpt lat="42.9094254" lon="13.3166166"><ele>825.0</ele><time>2026-04-11T11:02:17.015Z</time></trkpt><trkpt lat="42.9093558" lon="13.3166594"><ele>825.0</ele><time>2026-04-11T11:02:18.004Z</time></trkpt><trkpt lat="42.9092853" lon="13.3167098"><ele>825.0</ele><time>2026-04-11T11:02:19.002Z</time></trkpt><trkpt lat="42.9092188" lon="13.3167521"><ele>825.0</ele><time>2026-04-11T11:02:20.023Z</time></trkpt><trkpt lat="42.9091437" lon="13.316793"><ele>825.0</ele><time>2026-04-11T11:02:20.964Z</time></trkpt><trkpt lat="42.909062" lon="13.3168093"><ele>820.1666666666666</ele><time>2026-04-11T11:02:22.003Z</time></trkpt><trkpt lat="42.9089746" lon="13.3168029"><ele>815.3333333333333</ele><time>2026-04-11T11:02:22.984Z</time></trkpt><trkpt lat="42.9088897" lon="13.3167931"><ele>810.5</ele><time>2026-04-11T11:02:23.96Z</time></trkpt><trkpt lat="42.908817" lon="13.3167926"><ele>805.6666666666666</ele><time>2026-04-11T11:02:24.969Z</time></trkpt><trkpt lat="42.9087521" lon="13.3168084"><ele>800.8333333333333</ele><time>2026-04-11T11:02:25.955Z</time></trkpt><trkpt lat="42.9086363" lon="13.316796"><ele>796.0</ele><time>2026-04-11T11:02:28.014Z</time></trkpt><trkpt lat="42.9085788" lon="13.316742"><ele>795.9999999999999</ele><time>2026-04-11T11:02:29.018Z</time></trkpt><trkpt lat="42.9085311" lon="13.3166696"><ele>796.0</ele><time>2026-04-11T11:02:30.005Z</time></trkpt><trkpt lat="42.908482" lon="13.3165194"><ele>796.0</ele><time>2026-04-11T11:02:32.02Z</time></trkpt><trkpt lat="42.9084809" lon="13.3163858"><ele>796.0</ele><time>2026-04-11T11:02:33.997Z</time></trkpt><trkpt lat="42.9084723" lon="13.3162849"><ele>795.9999999999999</ele><time>2026-04-11T11:02:37.029Z</time></trkpt><trkpt lat="42.9084326" lon="13.3161941"><ele>796.0</ele><time>2026-04-11T11:02:39.942Z</time></trkpt><trkpt lat="42.9082978" lon="13.3161794"><ele>795.3333333333333</ele><time>2026-04-11T11:03:58.001Z</time></trkpt><trkpt lat="42.9082616" lon="13.3162675"><ele>794.6666666666666</ele><time>2026-04-11T11:04:00.085Z</time></trkpt><trkpt lat="42.9082154" lon="13.316375"><ele>794.0</ele><time>2026-04-11T11:04:01.983Z</time></trkpt><trkpt lat="42.9081836" lon="13.3164962"><ele>793.3333333333333</ele><time>2026-04-11T11:04:03.986Z</time></trkpt><trkpt lat="42.9081639" lon="13.3165923"><ele>792.6666666666666</ele><time>2026-04-11T11:04:04.987Z</time></trkpt><trkpt lat="42.9081429" lon="13.3167413"><ele>792.0</ele><time>2026-04-11T11:04:06.98Z</time></trkpt><trkpt lat="42.9081241" lon="13.3168488"><ele>790.7142857142858</ele><time>2026-04-11T11:04:08.967Z</time></trkpt><trkpt lat="42.9081109" lon="13.3169497"><ele>789.4285714285713</ele><time>2026-04-11T11:04:10.993Z</time></trkpt><trkpt lat="42.9081121" lon="13.3170411"><ele>788.1428571428571</ele><time>2026-04-11T11:04:12.976Z</time></trkpt><trkpt lat="42.908119" lon="13.3171411"><ele>786.8571428571429</ele><time>2026-04-11T11:04:14.986Z</time></trkpt><trkpt lat="42.908131" lon="13.3172337"><ele>785.5714285714287</ele><time>2026-04-11T11:04:17.008Z</time></trkpt><trkpt lat="42.9081426" lon="13.3173362"><ele>784.2857142857142</ele><time>2026-04-11T11:04:19.015Z</time></trkpt><trkpt lat="42.9081475" lon="13.3174529"><ele>783.0</ele><time>2026-04-11T11:04:21.975Z</time></trkpt><trkpt lat="42.9081507" lon="13.3175774"><ele>782.0</ele><time>2026-04-11T11:04:25.017Z</time></trkpt><trkpt lat="42.9081402" lon="13.3176792"><ele>781.0</ele><time>2026-04-11T11:04:26.994Z</time></trkpt><trkpt lat="42.9081176" lon="13.3177937"><ele>780.0</ele><time>2026-04-11T11:04:28.999Z</time></trkpt><trkpt lat="42.9081028" lon="13.317892"><ele>779.0</ele><time>2026-04-11T11:04:31Z</time></trkpt><trkpt lat="42.9080839" lon="13.3180006"><ele>778.0</ele><time>2026-04-11T11:04:32.984Z</time></trkpt><trkpt lat="42.9080679" lon="13.3180941"><ele>777.0</ele><time>2026-04-11T11:04:34.999Z</time></trkpt><trkpt lat="42.9080681" lon="13.318196"><ele>775.3333333333334</ele><time>2026-04-11T11:04:38.004Z</time></trkpt><trkpt lat="42.9080776" lon="13.3183409"><ele>773.6666666666666</ele><time>2026-04-11T11:05:01.979Z</time></trkpt><trkpt lat="42.9080856" lon="13.3184566"><ele>772.0</ele><time>2026-04-11T11:05:12.993Z</time></trkpt><trkpt lat="42.908066" lon="13.3185686"><ele>770.3333333333333</ele><time>2026-04-11T11:05:15.991Z</time></trkpt><trkpt lat="42.9080149" lon="13.3186452"><ele>768.6666666666666</ele><time>2026-04-11T11:05:19.99Z</time></trkpt><trkpt lat="42.9079263" lon="13.3186453"><ele>767.0</ele><time>2026-04-11T11:09:56.997Z</time></trkpt><trkpt lat="42.907995" lon="13.3186137"><ele>767.0</ele><time>2026-04-11T11:10:37.002Z</time></trkpt><trkpt lat="42.9080271" lon="13.3184955"><ele>767.0</ele><time>2026-04-11T11:10:39.95Z</time></trkpt><trkpt lat="42.9080408" lon="13.3184064"><ele>767.0</ele><time>2026-04-11T11:10:42.977Z</time></trkpt><trkpt lat="42.9080395" lon="13.3183193"><ele>767.0</ele><time>2026-04-11T11:10:51.002Z</time></trkpt><trkpt lat="42.9080383" lon="13.3182269"><ele>767.0</ele><time>2026-04-11T11:10:58.963Z</time></trkpt><trkpt lat="42.9080503" lon="13.3181207"><ele>767.0</ele><time>2026-04-11T11:11:02.988Z</time></trkpt><trkpt lat="42.9080638" lon="13.3180121"><ele>769.0</ele><time>2026-04-11T11:11:05.971Z</time></trkpt><trkpt lat="42.9080947" lon="13.3178557"><ele>771.0</ele><time>2026-04-11T11:11:08.007Z</time></trkpt><trkpt lat="42.9081265" lon="13.3177229"><ele>773.0</ele><time>2026-04-11T11:11:09.995Z</time></trkpt><trkpt lat="42.9081274" lon="13.3175891"><ele>775.0</ele><time>2026-04-11T11:11:12.017Z</time></trkpt><trkpt lat="42.9081317" lon="13.3174592"><ele>777.0</ele><time>2026-04-11T11:11:13.997Z</time></trkpt><trkpt lat="42.908131" lon="13.3173266"><ele>778.0</ele><time>2026-04-11T11:11:16.006Z</time></trkpt><trkpt lat="42.9081111" lon="13.3171843"><ele>779.0</ele><time>2026-04-11T11:11:18.014Z</time></trkpt><trkpt lat="42.9080971" lon="13.3170676"><ele>780.0</ele><time>2026-04-11T11:11:19.951Z</time></trkpt><trkpt lat="42.9081047" lon="13.3169758"><ele>781.0</ele><time>2026-04-11T11:11:22.991Z</time></trkpt><trkpt lat="42.9081275" lon="13.3168555"><ele>782.0</ele><time>2026-04-11T11:11:26.008Z</time></trkpt><trkpt lat="42.9081399" lon="13.3167283"><ele>783.0</ele><time>2026-04-11T11:11:28.983Z</time></trkpt><trkpt lat="42.9081541" lon="13.3165877"><ele>783.0</ele><time>2026-04-11T11:11:31.996Z</time></trkpt><trkpt lat="42.9082089" lon="13.3164541"><ele>783.0</ele><time>2026-04-11T11:11:34.017Z</time></trkpt><trkpt lat="42.9082523" lon="13.3163591"><ele>783.0</ele><time>2026-04-11T11:11:36.002Z</time></trkpt><trkpt lat="42.9082809" lon="13.3162695"><ele>783.0</ele><time>2026-04-11T11:11:38.994Z</time></trkpt><trkpt lat="42.9083582" lon="13.316192"><ele>783.0</ele><time>2026-04-11T11:11:41.977Z</time></trkpt><trkpt lat="42.9084322" lon="13.3162387"><ele>783.0</ele><time>2026-04-11T11:11:45.005Z</time></trkpt><trkpt lat="42.9084591" lon="13.3163422"><ele>785.5999999999999</ele><time>2026-04-11T11:11:46.964Z</time></trkpt><trkpt lat="42.9084553" lon="13.3164877"><ele>788.1999999999999</ele><time>2026-04-11T11:11:48.982Z</time></trkpt><trkpt lat="42.9084863" lon="13.316608"><ele>790.8</ele><time>2026-04-11T11:11:51.009Z</time></trkpt><trkpt lat="42.9085664" lon="13.3167124"><ele>793.4</ele><time>2026-04-11T11:11:52.993Z</time></trkpt><trkpt lat="42.9086714" lon="13.3168013"><ele>796.0</ele><time>2026-04-11T11:11:54.994Z</time></trkpt><trkpt lat="42.9087371" lon="13.3168173"><ele>795.9999999999999</ele><time>2026-04-11T11:11:56.005Z</time></trkpt><trkpt lat="42.9088114" lon="13.3168079"><ele>796.0</ele><time>2026-04-11T11:11:57.001Z</time></trkpt><trkpt lat="42.9088901" lon="13.3167993"><ele>796.0</ele><time>2026-04-11T11:11:57.986Z</time></trkpt><trkpt lat="42.9089787" lon="13.3167797"><ele>796.0</ele><time>2026-04-11T11:11:59.004Z</time></trkpt><trkpt lat="42.9090704" lon="13.316782"><ele>795.9999999999999</ele><time>2026-04-11T11:12:00.005Z</time></trkpt><trkpt lat="42.9091601" lon="13.3167847"><ele>796.0</ele><time>2026-04-11T11:12:00.995Z</time></trkpt><trkpt lat="42.9092446" lon="13.3167721"><ele>801.8</ele><time>2026-04-11T11:12:01.996Z</time></trkpt><trkpt lat="42.9093277" lon="13.3167313"><ele>807.5999999999999</ele><time>2026-04-11T11:12:02.975Z</time></trkpt><trkpt lat="42.9094115" lon="13.3166892"><ele>813.4</ele><time>2026-04-11T11:12:04.009Z</time></trkpt><trkpt lat="42.9094854" lon="13.3166553"><ele>819.2</ele><time>2026-04-11T11:12:05.003Z</time></trkpt><trkpt lat="42.9095955" lon="13.3166189"><ele>825.0</ele><time>2026-04-11T11:12:06.996Z</time></trkpt><trkpt lat="42.909729" lon="13.3167017"><ele>825.0</ele><time>2026-04-11T11:12:08.972Z</time></trkpt><trkpt lat="42.909819" lon="13.3167815"><ele>825.0</ele><time>2026-04-11T11:12:10.008Z</time></trkpt><trkpt lat="42.9098982" lon="13.316859"><ele>825.0</ele><time>2026-04-11T11:12:10.995Z</time></trkpt><trkpt lat="42.9099691" lon="13.3169276"><ele>825.0</ele><time>2026-04-11T11:12:12.005Z</time></trkpt><trkpt lat="42.9100279" lon="13.317002"><ele>825.0</ele><time>2026-04-11T11:12:12.99Z</time></trkpt><trkpt lat="42.9100778" lon="13.3170953"><ele>827.8</ele><time>2026-04-11T11:12:13.999Z</time></trkpt><trkpt lat="42.9101377" lon="13.3171994"><ele>830.6</ele><time>2026-04-11T11:12:15.061Z</time></trkpt><trkpt lat="42.9102024" lon="13.3173117"><ele>833.4000000000001</ele><time>2026-04-11T11:12:16.014Z</time></trkpt><trkpt lat="42.9102716" lon="13.3174403"><ele>836.2</ele><time>2026-04-11T11:12:17.006Z</time></trkpt><trkpt lat="42.9103302" lon="13.3175648"><ele>839.0</ele><time>2026-04-11T11:12:18.004Z</time></trkpt><trkpt lat="42.9103702" lon="13.3176787"><ele>839.0000000000001</ele><time>2026-04-11T11:12:18.992Z</time></trkpt><trkpt lat="42.910403" lon="13.3177845"><ele>839.0</ele><time>2026-04-11T11:12:19.995Z</time></trkpt><trkpt lat="42.9104193" lon="13.3178937"><ele>839.0</ele><time>2026-04-11T11:12:20.978Z</time></trkpt><trkpt lat="42.9104098" lon="13.3180027"><ele>839.0</ele><time>2026-04-11T11:12:21.965Z</time></trkpt><trkpt lat="42.9104054" lon="13.3181101"><ele>839.0000000000001</ele><time>2026-04-11T11:12:22.969Z</time></trkpt><trkpt lat="42.9104389" lon="13.3182"><ele>839.0</ele><time>2026-04-11T11:12:23.999Z</time></trkpt><trkpt lat="42.9104836" lon="13.3182796"><ele>836.1428571428571</ele><time>2026-04-11T11:12:25.006Z</time></trkpt><trkpt lat="42.91053" lon="13.3183564"><ele>833.2857142857143</ele><time>2026-04-11T11:12:25.996Z</time></trkpt><trkpt lat="42.91059" lon="13.3184141"><ele>830.4285714285714</ele><time>2026-04-11T11:12:26.999Z</time></trkpt><trkpt lat="42.9106531" lon="13.3184577"><ele>827.5714285714286</ele><time>2026-04-11T11:12:27.986Z</time></trkpt><trkpt lat="42.9107062" lon="13.3185045"><ele>824.7142857142858</ele><time>2026-04-11T11:12:28.982Z</time></trkpt><trkpt lat="42.9107807" lon="13.3185577"><ele>821.8571428571429</ele><time>2026-04-11T11:12:31.029Z</time></trkpt><trkpt lat="42.9108362" lon="13.3186047"><ele>819.0</ele><time>2026-04-11T11:12:31.952Z</time></trkpt><trkpt lat="42.910884" lon="13.3186989"><ele>818.3333333333334</ele><time>2026-04-11T11:12:32.988Z</time></trkpt><trkpt lat="42.9109406" lon="13.3188"><ele>817.6666666666667</ele><time>2026-04-11T11:12:33.952Z</time></trkpt><trkpt lat="42.9109991" lon="13.3188857"><ele>817.0</ele><time>2026-04-11T11:12:34.993Z</time></trkpt><trkpt lat="42.9110583" lon="13.3189488"><ele>816.3333333333334</ele><time>2026-04-11T11:12:35.991Z</time></trkpt><trkpt lat="42.9111184" lon="13.318986"><ele>815.6666666666667</ele><time>2026-04-11T11:12:36.977Z</time></trkpt><trkpt lat="42.9112422" lon="13.3190037"><ele>815.0</ele><time>2026-04-11T11:12:38.957Z</time></trkpt><trkpt lat="42.9113701" lon="13.3189946"><ele>815.0</ele><time>2026-04-11T11:12:40.985Z</time></trkpt><trkpt lat="42.91149" lon="13.319015"><ele>815.0</ele><time>2026-04-11T11:12:42.983Z</time></trkpt><trkpt lat="42.9115498" lon="13.3190559"><ele>815.0</ele><time>2026-04-11T11:12:43.971Z</time></trkpt><trkpt lat="42.9115997" lon="13.3191511"><ele>815.0</ele><time>2026-04-11T11:12:44.989Z</time></trkpt><trkpt lat="42.9116551" lon="13.3192631"><ele>815.0</ele><time>2026-04-11T11:12:45.99Z</time></trkpt><trkpt lat="42.9117053" lon="13.3193658"><ele>815.0000000000001</ele><time>2026-04-11T11:12:46.978Z</time></trkpt><trkpt lat="42.9117397" lon="13.3194626"><ele>815.0</ele><time>2026-04-11T11:12:47.957Z</time></trkpt><trkpt lat="42.9117542" lon="13.3195493"><ele>815.0</ele><time>2026-04-11T11:12:48.97Z</time></trkpt><trkpt lat="42.9117526" lon="13.3197001"><ele>815.0</ele><time>2026-04-11T11:12:50.972Z</time></trkpt><trkpt lat="42.9117679" lon="13.3198404"><ele>815.0000000000001</ele><time>2026-04-11T11:12:52.984Z</time></trkpt><trkpt lat="42.9117755" lon="13.319962"><ele>815.0</ele><time>2026-04-11T11:12:54.973Z</time></trkpt><trkpt lat="42.9117838" lon="13.3200635"><ele>813.3333333333334</ele><time>2026-04-11T11:12:56.945Z</time></trkpt><trkpt lat="42.9118503" lon="13.3201672"><ele>811.6666666666667</ele><time>2026-04-11T11:12:58.988Z</time></trkpt><trkpt lat="42.9119135" lon="13.3202068"><ele>810.0</ele><time>2026-04-11T11:12:59.98Z</time></trkpt><trkpt lat="42.9119862" lon="13.3202315"><ele>808.3333333333333</ele><time>2026-04-11T11:13:00.981Z</time></trkpt><trkpt lat="42.9120625" lon="13.3202276"><ele>806.6666666666666</ele><time>2026-04-11T11:13:01.994Z</time></trkpt><trkpt lat="42.9121338" lon="13.3202225"><ele>805.0</ele><time>2026-04-11T11:13:02.988Z</time></trkpt><trkpt lat="42.9122016" lon="13.3202123"><ele>804.9999999999999</ele><time>2026-04-11T11:13:03.962Z</time></trkpt><trkpt lat="42.9122698" lon="13.3202018"><ele>805.0</ele><time>2026-04-11T11:13:04.994Z</time></trkpt><trkpt lat="42.9123354" lon="13.3201863"><ele>805.0</ele><time>2026-04-11T11:13:05.99Z</time></trkpt><trkpt lat="42.9123966" lon="13.320164"><ele>805.0</ele><time>2026-04-11T11:13:06.984Z</time></trkpt><trkpt lat="42.9124942" lon="13.3200795"><ele>804.9999999999999</ele><time>2026-04-11T11:13:08.996Z</time></trkpt><trkpt lat="42.9125735" lon="13.3200981"><ele>805.0</ele><time>2026-04-11T11:13:09.981Z</time></trkpt><trkpt lat="42.9126544" lon="13.320117"><ele>806.6</ele><time>2026-04-11T11:13:10.976Z</time></trkpt><trkpt lat="42.9127397" lon="13.3201575"><ele>808.2</ele><time>2026-04-11T11:13:11.98Z</time></trkpt><trkpt lat="42.9128297" lon="13.3202112"><ele>809.8</ele><time>2026-04-11T11:13:12.995Z</time></trkpt><trkpt lat="42.9129236" lon="13.3202798"><ele>811.4</ele><time>2026-04-11T11:13:13.986Z</time></trkpt><trkpt lat="42.9130156" lon="13.3203599"><ele>813.0</ele><time>2026-04-11T11:13:14.983Z</time></trkpt><trkpt lat="42.9131083" lon="13.3204613"><ele>811.4</ele><time>2026-04-11T11:13:15.975Z</time></trkpt><trkpt lat="42.9131909" lon="13.3205782"><ele>809.8</ele><time>2026-04-11T11:13:16.968Z</time></trkpt><trkpt lat="42.9132658" lon="13.3206958"><ele>808.2</ele><time>2026-04-11T11:13:17.987Z</time></trkpt><trkpt lat="42.9133342" lon="13.3208093"><ele>806.6</ele><time>2026-04-11T11:13:18.997Z</time></trkpt><trkpt lat="42.9134057" lon="13.3209193"><ele>805.0</ele><time>2026-04-11T11:13:19.98Z</time></trkpt><trkpt lat="42.9134913" lon="13.3210319"><ele>805.0</ele><time>2026-04-11T11:13:20.985Z</time></trkpt><trkpt lat="42.9135777" lon="13.3211326"><ele>805.0</ele><time>2026-04-11T11:13:21.983Z</time></trkpt><trkpt lat="42.9136586" lon="13.321233"><ele>805.0</ele><time>2026-04-11T11:13:22.981Z</time></trkpt><trkpt lat="42.9137333" lon="13.3213337"><ele>805.0</ele><time>2026-04-11T11:13:23.987Z</time></trkpt><trkpt lat="42.9138024" lon="13.3214293"><ele>805.0</ele><time>2026-04-11T11:13:25.003Z</time></trkpt><trkpt lat="42.9138529" lon="13.3215276"><ele>801.3333333333333</ele><time>2026-04-11T11:13:25.979Z</time></trkpt><trkpt lat="42.9138983" lon="13.3216294"><ele>797.6666666666666</ele><time>2026-04-11T11:13:26.979Z</time></trkpt><trkpt lat="42.913926" lon="13.3217273"><ele>794.0</ele><time>2026-04-11T11:13:27.975Z</time></trkpt><trkpt lat="42.9139523" lon="13.3218241"><ele>790.3333333333333</ele><time>2026-04-11T11:13:28.979Z</time></trkpt><trkpt lat="42.9139802" lon="13.3219176"><ele>786.6666666666666</ele><time>2026-04-11T11:13:29.949Z</time></trkpt><trkpt lat="42.913996" lon="13.3220574"><ele>783.0</ele><time>2026-04-11T11:13:31.989Z</time></trkpt><trkpt lat="42.9139524" lon="13.3221632"><ele>783.0</ele><time>2026-04-11T11:13:33.954Z</time></trkpt><trkpt lat="42.913852" lon="13.3221362"><ele>783.0</ele><time>2026-04-11T11:13:36.015Z</time></trkpt><trkpt lat="42.9137999" lon="13.3220553"><ele>783.0</ele><time>2026-04-11T11:13:36.992Z</time></trkpt><trkpt lat="42.9137434" lon="13.3219489"><ele>783.0</ele><time>2026-04-11T11:13:37.994Z</time></trkpt><trkpt lat="42.9136754" lon="13.3218401"><ele>783.0</ele><time>2026-04-11T11:13:38.98Z</time></trkpt><trkpt lat="42.9135907" lon="13.3217323"><ele>783.0</ele><time>2026-04-11T11:13:39.991Z</time></trkpt><trkpt lat="42.9134807" lon="13.3216308"><ele>783.0</ele><time>2026-04-11T11:13:40.989Z</time></trkpt><trkpt lat="42.9133488" lon="13.3215274"><ele>783.0</ele><time>2026-04-11T11:13:41.994Z</time></trkpt><trkpt lat="42.9131946" lon="13.3214215"><ele>785.6666666666667</ele><time>2026-04-11T11:13:42.975Z</time></trkpt><trkpt lat="42.9130277" lon="13.3213221"><ele>788.3333333333334</ele><time>2026-04-11T11:13:43.971Z</time></trkpt><trkpt lat="42.912882" lon="13.3212318"><ele>791.0</ele><time>2026-04-11T11:13:45.019Z</time></trkpt><trkpt lat="42.912747" lon="13.3211448"><ele>791.0</ele><time>2026-04-11T11:13:45.985Z</time></trkpt><trkpt lat="42.9126431" lon="13.321088"><ele>791.0</ele><time>2026-04-11T11:13:46.978Z</time></trkpt><trkpt lat="42.9125353" lon="13.3210511"><ele>791.0</ele><time>2026-04-11T11:13:47.998Z</time></trkpt><trkpt lat="42.9124256" lon="13.3210329"><ele>791.0</ele><time>2026-04-11T11:13:48.949Z</time></trkpt><trkpt lat="42.9122974" lon="13.3210408"><ele>788.75</ele><time>2026-04-11T11:13:49.948Z</time></trkpt><trkpt lat="42.9121533" lon="13.3210642"><ele>786.5</ele><time>2026-04-11T11:13:50.95Z</time></trkpt><trkpt lat="42.9120045" lon="13.321084"><ele>784.25</ele><time>2026-04-11T11:13:51.968Z</time></trkpt><trkpt lat="42.9118643" lon="13.3211057"><ele>782.0</ele><time>2026-04-11T11:13:52.944Z</time></trkpt><trkpt lat="42.9117363" lon="13.3211322"><ele>781.75</ele><time>2026-04-11T11:13:53.948Z</time></trkpt><trkpt lat="42.9116145" lon="13.3211583"><ele>781.5</ele><time>2026-04-11T11:13:54.966Z</time></trkpt><trkpt lat="42.9114943" lon="13.3211876"><ele>781.25</ele><time>2026-04-11T11:13:55.946Z</time></trkpt><trkpt lat="42.911383" lon="13.3211909"><ele>781.0</ele><time>2026-04-11T11:13:57.002Z</time></trkpt><trkpt lat="42.9112761" lon="13.3211788"><ele>781.0</ele><time>2026-04-11T11:13:57.987Z</time></trkpt><trkpt lat="42.9111423" lon="13.3211532"><ele>781.0</ele><time>2026-04-11T11:13:58.968Z</time></trkpt><trkpt lat="42.9110263" lon="13.3211142"><ele>781.0</ele><time>2026-04-11T11:13:59.978Z</time></trkpt><trkpt lat="42.9109246" lon="13.3210776"><ele>781.0</ele><time>2026-04-11T11:14:01.005Z</time></trkpt><trkpt lat="42.9108274" lon="13.3210512"><ele>779.4999999999999</ele><time>2026-04-11T11:14:01.996Z</time></trkpt><trkpt lat="42.9107417" lon="13.3210307"><ele>778.0</ele><time>2026-04-11T11:14:02.978Z</time></trkpt><trkpt lat="42.9106608" lon="13.3210059"><ele>776.5</ele><time>2026-04-11T11:14:03.961Z</time></trkpt><trkpt lat="42.9105849" lon="13.3209912"><ele>775.0</ele><time>2026-04-11T11:14:05.003Z</time></trkpt><trkpt lat="42.9105203" lon="13.3210257"><ele>773.4999999999999</ele><time>2026-04-11T11:14:06.004Z</time></trkpt><trkpt lat="42.9104603" lon="13.3210724"><ele>772.0</ele><time>2026-04-11T11:14:06.98Z</time></trkpt><trkpt lat="42.9104343" lon="13.3211718"><ele>772.0</ele><time>2026-04-11T11:14:07.957Z</time></trkpt><trkpt lat="42.9104055" lon="13.3212974"><ele>772.0</ele><time>2026-04-11T11:14:08.97Z</time></trkpt><trkpt lat="42.9103728" lon="13.321447"><ele>772.0</ele><time>2026-04-11T11:14:10.002Z</time></trkpt><trkpt lat="42.9103381" lon="13.3216098"><ele>772.0</ele><time>2026-04-11T11:14:10.985Z</time></trkpt><trkpt lat="42.910307" lon="13.3217739"><ele>770.0</ele><time>2026-04-11T11:14:11.985Z</time></trkpt><trkpt lat="42.9102791" lon="13.3219222"><ele>768.0</ele><time>2026-04-11T11:14:12.997Z</time></trkpt><trkpt lat="42.9102458" lon="13.3220547"><ele>766.0</ele><time>2026-04-11T11:14:13.958Z</time></trkpt><trkpt lat="42.9102253" lon="13.322167"><ele>764.0</ele><time>2026-04-11T11:14:14.988Z</time></trkpt><trkpt lat="42.9102207" lon="13.3222796"><ele>762.0</ele><time>2026-04-11T11:14:15.985Z</time></trkpt><trkpt lat="42.910236" lon="13.3223849"><ele>759.0</ele><time>2026-04-11T11:14:16.998Z</time></trkpt><trkpt lat="42.9102612" lon="13.3224915"><ele>756.0</ele><time>2026-04-11T11:14:18.066Z</time></trkpt><trkpt lat="42.9104072" lon="13.3226662"><ele>753.0</ele><time>2026-04-11T11:14:19.988Z</time></trkpt><trkpt lat="42.9105011" lon="13.3227664"><ele>750.0</ele><time>2026-04-11T11:14:20.984Z</time></trkpt><trkpt lat="42.9106105" lon="13.3228612"><ele>750.0</ele><time>2026-04-11T11:14:21.983Z</time></trkpt><trkpt lat="42.9107211" lon="13.3229462"><ele>750.0</ele><time>2026-04-11T11:14:22.994Z</time></trkpt><trkpt lat="42.9108366" lon="13.3230149"><ele>750.0</ele><time>2026-04-11T11:14:23.957Z</time></trkpt><trkpt lat="42.910965" lon="13.3230774"><ele>750.0</ele><time>2026-04-11T11:14:24.96Z</time></trkpt><trkpt lat="42.9110862" lon="13.323145"><ele>747.8</ele><time>2026-04-11T11:14:25.99Z</time></trkpt><trkpt lat="42.9111951" lon="13.3232147"><ele>745.6</ele><time>2026-04-11T11:14:26.991Z</time></trkpt><trkpt lat="42.9112886" lon="13.3232749"><ele>743.4000000000001</ele><time>2026-04-11T11:14:27.98Z</time></trkpt><trkpt lat="42.9113634" lon="13.3233384"><ele>741.2</ele><time>2026-04-11T11:14:28.965Z</time></trkpt><trkpt lat="42.91142" lon="13.3234159"><ele>739.0</ele><time>2026-04-11T11:14:29.974Z</time></trkpt><trkpt lat="42.9114732" lon="13.3234872"><ele>739.0</ele><time>2026-04-11T11:14:30.966Z</time></trkpt><trkpt lat="42.9115009" lon="13.3235961"><ele>739.0</ele><time>2026-04-11T11:14:31.981Z</time></trkpt><trkpt lat="42.91151" lon="13.3237367"><ele>739.0</ele><time>2026-04-11T11:14:32.989Z</time></trkpt><trkpt lat="42.9115004" lon="13.3238768"><ele>739.0</ele><time>2026-04-11T11:14:33.985Z</time></trkpt><trkpt lat="42.9114921" lon="13.3240069"><ele>739.0</ele><time>2026-04-11T11:14:35.025Z</time></trkpt><trkpt lat="42.911486" lon="13.32412"><ele>737.0</ele><time>2026-04-11T11:14:35.976Z</time></trkpt><trkpt lat="42.9115087" lon="13.32423"><ele>735.0</ele><time>2026-04-11T11:14:36.98Z</time></trkpt><trkpt lat="42.9115326" lon="13.3243577"><ele>733.0</ele><time>2026-04-11T11:14:37.991Z</time></trkpt><trkpt lat="42.9115919" lon="13.3245023"><ele>731.0</ele><time>2026-04-11T11:14:38.992Z</time></trkpt><trkpt lat="42.9117015" lon="13.3246303"><ele>729.0</ele><time>2026-04-11T11:14:39.974Z</time></trkpt><trkpt lat="42.9118117" lon="13.3247724"><ele>727.75</ele><time>2026-04-11T11:14:40.973Z</time></trkpt><trkpt lat="42.9119038" lon="13.3248927"><ele>726.5</ele><time>2026-04-11T11:14:42.013Z</time></trkpt><trkpt lat="42.9119857" lon="13.3249947"><ele>725.25</ele><time>2026-04-11T11:14:42.991Z</time></trkpt><trkpt lat="42.91206" lon="13.325088"><ele>724.0</ele><time>2026-04-11T11:14:43.985Z</time></trkpt><trkpt lat="42.9121235" lon="13.3252265"><ele>724.0</ele><time>2026-04-11T11:14:44.984Z</time></trkpt><trkpt lat="42.912163" lon="13.3253901"><ele>724.0</ele><time>2026-04-11T11:14:45.992Z</time></trkpt><trkpt lat="42.9121982" lon="13.3255599"><ele>724.0</ele><time>2026-04-11T11:14:46.967Z</time></trkpt><trkpt lat="42.9122047" lon="13.3257392"><ele>724.0</ele><time>2026-04-11T11:14:47.98Z</time></trkpt><trkpt lat="42.9122116" lon="13.3258903"><ele>722.2</ele><time>2026-04-11T11:14:48.996Z</time></trkpt><trkpt lat="42.9122179" lon="13.3260282"><ele>720.4000000000001</ele><time>2026-04-11T11:14:50.006Z</time></trkpt><trkpt lat="42.9122274" lon="13.3261487"><ele>718.6</ele><time>2026-04-11T11:14:51.005Z</time></trkpt><trkpt lat="42.9122573" lon="13.3262598"><ele>716.8</ele><time>2026-04-11T11:14:51.95Z</time></trkpt><trkpt lat="42.9123009" lon="13.3263624"><ele>715.0</ele><time>2026-04-11T11:14:52.993Z</time></trkpt><trkpt lat="42.9123586" lon="13.3264495"><ele>712.4</ele><time>2026-04-11T11:14:54.007Z</time></trkpt><trkpt lat="42.9124404" lon="13.3265206"><ele>709.8</ele><time>2026-04-11T11:14:54.967Z</time></trkpt><trkpt lat="42.9125504" lon="13.3265652"><ele>707.2</ele><time>2026-04-11T11:14:55.979Z</time></trkpt><trkpt lat="42.9126629" lon="13.326605"><ele>704.6</ele><time>2026-04-11T11:14:56.989Z</time></trkpt><trkpt lat="42.9127779" lon="13.3266347"><ele>702.0</ele><time>2026-04-11T11:14:57.983Z</time></trkpt><trkpt lat="42.9128848" lon="13.3266765"><ele>701.6666666666666</ele><time>2026-04-11T11:14:59Z</time></trkpt><trkpt lat="42.9129796" lon="13.326717"><ele>701.3333333333334</ele><time>2026-04-11T11:14:59.984Z</time></trkpt><trkpt lat="42.9130638" lon="13.3267335"><ele>701.0</ele><time>2026-04-11T11:15:00.963Z</time></trkpt><trkpt lat="42.9131304" lon="13.3267172"><ele>700.6666666666667</ele><time>2026-04-11T11:15:02.025Z</time></trkpt><trkpt lat="42.9131811" lon="13.3268246"><ele>700.3333333333334</ele><time>2026-04-11T11:15:08.001Z</time></trkpt><trkpt lat="42.9131112" lon="13.3268945"><ele>700.0</ele><time>2026-04-11T11:15:11.008Z</time></trkpt><trkpt lat="42.9130442" lon="13.3269355"><ele>700.0</ele><time>2026-04-11T11:15:12.001Z</time></trkpt><trkpt lat="42.9129513" lon="13.3270146"><ele>700.0</ele><time>2026-04-11T11:15:12.992Z</time></trkpt><trkpt lat="42.9128482" lon="13.3270989"><ele>700.0</ele><time>2026-04-11T11:15:14.013Z</time></trkpt><trkpt lat="42.9127626" lon="13.3271718"><ele>700.0</ele><time>2026-04-11T11:15:14.997Z</time></trkpt><trkpt lat="42.9126883" lon="13.327258"><ele>700.0</ele><time>2026-04-11T11:15:15.998Z</time></trkpt><trkpt lat="42.9126183" lon="13.3273249"><ele>697.6666666666667</ele><time>2026-04-11T11:15:16.971Z</time></trkpt><trkpt lat="42.9125534" lon="13.3273905"><ele>695.3333333333334</ele><time>2026-04-11T11:15:17.995Z</time></trkpt><trkpt lat="42.9125074" lon="13.3274524"><ele>693.0</ele><time>2026-04-11T11:15:19.002Z</time></trkpt><trkpt lat="42.9124726" lon="13.3275892"><ele>690.6666666666666</ele><time>2026-04-11T11:15:21.004Z</time></trkpt><trkpt lat="42.9124951" lon="13.3276744"><ele>688.3333333333333</ele><time>2026-04-11T11:15:21.995Z</time></trkpt><trkpt lat="42.9125823" lon="13.3277613"><ele>686.0</ele><time>2026-04-11T11:15:24.004Z</time></trkpt><trkpt lat="42.9126793" lon="13.3277301"><ele>685.5</ele><time>2026-04-11T11:15:25.015Z</time></trkpt><trkpt lat="42.9127995" lon="13.3276691"><ele>685.0</ele><time>2026-04-11T11:15:26.006Z</time></trkpt><trkpt lat="42.9129098" lon="13.3275981"><ele>684.5</ele><time>2026-04-11T11:15:27.021Z</time></trkpt><trkpt lat="42.9130184" lon="13.3275358"><ele>684.0</ele><time>2026-04-11T11:15:28.019Z</time></trkpt><trkpt lat="42.9131028" lon="13.3274683"><ele>684.0</ele><time>2026-04-11T11:15:29.025Z</time></trkpt><trkpt lat="42.9131761" lon="13.3274055"><ele>684.0</ele><time>2026-04-11T11:15:29.981Z</time></trkpt><trkpt lat="42.9132706" lon="13.3273435"><ele>684.0</ele><time>2026-04-11T11:15:31.985Z</time></trkpt><trkpt lat="42.9133613" lon="13.3273918"><ele>684.0</ele><time>2026-04-11T11:15:35.014Z</time></trkpt><trkpt lat="42.9133177" lon="13.3275579"><ele>684.0</ele><time>2026-04-11T11:15:37.01Z</time></trkpt><trkpt lat="42.9132352" lon="13.3276585"><ele>684.0</ele><time>2026-04-11T11:15:38.008Z</time></trkpt><trkpt lat="42.9131396" lon="13.3277751"><ele>684.0</ele><time>2026-04-11T11:15:38.997Z</time></trkpt><trkpt lat="42.9130605" lon="13.3278662"><ele>684.0</ele><time>2026-04-11T11:15:39.997Z</time></trkpt><trkpt lat="42.9129879" lon="13.3279469"><ele>684.0</ele><time>2026-04-11T11:15:41.006Z</time></trkpt><trkpt lat="42.9129139" lon="13.3280431"><ele>684.0</ele><time>2026-04-11T11:15:42.999Z</time></trkpt><trkpt lat="42.9129332" lon="13.3281368"><ele>684.0</ele><time>2026-04-11T11:15:43.991Z</time></trkpt><trkpt lat="42.913026" lon="13.3282346"><ele>684.0</ele><time>2026-04-11T11:15:45.986Z</time></trkpt><trkpt lat="42.9131543" lon="13.3281786"><ele>684.0</ele><time>2026-04-11T11:15:47.993Z</time></trkpt><trkpt lat="42.9132386" lon="13.3280981"><ele>684.0</ele><time>2026-04-11T11:15:48.985Z</time></trkpt><trkpt lat="42.9133253" lon="13.3280285"><ele>683.0</ele><time>2026-04-11T11:15:49.981Z</time></trkpt><trkpt lat="42.9134091" lon="13.3279797"><ele>682.0</ele><time>2026-04-11T11:15:51.014Z</time></trkpt><trkpt lat="42.9134965" lon="13.3279577"><ele>681.0</ele><time>2026-04-11T11:15:51.993Z</time></trkpt><trkpt lat="42.9135816" lon="13.3279665"><ele>680.0</ele><time>2026-04-11T11:15:52.986Z</time></trkpt><trkpt lat="42.9136699" lon="13.328001"><ele>679.0</ele><time>2026-04-11T11:15:53.988Z</time></trkpt><trkpt lat="42.9137624" lon="13.3280477"><ele>681.3333333333334</ele><time>2026-04-11T11:15:54.971Z</time></trkpt><trkpt lat="42.9138638" lon="13.3280702"><ele>683.6666666666667</ele><time>2026-04-11T11:15:55.983Z</time></trkpt><trkpt lat="42.9139509" lon="13.3280737"><ele>686.0</ele><time>2026-04-11T11:15:56.978Z</time></trkpt><trkpt lat="42.9140218" lon="13.3280762"><ele>688.3333333333334</ele><time>2026-04-11T11:15:57.97Z</time></trkpt><trkpt lat="42.9140819" lon="13.3281071"><ele>690.6666666666666</ele><time>2026-04-11T11:15:59.035Z</time></trkpt><trkpt lat="42.9141048" lon="13.3282638"><ele>693.0</ele><time>2026-04-11T11:16:00.995Z</time></trkpt><trkpt lat="42.9140585" lon="13.3283416"><ele>693.0</ele><time>2026-04-11T11:16:01.992Z</time></trkpt><trkpt lat="42.9139918" lon="13.3284175"><ele>693.0</ele><time>2026-04-11T11:16:02.992Z</time></trkpt><trkpt lat="42.9138796" lon="13.3284865"><ele>693.0</ele><time>2026-04-11T11:16:03.992Z</time></trkpt><trkpt lat="42.9137433" lon="13.3285497"><ele>693.0</ele><time>2026-04-11T11:16:04.998Z</time></trkpt><trkpt lat="42.9136224" lon="13.3285731"><ele>693.0</ele><time>2026-04-11T11:16:05.994Z</time></trkpt><trkpt lat="42.9135295" lon="13.3285987"><ele>693.0</ele><time>2026-04-11T11:16:06.991Z</time></trkpt><trkpt lat="42.9134607" lon="13.3286433"><ele>693.0</ele><time>2026-04-11T11:16:07.996Z</time></trkpt><trkpt lat="42.9134056" lon="13.32873"><ele>693.0</ele><time>2026-04-11T11:16:08.998Z</time></trkpt><trkpt lat="42.9133804" lon="13.3288424"><ele>693.0</ele><time>2026-04-11T11:16:09.999Z</time></trkpt><trkpt lat="42.913406" lon="13.3289759"><ele>693.0</ele><time>2026-04-11T11:16:10.988Z</time></trkpt><trkpt lat="42.9134666" lon="13.3291133"><ele>696.5</ele><time>2026-04-11T11:16:11.989Z</time></trkpt><trkpt lat="42.9135496" lon="13.3292174"><ele>700.0</ele><time>2026-04-11T11:16:12.993Z</time></trkpt><trkpt lat="42.9136116" lon="13.3292957"><ele>703.5</ele><time>2026-04-11T11:16:13.991Z</time></trkpt><trkpt lat="42.9136374" lon="13.3294106"><ele>707.0</ele><time>2026-04-11T11:16:15.985Z</time></trkpt><trkpt lat="42.9136047" lon="13.329491"><ele>710.5</ele><time>2026-04-11T11:16:16.995Z</time></trkpt><trkpt lat="42.9135271" lon="13.32957"><ele>714.0</ele><time>2026-04-11T11:16:17.989Z</time></trkpt><trkpt lat="42.9134325" lon="13.3296691"><ele>714.8000000000001</ele><time>2026-04-11T11:16:19.02Z</time></trkpt><trkpt lat="42.9133463" lon="13.329757"><ele>715.6</ele><time>2026-04-11T11:16:20.018Z</time></trkpt><trkpt lat="42.9132753" lon="13.3298515"><ele>716.4</ele><time>2026-04-11T11:16:21.022Z</time></trkpt><trkpt lat="42.9132455" lon="13.3299654"><ele>717.2</ele><time>2026-04-11T11:16:21.998Z</time></trkpt><trkpt lat="42.9132158" lon="13.3300697"><ele>718.0</ele><time>2026-04-11T11:16:23.015Z</time></trkpt><trkpt lat="42.9131836" lon="13.3301657"><ele>718.0</ele><time>2026-04-11T11:16:23.972Z</time></trkpt><trkpt lat="42.9131675" lon="13.3302511"><ele>718.0</ele><time>2026-04-11T11:16:24.983Z</time></trkpt><trkpt lat="42.9131625" lon="13.3303883"><ele>718.0</ele><time>2026-04-11T11:16:26.984Z</time></trkpt><trkpt lat="42.9131906" lon="13.3304714"><ele>718.0</ele><time>2026-04-11T11:16:29.958Z</time></trkpt><trkpt lat="42.9132457" lon="13.3305476"><ele>718.0</ele><time>2026-04-11T11:16:31.999Z</time></trkpt><trkpt lat="42.9133502" lon="13.3305716"><ele>718.0</ele><time>2026-04-11T11:16:34.009Z</time></trkpt><trkpt lat="42.9134297" lon="13.3305343"><ele>720.2</ele><time>2026-04-11T11:16:34.986Z</time></trkpt><trkpt lat="42.9135203" lon="13.3304989"><ele>722.4</ele><time>2026-04-11T11:16:36.008Z</time></trkpt><trkpt lat="42.9136053" lon="13.3304605"><ele>724.6</ele><time>2026-04-11T11:16:36.998Z</time></trkpt><trkpt lat="42.9136924" lon="13.3304191"><ele>726.8000000000001</ele><time>2026-04-11T11:16:38.011Z</time></trkpt><trkpt lat="42.9137859" lon="13.3303645"><ele>729.0</ele><time>2026-04-11T11:16:39Z</time></trkpt><trkpt lat="42.9138801" lon="13.3303035"><ele>729.0</ele><time>2026-04-11T11:16:39.979Z</time></trkpt><trkpt lat="42.9139672" lon="13.330259"><ele>729.0</ele><time>2026-04-11T11:16:40.996Z</time></trkpt><trkpt lat="42.9140508" lon="13.3302127"><ele>729.0</ele><time>2026-04-11T11:16:41.989Z</time></trkpt><trkpt lat="42.9141117" lon="13.3301797"><ele>729.0</ele><time>2026-04-11T11:16:42.985Z</time></trkpt><trkpt lat="42.9142133" lon="13.3302222"><ele>729.0</ele><time>2026-04-11T11:16:44.971Z</time></trkpt><trkpt lat="42.914265" lon="13.3303076"><ele>729.0</ele><time>2026-04-11T11:16:46.993Z</time></trkpt><trkpt lat="42.9143286" lon="13.3303475"><ele>733.4000000000001</ele><time>2026-04-11T11:16:48.984Z</time></trkpt><trkpt lat="42.9144" lon="13.3303273"><ele>737.8</ele><time>2026-04-11T11:16:50.973Z</time></trkpt><trkpt lat="42.9144645" lon="13.3302209"><ele>742.2</ele><time>2026-04-11T11:16:52.997Z</time></trkpt><trkpt lat="42.9145085" lon="13.3300837"><ele>746.5999999999999</ele><time>2026-04-11T11:16:54.956Z</time></trkpt><trkpt lat="42.9145408" lon="13.3299194"><ele>751.0</ele><time>2026-04-11T11:16:56.994Z</time></trkpt><trkpt lat="42.9145855" lon="13.3298264"><ele>751.0</ele><time>2026-04-11T11:16:57.982Z</time></trkpt><trkpt lat="42.9146475" lon="13.3297261"><ele>751.0</ele><time>2026-04-11T11:16:58.989Z</time></trkpt><trkpt lat="42.9147052" lon="13.3296515"><ele>751.0</ele><time>2026-04-11T11:17:00Z</time></trkpt><trkpt lat="42.9147782" lon="13.3295712"><ele>751.0</ele><time>2026-04-11T11:17:01.984Z</time></trkpt><trkpt lat="42.914877" lon="13.3295538"><ele>751.0</ele><time>2026-04-11T11:17:03.97Z</time></trkpt><trkpt lat="42.9149585" lon="13.3295437"><ele>747.0</ele><time>2026-04-11T11:17:04.978Z</time></trkpt><trkpt lat="42.9150555" lon="13.3295112"><ele>743.0</ele><time>2026-04-11T11:17:05.983Z</time></trkpt><trkpt lat="42.9151546" lon="13.3294727"><ele>739.0</ele><time>2026-04-11T11:17:06.987Z</time></trkpt><trkpt lat="42.915255" lon="13.3294415"><ele>735.0</ele><time>2026-04-11T11:17:07.976Z</time></trkpt><trkpt lat="42.9153579" lon="13.3294357"><ele>731.0</ele><time>2026-04-11T11:17:09.028Z</time></trkpt><trkpt lat="42.9154602" lon="13.3294315"><ele>730.5</ele><time>2026-04-11T11:17:09.979Z</time></trkpt><trkpt lat="42.9155552" lon="13.329432"><ele>730.0</ele><time>2026-04-11T11:17:10.98Z</time></trkpt><trkpt lat="42.9156461" lon="13.3294353"><ele>729.5</ele><time>2026-04-11T11:17:11.98Z</time></trkpt><trkpt lat="42.9157367" lon="13.3294394"><ele>729.0</ele><time>2026-04-11T11:17:12.986Z</time></trkpt><trkpt lat="42.9158198" lon="13.3294615"><ele>728.5</ele><time>2026-04-11T11:17:13.974Z</time></trkpt><trkpt lat="42.9158869" lon="13.3294919"><ele>728.0</ele><time>2026-04-11T11:17:14.95Z</time></trkpt><trkpt lat="42.9159579" lon="13.3295263"><ele>727.0</ele><time>2026-04-11T11:17:17Z</time></trkpt><trkpt lat="42.9160248" lon="13.329605"><ele>726.0</ele><time>2026-04-11T11:17:22.975Z</time></trkpt><trkpt lat="42.9161032" lon="13.3296893"><ele>725.0</ele><time>2026-04-11T11:17:24.955Z</time></trkpt><trkpt lat="42.9161438" lon="13.3297593"><ele>724.0</ele><time>2026-04-11T11:17:25.99Z</time></trkpt><trkpt lat="42.9161838" lon="13.3298535"><ele>723.0</ele><time>2026-04-11T11:17:26.973Z</time></trkpt><trkpt lat="42.9162239" lon="13.3299606"><ele>722.0</ele><time>2026-04-11T11:17:27.998Z</time></trkpt><trkpt lat="42.9162557" lon="13.3300603"><ele>722.0</ele><time>2026-04-11T11:17:28.997Z</time></trkpt><trkpt lat="42.9162877" lon="13.3301585"><ele>722.0</ele><time>2026-04-11T11:17:29.978Z</time></trkpt><trkpt lat="42.9163208" lon="13.3302515"><ele>722.0</ele><time>2026-04-11T11:17:31.014Z</time></trkpt><trkpt lat="42.9163592" lon="13.3303432"><ele>722.0</ele><time>2026-04-11T11:17:31.975Z</time></trkpt><trkpt lat="42.9163993" lon="13.3304197"><ele>722.0</ele><time>2026-04-11T11:17:32.948Z</time></trkpt><trkpt lat="42.9164361" lon="13.3305047"><ele>722.0</ele><time>2026-04-11T11:17:33.96Z</time></trkpt><trkpt lat="42.9164661" lon="13.3305944"><ele>722.0</ele><time>2026-04-11T11:17:34.953Z</time></trkpt><trkpt lat="42.9164995" lon="13.3306873"><ele>722.4000000000001</ele><time>2026-04-11T11:17:36.002Z</time></trkpt><trkpt lat="42.9165304" lon="13.3307821"><ele>722.8000000000001</ele><time>2026-04-11T11:17:36.987Z</time></trkpt><trkpt lat="42.9165573" lon="13.3308671"><ele>723.2</ele><time>2026-04-11T11:17:38.017Z</time></trkpt><trkpt lat="42.9165833" lon="13.3310004"><ele>723.6</ele><time>2026-04-11T11:17:39.975Z</time></trkpt><trkpt lat="42.9165945" lon="13.3311614"><ele>724.0</ele><time>2026-04-11T11:17:41.972Z</time></trkpt><trkpt lat="42.916597" lon="13.3312931"><ele>724.8000000000001</ele><time>2026-04-11T11:17:42.981Z</time></trkpt><trkpt lat="42.9165981" lon="13.3314457"><ele>725.6</ele><time>2026-04-11T11:17:43.976Z</time></trkpt><trkpt lat="42.9166016" lon="13.3315863"><ele>726.4</ele><time>2026-04-11T11:17:44.953Z</time></trkpt><trkpt lat="42.9165982" lon="13.3317228"><ele>727.2</ele><time>2026-04-11T11:17:45.974Z</time></trkpt><trkpt lat="42.916601" lon="13.3318864"><ele>728.0</ele><time>2026-04-11T11:17:46.972Z</time></trkpt><trkpt lat="42.9166073" lon="13.3320081"><ele>728.0</ele><time>2026-04-11T11:17:47.976Z</time></trkpt><trkpt lat="42.9166068" lon="13.3321006"><ele>728.0</ele><time>2026-04-11T11:17:48.983Z</time></trkpt><trkpt lat="42.9166031" lon="13.3321894"><ele>728.0</ele><time>2026-04-11T11:17:49.958Z</time></trkpt><trkpt lat="42.9165929" lon="13.3322766"><ele>728.0</ele><time>2026-04-11T11:17:51Z</time></trkpt><trkpt lat="42.916577" lon="13.3323689"><ele>728.0</ele><time>2026-04-11T11:17:51.989Z</time></trkpt><trkpt lat="42.9165558" lon="13.3324514"><ele>728.0</ele><time>2026-04-11T11:17:52.955Z</time></trkpt><trkpt lat="42.9165108" lon="13.3326006"><ele>728.0</ele><time>2026-04-11T11:17:54.954Z</time></trkpt><trkpt lat="42.9164607" lon="13.3327259"><ele>727.2</ele><time>2026-04-11T11:17:56.952Z</time></trkpt><trkpt lat="42.916441" lon="13.3328301"><ele>726.4</ele><time>2026-04-11T11:17:58.979Z</time></trkpt><trkpt lat="42.916435" lon="13.3329257"><ele>725.6</ele><time>2026-04-11T11:18:00.99Z</time></trkpt><trkpt lat="42.9164044" lon="13.3330037"><ele>724.8000000000001</ele><time>2026-04-11T11:18:10.945Z</time></trkpt><trkpt lat="42.9163068" lon="13.3331043"><ele>724.0</ele><time>2026-04-11T11:18:14.017Z</time></trkpt><trkpt lat="42.9162072" lon="13.3332332"><ele>722.6</ele><time>2026-04-11T11:18:15.978Z</time></trkpt><trkpt lat="42.9161787" lon="13.33333"><ele>721.2</ele><time>2026-04-11T11:18:17.011Z</time></trkpt><trkpt lat="42.9161415" lon="13.3334441"><ele>719.8000000000001</ele><time>2026-04-11T11:18:17.991Z</time></trkpt><trkpt lat="42.9160928" lon="13.3335761"><ele>718.4000000000001</ele><time>2026-04-11T11:18:19.008Z</time></trkpt><trkpt lat="42.9160396" lon="13.3337286"><ele>717.0</ele><time>2026-04-11T11:18:19.985Z</time></trkpt><trkpt lat="42.9160014" lon="13.3338713"><ele>718.2</ele><time>2026-04-11T11:18:20.998Z</time></trkpt><trkpt lat="42.9159685" lon="13.3339913"><ele>719.4000000000001</ele><time>2026-04-11T11:18:22.038Z</time></trkpt><trkpt lat="42.9159372" lon="13.3340828"><ele>720.5999999999999</ele><time>2026-04-11T11:18:22.982Z</time></trkpt><trkpt lat="42.9158747" lon="13.3341893"><ele>721.8</ele><time>2026-04-11T11:18:24.96Z</time></trkpt><trkpt lat="42.9158128" lon="13.3342805"><ele>723.0</ele><time>2026-04-11T11:18:26.968Z</time></trkpt><trkpt lat="42.9157286" lon="13.334381"><ele>725.1666666666666</ele><time>2026-04-11T11:18:29.01Z</time></trkpt><trkpt lat="42.9156702" lon="13.3344575"><ele>727.3333333333334</ele><time>2026-04-11T11:18:30.989Z</time></trkpt><trkpt lat="42.9156224" lon="13.3345547"><ele>729.5</ele><time>2026-04-11T11:18:34.016Z</time></trkpt><trkpt lat="42.9156685" lon="13.3346435"><ele>731.6666666666667</ele><time>2026-04-11T11:18:37.959Z</time></trkpt><trkpt lat="42.915695" lon="13.3347435"><ele>733.8333333333334</ele><time>2026-04-11T11:18:40.993Z</time></trkpt><trkpt lat="42.915722" lon="13.3348281"><ele>736.0</ele><time>2026-04-11T11:18:44.026Z</time></trkpt><trkpt lat="42.9157987" lon="13.3348716"><ele>735.6666666666667</ele><time>2026-04-11T11:18:45.979Z</time></trkpt><trkpt lat="42.9158858" lon="13.3348956"><ele>735.3333333333334</ele><time>2026-04-11T11:18:47.97Z</time></trkpt><trkpt lat="42.9159742" lon="13.3349178"><ele>735.0</ele><time>2026-04-11T11:18:50.003Z</time></trkpt><trkpt lat="42.9160475" lon="13.3349425"><ele>734.6666666666666</ele><time>2026-04-11T11:18:51.979Z</time></trkpt><trkpt lat="42.916122" lon="13.3349925"><ele>734.3333333333333</ele><time>2026-04-11T11:18:55.027Z</time></trkpt><trkpt lat="42.9160582" lon="13.3349754"><ele>734.0</ele><time>2026-04-11T11:19:00.011Z</time></trkpt><trkpt lat="42.9160042" lon="13.3349157"><ele>734.0</ele><time>2026-04-11T11:19:02Z</time></trkpt><trkpt lat="42.9159294" lon="13.3348579"><ele>734.0</ele><time>2026-04-11T11:19:04.98Z</time></trkpt><trkpt lat="42.9158512" lon="13.3348265"><ele>734.0</ele><time>2026-04-11T11:19:07.983Z</time></trkpt><trkpt lat="42.9157755" lon="13.3348175"><ele>734.0</ele><time>2026-04-11T11:19:09.995Z</time></trkpt><trkpt lat="42.9157221" lon="13.3347468"><ele>734.0</ele><time>2026-04-11T11:19:12.981Z</time></trkpt><trkpt lat="42.9156948" lon="13.3346432"><ele>734.0</ele><time>2026-04-11T11:19:14.992Z</time></trkpt><trkpt lat="42.9156559" lon="13.3345287"><ele>734.4000000000001</ele><time>2026-04-11T11:19:16.991Z</time></trkpt><trkpt lat="42.9156634" lon="13.3344056"><ele>734.8</ele><time>2026-04-11T11:19:19.975Z</time></trkpt><trkpt lat="42.9157524" lon="13.3342853"><ele>735.2</ele><time>2026-04-11T11:19:21.98Z</time></trkpt><trkpt lat="42.9158253" lon="13.3341981"><ele>735.5999999999999</ele><time>2026-04-11T11:19:23.983Z</time></trkpt><trkpt lat="42.9159043" lon="13.3340926"><ele>736.0</ele><time>2026-04-11T11:19:25.982Z</time></trkpt><trkpt lat="42.9159723" lon="13.3339363"><ele>732.8333333333334</ele><time>2026-04-11T11:19:27.971Z</time></trkpt><trkpt lat="42.9159961" lon="13.3338437"><ele>729.6666666666667</ele><time>2026-04-11T11:19:29.02Z</time></trkpt><trkpt lat="42.916015" lon="13.3337605"><ele>726.5</ele><time>2026-04-11T11:19:29.971Z</time></trkpt><trkpt lat="42.916057" lon="13.3336324"><ele>723.3333333333334</ele><time>2026-04-11T11:19:31.989Z</time></trkpt><trkpt lat="42.9161044" lon="13.3335002"><ele>720.1666666666666</ele><time>2026-04-11T11:19:34.005Z</time></trkpt><trkpt lat="42.9161555" lon="13.3333778"><ele>717.0</ele><time>2026-04-11T11:19:35.982Z</time></trkpt><trkpt lat="42.9161896" lon="13.3332762"><ele>717.0</ele><time>2026-04-11T11:19:38.003Z</time></trkpt><trkpt lat="42.9162314" lon="13.3331921"><ele>717.0</ele><time>2026-04-11T11:19:40.018Z</time></trkpt><trkpt lat="42.9162759" lon="13.3331304"><ele>717.0</ele><time>2026-04-11T11:19:41.959Z</time></trkpt><trkpt lat="42.916334" lon="13.3330466"><ele>717.0</ele><time>2026-04-11T11:19:44.989Z</time></trkpt><trkpt lat="42.9163508" lon="13.333133"><ele>717.0</ele><time>2026-04-11T11:19:51.962Z</time></trkpt><trkpt lat="42.9163345" lon="13.3332167"><ele>717.0</ele><time>2026-04-11T11:19:53.996Z</time></trkpt><trkpt lat="42.916324" lon="13.3333135"><ele>717.0</ele><time>2026-04-11T11:19:55.975Z</time></trkpt><trkpt lat="42.9163201" lon="13.3334258"><ele>717.0</ele><time>2026-04-11T11:19:58.047Z</time></trkpt><trkpt lat="42.916312" lon="13.3335554"><ele>717.0</ele><time>2026-04-11T11:19:59.987Z</time></trkpt><trkpt lat="42.9163174" lon="13.3336676"><ele>717.0</ele><time>2026-04-11T11:20:01.969Z</time></trkpt><trkpt lat="42.9163304" lon="13.3338117"><ele>717.0</ele><time>2026-04-11T11:20:03.999Z</time></trkpt><trkpt lat="42.916352" lon="13.3339328"><ele>717.0</ele><time>2026-04-11T11:20:06.002Z</time></trkpt><trkpt lat="42.9163813" lon="13.3340295"><ele>717.0</ele><time>2026-04-11T11:20:07.976Z</time></trkpt><trkpt lat="42.9164365" lon="13.3340869"><ele>717.0</ele><time>2026-04-11T11:20:10.967Z</time></trkpt><trkpt lat="42.916538" lon="13.3340196"><ele>717.0</ele><time>2026-04-11T11:20:12.977Z</time></trkpt><trkpt lat="42.9165824" lon="13.3339567"><ele>717.0</ele><time>2026-04-11T11:20:13.986Z</time></trkpt><trkpt lat="42.9166729" lon="13.3338629"><ele>717.0</ele><time>2026-04-11T11:20:15.993Z</time></trkpt><trkpt lat="42.9167667" lon="13.3338172"><ele>717.4000000000001</ele><time>2026-04-11T11:20:18Z</time></trkpt><trkpt lat="42.9168632" lon="13.3338122"><ele>717.8000000000001</ele><time>2026-04-11T11:20:19.985Z</time></trkpt><trkpt lat="42.9169808" lon="13.3338288"><ele>718.2</ele><time>2026-04-11T11:20:21.977Z</time></trkpt><trkpt lat="42.9170636" lon="13.3338305"><ele>718.6</ele><time>2026-04-11T11:20:22.98Z</time></trkpt><trkpt lat="42.9171564" lon="13.3338307"><ele>719.0</ele><time>2026-04-11T11:20:24.013Z</time></trkpt><trkpt lat="42.9172428" lon="13.3338207"><ele>718.9999999999999</ele><time>2026-04-11T11:20:24.985Z</time></trkpt><trkpt lat="42.9173055" lon="13.3338125"><ele>719.0</ele><time>2026-04-11T11:20:25.983Z</time></trkpt><trkpt lat="42.9173796" lon="13.3338126"><ele>719.0</ele><time>2026-04-11T11:20:26.986Z</time></trkpt><trkpt lat="42.9174481" lon="13.3338085"><ele>719.0</ele><time>2026-04-11T11:20:27.998Z</time></trkpt><trkpt lat="42.9175358" lon="13.3338098"><ele>719.0</ele><time>2026-04-11T11:20:28.982Z</time></trkpt><trkpt lat="42.9176177" lon="13.3338072"><ele>718.9999999999999</ele><time>2026-04-11T11:20:29.991Z</time></trkpt><trkpt lat="42.9176841" lon="13.3338079"><ele>719.0</ele><time>2026-04-11T11:20:30.984Z</time></trkpt><trkpt lat="42.9177476" lon="13.3338062"><ele>723.0</ele><time>2026-04-11T11:20:32.009Z</time></trkpt><trkpt lat="42.9178716" lon="13.3337553"><ele>727.0</ele><time>2026-04-11T11:20:34.029Z</time></trkpt><trkpt lat="42.9179455" lon="13.3337053"><ele>731.0</ele><time>2026-04-11T11:20:35.008Z</time></trkpt><trkpt lat="42.9180226" lon="13.3336456"><ele>735.0</ele><time>2026-04-11T11:20:36.018Z</time></trkpt><trkpt lat="42.9180959" lon="13.3335963"><ele>739.0</ele><time>2026-04-11T11:20:37.012Z</time></trkpt><trkpt lat="42.9181678" lon="13.3335554"><ele>739.0</ele><time>2026-04-11T11:20:38.012Z</time></trkpt><trkpt lat="42.918244" lon="13.3335284"><ele>739.0</ele><time>2026-04-11T11:20:39.014Z</time></trkpt><trkpt lat="42.9183172" lon="13.333503"><ele>739.0</ele><time>2026-04-11T11:20:40.002Z</time></trkpt><trkpt lat="42.9183792" lon="13.3334854"><ele>739.0</ele><time>2026-04-11T11:20:41.017Z</time></trkpt><trkpt lat="42.9184492" lon="13.3334871"><ele>739.0</ele><time>2026-04-11T11:20:42.997Z</time></trkpt><trkpt lat="42.9185411" lon="13.333519"><ele>739.0</ele><time>2026-04-11T11:20:45.017Z</time></trkpt><trkpt lat="42.9186564" lon="13.3335443"><ele>741.4000000000001</ele><time>2026-04-11T11:20:47.006Z</time></trkpt><trkpt lat="42.9187441" lon="13.3335659"><ele>743.8</ele><time>2026-04-11T11:20:48.991Z</time></trkpt><trkpt lat="42.9188469" lon="13.3335958"><ele>746.2</ele><time>2026-04-11T11:20:50.979Z</time></trkpt><trkpt lat="42.9189584" lon="13.3336077"><ele>748.5999999999999</ele><time>2026-04-11T11:20:52.997Z</time></trkpt><trkpt lat="42.9190668" lon="13.333618"><ele>751.0</ele><time>2026-04-11T11:20:54.994Z</time></trkpt><trkpt lat="42.9191704" lon="13.3336176"><ele>751.0</ele><time>2026-04-11T11:20:57.002Z</time></trkpt><trkpt lat="42.9192309" lon="13.3335808"><ele>751.0</ele><time>2026-04-11T11:20:58.001Z</time></trkpt><trkpt lat="42.919303" lon="13.3334949"><ele>751.0</ele><time>2026-04-11T11:20:58.985Z</time></trkpt><trkpt lat="42.9193851" lon="13.3333923"><ele>751.0</ele><time>2026-04-11T11:21:00.001Z</time></trkpt><trkpt lat="42.9194538" lon="13.3333028"><ele>751.0</ele><time>2026-04-11T11:21:00.989Z</time></trkpt><trkpt lat="42.9195075" lon="13.3332392"><ele>751.0</ele><time>2026-04-11T11:21:02.002Z</time></trkpt><trkpt lat="42.919572" lon="13.3331768"><ele>749.8333333333334</ele><time>2026-04-11T11:21:04.017Z</time></trkpt><trkpt lat="42.9196522" lon="13.3331894"><ele>748.6666666666667</ele><time>2026-04-11T11:21:07.01Z</time></trkpt><trkpt lat="42.9196969" lon="13.3333215"><ele>747.5</ele><time>2026-04-11T11:21:09.029Z</time></trkpt><trkpt lat="42.9197244" lon="13.3334052"><ele>746.3333333333334</ele><time>2026-04-11T11:21:10.015Z</time></trkpt><trkpt lat="42.9197541" lon="13.3334837"><ele>745.1666666666666</ele><time>2026-04-11T11:21:10.961Z</time></trkpt><trkpt lat="42.9198163" lon="13.3336203"><ele>744.0</ele><time>2026-04-11T11:21:13.02Z</time></trkpt><trkpt lat="42.9198561" lon="13.33369"><ele>744.0</ele><time>2026-04-11T11:21:13.998Z</time></trkpt><trkpt lat="42.91994" lon="13.3338127"><ele>744.0</ele><time>2026-04-11T11:21:15.988Z</time></trkpt><trkpt lat="42.9200022" lon="13.333873"><ele>744.0</ele><time>2026-04-11T11:21:17.025Z</time></trkpt><trkpt lat="42.9200843" lon="13.3339152"><ele>744.0</ele><time>2026-04-11T11:21:18.001Z</time></trkpt><trkpt lat="42.9201541" lon="13.3339424"><ele>744.0</ele><time>2026-04-11T11:21:19.014Z</time></trkpt><trkpt lat="42.9202358" lon="13.3340223"><ele>742.3333333333334</ele><time>2026-04-11T11:21:20.994Z</time></trkpt><trkpt lat="42.9202646" lon="13.3341"><ele>740.6666666666666</ele><time>2026-04-11T11:21:21.99Z</time></trkpt><trkpt lat="42.9202836" lon="13.3341978"><ele>739.0</ele><time>2026-04-11T11:21:23.007Z</time></trkpt><trkpt lat="42.9203012" lon="13.3342962"><ele>737.3333333333333</ele><time>2026-04-11T11:21:23.984Z</time></trkpt><trkpt lat="42.9203228" lon="13.3343887"><ele>735.6666666666666</ele><time>2026-04-11T11:21:24.999Z</time></trkpt><trkpt lat="42.9203755" lon="13.3345094"><ele>734.0</ele><time>2026-04-11T11:21:26.008Z</time></trkpt><trkpt lat="42.920468" lon="13.334614"><ele>736.8000000000001</ele><time>2026-04-11T11:21:27.017Z</time></trkpt><trkpt lat="42.9205394" lon="13.3347344"><ele>739.6</ele><time>2026-04-11T11:21:27.998Z</time></trkpt><trkpt lat="42.9206174" lon="13.334841"><ele>742.4</ele><time>2026-04-11T11:21:28.978Z</time></trkpt><trkpt lat="42.9206944" lon="13.3349349"><ele>745.2</ele><time>2026-04-11T11:21:29.997Z</time></trkpt><trkpt lat="42.9207642" lon="13.3350303"><ele>748.0</ele><time>2026-04-11T11:21:31.014Z</time></trkpt><trkpt lat="42.9208193" lon="13.3351389"><ele>748.0</ele><time>2026-04-11T11:21:32.012Z</time></trkpt><trkpt lat="42.9208867" lon="13.3352462"><ele>748.0</ele><time>2026-04-11T11:21:32.995Z</time></trkpt><trkpt lat="42.9209524" lon="13.3353315"><ele>748.0</ele><time>2026-04-11T11:21:33.983Z</time></trkpt><trkpt lat="42.9210256" lon="13.3353957"><ele>748.0</ele><time>2026-04-11T11:21:35.001Z</time></trkpt><trkpt lat="42.921122" lon="13.3354268"><ele>748.0</ele><time>2026-04-11T11:21:35.967Z</time></trkpt><trkpt lat="42.9212156" lon="13.3354464"><ele>747.2</ele><time>2026-04-11T11:21:36.992Z</time></trkpt><trkpt lat="42.9213074" lon="13.3354736"><ele>746.4</ele><time>2026-04-11T11:21:37.991Z</time></trkpt><trkpt lat="42.9213972" lon="13.3355024"><ele>745.6</ele><time>2026-04-11T11:21:38.999Z</time></trkpt><trkpt lat="42.9215012" lon="13.3355416"><ele>744.8000000000001</ele><time>2026-04-11T11:21:39.995Z</time></trkpt><trkpt lat="42.9215895" lon="13.3355741"><ele>744.0</ele><time>2026-04-11T11:21:40.968Z</time></trkpt><trkpt lat="42.921662" lon="13.3356343"><ele>742.0</ele><time>2026-04-11T11:21:41.998Z</time></trkpt><trkpt lat="42.9217331" lon="13.3356926"><ele>740.0</ele><time>2026-04-11T11:21:42.988Z</time></trkpt><trkpt lat="42.9218091" lon="13.3357138"><ele>738.0</ele><time>2026-04-11T11:21:44.047Z</time></trkpt><trkpt lat="42.9218754" lon="13.3357194"><ele>736.0</ele><time>2026-04-11T11:21:45.003Z</time></trkpt><trkpt lat="42.9219883" lon="13.3357951"><ele>734.0</ele><time>2026-04-11T11:21:47.012Z</time></trkpt><trkpt lat="42.9220482" lon="13.3358643"><ele>732.0</ele><time>2026-04-11T11:21:47.998Z</time></trkpt><trkpt lat="42.9221111" lon="13.3359275"><ele>732.0</ele><time>2026-04-11T11:21:49.026Z</time></trkpt><trkpt lat="42.9221894" lon="13.3359636"><ele>732.0</ele><time>2026-04-11T11:21:50.053Z</time></trkpt><trkpt lat="42.9222796" lon="13.335968"><ele>732.0</ele><time>2026-04-11T11:21:50.979Z</time></trkpt><trkpt lat="42.9223689" lon="13.3359757"><ele>732.0</ele><time>2026-04-11T11:21:52.011Z</time></trkpt><trkpt lat="42.9224458" lon="13.3359846"><ele>732.0</ele><time>2026-04-11T11:21:52.965Z</time></trkpt><trkpt lat="42.9225058" lon="13.3360154"><ele>732.0</ele><time>2026-04-11T11:21:54.044Z</time></trkpt><trkpt lat="42.9225499" lon="13.3361159"><ele>732.1666666666666</ele><time>2026-04-11T11:21:55.015Z</time></trkpt><trkpt lat="42.9225956" lon="13.3362233"><ele>732.3333333333334</ele><time>2026-04-11T11:21:55.973Z</time></trkpt><trkpt lat="42.9226456" lon="13.3363454"><ele>732.5</ele><time>2026-04-11T11:21:57.028Z</time></trkpt><trkpt lat="42.9227011" lon="13.3364433"><ele>732.6666666666667</ele><time>2026-04-11T11:21:58.007Z</time></trkpt><trkpt lat="42.9227591" lon="13.3365107"><ele>732.8333333333334</ele><time>2026-04-11T11:21:59.02Z</time></trkpt><trkpt lat="42.9228218" lon="13.3365465"><ele>733.0</ele><time>2026-04-11T11:22:00Z</time></trkpt><trkpt lat="42.9228997" lon="13.3365639"><ele>733.0</ele><time>2026-04-11T11:22:00.969Z</time></trkpt><trkpt lat="42.9230049" lon="13.3365855"><ele>733.0</ele><time>2026-04-11T11:22:02.016Z</time></trkpt><trkpt lat="42.9231171" lon="13.3366248"><ele>733.0</ele><time>2026-04-11T11:22:03.009Z</time></trkpt><trkpt lat="42.9232163" lon="13.3366759"><ele>733.0</ele><time>2026-04-11T11:22:04.024Z</time></trkpt><trkpt lat="42.9232913" lon="13.3367118"><ele>733.0</ele><time>2026-04-11T11:22:05.016Z</time></trkpt><trkpt lat="42.923347" lon="13.3367541"><ele>731.2</ele><time>2026-04-11T11:22:05.976Z</time></trkpt><trkpt lat="42.923407" lon="13.3368697"><ele>729.4</ele><time>2026-04-11T11:22:08.019Z</time></trkpt><trkpt lat="42.9234363" lon="13.3370082"><ele>727.6</ele><time>2026-04-11T11:22:10.01Z</time></trkpt><trkpt lat="42.9234187" lon="13.3371102"><ele>725.8000000000001</ele><time>2026-04-11T11:22:10.972Z</time></trkpt><trkpt lat="42.9233991" lon="13.3372342"><ele>724.0</ele><time>2026-04-11T11:22:12.006Z</time></trkpt><trkpt lat="42.923378" lon="13.3373632"><ele>724.0</ele><time>2026-04-11T11:22:12.986Z</time></trkpt><trkpt lat="42.9233874" lon="13.3375166"><ele>724.0</ele><time>2026-04-11T11:22:13.977Z</time></trkpt><trkpt lat="42.9233977" lon="13.3376778"><ele>724.0</ele><time>2026-04-11T11:22:15.013Z</time></trkpt><trkpt lat="42.9234031" lon="13.3378202"><ele>724.0</ele><time>2026-04-11T11:22:15.969Z</time></trkpt><trkpt lat="42.9233997" lon="13.3379423"><ele>724.0</ele><time>2026-04-11T11:22:17.015Z</time></trkpt><trkpt lat="42.9234006" lon="13.3380563"><ele>725.2</ele><time>2026-04-11T11:22:17.988Z</time></trkpt><trkpt lat="42.92341" lon="13.3381673"><ele>726.4000000000001</ele><time>2026-04-11T11:22:18.999Z</time></trkpt><trkpt lat="42.9234573" lon="13.3382896"><ele>727.6</ele><time>2026-04-11T11:22:19.999Z</time></trkpt><trkpt lat="42.9235102" lon="13.3384112"><ele>728.8</ele><time>2026-04-11T11:22:20.977Z</time></trkpt><trkpt lat="42.9235502" lon="13.3385425"><ele>730.0</ele><time>2026-04-11T11:22:21.99Z</time></trkpt><trkpt lat="42.9235863" lon="13.3386774"><ele>730.0</ele><time>2026-04-11T11:22:22.993Z</time></trkpt><trkpt lat="42.923631" lon="13.3388174"><ele>730.0</ele><time>2026-04-11T11:22:24.004Z</time></trkpt><trkpt lat="42.923689" lon="13.338949"><ele>730.0</ele><time>2026-04-11T11:22:24.995Z</time></trkpt><trkpt lat="42.9237542" lon="13.3390697"><ele>730.0</ele><time>2026-04-11T11:22:25.975Z</time></trkpt><trkpt lat="42.9238504" lon="13.3391981"><ele>730.6</ele><time>2026-04-11T11:22:26.989Z</time></trkpt><trkpt lat="42.9239581" lon="13.3393007"><ele>731.2</ele><time>2026-04-11T11:22:28Z</time></trkpt><trkpt lat="42.9240481" lon="13.3393926"><ele>731.8</ele><time>2026-04-11T11:22:29.012Z</time></trkpt><trkpt lat="42.924113" lon="13.3394521"><ele>732.4</ele><time>2026-04-11T11:22:30.012Z</time></trkpt><trkpt lat="42.9242037" lon="13.3395397"><ele>733.0</ele><time>2026-04-11T11:22:32.03Z</time></trkpt><trkpt lat="42.9242653" lon="13.339724"><ele>733.0</ele><time>2026-04-11T11:22:34.013Z</time></trkpt><trkpt lat="42.9242994" lon="13.3398754"><ele>733.0</ele><time>2026-04-11T11:22:35.035Z</time></trkpt><trkpt lat="42.9243323" lon="13.3400235"><ele>733.0</ele><time>2026-04-11T11:22:35.972Z</time></trkpt><trkpt lat="42.9243622" lon="13.3401303"><ele>733.0</ele><time>2026-04-11T11:22:36.998Z</time></trkpt><trkpt lat="42.9244318" lon="13.3402783"><ele>733.0</ele><time>2026-04-11T11:22:38.991Z</time></trkpt><trkpt lat="42.9244998" lon="13.3403497"><ele>733.0</ele><time>2026-04-11T11:22:39.991Z</time></trkpt><trkpt lat="42.9245851" lon="13.3404486"><ele>733.0</ele><time>2026-04-11T11:22:40.977Z</time></trkpt><trkpt lat="42.9246681" lon="13.3405742"><ele>733.0</ele><time>2026-04-11T11:22:41.991Z</time></trkpt><trkpt lat="42.9247411" lon="13.3407388"><ele>733.0</ele><time>2026-04-11T11:22:42.999Z</time></trkpt><trkpt lat="42.9248264" lon="13.3409289"><ele>735.75</ele><time>2026-04-11T11:22:43.999Z</time></trkpt><trkpt lat="42.9248857" lon="13.341111"><ele>738.5</ele><time>2026-04-11T11:22:44.999Z</time></trkpt><trkpt lat="42.924937" lon="13.3412528"><ele>741.25</ele><time>2026-04-11T11:22:45.988Z</time></trkpt><trkpt lat="42.9249845" lon="13.3413808"><ele>744.0</ele><time>2026-04-11T11:22:47.022Z</time></trkpt><trkpt lat="42.9250551" lon="13.3414913"><ele>747.25</ele><time>2026-04-11T11:22:47.995Z</time></trkpt><trkpt lat="42.9251501" lon="13.3415937"><ele>750.5</ele><time>2026-04-11T11:22:49.007Z</time></trkpt><trkpt lat="42.9252498" lon="13.3417124"><ele>753.75</ele><time>2026-04-11T11:22:49.987Z</time></trkpt><trkpt lat="42.9253315" lon="13.3418153"><ele>757.0</ele><time>2026-04-11T11:22:50.986Z</time></trkpt><trkpt lat="42.9253956" lon="13.3419096"><ele>757.0</ele><time>2026-04-11T11:22:51.995Z</time></trkpt><trkpt lat="42.9254426" lon="13.342014"><ele>757.0</ele><time>2026-04-11T11:22:53.009Z</time></trkpt><trkpt lat="42.9254898" lon="13.3421105"><ele>757.0</ele><time>2026-04-11T11:22:54.051Z</time></trkpt><trkpt lat="42.9255263" lon="13.3422022"><ele>757.0</ele><time>2026-04-11T11:22:54.999Z</time></trkpt><trkpt lat="42.9255827" lon="13.3423315"><ele>757.0</ele><time>2026-04-11T11:22:57.017Z</time></trkpt><trkpt lat="42.9256066" lon="13.3424294"><ele>757.0</ele><time>2026-04-11T11:23:00.036Z</time></trkpt><trkpt lat="42.9255795" lon="13.3425316"><ele>757.8</ele><time>2026-04-11T11:23:02.01Z</time></trkpt><trkpt lat="42.9255263" lon="13.3426076"><ele>758.6</ele><time>2026-04-11T11:23:03.006Z</time></trkpt><trkpt lat="42.9254557" lon="13.3426809"><ele>759.4</ele><time>2026-04-11T11:23:04.013Z</time></trkpt><trkpt lat="42.9253747" lon="13.342748"><ele>760.1999999999999</ele><time>2026-04-11T11:23:05.024Z</time></trkpt><trkpt lat="42.9252851" lon="13.3428106"><ele>761.0</ele><time>2026-04-11T11:23:05.99Z</time></trkpt><trkpt lat="42.9251973" lon="13.3428737"><ele>761.0</ele><time>2026-04-11T11:23:07.004Z</time></trkpt><trkpt lat="42.9251181" lon="13.3429231"><ele>761.0</ele><time>2026-04-11T11:23:07.981Z</time></trkpt><trkpt lat="42.9250516" lon="13.3429607"><ele>761.0</ele><time>2026-04-11T11:23:08.962Z</time></trkpt><trkpt lat="42.9249855" lon="13.3429948"><ele>761.0</ele><time>2026-04-11T11:23:09.984Z</time></trkpt><trkpt lat="42.9249083" lon="13.3430297"><ele>761.0</ele><time>2026-04-11T11:23:11.011Z</time></trkpt><trkpt lat="42.9248304" lon="13.3430686"><ele>761.0</ele><time>2026-04-11T11:23:11.969Z</time></trkpt><trkpt lat="42.9247474" lon="13.3431117"><ele>761.1999999999999</ele><time>2026-04-11T11:23:12.982Z</time></trkpt><trkpt lat="42.9246542" lon="13.3431409"><ele>761.4</ele><time>2026-04-11T11:23:14.001Z</time></trkpt><trkpt lat="42.9245785" lon="13.343158"><ele>761.6</ele><time>2026-04-11T11:23:15.002Z</time></trkpt><trkpt lat="42.9245009" lon="13.3431835"><ele>761.8</ele><time>2026-04-11T11:23:16.003Z</time></trkpt><trkpt lat="42.9244219" lon="13.3432499"><ele>762.0</ele><time>2026-04-11T11:23:16.997Z</time></trkpt><trkpt lat="42.9243455" lon="13.3433676"><ele>762.0</ele><time>2026-04-11T11:23:18.01Z</time></trkpt><trkpt lat="42.9242524" lon="13.3435185"><ele>762.0</ele><time>2026-04-11T11:23:18.977Z</time></trkpt><trkpt lat="42.9241423" lon="13.3436988"><ele>762.0</ele><time>2026-04-11T11:23:19.978Z</time></trkpt><trkpt lat="42.9240459" lon="13.3438688"><ele>762.25</ele><time>2026-04-11T11:23:21.009Z</time></trkpt><trkpt lat="42.9239633" lon="13.3440189"><ele>762.5</ele><time>2026-04-11T11:23:21.995Z</time></trkpt><trkpt lat="42.9238853" lon="13.3441523"><ele>762.75</ele><time>2026-04-11T11:23:23.015Z</time></trkpt><trkpt lat="42.9238136" lon="13.3442741"><ele>763.0</ele><time>2026-04-11T11:23:23.982Z</time></trkpt><trkpt lat="42.9237561" lon="13.3443952"><ele>763.0</ele><time>2026-04-11T11:23:25.007Z</time></trkpt><trkpt lat="42.9237155" lon="13.3445065"><ele>763.0</ele><time>2026-04-11T11:23:26.011Z</time></trkpt><trkpt lat="42.9236904" lon="13.3446084"><ele>763.0</ele><time>2026-04-11T11:23:26.983Z</time></trkpt><trkpt lat="42.9236732" lon="13.3447018"><ele>763.0</ele><time>2026-04-11T11:23:27.992Z</time></trkpt><trkpt lat="42.9236673" lon="13.3447913"><ele>763.0</ele><time>2026-04-11T11:23:28.996Z</time></trkpt><trkpt lat="42.923675" lon="13.3448768"><ele>763.0</ele><time>2026-04-11T11:23:30.002Z</time></trkpt><trkpt lat="42.9236979" lon="13.3449763"><ele>763.0</ele><time>2026-04-11T11:23:30.983Z</time></trkpt><trkpt lat="42.9237255" lon="13.3450914"><ele>763.0</ele><time>2026-04-11T11:23:31.986Z</time></trkpt><trkpt lat="42.9237961" lon="13.3452251"><ele>763.0</ele><time>2026-04-11T11:23:32.951Z</time></trkpt><trkpt lat="42.9238776" lon="13.3453598"><ele>763.0</ele><time>2026-04-11T11:23:33.958Z</time></trkpt><trkpt lat="42.923956" lon="13.3454819"><ele>763.0</ele><time>2026-04-11T11:23:34.965Z</time></trkpt><trkpt lat="42.9240272" lon="13.3455882"><ele>763.0</ele><time>2026-04-11T11:23:36.01Z</time></trkpt><trkpt lat="42.9240866" lon="13.3456783"><ele>763.0</ele><time>2026-04-11T11:23:36.994Z</time></trkpt><trkpt lat="42.9241375" lon="13.3457585"><ele>763.0</ele><time>2026-04-11T11:23:37.997Z</time></trkpt><trkpt lat="42.9241599" lon="13.3458481"><ele>763.0</ele><time>2026-04-11T11:23:38.978Z</time></trkpt><trkpt lat="42.9241804" lon="13.3459363"><ele>763.0</ele><time>2026-04-11T11:23:39.986Z</time></trkpt><trkpt lat="42.9241886" lon="13.3460361"><ele>763.0</ele><time>2026-04-11T11:23:40.982Z</time></trkpt><trkpt lat="42.9241993" lon="13.3461712"><ele>763.0</ele><time>2026-04-11T11:23:41.983Z</time></trkpt><trkpt lat="42.9242132" lon="13.3463581"><ele>763.0</ele><time>2026-04-11T11:23:42.973Z</time></trkpt><trkpt lat="42.9242255" lon="13.346553"><ele>763.0</ele><time>2026-04-11T11:23:44.026Z</time></trkpt><trkpt lat="42.9242371" lon="13.3467342"><ele>763.0</ele><time>2026-04-11T11:23:44.986Z</time></trkpt><trkpt lat="42.9242546" lon="13.3468746"><ele>764.2</ele><time>2026-04-11T11:23:45.994Z</time></trkpt><trkpt lat="42.9242854" lon="13.3469989"><ele>765.4</ele><time>2026-04-11T11:23:46.969Z</time></trkpt><trkpt lat="42.9243308" lon="13.3471088"><ele>766.6</ele><time>2026-04-11T11:23:47.975Z</time></trkpt><trkpt lat="42.9243781" lon="13.3472164"><ele>767.8000000000001</ele><time>2026-04-11T11:23:48.971Z</time></trkpt><trkpt lat="42.9244641" lon="13.3473092"><ele>769.0</ele><time>2026-04-11T11:23:50.04Z</time></trkpt><trkpt lat="42.9245694" lon="13.3474118"><ele>769.0</ele><time>2026-04-11T11:23:50.981Z</time></trkpt><trkpt lat="42.924686" lon="13.3475219"><ele>769.0</ele><time>2026-04-11T11:23:51.981Z</time></trkpt><trkpt lat="42.9248009" lon="13.347671"><ele>769.0</ele><time>2026-04-11T11:23:52.975Z</time></trkpt><trkpt lat="42.9248998" lon="13.3478329"><ele>769.0</ele><time>2026-04-11T11:23:53.939Z</time></trkpt><trkpt lat="42.9249827" lon="13.3479701"><ele>769.0</ele><time>2026-04-11T11:23:54.98Z</time></trkpt><trkpt lat="42.9250537" lon="13.348071"><ele>769.0</ele><time>2026-04-11T11:23:56.028Z</time></trkpt><trkpt lat="42.9251172" lon="13.3481318"><ele>769.0</ele><time>2026-04-11T11:23:56.972Z</time></trkpt><trkpt lat="42.9251931" lon="13.348188"><ele>769.0</ele><time>2026-04-11T11:23:58.007Z</time></trkpt><trkpt lat="42.9252904" lon="13.3482227"><ele>772.0</ele><time>2026-04-11T11:23:58.985Z</time></trkpt><trkpt lat="42.9253875" lon="13.348225"><ele>775.0</ele><time>2026-04-11T11:24:00.025Z</time></trkpt><trkpt lat="42.925492" lon="13.3482295"><ele>778.0</ele><time>2026-04-11T11:24:00.979Z</time></trkpt><trkpt lat="42.9255805" lon="13.3482385"><ele>781.0</ele><time>2026-04-11T11:24:01.974Z</time></trkpt><trkpt lat="42.9256666" lon="13.3482665"><ele>784.0</ele><time>2026-04-11T11:24:02.978Z</time></trkpt><trkpt lat="42.925744" lon="13.3483139"><ele>784.0</ele><time>2026-04-11T11:24:03.964Z</time></trkpt><trkpt lat="42.9258217" lon="13.3483528"><ele>784.0</ele><time>2026-04-11T11:24:04.978Z</time></trkpt><trkpt lat="42.9259149" lon="13.3483591"><ele>784.0</ele><time>2026-04-11T11:24:05.995Z</time></trkpt><trkpt lat="42.926026" lon="13.3483401"><ele>784.0</ele><time>2026-04-11T11:24:06.998Z</time></trkpt><trkpt lat="42.9261469" lon="13.3483002"><ele>784.0</ele><time>2026-04-11T11:24:07.99Z</time></trkpt><trkpt lat="42.9262653" lon="13.3482577"><ele>784.8000000000001</ele><time>2026-04-11T11:24:08.977Z</time></trkpt><trkpt lat="42.9263827" lon="13.3482053"><ele>785.6</ele><time>2026-04-11T11:24:09.976Z</time></trkpt><trkpt lat="42.9264913" lon="13.3481574"><ele>786.4</ele><time>2026-04-11T11:24:10.976Z</time></trkpt><trkpt lat="42.9265853" lon="13.3481151"><ele>787.2</ele><time>2026-04-11T11:24:11.984Z</time></trkpt><trkpt lat="42.9266916" lon="13.3480734"><ele>788.0</ele><time>2026-04-11T11:24:12.976Z</time></trkpt><trkpt lat="42.9268042" lon="13.3480431"><ele>787.0</ele><time>2026-04-11T11:24:13.97Z</time></trkpt><trkpt lat="42.9269225" lon="13.3480297"><ele>786.0</ele><time>2026-04-11T11:24:14.98Z</time></trkpt><trkpt lat="42.9270304" lon="13.348027"><ele>785.0</ele><time>2026-04-11T11:24:15.99Z</time></trkpt><trkpt lat="42.9271221" lon="13.3480233"><ele>784.0</ele><time>2026-04-11T11:24:16.977Z</time></trkpt><trkpt lat="42.9272022" lon="13.3480308"><ele>783.0</ele><time>2026-04-11T11:24:17.979Z</time></trkpt><trkpt lat="42.9272807" lon="13.3480473"><ele>783.0</ele><time>2026-04-11T11:24:19.008Z</time></trkpt><trkpt lat="42.9273691" lon="13.3480918"><ele>783.0</ele><time>2026-04-11T11:24:19.998Z</time></trkpt><trkpt lat="42.9274532" lon="13.3481918"><ele>783.0</ele><time>2026-04-11T11:24:20.992Z</time></trkpt><trkpt lat="42.9275355" lon="13.348308"><ele>783.0</ele><time>2026-04-11T11:24:22.047Z</time></trkpt><trkpt lat="42.9276343" lon="13.3484485"><ele>782.5</ele><time>2026-04-11T11:24:22.998Z</time></trkpt><trkpt lat="42.9277401" lon="13.3485965"><ele>782.0</ele><time>2026-04-11T11:24:23.989Z</time></trkpt><trkpt lat="42.9278362" lon="13.3487407"><ele>781.5</ele><time>2026-04-11T11:24:24.992Z</time></trkpt><trkpt lat="42.9279207" lon="13.3488557"><ele>781.0</ele><time>2026-04-11T11:24:26.004Z</time></trkpt><trkpt lat="42.9279939" lon="13.3489633"><ele>781.0</ele><time>2026-04-11T11:24:26.964Z</time></trkpt><trkpt lat="42.9280706" lon="13.349077"><ele>781.0</ele><time>2026-04-11T11:24:28.017Z</time></trkpt><trkpt lat="42.928145" lon="13.3492078"><ele>781.0</ele><time>2026-04-11T11:24:29.003Z</time></trkpt><trkpt lat="42.9281989" lon="13.3493438"><ele>781.0</ele><time>2026-04-11T11:24:30.001Z</time></trkpt><trkpt lat="42.9282349" lon="13.3494723"><ele>781.0</ele><time>2026-04-11T11:24:30.96Z</time></trkpt><trkpt lat="42.9282763" lon="13.3495902"><ele>780.9999999999999</ele><time>2026-04-11T11:24:32.01Z</time></trkpt><trkpt lat="42.9283088" lon="13.3496922"><ele>781.0</ele><time>2026-04-11T11:24:32.99Z</time></trkpt><trkpt lat="42.9283365" lon="13.3497919"><ele>781.0</ele><time>2026-04-11T11:24:33.952Z</time></trkpt><trkpt lat="42.9283588" lon="13.3498837"><ele>781.0</ele><time>2026-04-11T11:24:35.004Z</time></trkpt><trkpt lat="42.9283791" lon="13.3499689"><ele>780.9999999999999</ele><time>2026-04-11T11:24:35.992Z</time></trkpt><trkpt lat="42.9283663" lon="13.3500693"><ele>781.0</ele><time>2026-04-11T11:24:36.997Z</time></trkpt><trkpt lat="42.9283292" lon="13.3501809"><ele>781.0</ele><time>2026-04-11T11:24:38.028Z</time></trkpt><trkpt lat="42.9282898" lon="13.3503024"><ele>781.0</ele><time>2026-04-11T11:24:39.007Z</time></trkpt><trkpt lat="42.9282289" lon="13.3504341"><ele>781.0</ele><time>2026-04-11T11:24:39.998Z</time></trkpt><trkpt lat="42.9281518" lon="13.3505853"><ele>781.0</ele><time>2026-04-11T11:24:41.018Z</time></trkpt><trkpt lat="42.9280893" lon="13.3507446"><ele>781.0</ele><time>2026-04-11T11:24:41.979Z</time></trkpt><trkpt lat="42.9280348" lon="13.3508979"><ele>781.0</ele><time>2026-04-11T11:24:42.975Z</time></trkpt><trkpt lat="42.9279734" lon="13.3510444"><ele>781.0</ele><time>2026-04-11T11:24:43.985Z</time></trkpt><trkpt lat="42.9279104" lon="13.3511947"><ele>781.0</ele><time>2026-04-11T11:24:44.995Z</time></trkpt><trkpt lat="42.9278546" lon="13.3513727"><ele>779.25</ele><time>2026-04-11T11:24:45.983Z</time></trkpt><trkpt lat="42.9278132" lon="13.3515667"><ele>777.5</ele><time>2026-04-11T11:24:46.962Z</time></trkpt><trkpt lat="42.9278044" lon="13.3517813"><ele>775.75</ele><time>2026-04-11T11:24:47.993Z</time></trkpt><trkpt lat="42.9277946" lon="13.3519676"><ele>774.0</ele><time>2026-04-11T11:24:49.012Z</time></trkpt><trkpt lat="42.927795" lon="13.3521357"><ele>773.4000000000001</ele><time>2026-04-11T11:24:49.978Z</time></trkpt><trkpt lat="42.9277868" lon="13.3522389"><ele>772.8</ele><time>2026-04-11T11:24:50.986Z</time></trkpt><trkpt lat="42.9277621" lon="13.3523389"><ele>772.2</ele><time>2026-04-11T11:24:51.967Z</time></trkpt><trkpt lat="42.9277207" lon="13.3524264"><ele>771.5999999999999</ele><time>2026-04-11T11:24:52.997Z</time></trkpt><trkpt lat="42.9276565" lon="13.3525411"><ele>771.0</ele><time>2026-04-11T11:24:53.969Z</time></trkpt><trkpt lat="42.9276081" lon="13.3526928"><ele>771.0</ele><time>2026-04-11T11:24:54.998Z</time></trkpt><trkpt lat="42.9275645" lon="13.3528516"><ele>771.0</ele><time>2026-04-11T11:24:55.994Z</time></trkpt><trkpt lat="42.9275137" lon="13.3529984"><ele>771.0</ele><time>2026-04-11T11:24:57.002Z</time></trkpt><trkpt lat="42.9274575" lon="13.3531129"><ele>771.0</ele><time>2026-04-11T11:24:57.988Z</time></trkpt><trkpt lat="42.9273872" lon="13.3532026"><ele>771.0</ele><time>2026-04-11T11:24:58.978Z</time></trkpt><trkpt lat="42.9273208" lon="13.3532831"><ele>774.3333333333334</ele><time>2026-04-11T11:25:00.013Z</time></trkpt><trkpt lat="42.9272791" lon="13.3533709"><ele>777.6666666666667</ele><time>2026-04-11T11:25:00.978Z</time></trkpt><trkpt lat="42.9272603" lon="13.3535274"><ele>781.0</ele><time>2026-04-11T11:25:02.986Z</time></trkpt><trkpt lat="42.9272683" lon="13.3536222"><ele>784.3333333333334</ele><time>2026-04-11T11:25:04.996Z</time></trkpt><trkpt lat="42.927237" lon="13.3537252"><ele>787.6666666666667</ele><time>2026-04-11T11:25:08.989Z</time></trkpt><trkpt lat="42.9271547" lon="13.3536932"><ele>791.0</ele><time>2026-04-11T11:27:07.002Z</time></trkpt><trkpt lat="42.9271344" lon="13.353794"><ele>791.5000000000001</ele><time>2026-04-11T11:27:10.018Z</time></trkpt><trkpt lat="42.927174" lon="13.3539016"><ele>792.0</ele><time>2026-04-11T11:27:12.968Z</time></trkpt><trkpt lat="42.9271857" lon="13.3540072"><ele>792.5</ele><time>2026-04-11T11:27:14.955Z</time></trkpt><trkpt lat="42.9271949" lon="13.3541108"><ele>793.0</ele><time>2026-04-11T11:27:16.979Z</time></trkpt><trkpt lat="42.9272117" lon="13.3542308"><ele>793.5000000000001</ele><time>2026-04-11T11:27:19.011Z</time></trkpt><trkpt lat="42.9272482" lon="13.3543522"><ele>794.0</ele><time>2026-04-11T11:27:21.016Z</time></trkpt><trkpt lat="42.9272731" lon="13.3544354"><ele>794.0</ele><time>2026-04-11T11:27:22.003Z</time></trkpt><trkpt lat="42.9273133" lon="13.3546017"><ele>794.0</ele><time>2026-04-11T11:27:24.019Z</time></trkpt><trkpt lat="42.927331" lon="13.354687"><ele>794.0</ele><time>2026-04-11T11:27:25.063Z</time></trkpt><trkpt lat="42.9273652" lon="13.3548398"><ele>794.0</ele><time>2026-04-11T11:27:27.019Z</time></trkpt><trkpt lat="42.9274084" lon="13.3549697"><ele>794.0</ele><time>2026-04-11T11:27:28.994Z</time></trkpt><trkpt lat="42.927473" lon="13.3550672"><ele>794.8000000000001</ele><time>2026-04-11T11:27:30.945Z</time></trkpt><trkpt lat="42.927566" lon="13.3550798"><ele>795.6</ele><time>2026-04-11T11:27:32.947Z</time></trkpt><trkpt lat="42.9276657" lon="13.3550208"><ele>796.4</ele><time>2026-04-11T11:27:34.967Z</time></trkpt><trkpt lat="42.9277782" lon="13.35495"><ele>797.2</ele><time>2026-04-11T11:27:36.962Z</time></trkpt><trkpt lat="42.9278587" lon="13.354938"><ele>798.0</ele><time>2026-04-11T11:27:37.968Z</time></trkpt><trkpt lat="42.9279444" lon="13.3549734"><ele>798.0</ele><time>2026-04-11T11:27:38.959Z</time></trkpt><trkpt lat="42.9280279" lon="13.3550245"><ele>798.0</ele><time>2026-04-11T11:27:39.96Z</time></trkpt><trkpt lat="42.9280966" lon="13.3551094"><ele>798.0</ele><time>2026-04-11T11:27:40.967Z</time></trkpt><trkpt lat="42.9281603" lon="13.3552394"><ele>798.0</ele><time>2026-04-11T11:27:41.961Z</time></trkpt><trkpt lat="42.928205" lon="13.3554042"><ele>798.0</ele><time>2026-04-11T11:27:42.962Z</time></trkpt><trkpt lat="42.9282553" lon="13.3555729"><ele>800.75</ele><time>2026-04-11T11:27:43.952Z</time></trkpt><trkpt lat="42.9283055" lon="13.3557106"><ele>803.5</ele><time>2026-04-11T11:27:44.941Z</time></trkpt><trkpt lat="42.9283816" lon="13.3558485"><ele>806.25</ele><time>2026-04-11T11:27:45.945Z</time></trkpt><trkpt lat="42.9284661" lon="13.3559875"><ele>809.0</ele><time>2026-04-11T11:27:46.957Z</time></trkpt><trkpt lat="42.9285394" lon="13.3561121"><ele>807.1666666666667</ele><time>2026-04-11T11:27:47.955Z</time></trkpt><trkpt lat="42.9285835" lon="13.3562251"><ele>805.3333333333334</ele><time>2026-04-11T11:27:48.97Z</time></trkpt><trkpt lat="42.9286453" lon="13.3563007"><ele>803.5</ele><time>2026-04-11T11:27:50.007Z</time></trkpt><trkpt lat="42.9286447" lon="13.3564206"><ele>801.6666666666667</ele><time>2026-04-11T11:27:50.998Z</time></trkpt><trkpt lat="42.9286367" lon="13.3565377"><ele>799.8333333333334</ele><time>2026-04-11T11:27:51.989Z</time></trkpt><trkpt lat="42.9286557" lon="13.3566591"><ele>798.0</ele><time>2026-04-11T11:27:52.993Z</time></trkpt><trkpt lat="42.9287135" lon="13.3567664"><ele>798.0</ele><time>2026-04-11T11:27:53.962Z</time></trkpt><trkpt lat="42.9287777" lon="13.3568496"><ele>798.0</ele><time>2026-04-11T11:27:54.997Z</time></trkpt><trkpt lat="42.9288454" lon="13.3569089"><ele>798.0</ele><time>2026-04-11T11:27:55.994Z</time></trkpt><trkpt lat="42.9289734" lon="13.3569178"><ele>798.0</ele><time>2026-04-11T11:27:57.985Z</time></trkpt><trkpt lat="42.9290724" lon="13.3569133"><ele>798.0</ele><time>2026-04-11T11:28:00.036Z</time></trkpt><trkpt lat="42.9291535" lon="13.3569056"><ele>800.4</ele><time>2026-04-11T11:28:02.008Z</time></trkpt><trkpt lat="42.9292783" lon="13.3569207"><ele>802.8</ele><time>2026-04-11T11:28:03.998Z</time></trkpt><trkpt lat="42.9293466" lon="13.3569425"><ele>805.2</ele><time>2026-04-11T11:28:05.016Z</time></trkpt><trkpt lat="42.929446" lon="13.3569767"><ele>807.6</ele><time>2026-04-11T11:28:07Z</time></trkpt><trkpt lat="42.9295393" lon="13.3570239"><ele>810.0</ele><time>2026-04-11T11:28:12.985Z</time></trkpt><trkpt lat="42.9296461" lon="13.3569264"><ele>810.0</ele><time>2026-04-11T11:28:14.978Z</time></trkpt><trkpt lat="42.9297007" lon="13.3567688"><ele>810.0</ele><time>2026-04-11T11:28:16.97Z</time></trkpt><trkpt lat="42.9297288" lon="13.3566771"><ele>810.0</ele><time>2026-04-11T11:28:17.967Z</time></trkpt><trkpt lat="42.9297687" lon="13.356602"><ele>810.0</ele><time>2026-04-11T11:28:18.982Z</time></trkpt><trkpt lat="42.9298226" lon="13.3565311"><ele>810.0</ele><time>2026-04-11T11:28:19.992Z</time></trkpt><trkpt lat="42.9298621" lon="13.35645"><ele>810.0</ele><time>2026-04-11T11:28:20.999Z</time></trkpt><trkpt lat="42.9298775" lon="13.3563594"><ele>808.8333333333334</ele><time>2026-04-11T11:28:22.012Z</time></trkpt><trkpt lat="42.9298714" lon="13.3562605"><ele>807.6666666666667</ele><time>2026-04-11T11:28:22.986Z</time></trkpt><trkpt lat="42.9298563" lon="13.3561379"><ele>806.5</ele><time>2026-04-11T11:28:23.999Z</time></trkpt><trkpt lat="42.9298483" lon="13.3560182"><ele>805.3333333333334</ele><time>2026-04-11T11:28:24.997Z</time></trkpt><trkpt lat="42.9298501" lon="13.3559302"><ele>804.1666666666667</ele><time>2026-04-11T11:28:25.961Z</time></trkpt><trkpt lat="42.9299155" lon="13.355902"><ele>803.0</ele><time>2026-04-11T11:28:29.972Z</time></trkpt><trkpt lat="42.9299835" lon="13.3559852"><ele>804.75</ele><time>2026-04-11T11:28:30.999Z</time></trkpt><trkpt lat="42.9300779" lon="13.3560557"><ele>806.5</ele><time>2026-04-11T11:28:31.993Z</time></trkpt><trkpt lat="42.9301897" lon="13.3561269"><ele>808.25</ele><time>2026-04-11T11:28:33.043Z</time></trkpt><trkpt lat="42.9303117" lon="13.3561831"><ele>810.0</ele><time>2026-04-11T11:28:33.991Z</time></trkpt><trkpt lat="42.9304083" lon="13.3562191"><ele>810.0</ele><time>2026-04-11T11:28:34.997Z</time></trkpt><trkpt lat="42.9304864" lon="13.3562318"><ele>810.0</ele><time>2026-04-11T11:28:36.071Z</time></trkpt><trkpt lat="42.9305711" lon="13.3562402"><ele>810.0</ele><time>2026-04-11T11:28:36.997Z</time></trkpt><trkpt lat="42.9306598" lon="13.3562425"><ele>810.0</ele><time>2026-04-11T11:28:38.006Z</time></trkpt><trkpt lat="42.9307354" lon="13.3562443"><ele>810.0</ele><time>2026-04-11T11:28:39.023Z</time></trkpt><trkpt lat="42.9308719" lon="13.3562042"><ele>810.5</ele><time>2026-04-11T11:28:41.002Z</time></trkpt><trkpt lat="42.9309611" lon="13.3561768"><ele>811.0</ele><time>2026-04-11T11:28:41.999Z</time></trkpt><trkpt lat="42.9310542" lon="13.3561437"><ele>811.5</ele><time>2026-04-11T11:28:43.002Z</time></trkpt><trkpt lat="42.9311355" lon="13.3561155"><ele>812.0</ele><time>2026-04-11T11:28:44.005Z</time></trkpt><trkpt lat="42.931211" lon="13.3560731"><ele>812.5</ele><time>2026-04-11T11:28:44.964Z</time></trkpt><trkpt lat="42.9312886" lon="13.3560246"><ele>813.0</ele><time>2026-04-11T11:28:46Z</time></trkpt><trkpt lat="42.9313733" lon="13.3559985"><ele>813.0</ele><time>2026-04-11T11:28:47.005Z</time></trkpt><trkpt lat="42.9314498" lon="13.3559698"><ele>813.0</ele><time>2026-04-11T11:28:47.987Z</time></trkpt><trkpt lat="42.9315157" lon="13.3559443"><ele>813.0</ele><time>2026-04-11T11:28:48.99Z</time></trkpt><trkpt lat="42.9315987" lon="13.3559443"><ele>813.0</ele><time>2026-04-11T11:28:50.991Z</time></trkpt><trkpt lat="42.9316616" lon="13.3560369"><ele>813.0</ele><time>2026-04-11T11:28:53.003Z</time></trkpt><trkpt lat="42.9317059" lon="13.3561198"><ele>813.0</ele><time>2026-04-11T11:28:54.006Z</time></trkpt><trkpt lat="42.9317515" lon="13.3562057"><ele>810.5</ele><time>2026-04-11T11:28:54.989Z</time></trkpt><trkpt lat="42.9317932" lon="13.3562835"><ele>808.0</ele><time>2026-04-11T11:28:55.967Z</time></trkpt><trkpt lat="42.9318333" lon="13.3563566"><ele>805.5</ele><time>2026-04-11T11:28:57.001Z</time></trkpt><trkpt lat="42.9318797" lon="13.3564399"><ele>803.0</ele><time>2026-04-11T11:28:57.995Z</time></trkpt><trkpt lat="42.9319416" lon="13.3565439"><ele>800.5</ele><time>2026-04-11T11:28:58.999Z</time></trkpt><trkpt lat="42.9320002" lon="13.356654"><ele>798.0</ele><time>2026-04-11T11:29:00.016Z</time></trkpt><trkpt lat="42.9320574" lon="13.3567615"><ele>797.0</ele><time>2026-04-11T11:29:01.029Z</time></trkpt><trkpt lat="42.9321128" lon="13.3568652"><ele>796.0</ele><time>2026-04-11T11:29:02.022Z</time></trkpt><trkpt lat="42.932166" lon="13.3569629"><ele>795.0</ele><time>2026-04-11T11:29:02.974Z</time></trkpt><trkpt lat="42.9322245" lon="13.3570848"><ele>794.0</ele><time>2026-04-11T11:29:04.019Z</time></trkpt><trkpt lat="42.9322922" lon="13.3572117"><ele>793.0</ele><time>2026-04-11T11:29:04.956Z</time></trkpt><trkpt lat="42.9323532" lon="13.3573257"><ele>792.5999999999999</ele><time>2026-04-11T11:29:06.035Z</time></trkpt><trkpt lat="42.9324036" lon="13.3574167"><ele>792.1999999999999</ele><time>2026-04-11T11:29:06.999Z</time></trkpt><trkpt lat="42.932447" lon="13.3574896"><ele>791.8</ele><time>2026-04-11T11:29:07.999Z</time></trkpt><trkpt lat="42.9325261" lon="13.3575916"><ele>791.4</ele><time>2026-04-11T11:29:10Z</time></trkpt><trkpt lat="42.9326568" lon="13.3576191"><ele>791.0</ele><time>2026-04-11T11:29:12.014Z</time></trkpt><trkpt lat="42.9327279" lon="13.3576067"><ele>790.0000000000001</ele><time>2026-04-11T11:29:13.008Z</time></trkpt><trkpt lat="42.9327873" lon="13.357575"><ele>789.0</ele><time>2026-04-11T11:29:13.963Z</time></trkpt><trkpt lat="42.9328625" lon="13.357499"><ele>788.0</ele><time>2026-04-11T11:29:15.996Z</time></trkpt><trkpt lat="42.9329121" lon="13.3574163"><ele>787.0</ele><time>2026-04-11T11:29:17.978Z</time></trkpt><trkpt lat="42.9329345" lon="13.3572899"><ele>786.0000000000001</ele><time>2026-04-11T11:29:20.001Z</time></trkpt><trkpt lat="42.9329557" lon="13.3571909"><ele>785.0</ele><time>2026-04-11T11:29:22.001Z</time></trkpt><trkpt lat="42.933014" lon="13.3571106"><ele>784.0000000000001</ele><time>2026-04-11T11:29:23.98Z</time></trkpt><trkpt lat="42.9330966" lon="13.357021"><ele>783.0</ele><time>2026-04-11T11:29:26.03Z</time></trkpt><trkpt lat="42.9331707" lon="13.3569547"><ele>782.0</ele><time>2026-04-11T11:29:27.975Z</time></trkpt><trkpt lat="42.9332644" lon="13.3568969"><ele>781.0</ele><time>2026-04-11T11:29:30.017Z</time></trkpt><trkpt lat="42.9333306" lon="13.3568807"><ele>780.0000000000001</ele><time>2026-04-11T11:29:31.026Z</time></trkpt><trkpt lat="42.9333942" lon="13.3568609"><ele>779.0</ele><time>2026-04-11T11:29:32.016Z</time></trkpt><trkpt lat="42.9334718" lon="13.3568553"><ele>777.8333333333334</ele><time>2026-04-11T11:29:32.971Z</time></trkpt><trkpt lat="42.9335888" lon="13.3568494"><ele>776.6666666666667</ele><time>2026-04-11T11:29:35.002Z</time></trkpt><trkpt lat="42.9336882" lon="13.3568476"><ele>775.5</ele><time>2026-04-11T11:29:37.005Z</time></trkpt><trkpt lat="42.9337669" lon="13.3568634"><ele>774.3333333333333</ele><time>2026-04-11T11:29:39.011Z</time></trkpt><trkpt lat="42.9338246" lon="13.3569142"><ele>773.1666666666666</ele><time>2026-04-11T11:29:40.004Z</time></trkpt><trkpt lat="42.9338876" lon="13.3569734"><ele>772.0</ele><time>2026-04-11T11:29:41.026Z</time></trkpt><trkpt lat="42.933943" lon="13.3570253"><ele>772.0</ele><time>2026-04-11T11:29:42Z</time></trkpt><trkpt lat="42.93408" lon="13.3570161"><ele>772.0</ele><time>2026-04-11T11:29:44.003Z</time></trkpt><trkpt lat="42.9341757" lon="13.356984"><ele>772.0</ele><time>2026-04-11T11:29:45.03Z</time></trkpt><trkpt lat="42.9342649" lon="13.3569373"><ele>772.0</ele><time>2026-04-11T11:29:46.023Z</time></trkpt><trkpt lat="42.9343216" lon="13.3568999"><ele>772.0</ele><time>2026-04-11T11:29:46.992Z</time></trkpt><trkpt lat="42.9344155" lon="13.3568433"><ele>772.0</ele><time>2026-04-11T11:29:48.99Z</time></trkpt><trkpt lat="42.9343162" lon="13.3569422"><ele>772.0</ele><time>2026-04-11T11:30:18.992Z</time></trkpt><trkpt lat="42.9342416" lon="13.3569853"><ele>772.0</ele><time>2026-04-11T11:30:20.008Z</time></trkpt><trkpt lat="42.9341548" lon="13.3570257"><ele>772.0</ele><time>2026-04-11T11:30:21.974Z</time></trkpt><trkpt lat="42.934063" lon="13.3570521"><ele>772.0</ele><time>2026-04-11T11:30:25.02Z</time></trkpt><trkpt lat="42.9339619" lon="13.3570734"><ele>772.0000000000001</ele><time>2026-04-11T11:30:45.995Z</time></trkpt><trkpt lat="42.9339662" lon="13.357172"><ele>772.0</ele><time>2026-04-11T11:31:34.988Z</time></trkpt><trkpt lat="42.9339831" lon="13.3572811"><ele>772.0</ele><time>2026-04-11T11:31:38.009Z</time></trkpt><trkpt lat="42.9340527" lon="13.357342"><ele>772.0</ele><time>2026-04-11T11:31:41.007Z</time></trkpt><trkpt lat="42.9341178" lon="13.3573456"><ele>772.0</ele><time>2026-04-11T11:31:43.017Z</time></trkpt><trkpt lat="42.9341808" lon="13.3573265"><ele>772.0000000000001</ele><time>2026-04-11T11:31:44.964Z</time></trkpt><trkpt lat="42.9342442" lon="13.3572842"><ele>772.0</ele><time>2026-04-11T11:31:48.01Z</time></trkpt><trkpt lat="42.9342141" lon="13.3573811"><ele>772.1666666666666</ele><time>2026-04-11T11:32:17.993Z</time></trkpt><trkpt lat="42.9341682" lon="13.3574525"><ele>772.3333333333333</ele><time>2026-04-11T11:32:20.99Z</time></trkpt><trkpt lat="42.9341189" lon="13.3575359"><ele>772.5</ele><time>2026-04-11T11:32:23.964Z</time></trkpt><trkpt lat="42.9341095" lon="13.3576313"><ele>772.6666666666667</ele><time>2026-04-11T11:32:28.989Z</time></trkpt><trkpt lat="42.934175" lon="13.3576514"><ele>772.8333333333334</ele><time>2026-04-11T11:32:33.003Z</time></trkpt><trkpt lat="42.934253" lon="13.3576263"><ele>773.0</ele><time>2026-04-11T11:32:35.998Z</time></trkpt><trkpt lat="42.9343397" lon="13.3575608"><ele>773.0000000000001</ele><time>2026-04-11T11:32:37.963Z</time></trkpt><trkpt lat="42.9344083" lon="13.3575237"><ele>773.0</ele><time>2026-04-11T11:32:39.996Z</time></trkpt><trkpt lat="42.9344917" lon="13.3575138"><ele>773.0</ele><time>2026-04-11T11:32:42.981Z</time></trkpt><trkpt lat="42.9345843" lon="13.3575382"><ele>773.0</ele><time>2026-04-11T11:32:45.995Z</time></trkpt><trkpt lat="42.9346431" lon="13.3575748"><ele>773.0000000000001</ele><time>2026-04-11T11:32:47.974Z</time></trkpt><trkpt lat="42.9346859" lon="13.3576395"><ele>773.0</ele><time>2026-04-11T11:32:49.983Z</time></trkpt><trkpt lat="42.9347546" lon="13.3577116"><ele>773.0000000000001</ele><time>2026-04-11T11:32:52.974Z</time></trkpt><trkpt lat="42.9348194" lon="13.3577707"><ele>773.0</ele><time>2026-04-11T11:32:55.988Z</time></trkpt><trkpt lat="42.9348576" lon="13.3578555"><ele>773.0</ele><time>2026-04-11T11:32:58.996Z</time></trkpt><trkpt lat="42.9348628" lon="13.3579721"><ele>773.0</ele><time>2026-04-11T11:33:02.001Z</time></trkpt><trkpt lat="42.9348649" lon="13.3580811"><ele>773.0000000000001</ele><time>2026-04-11T11:33:04.995Z</time></trkpt><trkpt lat="42.9348767" lon="13.3581872"><ele>773.0</ele><time>2026-04-11T11:33:06.981Z</time></trkpt><trkpt lat="42.934882" lon="13.3583058"><ele>770.6666666666667</ele><time>2026-04-11T11:33:08.998Z</time></trkpt><trkpt lat="42.9348903" lon="13.3583938"><ele>768.3333333333334</ele><time>2026-04-11T11:33:11.03Z</time></trkpt><trkpt lat="42.9349564" lon="13.3584764"><ele>766.0</ele><time>2026-04-11T11:33:14.002Z</time></trkpt><trkpt lat="42.9350341" lon="13.3585413"><ele>763.6666666666667</ele><time>2026-04-11T11:33:15.981Z</time></trkpt><trkpt lat="42.9351047" lon="13.3586382"><ele>761.3333333333334</ele><time>2026-04-11T11:33:17.981Z</time></trkpt><trkpt lat="42.9351273" lon="13.3587572"><ele>759.0</ele><time>2026-04-11T11:33:19.996Z</time></trkpt><trkpt lat="42.9351278" lon="13.3589226"><ele>752.6</ele><time>2026-04-11T11:33:21.963Z</time></trkpt><trkpt lat="42.9351331" lon="13.3590525"><ele>746.2</ele><time>2026-04-11T11:33:23.986Z</time></trkpt><trkpt lat="42.935166" lon="13.3591799"><ele>739.8000000000001</ele><time>2026-04-11T11:33:25.986Z</time></trkpt><trkpt lat="42.9351929" lon="13.3593197"><ele>733.4000000000001</ele><time>2026-04-11T11:33:27.989Z</time></trkpt><trkpt lat="42.9352214" lon="13.3594223"><ele>727.0</ele><time>2026-04-11T11:33:29.997Z</time></trkpt><trkpt lat="42.9352648" lon="13.3594976"><ele>727.0</ele><time>2026-04-11T11:33:32.002Z</time></trkpt><trkpt lat="42.9353361" lon="13.3595447"><ele>727.0</ele><time>2026-04-11T11:33:33.974Z</time></trkpt><trkpt lat="42.9354198" lon="13.3595103"><ele>727.0</ele><time>2026-04-11T11:33:35.992Z</time></trkpt><trkpt lat="42.9355024" lon="13.3594105"><ele>727.0</ele><time>2026-04-11T11:33:37.97Z</time></trkpt><trkpt lat="42.9355986" lon="13.3592931"><ele>727.0</ele><time>2026-04-11T11:33:39.976Z</time></trkpt><trkpt lat="42.9356684" lon="13.359246"><ele>727.0</ele><time>2026-04-11T11:33:41.004Z</time></trkpt><trkpt lat="42.9357391" lon="13.3592212"><ele>727.0</ele><time>2026-04-11T11:33:42.012Z</time></trkpt><trkpt lat="42.9358017" lon="13.3591966"><ele>727.0</ele><time>2026-04-11T11:33:43.003Z</time></trkpt><trkpt lat="42.9358664" lon="13.3591813"><ele>727.0</ele><time>2026-04-11T11:33:43.978Z</time></trkpt><trkpt lat="42.9359826" lon="13.3591866"><ele>727.0</ele><time>2026-04-11T11:33:46Z</time></trkpt><trkpt lat="42.9360508" lon="13.3592124"><ele>727.0</ele><time>2026-04-11T11:33:46.983Z</time></trkpt><trkpt lat="42.9361524" lon="13.3592916"><ele>725.6</ele><time>2026-04-11T11:33:48.96Z</time></trkpt><trkpt lat="42.9362169" lon="13.3593105"><ele>724.2</ele><time>2026-04-11T11:33:50.009Z</time></trkpt><trkpt lat="42.9362932" lon="13.3593146"><ele>722.8</ele><time>2026-04-11T11:33:50.981Z</time></trkpt><trkpt lat="42.9364207" lon="13.359319"><ele>721.4</ele><time>2026-04-11T11:33:52.962Z</time></trkpt><trkpt lat="42.9365316" lon="13.3593135"><ele>720.0</ele><time>2026-04-11T11:33:54.995Z</time></trkpt><trkpt lat="42.9366359" lon="13.359343"><ele>720.0</ele><time>2026-04-11T11:33:56.982Z</time></trkpt><trkpt lat="42.9366951" lon="13.3593823"><ele>720.0</ele><time>2026-04-11T11:33:57.994Z</time></trkpt><trkpt lat="42.9367615" lon="13.3594268"><ele>720.0</ele><time>2026-04-11T11:33:58.973Z</time></trkpt><trkpt lat="42.9368272" lon="13.3594744"><ele>720.0</ele><time>2026-04-11T11:34:00.002Z</time></trkpt><trkpt lat="42.9368692" lon="13.3595465"><ele>720.0</ele><time>2026-04-11T11:34:00.961Z</time></trkpt><trkpt lat="42.9369215" lon="13.3596944"><ele>720.0</ele><time>2026-04-11T11:34:02.963Z</time></trkpt><trkpt lat="42.9369555" lon="13.3598462"><ele>717.6666666666666</ele><time>2026-04-11T11:34:04.991Z</time></trkpt><trkpt lat="42.9369486" lon="13.3599379"><ele>715.3333333333334</ele><time>2026-04-11T11:34:05.998Z</time></trkpt><trkpt lat="42.93691" lon="13.360027"><ele>713.0</ele><time>2026-04-11T11:34:06.994Z</time></trkpt><trkpt lat="42.9368512" lon="13.3601097"><ele>710.6666666666667</ele><time>2026-04-11T11:34:07.994Z</time></trkpt><trkpt lat="42.9367765" lon="13.3602125"><ele>708.3333333333334</ele><time>2026-04-11T11:34:08.966Z</time></trkpt><trkpt lat="42.9367034" lon="13.360321"><ele>706.0</ele><time>2026-04-11T11:34:09.975Z</time></trkpt><trkpt lat="42.9366483" lon="13.3604068"><ele>706.0</ele><time>2026-04-11T11:34:10.99Z</time></trkpt><trkpt lat="42.9365821" lon="13.3605051"><ele>706.0</ele><time>2026-04-11T11:34:11.985Z</time></trkpt><trkpt lat="42.936522" lon="13.3605741"><ele>706.0</ele><time>2026-04-11T11:34:12.978Z</time></trkpt><trkpt lat="42.9364629" lon="13.3606444"><ele>706.0</ele><time>2026-04-11T11:34:13.963Z</time></trkpt><trkpt lat="42.9364018" lon="13.3607153"><ele>706.0</ele><time>2026-04-11T11:34:15.008Z</time></trkpt><trkpt lat="42.9363484" lon="13.3607773"><ele>706.0</ele><time>2026-04-11T11:34:16.003Z</time></trkpt><trkpt lat="42.9362582" lon="13.3608673"><ele>706.1666666666667</ele><time>2026-04-11T11:34:17.977Z</time></trkpt><trkpt lat="42.9362127" lon="13.3609529"><ele>706.3333333333334</ele><time>2026-04-11T11:34:20.013Z</time></trkpt><trkpt lat="42.9362637" lon="13.3610678"><ele>706.5</ele><time>2026-04-11T11:34:21.989Z</time></trkpt><trkpt lat="42.9363222" lon="13.3611121"><ele>706.6666666666666</ele><time>2026-04-11T11:34:23.009Z</time></trkpt><trkpt lat="42.9364244" lon="13.3612004"><ele>706.8333333333333</ele><time>2026-04-11T11:34:24.997Z</time></trkpt><trkpt lat="42.9364856" lon="13.3612594"><ele>707.0</ele><time>2026-04-11T11:34:25.999Z</time></trkpt><trkpt lat="42.9365455" lon="13.3613118"><ele>707.0</ele><time>2026-04-11T11:34:26.999Z</time></trkpt><trkpt lat="42.9366097" lon="13.3613656"><ele>707.0</ele><time>2026-04-11T11:34:27.983Z</time></trkpt><trkpt lat="42.9366694" lon="13.361416"><ele>707.0</ele><time>2026-04-11T11:34:28.962Z</time></trkpt><trkpt lat="42.9367281" lon="13.3614613"><ele>707.0</ele><time>2026-04-11T11:34:30.006Z</time></trkpt><trkpt lat="42.936796" lon="13.361508"><ele>707.0</ele><time>2026-04-11T11:34:30.982Z</time></trkpt><trkpt lat="42.9368753" lon="13.361555"><ele>707.0</ele><time>2026-04-11T11:34:32.017Z</time></trkpt><trkpt lat="42.9369608" lon="13.3615972"><ele>703.5</ele><time>2026-04-11T11:34:33.033Z</time></trkpt><trkpt lat="42.9370413" lon="13.3616279"><ele>700.0</ele><time>2026-04-11T11:34:33.956Z</time></trkpt><trkpt lat="42.937115" lon="13.3616593"><ele>696.5</ele><time>2026-04-11T11:34:34.981Z</time></trkpt><trkpt lat="42.9371898" lon="13.3617026"><ele>693.0</ele><time>2026-04-11T11:34:36.006Z</time></trkpt><trkpt lat="42.9372632" lon="13.3617597"><ele>689.5</ele><time>2026-04-11T11:34:37.02Z</time></trkpt><trkpt lat="42.937347" lon="13.3618081"><ele>686.0</ele><time>2026-04-11T11:34:37.995Z</time></trkpt><trkpt lat="42.9374304" lon="13.3618501"><ele>686.0</ele><time>2026-04-11T11:34:38.951Z</time></trkpt><trkpt lat="42.937507" lon="13.3618715"><ele>686.0</ele><time>2026-04-11T11:34:39.998Z</time></trkpt><trkpt lat="42.9375976" lon="13.3618875"><ele>686.0</ele><time>2026-04-11T11:34:40.994Z</time></trkpt><trkpt lat="42.9376929" lon="13.3619055"><ele>686.0</ele><time>2026-04-11T11:34:41.974Z</time></trkpt><trkpt lat="42.9377764" lon="13.3619151"><ele>686.0</ele><time>2026-04-11T11:34:42.972Z</time></trkpt><trkpt lat="42.9378573" lon="13.3619326"><ele>686.0</ele><time>2026-04-11T11:34:43.989Z</time></trkpt><trkpt lat="42.9379321" lon="13.3619614"><ele>685.5</ele><time>2026-04-11T11:34:44.998Z</time></trkpt><trkpt lat="42.9379946" lon="13.3619991"><ele>685.0</ele><time>2026-04-11T11:34:45.985Z</time></trkpt><trkpt lat="42.9380656" lon="13.3620538"><ele>684.5</ele><time>2026-04-11T11:34:47.004Z</time></trkpt><trkpt lat="42.938142" lon="13.3621244"><ele>684.0</ele><time>2026-04-11T11:34:47.999Z</time></trkpt><trkpt lat="42.9382261" lon="13.3621847"><ele>683.5</ele><time>2026-04-11T11:34:48.976Z</time></trkpt><trkpt lat="42.9383005" lon="13.3622271"><ele>683.0</ele><time>2026-04-11T11:34:49.98Z</time></trkpt><trkpt lat="42.9383773" lon="13.3622629"><ele>680.4</ele><time>2026-04-11T11:34:50.983Z</time></trkpt><trkpt lat="42.938474" lon="13.3623167"><ele>677.8</ele><time>2026-04-11T11:34:52.01Z</time></trkpt><trkpt lat="42.9385575" lon="13.3623761"><ele>675.2</ele><time>2026-04-11T11:34:52.985Z</time></trkpt><trkpt lat="42.9386371" lon="13.3624373"><ele>672.6</ele><time>2026-04-11T11:34:53.984Z</time></trkpt><trkpt lat="42.9387124" lon="13.3624872"><ele>670.0</ele><time>2026-04-11T11:34:54.979Z</time></trkpt><trkpt lat="42.9387797" lon="13.3625442"><ele>670.0</ele><time>2026-04-11T11:34:55.99Z</time></trkpt><trkpt lat="42.9388409" lon="13.3626101"><ele>670.0</ele><time>2026-04-11T11:34:56.979Z</time></trkpt><trkpt lat="42.9389158" lon="13.3627176"><ele>670.0</ele><time>2026-04-11T11:34:58.955Z</time></trkpt><trkpt lat="42.9389489" lon="13.3628318"><ele>670.0</ele><time>2026-04-11T11:35:01.009Z</time></trkpt><trkpt lat="42.9389613" lon="13.3629827"><ele>670.0</ele><time>2026-04-11T11:35:03.003Z</time></trkpt><trkpt lat="42.9389479" lon="13.3630791"><ele>669.9999999999999</ele><time>2026-04-11T11:35:04.994Z</time></trkpt><trkpt lat="42.9389401" lon="13.363192"><ele>670.0</ele><time>2026-04-11T11:35:08.979Z</time></trkpt><trkpt lat="42.9390032" lon="13.3631599"><ele>670.0</ele><time>2026-04-11T11:35:17.975Z</time></trkpt><trkpt lat="42.9390239" lon="13.3630653"><ele>670.0</ele><time>2026-04-11T11:35:18.971Z</time></trkpt><trkpt lat="42.939055" lon="13.3629729"><ele>670.0</ele><time>2026-04-11T11:35:19.995Z</time></trkpt><trkpt lat="42.9390855" lon="13.3628927"><ele>669.9999999999999</ele><time>2026-04-11T11:35:20.996Z</time></trkpt><trkpt lat="42.9391536" lon="13.3628402"><ele>670.0</ele><time>2026-04-11T11:35:22.006Z</time></trkpt><trkpt lat="42.9392293" lon="13.3628085"><ele>668.0</ele><time>2026-04-11T11:35:23.034Z</time></trkpt><trkpt lat="42.939315" lon="13.3627798"><ele>666.0</ele><time>2026-04-11T11:35:24.011Z</time></trkpt><trkpt lat="42.9394196" lon="13.3627661"><ele>664.0</ele><time>2026-04-11T11:35:24.983Z</time></trkpt><trkpt lat="42.939541" lon="13.3627443"><ele>662.0</ele><time>2026-04-11T11:35:25.975Z</time></trkpt><trkpt lat="42.9396442" lon="13.3627196"><ele>660.0</ele><time>2026-04-11T11:35:26.98Z</time></trkpt><trkpt lat="42.9397436" lon="13.3626998"><ele>660.0</ele><time>2026-04-11T11:35:27.987Z</time></trkpt><trkpt lat="42.9398283" lon="13.3626785"><ele>660.0</ele><time>2026-04-11T11:35:28.993Z</time></trkpt><trkpt lat="42.9399105" lon="13.3626591"><ele>660.0</ele><time>2026-04-11T11:35:29.98Z</time></trkpt><trkpt lat="42.9399959" lon="13.3626386"><ele>660.0</ele><time>2026-04-11T11:35:31.003Z</time></trkpt><trkpt lat="42.9400878" lon="13.3626186"><ele>660.0</ele><time>2026-04-11T11:35:31.978Z</time></trkpt><trkpt lat="42.9401833" lon="13.3626079"><ele>660.0</ele><time>2026-04-11T11:35:32.991Z</time></trkpt><trkpt lat="42.9402688" lon="13.3625951"><ele>659.0</ele><time>2026-04-11T11:35:34.01Z</time></trkpt><trkpt lat="42.9403433" lon="13.3625923"><ele>658.0</ele><time>2026-04-11T11:35:34.995Z</time></trkpt><trkpt lat="42.9404175" lon="13.3625886"><ele>657.0</ele><time>2026-04-11T11:35:36.002Z</time></trkpt><trkpt lat="42.9404976" lon="13.3625962"><ele>656.0</ele><time>2026-04-11T11:35:36.975Z</time></trkpt><trkpt lat="42.9405836" lon="13.3626207"><ele>655.0</ele><time>2026-04-11T11:35:37.976Z</time></trkpt><trkpt lat="42.9406823" lon="13.3626637"><ele>654.0</ele><time>2026-04-11T11:35:38.971Z</time></trkpt><trkpt lat="42.9407933" lon="13.3627101"><ele>652.8000000000001</ele><time>2026-04-11T11:35:39.954Z</time></trkpt><trkpt lat="42.9408962" lon="13.3627577"><ele>651.6</ele><time>2026-04-11T11:35:40.954Z</time></trkpt><trkpt lat="42.9409802" lon="13.3628061"><ele>650.4</ele><time>2026-04-11T11:35:41.955Z</time></trkpt><trkpt lat="42.9410711" lon="13.3628574"><ele>649.2</ele><time>2026-04-11T11:35:42.967Z</time></trkpt><trkpt lat="42.9411675" lon="13.3629117"><ele>648.0</ele><time>2026-04-11T11:35:43.975Z</time></trkpt><trkpt lat="42.9412605" lon="13.3629644"><ele>648.0</ele><time>2026-04-11T11:35:44.975Z</time></trkpt><trkpt lat="42.9413546" lon="13.363011"><ele>648.0</ele><time>2026-04-11T11:35:45.977Z</time></trkpt><trkpt lat="42.9414484" lon="13.3630588"><ele>648.0</ele><time>2026-04-11T11:35:46.982Z</time></trkpt><trkpt lat="42.9415382" lon="13.3631187"><ele>648.0</ele><time>2026-04-11T11:35:47.965Z</time></trkpt><trkpt lat="42.9416046" lon="13.3632203"><ele>648.0</ele><time>2026-04-11T11:35:48.969Z</time></trkpt><trkpt lat="42.9416695" lon="13.3633201"><ele>647.8333333333334</ele><time>2026-04-11T11:35:49.964Z</time></trkpt><trkpt lat="42.9417226" lon="13.3634063"><ele>647.6666666666666</ele><time>2026-04-11T11:35:50.958Z</time></trkpt><trkpt lat="42.9417735" lon="13.3634809"><ele>647.5</ele><time>2026-04-11T11:35:51.997Z</time></trkpt><trkpt lat="42.9418263" lon="13.3635469"><ele>647.3333333333333</ele><time>2026-04-11T11:35:53.03Z</time></trkpt><trkpt lat="42.9419037" lon="13.36358"><ele>647.1666666666666</ele><time>2026-04-11T11:35:53.995Z</time></trkpt><trkpt lat="42.9419788" lon="13.3636139"><ele>647.0</ele><time>2026-04-11T11:35:55.001Z</time></trkpt><trkpt lat="42.9420633" lon="13.3636036"><ele>647.0</ele><time>2026-04-11T11:35:56.023Z</time></trkpt><trkpt lat="42.9421581" lon="13.3635645"><ele>647.0</ele><time>2026-04-11T11:35:57.008Z</time></trkpt><trkpt lat="42.9422356" lon="13.3635059"><ele>647.0</ele><time>2026-04-11T11:35:58.017Z</time></trkpt><trkpt lat="42.9423137" lon="13.363431"><ele>647.0</ele><time>2026-04-11T11:35:59.015Z</time></trkpt><trkpt lat="42.9423874" lon="13.3633565"><ele>647.0</ele><time>2026-04-11T11:36:00.041Z</time></trkpt><trkpt lat="42.9424642" lon="13.3632638"><ele>647.0</ele><time>2026-04-11T11:36:01.022Z</time></trkpt><trkpt lat="42.942537" lon="13.3631659"><ele>647.0</ele><time>2026-04-11T11:36:02.033Z</time></trkpt><trkpt lat="42.9426043" lon="13.3630705"><ele>647.0</ele><time>2026-04-11T11:36:03.022Z</time></trkpt><trkpt lat="42.9426653" lon="13.3629685"><ele>647.0</ele><time>2026-04-11T11:36:03.993Z</time></trkpt><trkpt lat="42.9427203" lon="13.362873"><ele>647.0</ele><time>2026-04-11T11:36:05.026Z</time></trkpt><trkpt lat="42.9427583" lon="13.3627807"><ele>645.1666666666666</ele><time>2026-04-11T11:36:06.014Z</time></trkpt><trkpt lat="42.9428021" lon="13.3626921"><ele>643.3333333333333</ele><time>2026-04-11T11:36:06.967Z</time></trkpt><trkpt lat="42.9428486" lon="13.362613"><ele>641.5</ele><time>2026-04-11T11:36:07.962Z</time></trkpt><trkpt lat="42.9429217" lon="13.3625566"><ele>639.6666666666666</ele><time>2026-04-11T11:36:08.969Z</time></trkpt><trkpt lat="42.943008" lon="13.3625221"><ele>637.8333333333334</ele><time>2026-04-11T11:36:09.976Z</time></trkpt><trkpt lat="42.943085" lon="13.3625008"><ele>636.0</ele><time>2026-04-11T11:36:10.986Z</time></trkpt><trkpt lat="42.9431651" lon="13.3625094"><ele>636.0</ele><time>2026-04-11T11:36:12.009Z</time></trkpt><trkpt lat="42.943235" lon="13.3625386"><ele>636.0</ele><time>2026-04-11T11:36:13.014Z</time></trkpt><trkpt lat="42.9432977" lon="13.3625613"><ele>636.0</ele><time>2026-04-11T11:36:14.022Z</time></trkpt><trkpt lat="42.9434117" lon="13.3625123"><ele>636.0</ele><time>2026-04-11T11:36:16.006Z</time></trkpt><trkpt lat="42.9434629" lon="13.3624503"><ele>636.0</ele><time>2026-04-11T11:36:17.001Z</time></trkpt><trkpt lat="42.9435328" lon="13.3623046"><ele>636.0</ele><time>2026-04-11T11:36:18.973Z</time></trkpt><trkpt lat="42.9435376" lon="13.3622156"><ele>636.0</ele><time>2026-04-11T11:36:19.985Z</time></trkpt><trkpt lat="42.9435449" lon="13.3620497"><ele>636.0</ele><time>2026-04-11T11:36:20.989Z</time></trkpt><trkpt lat="42.9435535" lon="13.3618839"><ele>636.0</ele><time>2026-04-11T11:36:21.998Z</time></trkpt><trkpt lat="42.9435756" lon="13.3617203"><ele>636.0</ele><time>2026-04-11T11:36:22.982Z</time></trkpt><trkpt lat="42.9436147" lon="13.3615889"><ele>635.6</ele><time>2026-04-11T11:36:24.019Z</time></trkpt><trkpt lat="42.9436655" lon="13.3614808"><ele>635.2</ele><time>2026-04-11T11:36:25.016Z</time></trkpt><trkpt lat="42.9437319" lon="13.3613752"><ele>634.8</ele><time>2026-04-11T11:36:25.969Z</time></trkpt><trkpt lat="42.9437971" lon="13.3612794"><ele>634.4</ele><time>2026-04-11T11:36:27.008Z</time></trkpt><trkpt lat="42.943851" lon="13.3612302"><ele>634.0</ele><time>2026-04-11T11:36:28.015Z</time></trkpt><trkpt lat="42.9440008" lon="13.3612043"><ele>634.0</ele><time>2026-04-11T11:36:29.992Z</time></trkpt><trkpt lat="42.9441132" lon="13.3612172"><ele>634.0</ele><time>2026-04-11T11:36:30.998Z</time></trkpt><trkpt lat="42.9442377" lon="13.3612402"><ele>634.0</ele><time>2026-04-11T11:36:31.99Z</time></trkpt><trkpt lat="42.9443433" lon="13.3612552"><ele>634.0</ele><time>2026-04-11T11:36:32.989Z</time></trkpt><trkpt lat="42.944442" lon="13.3612537"><ele>634.0</ele><time>2026-04-11T11:36:34Z</time></trkpt><trkpt lat="42.9445277" lon="13.3612293"><ele>636.3333333333334</ele><time>2026-04-11T11:36:34.995Z</time></trkpt><trkpt lat="42.9445974" lon="13.3611784"><ele>638.6666666666667</ele><time>2026-04-11T11:36:35.988Z</time></trkpt><trkpt lat="42.9446463" lon="13.3611073"><ele>641.0</ele><time>2026-04-11T11:36:36.995Z</time></trkpt><trkpt lat="42.9446961" lon="13.3610312"><ele>643.3333333333334</ele><time>2026-04-11T11:36:37.971Z</time></trkpt><trkpt lat="42.9447232" lon="13.3609399"><ele>645.6666666666666</ele><time>2026-04-11T11:36:38.998Z</time></trkpt><trkpt lat="42.9447378" lon="13.3608391"><ele>648.0</ele><time>2026-04-11T11:36:40.01Z</time></trkpt><trkpt lat="42.9447327" lon="13.360718"><ele>648.0</ele><time>2026-04-11T11:36:41.008Z</time></trkpt><trkpt lat="42.9447058" lon="13.3605873"><ele>648.0</ele><time>2026-04-11T11:36:42.015Z</time></trkpt><trkpt lat="42.9446668" lon="13.3604503"><ele>648.0</ele><time>2026-04-11T11:36:43.02Z</time></trkpt><trkpt lat="42.9446343" lon="13.3602963"><ele>648.0</ele><time>2026-04-11T11:36:44.009Z</time></trkpt><trkpt lat="42.9446138" lon="13.360151"><ele>648.0</ele><time>2026-04-11T11:36:44.977Z</time></trkpt><trkpt lat="42.9446028" lon="13.3600298"><ele>648.5</ele><time>2026-04-11T11:36:46.007Z</time></trkpt><trkpt lat="42.9446219" lon="13.3599211"><ele>649.0</ele><time>2026-04-11T11:36:47.003Z</time></trkpt><trkpt lat="42.9446502" lon="13.359843"><ele>649.5</ele><time>2026-04-11T11:36:48.013Z</time></trkpt><trkpt lat="42.9447257" lon="13.3597956"><ele>650.0</ele><time>2026-04-11T11:36:49.039Z</time></trkpt><trkpt lat="42.94481" lon="13.3597408"><ele>650.5</ele><time>2026-04-11T11:36:50.025Z</time></trkpt><trkpt lat="42.9448938" lon="13.3596499"><ele>651.0</ele><time>2026-04-11T11:36:51.02Z</time></trkpt><trkpt lat="42.9449835" lon="13.3595486"><ele>650.0</ele><time>2026-04-11T11:36:52.008Z</time></trkpt><trkpt lat="42.9450642" lon="13.3594566"><ele>649.0</ele><time>2026-04-11T11:36:53.006Z</time></trkpt><trkpt lat="42.9451522" lon="13.3593693"><ele>648.0</ele><time>2026-04-11T11:36:53.999Z</time></trkpt><trkpt lat="42.9452548" lon="13.3593122"><ele>647.0</ele><time>2026-04-11T11:36:54.994Z</time></trkpt><trkpt lat="42.9453733" lon="13.3592676"><ele>646.0</ele><time>2026-04-11T11:36:55.985Z</time></trkpt><trkpt lat="42.9454769" lon="13.3592285"><ele>646.0</ele><time>2026-04-11T11:36:56.991Z</time></trkpt><trkpt lat="42.9455605" lon="13.3591846"><ele>646.0</ele><time>2026-04-11T11:36:58.006Z</time></trkpt><trkpt lat="42.9456289" lon="13.3591342"><ele>646.0</ele><time>2026-04-11T11:36:59Z</time></trkpt><trkpt lat="42.945695" lon="13.3590748"><ele>646.0</ele><time>2026-04-11T11:37:00.018Z</time></trkpt><trkpt lat="42.9457621" lon="13.3590077"><ele>646.0</ele><time>2026-04-11T11:37:01.006Z</time></trkpt><trkpt lat="42.9458305" lon="13.3589442"><ele>646.0</ele><time>2026-04-11T11:37:01.998Z</time></trkpt><trkpt lat="42.9458917" lon="13.3588815"><ele>646.0</ele><time>2026-04-11T11:37:02.99Z</time></trkpt><trkpt lat="42.9459561" lon="13.3588155"><ele>646.0</ele><time>2026-04-11T11:37:03.961Z</time></trkpt><trkpt lat="42.9460278" lon="13.3587566"><ele>646.0</ele><time>2026-04-11T11:37:05.025Z</time></trkpt><trkpt lat="42.9461058" lon="13.3586852"><ele>646.0</ele><time>2026-04-11T11:37:06.001Z</time></trkpt><trkpt lat="42.9461874" lon="13.3585909"><ele>646.0</ele><time>2026-04-11T11:37:06.986Z</time></trkpt><trkpt lat="42.946269" lon="13.3584959"><ele>646.0</ele><time>2026-04-11T11:37:08.026Z</time></trkpt><trkpt lat="42.9463351" lon="13.358394"><ele>646.0</ele><time>2026-04-11T11:37:09.006Z</time></trkpt><trkpt lat="42.9463978" lon="13.3583057"><ele>646.0</ele><time>2026-04-11T11:37:09.967Z</time></trkpt><trkpt lat="42.946462" lon="13.3582229"><ele>646.0</ele><time>2026-04-11T11:37:10.981Z</time></trkpt><trkpt lat="42.9465209" lon="13.3581471"><ele>646.0</ele><time>2026-04-11T11:37:12.016Z</time></trkpt><trkpt lat="42.9465984" lon="13.3580997"><ele>646.0</ele><time>2026-04-11T11:37:13.022Z</time></trkpt><trkpt lat="42.9466975" lon="13.3580662"><ele>646.0</ele><time>2026-04-11T11:37:13.999Z</time></trkpt><trkpt lat="42.9468021" lon="13.3580524"><ele>646.0</ele><time>2026-04-11T11:37:15.018Z</time></trkpt><trkpt lat="42.946885" lon="13.3580502"><ele>646.0</ele><time>2026-04-11T11:37:16.013Z</time></trkpt><trkpt lat="42.9469594" lon="13.358048"><ele>646.0</ele><time>2026-04-11T11:37:17.018Z</time></trkpt><trkpt lat="42.9470398" lon="13.3580742"><ele>646.0</ele><time>2026-04-11T11:37:28.012Z</time></trkpt><trkpt lat="42.9470081" lon="13.3579648"><ele>646.0</ele><time>2026-04-11T11:37:31.035Z</time></trkpt><trkpt lat="42.9469311" lon="13.3578848"><ele>646.1999999999999</ele><time>2026-04-11T11:37:33.002Z</time></trkpt><trkpt lat="42.9468337" lon="13.3577455"><ele>646.4</ele><time>2026-04-11T11:37:34.981Z</time></trkpt><trkpt lat="42.946775" lon="13.3576624"><ele>646.6</ele><time>2026-04-11T11:37:36.025Z</time></trkpt><trkpt lat="42.9466972" lon="13.3575669"><ele>646.8</ele><time>2026-04-11T11:37:37.01Z</time></trkpt><trkpt lat="42.9466177" lon="13.3574673"><ele>647.0</ele><time>2026-04-11T11:37:37.983Z</time></trkpt><trkpt lat="42.946548" lon="13.3573729"><ele>647.0</ele><time>2026-04-11T11:37:39.005Z</time></trkpt><trkpt lat="42.9465001" lon="13.3572606"><ele>647.0</ele><time>2026-04-11T11:37:39.96Z</time></trkpt><trkpt lat="42.9464658" lon="13.357135"><ele>647.0</ele><time>2026-04-11T11:37:40.981Z</time></trkpt><trkpt lat="42.9464427" lon="13.3569928"><ele>647.0</ele><time>2026-04-11T11:37:42.011Z</time></trkpt><trkpt lat="42.9464149" lon="13.3568385"><ele>647.0</ele><time>2026-04-11T11:37:42.964Z</time></trkpt><trkpt lat="42.9463913" lon="13.3566893"><ele>644.6</ele><time>2026-04-11T11:37:43.99Z</time></trkpt><trkpt lat="42.9463886" lon="13.3565495"><ele>642.2</ele><time>2026-04-11T11:37:44.973Z</time></trkpt><trkpt lat="42.9463858" lon="13.3564128"><ele>639.8</ele><time>2026-04-11T11:37:46.004Z</time></trkpt><trkpt lat="42.946379" lon="13.3562829"><ele>637.4</ele><time>2026-04-11T11:37:47.005Z</time></trkpt><trkpt lat="42.9463823" lon="13.3561594"><ele>635.0</ele><time>2026-04-11T11:37:48.044Z</time></trkpt><trkpt lat="42.9463969" lon="13.3560574"><ele>633.0</ele><time>2026-04-11T11:37:48.991Z</time></trkpt><trkpt lat="42.94644" lon="13.3559103"><ele>631.0</ele><time>2026-04-11T11:37:51.024Z</time></trkpt><trkpt lat="42.9464371" lon="13.355774"><ele>629.0</ele><time>2026-04-11T11:37:52.997Z</time></trkpt><trkpt lat="42.946362" lon="13.3556712"><ele>627.0</ele><time>2026-04-11T11:37:54.956Z</time></trkpt><trkpt lat="42.9463156" lon="13.355612"><ele>625.0</ele><time>2026-04-11T11:37:55.964Z</time></trkpt><trkpt lat="42.9462455" lon="13.3555263"><ele>625.0</ele><time>2026-04-11T11:37:57.98Z</time></trkpt><trkpt lat="42.9462068" lon="13.3554539"><ele>625.0</ele><time>2026-04-11T11:38:00.986Z</time></trkpt><trkpt lat="42.9461853" lon="13.3553553"><ele>625.0</ele><time>2026-04-11T11:40:05.993Z</time></trkpt><trkpt lat="42.946184" lon="13.3552531"><ele>625.0</ele><time>2026-04-11T11:40:07.983Z</time></trkpt><trkpt lat="42.9461815" lon="13.3551585"><ele>625.0</ele><time>2026-04-11T11:40:09.975Z</time></trkpt><trkpt lat="42.9462321" lon="13.3550845"><ele>625.0</ele><time>2026-04-11T11:40:36.994Z</time></trkpt><trkpt lat="42.9463309" lon="13.3550201"><ele>625.0</ele><time>2026-04-11T11:40:39.992Z</time></trkpt><trkpt lat="42.9464288" lon="13.3549178"><ele>625.0</ele><time>2026-04-11T11:40:41.989Z</time></trkpt><trkpt lat="42.9464895" lon="13.3548547"><ele>625.0</ele><time>2026-04-11T11:40:42.976Z</time></trkpt><trkpt lat="42.9465406" lon="13.3547972"><ele>625.0</ele><time>2026-04-11T11:40:43.998Z</time></trkpt><trkpt lat="42.946593" lon="13.3547486"><ele>625.0</ele><time>2026-04-11T11:40:44.998Z</time></trkpt><trkpt lat="42.9466735" lon="13.3546912"><ele>625.0</ele><time>2026-04-11T11:40:46.975Z</time></trkpt><trkpt lat="42.9467655" lon="13.354653"><ele>623.1666666666667</ele><time>2026-04-11T11:40:49.012Z</time></trkpt><trkpt lat="42.9468547" lon="13.3545984"><ele>621.3333333333334</ele><time>2026-04-11T11:40:51.013Z</time></trkpt><trkpt lat="42.9469393" lon="13.3545415"><ele>619.5</ele><time>2026-04-11T11:40:52.991Z</time></trkpt><trkpt lat="42.9470095" lon="13.3544683"><ele>617.6666666666666</ele><time>2026-04-11T11:40:54.99Z</time></trkpt><trkpt lat="42.9470814" lon="13.3543885"><ele>615.8333333333333</ele><time>2026-04-11T11:40:57.003Z</time></trkpt><trkpt lat="42.9471392" lon="13.3543289"><ele>614.0</ele><time>2026-04-11T11:40:59.001Z</time></trkpt><trkpt lat="42.9472287" lon="13.3542675"><ele>614.0</ele><time>2026-04-11T11:41:01.981Z</time></trkpt><trkpt lat="42.947307" lon="13.3542143"><ele>614.0</ele><time>2026-04-11T11:41:03.965Z</time></trkpt><trkpt lat="42.9473727" lon="13.3541119"><ele>614.0</ele><time>2026-04-11T11:41:06.006Z</time></trkpt><trkpt lat="42.9474418" lon="13.354011"><ele>614.0</ele><time>2026-04-11T11:41:08.003Z</time></trkpt><trkpt lat="42.9474964" lon="13.3538983"><ele>614.0</ele><time>2026-04-11T11:41:10.004Z</time></trkpt><trkpt lat="42.9475264" lon="13.3537771"><ele>612.5</ele><time>2026-04-11T11:41:12.003Z</time></trkpt><trkpt lat="42.947509" lon="13.3536778"><ele>611.0</ele><time>2026-04-11T11:41:14.035Z</time></trkpt><trkpt lat="42.9474486" lon="13.3536361"><ele>609.5</ele><time>2026-04-11T11:41:14.97Z</time></trkpt><trkpt lat="42.9473883" lon="13.3535979"><ele>608.0</ele><time>2026-04-11T11:41:16.012Z</time></trkpt><trkpt lat="42.9473271" lon="13.3535624"><ele>606.5</ele><time>2026-04-11T11:41:16.996Z</time></trkpt><trkpt lat="42.947221" lon="13.3534967"><ele>605.0</ele><time>2026-04-11T11:41:18.991Z</time></trkpt><trkpt lat="42.9471338" lon="13.3534353"><ele>605.0</ele><time>2026-04-11T11:41:20.985Z</time></trkpt><trkpt lat="42.9470243" lon="13.3533634"><ele>605.0</ele><time>2026-04-11T11:41:23.007Z</time></trkpt><trkpt lat="42.946925" lon="13.3533127"><ele>605.0</ele><time>2026-04-11T11:41:24.996Z</time></trkpt><trkpt lat="42.9468177" lon="13.3532579"><ele>605.0</ele><time>2026-04-11T11:41:26.996Z</time></trkpt><trkpt lat="42.9467252" lon="13.3531884"><ele>605.0</ele><time>2026-04-11T11:41:28.997Z</time></trkpt><trkpt lat="42.9466256" lon="13.3531207"><ele>605.4285714285714</ele><time>2026-04-11T11:41:30.989Z</time></trkpt><trkpt lat="42.9465575" lon="13.3530911"><ele>605.8571428571429</ele><time>2026-04-11T11:41:32.049Z</time></trkpt><trkpt lat="42.9464669" lon="13.3530529"><ele>606.2857142857142</ele><time>2026-04-11T11:41:33.999Z</time></trkpt><trkpt lat="42.9464062" lon="13.3529814"><ele>606.7142857142858</ele><time>2026-04-11T11:41:45.016Z</time></trkpt><trkpt lat="42.946397" lon="13.3528931"><ele>607.1428571428572</ele><time>2026-04-11T11:41:46.996Z</time></trkpt><trkpt lat="42.9463955" lon="13.3527974"><ele>607.5714285714286</ele><time>2026-04-11T11:41:49.009Z</time></trkpt><trkpt lat="42.9463775" lon="13.3527094"><ele>608.0</ele><time>2026-04-11T11:41:51Z</time></trkpt><trkpt lat="42.9463008" lon="13.3526345"><ele>608.0</ele><time>2026-04-11T11:41:53.008Z</time></trkpt><trkpt lat="42.9462391" lon="13.3525991"><ele>608.0</ele><time>2026-04-11T11:41:54.013Z</time></trkpt><trkpt lat="42.9461386" lon="13.352514"><ele>608.0</ele><time>2026-04-11T11:41:55.965Z</time></trkpt><trkpt lat="42.9460644" lon="13.3523937"><ele>608.0</ele><time>2026-04-11T11:41:58.016Z</time></trkpt><trkpt lat="42.946021" lon="13.3523158"><ele>608.0</ele><time>2026-04-11T11:41:59.961Z</time></trkpt><trkpt lat="42.9460523" lon="13.3522062"><ele>611.0</ele><time>2026-04-11T11:42:01.999Z</time></trkpt><trkpt lat="42.946096" lon="13.3521202"><ele>614.0</ele><time>2026-04-11T11:42:03.001Z</time></trkpt><trkpt lat="42.9461544" lon="13.3520327"><ele>617.0</ele><time>2026-04-11T11:42:04.018Z</time></trkpt><trkpt lat="42.9462177" lon="13.3519179"><ele>620.0</ele><time>2026-04-11T11:42:04.995Z</time></trkpt><trkpt lat="42.9462693" lon="13.3517813"><ele>623.0</ele><time>2026-04-11T11:42:05.992Z</time></trkpt><trkpt lat="42.9463167" lon="13.3516514"><ele>623.0</ele><time>2026-04-11T11:42:06.991Z</time></trkpt><trkpt lat="42.94636" lon="13.3515507"><ele>623.0</ele><time>2026-04-11T11:42:07.984Z</time></trkpt><trkpt lat="42.9463953" lon="13.3514686"><ele>623.0</ele><time>2026-04-11T11:42:08.985Z</time></trkpt><trkpt lat="42.9464206" lon="13.3513876"><ele>623.0</ele><time>2026-04-11T11:42:10.01Z</time></trkpt><trkpt lat="42.9464291" lon="13.3512996"><ele>623.0</ele><time>2026-04-11T11:42:10.953Z</time></trkpt><trkpt lat="42.9464396" lon="13.3511792"><ele>623.0</ele><time>2026-04-11T11:42:11.962Z</time></trkpt><trkpt lat="42.9464704" lon="13.351047"><ele>623.0</ele><time>2026-04-11T11:42:13.003Z</time></trkpt><trkpt lat="42.9465075" lon="13.3509163"><ele>623.0</ele><time>2026-04-11T11:42:13.992Z</time></trkpt><trkpt lat="42.9465482" lon="13.3508053"><ele>623.0</ele><time>2026-04-11T11:42:15.07Z</time></trkpt><trkpt lat="42.9465685" lon="13.3507119"><ele>623.0</ele><time>2026-04-11T11:42:15.97Z</time></trkpt><trkpt lat="42.946586" lon="13.3506257"><ele>623.0</ele><time>2026-04-11T11:42:16.987Z</time></trkpt><trkpt lat="42.9465389" lon="13.3504715"><ele>621.6</ele><time>2026-04-11T11:42:18.999Z</time></trkpt><trkpt lat="42.946529" lon="13.3503293"><ele>620.1999999999999</ele><time>2026-04-11T11:42:20.965Z</time></trkpt><trkpt lat="42.9466347" lon="13.3501894"><ele>618.8</ele><time>2026-04-11T11:42:22.994Z</time></trkpt><trkpt lat="42.9466977" lon="13.3500852"><ele>617.4</ele><time>2026-04-11T11:42:23.989Z</time></trkpt><trkpt lat="42.9467617" lon="13.3499849"><ele>616.0</ele><time>2026-04-11T11:42:24.993Z</time></trkpt><trkpt lat="42.9468087" lon="13.3499067"><ele>615.5</ele><time>2026-04-11T11:42:25.983Z</time></trkpt><trkpt lat="42.9468518" lon="13.3498222"><ele>615.0</ele><time>2026-04-11T11:42:27.004Z</time></trkpt><trkpt lat="42.9468856" lon="13.3497273"><ele>614.5</ele><time>2026-04-11T11:42:27.991Z</time></trkpt><trkpt lat="42.946923" lon="13.3496195"><ele>614.0</ele><time>2026-04-11T11:42:29.016Z</time></trkpt><trkpt lat="42.9469556" lon="13.3495125"><ele>613.5</ele><time>2026-04-11T11:42:30.009Z</time></trkpt><trkpt lat="42.9469801" lon="13.3494267"><ele>613.0</ele><time>2026-04-11T11:42:30.982Z</time></trkpt><trkpt lat="42.9470191" lon="13.3493523"><ele>612.5</ele><time>2026-04-11T11:42:32.024Z</time></trkpt><trkpt lat="42.9471048" lon="13.349259"><ele>612.0</ele><time>2026-04-11T11:42:33.994Z</time></trkpt><trkpt lat="42.9471912" lon="13.3491795"><ele>611.5</ele><time>2026-04-11T11:42:35.971Z</time></trkpt><trkpt lat="42.9472974" lon="13.3491399"><ele>611.0</ele><time>2026-04-11T11:42:38.004Z</time></trkpt><trkpt lat="42.9474096" lon="13.3490624"><ele>611.0</ele><time>2026-04-11T11:42:40.02Z</time></trkpt><trkpt lat="42.9474564" lon="13.3489803"><ele>611.0</ele><time>2026-04-11T11:42:40.971Z</time></trkpt><trkpt lat="42.9474991" lon="13.3488846"><ele>611.0</ele><time>2026-04-11T11:42:41.989Z</time></trkpt><trkpt lat="42.9475425" lon="13.3488118"><ele>611.0</ele><time>2026-04-11T11:42:43.064Z</time></trkpt><trkpt lat="42.9476424" lon="13.3487446"><ele>611.0</ele><time>2026-04-11T11:42:45.025Z</time></trkpt><trkpt lat="42.9477074" lon="13.3487658"><ele>611.0</ele><time>2026-04-11T11:42:45.978Z</time></trkpt><trkpt lat="42.9478197" lon="13.3487631"><ele>610.3333333333333</ele><time>2026-04-11T11:42:48.009Z</time></trkpt><trkpt lat="42.9478919" lon="13.3487229"><ele>609.6666666666666</ele><time>2026-04-11T11:42:50.003Z</time></trkpt><trkpt lat="42.9479588" lon="13.3486564"><ele>609.0</ele><time>2026-04-11T11:42:51.996Z</time></trkpt><trkpt lat="42.9480124" lon="13.3485721"><ele>608.3333333333334</ele><time>2026-04-11T11:42:54.008Z</time></trkpt><trkpt lat="42.9480567" lon="13.3484864"><ele>607.6666666666667</ele><time>2026-04-11T11:42:55.968Z</time></trkpt><trkpt lat="42.9480983" lon="13.3484014"><ele>607.0</ele><time>2026-04-11T11:42:58.017Z</time></trkpt><trkpt lat="42.9481416" lon="13.3483292"><ele>607.0</ele><time>2026-04-11T11:43:00.024Z</time></trkpt><trkpt lat="42.9481969" lon="13.3482445"><ele>607.0</ele><time>2026-04-11T11:43:02.994Z</time></trkpt><trkpt lat="42.9482572" lon="13.348148"><ele>607.0</ele><time>2026-04-11T11:43:05.967Z</time></trkpt><trkpt lat="42.9482952" lon="13.3480453"><ele>607.0</ele><time>2026-04-11T11:43:08.99Z</time></trkpt><trkpt lat="42.9482916" lon="13.3479226"><ele>607.0</ele><time>2026-04-11T11:43:11.979Z</time></trkpt><trkpt lat="42.9482947" lon="13.3477775"><ele>606.8571428571428</ele><time>2026-04-11T11:43:13.968Z</time></trkpt><trkpt lat="42.9482961" lon="13.3476767"><ele>606.7142857142857</ele><time>2026-04-11T11:43:14.975Z</time></trkpt><trkpt lat="42.9482913" lon="13.3475751"><ele>606.5714285714286</ele><time>2026-04-11T11:43:15.982Z</time></trkpt><trkpt lat="42.9482932" lon="13.3474787"><ele>606.4285714285713</ele><time>2026-04-11T11:43:16.976Z</time></trkpt><trkpt lat="42.9483009" lon="13.3473892"><ele>606.2857142857142</ele><time>2026-04-11T11:43:17.991Z</time></trkpt><trkpt lat="42.9483234" lon="13.3472991"><ele>606.1428571428571</ele><time>2026-04-11T11:43:18.993Z</time></trkpt><trkpt lat="42.9483672" lon="13.347197"><ele>606.0</ele><time>2026-04-11T11:43:19.986Z</time></trkpt><trkpt lat="42.9484153" lon="13.3470976"><ele>606.0</ele><time>2026-04-11T11:43:20.982Z</time></trkpt><trkpt lat="42.9484646" lon="13.3469832"><ele>606.0</ele><time>2026-04-11T11:43:21.972Z</time></trkpt><trkpt lat="42.9485043" lon="13.3468616"><ele>606.0</ele><time>2026-04-11T11:43:23.007Z</time></trkpt><trkpt lat="42.9485446" lon="13.3467467"><ele>606.0</ele><time>2026-04-11T11:43:23.993Z</time></trkpt><trkpt lat="42.9485793" lon="13.3466461"><ele>606.0</ele><time>2026-04-11T11:43:24.985Z</time></trkpt><trkpt lat="42.9486281" lon="13.3465724"><ele>606.0</ele><time>2026-04-11T11:43:25.998Z</time></trkpt><trkpt lat="42.94869" lon="13.3465038"><ele>606.0</ele><time>2026-04-11T11:43:27.023Z</time></trkpt><trkpt lat="42.9487412" lon="13.3464264"><ele>606.0</ele><time>2026-04-11T11:43:28.002Z</time></trkpt><trkpt lat="42.9487782" lon="13.3463373"><ele>606.0</ele><time>2026-04-11T11:43:29Z</time></trkpt><trkpt lat="42.9487964" lon="13.3462355"><ele>606.0</ele><time>2026-04-11T11:43:30.007Z</time></trkpt><trkpt lat="42.9488074" lon="13.3461081"><ele>606.0</ele><time>2026-04-11T11:43:31.01Z</time></trkpt><trkpt lat="42.9488207" lon="13.345969"><ele>606.0</ele><time>2026-04-11T11:43:31.998Z</time></trkpt><trkpt lat="42.948841" lon="13.3458291"><ele>602.4</ele><time>2026-04-11T11:43:32.985Z</time></trkpt><trkpt lat="42.9488652" lon="13.3456847"><ele>598.8</ele><time>2026-04-11T11:43:33.987Z</time></trkpt><trkpt lat="42.9488874" lon="13.3455551"><ele>595.1999999999999</ele><time>2026-04-11T11:43:34.992Z</time></trkpt><trkpt lat="42.9488838" lon="13.345436"><ele>591.6</ele><time>2026-04-11T11:43:35.977Z</time></trkpt><trkpt lat="42.9488611" lon="13.3453112"><ele>588.0</ele><time>2026-04-11T11:43:37.002Z</time></trkpt><trkpt lat="42.9488234" lon="13.3452145"><ele>582.8</ele><time>2026-04-11T11:43:38.009Z</time></trkpt><trkpt lat="42.9487682" lon="13.3451379"><ele>577.5999999999999</ele><time>2026-04-11T11:43:39.003Z</time></trkpt><trkpt lat="42.9487048" lon="13.3450795"><ele>572.4000000000001</ele><time>2026-04-11T11:43:40.005Z</time></trkpt><trkpt lat="42.9485915" lon="13.3450422"><ele>567.2</ele><time>2026-04-11T11:43:42Z</time></trkpt><trkpt lat="42.9485324" lon="13.3450945"><ele>562.0</ele><time>2026-04-11T11:43:43.999Z</time></trkpt><trkpt lat="42.9486123" lon="13.3452519"><ele>562.0</ele><time>2026-04-11T11:43:46.011Z</time></trkpt><trkpt lat="42.9486555" lon="13.3453356"><ele>562.0</ele><time>2026-04-11T11:43:46.996Z</time></trkpt><trkpt lat="42.9486828" lon="13.345434"><ele>562.0</ele><time>2026-04-11T11:43:47.987Z</time></trkpt><trkpt lat="42.9486695" lon="13.3455471"><ele>562.0</ele><time>2026-04-11T11:43:48.985Z</time></trkpt><trkpt lat="42.948606" lon="13.3456722"><ele>562.0</ele><time>2026-04-11T11:43:49.984Z</time></trkpt><trkpt lat="42.9485342" lon="13.3458325"><ele>565.0</ele><time>2026-04-11T11:43:50.992Z</time></trkpt><trkpt lat="42.948465" lon="13.3459705"><ele>568.0</ele><time>2026-04-11T11:43:51.992Z</time></trkpt><trkpt lat="42.948396" lon="13.3460972"><ele>571.0</ele><time>2026-04-11T11:43:52.994Z</time></trkpt><trkpt lat="42.9483222" lon="13.3462006"><ele>574.0</ele><time>2026-04-11T11:43:53.983Z</time></trkpt><trkpt lat="42.9482311" lon="13.346316"><ele>577.5</ele><time>2026-04-11T11:43:54.989Z</time></trkpt><trkpt lat="42.948137" lon="13.3464065"><ele>581.0</ele><time>2026-04-11T11:43:55.973Z</time></trkpt><trkpt lat="42.9480481" lon="13.3464872"><ele>584.5</ele><time>2026-04-11T11:43:56.992Z</time></trkpt><trkpt lat="42.9479463" lon="13.3465544"><ele>588.0</ele><time>2026-04-11T11:43:58.031Z</time></trkpt><trkpt lat="42.947819" lon="13.3465919"><ele>588.0</ele><time>2026-04-11T11:43:58.974Z</time></trkpt><trkpt lat="42.9476901" lon="13.3466055"><ele>588.0</ele><time>2026-04-11T11:44:00.035Z</time></trkpt><trkpt lat="42.9475649" lon="13.3465816"><ele>588.0</ele><time>2026-04-11T11:44:00.969Z</time></trkpt><trkpt lat="42.9474344" lon="13.3465199"><ele>588.0</ele><time>2026-04-11T11:44:01.986Z</time></trkpt><trkpt lat="42.9473275" lon="13.3464611"><ele>583.75</ele><time>2026-04-11T11:44:02.99Z</time></trkpt><trkpt lat="42.9472203" lon="13.3463924"><ele>579.5</ele><time>2026-04-11T11:44:03.991Z</time></trkpt><trkpt lat="42.9471073" lon="13.3463319"><ele>575.25</ele><time>2026-04-11T11:44:04.98Z</time></trkpt><trkpt lat="42.9469997" lon="13.3462752"><ele>571.0</ele><time>2026-04-11T11:44:05.984Z</time></trkpt><trkpt lat="42.9468967" lon="13.3462517"><ele>566.8</ele><time>2026-04-11T11:44:06.985Z</time></trkpt><trkpt lat="42.9468064" lon="13.3462293"><ele>562.6</ele><time>2026-04-11T11:44:07.993Z</time></trkpt><trkpt lat="42.9467389" lon="13.3462166"><ele>558.4</ele><time>2026-04-11T11:44:08.995Z</time></trkpt><trkpt lat="42.9466586" lon="13.3461165"><ele>554.2</ele><time>2026-04-11T11:44:11.023Z</time></trkpt><trkpt lat="42.9466741" lon="13.3459797"><ele>550.0</ele><time>2026-04-11T11:44:12.973Z</time></trkpt><trkpt lat="42.9467738" lon="13.3459693"><ele>550.0</ele><time>2026-04-11T11:44:14.974Z</time></trkpt><trkpt lat="42.946892" lon="13.3459761"><ele>550.0</ele><time>2026-04-11T11:44:15.978Z</time></trkpt><trkpt lat="42.9470443" lon="13.3459944"><ele>550.0</ele><time>2026-04-11T11:44:16.998Z</time></trkpt><trkpt lat="42.9471572" lon="13.3460078"><ele>550.0</ele><time>2026-04-11T11:44:17.985Z</time></trkpt><trkpt lat="42.9472608" lon="13.3460056"><ele>550.0</ele><time>2026-04-11T11:44:18.976Z</time></trkpt><trkpt lat="42.947392" lon="13.3459784"><ele>550.0</ele><time>2026-04-11T11:44:20.981Z</time></trkpt><trkpt lat="42.9474495" lon="13.3459111"><ele>550.0</ele><time>2026-04-11T11:44:21.965Z</time></trkpt><trkpt lat="42.947518" lon="13.3458425"><ele>550.0</ele><time>2026-04-11T11:44:22.981Z</time></trkpt><trkpt lat="42.9475159" lon="13.3456664"><ele>550.0</ele><time>2026-04-11T11:44:24.983Z</time></trkpt><trkpt lat="42.9474629" lon="13.3455447"><ele>549.0</ele><time>2026-04-11T11:44:26.003Z</time></trkpt><trkpt lat="42.9473825" lon="13.3454206"><ele>548.0</ele><time>2026-04-11T11:44:26.968Z</time></trkpt><trkpt lat="42.9473124" lon="13.3453158"><ele>547.0</ele><time>2026-04-11T11:44:27.997Z</time></trkpt><trkpt lat="42.9472516" lon="13.3452218"><ele>546.0</ele><time>2026-04-11T11:44:28.993Z</time></trkpt><trkpt lat="42.9472151" lon="13.345125"><ele>545.0</ele><time>2026-04-11T11:44:29.977Z</time></trkpt><trkpt lat="42.9472324" lon="13.3449177"><ele>545.0</ele><time>2026-04-11T11:44:31.996Z</time></trkpt><trkpt lat="42.9472717" lon="13.3447678"><ele>545.0</ele><time>2026-04-11T11:44:32.99Z</time></trkpt><trkpt lat="42.9473253" lon="13.3446226"><ele>545.0</ele><time>2026-04-11T11:44:33.975Z</time></trkpt><trkpt lat="42.947392" lon="13.3444533"><ele>545.0</ele><time>2026-04-11T11:44:34.993Z</time></trkpt><trkpt lat="42.9474401" lon="13.3443105"><ele>544.4</ele><time>2026-04-11T11:44:35.966Z</time></trkpt><trkpt lat="42.9474896" lon="13.3441814"><ele>543.8</ele><time>2026-04-11T11:44:36.981Z</time></trkpt><trkpt lat="42.9475462" lon="13.3440831"><ele>543.2</ele><time>2026-04-11T11:44:37.985Z</time></trkpt><trkpt lat="42.9476201" lon="13.3439959"><ele>542.6</ele><time>2026-04-11T11:44:38.984Z</time></trkpt><trkpt lat="42.9476892" lon="13.3439311"><ele>542.0</ele><time>2026-04-11T11:44:39.978Z</time></trkpt><trkpt lat="42.9477588" lon="13.3438668"><ele>537.2</ele><time>2026-04-11T11:44:40.977Z</time></trkpt><trkpt lat="42.9478159" lon="13.3437968"><ele>532.4000000000001</ele><time>2026-04-11T11:44:41.993Z</time></trkpt><trkpt lat="42.9478786" lon="13.34373"><ele>527.5999999999999</ele><time>2026-04-11T11:44:43.003Z</time></trkpt><trkpt lat="42.9479566" lon="13.3436592"><ele>522.8</ele><time>2026-04-11T11:44:43.986Z</time></trkpt><trkpt lat="42.9480465" lon="13.3436019"><ele>518.0</ele><time>2026-04-11T11:44:45.018Z</time></trkpt><trkpt lat="42.9481493" lon="13.3435425"><ele>518.0</ele><time>2026-04-11T11:44:46.022Z</time></trkpt><trkpt lat="42.9482779" lon="13.3434948"><ele>518.0</ele><time>2026-04-11T11:44:46.985Z</time></trkpt><trkpt lat="42.9484202" lon="13.3434602"><ele>518.0</ele><time>2026-04-11T11:44:47.988Z</time></trkpt><trkpt lat="42.9485684" lon="13.3434177"><ele>518.0</ele><time>2026-04-11T11:44:48.998Z</time></trkpt><trkpt lat="42.9487239" lon="13.3433672"><ele>515.6666666666666</ele><time>2026-04-11T11:44:49.991Z</time></trkpt><trkpt lat="42.948878" lon="13.3433228"><ele>513.3333333333334</ele><time>2026-04-11T11:44:50.998Z</time></trkpt><trkpt lat="42.9490336" lon="13.3432793"><ele>511.0</ele><time>2026-04-11T11:44:51.994Z</time></trkpt><trkpt lat="42.9491855" lon="13.3432355"><ele>510.5</ele><time>2026-04-11T11:44:52.995Z</time></trkpt><trkpt lat="42.9493277" lon="13.3431928"><ele>510.0</ele><time>2026-04-11T11:44:53.99Z</time></trkpt><trkpt lat="42.9494623" lon="13.3431513"><ele>509.5</ele><time>2026-04-11T11:44:54.974Z</time></trkpt><trkpt lat="42.9495999" lon="13.3431114"><ele>509.0</ele><time>2026-04-11T11:44:55.963Z</time></trkpt><trkpt lat="42.9497506" lon="13.343067"><ele>506.3333333333333</ele><time>2026-04-11T11:44:57.014Z</time></trkpt><trkpt lat="42.9499202" lon="13.3430164"><ele>503.66666666666663</ele><time>2026-04-11T11:44:57.984Z</time></trkpt><trkpt lat="42.9501055" lon="13.3429639"><ele>501.0</ele><time>2026-04-11T11:44:59Z</time></trkpt><trkpt lat="42.9502806" lon="13.342919"><ele>501.0</ele><time>2026-04-11T11:44:59.944Z</time></trkpt><trkpt lat="42.950445" lon="13.3428737"><ele>501.0</ele><time>2026-04-11T11:45:01Z</time></trkpt><trkpt lat="42.9506014" lon="13.3428627"><ele>501.0</ele><time>2026-04-11T11:45:01.976Z</time></trkpt><trkpt lat="42.9507481" lon="13.3428898"><ele>500.0</ele><time>2026-04-11T11:45:03.003Z</time></trkpt><trkpt lat="42.9509156" lon="13.3429483"><ele>499.0</ele><time>2026-04-11T11:45:03.981Z</time></trkpt><trkpt lat="42.9511003" lon="13.3430404"><ele>498.0</ele><time>2026-04-11T11:45:05.01Z</time></trkpt><trkpt lat="42.9513097" lon="13.3431284"><ele>498.0</ele><time>2026-04-11T11:45:05.979Z</time></trkpt><trkpt lat="42.9515299" lon="13.3432151"><ele>498.0</ele><time>2026-04-11T11:45:06.963Z</time></trkpt><trkpt lat="42.9517256" lon="13.3432687"><ele>498.0</ele><time>2026-04-11T11:45:07.975Z</time></trkpt><trkpt lat="42.9519057" lon="13.3433119"><ele>495.66666666666663</ele><time>2026-04-11T11:45:08.967Z</time></trkpt><trkpt lat="42.952085" lon="13.3433683"><ele>493.3333333333333</ele><time>2026-04-11T11:45:10.011Z</time></trkpt><trkpt lat="42.9522651" lon="13.3434308"><ele>491.0</ele><time>2026-04-11T11:45:11.008Z</time></trkpt><trkpt lat="42.9524376" lon="13.3434595"><ele>490.3333333333333</ele><time>2026-04-11T11:45:12.012Z</time></trkpt><trkpt lat="42.9525965" lon="13.3434786"><ele>489.66666666666663</ele><time>2026-04-11T11:45:13.011Z</time></trkpt><trkpt lat="42.9527551" lon="13.3434611"><ele>489.0</ele><time>2026-04-11T11:45:13.998Z</time></trkpt><trkpt lat="42.9529166" lon="13.3434117"><ele>489.0</ele><time>2026-04-11T11:45:15.005Z</time></trkpt><trkpt lat="42.9530799" lon="13.3433656"><ele>489.0</ele><time>2026-04-11T11:45:16.067Z</time></trkpt><trkpt lat="42.9532259" lon="13.3432944"><ele>489.0</ele><time>2026-04-11T11:45:17.027Z</time></trkpt><trkpt lat="42.953359" lon="13.3432235"><ele>485.66666666666663</ele><time>2026-04-11T11:45:18.005Z</time></trkpt><trkpt lat="42.9535189" lon="13.343171"><ele>482.3333333333333</ele><time>2026-04-11T11:45:19.001Z</time></trkpt><trkpt lat="42.9537084" lon="13.3431304"><ele>479.0</ele><time>2026-04-11T11:45:19.993Z</time></trkpt><trkpt lat="42.9539134" lon="13.3430739"><ele>479.0</ele><time>2026-04-11T11:45:20.991Z</time></trkpt><trkpt lat="42.9541438" lon="13.3430364"><ele>479.0</ele><time>2026-04-11T11:45:21.994Z</time></trkpt><trkpt lat="42.9544007" lon="13.3430624"><ele>476.66666666666663</ele><time>2026-04-11T11:45:22.996Z</time></trkpt><trkpt lat="42.9546115" lon="13.3430866"><ele>474.33333333333337</ele><time>2026-04-11T11:45:23.996Z</time></trkpt><trkpt lat="42.9547838" lon="13.3431055"><ele>472.0</ele><time>2026-04-11T11:45:24.993Z</time></trkpt><trkpt lat="42.9549272" lon="13.3430802"><ele>472.0</ele><time>2026-04-11T11:45:26Z</time></trkpt><trkpt lat="42.9550431" lon="13.3430647"><ele>472.00000000000006</ele><time>2026-04-11T11:45:26.969Z</time></trkpt><trkpt lat="42.9551225" lon="13.3430196"><ele>472.00000000000006</ele><time>2026-04-11T11:45:28.003Z</time></trkpt><trkpt lat="42.9551818" lon="13.3429457"><ele>472.0</ele><time>2026-04-11T11:45:29.007Z</time></trkpt><trkpt lat="42.9552185" lon="13.3428074"><ele>472.0</ele><time>2026-04-11T11:45:30Z</time></trkpt><trkpt lat="42.9552075" lon="13.3426241"><ele>472.0</ele><time>2026-04-11T11:45:31Z</time></trkpt><trkpt lat="42.9551646" lon="13.3424338"><ele>472.0</ele><time>2026-04-11T11:45:31.959Z</time></trkpt><trkpt lat="42.9551547" lon="13.3422392"><ele>472.0</ele><time>2026-04-11T11:45:33.043Z</time></trkpt><trkpt lat="42.9551547" lon="13.342031"><ele>472.0</ele><time>2026-04-11T11:45:34.009Z</time></trkpt><trkpt lat="42.9552293" lon="13.3418363"><ele>474.40000000000003</ele><time>2026-04-11T11:45:35Z</time></trkpt><trkpt lat="42.9552986" lon="13.3416902"><ele>476.80000000000007</ele><time>2026-04-11T11:45:35.98Z</time></trkpt><trkpt lat="42.9553727" lon="13.3416004"><ele>479.2</ele><time>2026-04-11T11:45:36.983Z</time></trkpt><trkpt lat="42.9554715" lon="13.3415751"><ele>481.6</ele><time>2026-04-11T11:45:38Z</time></trkpt><trkpt lat="42.9555765" lon="13.3415759"><ele>484.0</ele><time>2026-04-11T11:45:38.998Z</time></trkpt><trkpt lat="42.9557054" lon="13.3416048"><ele>484.0</ele><time>2026-04-11T11:45:40.001Z</time></trkpt><trkpt lat="42.9558609" lon="13.3416653"><ele>484.0</ele><time>2026-04-11T11:45:41.006Z</time></trkpt><trkpt lat="42.9560337" lon="13.3416888"><ele>484.0</ele><time>2026-04-11T11:45:41.963Z</time></trkpt><trkpt lat="42.9562037" lon="13.3417121"><ele>486.0</ele><time>2026-04-11T11:45:42.983Z</time></trkpt><trkpt lat="42.9563481" lon="13.3417194"><ele>488.0</ele><time>2026-04-11T11:45:44.006Z</time></trkpt><trkpt lat="42.9564718" lon="13.3417373"><ele>490.0</ele><time>2026-04-11T11:45:44.991Z</time></trkpt><trkpt lat="42.9565748" lon="13.3418176"><ele>492.0</ele><time>2026-04-11T11:45:46.002Z</time></trkpt><trkpt lat="42.9566902" lon="13.3419068"><ele>494.0</ele><time>2026-04-11T11:45:46.967Z</time></trkpt><trkpt lat="42.95681" lon="13.3420878"><ele>496.0</ele><time>2026-04-11T11:45:48.016Z</time></trkpt><trkpt lat="42.9569168" lon="13.342287"><ele>498.0</ele><time>2026-04-11T11:45:48.993Z</time></trkpt><trkpt lat="42.95704" lon="13.3425079"><ele>491.0</ele><time>2026-04-11T11:45:50.053Z</time></trkpt><trkpt lat="42.9571655" lon="13.3427012"><ele>484.0</ele><time>2026-04-11T11:45:51.001Z</time></trkpt><trkpt lat="42.9572913" lon="13.3428657"><ele>477.0</ele><time>2026-04-11T11:45:51.974Z</time></trkpt><trkpt lat="42.9574366" lon="13.3430105"><ele>473.33333333333337</ele><time>2026-04-11T11:45:52.993Z</time></trkpt><trkpt lat="42.9576062" lon="13.3431412"><ele>469.6666666666667</ele><time>2026-04-11T11:45:53.994Z</time></trkpt><trkpt lat="42.957764" lon="13.3432569"><ele>466.0</ele><time>2026-04-11T11:45:54.996Z</time></trkpt><trkpt lat="42.9578866" lon="13.3433495"><ele>466.0</ele><time>2026-04-11T11:45:56.052Z</time></trkpt><trkpt lat="42.9580674" lon="13.3434682"><ele>466.0</ele><time>2026-04-11T11:45:57.978Z</time></trkpt><trkpt lat="42.958131" lon="13.3435068"><ele>466.0</ele><time>2026-04-11T11:45:58.977Z</time></trkpt><trkpt lat="42.9582376" lon="13.3435664"><ele>466.0</ele><time>2026-04-11T11:46:00.987Z</time></trkpt><trkpt lat="42.9583335" lon="13.3436345"><ele>467.6666666666667</ele><time>2026-04-11T11:46:02.991Z</time></trkpt><trkpt lat="42.9584214" lon="13.343695"><ele>469.33333333333337</ele><time>2026-04-11T11:46:05.006Z</time></trkpt><trkpt lat="42.9584913" lon="13.3437408"><ele>471.0</ele><time>2026-04-11T11:46:06.968Z</time></trkpt><trkpt lat="42.958577" lon="13.3437019"><ele>472.66666666666663</ele><time>2026-04-11T11:46:10.022Z</time></trkpt><trkpt lat="42.9586486" lon="13.3436875"><ele>474.3333333333333</ele><time>2026-04-11T11:46:13.001Z</time></trkpt><trkpt lat="42.9587376" lon="13.3437517"><ele>476.0</ele><time>2026-04-11T11:46:15.004Z</time></trkpt><trkpt lat="42.9588074" lon="13.3437918"><ele>476.0</ele><time>2026-04-11T11:46:16.017Z</time></trkpt><trkpt lat="42.9589173" lon="13.3438379"><ele>476.0</ele><time>2026-04-11T11:46:16.959Z</time></trkpt><trkpt lat="42.9590236" lon="13.3438638"><ele>476.0</ele><time>2026-04-11T11:46:17.994Z</time></trkpt><trkpt lat="42.9591216" lon="13.343871"><ele>476.0</ele><time>2026-04-11T11:46:19.006Z</time></trkpt><trkpt lat="42.9592194" lon="13.3438719"><ele>476.0</ele><time>2026-04-11T11:46:20.006Z</time></trkpt><trkpt lat="42.9592975" lon="13.3438326"><ele>475.6</ele><time>2026-04-11T11:46:20.984Z</time></trkpt><trkpt lat="42.9593634" lon="13.3437787"><ele>475.20000000000005</ele><time>2026-04-11T11:46:21.962Z</time></trkpt><trkpt lat="42.9594352" lon="13.3436965"><ele>474.79999999999995</ele><time>2026-04-11T11:46:22.991Z</time></trkpt><trkpt lat="42.9595037" lon="13.3436023"><ele>474.4</ele><time>2026-04-11T11:46:23.989Z</time></trkpt><trkpt lat="42.9595662" lon="13.3434994"><ele>474.0</ele><time>2026-04-11T11:46:25.006Z</time></trkpt><trkpt lat="42.9596186" lon="13.3434001"><ele>474.0</ele><time>2026-04-11T11:46:25.986Z</time></trkpt><trkpt lat="42.9596621" lon="13.343315"><ele>474.0</ele><time>2026-04-11T11:46:26.961Z</time></trkpt><trkpt lat="42.9597023" lon="13.3432369"><ele>474.0</ele><time>2026-04-11T11:46:27.981Z</time></trkpt><trkpt lat="42.9597496" lon="13.3431087"><ele>474.0</ele><time>2026-04-11T11:46:29.966Z</time></trkpt><trkpt lat="42.9598202" lon="13.3430563"><ele>474.0</ele><time>2026-04-11T11:46:31.957Z</time></trkpt><trkpt lat="42.9599016" lon="13.3430921"><ele>474.0</ele><time>2026-04-11T11:46:34.005Z</time></trkpt><trkpt lat="42.9599684" lon="13.343132"><ele>472.6</ele><time>2026-04-11T11:46:36.019Z</time></trkpt><trkpt lat="42.9600657" lon="13.3432149"><ele>471.2</ele><time>2026-04-11T11:46:39.999Z</time></trkpt><trkpt lat="42.9601354" lon="13.3432525"><ele>469.80000000000007</ele><time>2026-04-11T11:46:41.973Z</time></trkpt><trkpt lat="42.9602069" lon="13.3432833"><ele>468.40000000000003</ele><time>2026-04-11T11:46:44.038Z</time></trkpt><trkpt lat="42.9602853" lon="13.3433307"><ele>467.0</ele><time>2026-04-11T11:46:45.965Z</time></trkpt><trkpt lat="42.9604329" lon="13.3433339"><ele>466.99999999999994</ele><time>2026-04-11T11:46:50.984Z</time></trkpt><trkpt lat="42.9605037" lon="13.3433162"><ele>467.0</ele><time>2026-04-11T11:46:52.983Z</time></trkpt><trkpt lat="42.9605799" lon="13.3433145"><ele>466.99999999999994</ele><time>2026-04-11T11:46:55.008Z</time></trkpt><trkpt lat="42.9606472" lon="13.3433073"><ele>466.99999999999994</ele><time>2026-04-11T11:46:56.974Z</time></trkpt><trkpt lat="42.9607196" lon="13.3433"><ele>467.0</ele><time>2026-04-11T11:46:58.99Z</time></trkpt><trkpt lat="42.9607955" lon="13.3432899"><ele>466.99999999999994</ele><time>2026-04-11T11:47:00.985Z</time></trkpt><trkpt lat="42.9608598" lon="13.3432275"><ele>466.99999999999994</ele><time>2026-04-11T11:47:03.002Z</time></trkpt><trkpt lat="42.9608772" lon="13.343107"><ele>468.0</ele><time>2026-04-11T11:47:05.017Z</time></trkpt><trkpt lat="42.9609173" lon="13.3430312"><ele>469.00000000000006</ele><time>2026-04-11T11:47:07.014Z</time></trkpt><trkpt lat="42.9610492" lon="13.3429276"><ele>470.00000000000006</ele><time>2026-04-11T11:47:11.986Z</time></trkpt><trkpt lat="42.9611203" lon="13.3429237"><ele>471.0</ele><time>2026-04-11T11:47:13.986Z</time></trkpt><trkpt lat="42.9611903" lon="13.3429984"><ele>472.0</ele><time>2026-04-11T11:47:16.013Z</time></trkpt><trkpt lat="42.9612955" lon="13.3430675"><ele>472.00000000000006</ele><time>2026-04-11T11:47:17.985Z</time></trkpt><trkpt lat="42.9613608" lon="13.3430824"><ele>472.0</ele><time>2026-04-11T11:47:19.001Z</time></trkpt><trkpt lat="42.9614252" lon="13.3430855"><ele>472.0</ele><time>2026-04-11T11:47:19.994Z</time></trkpt><trkpt lat="42.9614997" lon="13.3430804"><ele>472.0</ele><time>2026-04-11T11:47:20.995Z</time></trkpt><trkpt lat="42.9615742" lon="13.3430793"><ele>472.00000000000006</ele><time>2026-04-11T11:47:22.009Z</time></trkpt><trkpt lat="42.9616511" lon="13.3431019"><ele>472.0</ele><time>2026-04-11T11:47:22.986Z</time></trkpt><trkpt lat="42.9617457" lon="13.3431429"><ele>472.8</ele><time>2026-04-11T11:47:23.971Z</time></trkpt><trkpt lat="42.9618384" lon="13.3431883"><ele>473.6</ele><time>2026-04-11T11:47:24.982Z</time></trkpt><trkpt lat="42.9619298" lon="13.3432308"><ele>474.40000000000003</ele><time>2026-04-11T11:47:25.983Z</time></trkpt><trkpt lat="42.9619922" lon="13.3432127"><ele>475.20000000000005</ele><time>2026-04-11T11:47:26.991Z</time></trkpt><trkpt lat="42.9621028" lon="13.3432084"><ele>476.0</ele><time>2026-04-11T11:47:28.958Z</time></trkpt><trkpt lat="42.9622383" lon="13.3431978"><ele>475.99999999999994</ele><time>2026-04-11T11:47:30.953Z</time></trkpt><trkpt lat="42.962321" lon="13.3431815"><ele>476.0</ele><time>2026-04-11T11:47:31.973Z</time></trkpt><trkpt lat="42.9624027" lon="13.3431415"><ele>476.0</ele><time>2026-04-11T11:47:32.992Z</time></trkpt><trkpt lat="42.9624681" lon="13.3431325"><ele>476.0</ele><time>2026-04-11T11:47:33.959Z</time></trkpt><trkpt lat="42.9625751" lon="13.3430788"><ele>475.99999999999994</ele><time>2026-04-11T11:47:35.988Z</time></trkpt><trkpt lat="42.9626339" lon="13.3430282"><ele>476.0</ele><time>2026-04-11T11:47:36.995Z</time></trkpt><trkpt lat="42.9626879" lon="13.3429526"><ele>478.20000000000005</ele><time>2026-04-11T11:47:37.986Z</time></trkpt><trkpt lat="42.9627509" lon="13.3428423"><ele>480.40000000000003</ele><time>2026-04-11T11:47:39.014Z</time></trkpt><trkpt lat="42.9628034" lon="13.3427694"><ele>482.6</ele><time>2026-04-11T11:47:40.02Z</time></trkpt><trkpt lat="42.962932" lon="13.3427003"><ele>484.8</ele><time>2026-04-11T11:47:41.998Z</time></trkpt><trkpt lat="42.9630241" lon="13.3427042"><ele>487.0</ele><time>2026-04-11T11:47:43.047Z</time></trkpt><trkpt lat="42.9630866" lon="13.3426903"><ele>487.0</ele><time>2026-04-11T11:47:43.976Z</time></trkpt><trkpt lat="42.9631778" lon="13.3426465"><ele>487.00000000000006</ele><time>2026-04-11T11:47:45.95Z</time></trkpt><trkpt lat="42.9632774" lon="13.3426156"><ele>487.00000000000006</ele><time>2026-04-11T11:47:47.995Z</time></trkpt><trkpt lat="42.9633864" lon="13.342639"><ele>487.0</ele><time>2026-04-11T11:47:49.999Z</time></trkpt><trkpt lat="42.9634854" lon="13.3426871"><ele>487.0</ele><time>2026-04-11T11:47:51.993Z</time></trkpt><trkpt lat="42.9635808" lon="13.3426051"><ele>486.33333333333337</ele><time>2026-04-11T11:47:54.008Z</time></trkpt><trkpt lat="42.9636328" lon="13.3425372"><ele>485.6666666666667</ele><time>2026-04-11T11:47:54.991Z</time></trkpt><trkpt lat="42.9636918" lon="13.3424604"><ele>485.0</ele><time>2026-04-11T11:47:56.005Z</time></trkpt><trkpt lat="42.9637384" lon="13.3423951"><ele>484.33333333333337</ele><time>2026-04-11T11:47:57.016Z</time></trkpt><trkpt lat="42.9638142" lon="13.342283"><ele>483.6666666666667</ele><time>2026-04-11T11:47:58.994Z</time></trkpt><trkpt lat="42.9638712" lon="13.3421994"><ele>483.0</ele><time>2026-04-11T11:47:59.975Z</time></trkpt><trkpt lat="42.9639361" lon="13.3421028"><ele>484.75</ele><time>2026-04-11T11:48:01.002Z</time></trkpt><trkpt lat="42.9640244" lon="13.3419772"><ele>486.5</ele><time>2026-04-11T11:48:01.994Z</time></trkpt><trkpt lat="42.964122" lon="13.3418419"><ele>488.25</ele><time>2026-04-11T11:48:02.997Z</time></trkpt><trkpt lat="42.964223" lon="13.3417313"><ele>490.0</ele><time>2026-04-11T11:48:03.974Z</time></trkpt><trkpt lat="42.9643378" lon="13.3416268"><ele>490.0</ele><time>2026-04-11T11:48:04.953Z</time></trkpt><trkpt lat="42.964455" lon="13.3415216"><ele>490.0</ele><time>2026-04-11T11:48:05.961Z</time></trkpt><trkpt lat="42.9645823" lon="13.3414458"><ele>490.0</ele><time>2026-04-11T11:48:06.971Z</time></trkpt><trkpt lat="42.9647026" lon="13.3413855"><ele>490.0</ele><time>2026-04-11T11:48:08.009Z</time></trkpt><trkpt lat="42.9648268" lon="13.3413436"><ele>489.6666666666667</ele><time>2026-04-11T11:48:08.989Z</time></trkpt><trkpt lat="42.9649445" lon="13.3413121"><ele>489.33333333333337</ele><time>2026-04-11T11:48:10.005Z</time></trkpt><trkpt lat="42.9650416" lon="13.3412897"><ele>489.0</ele><time>2026-04-11T11:48:11.046Z</time></trkpt><trkpt lat="42.9651226" lon="13.3412696"><ele>488.66666666666663</ele><time>2026-04-11T11:48:11.973Z</time></trkpt><trkpt lat="42.9651889" lon="13.3412474"><ele>488.3333333333333</ele><time>2026-04-11T11:48:13.01Z</time></trkpt><trkpt lat="42.965249" lon="13.3411967"><ele>488.0</ele><time>2026-04-11T11:48:13.986Z</time></trkpt><trkpt lat="42.9652988" lon="13.3411157"><ele>487.99999999999994</ele><time>2026-04-11T11:48:14.993Z</time></trkpt><trkpt lat="42.9653445" lon="13.3410448"><ele>488.0</ele><time>2026-04-11T11:48:16.001Z</time></trkpt><trkpt lat="42.9653871" lon="13.3409788"><ele>487.99999999999994</ele><time>2026-04-11T11:48:17.045Z</time></trkpt><trkpt lat="42.9654234" lon="13.3408934"><ele>487.99999999999994</ele><time>2026-04-11T11:48:18.002Z</time></trkpt><trkpt lat="42.96545" lon="13.340792"><ele>488.0</ele><time>2026-04-11T11:48:18.984Z</time></trkpt><trkpt lat="42.9654712" lon="13.3406825"><ele>487.99999999999994</ele><time>2026-04-11T11:48:19.987Z</time></trkpt><trkpt lat="42.9654789" lon="13.3405922"><ele>487.99999999999994</ele><time>2026-04-11T11:48:20.981Z</time></trkpt><trkpt lat="42.9655001" lon="13.3405013"><ele>487.75</ele><time>2026-04-11T11:48:23.007Z</time></trkpt><trkpt lat="42.9655909" lon="13.3404383"><ele>487.5</ele><time>2026-04-11T11:48:24.999Z</time></trkpt><trkpt lat="42.9656765" lon="13.3404183"><ele>487.25</ele><time>2026-04-11T11:48:25.985Z</time></trkpt><trkpt lat="42.965814" lon="13.3403821"><ele>487.0</ele><time>2026-04-11T11:48:26.961Z</time></trkpt><trkpt lat="42.9659342" lon="13.3403395"><ele>487.00000000000006</ele><time>2026-04-11T11:48:27.994Z</time></trkpt><trkpt lat="42.9660195" lon="13.3403196"><ele>487.0</ele><time>2026-04-11T11:48:29.001Z</time></trkpt><trkpt lat="42.9660854" lon="13.3403233"><ele>487.0</ele><time>2026-04-11T11:48:29.958Z</time></trkpt><trkpt lat="42.96617" lon="13.3402983"><ele>487.0</ele><time>2026-04-11T11:48:31.01Z</time></trkpt><trkpt lat="42.9662504" lon="13.3402516"><ele>487.00000000000006</ele><time>2026-04-11T11:48:31.981Z</time></trkpt><trkpt lat="42.9663166" lon="13.3401757"><ele>487.0</ele><time>2026-04-11T11:48:33.054Z</time></trkpt><trkpt lat="42.966425" lon="13.3400973"><ele>487.0</ele><time>2026-04-11T11:48:33.994Z</time></trkpt><trkpt lat="42.9665593" lon="13.3400227"><ele>487.0</ele><time>2026-04-11T11:48:34.983Z</time></trkpt><trkpt lat="42.9666863" lon="13.340009"><ele>487.0</ele><time>2026-04-11T11:48:35.979Z</time></trkpt><trkpt lat="42.9667904" lon="13.3399883"><ele>487.0</ele><time>2026-04-11T11:48:37.007Z</time></trkpt><trkpt lat="42.9668702" lon="13.3399329"><ele>485.0</ele><time>2026-04-11T11:48:37.952Z</time></trkpt><trkpt lat="42.9669528" lon="13.339876"><ele>483.00000000000006</ele><time>2026-04-11T11:48:39.048Z</time></trkpt><trkpt lat="42.9670282" lon="13.3397806"><ele>481.00000000000006</ele><time>2026-04-11T11:48:40.027Z</time></trkpt><trkpt lat="42.9671029" lon="13.339698"><ele>479.0</ele><time>2026-04-11T11:48:41.01Z</time></trkpt><trkpt lat="42.9671932" lon="13.3396373"><ele>477.0</ele><time>2026-04-11T11:48:42.009Z</time></trkpt><trkpt lat="42.9672916" lon="13.3395901"><ele>478.0</ele><time>2026-04-11T11:48:42.99Z</time></trkpt><trkpt lat="42.9673935" lon="13.3395358"><ele>479.0</ele><time>2026-04-11T11:48:43.997Z</time></trkpt><trkpt lat="42.9674977" lon="13.3394799"><ele>480.0</ele><time>2026-04-11T11:48:44.955Z</time></trkpt><trkpt lat="42.9675562" lon="13.339422"><ele>481.0</ele><time>2026-04-11T11:48:46.003Z</time></trkpt><trkpt lat="42.9676146" lon="13.3393795"><ele>482.0</ele><time>2026-04-11T11:48:46.986Z</time></trkpt><trkpt lat="42.9676794" lon="13.339299"><ele>483.0</ele><time>2026-04-11T11:48:47.991Z</time></trkpt><trkpt lat="42.967735" lon="13.3391939"><ele>483.0</ele><time>2026-04-11T11:48:49.017Z</time></trkpt><trkpt lat="42.9677893" lon="13.3391015"><ele>483.0</ele><time>2026-04-11T11:48:49.976Z</time></trkpt><trkpt lat="42.9678461" lon="13.3390169"><ele>483.0</ele><time>2026-04-11T11:48:51.048Z</time></trkpt><trkpt lat="42.9678959" lon="13.3389437"><ele>483.0</ele><time>2026-04-11T11:48:52.012Z</time></trkpt><trkpt lat="42.9679424" lon="13.3388806"><ele>483.0</ele><time>2026-04-11T11:48:53.012Z</time></trkpt><trkpt lat="42.9679945" lon="13.3388211"><ele>483.0</ele><time>2026-04-11T11:48:53.989Z</time></trkpt><trkpt lat="42.9680786" lon="13.3387052"><ele>486.3333333333333</ele><time>2026-04-11T11:48:55.97Z</time></trkpt><trkpt lat="42.9681417" lon="13.3386019"><ele>489.66666666666663</ele><time>2026-04-11T11:48:57.962Z</time></trkpt><trkpt lat="42.9681834" lon="13.3385164"><ele>493.0</ele><time>2026-04-11T11:49:00.043Z</time></trkpt><trkpt lat="42.9682268" lon="13.338412"><ele>496.3333333333333</ele><time>2026-04-11T11:49:02.961Z</time></trkpt><trkpt lat="42.9682732" lon="13.3383141"><ele>499.66666666666663</ele><time>2026-04-11T11:49:05.989Z</time></trkpt><trkpt lat="42.9683181" lon="13.3382149"><ele>503.0</ele><time>2026-04-11T11:49:08.999Z</time></trkpt><trkpt lat="42.9683593" lon="13.3381414"><ele>498.49999999999994</ele><time>2026-04-11T11:49:11.031Z</time></trkpt><trkpt lat="42.9684128" lon="13.3380651"><ele>494.0</ele><time>2026-04-11T11:49:14.997Z</time></trkpt><trkpt lat="42.9684762" lon="13.338004"><ele>489.5</ele><time>2026-04-11T11:49:18.997Z</time></trkpt><trkpt lat="42.9685235" lon="13.3379372"><ele>485.0</ele><time>2026-04-11T11:49:34.019Z</time></trkpt><trkpt lat="42.9685701" lon="13.3378728"><ele>480.49999999999994</ele><time>2026-04-11T11:49:45.953Z</time></trkpt><trkpt lat="42.9686369" lon="13.3378073"><ele>476.0</ele><time>2026-04-11T11:49:48.957Z</time></trkpt><trkpt lat="42.9687129" lon="13.3377461"><ele>476.0</ele><time>2026-04-11T11:49:51.028Z</time></trkpt><trkpt lat="42.9687689" lon="13.3377028"><ele>476.0</ele><time>2026-04-11T11:49:52.954Z</time></trkpt><trkpt lat="42.9688388" lon="13.3376285"><ele>476.0</ele><time>2026-04-11T11:49:56.992Z</time></trkpt><trkpt lat="42.968886" lon="13.3375341"><ele>476.0</ele><time>2026-04-11T11:49:59.011Z</time></trkpt><trkpt lat="42.9689261" lon="13.3374505"><ele>476.0</ele><time>2026-04-11T11:50:00.037Z</time></trkpt><trkpt lat="42.968965" lon="13.3373782"><ele>476.0</ele><time>2026-04-11T11:50:01.008Z</time></trkpt><trkpt lat="42.9690024" lon="13.3373051"><ele>476.0</ele><time>2026-04-11T11:50:01.999Z</time></trkpt><trkpt lat="42.9690562" lon="13.3371757"><ele>476.0</ele><time>2026-04-11T11:50:03.986Z</time></trkpt><trkpt lat="42.9691032" lon="13.3370403"><ele>476.0</ele><time>2026-04-11T11:50:05.952Z</time></trkpt><trkpt lat="42.9691362" lon="13.3369369"><ele>476.0</ele><time>2026-04-11T11:50:07.973Z</time></trkpt><trkpt lat="42.9691787" lon="13.3368496"><ele>476.0</ele><time>2026-04-11T11:50:09.998Z</time></trkpt><trkpt lat="42.9692316" lon="13.3367361"><ele>476.0</ele><time>2026-04-11T11:50:11.96Z</time></trkpt><trkpt lat="42.9692804" lon="13.3366265"><ele>475.99999999999994</ele><time>2026-04-11T11:50:14.014Z</time></trkpt><trkpt lat="42.9692949" lon="13.3365256"><ele>476.0</ele><time>2026-04-11T11:50:16.948Z</time></trkpt><trkpt lat="42.9692838" lon="13.3364188"><ele>476.0</ele><time>2026-04-11T11:50:19.972Z</time></trkpt><trkpt lat="42.9692773" lon="13.3363132"><ele>476.0</ele><time>2026-04-11T11:50:23.984Z</time></trkpt><trkpt lat="42.9693193" lon="13.3362232"><ele>475.99999999999994</ele><time>2026-04-11T11:50:30.988Z</time></trkpt><trkpt lat="42.9693551" lon="13.3361117"><ele>476.0</ele><time>2026-04-11T11:50:32.975Z</time></trkpt><trkpt lat="42.969387" lon="13.336006"><ele>476.66666666666663</ele><time>2026-04-11T11:50:34.98Z</time></trkpt><trkpt lat="42.9694448" lon="13.3359072"><ele>477.3333333333333</ele><time>2026-04-11T11:51:08.011Z</time></trkpt><trkpt lat="42.9694793" lon="13.3358317"><ele>478.0</ele><time>2026-04-11T11:51:08.99Z</time></trkpt><trkpt lat="42.9694923" lon="13.3357324"><ele>478.66666666666663</ele><time>2026-04-11T11:51:13.981Z</time></trkpt><trkpt lat="42.9694919" lon="13.3355972"><ele>479.3333333333333</ele><time>2026-04-11T11:51:16.985Z</time></trkpt><trkpt lat="42.9694929" lon="13.3355057"><ele>480.0</ele><time>2026-04-11T11:51:19.004Z</time></trkpt><trkpt lat="42.9695045" lon="13.3353512"><ele>480.3333333333333</ele><time>2026-04-11T11:51:22.996Z</time></trkpt><trkpt lat="42.9694938" lon="13.3352284"><ele>480.66666666666663</ele><time>2026-04-11T11:51:25.986Z</time></trkpt><trkpt lat="42.9694876" lon="13.3351242"><ele>481.0</ele><time>2026-04-11T11:51:27.999Z</time></trkpt><trkpt lat="42.9694726" lon="13.3349881"><ele>481.3333333333333</ele><time>2026-04-11T11:51:30.007Z</time></trkpt><trkpt lat="42.9694693" lon="13.334857"><ele>481.66666666666663</ele><time>2026-04-11T11:51:32.014Z</time></trkpt><trkpt lat="42.9694756" lon="13.3347611"><ele>482.0</ele><time>2026-04-11T11:51:33.966Z</time></trkpt><trkpt lat="42.9695351" lon="13.3347135"><ele>481.99999999999994</ele><time>2026-04-11T11:51:40.966Z</time></trkpt><trkpt lat="42.9695783" lon="13.3348058"><ele>482.0</ele><time>2026-04-11T11:51:43.008Z</time></trkpt><trkpt lat="42.9696215" lon="13.3348966"><ele>482.0</ele><time>2026-04-11T11:51:46.013Z</time></trkpt><trkpt lat="42.9696787" lon="13.3349921"><ele>482.0</ele><time>2026-04-11T11:51:48.975Z</time></trkpt><trkpt lat="42.9697784" lon="13.3350464"><ele>481.99999999999994</ele><time>2026-04-11T11:51:50.988Z</time></trkpt><trkpt lat="42.9698481" lon="13.3350863"><ele>482.0</ele><time>2026-04-11T11:51:51.962Z</time></trkpt><trkpt lat="42.9699384" lon="13.3351675"><ele>481.8333333333333</ele><time>2026-04-11T11:51:54.003Z</time></trkpt><trkpt lat="42.9700399" lon="13.3351925"><ele>481.66666666666663</ele><time>2026-04-11T11:51:56.025Z</time></trkpt><trkpt lat="42.9701365" lon="13.3351832"><ele>481.5</ele><time>2026-04-11T11:51:58.009Z</time></trkpt><trkpt lat="42.970207" lon="13.3351789"><ele>481.33333333333337</ele><time>2026-04-11T11:51:58.995Z</time></trkpt><trkpt lat="42.9702911" lon="13.3351825"><ele>481.1666666666667</ele><time>2026-04-11T11:52:00.018Z</time></trkpt><trkpt lat="42.9703849" lon="13.3351858"><ele>481.0</ele><time>2026-04-11T11:52:01.014Z</time></trkpt><trkpt lat="42.9704877" lon="13.3352056"><ele>481.00000000000006</ele><time>2026-04-11T11:52:01.971Z</time></trkpt><trkpt lat="42.9705951" lon="13.3352324"><ele>481.0</ele><time>2026-04-11T11:52:02.995Z</time></trkpt><trkpt lat="42.9706924" lon="13.3352594"><ele>481.0</ele><time>2026-04-11T11:52:03.998Z</time></trkpt><trkpt lat="42.9707699" lon="13.3352759"><ele>481.0</ele><time>2026-04-11T11:52:04.995Z</time></trkpt><trkpt lat="42.9708402" lon="13.335296"><ele>481.00000000000006</ele><time>2026-04-11T11:52:06.019Z</time></trkpt><trkpt lat="42.9709087" lon="13.3353153"><ele>481.0</ele><time>2026-04-11T11:52:06.948Z</time></trkpt><trkpt lat="42.9709786" lon="13.3353358"><ele>484.33333333333337</ele><time>2026-04-11T11:52:08.009Z</time></trkpt><trkpt lat="42.9710477" lon="13.3353563"><ele>487.6666666666667</ele><time>2026-04-11T11:52:09.002Z</time></trkpt><trkpt lat="42.971136" lon="13.3353317"><ele>491.0</ele><time>2026-04-11T11:52:10.999Z</time></trkpt><trkpt lat="42.9711856" lon="13.3352485"><ele>494.33333333333337</ele><time>2026-04-11T11:52:12.976Z</time></trkpt><trkpt lat="42.9712518" lon="13.3351067"><ele>497.6666666666667</ele><time>2026-04-11T11:52:15.049Z</time></trkpt><trkpt lat="42.9712942" lon="13.335043"><ele>501.0</ele><time>2026-04-11T11:52:16.017Z</time></trkpt><trkpt lat="42.9713702" lon="13.3349327"><ele>501.0</ele><time>2026-04-11T11:52:18.004Z</time></trkpt><trkpt lat="42.9714371" lon="13.334809"><ele>501.0</ele><time>2026-04-11T11:52:20.002Z</time></trkpt><trkpt lat="42.9714711" lon="13.3347223"><ele>501.0</ele><time>2026-04-11T11:52:21.011Z</time></trkpt><trkpt lat="42.9715188" lon="13.3346248"><ele>501.0</ele><time>2026-04-11T11:52:22.959Z</time></trkpt><trkpt lat="42.9715909" lon="13.3346132"><ele>501.0</ele><time>2026-04-11T11:52:26.005Z</time></trkpt><trkpt lat="42.9715783" lon="13.3347076"><ele>501.0</ele><time>2026-04-11T11:52:27.987Z</time></trkpt><trkpt lat="42.9715275" lon="13.3348369"><ele>501.0</ele><time>2026-04-11T11:52:30.002Z</time></trkpt><trkpt lat="42.9714776" lon="13.3349479"><ele>501.0</ele><time>2026-04-11T11:52:31.988Z</time></trkpt><trkpt lat="42.9714501" lon="13.3350795"><ele>501.0</ele><time>2026-04-11T11:52:34.012Z</time></trkpt><trkpt lat="42.9714684" lon="13.3351702"><ele>501.0</ele><time>2026-04-11T11:52:35.965Z</time></trkpt><trkpt lat="42.9715443" lon="13.3351693"><ele>501.0</ele><time>2026-04-11T11:52:39.97Z</time></trkpt><trkpt lat="42.9715985" lon="13.3349242"><ele>501.0</ele><time>2026-04-11T11:52:42.018Z</time></trkpt><trkpt lat="42.9716422" lon="13.3347544"><ele>501.0</ele><time>2026-04-11T11:52:42.982Z</time></trkpt><trkpt lat="42.9716977" lon="13.3345656"><ele>501.0</ele><time>2026-04-11T11:52:43.948Z</time></trkpt><trkpt lat="42.9717566" lon="13.3343818"><ele>501.0</ele><time>2026-04-11T11:52:44.952Z</time></trkpt><trkpt lat="42.9718244" lon="13.3341926"><ele>503.66666666666663</ele><time>2026-04-11T11:52:45.972Z</time></trkpt><trkpt lat="42.9719343" lon="13.3339906"><ele>506.3333333333333</ele><time>2026-04-11T11:52:46.955Z</time></trkpt><trkpt lat="42.9720533" lon="13.3337671"><ele>509.0</ele><time>2026-04-11T11:52:47.978Z</time></trkpt><trkpt lat="42.9721558" lon="13.3335343"><ele>509.0</ele><time>2026-04-11T11:52:48.981Z</time></trkpt><trkpt lat="42.972238" lon="13.3333272"><ele>509.0</ele><time>2026-04-11T11:52:50.002Z</time></trkpt><trkpt lat="42.9723065" lon="13.3331361"><ele>509.0</ele><time>2026-04-11T11:52:50.985Z</time></trkpt><trkpt lat="42.9723719" lon="13.3329864"><ele>507.25</ele><time>2026-04-11T11:52:51.968Z</time></trkpt><trkpt lat="42.9724404" lon="13.3328733"><ele>505.5</ele><time>2026-04-11T11:52:52.987Z</time></trkpt><trkpt lat="42.9725792" lon="13.3328449"><ele>503.75</ele><time>2026-04-11T11:52:53.999Z</time></trkpt><trkpt lat="42.9727615" lon="13.3328029"><ele>502.0</ele><time>2026-04-11T11:52:54.991Z</time></trkpt><trkpt lat="42.972927" lon="13.3327256"><ele>502.0</ele><time>2026-04-11T11:52:55.986Z</time></trkpt><trkpt lat="42.9730815" lon="13.33261"><ele>502.0</ele><time>2026-04-11T11:52:56.984Z</time></trkpt><trkpt lat="42.9732224" lon="13.3324862"><ele>502.0</ele><time>2026-04-11T11:52:57.99Z</time></trkpt><trkpt lat="42.9733369" lon="13.3323969"><ele>504.8</ele><time>2026-04-11T11:52:58.981Z</time></trkpt><trkpt lat="42.9734348" lon="13.3323418"><ele>507.6</ele><time>2026-04-11T11:52:59.994Z</time></trkpt><trkpt lat="42.9735308" lon="13.3323199"><ele>510.40000000000003</ele><time>2026-04-11T11:53:00.967Z</time></trkpt><trkpt lat="42.9736318" lon="13.3323643"><ele>513.2</ele><time>2026-04-11T11:53:01.975Z</time></trkpt><trkpt lat="42.9737431" lon="13.3324033"><ele>516.0</ele><time>2026-04-11T11:53:02.959Z</time></trkpt><trkpt lat="42.9738559" lon="13.3324741"><ele>516.0</ele><time>2026-04-11T11:53:03.99Z</time></trkpt><trkpt lat="42.973951" lon="13.3325455"><ele>516.0</ele><time>2026-04-11T11:53:04.997Z</time></trkpt><trkpt lat="42.9740517" lon="13.3326331"><ele>516.0</ele><time>2026-04-11T11:53:06.001Z</time></trkpt><trkpt lat="42.974123" lon="13.332617"><ele>516.0</ele><time>2026-04-11T11:53:06.995Z</time></trkpt><trkpt lat="42.9741849" lon="13.3324908"><ele>516.0</ele><time>2026-04-11T11:53:08.961Z</time></trkpt><trkpt lat="42.9741572" lon="13.3323792"><ele>516.0</ele><time>2026-04-11T11:53:09.983Z</time></trkpt><trkpt lat="42.9741029" lon="13.3322742"><ele>516.0</ele><time>2026-04-11T11:53:11.016Z</time></trkpt><trkpt lat="42.9739873" lon="13.3321793"><ele>516.0</ele><time>2026-04-11T11:53:12.006Z</time></trkpt><trkpt lat="42.9738952" lon="13.3321137"><ele>516.0</ele><time>2026-04-11T11:53:13.007Z</time></trkpt><trkpt lat="42.9738524" lon="13.3320375"><ele>516.0</ele><time>2026-04-11T11:53:13.945Z</time></trkpt><trkpt lat="42.9738626" lon="13.3319251"><ele>515.75</ele><time>2026-04-11T11:53:14.988Z</time></trkpt><trkpt lat="42.9739341" lon="13.3318055"><ele>515.5</ele><time>2026-04-11T11:53:15.971Z</time></trkpt><trkpt lat="42.9740361" lon="13.3316891"><ele>515.25</ele><time>2026-04-11T11:53:16.965Z</time></trkpt><trkpt lat="42.9741649" lon="13.331518"><ele>515.0</ele><time>2026-04-11T11:53:18.003Z</time></trkpt><trkpt lat="42.974326" lon="13.331301"><ele>515.0</ele><time>2026-04-11T11:53:18.988Z</time></trkpt><trkpt lat="42.9744785" lon="13.3311198"><ele>515.0</ele><time>2026-04-11T11:53:19.99Z</time></trkpt><trkpt lat="42.9746295" lon="13.3309524"><ele>515.0</ele><time>2026-04-11T11:53:20.975Z</time></trkpt><trkpt lat="42.9747767" lon="13.3308281"><ele>515.0</ele><time>2026-04-11T11:53:21.97Z</time></trkpt><trkpt lat="42.9749283" lon="13.3307088"><ele>515.0</ele><time>2026-04-11T11:53:22.975Z</time></trkpt><trkpt lat="42.9750839" lon="13.3305732"><ele>515.0</ele><time>2026-04-11T11:53:23.981Z</time></trkpt><trkpt lat="42.9752192" lon="13.3304435"><ele>512.6666666666666</ele><time>2026-04-11T11:53:24.958Z</time></trkpt><trkpt lat="42.975337" lon="13.3303303"><ele>510.33333333333337</ele><time>2026-04-11T11:53:25.976Z</time></trkpt><trkpt lat="42.9754678" lon="13.3302024"><ele>508.0</ele><time>2026-04-11T11:53:27.007Z</time></trkpt><trkpt lat="42.9756176" lon="13.3301144"><ele>508.0</ele><time>2026-04-11T11:53:27.98Z</time></trkpt><trkpt lat="42.9757367" lon="13.330043"><ele>508.0</ele><time>2026-04-11T11:53:28.978Z</time></trkpt><trkpt lat="42.9758607" lon="13.3299927"><ele>508.0</ele><time>2026-04-11T11:53:29.975Z</time></trkpt><trkpt lat="42.9759774" lon="13.3299609"><ele>508.0</ele><time>2026-04-11T11:53:30.992Z</time></trkpt><trkpt lat="42.976087" lon="13.3298629"><ele>508.6666666666667</ele><time>2026-04-11T11:53:31.982Z</time></trkpt><trkpt lat="42.9762219" lon="13.329832"><ele>509.33333333333337</ele><time>2026-04-11T11:53:32.981Z</time></trkpt><trkpt lat="42.976286" lon="13.3296399"><ele>510.0</ele><time>2026-04-11T11:53:33.991Z</time></trkpt><trkpt lat="42.9763623" lon="13.3294168"><ele>510.0</ele><time>2026-04-11T11:53:35.016Z</time></trkpt><trkpt lat="42.9764769" lon="13.3292132"><ele>510.0</ele><time>2026-04-11T11:53:35.99Z</time></trkpt><trkpt lat="42.9766284" lon="13.3290517"><ele>510.0</ele><time>2026-04-11T11:53:36.987Z</time></trkpt><trkpt lat="42.9767578" lon="13.3289185"><ele>510.0</ele><time>2026-04-11T11:53:37.986Z</time></trkpt><trkpt lat="42.9768933" lon="13.3287639"><ele>510.0</ele><time>2026-04-11T11:53:38.956Z</time></trkpt><trkpt lat="42.9770475" lon="13.3286381"><ele>510.0</ele><time>2026-04-11T11:53:39.976Z</time></trkpt><trkpt lat="42.9772199" lon="13.3285541"><ele>510.0</ele><time>2026-04-11T11:53:40.976Z</time></trkpt><trkpt lat="42.9774001" lon="13.328455"><ele>510.0</ele><time>2026-04-11T11:53:41.989Z</time></trkpt><trkpt lat="42.9775763" lon="13.3283513"><ele>510.0</ele><time>2026-04-11T11:53:43Z</time></trkpt><trkpt lat="42.977738" lon="13.3282699"><ele>510.66666666666663</ele><time>2026-04-11T11:53:43.962Z</time></trkpt><trkpt lat="42.977865" lon="13.3281422"><ele>511.3333333333333</ele><time>2026-04-11T11:53:45.004Z</time></trkpt><trkpt lat="42.9779951" lon="13.3280198"><ele>512.0</ele><time>2026-04-11T11:53:45.986Z</time></trkpt><trkpt lat="42.9781113" lon="13.3279147"><ele>512.0</ele><time>2026-04-11T11:53:46.967Z</time></trkpt><trkpt lat="42.9782088" lon="13.3278377"><ele>512.0</ele><time>2026-04-11T11:53:47.99Z</time></trkpt><trkpt lat="42.9782946" lon="13.3277514"><ele>512.0</ele><time>2026-04-11T11:53:48.98Z</time></trkpt><trkpt lat="42.9783828" lon="13.3276733"><ele>512.0</ele><time>2026-04-11T11:53:49.98Z</time></trkpt><trkpt lat="42.978457" lon="13.3275646"><ele>512.0</ele><time>2026-04-11T11:53:50.988Z</time></trkpt><trkpt lat="42.978512" lon="13.3274053"><ele>514.0</ele><time>2026-04-11T11:53:51.981Z</time></trkpt><trkpt lat="42.9785674" lon="13.3272468"><ele>516.0</ele><time>2026-04-11T11:53:52.963Z</time></trkpt><trkpt lat="42.9786242" lon="13.3271046"><ele>518.0</ele><time>2026-04-11T11:53:53.956Z</time></trkpt><trkpt lat="42.9787026" lon="13.3269582"><ele>520.0</ele><time>2026-04-11T11:53:54.968Z</time></trkpt><trkpt lat="42.9788207" lon="13.3267964"><ele>520.0</ele><time>2026-04-11T11:53:55.951Z</time></trkpt><trkpt lat="42.9789523" lon="13.3266436"><ele>520.0</ele><time>2026-04-11T11:53:56.964Z</time></trkpt><trkpt lat="42.9791154" lon="13.3264915"><ele>520.0</ele><time>2026-04-11T11:53:57.987Z</time></trkpt><trkpt lat="42.9792983" lon="13.3264038"><ele>520.3333333333334</ele><time>2026-04-11T11:53:58.951Z</time></trkpt><trkpt lat="42.9794788" lon="13.3262841"><ele>520.6666666666666</ele><time>2026-04-11T11:53:59.954Z</time></trkpt><trkpt lat="42.9796246" lon="13.3261477"><ele>521.0</ele><time>2026-04-11T11:54:00.976Z</time></trkpt><trkpt lat="42.9797569" lon="13.3260121"><ele>521.0</ele><time>2026-04-11T11:54:01.968Z</time></trkpt><trkpt lat="42.9798766" lon="13.3258868"><ele>521.0</ele><time>2026-04-11T11:54:02.958Z</time></trkpt><trkpt lat="42.9800014" lon="13.3257846"><ele>521.0</ele><time>2026-04-11T11:54:03.948Z</time></trkpt><trkpt lat="42.9801585" lon="13.3256993"><ele>520.3333333333333</ele><time>2026-04-11T11:54:04.989Z</time></trkpt><trkpt lat="42.9803182" lon="13.3256198"><ele>519.6666666666666</ele><time>2026-04-11T11:54:05.975Z</time></trkpt><trkpt lat="42.9804919" lon="13.3255057"><ele>519.0</ele><time>2026-04-11T11:54:06.979Z</time></trkpt><trkpt lat="42.98066" lon="13.3254322"><ele>519.0</ele><time>2026-04-11T11:54:07.963Z</time></trkpt><trkpt lat="42.9808091" lon="13.3253531"><ele>519.0</ele><time>2026-04-11T11:54:08.965Z</time></trkpt><trkpt lat="42.9809687" lon="13.3252593"><ele>519.0</ele><time>2026-04-11T11:54:09.965Z</time></trkpt><trkpt lat="42.9811233" lon="13.3251945"><ele>520.3333333333334</ele><time>2026-04-11T11:54:10.97Z</time></trkpt><trkpt lat="42.9812843" lon="13.3252055"><ele>521.6666666666667</ele><time>2026-04-11T11:54:12.007Z</time></trkpt><trkpt lat="42.9814328" lon="13.3251996"><ele>523.0</ele><time>2026-04-11T11:54:12.987Z</time></trkpt><trkpt lat="42.9815723" lon="13.3251466"><ele>523.75</ele><time>2026-04-11T11:54:13.961Z</time></trkpt><trkpt lat="42.9817072" lon="13.3250385"><ele>524.5</ele><time>2026-04-11T11:54:14.992Z</time></trkpt><trkpt lat="42.9818187" lon="13.3249077"><ele>525.25</ele><time>2026-04-11T11:54:15.99Z</time></trkpt><trkpt lat="42.9819107" lon="13.3247655"><ele>526.0</ele><time>2026-04-11T11:54:16.996Z</time></trkpt><trkpt lat="42.9819929" lon="13.3246562"><ele>526.0</ele><time>2026-04-11T11:54:17.964Z</time></trkpt><trkpt lat="42.9820755" lon="13.3245545"><ele>526.0</ele><time>2026-04-11T11:54:18.961Z</time></trkpt><trkpt lat="42.9821828" lon="13.3245032"><ele>526.0</ele><time>2026-04-11T11:54:19.978Z</time></trkpt><trkpt lat="42.9823021" lon="13.3244799"><ele>526.0</ele><time>2026-04-11T11:54:20.999Z</time></trkpt><trkpt lat="42.9824397" lon="13.3244917"><ele>528.0</ele><time>2026-04-11T11:54:22.011Z</time></trkpt><trkpt lat="42.9825969" lon="13.3245402"><ele>530.0</ele><time>2026-04-11T11:54:23.03Z</time></trkpt><trkpt lat="42.9827458" lon="13.3245433"><ele>532.0</ele><time>2026-04-11T11:54:23.959Z</time></trkpt><trkpt lat="42.9828628" lon="13.3245166"><ele>534.0</ele><time>2026-04-11T11:54:24.99Z</time></trkpt><trkpt lat="42.9829547" lon="13.3244179"><ele>534.0</ele><time>2026-04-11T11:54:25.945Z</time></trkpt><trkpt lat="42.9830512" lon="13.3243096"><ele>534.0</ele><time>2026-04-11T11:54:26.978Z</time></trkpt><trkpt lat="42.9831084" lon="13.3241591"><ele>534.0</ele><time>2026-04-11T11:54:28.003Z</time></trkpt><trkpt lat="42.983167" lon="13.3240154"><ele>534.0</ele><time>2026-04-11T11:54:28.947Z</time></trkpt><trkpt lat="42.9832265" lon="13.3239026"><ele>534.0</ele><time>2026-04-11T11:54:29.996Z</time></trkpt><trkpt lat="42.983294" lon="13.3238251"><ele>534.0</ele><time>2026-04-11T11:54:31.001Z</time></trkpt><trkpt lat="42.9833952" lon="13.3238016"><ele>534.0</ele><time>2026-04-11T11:54:31.992Z</time></trkpt><trkpt lat="42.9835479" lon="13.3238115"><ele>534.0</ele><time>2026-04-11T11:54:33Z</time></trkpt><trkpt lat="42.9836924" lon="13.3238233"><ele>534.0</ele><time>2026-04-11T11:54:33.972Z</time></trkpt><trkpt lat="42.9838219" lon="13.3237964"><ele>534.0</ele><time>2026-04-11T11:54:34.987Z</time></trkpt><trkpt lat="42.9839297" lon="13.3237637"><ele>534.0</ele><time>2026-04-11T11:54:35.988Z</time></trkpt><trkpt lat="42.9840193" lon="13.3237223"><ele>534.0</ele><time>2026-04-11T11:54:36.986Z</time></trkpt><trkpt lat="42.9840883" lon="13.3236791"><ele>534.0</ele><time>2026-04-11T11:54:37.987Z</time></trkpt><trkpt lat="42.9841475" lon="13.3235534"><ele>534.0</ele><time>2026-04-11T11:54:39.99Z</time></trkpt><trkpt lat="42.9841102" lon="13.3234267"><ele>534.0</ele><time>2026-04-11T11:54:40.963Z</time></trkpt><trkpt lat="42.9840887" lon="13.3233182"><ele>534.0</ele><time>2026-04-11T11:54:41.988Z</time></trkpt><trkpt lat="42.9840601" lon="13.3231766"><ele>534.0</ele><time>2026-04-11T11:54:42.983Z</time></trkpt><trkpt lat="42.9840317" lon="13.323056"><ele>534.0</ele><time>2026-04-11T11:54:43.957Z</time></trkpt><trkpt lat="42.9840114" lon="13.3229409"><ele>534.0</ele><time>2026-04-11T11:54:44.98Z</time></trkpt><trkpt lat="42.9839944" lon="13.3228392"><ele>534.0</ele><time>2026-04-11T11:54:45.991Z</time></trkpt><trkpt lat="42.9839854" lon="13.3227318"><ele>534.0</ele><time>2026-04-11T11:54:46.991Z</time></trkpt><trkpt lat="42.9839769" lon="13.3225508"><ele>534.0</ele><time>2026-04-11T11:54:48.974Z</time></trkpt><trkpt lat="42.9840176" lon="13.3224592"><ele>534.0</ele><time>2026-04-11T11:54:49.99Z</time></trkpt><trkpt lat="42.9840669" lon="13.322357"><ele>534.0</ele><time>2026-04-11T11:54:50.99Z</time></trkpt><trkpt lat="42.9841465" lon="13.3222604"><ele>534.0</ele><time>2026-04-11T11:54:51.964Z</time></trkpt><trkpt lat="42.9842387" lon="13.3221643"><ele>534.0</ele><time>2026-04-11T11:54:52.968Z</time></trkpt><trkpt lat="42.9843323" lon="13.3220672"><ele>534.0</ele><time>2026-04-11T11:54:53.968Z</time></trkpt><trkpt lat="42.9844312" lon="13.321942"><ele>536.75</ele><time>2026-04-11T11:54:54.998Z</time></trkpt><trkpt lat="42.9845266" lon="13.3218068"><ele>539.5</ele><time>2026-04-11T11:54:55.949Z</time></trkpt><trkpt lat="42.98459" lon="13.3216814"><ele>542.25</ele><time>2026-04-11T11:54:57.017Z</time></trkpt><trkpt lat="42.9846247" lon="13.3215457"><ele>545.0</ele><time>2026-04-11T11:54:57.975Z</time></trkpt><trkpt lat="42.9846316" lon="13.3213951"><ele>546.0</ele><time>2026-04-11T11:54:58.991Z</time></trkpt><trkpt lat="42.9846348" lon="13.3212608"><ele>547.0</ele><time>2026-04-11T11:55:00.004Z</time></trkpt><trkpt lat="42.9846516" lon="13.3211247"><ele>548.0</ele><time>2026-04-11T11:55:01.003Z</time></trkpt><trkpt lat="42.9847045" lon="13.3209787"><ele>549.0</ele><time>2026-04-11T11:55:01.979Z</time></trkpt><trkpt lat="42.9848086" lon="13.320831"><ele>549.0</ele><time>2026-04-11T11:55:02.94Z</time></trkpt><trkpt lat="42.9849412" lon="13.3207876"><ele>549.0</ele><time>2026-04-11T11:55:03.984Z</time></trkpt><trkpt lat="42.9850705" lon="13.3207374"><ele>549.0</ele><time>2026-04-11T11:55:04.96Z</time></trkpt><trkpt lat="42.9851934" lon="13.320695"><ele>549.0</ele><time>2026-04-11T11:55:05.967Z</time></trkpt><trkpt lat="42.9853065" lon="13.3206354"><ele>554.6666666666666</ele><time>2026-04-11T11:55:07Z</time></trkpt><trkpt lat="42.9854119" lon="13.3205396"><ele>560.3333333333333</ele><time>2026-04-11T11:55:07.998Z</time></trkpt><trkpt lat="42.9855357" lon="13.3203968"><ele>566.0</ele><time>2026-04-11T11:55:09.008Z</time></trkpt><trkpt lat="42.9856678" lon="13.3202195"><ele>566.0</ele><time>2026-04-11T11:55:09.961Z</time></trkpt><trkpt lat="42.9858055" lon="13.3200222"><ele>566.0</ele><time>2026-04-11T11:55:10.962Z</time></trkpt><trkpt lat="42.985929" lon="13.3198201"><ele>566.0</ele><time>2026-04-11T11:55:11.988Z</time></trkpt><trkpt lat="42.9860412" lon="13.3196405"><ele>565.3333333333333</ele><time>2026-04-11T11:55:12.965Z</time></trkpt><trkpt lat="42.9861631" lon="13.319462"><ele>564.6666666666666</ele><time>2026-04-11T11:55:13.997Z</time></trkpt><trkpt lat="42.9862556" lon="13.3192915"><ele>564.0</ele><time>2026-04-11T11:55:14.972Z</time></trkpt><trkpt lat="42.9863606" lon="13.3191265"><ele>564.0</ele><time>2026-04-11T11:55:15.964Z</time></trkpt><trkpt lat="42.9864227" lon="13.3189767"><ele>564.0</ele><time>2026-04-11T11:55:16.999Z</time></trkpt><trkpt lat="42.9864759" lon="13.3188515"><ele>564.0</ele><time>2026-04-11T11:55:17.979Z</time></trkpt><trkpt lat="42.9865283" lon="13.3187356"><ele>564.0</ele><time>2026-04-11T11:55:18.986Z</time></trkpt><trkpt lat="42.9865768" lon="13.3186427"><ele>564.0</ele><time>2026-04-11T11:55:20.01Z</time></trkpt><trkpt lat="42.9866514" lon="13.3185641"><ele>566.75</ele><time>2026-04-11T11:55:20.997Z</time></trkpt><trkpt lat="42.9867712" lon="13.3185239"><ele>569.5</ele><time>2026-04-11T11:55:21.987Z</time></trkpt><trkpt lat="42.9868903" lon="13.3184606"><ele>572.25</ele><time>2026-04-11T11:55:22.983Z</time></trkpt><trkpt lat="42.9869914" lon="13.3183646"><ele>575.0</ele><time>2026-04-11T11:55:23.958Z</time></trkpt><trkpt lat="42.9870971" lon="13.3182253"><ele>577.3333333333333</ele><time>2026-04-11T11:55:24.941Z</time></trkpt><trkpt lat="42.987213" lon="13.3180647"><ele>579.6666666666666</ele><time>2026-04-11T11:55:25.982Z</time></trkpt><trkpt lat="42.9873207" lon="13.317893"><ele>582.0</ele><time>2026-04-11T11:55:26.975Z</time></trkpt><trkpt lat="42.9874315" lon="13.3177403"><ele>584.75</ele><time>2026-04-11T11:55:28.008Z</time></trkpt><trkpt lat="42.9875223" lon="13.3176064"><ele>587.5</ele><time>2026-04-11T11:55:28.95Z</time></trkpt><trkpt lat="42.9876094" lon="13.3174826"><ele>590.25</ele><time>2026-04-11T11:55:29.988Z</time></trkpt><trkpt lat="42.9877276" lon="13.3173938"><ele>593.0</ele><time>2026-04-11T11:55:31.005Z</time></trkpt><trkpt lat="42.987855" lon="13.3173015"><ele>592.5</ele><time>2026-04-11T11:55:32Z</time></trkpt><trkpt lat="42.9879853" lon="13.3171794"><ele>592.0</ele><time>2026-04-11T11:55:33Z</time></trkpt><trkpt lat="42.9880812" lon="13.3170679"><ele>591.5</ele><time>2026-04-11T11:55:34.031Z</time></trkpt><trkpt lat="42.9881684" lon="13.3169881"><ele>591.0</ele><time>2026-04-11T11:55:35.015Z</time></trkpt><trkpt lat="42.9882369" lon="13.3169449"><ele>595.75</ele><time>2026-04-11T11:55:36.008Z</time></trkpt><trkpt lat="42.9883741" lon="13.3169883"><ele>600.5</ele><time>2026-04-11T11:55:37.977Z</time></trkpt><trkpt lat="42.9884949" lon="13.3170093"><ele>605.25</ele><time>2026-04-11T11:55:38.981Z</time></trkpt><trkpt lat="42.9886505" lon="13.3170264"><ele>610.0</ele><time>2026-04-11T11:55:39.99Z</time></trkpt><trkpt lat="42.9887739" lon="13.3170234"><ele>610.0</ele><time>2026-04-11T11:55:41.003Z</time></trkpt><trkpt lat="42.9888725" lon="13.3170469"><ele>610.0</ele><time>2026-04-11T11:55:42.006Z</time></trkpt><trkpt lat="42.9889692" lon="13.3170903"><ele>610.0</ele><time>2026-04-11T11:55:42.97Z</time></trkpt><trkpt lat="42.9890158" lon="13.3171695"><ele>610.0</ele><time>2026-04-11T11:55:44.002Z</time></trkpt><trkpt lat="42.9890527" lon="13.3172745"><ele>610.0</ele><time>2026-04-11T11:55:44.972Z</time></trkpt><trkpt lat="42.9890362" lon="13.3174107"><ele>609.75</ele><time>2026-04-11T11:55:45.978Z</time></trkpt><trkpt lat="42.9889937" lon="13.3175559"><ele>609.5</ele><time>2026-04-11T11:55:46.935Z</time></trkpt><trkpt lat="42.9889313" lon="13.3176819"><ele>609.25</ele><time>2026-04-11T11:55:48.011Z</time></trkpt><trkpt lat="42.9888494" lon="13.3178116"><ele>609.0</ele><time>2026-04-11T11:55:48.98Z</time></trkpt><trkpt lat="42.9887799" lon="13.3179304"><ele>609.0</ele><time>2026-04-11T11:55:49.985Z</time></trkpt><trkpt lat="42.9887045" lon="13.3180246"><ele>609.0</ele><time>2026-04-11T11:55:50.982Z</time></trkpt><trkpt lat="42.9886276" lon="13.3180984"><ele>609.0</ele><time>2026-04-11T11:55:52.002Z</time></trkpt><trkpt lat="42.9886186" lon="13.3181919"><ele>609.0</ele><time>2026-04-11T11:55:52.98Z</time></trkpt><trkpt lat="42.9886885" lon="13.3182681"><ele>609.0</ele><time>2026-04-11T11:55:54.985Z</time></trkpt><trkpt lat="42.9887426" lon="13.3182239"><ele>609.0</ele><time>2026-04-11T11:55:55.981Z</time></trkpt><trkpt lat="42.9888048" lon="13.3180735"><ele>609.0</ele><time>2026-04-11T11:55:57.957Z</time></trkpt><trkpt lat="42.9888322" lon="13.3179908"><ele>609.0</ele><time>2026-04-11T11:55:58.948Z</time></trkpt><trkpt lat="42.9888663" lon="13.3179147"><ele>609.0</ele><time>2026-04-11T11:55:59.968Z</time></trkpt><trkpt lat="42.9889323" lon="13.3178638"><ele>609.0</ele><time>2026-04-11T11:56:00.978Z</time></trkpt><trkpt lat="42.9890443" lon="13.3178507"><ele>609.0</ele><time>2026-04-11T11:56:01.995Z</time></trkpt><trkpt lat="42.9891671" lon="13.3178454"><ele>609.0</ele><time>2026-04-11T11:56:02.994Z</time></trkpt><trkpt lat="42.9892691" lon="13.3178324"><ele>611.1666666666666</ele><time>2026-04-11T11:56:04.008Z</time></trkpt><trkpt lat="42.989352" lon="13.3178105"><ele>613.3333333333334</ele><time>2026-04-11T11:56:04.996Z</time></trkpt><trkpt lat="42.9894122" lon="13.3177731"><ele>615.5</ele><time>2026-04-11T11:56:05.994Z</time></trkpt><trkpt lat="42.9894541" lon="13.3177025"><ele>617.6666666666667</ele><time>2026-04-11T11:56:06.977Z</time></trkpt><trkpt lat="42.9894954" lon="13.317582"><ele>619.8333333333334</ele><time>2026-04-11T11:56:08.01Z</time></trkpt><trkpt lat="42.9895029" lon="13.317428"><ele>622.0</ele><time>2026-04-11T11:56:08.958Z</time></trkpt><trkpt lat="42.9894967" lon="13.3173241"><ele>622.0</ele><time>2026-04-11T11:56:09.978Z</time></trkpt><trkpt lat="42.9895584" lon="13.3172197"><ele>622.0</ele><time>2026-04-11T11:56:11.984Z</time></trkpt><trkpt lat="42.9896312" lon="13.3172712"><ele>622.0</ele><time>2026-04-11T11:56:14.006Z</time></trkpt><trkpt lat="42.9896478" lon="13.3173577"><ele>622.0</ele><time>2026-04-11T11:56:14.989Z</time></trkpt><trkpt lat="42.989667" lon="13.31745"><ele>622.0</ele><time>2026-04-11T11:56:15.975Z</time></trkpt><trkpt lat="42.9897071" lon="13.3175202"><ele>622.0</ele><time>2026-04-11T11:56:16.978Z</time></trkpt><trkpt lat="42.9898115" lon="13.3176063"><ele>622.0</ele><time>2026-04-11T11:56:18.985Z</time></trkpt><trkpt lat="42.9898817" lon="13.3175768"><ele>622.0</ele><time>2026-04-11T11:56:19.976Z</time></trkpt><trkpt lat="42.9899669" lon="13.3175247"><ele>622.0</ele><time>2026-04-11T11:56:21.014Z</time></trkpt><trkpt lat="42.9900722" lon="13.3174314"><ele>622.0</ele><time>2026-04-11T11:56:21.965Z</time></trkpt><trkpt lat="42.9901769" lon="13.3173419"><ele>622.0</ele><time>2026-04-11T11:56:22.992Z</time></trkpt><trkpt lat="42.9902333" lon="13.317289"><ele>621.8000000000001</ele><time>2026-04-11T11:56:24.003Z</time></trkpt><trkpt lat="42.9903009" lon="13.317269"><ele>621.6</ele><time>2026-04-11T11:56:24.989Z</time></trkpt><trkpt lat="42.9904284" lon="13.3172442"><ele>621.4000000000001</ele><time>2026-04-11T11:56:27.015Z</time></trkpt><trkpt lat="42.9905115" lon="13.3172126"><ele>621.2</ele><time>2026-04-11T11:56:27.982Z</time></trkpt><trkpt lat="42.9906107" lon="13.3172193"><ele>621.0</ele><time>2026-04-11T11:56:29.008Z</time></trkpt><trkpt lat="42.9907037" lon="13.3171974"><ele>621.0</ele><time>2026-04-11T11:56:29.956Z</time></trkpt><trkpt lat="42.9907931" lon="13.3171553"><ele>621.0</ele><time>2026-04-11T11:56:30.977Z</time></trkpt><trkpt lat="42.990893" lon="13.3171149"><ele>621.0</ele><time>2026-04-11T11:56:31.967Z</time></trkpt><trkpt lat="42.9909788" lon="13.317093"><ele>621.0</ele><time>2026-04-11T11:56:33.004Z</time></trkpt><trkpt lat="42.9910665" lon="13.3170803"><ele>621.0</ele><time>2026-04-11T11:56:34.009Z</time></trkpt><trkpt lat="42.9911436" lon="13.3170922"><ele>624.5</ele><time>2026-04-11T11:56:34.973Z</time></trkpt><trkpt lat="42.9912277" lon="13.3170863"><ele>628.0</ele><time>2026-04-11T11:56:35.981Z</time></trkpt><trkpt lat="42.9912916" lon="13.3170687"><ele>631.5</ele><time>2026-04-11T11:56:36.981Z</time></trkpt><trkpt lat="42.9914048" lon="13.3170402"><ele>635.0</ele><time>2026-04-11T11:56:39Z</time></trkpt><trkpt lat="42.9914887" lon="13.3169376"><ele>638.5</ele><time>2026-04-11T11:56:40.981Z</time></trkpt><trkpt lat="42.9915338" lon="13.3168646"><ele>642.0</ele><time>2026-04-11T11:56:42.005Z</time></trkpt><trkpt lat="42.9916122" lon="13.3167902"><ele>642.0</ele><time>2026-04-11T11:56:43.968Z</time></trkpt><trkpt lat="42.9916615" lon="13.3167139"><ele>642.0</ele><time>2026-04-11T11:56:46.043Z</time></trkpt><trkpt lat="42.9917491" lon="13.3166286"><ele>642.0</ele><time>2026-04-11T11:56:48.005Z</time></trkpt><trkpt lat="42.9918261" lon="13.3165318"><ele>642.0</ele><time>2026-04-11T11:56:49.97Z</time></trkpt><trkpt lat="42.9919241" lon="13.3164051"><ele>642.0</ele><time>2026-04-11T11:56:51.984Z</time></trkpt><trkpt lat="42.9919756" lon="13.3163393"><ele>648.4000000000001</ele><time>2026-04-11T11:56:52.975Z</time></trkpt><trkpt lat="42.9920304" lon="13.3162477"><ele>654.8000000000001</ele><time>2026-04-11T11:56:54.013Z</time></trkpt><trkpt lat="42.9920802" lon="13.3161424"><ele>661.2</ele><time>2026-04-11T11:56:54.971Z</time></trkpt><trkpt lat="42.992119" lon="13.3160396"><ele>667.6</ele><time>2026-04-11T11:56:55.986Z</time></trkpt><trkpt lat="42.9921443" lon="13.3158944"><ele>674.0</ele><time>2026-04-11T11:56:57.957Z</time></trkpt><trkpt lat="42.9920559" lon="13.3157515"><ele>674.0</ele><time>2026-04-11T11:57:00Z</time></trkpt><trkpt lat="42.9920043" lon="13.3156933"><ele>674.0</ele><time>2026-04-11T11:57:00.993Z</time></trkpt><trkpt lat="42.9919343" lon="13.31558"><ele>674.0</ele><time>2026-04-11T11:57:02.974Z</time></trkpt><trkpt lat="42.9919179" lon="13.3154294"><ele>674.0</ele><time>2026-04-11T11:57:05.009Z</time></trkpt><trkpt lat="42.99195" lon="13.3152888"><ele>674.0</ele><time>2026-04-11T11:57:06.987Z</time></trkpt><trkpt lat="42.9920112" lon="13.3151883"><ele>673.1666666666666</ele><time>2026-04-11T11:57:08.978Z</time></trkpt><trkpt lat="42.9920551" lon="13.3151203"><ele>672.3333333333333</ele><time>2026-04-11T11:57:09.992Z</time></trkpt><trkpt lat="42.9921213" lon="13.3150495"><ele>671.5</ele><time>2026-04-11T11:57:10.958Z</time></trkpt><trkpt lat="42.992199" lon="13.3150034"><ele>670.6666666666666</ele><time>2026-04-11T11:57:11.987Z</time></trkpt><trkpt lat="42.9922925" lon="13.3149461"><ele>669.8333333333334</ele><time>2026-04-11T11:57:12.974Z</time></trkpt><trkpt lat="42.9923854" lon="13.3148957"><ele>669.0</ele><time>2026-04-11T11:57:13.943Z</time></trkpt><trkpt lat="42.9924778" lon="13.3148468"><ele>666.4000000000001</ele><time>2026-04-11T11:57:14.97Z</time></trkpt><trkpt lat="42.9925696" lon="13.314824"><ele>663.8</ele><time>2026-04-11T11:57:15.991Z</time></trkpt><trkpt lat="42.9926672" lon="13.3148015"><ele>661.2</ele><time>2026-04-11T11:57:16.974Z</time></trkpt><trkpt lat="42.9927556" lon="13.3147354"><ele>658.5999999999999</ele><time>2026-04-11T11:57:17.946Z</time></trkpt><trkpt lat="42.9928573" lon="13.3146351"><ele>656.0</ele><time>2026-04-11T11:57:18.993Z</time></trkpt><trkpt lat="42.9929407" lon="13.314549"><ele>656.0</ele><time>2026-04-11T11:57:20.021Z</time></trkpt><trkpt lat="42.9930294" lon="13.3144701"><ele>656.0</ele><time>2026-04-11T11:57:20.992Z</time></trkpt><trkpt lat="42.9931024" lon="13.3144158"><ele>656.0</ele><time>2026-04-11T11:57:21.998Z</time></trkpt><trkpt lat="42.9931818" lon="13.3143641"><ele>656.0</ele><time>2026-04-11T11:57:22.988Z</time></trkpt><trkpt lat="42.9932698" lon="13.3143174"><ele>656.0</ele><time>2026-04-11T11:57:23.971Z</time></trkpt><trkpt lat="42.9933815" lon="13.3142796"><ele>659.8</ele><time>2026-04-11T11:57:24.969Z</time></trkpt><trkpt lat="42.9934943" lon="13.3142479"><ele>663.5999999999999</ele><time>2026-04-11T11:57:25.977Z</time></trkpt><trkpt lat="42.9936015" lon="13.3142231"><ele>667.4</ele><time>2026-04-11T11:57:26.988Z</time></trkpt><trkpt lat="42.9936851" lon="13.3142204"><ele>671.2</ele><time>2026-04-11T11:57:27.988Z</time></trkpt><trkpt lat="42.9937596" lon="13.3142127"><ele>675.0</ele><time>2026-04-11T11:57:28.99Z</time></trkpt><trkpt lat="42.9939002" lon="13.3141682"><ele>675.0</ele><time>2026-04-11T11:57:30.979Z</time></trkpt><trkpt lat="42.9939745" lon="13.3141184"><ele>675.0</ele><time>2026-04-11T11:57:32.061Z</time></trkpt><trkpt lat="42.9940587" lon="13.3140593"><ele>675.0</ele><time>2026-04-11T11:57:33.003Z</time></trkpt><trkpt lat="42.9941293" lon="13.3139797"><ele>675.0</ele><time>2026-04-11T11:57:33.948Z</time></trkpt><trkpt lat="42.9942208" lon="13.3138732"><ele>675.0</ele><time>2026-04-11T11:57:34.955Z</time></trkpt><trkpt lat="42.994307" lon="13.3137859"><ele>674.0</ele><time>2026-04-11T11:57:35.951Z</time></trkpt><trkpt lat="42.99438" lon="13.3136879"><ele>673.0</ele><time>2026-04-11T11:57:36.952Z</time></trkpt><trkpt lat="42.9944403" lon="13.313583"><ele>672.0</ele><time>2026-04-11T11:57:37.935Z</time></trkpt><trkpt lat="42.9944939" lon="13.3135197"><ele>671.0</ele><time>2026-04-11T11:57:38.985Z</time></trkpt><trkpt lat="42.9945844" lon="13.3134331"><ele>670.0</ele><time>2026-04-11T11:57:40.98Z</time></trkpt><trkpt lat="42.9946317" lon="13.3133297"><ele>670.0</ele><time>2026-04-11T11:57:42.981Z</time></trkpt><trkpt lat="42.9946586" lon="13.3132171"><ele>670.0</ele><time>2026-04-11T11:57:44.975Z</time></trkpt><trkpt lat="42.9946941" lon="13.3131099"><ele>670.0</ele><time>2026-04-11T11:57:47.003Z</time></trkpt><trkpt lat="42.9947841" lon="13.313014"><ele>670.0</ele><time>2026-04-11T11:57:49.007Z</time></trkpt><trkpt lat="42.994838" lon="13.312965"><ele>670.0</ele><time>2026-04-11T11:57:49.989Z</time></trkpt><trkpt lat="42.9948936" lon="13.3129188"><ele>670.0</ele><time>2026-04-11T11:57:50.995Z</time></trkpt><trkpt lat="42.9950167" lon="13.312878"><ele>668.0</ele><time>2026-04-11T11:57:52.997Z</time></trkpt><trkpt lat="42.995094" lon="13.3128752"><ele>666.0</ele><time>2026-04-11T11:57:53.98Z</time></trkpt><trkpt lat="42.9951905" lon="13.3128604"><ele>664.0</ele><time>2026-04-11T11:57:55.972Z</time></trkpt><trkpt lat="42.995282" lon="13.3128523"><ele>662.0</ele><time>2026-04-11T11:57:57.975Z</time></trkpt><trkpt lat="42.9954208" lon="13.3128452"><ele>660.0</ele><time>2026-04-11T11:57:59.96Z</time></trkpt><trkpt lat="42.9954972" lon="13.3128419"><ele>660.0</ele><time>2026-04-11T11:58:01Z</time></trkpt><trkpt lat="42.9955864" lon="13.3128357"><ele>660.0</ele><time>2026-04-11T11:58:01.994Z</time></trkpt><trkpt lat="42.9956692" lon="13.3128277"><ele>660.0</ele><time>2026-04-11T11:58:02.983Z</time></trkpt><trkpt lat="42.9957681" lon="13.3128181"><ele>660.0</ele><time>2026-04-11T11:58:03.985Z</time></trkpt><trkpt lat="42.9958804" lon="13.3127969"><ele>660.0</ele><time>2026-04-11T11:58:04.966Z</time></trkpt><trkpt lat="42.9960293" lon="13.3127766"><ele>658.75</ele><time>2026-04-11T11:58:05.987Z</time></trkpt><trkpt lat="42.9961682" lon="13.3127556"><ele>657.5</ele><time>2026-04-11T11:58:07.011Z</time></trkpt><trkpt lat="42.9963079" lon="13.3127399"><ele>656.25</ele><time>2026-04-11T11:58:08.015Z</time></trkpt><trkpt lat="42.9964378" lon="13.3127231"><ele>655.0</ele><time>2026-04-11T11:58:09.042Z</time></trkpt><trkpt lat="42.9965626" lon="13.312706"><ele>653.4</ele><time>2026-04-11T11:58:10.011Z</time></trkpt><trkpt lat="42.9966701" lon="13.3126899"><ele>651.8</ele><time>2026-04-11T11:58:11.014Z</time></trkpt><trkpt lat="42.996769" lon="13.3126336"><ele>650.2</ele><time>2026-04-11T11:58:12.01Z</time></trkpt><trkpt lat="42.9968711" lon="13.3125763"><ele>648.6</ele><time>2026-04-11T11:58:12.962Z</time></trkpt><trkpt lat="42.9969582" lon="13.31248"><ele>647.0</ele><time>2026-04-11T11:58:13.996Z</time></trkpt><trkpt lat="42.9970422" lon="13.3123887"><ele>647.0</ele><time>2026-04-11T11:58:14.966Z</time></trkpt><trkpt lat="42.9971273" lon="13.3123187"><ele>647.0</ele><time>2026-04-11T11:58:15.982Z</time></trkpt><trkpt lat="42.9972316" lon="13.3122636"><ele>647.0</ele><time>2026-04-11T11:58:16.976Z</time></trkpt><trkpt lat="42.9973482" lon="13.3122024"><ele>647.0</ele><time>2026-04-11T11:58:17.961Z</time></trkpt><trkpt lat="42.9974877" lon="13.3121291"><ele>648.6666666666666</ele><time>2026-04-11T11:58:18.982Z</time></trkpt><trkpt lat="42.9976317" lon="13.312054"><ele>650.3333333333334</ele><time>2026-04-11T11:58:19.979Z</time></trkpt><trkpt lat="42.9977752" lon="13.3119637"><ele>652.0</ele><time>2026-04-11T11:58:20.986Z</time></trkpt><trkpt lat="42.9979154" lon="13.3118731"><ele>652.0</ele><time>2026-04-11T11:58:22.007Z</time></trkpt><trkpt lat="42.9980513" lon="13.3118119"><ele>652.0</ele><time>2026-04-11T11:58:23.004Z</time></trkpt><trkpt lat="42.998173" lon="13.3117564"><ele>652.0</ele><time>2026-04-11T11:58:23.96Z</time></trkpt><trkpt lat="42.9982931" lon="13.3117011"><ele>652.0</ele><time>2026-04-11T11:58:24.965Z</time></trkpt><trkpt lat="42.9984308" lon="13.3116161"><ele>650.0</ele><time>2026-04-11T11:58:26.004Z</time></trkpt><trkpt lat="42.998567" lon="13.3115292"><ele>648.0</ele><time>2026-04-11T11:58:26.995Z</time></trkpt><trkpt lat="42.9986927" lon="13.3114417"><ele>646.0</ele><time>2026-04-11T11:58:27.996Z</time></trkpt><trkpt lat="42.998799" lon="13.3113539"><ele>644.0</ele><time>2026-04-11T11:58:28.991Z</time></trkpt><trkpt lat="42.9988994" lon="13.3112692"><ele>646.0</ele><time>2026-04-11T11:58:29.959Z</time></trkpt><trkpt lat="42.998992" lon="13.311213"><ele>648.0</ele><time>2026-04-11T11:58:31.006Z</time></trkpt><trkpt lat="42.9990744" lon="13.3111835"><ele>650.0</ele><time>2026-04-11T11:58:32.086Z</time></trkpt><trkpt lat="42.9991619" lon="13.31118"><ele>652.0</ele><time>2026-04-11T11:58:33.016Z</time></trkpt><trkpt lat="42.9992644" lon="13.311232"><ele>654.0</ele><time>2026-04-11T11:58:33.99Z</time></trkpt><trkpt lat="42.9993433" lon="13.3113152"><ele>654.0</ele><time>2026-04-11T11:58:34.978Z</time></trkpt><trkpt lat="42.9994291" lon="13.3113489"><ele>654.0</ele><time>2026-04-11T11:58:35.987Z</time></trkpt><trkpt lat="42.9995039" lon="13.3113796"><ele>654.0</ele><time>2026-04-11T11:58:37.002Z</time></trkpt><trkpt lat="42.9995847" lon="13.3113693"><ele>654.0</ele><time>2026-04-11T11:58:37.984Z</time></trkpt><trkpt lat="42.9996656" lon="13.3112872"><ele>654.0</ele><time>2026-04-11T11:58:39.022Z</time></trkpt><trkpt lat="42.9997499" lon="13.3112043"><ele>654.0</ele><time>2026-04-11T11:58:39.977Z</time></trkpt><trkpt lat="42.9998245" lon="13.3110987"><ele>654.0</ele><time>2026-04-11T11:58:41.022Z</time></trkpt><trkpt lat="42.9999084" lon="13.3109911"><ele>654.0</ele><time>2026-04-11T11:58:41.966Z</time></trkpt><trkpt lat="43.0000361" lon="13.3109149"><ele>654.0</ele><time>2026-04-11T11:58:43.004Z</time></trkpt><trkpt lat="43.000161" lon="13.3108445"><ele>654.0</ele><time>2026-04-11T11:58:43.995Z</time></trkpt><trkpt lat="43.000288" lon="13.3107801"><ele>654.0</ele><time>2026-04-11T11:58:44.964Z</time></trkpt><trkpt lat="43.0004062" lon="13.3107242"><ele>654.0</ele><time>2026-04-11T11:58:45.985Z</time></trkpt><trkpt lat="43.0005161" lon="13.3106778"><ele>654.0</ele><time>2026-04-11T11:58:46.942Z</time></trkpt><trkpt lat="43.0006401" lon="13.3106705"><ele>654.0</ele><time>2026-04-11T11:58:47.978Z</time></trkpt><trkpt lat="43.0007584" lon="13.3106657"><ele>654.0</ele><time>2026-04-11T11:58:48.988Z</time></trkpt><trkpt lat="43.000867" lon="13.3106491"><ele>654.0</ele><time>2026-04-11T11:58:49.957Z</time></trkpt><trkpt lat="43.00098" lon="13.3106163"><ele>654.0</ele><time>2026-04-11T11:58:50.954Z</time></trkpt><trkpt lat="43.0011047" lon="13.310568"><ele>655.75</ele><time>2026-04-11T11:58:51.993Z</time></trkpt><trkpt lat="43.0012258" lon="13.3105151"><ele>657.5</ele><time>2026-04-11T11:58:52.988Z</time></trkpt><trkpt lat="43.001337" lon="13.310455"><ele>659.25</ele><time>2026-04-11T11:58:53.982Z</time></trkpt><trkpt lat="43.0014352" lon="13.3103949"><ele>661.0</ele><time>2026-04-11T11:58:54.954Z</time></trkpt><trkpt lat="43.0015295" lon="13.3103294"><ele>661.0</ele><time>2026-04-11T11:58:55.986Z</time></trkpt><trkpt lat="43.0016243" lon="13.3102698"><ele>661.0</ele><time>2026-04-11T11:58:56.973Z</time></trkpt><trkpt lat="43.0017098" lon="13.3102466"><ele>661.0</ele><time>2026-04-11T11:58:58Z</time></trkpt><trkpt lat="43.0018155" lon="13.3102694"><ele>661.0</ele><time>2026-04-11T11:58:59.003Z</time></trkpt><trkpt lat="43.0019177" lon="13.3103644"><ele>661.0</ele><time>2026-04-11T11:58:59.987Z</time></trkpt><trkpt lat="43.0020243" lon="13.3104708"><ele>655.3333333333334</ele><time>2026-04-11T11:59:00.97Z</time></trkpt><trkpt lat="43.0021571" lon="13.3105337"><ele>649.6666666666666</ele><time>2026-04-11T11:59:01.999Z</time></trkpt><trkpt lat="43.0023104" lon="13.3105859"><ele>644.0</ele><time>2026-04-11T11:59:03.013Z</time></trkpt><trkpt lat="43.0025087" lon="13.3106432"><ele>638.6666666666666</ele><time>2026-04-11T11:59:04.003Z</time></trkpt><trkpt lat="43.0026874" lon="13.3106777"><ele>633.3333333333334</ele><time>2026-04-11T11:59:04.939Z</time></trkpt><trkpt lat="43.0028518" lon="13.3107086"><ele>628.0</ele><time>2026-04-11T11:59:06.006Z</time></trkpt><trkpt lat="43.0029985" lon="13.3107427"><ele>628.0</ele><time>2026-04-11T11:59:06.996Z</time></trkpt><trkpt lat="43.0031315" lon="13.3107869"><ele>628.0</ele><time>2026-04-11T11:59:08.016Z</time></trkpt><trkpt lat="43.0032494" lon="13.3108325"><ele>628.0</ele><time>2026-04-11T11:59:09.006Z</time></trkpt><trkpt lat="43.0033608" lon="13.3108658"><ele>628.0</ele><time>2026-04-11T11:59:09.971Z</time></trkpt><trkpt lat="43.0034809" lon="13.3108803"><ele>629.25</ele><time>2026-04-11T11:59:11.015Z</time></trkpt><trkpt lat="43.0036155" lon="13.3108859"><ele>630.5</ele><time>2026-04-11T11:59:12.052Z</time></trkpt><trkpt lat="43.0037387" lon="13.3108813"><ele>631.75</ele><time>2026-04-11T11:59:13.029Z</time></trkpt><trkpt lat="43.0038395" lon="13.3108713"><ele>633.0</ele><time>2026-04-11T11:59:14.003Z</time></trkpt><trkpt lat="43.0039353" lon="13.3108509"><ele>633.0</ele><time>2026-04-11T11:59:15.022Z</time></trkpt><trkpt lat="43.0040161" lon="13.310822"><ele>633.0</ele><time>2026-04-11T11:59:15.999Z</time></trkpt><trkpt lat="43.0040715" lon="13.3107723"><ele>633.0</ele><time>2026-04-11T11:59:16.984Z</time></trkpt><trkpt lat="43.0040937" lon="13.3106888"><ele>633.0</ele><time>2026-04-11T11:59:18.011Z</time></trkpt><trkpt lat="43.0041178" lon="13.3105834"><ele>633.0</ele><time>2026-04-11T11:59:19.014Z</time></trkpt><trkpt lat="43.0041358" lon="13.3104641"><ele>633.0</ele><time>2026-04-11T11:59:19.968Z</time></trkpt><trkpt lat="43.0041792" lon="13.3103473"><ele>631.0</ele><time>2026-04-11T11:59:20.982Z</time></trkpt><trkpt lat="43.0042333" lon="13.3102136"><ele>629.0</ele><time>2026-04-11T11:59:22.001Z</time></trkpt><trkpt lat="43.0042937" lon="13.3100903"><ele>627.0</ele><time>2026-04-11T11:59:22.99Z</time></trkpt><trkpt lat="43.0043506" lon="13.3099404"><ele>625.0</ele><time>2026-04-11T11:59:23.974Z</time></trkpt><trkpt lat="43.0044037" lon="13.3097881"><ele>624.6</ele><time>2026-04-11T11:59:24.997Z</time></trkpt><trkpt lat="43.0044432" lon="13.3096465"><ele>624.2</ele><time>2026-04-11T11:59:25.987Z</time></trkpt><trkpt lat="43.0044751" lon="13.3094998"><ele>623.8</ele><time>2026-04-11T11:59:27.009Z</time></trkpt><trkpt lat="43.0045075" lon="13.3093571"><ele>623.4</ele><time>2026-04-11T11:59:27.971Z</time></trkpt><trkpt lat="43.0045256" lon="13.3092501"><ele>623.0</ele><time>2026-04-11T11:59:28.998Z</time></trkpt><trkpt lat="43.004517" lon="13.3091294"><ele>623.0</ele><time>2026-04-11T11:59:30.011Z</time></trkpt><trkpt lat="43.0044549" lon="13.3090257"><ele>623.0</ele><time>2026-04-11T11:59:31.006Z</time></trkpt><trkpt lat="43.004398" lon="13.3089192"><ele>623.0</ele><time>2026-04-11T11:59:32.003Z</time></trkpt><trkpt lat="43.0043457" lon="13.3087883"><ele>623.0</ele><time>2026-04-11T11:59:32.971Z</time></trkpt><trkpt lat="43.0042836" lon="13.3086649"><ele>623.0</ele><time>2026-04-11T11:59:34.01Z</time></trkpt><trkpt lat="43.0042281" lon="13.308532"><ele>621.6</ele><time>2026-04-11T11:59:34.993Z</time></trkpt><trkpt lat="43.004188" lon="13.3084074"><ele>620.1999999999999</ele><time>2026-04-11T11:59:35.985Z</time></trkpt><trkpt lat="43.004185" lon="13.3083037"><ele>618.8</ele><time>2026-04-11T11:59:36.982Z</time></trkpt><trkpt lat="43.0041751" lon="13.3081885"><ele>617.4</ele><time>2026-04-11T11:59:37.953Z</time></trkpt><trkpt lat="43.0041433" lon="13.3080647"><ele>616.0</ele><time>2026-04-11T11:59:38.948Z</time></trkpt><trkpt lat="43.0041081" lon="13.3079074"><ele>620.25</ele><time>2026-04-11T11:59:39.988Z</time></trkpt><trkpt lat="43.0040668" lon="13.3077668"><ele>624.5</ele><time>2026-04-11T11:59:40.989Z</time></trkpt><trkpt lat="43.0040214" lon="13.3075888"><ele>628.75</ele><time>2026-04-11T11:59:41.95Z</time></trkpt><trkpt lat="43.0039701" lon="13.3074275"><ele>633.0</ele><time>2026-04-11T11:59:42.992Z</time></trkpt><trkpt lat="43.0038871" lon="13.3072849"><ele>629.6</ele><time>2026-04-11T11:59:43.99Z</time></trkpt><trkpt lat="43.0038194" lon="13.3071678"><ele>626.1999999999999</ele><time>2026-04-11T11:59:44.989Z</time></trkpt><trkpt lat="43.0037362" lon="13.3070684"><ele>622.8</ele><time>2026-04-11T11:59:46.002Z</time></trkpt><trkpt lat="43.0036447" lon="13.3069945"><ele>619.4</ele><time>2026-04-11T11:59:47.002Z</time></trkpt><trkpt lat="43.0035522" lon="13.3069413"><ele>616.0</ele><time>2026-04-11T11:59:47.95Z</time></trkpt><trkpt lat="43.0034801" lon="13.3068811"><ele>616.0</ele><time>2026-04-11T11:59:48.987Z</time></trkpt><trkpt lat="43.0034146" lon="13.3067796"><ele>616.0</ele><time>2026-04-11T11:59:49.98Z</time></trkpt><trkpt lat="43.0033866" lon="13.3066743"><ele>616.0</ele><time>2026-04-11T11:59:50.971Z</time></trkpt><trkpt lat="43.0034067" lon="13.3065499"><ele>616.0</ele><time>2026-04-11T11:59:51.98Z</time></trkpt><trkpt lat="43.0034169" lon="13.3064229"><ele>616.0</ele><time>2026-04-11T11:59:52.983Z</time></trkpt><trkpt lat="43.0034319" lon="13.3062662"><ele>615.5</ele><time>2026-04-11T11:59:54.034Z</time></trkpt><trkpt lat="43.0034684" lon="13.3061053"><ele>615.0</ele><time>2026-04-11T11:59:54.998Z</time></trkpt><trkpt lat="43.0034913" lon="13.3059268"><ele>614.5</ele><time>2026-04-11T11:59:55.991Z</time></trkpt><trkpt lat="43.0035132" lon="13.3057612"><ele>614.0</ele><time>2026-04-11T11:59:56.995Z</time></trkpt><trkpt lat="43.0035646" lon="13.3055902"><ele>614.0</ele><time>2026-04-11T11:59:57.991Z</time></trkpt><trkpt lat="43.0036315" lon="13.3054876"><ele>614.0</ele><time>2026-04-11T11:59:58.985Z</time></trkpt><trkpt lat="43.0037126" lon="13.3053915"><ele>614.0</ele><time>2026-04-11T12:00:00.984Z</time></trkpt><trkpt lat="43.003781" lon="13.3054006"><ele>614.0</ele><time>2026-04-11T12:00:01.981Z</time></trkpt><trkpt lat="43.0038593" lon="13.305458"><ele>614.0</ele><time>2026-04-11T12:00:03.009Z</time></trkpt><trkpt lat="43.0039307" lon="13.3055109"><ele>614.0</ele><time>2026-04-11T12:00:03.981Z</time></trkpt><trkpt lat="43.0039955" lon="13.305598"><ele>614.0</ele><time>2026-04-11T12:00:04.995Z</time></trkpt><trkpt lat="43.0040737" lon="13.3057098"><ele>614.0</ele><time>2026-04-11T12:00:05.979Z</time></trkpt><trkpt lat="43.0041657" lon="13.3058429"><ele>614.0</ele><time>2026-04-11T12:00:06.98Z</time></trkpt><trkpt lat="43.00424" lon="13.3060027"><ele>614.0</ele><time>2026-04-11T12:00:07.972Z</time></trkpt><trkpt lat="43.0042504" lon="13.3061825"><ele>612.25</ele><time>2026-04-11T12:00:08.973Z</time></trkpt><trkpt lat="43.0042814" lon="13.3063548"><ele>610.5</ele><time>2026-04-11T12:00:09.985Z</time></trkpt><trkpt lat="43.0042843" lon="13.3065472"><ele>608.75</ele><time>2026-04-11T12:00:11.043Z</time></trkpt><trkpt lat="43.0043164" lon="13.3067079"><ele>607.0</ele><time>2026-04-11T12:00:11.982Z</time></trkpt><trkpt lat="43.004387" lon="13.3068741"><ele>607.0</ele><time>2026-04-11T12:00:12.967Z</time></trkpt><trkpt lat="43.0044501" lon="13.3070061"><ele>607.0</ele><time>2026-04-11T12:00:13.971Z</time></trkpt><trkpt lat="43.0045476" lon="13.307131"><ele>607.0</ele><time>2026-04-11T12:00:14.988Z</time></trkpt><trkpt lat="43.0046481" lon="13.3072269"><ele>607.0</ele><time>2026-04-11T12:00:15.985Z</time></trkpt><trkpt lat="43.0047866" lon="13.3073092"><ele>607.0</ele><time>2026-04-11T12:00:16.979Z</time></trkpt><trkpt lat="43.0049601" lon="13.3073564"><ele>607.0</ele><time>2026-04-11T12:00:17.984Z</time></trkpt><trkpt lat="43.0051191" lon="13.3074234"><ele>607.0</ele><time>2026-04-11T12:00:19.001Z</time></trkpt><trkpt lat="43.0053312" lon="13.3074583"><ele>600.0</ele><time>2026-04-11T12:00:19.999Z</time></trkpt><trkpt lat="43.0055087" lon="13.307481"><ele>593.0</ele><time>2026-04-11T12:00:20.937Z</time></trkpt><trkpt lat="43.0056714" lon="13.3075009"><ele>586.0</ele><time>2026-04-11T12:00:22.022Z</time></trkpt><trkpt lat="43.0058147" lon="13.3075127"><ele>586.75</ele><time>2026-04-11T12:00:22.965Z</time></trkpt><trkpt lat="43.0059668" lon="13.307528"><ele>587.5</ele><time>2026-04-11T12:00:24.014Z</time></trkpt><trkpt lat="43.0060956" lon="13.3075635"><ele>588.25</ele><time>2026-04-11T12:00:24.944Z</time></trkpt><trkpt lat="43.0062358" lon="13.3075831"><ele>589.0</ele><time>2026-04-11T12:00:25.938Z</time></trkpt><trkpt lat="43.0063416" lon="13.3075972"><ele>589.0</ele><time>2026-04-11T12:00:26.956Z</time></trkpt><trkpt lat="43.0064367" lon="13.3076464"><ele>589.0</ele><time>2026-04-11T12:00:27.997Z</time></trkpt><trkpt lat="43.0065283" lon="13.3077135"><ele>589.0</ele><time>2026-04-11T12:00:29.015Z</time></trkpt><trkpt lat="43.0066" lon="13.3078179"><ele>589.0</ele><time>2026-04-11T12:00:30.006Z</time></trkpt><trkpt lat="43.0066852" lon="13.3078836"><ele>589.0</ele><time>2026-04-11T12:00:30.958Z</time></trkpt><trkpt lat="43.0067677" lon="13.3079452"><ele>590.2</ele><time>2026-04-11T12:00:31.986Z</time></trkpt><trkpt lat="43.0068504" lon="13.3080009"><ele>591.4</ele><time>2026-04-11T12:00:32.985Z</time></trkpt><trkpt lat="43.0069346" lon="13.3080882"><ele>592.6</ele><time>2026-04-11T12:00:33.984Z</time></trkpt><trkpt lat="43.0070011" lon="13.308236"><ele>593.8</ele><time>2026-04-11T12:00:35.013Z</time></trkpt><trkpt lat="43.0070619" lon="13.3083608"><ele>595.0</ele><time>2026-04-11T12:00:35.978Z</time></trkpt><trkpt lat="43.0071275" lon="13.3084748"><ele>591.0</ele><time>2026-04-11T12:00:37.003Z</time></trkpt><trkpt lat="43.007186" lon="13.3085644"><ele>587.0</ele><time>2026-04-11T12:00:37.957Z</time></trkpt><trkpt lat="43.0072694" lon="13.3086242"><ele>583.0</ele><time>2026-04-11T12:00:38.97Z</time></trkpt><trkpt lat="43.007326" lon="13.3086755"><ele>579.0</ele><time>2026-04-11T12:00:39.998Z</time></trkpt><trkpt lat="43.0073973" lon="13.3086816"><ele>575.0</ele><time>2026-04-11T12:00:40.963Z</time></trkpt><trkpt lat="43.007514" lon="13.3085788"><ele>575.0</ele><time>2026-04-11T12:00:42.985Z</time></trkpt><trkpt lat="43.0075801" lon="13.3084448"><ele>575.0</ele><time>2026-04-11T12:00:43.997Z</time></trkpt><trkpt lat="43.0076563" lon="13.3083191"><ele>575.0</ele><time>2026-04-11T12:00:44.989Z</time></trkpt><trkpt lat="43.0077353" lon="13.3081814"><ele>575.0</ele><time>2026-04-11T12:00:45.973Z</time></trkpt><trkpt lat="43.0077833" lon="13.3080913"><ele>575.0</ele><time>2026-04-11T12:00:47.007Z</time></trkpt><trkpt lat="43.0078274" lon="13.3080102"><ele>573.6666666666666</ele><time>2026-04-11T12:00:47.987Z</time></trkpt><trkpt lat="43.0078763" lon="13.3079395"><ele>572.3333333333333</ele><time>2026-04-11T12:00:49.018Z</time></trkpt><trkpt lat="43.0079241" lon="13.3078787"><ele>571.0</ele><time>2026-04-11T12:00:50.009Z</time></trkpt><trkpt lat="43.0079909" lon="13.3078525"><ele>569.6666666666666</ele><time>2026-04-11T12:00:50.963Z</time></trkpt><trkpt lat="43.0081207" lon="13.307839"><ele>568.3333333333334</ele><time>2026-04-11T12:00:53.002Z</time></trkpt><trkpt lat="43.0082213" lon="13.3078081"><ele>567.0</ele><time>2026-04-11T12:00:53.968Z</time></trkpt><trkpt lat="43.0083381" lon="13.3076948"><ele>567.0</ele><time>2026-04-11T12:00:55Z</time></trkpt><trkpt lat="43.0084755" lon="13.3075744"><ele>567.0</ele><time>2026-04-11T12:00:55.955Z</time></trkpt><trkpt lat="43.0086427" lon="13.307443"><ele>567.0</ele><time>2026-04-11T12:00:56.974Z</time></trkpt><trkpt lat="43.0087991" lon="13.307338"><ele>567.0</ele><time>2026-04-11T12:00:57.959Z</time></trkpt><trkpt lat="43.0089395" lon="13.3072592"><ele>567.0</ele><time>2026-04-11T12:00:58.98Z</time></trkpt><trkpt lat="43.0090336" lon="13.3072008"><ele>567.0</ele><time>2026-04-11T12:01:00Z</time></trkpt><trkpt lat="43.009178" lon="13.3071033"><ele>567.0</ele><time>2026-04-11T12:01:00.953Z</time></trkpt><trkpt lat="43.0092981" lon="13.307043"><ele>563.0</ele><time>2026-04-11T12:01:01.998Z</time></trkpt><trkpt lat="43.0094185" lon="13.3069879"><ele>559.0</ele><time>2026-04-11T12:01:02.983Z</time></trkpt><trkpt lat="43.0095557" lon="13.3069515"><ele>555.0</ele><time>2026-04-11T12:01:03.996Z</time></trkpt><trkpt lat="43.0096787" lon="13.3069394"><ele>551.0</ele><time>2026-04-11T12:01:04.984Z</time></trkpt><trkpt lat="43.0097836" lon="13.3069568"><ele>551.0</ele><time>2026-04-11T12:01:05.963Z</time></trkpt><trkpt lat="43.0098837" lon="13.3069914"><ele>551.0</ele><time>2026-04-11T12:01:06.959Z</time></trkpt><trkpt lat="43.0099861" lon="13.3070426"><ele>551.0</ele><time>2026-04-11T12:01:08.006Z</time></trkpt><trkpt lat="43.0101008" lon="13.307106"><ele>551.0</ele><time>2026-04-11T12:01:08.999Z</time></trkpt><trkpt lat="43.0102015" lon="13.3071504"><ele>551.0</ele><time>2026-04-11T12:01:10.018Z</time></trkpt><trkpt lat="43.0102962" lon="13.3071888"><ele>550.1666666666666</ele><time>2026-04-11T12:01:10.958Z</time></trkpt><trkpt lat="43.0103781" lon="13.3072287"><ele>549.3333333333333</ele><time>2026-04-11T12:01:12.003Z</time></trkpt><trkpt lat="43.0104462" lon="13.3072602"><ele>548.5</ele><time>2026-04-11T12:01:12.994Z</time></trkpt><trkpt lat="43.0105502" lon="13.3072553"><ele>547.6666666666666</ele><time>2026-04-11T12:01:14.993Z</time></trkpt><trkpt lat="43.0106061" lon="13.3071566"><ele>546.8333333333334</ele><time>2026-04-11T12:01:17.018Z</time></trkpt><trkpt lat="43.0106256" lon="13.3070732"><ele>546.0</ele><time>2026-04-11T12:01:18.035Z</time></trkpt><trkpt lat="43.0106287" lon="13.3069432"><ele>545.75</ele><time>2026-04-11T12:01:19.02Z</time></trkpt><trkpt lat="43.0106347" lon="13.306797"><ele>545.5</ele><time>2026-04-11T12:01:19.993Z</time></trkpt><trkpt lat="43.0106494" lon="13.30663"><ele>545.25</ele><time>2026-04-11T12:01:20.957Z</time></trkpt><trkpt lat="43.0106694" lon="13.3064602"><ele>545.0</ele><time>2026-04-11T12:01:22.001Z</time></trkpt><trkpt lat="43.0106993" lon="13.3063375"><ele>545.0</ele><time>2026-04-11T12:01:23Z</time></trkpt><trkpt lat="43.0107444" lon="13.3062369"><ele>545.0</ele><time>2026-04-11T12:01:23.982Z</time></trkpt><trkpt lat="43.010823" lon="13.3061336"><ele>545.0</ele><time>2026-04-11T12:01:25.006Z</time></trkpt><trkpt lat="43.0109139" lon="13.3060315"><ele>545.0</ele><time>2026-04-11T12:01:25.959Z</time></trkpt><trkpt lat="43.0110034" lon="13.3059205"><ele>545.0</ele><time>2026-04-11T12:01:27.049Z</time></trkpt><trkpt lat="43.01108" lon="13.3057925"><ele>544.2</ele><time>2026-04-11T12:01:28.006Z</time></trkpt><trkpt lat="43.0111548" lon="13.305659"><ele>543.4</ele><time>2026-04-11T12:01:29.011Z</time></trkpt><trkpt lat="43.011203" lon="13.3055262"><ele>542.6</ele><time>2026-04-11T12:01:30.017Z</time></trkpt><trkpt lat="43.0112348" lon="13.3053931"><ele>541.8</ele><time>2026-04-11T12:01:30.967Z</time></trkpt><trkpt lat="43.0112399" lon="13.3052594"><ele>541.0</ele><time>2026-04-11T12:01:31.995Z</time></trkpt><trkpt lat="43.0112108" lon="13.3051177"><ele>541.0</ele><time>2026-04-11T12:01:33.004Z</time></trkpt><trkpt lat="43.0111874" lon="13.3049561"><ele>541.0</ele><time>2026-04-11T12:01:34.001Z</time></trkpt><trkpt lat="43.011171" lon="13.3047927"><ele>541.0</ele><time>2026-04-11T12:01:34.988Z</time></trkpt><trkpt lat="43.0111976" lon="13.3046402"><ele>541.0</ele><time>2026-04-11T12:01:35.948Z</time></trkpt><trkpt lat="43.011262" lon="13.3045177"><ele>540.6666666666667</ele><time>2026-04-11T12:01:37.01Z</time></trkpt><trkpt lat="43.0113718" lon="13.3044157"><ele>540.3333333333334</ele><time>2026-04-11T12:01:37.955Z</time></trkpt><trkpt lat="43.0115252" lon="13.304281"><ele>540.0</ele><time>2026-04-11T12:01:39.072Z</time></trkpt><trkpt lat="43.0118638" lon="13.3039567"><ele>543.6666666666666</ele><time>2026-04-11T12:01:40.959Z</time></trkpt><trkpt lat="43.0120398" lon="13.3038212"><ele>547.3333333333333</ele><time>2026-04-11T12:01:42.005Z</time></trkpt><trkpt lat="43.0122128" lon="13.3036913"><ele>551.0</ele><time>2026-04-11T12:01:43.001Z</time></trkpt><trkpt lat="43.012379" lon="13.3035495"><ele>548.3333333333333</ele><time>2026-04-11T12:01:44.011Z</time></trkpt><trkpt lat="43.012545" lon="13.3034188"><ele>545.6666666666666</ele><time>2026-04-11T12:01:45.044Z</time></trkpt><trkpt lat="43.0126957" lon="13.3033062"><ele>543.0</ele><time>2026-04-11T12:01:45.948Z</time></trkpt><trkpt lat="43.0128329" lon="13.3032056"><ele>543.0</ele><time>2026-04-11T12:01:47.008Z</time></trkpt><trkpt lat="43.0129477" lon="13.3031063"><ele>543.0</ele><time>2026-04-11T12:01:48.002Z</time></trkpt><trkpt lat="43.0130455" lon="13.3030209"><ele>543.0</ele><time>2026-04-11T12:01:49.014Z</time></trkpt><trkpt lat="43.013137" lon="13.30294"><ele>543.0</ele><time>2026-04-11T12:01:49.997Z</time></trkpt><trkpt lat="43.0132382" lon="13.3028555"><ele>543.25</ele><time>2026-04-11T12:01:50.964Z</time></trkpt><trkpt lat="43.013351" lon="13.3027782"><ele>543.5</ele><time>2026-04-11T12:01:52.019Z</time></trkpt><trkpt lat="43.013467" lon="13.3026924"><ele>543.75</ele><time>2026-04-11T12:01:53.004Z</time></trkpt><trkpt lat="43.0135629" lon="13.3026401"><ele>544.0</ele><time>2026-04-11T12:01:53.978Z</time></trkpt><trkpt lat="43.0136581" lon="13.3025729"><ele>544.0</ele><time>2026-04-11T12:01:54.96Z</time></trkpt><trkpt lat="43.0137624" lon="13.302499"><ele>544.0</ele><time>2026-04-11T12:01:55.975Z</time></trkpt><trkpt lat="43.0138711" lon="13.3024015"><ele>544.0</ele><time>2026-04-11T12:01:57.004Z</time></trkpt><trkpt lat="43.0139895" lon="13.302284"><ele>544.0</ele><time>2026-04-11T12:01:57.964Z</time></trkpt><trkpt lat="43.01409" lon="13.3021514"><ele>542.25</ele><time>2026-04-11T12:01:59.001Z</time></trkpt><trkpt lat="43.0141888" lon="13.3020446"><ele>540.5</ele><time>2026-04-11T12:02:00.014Z</time></trkpt><trkpt lat="43.0142983" lon="13.301978"><ele>538.75</ele><time>2026-04-11T12:02:01.044Z</time></trkpt><trkpt lat="43.0144019" lon="13.3019225"><ele>537.0</ele><time>2026-04-11T12:02:01.975Z</time></trkpt><trkpt lat="43.014516" lon="13.3018991"><ele>537.0</ele><time>2026-04-11T12:02:02.998Z</time></trkpt><trkpt lat="43.0146422" lon="13.3018986"><ele>537.0</ele><time>2026-04-11T12:02:04.011Z</time></trkpt><trkpt lat="43.014771" lon="13.3019034"><ele>537.0</ele><time>2026-04-11T12:02:04.982Z</time></trkpt><trkpt lat="43.0149361" lon="13.3019706"><ele>537.0</ele><time>2026-04-11T12:02:06.008Z</time></trkpt><trkpt lat="43.0151044" lon="13.3020286"><ele>534.3333333333334</ele><time>2026-04-11T12:02:06.97Z</time></trkpt><trkpt lat="43.015261" lon="13.3020805"><ele>531.6666666666667</ele><time>2026-04-11T12:02:07.952Z</time></trkpt><trkpt lat="43.0154165" lon="13.3021247"><ele>529.0</ele><time>2026-04-11T12:02:09.002Z</time></trkpt><trkpt lat="43.0155579" lon="13.3021542"><ele>529.0</ele><time>2026-04-11T12:02:09.962Z</time></trkpt><trkpt lat="43.0156887" lon="13.3021772"><ele>529.0</ele><time>2026-04-11T12:02:10.955Z</time></trkpt><trkpt lat="43.0158079" lon="13.3022066"><ele>529.0</ele><time>2026-04-11T12:02:12.018Z</time></trkpt><trkpt lat="43.0159224" lon="13.3022314"><ele>529.0</ele><time>2026-04-11T12:02:12.996Z</time></trkpt><trkpt lat="43.0160247" lon="13.3022381"><ele>527.75</ele><time>2026-04-11T12:02:13.996Z</time></trkpt><trkpt lat="43.0161227" lon="13.3022189"><ele>526.5</ele><time>2026-04-11T12:02:14.994Z</time></trkpt><trkpt lat="43.0162259" lon="13.3021866"><ele>525.25</ele><time>2026-04-11T12:02:16.006Z</time></trkpt><trkpt lat="43.0163276" lon="13.3021159"><ele>524.0</ele><time>2026-04-11T12:02:16.96Z</time></trkpt><trkpt lat="43.0164512" lon="13.3020293"><ele>524.0</ele><time>2026-04-11T12:02:17.984Z</time></trkpt><trkpt lat="43.0166062" lon="13.3019611"><ele>524.0</ele><time>2026-04-11T12:02:19.01Z</time></trkpt><trkpt lat="43.0167797" lon="13.301919"><ele>524.0</ele><time>2026-04-11T12:02:19.98Z</time></trkpt><trkpt lat="43.016926" lon="13.3018588"><ele>523.0</ele><time>2026-04-11T12:02:21.004Z</time></trkpt><trkpt lat="43.0171014" lon="13.3018188"><ele>522.0</ele><time>2026-04-11T12:02:21.975Z</time></trkpt><trkpt lat="43.0172766" lon="13.3017861"><ele>521.0</ele><time>2026-04-11T12:02:23.028Z</time></trkpt><trkpt lat="43.017446" lon="13.3017638"><ele>520.6666666666666</ele><time>2026-04-11T12:02:23.986Z</time></trkpt><trkpt lat="43.0176219" lon="13.3017591"><ele>520.3333333333334</ele><time>2026-04-11T12:02:25.007Z</time></trkpt><trkpt lat="43.017793" lon="13.3017714"><ele>520.0</ele><time>2026-04-11T12:02:26.007Z</time></trkpt><trkpt lat="43.0179602" lon="13.3017816"><ele>520.0</ele><time>2026-04-11T12:02:26.985Z</time></trkpt><trkpt lat="43.0181628" lon="13.3017665"><ele>520.0</ele><time>2026-04-11T12:02:27.949Z</time></trkpt><trkpt lat="43.018345" lon="13.3017608"><ele>520.0</ele><time>2026-04-11T12:02:28.971Z</time></trkpt><trkpt lat="43.0185184" lon="13.3017599"><ele>517.6666666666667</ele><time>2026-04-11T12:02:29.989Z</time></trkpt><trkpt lat="43.0186803" lon="13.3017504"><ele>515.3333333333334</ele><time>2026-04-11T12:02:31.011Z</time></trkpt><trkpt lat="43.0188376" lon="13.3017349"><ele>513.0</ele><time>2026-04-11T12:02:32.013Z</time></trkpt><trkpt lat="43.0190046" lon="13.3017353"><ele>511.75</ele><time>2026-04-11T12:02:33.018Z</time></trkpt><trkpt lat="43.0191612" lon="13.3017407"><ele>510.5</ele><time>2026-04-11T12:02:33.999Z</time></trkpt><trkpt lat="43.019306" lon="13.3017409"><ele>509.25</ele><time>2026-04-11T12:02:35.019Z</time></trkpt><trkpt lat="43.019444" lon="13.3017588"><ele>508.0</ele><time>2026-04-11T12:02:36.013Z</time></trkpt><trkpt lat="43.019592" lon="13.3017702"><ele>508.0</ele><time>2026-04-11T12:02:37Z</time></trkpt><trkpt lat="43.0197417" lon="13.3017818"><ele>508.0</ele><time>2026-04-11T12:02:37.952Z</time></trkpt><trkpt lat="43.019886" lon="13.3018002"><ele>508.0</ele><time>2026-04-11T12:02:38.955Z</time></trkpt><trkpt lat="43.0200569" lon="13.3018495"><ele>504.6666666666667</ele><time>2026-04-11T12:02:39.99Z</time></trkpt><trkpt lat="43.0202276" lon="13.3019267"><ele>501.33333333333337</ele><time>2026-04-11T12:02:40.994Z</time></trkpt><trkpt lat="43.0203826" lon="13.301979"><ele>498.0</ele><time>2026-04-11T12:02:41.979Z</time></trkpt><trkpt lat="43.0205207" lon="13.3020251"><ele>498.0</ele><time>2026-04-11T12:02:42.979Z</time></trkpt><trkpt lat="43.0206524" lon="13.302061"><ele>498.0</ele><time>2026-04-11T12:02:44.024Z</time></trkpt><trkpt lat="43.0207827" lon="13.3020747"><ele>498.0</ele><time>2026-04-11T12:02:45.009Z</time></trkpt><trkpt lat="43.0209074" lon="13.3020447"><ele>498.0</ele><time>2026-04-11T12:02:45.978Z</time></trkpt><trkpt lat="43.0210441" lon="13.3019837"><ele>496.66666666666663</ele><time>2026-04-11T12:02:46.982Z</time></trkpt><trkpt lat="43.021181" lon="13.3019158"><ele>495.3333333333333</ele><time>2026-04-11T12:02:47.987Z</time></trkpt><trkpt lat="43.0213402" lon="13.3018624"><ele>494.0</ele><time>2026-04-11T12:02:49.003Z</time></trkpt><trkpt lat="43.0214933" lon="13.3018288"><ele>494.0</ele><time>2026-04-11T12:02:50.008Z</time></trkpt><trkpt lat="43.021636" lon="13.3018052"><ele>494.0</ele><time>2026-04-11T12:02:51.007Z</time></trkpt><trkpt lat="43.0217651" lon="13.3017507"><ele>494.0</ele><time>2026-04-11T12:02:51.986Z</time></trkpt><trkpt lat="43.0218853" lon="13.3016479"><ele>494.0</ele><time>2026-04-11T12:02:53.009Z</time></trkpt><trkpt lat="43.0220037" lon="13.3015132"><ele>495.66666666666663</ele><time>2026-04-11T12:02:53.988Z</time></trkpt><trkpt lat="43.0221189" lon="13.3013443"><ele>497.33333333333337</ele><time>2026-04-11T12:02:55.002Z</time></trkpt><trkpt lat="43.0222261" lon="13.3011861"><ele>499.0</ele><time>2026-04-11T12:02:55.995Z</time></trkpt><trkpt lat="43.0223212" lon="13.3010434"><ele>499.0</ele><time>2026-04-11T12:02:56.963Z</time></trkpt><trkpt lat="43.0224076" lon="13.3009173"><ele>499.0</ele><time>2026-04-11T12:02:57.998Z</time></trkpt><trkpt lat="43.0224911" lon="13.3008155"><ele>499.0</ele><time>2026-04-11T12:02:59.019Z</time></trkpt><trkpt lat="43.0226015" lon="13.3007827"><ele>499.0</ele><time>2026-04-11T12:02:59.99Z</time></trkpt><trkpt lat="43.0227108" lon="13.3007341"><ele>498.2</ele><time>2026-04-11T12:03:00.98Z</time></trkpt><trkpt lat="43.0228409" lon="13.3007403"><ele>497.4</ele><time>2026-04-11T12:03:01.953Z</time></trkpt><trkpt lat="43.0229682" lon="13.3007559"><ele>496.6</ele><time>2026-04-11T12:03:03.006Z</time></trkpt><trkpt lat="43.0230734" lon="13.3007655"><ele>495.8</ele><time>2026-04-11T12:03:04.025Z</time></trkpt><trkpt lat="43.0231461" lon="13.3007847"><ele>495.0</ele><time>2026-04-11T12:03:05.021Z</time></trkpt><trkpt lat="43.023226" lon="13.3008633"><ele>495.0</ele><time>2026-04-11T12:03:05.982Z</time></trkpt><trkpt lat="43.0232889" lon="13.3009532"><ele>495.0</ele><time>2026-04-11T12:03:06.977Z</time></trkpt><trkpt lat="43.0233615" lon="13.3009984"><ele>495.0</ele><time>2026-04-11T12:03:08.004Z</time></trkpt><trkpt lat="43.0234507" lon="13.3009881"><ele>495.0</ele><time>2026-04-11T12:03:08.991Z</time></trkpt><trkpt lat="43.023578" lon="13.3009449"><ele>495.0</ele><time>2026-04-11T12:03:10.023Z</time></trkpt><trkpt lat="43.0237037" lon="13.3009203"><ele>494.0</ele><time>2026-04-11T12:03:10.966Z</time></trkpt><trkpt lat="43.0238241" lon="13.3008906"><ele>493.0</ele><time>2026-04-11T12:03:11.959Z</time></trkpt><trkpt lat="43.0239214" lon="13.3009119"><ele>492.0</ele><time>2026-04-11T12:03:13.009Z</time></trkpt><trkpt lat="43.0240168" lon="13.3009505"><ele>491.0</ele><time>2026-04-11T12:03:14.001Z</time></trkpt><trkpt lat="43.0241061" lon="13.3010397"><ele>490.0</ele><time>2026-04-11T12:03:15.006Z</time></trkpt><trkpt lat="43.0241897" lon="13.3011488"><ele>489.2</ele><time>2026-04-11T12:03:15.991Z</time></trkpt><trkpt lat="43.0242582" lon="13.3012493"><ele>488.4</ele><time>2026-04-11T12:03:16.953Z</time></trkpt><trkpt lat="43.0243353" lon="13.3013017"><ele>487.6</ele><time>2026-04-11T12:03:17.994Z</time></trkpt><trkpt lat="43.0244258" lon="13.3013137"><ele>486.8</ele><time>2026-04-11T12:03:18.986Z</time></trkpt><trkpt lat="43.0245136" lon="13.3012506"><ele>486.0</ele><time>2026-04-11T12:03:19.981Z</time></trkpt><trkpt lat="43.0245998" lon="13.3011781"><ele>486.0</ele><time>2026-04-11T12:03:21.013Z</time></trkpt><trkpt lat="43.0246697" lon="13.3010743"><ele>486.0</ele><time>2026-04-11T12:03:21.968Z</time></trkpt><trkpt lat="43.0247521" lon="13.3009422"><ele>486.0</ele><time>2026-04-11T12:03:22.99Z</time></trkpt><trkpt lat="43.0248617" lon="13.3008592"><ele>486.0</ele><time>2026-04-11T12:03:24.006Z</time></trkpt><trkpt lat="43.0249785" lon="13.3007882"><ele>485.33333333333337</ele><time>2026-04-11T12:03:25.016Z</time></trkpt><trkpt lat="43.0251205" lon="13.3007628"><ele>484.6666666666667</ele><time>2026-04-11T12:03:26.01Z</time></trkpt><trkpt lat="43.025271" lon="13.3007343"><ele>484.0</ele><time>2026-04-11T12:03:26.988Z</time></trkpt><trkpt lat="43.0254476" lon="13.3006941"><ele>484.0</ele><time>2026-04-11T12:03:28.026Z</time></trkpt><trkpt lat="43.0256231" lon="13.3006669"><ele>484.0</ele><time>2026-04-11T12:03:29.014Z</time></trkpt><trkpt lat="43.0257813" lon="13.3006374"><ele>484.0</ele><time>2026-04-11T12:03:30.016Z</time></trkpt><trkpt lat="43.0259349" lon="13.3006235"><ele>483.25</ele><time>2026-04-11T12:03:30.999Z</time></trkpt><trkpt lat="43.026076" lon="13.3006151"><ele>482.5</ele><time>2026-04-11T12:03:31.989Z</time></trkpt><trkpt lat="43.0262095" lon="13.3006367"><ele>481.75</ele><time>2026-04-11T12:03:32.989Z</time></trkpt><trkpt lat="43.026356" lon="13.3006648"><ele>481.0</ele><time>2026-04-11T12:03:34.001Z</time></trkpt><trkpt lat="43.0264994" lon="13.300691"><ele>481.0</ele><time>2026-04-11T12:03:34.998Z</time></trkpt><trkpt lat="43.0266443" lon="13.3007238"><ele>481.0</ele><time>2026-04-11T12:03:36.001Z</time></trkpt><trkpt lat="43.0267761" lon="13.3007537"><ele>481.0</ele><time>2026-04-11T12:03:36.99Z</time></trkpt><trkpt lat="43.0268989" lon="13.3007841"><ele>481.0</ele><time>2026-04-11T12:03:37.997Z</time></trkpt><trkpt lat="43.027012" lon="13.3008048"><ele>480.6</ele><time>2026-04-11T12:03:39.012Z</time></trkpt><trkpt lat="43.0271157" lon="13.3008287"><ele>480.20000000000005</ele><time>2026-04-11T12:03:40.012Z</time></trkpt><trkpt lat="43.0272277" lon="13.3008496"><ele>479.79999999999995</ele><time>2026-04-11T12:03:41.003Z</time></trkpt><trkpt lat="43.02733" lon="13.3008813"><ele>479.4</ele><time>2026-04-11T12:03:41.98Z</time></trkpt><trkpt lat="43.0274255" lon="13.3009571"><ele>479.0</ele><time>2026-04-11T12:03:42.986Z</time></trkpt><trkpt lat="43.0275063" lon="13.3010923"><ele>478.66666666666663</ele><time>2026-04-11T12:03:43.999Z</time></trkpt><trkpt lat="43.027588" lon="13.301255"><ele>478.33333333333337</ele><time>2026-04-11T12:03:44.998Z</time></trkpt><trkpt lat="43.0276726" lon="13.3014485"><ele>478.0</ele><time>2026-04-11T12:03:45.996Z</time></trkpt><trkpt lat="43.0277614" lon="13.3016518"><ele>478.0</ele><time>2026-04-11T12:03:46.96Z</time></trkpt><trkpt lat="43.0278477" lon="13.3018368"><ele>478.0</ele><time>2026-04-11T12:03:48.011Z</time></trkpt><trkpt lat="43.0279244" lon="13.3020095"><ele>478.0</ele><time>2026-04-11T12:03:49.001Z</time></trkpt><trkpt lat="43.0280236" lon="13.3021765"><ele>477.0</ele><time>2026-04-11T12:03:49.994Z</time></trkpt><trkpt lat="43.0281311" lon="13.3023541"><ele>476.0</ele><time>2026-04-11T12:03:50.97Z</time></trkpt><trkpt lat="43.0282337" lon="13.3025379"><ele>475.0</ele><time>2026-04-11T12:03:52Z</time></trkpt><trkpt lat="43.0283247" lon="13.3027067"><ele>474.25</ele><time>2026-04-11T12:03:52.978Z</time></trkpt><trkpt lat="43.0284028" lon="13.3028577"><ele>473.5</ele><time>2026-04-11T12:03:53.999Z</time></trkpt><trkpt lat="43.0284741" lon="13.3029905"><ele>472.75</ele><time>2026-04-11T12:03:54.982Z</time></trkpt><trkpt lat="43.0285368" lon="13.3031079"><ele>472.0</ele><time>2026-04-11T12:03:55.992Z</time></trkpt><trkpt lat="43.0285894" lon="13.3032075"><ele>471.6</ele><time>2026-04-11T12:03:56.962Z</time></trkpt><trkpt lat="43.028633" lon="13.3032928"><ele>471.20000000000005</ele><time>2026-04-11T12:03:57.993Z</time></trkpt><trkpt lat="43.0286978" lon="13.3034086"><ele>470.8</ele><time>2026-04-11T12:04:00.019Z</time></trkpt><trkpt lat="43.0287943" lon="13.303527"><ele>470.4</ele><time>2026-04-11T12:04:04.984Z</time></trkpt><trkpt lat="43.0288953" lon="13.3035536"><ele>470.0</ele><time>2026-04-11T12:04:06.999Z</time></trkpt><trkpt lat="43.0289744" lon="13.3035209"><ele>470.0</ele><time>2026-04-11T12:04:07.966Z</time></trkpt><trkpt lat="43.0290896" lon="13.3034086"><ele>470.0</ele><time>2026-04-11T12:04:09.002Z</time></trkpt><trkpt lat="43.0292195" lon="13.303285"><ele>470.0</ele><time>2026-04-11T12:04:10.008Z</time></trkpt><trkpt lat="43.0293596" lon="13.3031643"><ele>469.75</ele><time>2026-04-11T12:04:11.061Z</time></trkpt><trkpt lat="43.0294965" lon="13.3030639"><ele>469.5</ele><time>2026-04-11T12:04:11.966Z</time></trkpt><trkpt lat="43.0296147" lon="13.3029957"><ele>469.25</ele><time>2026-04-11T12:04:12.992Z</time></trkpt><trkpt lat="43.0297284" lon="13.3029533"><ele>469.0</ele><time>2026-04-11T12:04:14.024Z</time></trkpt><trkpt lat="43.0298268" lon="13.3029504"><ele>469.0</ele><time>2026-04-11T12:04:15.003Z</time></trkpt><trkpt lat="43.0299528" lon="13.3029443"><ele>469.0</ele><time>2026-04-11T12:04:15.999Z</time></trkpt><trkpt lat="43.0301291" lon="13.3029796"><ele>469.0</ele><time>2026-04-11T12:04:16.95Z</time></trkpt><trkpt lat="43.0302947" lon="13.3030142"><ele>468.0</ele><time>2026-04-11T12:04:18.006Z</time></trkpt><trkpt lat="43.0304396" lon="13.3030308"><ele>467.0</ele><time>2026-04-11T12:04:18.983Z</time></trkpt><trkpt lat="43.0305634" lon="13.3030476"><ele>466.0</ele><time>2026-04-11T12:04:20.005Z</time></trkpt><trkpt lat="43.0306564" lon="13.3030639"><ele>465.0</ele><time>2026-04-11T12:04:20.986Z</time></trkpt><trkpt lat="43.0307284" lon="13.3030692"><ele>464.0</ele><time>2026-04-11T12:04:22.012Z</time></trkpt><trkpt lat="43.0308315" lon="13.3030383"><ele>464.0</ele><time>2026-04-11T12:04:23.996Z</time></trkpt><trkpt lat="43.0308985" lon="13.302914"><ele>464.0</ele><time>2026-04-11T12:04:26.01Z</time></trkpt><trkpt lat="43.0309133" lon="13.3027771"><ele>464.0</ele><time>2026-04-11T12:04:26.987Z</time></trkpt><trkpt lat="43.0309288" lon="13.3025945"><ele>464.0</ele><time>2026-04-11T12:04:27.99Z</time></trkpt><trkpt lat="43.030984" lon="13.3024014"><ele>464.3333333333333</ele><time>2026-04-11T12:04:28.968Z</time></trkpt><trkpt lat="43.0310488" lon="13.3022186"><ele>464.66666666666663</ele><time>2026-04-11T12:04:29.999Z</time></trkpt><trkpt lat="43.0311824" lon="13.3020352"><ele>465.0</ele><time>2026-04-11T12:04:31Z</time></trkpt><trkpt lat="43.0314006" lon="13.3019016"><ele>465.0</ele><time>2026-04-11T12:04:32.024Z</time></trkpt><trkpt lat="43.0315983" lon="13.3017637"><ele>465.0</ele><time>2026-04-11T12:04:32.992Z</time></trkpt><trkpt lat="43.0317826" lon="13.3016375"><ele>465.0</ele><time>2026-04-11T12:04:33.984Z</time></trkpt><trkpt lat="43.031976" lon="13.3015923"><ele>467.0</ele><time>2026-04-11T12:04:34.995Z</time></trkpt><trkpt lat="43.0322178" lon="13.3016096"><ele>469.0</ele><time>2026-04-11T12:04:35.995Z</time></trkpt><trkpt lat="43.0324589" lon="13.3016504"><ele>470.6666666666667</ele><time>2026-04-11T12:04:36.973Z</time></trkpt><trkpt lat="43.0326719" lon="13.3016651"><ele>472.33333333333337</ele><time>2026-04-11T12:04:37.958Z</time></trkpt><trkpt lat="43.032856" lon="13.3016706"><ele>474.0</ele><time>2026-04-11T12:04:39.044Z</time></trkpt><trkpt lat="43.0329989" lon="13.3016693"><ele>474.0</ele><time>2026-04-11T12:04:39.994Z</time></trkpt><trkpt lat="43.0331243" lon="13.3016689"><ele>474.0</ele><time>2026-04-11T12:04:41Z</time></trkpt><trkpt lat="43.0332284" lon="13.3016995"><ele>474.0</ele><time>2026-04-11T12:04:42.016Z</time></trkpt><trkpt lat="43.0333264" lon="13.3017429"><ele>474.0</ele><time>2026-04-11T12:04:43.009Z</time></trkpt><trkpt lat="43.033385" lon="13.3018593"><ele>474.0</ele><time>2026-04-11T12:04:43.994Z</time></trkpt><trkpt lat="43.0334069" lon="13.3019857"><ele>475.6</ele><time>2026-04-11T12:04:44.945Z</time></trkpt><trkpt lat="43.0334116" lon="13.3021167"><ele>477.2</ele><time>2026-04-11T12:04:46.002Z</time></trkpt><trkpt lat="43.0333821" lon="13.3022472"><ele>478.80000000000007</ele><time>2026-04-11T12:04:46.982Z</time></trkpt><trkpt lat="43.033347" lon="13.3023736"><ele>480.40000000000003</ele><time>2026-04-11T12:04:47.995Z</time></trkpt><trkpt lat="43.0333196" lon="13.3024991"><ele>482.0</ele><time>2026-04-11T12:04:48.995Z</time></trkpt><trkpt lat="43.0333085" lon="13.3026233"><ele>482.20000000000005</ele><time>2026-04-11T12:04:49.973Z</time></trkpt><trkpt lat="43.0333162" lon="13.3027575"><ele>482.40000000000003</ele><time>2026-04-11T12:04:51.011Z</time></trkpt><trkpt lat="43.0333405" lon="13.302897"><ele>482.59999999999997</ele><time>2026-04-11T12:04:51.992Z</time></trkpt><trkpt lat="43.0333725" lon="13.3030306"><ele>482.79999999999995</ele><time>2026-04-11T12:04:53.004Z</time></trkpt><trkpt lat="43.0334184" lon="13.3031439"><ele>483.0</ele><time>2026-04-11T12:04:53.981Z</time></trkpt><trkpt lat="43.0334779" lon="13.3032361"><ele>483.0</ele><time>2026-04-11T12:04:55.043Z</time></trkpt><trkpt lat="43.033541" lon="13.30332"><ele>483.0</ele><time>2026-04-11T12:04:56.004Z</time></trkpt><trkpt lat="43.0336039" lon="13.3033978"><ele>483.0</ele><time>2026-04-11T12:04:57.007Z</time></trkpt><trkpt lat="43.0336686" lon="13.3034735"><ele>483.0</ele><time>2026-04-11T12:04:57.977Z</time></trkpt><trkpt lat="43.0337372" lon="13.3035316"><ele>483.0</ele><time>2026-04-11T12:04:59.001Z</time></trkpt><trkpt lat="43.033809" lon="13.3035814"><ele>483.0</ele><time>2026-04-11T12:05:00.017Z</time></trkpt><trkpt lat="43.0338957" lon="13.3035701"><ele>483.0</ele><time>2026-04-11T12:05:01.003Z</time></trkpt><trkpt lat="43.0339599" lon="13.3035065"><ele>482.99999999999994</ele><time>2026-04-11T12:05:02.008Z</time></trkpt><trkpt lat="43.0340006" lon="13.3034138"><ele>482.99999999999994</ele><time>2026-04-11T12:05:02.95Z</time></trkpt><trkpt lat="43.0340008" lon="13.3032938"><ele>483.0</ele><time>2026-04-11T12:05:03.99Z</time></trkpt><trkpt lat="43.0339834" lon="13.3031569"><ele>483.0</ele><time>2026-04-11T12:05:04.967Z</time></trkpt><trkpt lat="43.033952" lon="13.303013"><ele>483.0</ele><time>2026-04-11T12:05:06.007Z</time></trkpt><trkpt lat="43.033923" lon="13.3028815"><ele>482.99999999999994</ele><time>2026-04-11T12:05:06.976Z</time></trkpt><trkpt lat="43.0338979" lon="13.3027489"><ele>482.99999999999994</ele><time>2026-04-11T12:05:07.942Z</time></trkpt><trkpt lat="43.0338722" lon="13.3026197"><ele>483.0</ele><time>2026-04-11T12:05:08.996Z</time></trkpt><trkpt lat="43.0338548" lon="13.3024921"><ele>483.0</ele><time>2026-04-11T12:05:09.961Z</time></trkpt><trkpt lat="43.0338539" lon="13.3023464"><ele>482.75</ele><time>2026-04-11T12:05:10.965Z</time></trkpt><trkpt lat="43.0338782" lon="13.3021828"><ele>482.5</ele><time>2026-04-11T12:05:11.958Z</time></trkpt><trkpt lat="43.0339097" lon="13.3020281"><ele>482.25</ele><time>2026-04-11T12:05:12.937Z</time></trkpt><trkpt lat="43.0339764" lon="13.3018626"><ele>482.0</ele><time>2026-04-11T12:05:13.955Z</time></trkpt><trkpt lat="43.0341206" lon="13.3016326"><ele>485.66666666666663</ele><time>2026-04-11T12:05:14.975Z</time></trkpt><trkpt lat="43.0342578" lon="13.3014046"><ele>489.33333333333337</ele><time>2026-04-11T12:05:15.99Z</time></trkpt><trkpt lat="43.0343871" lon="13.301159"><ele>493.0</ele><time>2026-04-11T12:05:16.989Z</time></trkpt><trkpt lat="43.03449" lon="13.3009553"><ele>493.0</ele><time>2026-04-11T12:05:17.962Z</time></trkpt><trkpt lat="43.0345851" lon="13.3008246"><ele>493.0</ele><time>2026-04-11T12:05:18.989Z</time></trkpt><trkpt lat="43.0347199" lon="13.3006549"><ele>493.0</ele><time>2026-04-11T12:05:19.983Z</time></trkpt><trkpt lat="43.0348847" lon="13.3005327"><ele>496.0</ele><time>2026-04-11T12:05:20.977Z</time></trkpt><trkpt lat="43.0350316" lon="13.3003963"><ele>499.0</ele><time>2026-04-11T12:05:21.985Z</time></trkpt><trkpt lat="43.0351503" lon="13.3002868"><ele>502.0</ele><time>2026-04-11T12:05:22.947Z</time></trkpt><trkpt lat="43.035243" lon="13.3001936"><ele>505.0</ele><time>2026-04-11T12:05:23.988Z</time></trkpt><trkpt lat="43.0353081" lon="13.3001823"><ele>505.0</ele><time>2026-04-11T12:05:24.978Z</time></trkpt><trkpt lat="43.0353997" lon="13.3002044"><ele>505.0</ele><time>2026-04-11T12:05:26.965Z</time></trkpt><trkpt lat="43.0353039" lon="13.3003557"><ele>505.0</ele><time>2026-04-11T12:05:31.017Z</time></trkpt><trkpt lat="43.0352307" lon="13.3003676"><ele>505.0</ele><time>2026-04-11T12:05:31.995Z</time></trkpt><trkpt lat="43.0351528" lon="13.300415"><ele>505.0</ele><time>2026-04-11T12:05:32.951Z</time></trkpt><trkpt lat="43.0350732" lon="13.3005033"><ele>502.0</ele><time>2026-04-11T12:05:33.963Z</time></trkpt><trkpt lat="43.0349563" lon="13.3005948"><ele>499.0</ele><time>2026-04-11T12:05:34.973Z</time></trkpt><trkpt lat="43.03482" lon="13.3007059"><ele>496.0</ele><time>2026-04-11T12:05:35.968Z</time></trkpt><trkpt lat="43.0347265" lon="13.3008095"><ele>493.0</ele><time>2026-04-11T12:05:37.042Z</time></trkpt><trkpt lat="43.034684" lon="13.3009098"><ele>493.0</ele><time>2026-04-11T12:05:37.949Z</time></trkpt><trkpt lat="43.0346619" lon="13.3010038"><ele>492.99999999999994</ele><time>2026-04-11T12:05:38.981Z</time></trkpt><trkpt lat="43.0346459" lon="13.3011692"><ele>492.99999999999994</ele><time>2026-04-11T12:05:40.98Z</time></trkpt><trkpt lat="43.0346626" lon="13.3013109"><ele>493.0</ele><time>2026-04-11T12:05:42.947Z</time></trkpt><trkpt lat="43.0346244" lon="13.3014011"><ele>493.0</ele><time>2026-04-11T12:05:45.978Z</time></trkpt><trkpt lat="43.0345618" lon="13.3015572"><ele>494.59999999999997</ele><time>2026-04-11T12:05:47.955Z</time></trkpt><trkpt lat="43.0344924" lon="13.3016594"><ele>496.19999999999993</ele><time>2026-04-11T12:05:48.969Z</time></trkpt><trkpt lat="43.0344301" lon="13.3017519"><ele>497.8</ele><time>2026-04-11T12:05:49.96Z</time></trkpt><trkpt lat="43.0343997" lon="13.3018529"><ele>499.4</ele><time>2026-04-11T12:05:50.965Z</time></trkpt><trkpt lat="43.0343752" lon="13.3019664"><ele>501.0</ele><time>2026-04-11T12:05:52.95Z</time></trkpt><trkpt lat="43.0344741" lon="13.301953"><ele>501.0</ele><time>2026-04-11T12:06:06.018Z</time></trkpt><trkpt lat="43.0345622" lon="13.3018456"><ele>501.0</ele><time>2026-04-11T12:06:07.01Z</time></trkpt><trkpt lat="43.0346012" lon="13.3017769"><ele>501.0</ele><time>2026-04-11T12:06:07.944Z</time></trkpt><trkpt lat="43.0346524" lon="13.3017022"><ele>501.0</ele><time>2026-04-11T12:06:08.993Z</time></trkpt><trkpt lat="43.0347153" lon="13.3016237"><ele>501.0</ele><time>2026-04-11T12:06:09.939Z</time></trkpt><trkpt lat="43.0347774" lon="13.301553"><ele>501.0</ele><time>2026-04-11T12:06:10.957Z</time></trkpt><trkpt lat="43.0348329" lon="13.3014795"><ele>499.0</ele><time>2026-04-11T12:06:11.956Z</time></trkpt><trkpt lat="43.0348566" lon="13.3013837"><ele>497.0</ele><time>2026-04-11T12:06:13.965Z</time></trkpt><trkpt lat="43.0349925" lon="13.3013539"><ele>495.0</ele><time>2026-04-11T12:08:10.975Z</time></trkpt><trkpt lat="43.0351596" lon="13.3013158"><ele>493.0</ele><time>2026-04-11T12:08:14.984Z</time></trkpt><trkpt lat="43.0352217" lon="13.3012204"><ele>496.59999999999997</ele><time>2026-04-11T12:08:17.989Z</time></trkpt><trkpt lat="43.0353021" lon="13.3011161"><ele>500.19999999999993</ele><time>2026-04-11T12:08:20.02Z</time></trkpt><trkpt lat="43.0353736" lon="13.300997"><ele>503.8</ele><time>2026-04-11T12:08:21.001Z</time></trkpt><trkpt lat="43.0354321" lon="13.3008722"><ele>507.4</ele><time>2026-04-11T12:08:21.974Z</time></trkpt><trkpt lat="43.0354817" lon="13.3007777"><ele>511.0</ele><time>2026-04-11T12:08:22.931Z</time></trkpt><trkpt lat="43.0355451" lon="13.3007182"><ele>511.00000000000006</ele><time>2026-04-11T12:08:23.94Z</time></trkpt><trkpt lat="43.0356226" lon="13.3006576"><ele>511.0</ele><time>2026-04-11T12:08:24.963Z</time></trkpt><trkpt lat="43.0356972" lon="13.3005988"><ele>511.0</ele><time>2026-04-11T12:08:25.948Z</time></trkpt><trkpt lat="43.0357641" lon="13.3005436"><ele>511.0</ele><time>2026-04-11T12:08:26.972Z</time></trkpt><trkpt lat="43.0358265" lon="13.3004962"><ele>511.00000000000006</ele><time>2026-04-11T12:08:27.964Z</time></trkpt><trkpt lat="43.0358849" lon="13.3004512"><ele>511.0</ele><time>2026-04-11T12:08:28.938Z</time></trkpt><trkpt lat="43.0359298" lon="13.3003697"><ele>512.0</ele><time>2026-04-11T12:08:30.941Z</time></trkpt><trkpt lat="43.0358245" lon="13.3003549"><ele>513.0</ele><time>2026-04-11T12:08:36.988Z</time></trkpt><trkpt lat="43.0357274" lon="13.3003409"><ele>514.0</ele><time>2026-04-11T12:08:37.954Z</time></trkpt><trkpt lat="43.0356609" lon="13.3002902"><ele>515.0</ele><time>2026-04-11T12:08:39.028Z</time></trkpt><trkpt lat="43.0355985" lon="13.3002444"><ele>516.0</ele><time>2026-04-11T12:08:39.947Z</time></trkpt><trkpt lat="43.0355445" lon="13.3000967"><ele>513.75</ele><time>2026-04-11T12:08:42.002Z</time></trkpt><trkpt lat="43.0356091" lon="13.299917"><ele>511.5</ele><time>2026-04-11T12:08:43.985Z</time></trkpt><trkpt lat="43.0356761" lon="13.2997696"><ele>509.25</ele><time>2026-04-11T12:08:44.976Z</time></trkpt><trkpt lat="43.0357116" lon="13.2995864"><ele>507.0</ele><time>2026-04-11T12:08:46Z</time></trkpt><trkpt lat="43.0357228" lon="13.2993852"><ele>507.0</ele><time>2026-04-11T12:08:46.995Z</time></trkpt><trkpt lat="43.0357378" lon="13.2991733"><ele>507.0</ele><time>2026-04-11T12:08:47.982Z</time></trkpt><trkpt lat="43.0357421" lon="13.2989654"><ele>507.0</ele><time>2026-04-11T12:08:48.973Z</time></trkpt><trkpt lat="43.0357512" lon="13.2987565"><ele>509.33333333333337</ele><time>2026-04-11T12:08:49.962Z</time></trkpt><trkpt lat="43.0358009" lon="13.2985506"><ele>511.6666666666667</ele><time>2026-04-11T12:08:50.994Z</time></trkpt><trkpt lat="43.0358887" lon="13.2983696"><ele>514.0</ele><time>2026-04-11T12:08:51.995Z</time></trkpt><trkpt lat="43.035996" lon="13.2982089"><ele>515.75</ele><time>2026-04-11T12:08:52.988Z</time></trkpt><trkpt lat="43.0361099" lon="13.2980852"><ele>517.5</ele><time>2026-04-11T12:08:53.969Z</time></trkpt><trkpt lat="43.0362322" lon="13.2980038"><ele>519.25</ele><time>2026-04-11T12:08:55.017Z</time></trkpt><trkpt lat="43.0363494" lon="13.2979263"><ele>521.0</ele><time>2026-04-11T12:08:55.956Z</time></trkpt><trkpt lat="43.0364681" lon="13.2978844"><ele>522.3333333333333</ele><time>2026-04-11T12:08:56.983Z</time></trkpt><trkpt lat="43.0365992" lon="13.2978587"><ele>523.6666666666666</ele><time>2026-04-11T12:08:57.993Z</time></trkpt><trkpt lat="43.0367546" lon="13.2978768"><ele>525.0</ele><time>2026-04-11T12:08:58.988Z</time></trkpt><trkpt lat="43.0369159" lon="13.2979074"><ele>526.0</ele><time>2026-04-11T12:09:00.002Z</time></trkpt><trkpt lat="43.0370784" lon="13.2979317"><ele>527.0</ele><time>2026-04-11T12:09:00.994Z</time></trkpt><trkpt lat="43.0372293" lon="13.297906"><ele>528.0</ele><time>2026-04-11T12:09:02.006Z</time></trkpt><trkpt lat="43.037381" lon="13.2978057"><ele>529.6666666666666</ele><time>2026-04-11T12:09:03.005Z</time></trkpt><trkpt lat="43.0375264" lon="13.2976697"><ele>531.3333333333333</ele><time>2026-04-11T12:09:03.998Z</time></trkpt><trkpt lat="43.037648" lon="13.2974604"><ele>533.0</ele><time>2026-04-11T12:09:04.967Z</time></trkpt><trkpt lat="43.0377964" lon="13.2972411"><ele>533.0</ele><time>2026-04-11T12:09:05.966Z</time></trkpt><trkpt lat="43.0379622" lon="13.296998"><ele>533.0</ele><time>2026-04-11T12:09:06.994Z</time></trkpt><trkpt lat="43.0381309" lon="13.2967479"><ele>528.5</ele><time>2026-04-11T12:09:07.957Z</time></trkpt><trkpt lat="43.0383031" lon="13.2964947"><ele>524.0</ele><time>2026-04-11T12:09:08.945Z</time></trkpt><trkpt lat="43.0384658" lon="13.2962514"><ele>524.0</ele><time>2026-04-11T12:09:09.957Z</time></trkpt><trkpt lat="43.038602" lon="13.2960085"><ele>524.0</ele><time>2026-04-11T12:09:10.983Z</time></trkpt><trkpt lat="43.0387237" lon="13.2957816"><ele>524.0</ele><time>2026-04-11T12:09:11.998Z</time></trkpt><trkpt lat="43.0388102" lon="13.2955364"><ele>528.0</ele><time>2026-04-11T12:09:13.031Z</time></trkpt><trkpt lat="43.0388781" lon="13.2952585"><ele>532.0</ele><time>2026-04-11T12:09:13.967Z</time></trkpt><trkpt lat="43.0389379" lon="13.2949352"><ele>532.0</ele><time>2026-04-11T12:09:14.953Z</time></trkpt><trkpt lat="43.0389613" lon="13.2946012"><ele>532.0</ele><time>2026-04-11T12:09:15.942Z</time></trkpt><trkpt lat="43.0389588" lon="13.2942626"><ele>532.0</ele><time>2026-04-11T12:09:16.989Z</time></trkpt><trkpt lat="43.0389562" lon="13.2939875"><ele>532.0</ele><time>2026-04-11T12:09:17.949Z</time></trkpt><trkpt lat="43.0389245" lon="13.2937621"><ele>532.0</ele><time>2026-04-11T12:09:18.962Z</time></trkpt><trkpt lat="43.0389321" lon="13.2935678"><ele>531.0</ele><time>2026-04-11T12:09:19.997Z</time></trkpt><trkpt lat="43.0389819" lon="13.2933923"><ele>530.0</ele><time>2026-04-11T12:09:20.984Z</time></trkpt><trkpt lat="43.0390414" lon="13.2932154"><ele>529.0</ele><time>2026-04-11T12:09:22.047Z</time></trkpt><trkpt lat="43.0391516" lon="13.2930476"><ele>528.0</ele><time>2026-04-11T12:09:23.008Z</time></trkpt><trkpt lat="43.0392568" lon="13.292852"><ele>526.0</ele><time>2026-04-11T12:09:23.954Z</time></trkpt><trkpt lat="43.0393565" lon="13.2926181"><ele>524.0</ele><time>2026-04-11T12:09:24.957Z</time></trkpt><trkpt lat="43.0394413" lon="13.2923278"><ele>522.0</ele><time>2026-04-11T12:09:25.986Z</time></trkpt><trkpt lat="43.0395101" lon="13.2919856"><ele>522.0</ele><time>2026-04-11T12:09:26.987Z</time></trkpt><trkpt lat="43.0395974" lon="13.2916409"><ele>522.0</ele><time>2026-04-11T12:09:27.984Z</time></trkpt><trkpt lat="43.0396916" lon="13.2912728"><ele>523.0</ele><time>2026-04-11T12:09:28.952Z</time></trkpt><trkpt lat="43.0398025" lon="13.2908901"><ele>524.0</ele><time>2026-04-11T12:09:29.986Z</time></trkpt><trkpt lat="43.0399144" lon="13.2905013"><ele>512.5</ele><time>2026-04-11T12:09:30.99Z</time></trkpt><trkpt lat="43.0400259" lon="13.290148"><ele>501.0</ele><time>2026-04-11T12:09:31.988Z</time></trkpt><trkpt lat="43.0401221" lon="13.2898439"><ele>502.0</ele><time>2026-04-11T12:09:32.997Z</time></trkpt><trkpt lat="43.0402267" lon="13.2895503"><ele>503.0</ele><time>2026-04-11T12:09:33.966Z</time></trkpt><trkpt lat="43.0403375" lon="13.2892733"><ele>503.0</ele><time>2026-04-11T12:09:34.973Z</time></trkpt><trkpt lat="43.0404806" lon="13.2890068"><ele>503.0</ele><time>2026-04-11T12:09:35.996Z</time></trkpt><trkpt lat="43.0406137" lon="13.2887389"><ele>502.3333333333333</ele><time>2026-04-11T12:09:37.002Z</time></trkpt><trkpt lat="43.0407425" lon="13.2884957"><ele>501.66666666666663</ele><time>2026-04-11T12:09:37.967Z</time></trkpt><trkpt lat="43.0408576" lon="13.2882637"><ele>501.0</ele><time>2026-04-11T12:09:38.967Z</time></trkpt><trkpt lat="43.040974" lon="13.2880322"><ele>500.66666666666663</ele><time>2026-04-11T12:09:39.974Z</time></trkpt><trkpt lat="43.0410867" lon="13.2878208"><ele>500.3333333333333</ele><time>2026-04-11T12:09:40.956Z</time></trkpt><trkpt lat="43.0412026" lon="13.2876166"><ele>500.0</ele><time>2026-04-11T12:09:41.996Z</time></trkpt><trkpt lat="43.0413169" lon="13.2874352"><ele>500.0</ele><time>2026-04-11T12:09:42.995Z</time></trkpt><trkpt lat="43.0414433" lon="13.2872728"><ele>500.0</ele><time>2026-04-11T12:09:43.968Z</time></trkpt><trkpt lat="43.041612" lon="13.2871423"><ele>500.0</ele><time>2026-04-11T12:09:44.958Z</time></trkpt><trkpt lat="43.0418007" lon="13.2870561"><ele>501.0</ele><time>2026-04-11T12:09:45.95Z</time></trkpt><trkpt lat="43.0420039" lon="13.2869878"><ele>502.0</ele><time>2026-04-11T12:09:46.97Z</time></trkpt><trkpt lat="43.0421946" lon="13.2869173"><ele>503.0</ele><time>2026-04-11T12:09:47.957Z</time></trkpt><trkpt lat="43.0423826" lon="13.2868239"><ele>500.0</ele><time>2026-04-11T12:09:48.955Z</time></trkpt><trkpt lat="43.0425586" lon="13.2867153"><ele>497.0</ele><time>2026-04-11T12:09:50.015Z</time></trkpt><trkpt lat="43.042752" lon="13.2866151"><ele>494.0</ele><time>2026-04-11T12:09:50.981Z</time></trkpt><trkpt lat="43.042943" lon="13.2864471"><ele>494.66666666666663</ele><time>2026-04-11T12:09:51.968Z</time></trkpt><trkpt lat="43.0431116" lon="13.2862228"><ele>495.33333333333337</ele><time>2026-04-11T12:09:52.961Z</time></trkpt><trkpt lat="43.0432352" lon="13.2860024"><ele>496.0</ele><time>2026-04-11T12:09:53.99Z</time></trkpt><trkpt lat="43.0433359" lon="13.2858222"><ele>496.0</ele><time>2026-04-11T12:09:54.955Z</time></trkpt><trkpt lat="43.0434184" lon="13.2856543"><ele>496.0</ele><time>2026-04-11T12:09:55.969Z</time></trkpt><trkpt lat="43.0434725" lon="13.2854876"><ele>496.0</ele><time>2026-04-11T12:09:56.965Z</time></trkpt><trkpt lat="43.0435129" lon="13.285321"><ele>496.0</ele><time>2026-04-11T12:09:57.991Z</time></trkpt><trkpt lat="43.0435662" lon="13.2851575"><ele>498.5</ele><time>2026-04-11T12:09:58.96Z</time></trkpt><trkpt lat="43.0436325" lon="13.2850158"><ele>501.0</ele><time>2026-04-11T12:10:00.053Z</time></trkpt><trkpt lat="43.0436982" lon="13.2848783"><ele>503.5</ele><time>2026-04-11T12:10:00.982Z</time></trkpt><trkpt lat="43.0437878" lon="13.2847697"><ele>506.0</ele><time>2026-04-11T12:10:01.985Z</time></trkpt><trkpt lat="43.0438792" lon="13.2846691"><ele>507.0</ele><time>2026-04-11T12:10:02.986Z</time></trkpt><trkpt lat="43.0439692" lon="13.2845596"><ele>508.0</ele><time>2026-04-11T12:10:03.962Z</time></trkpt><trkpt lat="43.044065" lon="13.2844595"><ele>509.0</ele><time>2026-04-11T12:10:04.982Z</time></trkpt><trkpt lat="43.0441546" lon="13.2843566"><ele>510.0</ele><time>2026-04-11T12:10:05.986Z</time></trkpt><trkpt lat="43.04425" lon="13.2842713"><ele>510.0</ele><time>2026-04-11T12:10:06.987Z</time></trkpt><trkpt lat="43.0443498" lon="13.2841738"><ele>510.0</ele><time>2026-04-11T12:10:07.985Z</time></trkpt><trkpt lat="43.0444514" lon="13.2840696"><ele>510.0</ele><time>2026-04-11T12:10:08.955Z</time></trkpt><trkpt lat="43.0445494" lon="13.2839695"><ele>510.0</ele><time>2026-04-11T12:10:09.996Z</time></trkpt><trkpt lat="43.0446373" lon="13.2838813"><ele>511.5</ele><time>2026-04-11T12:10:11.063Z</time></trkpt><trkpt lat="43.0447376" lon="13.2837772"><ele>513.0</ele><time>2026-04-11T12:10:11.988Z</time></trkpt><trkpt lat="43.044848" lon="13.2836804"><ele>514.5</ele><time>2026-04-11T12:10:13.001Z</time></trkpt><trkpt lat="43.0449676" lon="13.2835863"><ele>516.0</ele><time>2026-04-11T12:10:13.958Z</time></trkpt><trkpt lat="43.0451079" lon="13.2834995"><ele>512.5</ele><time>2026-04-11T12:10:14.954Z</time></trkpt><trkpt lat="43.0452413" lon="13.2834305"><ele>509.0</ele><time>2026-04-11T12:10:15.997Z</time></trkpt><trkpt lat="43.045369" lon="13.2833521"><ele>505.5</ele><time>2026-04-11T12:10:16.954Z</time></trkpt><trkpt lat="43.0454936" lon="13.2832794"><ele>502.0</ele><time>2026-04-11T12:10:17.995Z</time></trkpt><trkpt lat="43.0456129" lon="13.2832167"><ele>502.0</ele><time>2026-04-11T12:10:18.959Z</time></trkpt><trkpt lat="43.0457208" lon="13.2831412"><ele>502.0</ele><time>2026-04-11T12:10:19.986Z</time></trkpt><trkpt lat="43.0458331" lon="13.2830445"><ele>502.0</ele><time>2026-04-11T12:10:21Z</time></trkpt><trkpt lat="43.0459402" lon="13.2829267"><ele>502.0</ele><time>2026-04-11T12:10:22.017Z</time></trkpt><trkpt lat="43.0460357" lon="13.2827948"><ele>502.0</ele><time>2026-04-11T12:10:22.981Z</time></trkpt><trkpt lat="43.0461331" lon="13.2826585"><ele>502.0</ele><time>2026-04-11T12:10:23.957Z</time></trkpt><trkpt lat="43.0462209" lon="13.2825131"><ele>502.0</ele><time>2026-04-11T12:10:24.989Z</time></trkpt><trkpt lat="43.0463133" lon="13.2823765"><ele>502.0</ele><time>2026-04-11T12:10:25.994Z</time></trkpt><trkpt lat="43.0464072" lon="13.2822568"><ele>502.0</ele><time>2026-04-11T12:10:26.949Z</time></trkpt><trkpt lat="43.0464999" lon="13.2821399"><ele>502.0</ele><time>2026-04-11T12:10:27.98Z</time></trkpt><trkpt lat="43.0466052" lon="13.2820363"><ele>502.0</ele><time>2026-04-11T12:10:28.939Z</time></trkpt><trkpt lat="43.0467268" lon="13.2819836"><ele>502.0</ele><time>2026-04-11T12:10:30.002Z</time></trkpt><trkpt lat="43.0468566" lon="13.281935"><ele>505.0</ele><time>2026-04-11T12:10:30.986Z</time></trkpt><trkpt lat="43.0469738" lon="13.2818992"><ele>508.0</ele><time>2026-04-11T12:10:31.968Z</time></trkpt><trkpt lat="43.0470966" lon="13.2818465"><ele>511.0</ele><time>2026-04-11T12:10:32.973Z</time></trkpt><trkpt lat="43.047205" lon="13.2818029"><ele>514.0</ele><time>2026-04-11T12:10:33.976Z</time></trkpt><trkpt lat="43.047315" lon="13.2817603"><ele>514.0</ele><time>2026-04-11T12:10:34.986Z</time></trkpt><trkpt lat="43.047445" lon="13.2817408"><ele>514.0</ele><time>2026-04-11T12:10:35.993Z</time></trkpt><trkpt lat="43.0475894" lon="13.281704"><ele>514.0</ele><time>2026-04-11T12:10:36.989Z</time></trkpt><trkpt lat="43.0477274" lon="13.2816646"><ele>514.0</ele><time>2026-04-11T12:10:37.972Z</time></trkpt><trkpt lat="43.0478688" lon="13.2816257"><ele>514.75</ele><time>2026-04-11T12:10:38.943Z</time></trkpt><trkpt lat="43.0479979" lon="13.2815387"><ele>515.5</ele><time>2026-04-11T12:10:39.941Z</time></trkpt><trkpt lat="43.0481079" lon="13.2814262"><ele>516.25</ele><time>2026-04-11T12:10:40.941Z</time></trkpt><trkpt lat="43.0481998" lon="13.2813213"><ele>517.0</ele><time>2026-04-11T12:10:41.938Z</time></trkpt><trkpt lat="43.0482884" lon="13.2812148"><ele>518.25</ele><time>2026-04-11T12:10:42.934Z</time></trkpt><trkpt lat="43.0483788" lon="13.2811042"><ele>519.5</ele><time>2026-04-11T12:10:43.954Z</time></trkpt><trkpt lat="43.0484677" lon="13.2809868"><ele>520.75</ele><time>2026-04-11T12:10:44.936Z</time></trkpt><trkpt lat="43.0485486" lon="13.2808696"><ele>522.0</ele><time>2026-04-11T12:10:45.972Z</time></trkpt><trkpt lat="43.0486235" lon="13.2807569"><ele>522.0</ele><time>2026-04-11T12:10:47.003Z</time></trkpt><trkpt lat="43.0486792" lon="13.2806475"><ele>522.0</ele><time>2026-04-11T12:10:47.954Z</time></trkpt><trkpt lat="43.0487069" lon="13.2805054"><ele>522.0</ele><time>2026-04-11T12:10:48.948Z</time></trkpt><trkpt lat="43.0487439" lon="13.2803455"><ele>522.0</ele><time>2026-04-11T12:10:50.019Z</time></trkpt><trkpt lat="43.048765" lon="13.2801362"><ele>523.0</ele><time>2026-04-11T12:10:50.98Z</time></trkpt><trkpt lat="43.0487591" lon="13.2798989"><ele>524.0</ele><time>2026-04-11T12:10:51.95Z</time></trkpt><trkpt lat="43.0487137" lon="13.2796537"><ele>525.0</ele><time>2026-04-11T12:10:52.943Z</time></trkpt><trkpt lat="43.0486543" lon="13.2794548"><ele>527.0</ele><time>2026-04-11T12:10:54.004Z</time></trkpt><trkpt lat="43.0485981" lon="13.2792751"><ele>529.0</ele><time>2026-04-11T12:10:54.981Z</time></trkpt><trkpt lat="43.0485495" lon="13.279112"><ele>531.0</ele><time>2026-04-11T12:10:56.026Z</time></trkpt><trkpt lat="43.0485034" lon="13.278959"><ele>533.0</ele><time>2026-04-11T12:10:57Z</time></trkpt><trkpt lat="43.0484608" lon="13.27879"><ele>533.5</ele><time>2026-04-11T12:10:57.985Z</time></trkpt><trkpt lat="43.0484481" lon="13.2786162"><ele>534.0</ele><time>2026-04-11T12:10:58.976Z</time></trkpt><trkpt lat="43.0484532" lon="13.2784362"><ele>534.5</ele><time>2026-04-11T12:11:00.075Z</time></trkpt><trkpt lat="43.0484666" lon="13.2782386"><ele>535.0</ele><time>2026-04-11T12:11:01.017Z</time></trkpt><trkpt lat="43.0484981" lon="13.2780576"><ele>535.25</ele><time>2026-04-11T12:11:01.98Z</time></trkpt><trkpt lat="43.0485445" lon="13.2779099"><ele>535.5</ele><time>2026-04-11T12:11:03.003Z</time></trkpt><trkpt lat="43.0486273" lon="13.2777899"><ele>535.75</ele><time>2026-04-11T12:11:04Z</time></trkpt><trkpt lat="43.0487251" lon="13.2776631"><ele>536.0</ele><time>2026-04-11T12:11:04.978Z</time></trkpt><trkpt lat="43.0488233" lon="13.277559"><ele>536.0</ele><time>2026-04-11T12:11:05.995Z</time></trkpt><trkpt lat="43.0489162" lon="13.2774324"><ele>536.0</ele><time>2026-04-11T12:11:07.006Z</time></trkpt><trkpt lat="43.0489925" lon="13.2773164"><ele>536.0</ele><time>2026-04-11T12:11:07.982Z</time></trkpt><trkpt lat="43.0490702" lon="13.277218"><ele>536.0</ele><time>2026-04-11T12:11:09.013Z</time></trkpt><trkpt lat="43.0491738" lon="13.2771316"><ele>535.5</ele><time>2026-04-11T12:11:09.97Z</time></trkpt><trkpt lat="43.0492713" lon="13.2770097"><ele>535.0</ele><time>2026-04-11T12:11:11.056Z</time></trkpt><trkpt lat="43.0493833" lon="13.2768709"><ele>534.5</ele><time>2026-04-11T12:11:11.983Z</time></trkpt><trkpt lat="43.0495113" lon="13.2767314"><ele>534.0</ele><time>2026-04-11T12:11:12.962Z</time></trkpt><trkpt lat="43.0496455" lon="13.2765628"><ele>534.0</ele><time>2026-04-11T12:11:13.992Z</time></trkpt><trkpt lat="43.0497617" lon="13.2764154"><ele>534.0</ele><time>2026-04-11T12:11:14.982Z</time></trkpt><trkpt lat="43.0498686" lon="13.2762865"><ele>534.0</ele><time>2026-04-11T12:11:15.986Z</time></trkpt><trkpt lat="43.0499622" lon="13.2761693"><ele>534.0</ele><time>2026-04-11T12:11:16.998Z</time></trkpt><trkpt lat="43.0500444" lon="13.2760571"><ele>534.6</ele><time>2026-04-11T12:11:18.003Z</time></trkpt><trkpt lat="43.0501174" lon="13.2759594"><ele>535.2</ele><time>2026-04-11T12:11:19.012Z</time></trkpt><trkpt lat="43.0501844" lon="13.2758792"><ele>535.8000000000001</ele><time>2026-04-11T12:11:19.955Z</time></trkpt><trkpt lat="43.0502313" lon="13.2758056"><ele>536.4</ele><time>2026-04-11T12:11:20.962Z</time></trkpt><trkpt lat="43.0502228" lon="13.2756666"><ele>537.0</ele><time>2026-04-11T12:11:22.944Z</time></trkpt><trkpt lat="43.0501621" lon="13.2755668"><ele>537.1666666666666</ele><time>2026-04-11T12:11:24.971Z</time></trkpt><trkpt lat="43.0501728" lon="13.2754593"><ele>537.3333333333334</ele><time>2026-04-11T12:11:27.003Z</time></trkpt><trkpt lat="43.0501923" lon="13.2753689"><ele>537.5</ele><time>2026-04-11T12:11:28.001Z</time></trkpt><trkpt lat="43.0502553" lon="13.2752956"><ele>537.6666666666667</ele><time>2026-04-11T12:11:28.983Z</time></trkpt><trkpt lat="43.0503174" lon="13.2752228"><ele>537.8333333333334</ele><time>2026-04-11T12:11:29.999Z</time></trkpt><trkpt lat="43.0503755" lon="13.2751443"><ele>538.0</ele><time>2026-04-11T12:11:30.996Z</time></trkpt><trkpt lat="43.0504222" lon="13.2750628"><ele>538.0</ele><time>2026-04-11T12:11:32.01Z</time></trkpt><trkpt lat="43.0504757" lon="13.2749802"><ele>538.0</ele><time>2026-04-11T12:11:33.005Z</time></trkpt><trkpt lat="43.0504689" lon="13.2748721"><ele>538.0</ele><time>2026-04-11T12:11:34.999Z</time></trkpt><trkpt lat="43.050402" lon="13.2748556"><ele>538.0</ele><time>2026-04-11T12:18:31.997Z</time></trkpt><trkpt lat="43.0503508" lon="13.2749637"><ele>538.0</ele><time>2026-04-11T12:18:33.019Z</time></trkpt><trkpt lat="43.0503767" lon="13.2751262"><ele>538.0</ele><time>2026-04-11T12:18:34.99Z</time></trkpt><trkpt lat="43.0503625" lon="13.2752256"><ele>538.0</ele><time>2026-04-11T12:18:35.948Z</time></trkpt><trkpt lat="43.0503414" lon="13.2753214"><ele>538.0</ele><time>2026-04-11T12:18:36.976Z</time></trkpt><trkpt lat="43.0502802" lon="13.2754244"><ele>538.0</ele><time>2026-04-11T12:18:37.945Z</time></trkpt><trkpt lat="43.0502198" lon="13.2755132"><ele>538.0</ele><time>2026-04-11T12:18:38.954Z</time></trkpt><trkpt lat="43.0501843" lon="13.2755871"><ele>538.0</ele><time>2026-04-11T12:18:39.981Z</time></trkpt><trkpt lat="43.0501657" lon="13.2756722"><ele>538.0</ele><time>2026-04-11T12:18:40.972Z</time></trkpt><trkpt lat="43.0501485" lon="13.2758356"><ele>537.75</ele><time>2026-04-11T12:18:42.968Z</time></trkpt><trkpt lat="43.0501084" lon="13.2759354"><ele>537.5</ele><time>2026-04-11T12:18:43.985Z</time></trkpt><trkpt lat="43.0500316" lon="13.2760664"><ele>537.25</ele><time>2026-04-11T12:18:44.974Z</time></trkpt><trkpt lat="43.0499161" lon="13.2762308"><ele>537.0</ele><time>2026-04-11T12:18:45.974Z</time></trkpt><trkpt lat="43.0497708" lon="13.2764144"><ele>535.5</ele><time>2026-04-11T12:18:46.995Z</time></trkpt><trkpt lat="43.0496062" lon="13.276616"><ele>534.0</ele><time>2026-04-11T12:18:48.019Z</time></trkpt><trkpt lat="43.0494349" lon="13.2768349"><ele>534.0</ele><time>2026-04-11T12:18:48.983Z</time></trkpt><trkpt lat="43.0492775" lon="13.2770397"><ele>534.0</ele><time>2026-04-11T12:18:49.998Z</time></trkpt><trkpt lat="43.0491322" lon="13.2772242"><ele>534.0</ele><time>2026-04-11T12:18:50.998Z</time></trkpt><trkpt lat="43.0489956" lon="13.2773955"><ele>534.6666666666666</ele><time>2026-04-11T12:18:51.997Z</time></trkpt><trkpt lat="43.0488653" lon="13.2775585"><ele>535.3333333333333</ele><time>2026-04-11T12:18:52.99Z</time></trkpt><trkpt lat="43.0487472" lon="13.277726"><ele>536.0</ele><time>2026-04-11T12:18:54.038Z</time></trkpt><trkpt lat="43.0486426" lon="13.2778974"><ele>536.0</ele><time>2026-04-11T12:18:55.011Z</time></trkpt><trkpt lat="43.0485602" lon="13.2780714"><ele>536.0</ele><time>2026-04-11T12:18:55.982Z</time></trkpt><trkpt lat="43.0484786" lon="13.2782386"><ele>536.0</ele><time>2026-04-11T12:18:56.994Z</time></trkpt><trkpt lat="43.0484458" lon="13.2784363"><ele>536.0</ele><time>2026-04-11T12:18:58.006Z</time></trkpt><trkpt lat="43.0484097" lon="13.2786392"><ele>535.6666666666666</ele><time>2026-04-11T12:18:59.006Z</time></trkpt><trkpt lat="43.0484114" lon="13.2788681"><ele>535.3333333333334</ele><time>2026-04-11T12:18:59.99Z</time></trkpt><trkpt lat="43.048469" lon="13.2791059"><ele>535.0</ele><time>2026-04-11T12:19:00.968Z</time></trkpt><trkpt lat="43.0485546" lon="13.2793621"><ele>534.3333333333334</ele><time>2026-04-11T12:19:01.979Z</time></trkpt><trkpt lat="43.0486211" lon="13.2795947"><ele>533.6666666666666</ele><time>2026-04-11T12:19:02.979Z</time></trkpt><trkpt lat="43.0486656" lon="13.2798137"><ele>533.0</ele><time>2026-04-11T12:19:04.017Z</time></trkpt><trkpt lat="43.0486947" lon="13.2800321"><ele>531.0</ele><time>2026-04-11T12:19:05.003Z</time></trkpt><trkpt lat="43.0486965" lon="13.2802376"><ele>529.0</ele><time>2026-04-11T12:19:06.019Z</time></trkpt><trkpt lat="43.0486671" lon="13.2804369"><ele>527.0</ele><time>2026-04-11T12:19:06.987Z</time></trkpt><trkpt lat="43.0486119" lon="13.2806278"><ele>525.0</ele><time>2026-04-11T12:19:07.972Z</time></trkpt><trkpt lat="43.0485285" lon="13.2808184"><ele>524.3333333333334</ele><time>2026-04-11T12:19:08.984Z</time></trkpt><trkpt lat="43.048416" lon="13.2809964"><ele>523.6666666666667</ele><time>2026-04-11T12:19:09.996Z</time></trkpt><trkpt lat="43.0482771" lon="13.2811771"><ele>523.0</ele><time>2026-04-11T12:19:10.996Z</time></trkpt><trkpt lat="43.0481358" lon="13.2813453"><ele>521.0</ele><time>2026-04-11T12:19:11.966Z</time></trkpt><trkpt lat="43.0480008" lon="13.2814904"><ele>519.0</ele><time>2026-04-11T12:19:12.992Z</time></trkpt><trkpt lat="43.0478596" lon="13.2816157"><ele>517.0</ele><time>2026-04-11T12:19:13.984Z</time></trkpt><trkpt lat="43.0477071" lon="13.2817074"><ele>517.0</ele><time>2026-04-11T12:19:15.018Z</time></trkpt><trkpt lat="43.0475655" lon="13.2817788"><ele>517.0</ele><time>2026-04-11T12:19:16.004Z</time></trkpt><trkpt lat="43.04739" lon="13.2818388"><ele>517.0</ele><time>2026-04-11T12:19:16.972Z</time></trkpt><trkpt lat="43.0472068" lon="13.2819043"><ele>516.0</ele><time>2026-04-11T12:19:17.967Z</time></trkpt><trkpt lat="43.0470286" lon="13.2819526"><ele>515.0</ele><time>2026-04-11T12:19:18.988Z</time></trkpt><trkpt lat="43.0468443" lon="13.2819865"><ele>514.0</ele><time>2026-04-11T12:19:19.967Z</time></trkpt><trkpt lat="43.0466776" lon="13.2820302"><ele>511.0</ele><time>2026-04-11T12:19:20.994Z</time></trkpt><trkpt lat="43.0465374" lon="13.2820934"><ele>508.0</ele><time>2026-04-11T12:19:21.96Z</time></trkpt><trkpt lat="43.0463986" lon="13.2822031"><ele>505.0</ele><time>2026-04-11T12:19:23.001Z</time></trkpt><trkpt lat="43.0462659" lon="13.2823576"><ele>505.0</ele><time>2026-04-11T12:19:24.01Z</time></trkpt><trkpt lat="43.0461313" lon="13.2825475"><ele>505.0</ele><time>2026-04-11T12:19:24.976Z</time></trkpt><trkpt lat="43.0459968" lon="13.2827442"><ele>505.0</ele><time>2026-04-11T12:19:25.982Z</time></trkpt><trkpt lat="43.04587" lon="13.2829372"><ele>504.0</ele><time>2026-04-11T12:19:27.031Z</time></trkpt><trkpt lat="43.0457268" lon="13.2830852"><ele>503.0</ele><time>2026-04-11T12:19:27.993Z</time></trkpt><trkpt lat="43.0455694" lon="13.2831761"><ele>502.0</ele><time>2026-04-11T12:19:28.974Z</time></trkpt><trkpt lat="43.045425" lon="13.2832723"><ele>502.0</ele><time>2026-04-11T12:19:29.988Z</time></trkpt><trkpt lat="43.0452715" lon="13.2833429"><ele>502.0</ele><time>2026-04-11T12:19:31.01Z</time></trkpt><trkpt lat="43.0451284" lon="13.2834364"><ele>502.0</ele><time>2026-04-11T12:19:32.007Z</time></trkpt><trkpt lat="43.0449924" lon="13.2835291"><ele>506.6666666666667</ele><time>2026-04-11T12:19:32.986Z</time></trkpt><trkpt lat="43.0448585" lon="13.2836317"><ele>511.33333333333337</ele><time>2026-04-11T12:19:33.993Z</time></trkpt><trkpt lat="43.0447349" lon="13.2837376"><ele>516.0</ele><time>2026-04-11T12:19:35.009Z</time></trkpt><trkpt lat="43.0446088" lon="13.2838554"><ele>514.0</ele><time>2026-04-11T12:19:36.002Z</time></trkpt><trkpt lat="43.0444872" lon="13.2839859"><ele>512.0</ele><time>2026-04-11T12:19:36.999Z</time></trkpt><trkpt lat="43.0443644" lon="13.2841194"><ele>510.0</ele><time>2026-04-11T12:19:38.03Z</time></trkpt><trkpt lat="43.0442338" lon="13.2842597"><ele>511.0</ele><time>2026-04-11T12:19:39.006Z</time></trkpt><trkpt lat="43.0440861" lon="13.284417"><ele>512.0</ele><time>2026-04-11T12:19:39.986Z</time></trkpt><trkpt lat="43.0439474" lon="13.2845595"><ele>513.0</ele><time>2026-04-11T12:19:41.017Z</time></trkpt><trkpt lat="43.0438193" lon="13.2846971"><ele>510.66666666666663</ele><time>2026-04-11T12:19:41.998Z</time></trkpt><trkpt lat="43.043701" lon="13.2848317"><ele>508.3333333333333</ele><time>2026-04-11T12:19:43.004Z</time></trkpt><trkpt lat="43.0435945" lon="13.2849879"><ele>506.0</ele><time>2026-04-11T12:19:44.003Z</time></trkpt><trkpt lat="43.0435037" lon="13.2851733"><ele>506.0</ele><time>2026-04-11T12:19:44.996Z</time></trkpt><trkpt lat="43.0434244" lon="13.2853958"><ele>506.0</ele><time>2026-04-11T12:19:45.99Z</time></trkpt><trkpt lat="43.0433555" lon="13.2856173"><ele>506.0</ele><time>2026-04-11T12:19:46.98Z</time></trkpt><trkpt lat="43.0432796" lon="13.2858225"><ele>505.0</ele><time>2026-04-11T12:19:47.988Z</time></trkpt><trkpt lat="43.0431843" lon="13.2860083"><ele>504.0</ele><time>2026-04-11T12:19:48.997Z</time></trkpt><trkpt lat="43.043083" lon="13.2861817"><ele>503.0</ele><time>2026-04-11T12:19:49.983Z</time></trkpt><trkpt lat="43.0429735" lon="13.2863493"><ele>500.0</ele><time>2026-04-11T12:19:51.006Z</time></trkpt><trkpt lat="43.0428482" lon="13.286503"><ele>497.0</ele><time>2026-04-11T12:19:51.991Z</time></trkpt><trkpt lat="43.042721" lon="13.2866386"><ele>494.0</ele><time>2026-04-11T12:19:53.003Z</time></trkpt><trkpt lat="43.0425758" lon="13.2867416"><ele>497.0</ele><time>2026-04-11T12:19:53.975Z</time></trkpt><trkpt lat="43.0424105" lon="13.2868483"><ele>500.0</ele><time>2026-04-11T12:19:55.04Z</time></trkpt><trkpt lat="43.0422293" lon="13.2869065"><ele>503.0</ele><time>2026-04-11T12:19:55.999Z</time></trkpt><trkpt lat="43.0420498" lon="13.2869635"><ele>503.0</ele><time>2026-04-11T12:19:56.963Z</time></trkpt><trkpt lat="43.0418907" lon="13.2870237"><ele>503.0</ele><time>2026-04-11T12:19:58Z</time></trkpt><trkpt lat="43.0417344" lon="13.2870873"><ele>503.0</ele><time>2026-04-11T12:19:58.977Z</time></trkpt><trkpt lat="43.0415873" lon="13.2871624"><ele>501.5</ele><time>2026-04-11T12:20:00.061Z</time></trkpt><trkpt lat="43.0413096" lon="13.2873726"><ele>500.0</ele><time>2026-04-11T12:20:01.98Z</time></trkpt><trkpt lat="43.0411763" lon="13.2875177"><ele>500.0</ele><time>2026-04-11T12:20:02.988Z</time></trkpt><trkpt lat="43.0410833" lon="13.2877012"><ele>500.0</ele><time>2026-04-11T12:20:04.018Z</time></trkpt><trkpt lat="43.0409942" lon="13.2878838"><ele>500.0</ele><time>2026-04-11T12:20:05.004Z</time></trkpt><trkpt lat="43.0409096" lon="13.2880625"><ele>500.3333333333333</ele><time>2026-04-11T12:20:05.987Z</time></trkpt><trkpt lat="43.0408238" lon="13.2882331"><ele>500.66666666666663</ele><time>2026-04-11T12:20:07.02Z</time></trkpt><trkpt lat="43.0407353" lon="13.2884012"><ele>501.0</ele><time>2026-04-11T12:20:08.004Z</time></trkpt><trkpt lat="43.0406457" lon="13.2885728"><ele>501.0</ele><time>2026-04-11T12:20:08.99Z</time></trkpt><trkpt lat="43.0405514" lon="13.288759"><ele>501.0</ele><time>2026-04-11T12:20:09.98Z</time></trkpt><trkpt lat="43.0404485" lon="13.2889697"><ele>501.0</ele><time>2026-04-11T12:20:11.057Z</time></trkpt><trkpt lat="43.0403405" lon="13.2891896"><ele>501.0</ele><time>2026-04-11T12:20:11.996Z</time></trkpt><trkpt lat="43.0402407" lon="13.2894025"><ele>501.0</ele><time>2026-04-11T12:20:13.019Z</time></trkpt><trkpt lat="43.0401513" lon="13.289619"><ele>501.0</ele><time>2026-04-11T12:20:13.987Z</time></trkpt><trkpt lat="43.0400712" lon="13.2898333"><ele>501.0</ele><time>2026-04-11T12:20:14.987Z</time></trkpt><trkpt lat="43.0400086" lon="13.2900339"><ele>501.0</ele><time>2026-04-11T12:20:15.98Z</time></trkpt><trkpt lat="43.0399432" lon="13.2902222"><ele>501.0</ele><time>2026-04-11T12:20:16.959Z</time></trkpt><trkpt lat="43.0398781" lon="13.2904032"><ele>508.66666666666663</ele><time>2026-04-11T12:20:17.999Z</time></trkpt><trkpt lat="43.0398084" lon="13.2905856"><ele>516.3333333333333</ele><time>2026-04-11T12:20:18.991Z</time></trkpt><trkpt lat="43.0397419" lon="13.2907834"><ele>524.0</ele><time>2026-04-11T12:20:19.944Z</time></trkpt><trkpt lat="43.0396754" lon="13.2909794"><ele>524.0</ele><time>2026-04-11T12:20:20.996Z</time></trkpt><trkpt lat="43.039615" lon="13.2911893"><ele>524.0</ele><time>2026-04-11T12:20:21.944Z</time></trkpt><trkpt lat="43.0395549" lon="13.2914075"><ele>524.0</ele><time>2026-04-11T12:20:22.977Z</time></trkpt><trkpt lat="43.0395023" lon="13.2916261"><ele>523.5</ele><time>2026-04-11T12:20:23.983Z</time></trkpt><trkpt lat="43.0394622" lon="13.2918298"><ele>523.0</ele><time>2026-04-11T12:20:24.986Z</time></trkpt><trkpt lat="43.039423" lon="13.2920236"><ele>522.5</ele><time>2026-04-11T12:20:25.987Z</time></trkpt><trkpt lat="43.0393842" lon="13.2922097"><ele>522.0</ele><time>2026-04-11T12:20:26.955Z</time></trkpt><trkpt lat="43.0393475" lon="13.2923884"><ele>523.0</ele><time>2026-04-11T12:20:28.006Z</time></trkpt><trkpt lat="43.0393061" lon="13.2925588"><ele>524.0</ele><time>2026-04-11T12:20:28.988Z</time></trkpt><trkpt lat="43.0392553" lon="13.292729"><ele>525.0</ele><time>2026-04-11T12:20:30.001Z</time></trkpt><trkpt lat="43.0391935" lon="13.2928997"><ele>526.0</ele><time>2026-04-11T12:20:30.937Z</time></trkpt><trkpt lat="43.0391177" lon="13.2930569"><ele>526.5</ele><time>2026-04-11T12:20:31.951Z</time></trkpt><trkpt lat="43.0390389" lon="13.2932024"><ele>527.0</ele><time>2026-04-11T12:20:32.992Z</time></trkpt><trkpt lat="43.0389481" lon="13.2933352"><ele>527.5</ele><time>2026-04-11T12:20:34.008Z</time></trkpt><trkpt lat="43.0388804" lon="13.2934803"><ele>528.0</ele><time>2026-04-11T12:20:35.014Z</time></trkpt><trkpt lat="43.0388451" lon="13.2936471"><ele>528.0</ele><time>2026-04-11T12:20:36.01Z</time></trkpt><trkpt lat="43.0388151" lon="13.2938208"><ele>528.0</ele><time>2026-04-11T12:20:36.946Z</time></trkpt><trkpt lat="43.0388284" lon="13.2940076"><ele>528.0</ele><time>2026-04-11T12:20:37.988Z</time></trkpt><trkpt lat="43.0388439" lon="13.2942106"><ele>528.0</ele><time>2026-04-11T12:20:38.939Z</time></trkpt><trkpt lat="43.0388449" lon="13.2944074"><ele>529.0</ele><time>2026-04-11T12:20:39.986Z</time></trkpt><trkpt lat="43.0388347" lon="13.2946026"><ele>530.0</ele><time>2026-04-11T12:20:40.987Z</time></trkpt><trkpt lat="43.0388259" lon="13.2947872"><ele>531.0</ele><time>2026-04-11T12:20:41.948Z</time></trkpt><trkpt lat="43.0388116" lon="13.2949658"><ele>532.0</ele><time>2026-04-11T12:20:43.004Z</time></trkpt><trkpt lat="43.0387953" lon="13.2951457"><ele>532.0</ele><time>2026-04-11T12:20:43.995Z</time></trkpt><trkpt lat="43.0387663" lon="13.2953258"><ele>532.0</ele><time>2026-04-11T12:20:45.007Z</time></trkpt><trkpt lat="43.0387247" lon="13.2955025"><ele>532.0</ele><time>2026-04-11T12:20:45.957Z</time></trkpt><trkpt lat="43.0386724" lon="13.2956721"><ele>532.0</ele><time>2026-04-11T12:20:46.993Z</time></trkpt><trkpt lat="43.0386153" lon="13.295831"><ele>530.0</ele><time>2026-04-11T12:20:47.995Z</time></trkpt><trkpt lat="43.0385532" lon="13.2959873"><ele>528.0</ele><time>2026-04-11T12:20:49.04Z</time></trkpt><trkpt lat="43.0384735" lon="13.296135"><ele>526.0</ele><time>2026-04-11T12:20:50.021Z</time></trkpt><trkpt lat="43.0383869" lon="13.2962684"><ele>524.0</ele><time>2026-04-11T12:20:51.034Z</time></trkpt><trkpt lat="43.0383037" lon="13.2963933"><ele>526.25</ele><time>2026-04-11T12:20:51.992Z</time></trkpt><trkpt lat="43.0382186" lon="13.2965186"><ele>528.5</ele><time>2026-04-11T12:20:53.019Z</time></trkpt><trkpt lat="43.0381269" lon="13.2966402"><ele>530.75</ele><time>2026-04-11T12:20:54.017Z</time></trkpt><trkpt lat="43.0380493" lon="13.2967468"><ele>533.0</ele><time>2026-04-11T12:20:54.993Z</time></trkpt><trkpt lat="43.0379796" lon="13.2968505"><ele>533.0</ele><time>2026-04-11T12:20:56.004Z</time></trkpt><trkpt lat="43.037906" lon="13.2969518"><ele>533.0</ele><time>2026-04-11T12:20:56.95Z</time></trkpt><trkpt lat="43.0378288" lon="13.2970575"><ele>533.0</ele><time>2026-04-11T12:20:57.951Z</time></trkpt><trkpt lat="43.0377639" lon="13.2971616"><ele>533.0</ele><time>2026-04-11T12:20:59.003Z</time></trkpt><trkpt lat="43.0376902" lon="13.2972739"><ele>533.0</ele><time>2026-04-11T12:21:00.001Z</time></trkpt><trkpt lat="43.0376131" lon="13.2973777"><ele>531.75</ele><time>2026-04-11T12:21:01.012Z</time></trkpt><trkpt lat="43.0375459" lon="13.2974866"><ele>530.5</ele><time>2026-04-11T12:21:01.947Z</time></trkpt><trkpt lat="43.0374723" lon="13.2976003"><ele>529.25</ele><time>2026-04-11T12:21:02.998Z</time></trkpt><trkpt lat="43.0373866" lon="13.2977218"><ele>528.0</ele><time>2026-04-11T12:21:03.975Z</time></trkpt><trkpt lat="43.0372969" lon="13.2978278"><ele>528.0</ele><time>2026-04-11T12:21:05Z</time></trkpt><trkpt lat="43.0371934" lon="13.2979168"><ele>528.0</ele><time>2026-04-11T12:21:05.979Z</time></trkpt><trkpt lat="43.0370838" lon="13.2980018"><ele>528.0</ele><time>2026-04-11T12:21:06.955Z</time></trkpt><trkpt lat="43.0369523" lon="13.298049"><ele>528.0</ele><time>2026-04-11T12:21:07.983Z</time></trkpt><trkpt lat="43.0368019" lon="13.2980512"><ele>528.0</ele><time>2026-04-11T12:21:08.99Z</time></trkpt><trkpt lat="43.0366643" lon="13.2980021"><ele>528.0</ele><time>2026-04-11T12:21:09.993Z</time></trkpt><trkpt lat="43.0365366" lon="13.2979602"><ele>528.0</ele><time>2026-04-11T12:21:11.005Z</time></trkpt><trkpt lat="43.0364213" lon="13.2979388"><ele>528.0</ele><time>2026-04-11T12:21:11.946Z</time></trkpt><trkpt lat="43.0363024" lon="13.2979338"><ele>527.5</ele><time>2026-04-11T12:21:12.983Z</time></trkpt><trkpt lat="43.0362089" lon="13.2979364"><ele>527.0</ele><time>2026-04-11T12:21:13.989Z</time></trkpt><trkpt lat="43.0361235" lon="13.2979746"><ele>526.5</ele><time>2026-04-11T12:21:14.955Z</time></trkpt><trkpt lat="43.0360429" lon="13.2980243"><ele>526.0</ele><time>2026-04-11T12:21:15.982Z</time></trkpt><trkpt lat="43.0359793" lon="13.2980775"><ele>525.5</ele><time>2026-04-11T12:21:16.959Z</time></trkpt><trkpt lat="43.0359205" lon="13.2981396"><ele>525.0</ele><time>2026-04-11T12:21:17.999Z</time></trkpt><trkpt lat="43.0358679" lon="13.2982034"><ele>524.3333333333334</ele><time>2026-04-11T12:21:18.981Z</time></trkpt><trkpt lat="43.0358136" lon="13.2982753"><ele>523.6666666666666</ele><time>2026-04-11T12:21:19.979Z</time></trkpt><trkpt lat="43.0357598" lon="13.2983485"><ele>523.0</ele><time>2026-04-11T12:21:20.982Z</time></trkpt><trkpt lat="43.0357071" lon="13.2984364"><ele>522.3333333333333</ele><time>2026-04-11T12:21:21.956Z</time></trkpt><trkpt lat="43.0356581" lon="13.2985412"><ele>521.6666666666666</ele><time>2026-04-11T12:21:22.993Z</time></trkpt><trkpt lat="43.0356176" lon="13.2986522"><ele>521.0</ele><time>2026-04-11T12:21:23.997Z</time></trkpt><trkpt lat="43.0355873" lon="13.2987738"><ele>519.8333333333333</ele><time>2026-04-11T12:21:25.045Z</time></trkpt><trkpt lat="43.0355654" lon="13.2988883"><ele>518.6666666666666</ele><time>2026-04-11T12:21:25.99Z</time></trkpt><trkpt lat="43.0355527" lon="13.2990047"><ele>517.5</ele><time>2026-04-11T12:21:26.959Z</time></trkpt><trkpt lat="43.0355348" lon="13.2991195"><ele>516.3333333333334</ele><time>2026-04-11T12:21:27.995Z</time></trkpt><trkpt lat="43.0355249" lon="13.2992253"><ele>515.1666666666667</ele><time>2026-04-11T12:21:28.988Z</time></trkpt><trkpt lat="43.0355185" lon="13.2993288"><ele>514.0</ele><time>2026-04-11T12:21:29.998Z</time></trkpt><trkpt lat="43.0355215" lon="13.2994379"><ele>512.6</ele><time>2026-04-11T12:21:31.048Z</time></trkpt><trkpt lat="43.0355133" lon="13.2996055"><ele>511.2</ele><time>2026-04-11T12:21:32.988Z</time></trkpt><trkpt lat="43.0354192" lon="13.2996578"><ele>509.80000000000007</ele><time>2026-04-11T12:21:35.958Z</time></trkpt><trkpt lat="43.0353098" lon="13.2995456"><ele>508.40000000000003</ele><time>2026-04-11T12:21:37.999Z</time></trkpt><trkpt lat="43.0352564" lon="13.299486"><ele>507.0</ele><time>2026-04-11T12:21:38.949Z</time></trkpt><trkpt lat="43.0351968" lon="13.2994118"><ele>507.0</ele><time>2026-04-11T12:21:39.986Z</time></trkpt><trkpt lat="43.0350964" lon="13.2993196"><ele>507.0</ele><time>2026-04-11T12:21:40.989Z</time></trkpt><trkpt lat="43.0349928" lon="13.299217"><ele>507.0</ele><time>2026-04-11T12:21:41.977Z</time></trkpt><trkpt lat="43.0348721" lon="13.2991268"><ele>507.0</ele><time>2026-04-11T12:21:43.003Z</time></trkpt><trkpt lat="43.0347561" lon="13.2990428"><ele>506.0</ele><time>2026-04-11T12:21:43.98Z</time></trkpt><trkpt lat="43.0346207" lon="13.2989278"><ele>505.0</ele><time>2026-04-11T12:21:45Z</time></trkpt><trkpt lat="43.0344696" lon="13.2988406"><ele>504.0</ele><time>2026-04-11T12:21:45.979Z</time></trkpt><trkpt lat="43.0343323" lon="13.2987423"><ele>504.0</ele><time>2026-04-11T12:21:46.998Z</time></trkpt><trkpt lat="43.0341933" lon="13.2986573"><ele>504.0</ele><time>2026-04-11T12:21:47.972Z</time></trkpt><trkpt lat="43.0340416" lon="13.2985408"><ele>504.0</ele><time>2026-04-11T12:21:48.997Z</time></trkpt><trkpt lat="43.0338801" lon="13.2983805"><ele>505.0</ele><time>2026-04-11T12:21:49.989Z</time></trkpt><trkpt lat="43.0337074" lon="13.2982113"><ele>506.0</ele><time>2026-04-11T12:21:50.975Z</time></trkpt><trkpt lat="43.0335077" lon="13.2980253"><ele>504.0</ele><time>2026-04-11T12:21:51.984Z</time></trkpt><trkpt lat="43.0332779" lon="13.2978497"><ele>502.0</ele><time>2026-04-11T12:21:52.98Z</time></trkpt><trkpt lat="43.0330924" lon="13.2977017"><ele>502.0</ele><time>2026-04-11T12:21:53.968Z</time></trkpt><trkpt lat="43.0329225" lon="13.2975915"><ele>502.0</ele><time>2026-04-11T12:21:54.996Z</time></trkpt><trkpt lat="43.0327452" lon="13.2974656"><ele>502.0</ele><time>2026-04-11T12:21:55.96Z</time></trkpt><trkpt lat="43.0326003" lon="13.2973615"><ele>503.33333333333337</ele><time>2026-04-11T12:21:57.011Z</time></trkpt><trkpt lat="43.0324384" lon="13.2972772"><ele>504.66666666666663</ele><time>2026-04-11T12:21:58.002Z</time></trkpt><trkpt lat="43.0322468" lon="13.2972119"><ele>506.0</ele><time>2026-04-11T12:21:59Z</time></trkpt><trkpt lat="43.0320352" lon="13.2971503"><ele>506.0</ele><time>2026-04-11T12:21:59.986Z</time></trkpt><trkpt lat="43.0318457" lon="13.2970987"><ele>506.0</ele><time>2026-04-11T12:22:00.99Z</time></trkpt><trkpt lat="43.0316824" lon="13.29705"><ele>506.0</ele><time>2026-04-11T12:22:02.004Z</time></trkpt><trkpt lat="43.0315446" lon="13.297004"><ele>504.20000000000005</ele><time>2026-04-11T12:22:02.984Z</time></trkpt><trkpt lat="43.0314294" lon="13.2969595"><ele>502.40000000000003</ele><time>2026-04-11T12:22:03.994Z</time></trkpt><trkpt lat="43.0313304" lon="13.2969052"><ele>500.6</ele><time>2026-04-11T12:22:04.992Z</time></trkpt><trkpt lat="43.0312332" lon="13.296849"><ele>498.8</ele><time>2026-04-11T12:22:06.007Z</time></trkpt><trkpt lat="43.0311513" lon="13.296742"><ele>497.0</ele><time>2026-04-11T12:22:07.013Z</time></trkpt><trkpt lat="43.0310795" lon="13.2966216"><ele>497.0</ele><time>2026-04-11T12:22:07.992Z</time></trkpt><trkpt lat="43.0310143" lon="13.2964946"><ele>497.0</ele><time>2026-04-11T12:22:08.985Z</time></trkpt><trkpt lat="43.0309112" lon="13.2964285"><ele>497.0</ele><time>2026-04-11T12:22:09.966Z</time></trkpt><trkpt lat="43.0307939" lon="13.2964092"><ele>497.0</ele><time>2026-04-11T12:22:10.982Z</time></trkpt><trkpt lat="43.0306773" lon="13.2964248"><ele>496.20000000000005</ele><time>2026-04-11T12:22:11.971Z</time></trkpt><trkpt lat="43.0305723" lon="13.2964621"><ele>495.40000000000003</ele><time>2026-04-11T12:22:12.957Z</time></trkpt><trkpt lat="43.0304709" lon="13.2964952"><ele>494.59999999999997</ele><time>2026-04-11T12:22:13.945Z</time></trkpt><trkpt lat="43.0303843" lon="13.2965437"><ele>493.79999999999995</ele><time>2026-04-11T12:22:15.026Z</time></trkpt><trkpt lat="43.0303087" lon="13.2965816"><ele>493.0</ele><time>2026-04-11T12:22:16.005Z</time></trkpt><trkpt lat="43.0302475" lon="13.2966042"><ele>493.0</ele><time>2026-04-11T12:22:17.003Z</time></trkpt><trkpt lat="43.0301453" lon="13.2966314"><ele>492.99999999999994</ele><time>2026-04-11T12:22:19.009Z</time></trkpt><trkpt lat="43.0300648" lon="13.2966273"><ele>492.99999999999994</ele><time>2026-04-11T12:22:20.951Z</time></trkpt><trkpt lat="43.030073" lon="13.2964882"><ele>493.0</ele><time>2026-04-11T12:22:23.981Z</time></trkpt><trkpt lat="43.0300936" lon="13.2964008"><ele>493.0</ele><time>2026-04-11T12:22:25.983Z</time></trkpt><trkpt lat="43.0299867" lon="13.2963532"><ele>492.79999999999995</ele><time>2026-04-11T12:23:08.975Z</time></trkpt><trkpt lat="43.0298974" lon="13.2963286"><ele>492.59999999999997</ele><time>2026-04-11T12:23:10.973Z</time></trkpt><trkpt lat="43.0298154" lon="13.2963128"><ele>492.40000000000003</ele><time>2026-04-11T12:23:11.976Z</time></trkpt><trkpt lat="43.0297309" lon="13.2963064"><ele>492.20000000000005</ele><time>2026-04-11T12:23:13.961Z</time></trkpt><trkpt lat="43.0296374" lon="13.2962782"><ele>492.0</ele><time>2026-04-11T12:23:16.998Z</time></trkpt><trkpt lat="43.0298106" lon="13.2964049"><ele>492.0</ele><time>2026-04-11T12:24:24.94Z</time></trkpt></trkseg></trk></gpx>